<?xml version='1.0' encoding='UTF-8'?><gpx version="1.1" creator="JPX - https://github.com/jenetics/jpx" xmlns="http://www.topografix.com/GPX/1/1"><trk><trkseg><trkpt lat="41.8769616" lon="12.5772472"><ele>50.0</ele><time>2026-05-03T10:15:55.042Z</time></trkpt><trkpt lat="41.8769831" lon="12.5778552"><ele>50.0</ele><time>2026-05-03T10:16:01.511Z</time></trkpt><trkpt lat="41.8770667" lon="12.5782921"><ele>50.0</ele><time>2026-05-03T10:16:07.516Z</time></trkpt><trkpt lat="41.8773048" lon="12.57849"><ele>52.5</ele><time>2026-05-03T10:16:13.719Z</time></trkpt><trkpt lat="41.8777088" lon="12.5784163"><ele>55.0</ele><time>2026-05-03T10:16:19.945Z</time></trkpt><trkpt lat="41.8782935" lon="12.5782916"><ele>51.0</ele><time>2026-05-03T10:16:25.985Z</time></trkpt><trkpt lat="41.8788122" lon="12.5781377"><ele>46.0</ele><time>2026-05-03T10:16:31.923Z</time></trkpt><trkpt lat="41.8794712" lon="12.5777354"><ele>46.0</ele><time>2026-05-03T10:16:37.934Z</time></trkpt><trkpt lat="41.8801959" lon="12.5777257"><ele>46.0</ele><time>2026-05-03T10:16:44.01Z</time></trkpt><trkpt lat="41.8807342" lon="12.5775684"><ele>45.5</ele><time>2026-05-03T10:16:50.052Z</time></trkpt><trkpt lat="41.8811341" lon="12.577459"><ele>45.0</ele><time>2026-05-03T10:16:56.136Z</time></trkpt><trkpt lat="41.8813222" lon="12.5769119"><ele>45.0</ele><time>2026-05-03T10:17:02.551Z</time></trkpt><trkpt lat="41.8811586" lon="12.5762272"><ele>42.5</ele><time>2026-05-03T10:17:08.827Z</time></trkpt><trkpt lat="41.8811238" lon="12.5759927"><ele>40.0</ele><time>2026-05-03T10:17:14.907Z</time></trkpt><trkpt lat="41.8808176" lon="12.5746166"><ele>35.0</ele><time>2026-05-03T10:17:20.928Z</time></trkpt><trkpt lat="41.8806906" lon="12.5736543"><ele>35.0</ele><time>2026-05-03T10:17:27.09Z</time></trkpt><trkpt lat="41.880779" lon="12.5734688"><ele>35.0</ele><time>2026-05-03T10:17:33.57Z</time></trkpt><trkpt lat="41.8808711" lon="12.5734215"><ele>35.0</ele><time>2026-05-03T10:17:40.021Z</time></trkpt><trkpt lat="41.8812995" lon="12.5733391"><ele>35.0</ele><time>2026-05-03T10:17:46.473Z</time></trkpt><trkpt lat="41.8809068" lon="12.5734708"><ele>35.0</ele><time>2026-05-03T10:17:52.936Z</time></trkpt><trkpt lat="41.8836938" lon="12.5736166"><ele>28.0</ele><time>2026-05-03T10:18:05.688Z</time></trkpt><trkpt lat="41.8861964" lon="12.5733137"><ele>33.0</ele><time>2026-05-03T10:18:17.648Z</time></trkpt><trkpt lat="41.887614" lon="12.572922"><ele>33.0</ele><time>2026-05-03T10:18:23.913Z</time></trkpt><trkpt lat="41.8882183" lon="12.5733616"><ele>34.0</ele><time>2026-05-03T10:18:29.401Z</time></trkpt><trkpt lat="41.8898708" lon="12.5736206"><ele>34.0</ele><time>2026-05-03T10:18:35.446Z</time></trkpt><trkpt lat="41.8902474" lon="12.5743672"><ele>34.0</ele><time>2026-05-03T10:18:41.37Z</time></trkpt><trkpt lat="41.8912321" lon="12.5745941"><ele>35.0</ele><time>2026-05-03T10:18:47.605Z</time></trkpt><trkpt lat="41.8919328" lon="12.5746572"><ele>33.0</ele><time>2026-05-03T10:18:53.693Z</time></trkpt><trkpt lat="41.8927593" lon="12.5744949"><ele>34.0</ele><time>2026-05-03T10:19:05.812Z</time></trkpt><trkpt lat="41.8939382" lon="12.575079"><ele>32.5</ele><time>2026-05-03T10:19:11.861Z</time></trkpt><trkpt lat="41.894384" lon="12.5751532"><ele>31.0</ele><time>2026-05-03T10:19:18.312Z</time></trkpt><trkpt lat="41.8955483" lon="12.5757339"><ele>31.0</ele><time>2026-05-03T10:19:25.002Z</time></trkpt><trkpt lat="41.8957233" lon="12.5757612"><ele>31.0</ele><time>2026-05-03T10:19:27.931Z</time></trkpt><trkpt lat="41.8958842" lon="12.5757982"><ele>31.0</ele><time>2026-05-03T10:19:28.935Z</time></trkpt><trkpt lat="41.8960335" lon="12.5758266"><ele>31.200000000000003</ele><time>2026-05-03T10:19:29.945Z</time></trkpt><trkpt lat="41.8961817" lon="12.5758132"><ele>31.400000000000002</ele><time>2026-05-03T10:19:30.944Z</time></trkpt><trkpt lat="41.8962" lon="12.5759374"><ele>31.6</ele><time>2026-05-03T10:19:31.944Z</time></trkpt><trkpt lat="41.8962786" lon="12.5759371"><ele>31.8</ele><time>2026-05-03T10:19:32.948Z</time></trkpt><trkpt lat="41.8963379" lon="12.5759809"><ele>32.0</ele><time>2026-05-03T10:19:33.94Z</time></trkpt><trkpt lat="41.8964498" lon="12.5759899"><ele>32.0</ele><time>2026-05-03T10:19:34.941Z</time></trkpt><trkpt lat="41.8965594" lon="12.5759307"><ele>32.0</ele><time>2026-05-03T10:19:35.941Z</time></trkpt><trkpt lat="41.8966776" lon="12.575903"><ele>32.0</ele><time>2026-05-03T10:19:36.945Z</time></trkpt><trkpt lat="41.8967517" lon="12.5759023"><ele>32.0</ele><time>2026-05-03T10:19:37.945Z</time></trkpt><trkpt lat="41.8968224" lon="12.5758906"><ele>32.0</ele><time>2026-05-03T10:19:38.948Z</time></trkpt><trkpt lat="41.8968968" lon="12.575885"><ele>31.499999999999996</ele><time>2026-05-03T10:19:39.942Z</time></trkpt><trkpt lat="41.8969608" lon="12.5758665"><ele>31.0</ele><time>2026-05-03T10:19:40.946Z</time></trkpt><trkpt lat="41.897056" lon="12.5758244"><ele>30.5</ele><time>2026-05-03T10:19:42.945Z</time></trkpt><trkpt lat="41.8971069" lon="12.5757635"><ele>30.0</ele><time>2026-05-03T10:19:44.956Z</time></trkpt><trkpt lat="41.8971508" lon="12.575658"><ele>29.499999999999996</ele><time>2026-05-03T10:19:46.968Z</time></trkpt><trkpt lat="41.897228" lon="12.5756052"><ele>29.0</ele><time>2026-05-03T10:19:48.925Z</time></trkpt><trkpt lat="41.8972913" lon="12.5755766"><ele>29.0</ele><time>2026-05-03T10:19:49.928Z</time></trkpt><trkpt lat="41.8973717" lon="12.5755659"><ele>29.0</ele><time>2026-05-03T10:19:50.927Z</time></trkpt><trkpt lat="41.8974842" lon="12.5755766"><ele>29.0</ele><time>2026-05-03T10:19:51.923Z</time></trkpt><trkpt lat="41.8976349" lon="12.5755658"><ele>29.0</ele><time>2026-05-03T10:19:52.924Z</time></trkpt><trkpt lat="41.8977656" lon="12.5755863"><ele>30.0</ele><time>2026-05-03T10:19:53.924Z</time></trkpt><trkpt lat="41.8979105" lon="12.5755787"><ele>31.0</ele><time>2026-05-03T10:19:54.925Z</time></trkpt><trkpt lat="41.8980827" lon="12.5755508"><ele>32.0</ele><time>2026-05-03T10:19:55.922Z</time></trkpt><trkpt lat="41.898295" lon="12.5755564"><ele>32.33333333333333</ele><time>2026-05-03T10:19:56.923Z</time></trkpt><trkpt lat="41.8985112" lon="12.5755811"><ele>32.666666666666664</ele><time>2026-05-03T10:19:57.919Z</time></trkpt><trkpt lat="41.8987122" lon="12.5756136"><ele>33.0</ele><time>2026-05-03T10:19:58.925Z</time></trkpt><trkpt lat="41.8988365" lon="12.5757449"><ele>33.0</ele><time>2026-05-03T10:19:59.919Z</time></trkpt><trkpt lat="41.898996" lon="12.5757848"><ele>33.0</ele><time>2026-05-03T10:20:00.918Z</time></trkpt><trkpt lat="41.8991646" lon="12.5757658"><ele>33.0</ele><time>2026-05-03T10:20:01.919Z</time></trkpt><trkpt lat="41.8993428" lon="12.575748"><ele>31.5</ele><time>2026-05-03T10:20:02.924Z</time></trkpt><trkpt lat="41.8995202" lon="12.5757333"><ele>30.0</ele><time>2026-05-03T10:20:04.086Z</time></trkpt><trkpt lat="41.899901" lon="12.5756868"><ele>30.0</ele><time>2026-05-03T10:20:05.916Z</time></trkpt><trkpt lat="41.9000813" lon="12.5756534"><ele>30.0</ele><time>2026-05-03T10:20:06.917Z</time></trkpt><trkpt lat="41.9002686" lon="12.5756415"><ele>30.0</ele><time>2026-05-03T10:20:07.966Z</time></trkpt><trkpt lat="41.9004488" lon="12.5756243"><ele>30.0</ele><time>2026-05-03T10:20:08.964Z</time></trkpt><trkpt lat="41.9006434" lon="12.5755963"><ele>30.0</ele><time>2026-05-03T10:20:09.94Z</time></trkpt><trkpt lat="41.9008311" lon="12.5755676"><ele>30.0</ele><time>2026-05-03T10:20:10.944Z</time></trkpt><trkpt lat="41.9010187" lon="12.5755389"><ele>30.0</ele><time>2026-05-03T10:20:11.941Z</time></trkpt><trkpt lat="41.9011983" lon="12.575504"><ele>30.0</ele><time>2026-05-03T10:20:12.918Z</time></trkpt><trkpt lat="41.9013831" lon="12.5754625"><ele>30.0</ele><time>2026-05-03T10:20:13.921Z</time></trkpt><trkpt lat="41.9015639" lon="12.5754125"><ele>29.666666666666664</ele><time>2026-05-03T10:20:14.925Z</time></trkpt><trkpt lat="41.9017372" lon="12.5753265"><ele>29.333333333333332</ele><time>2026-05-03T10:20:15.919Z</time></trkpt><trkpt lat="41.9019181" lon="12.5752099"><ele>29.0</ele><time>2026-05-03T10:20:16.937Z</time></trkpt><trkpt lat="41.9020968" lon="12.5750848"><ele>29.666666666666664</ele><time>2026-05-03T10:20:17.926Z</time></trkpt><trkpt lat="41.902285" lon="12.5750111"><ele>30.333333333333336</ele><time>2026-05-03T10:20:18.919Z</time></trkpt><trkpt lat="41.9024749" lon="12.5749561"><ele>31.0</ele><time>2026-05-03T10:20:19.92Z</time></trkpt><trkpt lat="41.9026584" lon="12.5748971"><ele>29.666666666666668</ele><time>2026-05-03T10:20:20.928Z</time></trkpt><trkpt lat="41.9028138" lon="12.5748316"><ele>28.333333333333336</ele><time>2026-05-03T10:20:21.92Z</time></trkpt><trkpt lat="41.9029601" lon="12.5747624"><ele>27.0</ele><time>2026-05-03T10:20:22.934Z</time></trkpt><trkpt lat="41.903112" lon="12.574691"><ele>27.0</ele><time>2026-05-03T10:20:23.926Z</time></trkpt><trkpt lat="41.9032665" lon="12.574608"><ele>27.0</ele><time>2026-05-03T10:20:24.92Z</time></trkpt><trkpt lat="41.9034415" lon="12.5745287"><ele>27.0</ele><time>2026-05-03T10:20:25.928Z</time></trkpt><trkpt lat="41.9036313" lon="12.5744644"><ele>28.0</ele><time>2026-05-03T10:20:26.922Z</time></trkpt><trkpt lat="41.9038123" lon="12.5743969"><ele>29.0</ele><time>2026-05-03T10:20:27.924Z</time></trkpt><trkpt lat="41.9039962" lon="12.5743465"><ele>30.0</ele><time>2026-05-03T10:20:28.947Z</time></trkpt><trkpt lat="41.9042008" lon="12.5743037"><ele>30.0</ele><time>2026-05-03T10:20:29.923Z</time></trkpt><trkpt lat="41.9044218" lon="12.5742488"><ele>30.0</ele><time>2026-05-03T10:20:30.922Z</time></trkpt><trkpt lat="41.9046119" lon="12.5741806"><ele>30.0</ele><time>2026-05-03T10:20:31.922Z</time></trkpt><trkpt lat="41.9047984" lon="12.5740919"><ele>30.0</ele><time>2026-05-03T10:20:32.918Z</time></trkpt><trkpt lat="41.9049951" lon="12.5739881"><ele>30.0</ele><time>2026-05-03T10:20:33.923Z</time></trkpt><trkpt lat="41.9051946" lon="12.5739017"><ele>30.0</ele><time>2026-05-03T10:20:34.918Z</time></trkpt><trkpt lat="41.9053866" lon="12.5738477"><ele>28.666666666666664</ele><time>2026-05-03T10:20:35.918Z</time></trkpt><trkpt lat="41.9055813" lon="12.5737989"><ele>27.333333333333332</ele><time>2026-05-03T10:20:36.911Z</time></trkpt><trkpt lat="41.9057905" lon="12.5737421"><ele>26.0</ele><time>2026-05-03T10:20:37.913Z</time></trkpt><trkpt lat="41.9059913" lon="12.5737005"><ele>25.333333333333332</ele><time>2026-05-03T10:20:38.923Z</time></trkpt><trkpt lat="41.906201" lon="12.5736378"><ele>24.666666666666664</ele><time>2026-05-03T10:20:39.914Z</time></trkpt><trkpt lat="41.9064059" lon="12.5735737"><ele>24.0</ele><time>2026-05-03T10:20:40.913Z</time></trkpt><trkpt lat="41.906615" lon="12.5735111"><ele>25.5</ele><time>2026-05-03T10:20:41.914Z</time></trkpt><trkpt lat="41.9068387" lon="12.5734485"><ele>27.0</ele><time>2026-05-03T10:20:42.919Z</time></trkpt><trkpt lat="41.9070579" lon="12.5733759"><ele>27.0</ele><time>2026-05-03T10:20:43.915Z</time></trkpt><trkpt lat="41.9072818" lon="12.5733291"><ele>27.0</ele><time>2026-05-03T10:20:44.914Z</time></trkpt><trkpt lat="41.9074998" lon="12.5732776"><ele>27.0</ele><time>2026-05-03T10:20:45.917Z</time></trkpt><trkpt lat="41.9077163" lon="12.5732328"><ele>28.666666666666664</ele><time>2026-05-03T10:20:46.92Z</time></trkpt><trkpt lat="41.9079349" lon="12.5731654"><ele>30.333333333333332</ele><time>2026-05-03T10:20:47.916Z</time></trkpt><trkpt lat="41.9081427" lon="12.5731039"><ele>32.0</ele><time>2026-05-03T10:20:48.911Z</time></trkpt><trkpt lat="41.9083433" lon="12.5730312"><ele>32.0</ele><time>2026-05-03T10:20:49.913Z</time></trkpt><trkpt lat="41.9085333" lon="12.572965"><ele>32.0</ele><time>2026-05-03T10:20:50.913Z</time></trkpt><trkpt lat="41.9087132" lon="12.5729135"><ele>32.0</ele><time>2026-05-03T10:20:51.904Z</time></trkpt><trkpt lat="41.9089031" lon="12.572857"><ele>31.333333333333332</ele><time>2026-05-03T10:20:52.908Z</time></trkpt><trkpt lat="41.9090967" lon="12.5728142"><ele>30.666666666666664</ele><time>2026-05-03T10:20:53.911Z</time></trkpt><trkpt lat="41.9092647" lon="12.5727811"><ele>30.0</ele><time>2026-05-03T10:20:54.916Z</time></trkpt><trkpt lat="41.9093993" lon="12.5727529"><ele>30.0</ele><time>2026-05-03T10:20:55.918Z</time></trkpt><trkpt lat="41.9095416" lon="12.5726772"><ele>30.0</ele><time>2026-05-03T10:20:56.919Z</time></trkpt><trkpt lat="41.9097043" lon="12.5726115"><ele>30.0</ele><time>2026-05-03T10:20:57.919Z</time></trkpt><trkpt lat="41.9098732" lon="12.5725637"><ele>30.0</ele><time>2026-05-03T10:20:58.922Z</time></trkpt><trkpt lat="41.9100428" lon="12.5725309"><ele>30.0</ele><time>2026-05-03T10:20:59.915Z</time></trkpt><trkpt lat="41.9102368" lon="12.5724757"><ele>30.0</ele><time>2026-05-03T10:21:00.916Z</time></trkpt><trkpt lat="41.9104246" lon="12.5724317"><ele>30.333333333333336</ele><time>2026-05-03T10:21:01.907Z</time></trkpt><trkpt lat="41.9106038" lon="12.5724158"><ele>30.666666666666668</ele><time>2026-05-03T10:21:02.948Z</time></trkpt><trkpt lat="41.9107723" lon="12.5723912"><ele>31.0</ele><time>2026-05-03T10:21:03.917Z</time></trkpt><trkpt lat="41.910945" lon="12.5723429"><ele>32.0</ele><time>2026-05-03T10:21:04.916Z</time></trkpt><trkpt lat="41.9110928" lon="12.5722588"><ele>33.0</ele><time>2026-05-03T10:21:05.915Z</time></trkpt><trkpt lat="41.9112663" lon="12.5721726"><ele>34.0</ele><time>2026-05-03T10:21:06.919Z</time></trkpt><trkpt lat="41.9114405" lon="12.5720581"><ele>34.0</ele><time>2026-05-03T10:21:07.911Z</time></trkpt><trkpt lat="41.911612" lon="12.5719227"><ele>34.0</ele><time>2026-05-03T10:21:08.913Z</time></trkpt><trkpt lat="41.9117624" lon="12.5717465"><ele>34.0</ele><time>2026-05-03T10:21:09.921Z</time></trkpt><trkpt lat="41.911916" lon="12.5715611"><ele>34.333333333333336</ele><time>2026-05-03T10:21:10.913Z</time></trkpt><trkpt lat="41.9120896" lon="12.5714902"><ele>34.666666666666664</ele><time>2026-05-03T10:21:11.914Z</time></trkpt><trkpt lat="41.9122326" lon="12.571385"><ele>35.0</ele><time>2026-05-03T10:21:12.916Z</time></trkpt><trkpt lat="41.9123665" lon="12.5712588"><ele>33.666666666666664</ele><time>2026-05-03T10:21:13.912Z</time></trkpt><trkpt lat="41.912486" lon="12.5711158"><ele>32.333333333333336</ele><time>2026-05-03T10:21:14.925Z</time></trkpt><trkpt lat="41.9126238" lon="12.571018"><ele>31.0</ele><time>2026-05-03T10:21:15.921Z</time></trkpt><trkpt lat="41.9127637" lon="12.5709277"><ele>31.0</ele><time>2026-05-03T10:21:16.918Z</time></trkpt><trkpt lat="41.9128943" lon="12.5708376"><ele>31.0</ele><time>2026-05-03T10:21:17.905Z</time></trkpt><trkpt lat="41.9130285" lon="12.5707785"><ele>31.0</ele><time>2026-05-03T10:21:18.915Z</time></trkpt><trkpt lat="41.9131329" lon="12.570719"><ele>31.0</ele><time>2026-05-03T10:21:19.91Z</time></trkpt><trkpt lat="41.913273" lon="12.5707374"><ele>30.0</ele><time>2026-05-03T10:21:20.908Z</time></trkpt><trkpt lat="41.9134317" lon="12.5707169"><ele>29.0</ele><time>2026-05-03T10:21:21.912Z</time></trkpt><trkpt lat="41.9135955" lon="12.5706993"><ele>28.0</ele><time>2026-05-03T10:21:22.922Z</time></trkpt><trkpt lat="41.9137397" lon="12.570667"><ele>28.0</ele><time>2026-05-03T10:21:23.912Z</time></trkpt><trkpt lat="41.9138611" lon="12.5705937"><ele>28.0</ele><time>2026-05-03T10:21:24.915Z</time></trkpt><trkpt lat="41.9139948" lon="12.5705624"><ele>28.0</ele><time>2026-05-03T10:21:25.91Z</time></trkpt><trkpt lat="41.9141303" lon="12.5705547"><ele>28.0</ele><time>2026-05-03T10:21:26.914Z</time></trkpt><trkpt lat="41.9142654" lon="12.5705147"><ele>27.799999999999997</ele><time>2026-05-03T10:21:27.913Z</time></trkpt><trkpt lat="41.9143815" lon="12.5704457"><ele>27.599999999999998</ele><time>2026-05-03T10:21:28.922Z</time></trkpt><trkpt lat="41.9144713" lon="12.5703877"><ele>27.400000000000002</ele><time>2026-05-03T10:21:29.924Z</time></trkpt><trkpt lat="41.9145514" lon="12.5703372"><ele>27.200000000000003</ele><time>2026-05-03T10:21:30.919Z</time></trkpt><trkpt lat="41.9146379" lon="12.5702895"><ele>27.0</ele><time>2026-05-03T10:21:31.918Z</time></trkpt><trkpt lat="41.9147056" lon="12.5702489"><ele>27.0</ele><time>2026-05-03T10:21:32.933Z</time></trkpt><trkpt lat="41.914773" lon="12.5702139"><ele>27.0</ele><time>2026-05-03T10:21:33.92Z</time></trkpt><trkpt lat="41.914849" lon="12.5701853"><ele>27.0</ele><time>2026-05-03T10:21:34.913Z</time></trkpt><trkpt lat="41.9149277" lon="12.570153"><ele>27.0</ele><time>2026-05-03T10:21:35.918Z</time></trkpt><trkpt lat="41.9150115" lon="12.5701097"><ele>27.0</ele><time>2026-05-03T10:21:36.919Z</time></trkpt><trkpt lat="41.9151106" lon="12.5700507"><ele>27.0</ele><time>2026-05-03T10:21:37.921Z</time></trkpt><trkpt lat="41.9152071" lon="12.5699901"><ele>26.25</ele><time>2026-05-03T10:21:38.921Z</time></trkpt><trkpt lat="41.9153051" lon="12.5699292"><ele>25.5</ele><time>2026-05-03T10:21:39.92Z</time></trkpt><trkpt lat="41.915412" lon="12.5698593"><ele>24.75</ele><time>2026-05-03T10:21:40.929Z</time></trkpt><trkpt lat="41.9155281" lon="12.5697795"><ele>24.0</ele><time>2026-05-03T10:21:41.928Z</time></trkpt><trkpt lat="41.9156475" lon="12.5696973"><ele>24.0</ele><time>2026-05-03T10:21:42.929Z</time></trkpt><trkpt lat="41.9157708" lon="12.5696034"><ele>24.0</ele><time>2026-05-03T10:21:43.921Z</time></trkpt><trkpt lat="41.9158937" lon="12.5695127"><ele>24.0</ele><time>2026-05-03T10:21:44.92Z</time></trkpt><trkpt lat="41.9160136" lon="12.5694609"><ele>24.0</ele><time>2026-05-03T10:21:45.918Z</time></trkpt><trkpt lat="41.916167" lon="12.5693876"><ele>24.0</ele><time>2026-05-03T10:21:46.924Z</time></trkpt><trkpt lat="41.9163075" lon="12.5693112"><ele>24.0</ele><time>2026-05-03T10:21:47.943Z</time></trkpt><trkpt lat="41.9164698" lon="12.5692186"><ele>24.0</ele><time>2026-05-03T10:21:48.938Z</time></trkpt><trkpt lat="41.91662" lon="12.5691227"><ele>24.0</ele><time>2026-05-03T10:21:49.936Z</time></trkpt><trkpt lat="41.9167866" lon="12.5690318"><ele>24.0</ele><time>2026-05-03T10:21:50.941Z</time></trkpt><trkpt lat="41.9169548" lon="12.5689294"><ele>24.0</ele><time>2026-05-03T10:21:51.92Z</time></trkpt><trkpt lat="41.9171197" lon="12.5688145"><ele>24.0</ele><time>2026-05-03T10:21:52.916Z</time></trkpt><trkpt lat="41.9172869" lon="12.5686989"><ele>24.0</ele><time>2026-05-03T10:21:53.909Z</time></trkpt><trkpt lat="41.9174628" lon="12.5686004"><ele>24.0</ele><time>2026-05-03T10:21:54.937Z</time></trkpt><trkpt lat="41.9176421" lon="12.5684918"><ele>24.333333333333336</ele><time>2026-05-03T10:21:55.963Z</time></trkpt><trkpt lat="41.9178264" lon="12.5684166"><ele>24.666666666666668</ele><time>2026-05-03T10:21:56.91Z</time></trkpt><trkpt lat="41.9180191" lon="12.5683218"><ele>25.0</ele><time>2026-05-03T10:21:57.917Z</time></trkpt><trkpt lat="41.9182149" lon="12.5682373"><ele>25.0</ele><time>2026-05-03T10:21:58.92Z</time></trkpt><trkpt lat="41.9183868" lon="12.5681633"><ele>25.0</ele><time>2026-05-03T10:21:59.917Z</time></trkpt><trkpt lat="41.9185663" lon="12.568061"><ele>25.0</ele><time>2026-05-03T10:22:00.916Z</time></trkpt><trkpt lat="41.9187419" lon="12.5679689"><ele>25.0</ele><time>2026-05-03T10:22:01.915Z</time></trkpt><trkpt lat="41.9189089" lon="12.5678871"><ele>25.0</ele><time>2026-05-03T10:22:02.918Z</time></trkpt><trkpt lat="41.9190646" lon="12.5678273"><ele>25.0</ele><time>2026-05-03T10:22:03.917Z</time></trkpt><trkpt lat="41.9192286" lon="12.5677012"><ele>26.0</ele><time>2026-05-03T10:22:04.916Z</time></trkpt><trkpt lat="41.9194047" lon="12.5676153"><ele>27.0</ele><time>2026-05-03T10:22:05.912Z</time></trkpt><trkpt lat="41.9196037" lon="12.5675524"><ele>28.0</ele><time>2026-05-03T10:22:06.915Z</time></trkpt><trkpt lat="41.919804" lon="12.5674914"><ele>28.0</ele><time>2026-05-03T10:22:07.92Z</time></trkpt><trkpt lat="41.9200277" lon="12.5674425"><ele>28.0</ele><time>2026-05-03T10:22:08.916Z</time></trkpt><trkpt lat="41.920251" lon="12.567372"><ele>26.0</ele><time>2026-05-03T10:22:09.912Z</time></trkpt><trkpt lat="41.920442" lon="12.5673028"><ele>24.0</ele><time>2026-05-03T10:22:10.917Z</time></trkpt><trkpt lat="41.9206181" lon="12.5672406"><ele>22.0</ele><time>2026-05-03T10:22:11.918Z</time></trkpt><trkpt lat="41.9207867" lon="12.5671929"><ele>20.666666666666664</ele><time>2026-05-03T10:22:12.935Z</time></trkpt><trkpt lat="41.9209702" lon="12.5671693"><ele>19.333333333333332</ele><time>2026-05-03T10:22:13.943Z</time></trkpt><trkpt lat="41.9211589" lon="12.5671584"><ele>18.0</ele><time>2026-05-03T10:22:14.918Z</time></trkpt><trkpt lat="41.9213359" lon="12.5671901"><ele>18.0</ele><time>2026-05-03T10:22:15.938Z</time></trkpt><trkpt lat="41.9214893" lon="12.5672344"><ele>18.0</ele><time>2026-05-03T10:22:16.919Z</time></trkpt><trkpt lat="41.9216178" lon="12.5672916"><ele>18.0</ele><time>2026-05-03T10:22:17.938Z</time></trkpt><trkpt lat="41.9217298" lon="12.5673746"><ele>18.0</ele><time>2026-05-03T10:22:18.917Z</time></trkpt><trkpt lat="41.9218471" lon="12.5674512"><ele>18.5</ele><time>2026-05-03T10:22:19.931Z</time></trkpt><trkpt lat="41.9219502" lon="12.5675065"><ele>19.0</ele><time>2026-05-03T10:22:20.918Z</time></trkpt><trkpt lat="41.9220985" lon="12.5675197"><ele>19.5</ele><time>2026-05-03T10:22:21.914Z</time></trkpt><trkpt lat="41.9222541" lon="12.5675894"><ele>20.0</ele><time>2026-05-03T10:22:22.918Z</time></trkpt><trkpt lat="41.9223992" lon="12.5677031"><ele>20.0</ele><time>2026-05-03T10:22:23.917Z</time></trkpt><trkpt lat="41.9225275" lon="12.5678157"><ele>20.0</ele><time>2026-05-03T10:22:24.915Z</time></trkpt><trkpt lat="41.9226481" lon="12.5679439"><ele>20.0</ele><time>2026-05-03T10:22:25.918Z</time></trkpt><trkpt lat="41.9227617" lon="12.5680977"><ele>20.333333333333336</ele><time>2026-05-03T10:22:26.917Z</time></trkpt><trkpt lat="41.9229145" lon="12.5682332"><ele>20.666666666666668</ele><time>2026-05-03T10:22:27.925Z</time></trkpt><trkpt lat="41.9230871" lon="12.568376"><ele>21.0</ele><time>2026-05-03T10:22:28.923Z</time></trkpt><trkpt lat="41.9232506" lon="12.5685021"><ele>22.666666666666664</ele><time>2026-05-03T10:22:29.913Z</time></trkpt><trkpt lat="41.9234136" lon="12.5686262"><ele>24.333333333333332</ele><time>2026-05-03T10:22:30.911Z</time></trkpt><trkpt lat="41.9235712" lon="12.5687645"><ele>26.0</ele><time>2026-05-03T10:22:31.913Z</time></trkpt><trkpt lat="41.9236981" lon="12.568939"><ele>27.0</ele><time>2026-05-03T10:22:32.927Z</time></trkpt><trkpt lat="41.9237932" lon="12.5691257"><ele>28.0</ele><time>2026-05-03T10:22:33.931Z</time></trkpt><trkpt lat="41.9238811" lon="12.5693378"><ele>29.0</ele><time>2026-05-03T10:22:34.905Z</time></trkpt><trkpt lat="41.9239572" lon="12.5695647"><ele>29.666666666666664</ele><time>2026-05-03T10:22:35.9Z</time></trkpt><trkpt lat="41.9239948" lon="12.569795"><ele>30.333333333333336</ele><time>2026-05-03T10:22:36.921Z</time></trkpt><trkpt lat="41.9240267" lon="12.5700466"><ele>31.0</ele><time>2026-05-03T10:22:37.953Z</time></trkpt><trkpt lat="41.9240852" lon="12.570292"><ele>31.333333333333336</ele><time>2026-05-03T10:22:38.915Z</time></trkpt><trkpt lat="41.9241693" lon="12.5705097"><ele>31.666666666666664</ele><time>2026-05-03T10:22:39.913Z</time></trkpt><trkpt lat="41.924223" lon="12.5707231"><ele>32.0</ele><time>2026-05-03T10:22:40.933Z</time></trkpt><trkpt lat="41.9242667" lon="12.5709072"><ele>32.6</ele><time>2026-05-03T10:22:41.91Z</time></trkpt><trkpt lat="41.9243097" lon="12.5710803"><ele>33.2</ele><time>2026-05-03T10:22:42.91Z</time></trkpt><trkpt lat="41.9243516" lon="12.5711979"><ele>33.8</ele><time>2026-05-03T10:22:43.913Z</time></trkpt><trkpt lat="41.9243964" lon="12.5712687"><ele>34.4</ele><time>2026-05-03T10:22:44.908Z</time></trkpt><trkpt lat="41.9244168" lon="12.571362"><ele>35.0</ele><time>2026-05-03T10:22:46.932Z</time></trkpt><trkpt lat="41.9244824" lon="12.5714688"><ele>35.0</ele><time>2026-05-03T10:23:30.941Z</time></trkpt><trkpt lat="41.9245048" lon="12.5715713"><ele>35.0</ele><time>2026-05-03T10:23:31.929Z</time></trkpt><trkpt lat="41.9245362" lon="12.571703"><ele>35.0</ele><time>2026-05-03T10:23:32.917Z</time></trkpt><trkpt lat="41.9245763" lon="12.571834"><ele>35.0</ele><time>2026-05-03T10:23:33.917Z</time></trkpt><trkpt lat="41.9246121" lon="12.5719837"><ele>35.0</ele><time>2026-05-03T10:23:34.945Z</time></trkpt><trkpt lat="41.9246513" lon="12.5721647"><ele>34.0</ele><time>2026-05-03T10:23:35.923Z</time></trkpt><trkpt lat="41.9246933" lon="12.5723569"><ele>33.0</ele><time>2026-05-03T10:23:36.921Z</time></trkpt><trkpt lat="41.9247684" lon="12.5725879"><ele>32.0</ele><time>2026-05-03T10:23:37.929Z</time></trkpt><trkpt lat="41.9248641" lon="12.5727974"><ele>32.33333333333333</ele><time>2026-05-03T10:23:38.931Z</time></trkpt><trkpt lat="41.9249643" lon="12.5730278"><ele>32.666666666666664</ele><time>2026-05-03T10:23:39.941Z</time></trkpt><trkpt lat="41.9250848" lon="12.5732297"><ele>33.0</ele><time>2026-05-03T10:23:40.923Z</time></trkpt><trkpt lat="41.9251907" lon="12.5734103"><ele>31.666666666666664</ele><time>2026-05-03T10:23:41.925Z</time></trkpt><trkpt lat="41.9252945" lon="12.5735677"><ele>30.333333333333332</ele><time>2026-05-03T10:23:42.919Z</time></trkpt><trkpt lat="41.9254293" lon="12.5737155"><ele>29.0</ele><time>2026-05-03T10:23:43.926Z</time></trkpt><trkpt lat="41.9255663" lon="12.573839"><ele>29.0</ele><time>2026-05-03T10:23:44.926Z</time></trkpt><trkpt lat="41.9257016" lon="12.5739477"><ele>29.0</ele><time>2026-05-03T10:23:45.925Z</time></trkpt><trkpt lat="41.9258266" lon="12.5740352"><ele>29.0</ele><time>2026-05-03T10:23:46.92Z</time></trkpt><trkpt lat="41.9259494" lon="12.5740892"><ele>29.0</ele><time>2026-05-03T10:23:47.954Z</time></trkpt><trkpt lat="41.9260629" lon="12.5741593"><ele>28.75</ele><time>2026-05-03T10:23:48.946Z</time></trkpt><trkpt lat="41.9261721" lon="12.5742192"><ele>28.5</ele><time>2026-05-03T10:23:49.952Z</time></trkpt><trkpt lat="41.9262678" lon="12.5742651"><ele>28.25</ele><time>2026-05-03T10:23:50.949Z</time></trkpt><trkpt lat="41.9263604" lon="12.5743329"><ele>28.0</ele><time>2026-05-03T10:23:51.932Z</time></trkpt><trkpt lat="41.9264643" lon="12.5744267"><ele>28.666666666666668</ele><time>2026-05-03T10:23:52.925Z</time></trkpt><trkpt lat="41.926587" lon="12.5745231"><ele>29.333333333333336</ele><time>2026-05-03T10:23:53.925Z</time></trkpt><trkpt lat="41.9267203" lon="12.574617"><ele>30.0</ele><time>2026-05-03T10:23:54.925Z</time></trkpt><trkpt lat="41.9268758" lon="12.5747157"><ele>30.0</ele><time>2026-05-03T10:23:55.92Z</time></trkpt><trkpt lat="41.927036" lon="12.5748367"><ele>30.0</ele><time>2026-05-03T10:23:56.93Z</time></trkpt><trkpt lat="41.9271909" lon="12.5749892"><ele>30.0</ele><time>2026-05-03T10:23:57.923Z</time></trkpt><trkpt lat="41.9273391" lon="12.5751577"><ele>30.0</ele><time>2026-05-03T10:23:58.929Z</time></trkpt><trkpt lat="41.9274794" lon="12.5753207"><ele>30.0</ele><time>2026-05-03T10:23:59.935Z</time></trkpt><trkpt lat="41.9276333" lon="12.5754834"><ele>30.0</ele><time>2026-05-03T10:24:00.925Z</time></trkpt><trkpt lat="41.9278023" lon="12.5756494"><ele>32.0</ele><time>2026-05-03T10:24:01.926Z</time></trkpt><trkpt lat="41.9279738" lon="12.5758365"><ele>34.0</ele><time>2026-05-03T10:24:02.931Z</time></trkpt><trkpt lat="41.9281519" lon="12.5760373"><ele>34.0</ele><time>2026-05-03T10:24:03.931Z</time></trkpt><trkpt lat="41.9283313" lon="12.5762519"><ele>34.0</ele><time>2026-05-03T10:24:04.951Z</time></trkpt><trkpt lat="41.9285217" lon="12.5764743"><ele>34.0</ele><time>2026-05-03T10:24:05.932Z</time></trkpt><trkpt lat="41.9286729" lon="12.5766875"><ele>34.0</ele><time>2026-05-03T10:24:06.932Z</time></trkpt><trkpt lat="41.9288222" lon="12.5768865"><ele>34.0</ele><time>2026-05-03T10:24:07.932Z</time></trkpt><trkpt lat="41.9289732" lon="12.5770405"><ele>34.333333333333336</ele><time>2026-05-03T10:24:08.923Z</time></trkpt><trkpt lat="41.9291504" lon="12.5771876"><ele>34.666666666666664</ele><time>2026-05-03T10:24:09.928Z</time></trkpt><trkpt lat="41.9293223" lon="12.577273"><ele>35.0</ele><time>2026-05-03T10:24:10.944Z</time></trkpt><trkpt lat="41.9294994" lon="12.5773644"><ele>35.0</ele><time>2026-05-03T10:24:11.932Z</time></trkpt><trkpt lat="41.9296699" lon="12.577446"><ele>35.0</ele><time>2026-05-03T10:24:12.933Z</time></trkpt><trkpt lat="41.9298484" lon="12.5775275"><ele>35.0</ele><time>2026-05-03T10:24:13.923Z</time></trkpt><trkpt lat="41.9300411" lon="12.5776008"><ele>35.0</ele><time>2026-05-03T10:24:14.928Z</time></trkpt><trkpt lat="41.9302432" lon="12.5776803"><ele>35.0</ele><time>2026-05-03T10:24:15.931Z</time></trkpt><trkpt lat="41.9304055" lon="12.5777686"><ele>35.0</ele><time>2026-05-03T10:24:16.933Z</time></trkpt><trkpt lat="41.9305838" lon="12.5778967"><ele>35.0</ele><time>2026-05-03T10:24:17.923Z</time></trkpt><trkpt lat="41.930761" lon="12.5780913"><ele>35.0</ele><time>2026-05-03T10:24:18.927Z</time></trkpt><trkpt lat="41.9309275" lon="12.5782983"><ele>34.666666666666664</ele><time>2026-05-03T10:24:19.931Z</time></trkpt><trkpt lat="41.9310762" lon="12.5784952"><ele>34.333333333333336</ele><time>2026-05-03T10:24:20.931Z</time></trkpt><trkpt lat="41.9312124" lon="12.5786745"><ele>34.0</ele><time>2026-05-03T10:24:21.933Z</time></trkpt><trkpt lat="41.9313274" lon="12.5789121"><ele>35.0</ele><time>2026-05-03T10:24:22.934Z</time></trkpt><trkpt lat="41.9314278" lon="12.5791749"><ele>36.0</ele><time>2026-05-03T10:24:23.923Z</time></trkpt><trkpt lat="41.9315021" lon="12.579497"><ele>36.5</ele><time>2026-05-03T10:24:24.931Z</time></trkpt><trkpt lat="41.9315913" lon="12.579809"><ele>37.0</ele><time>2026-05-03T10:24:25.918Z</time></trkpt><trkpt lat="41.9316902" lon="12.5800862"><ele>37.5</ele><time>2026-05-03T10:24:26.928Z</time></trkpt><trkpt lat="41.9317868" lon="12.5803769"><ele>38.0</ele><time>2026-05-03T10:24:27.931Z</time></trkpt><trkpt lat="41.9318622" lon="12.5806982"><ele>38.0</ele><time>2026-05-03T10:24:28.921Z</time></trkpt><trkpt lat="41.9319341" lon="12.5809867"><ele>38.0</ele><time>2026-05-03T10:24:29.922Z</time></trkpt><trkpt lat="41.9319843" lon="12.5812516"><ele>38.0</ele><time>2026-05-03T10:24:30.93Z</time></trkpt><trkpt lat="41.9320353" lon="12.5815015"><ele>37.33333333333333</ele><time>2026-05-03T10:24:31.925Z</time></trkpt><trkpt lat="41.9320804" lon="12.5817694"><ele>36.666666666666664</ele><time>2026-05-03T10:24:32.924Z</time></trkpt><trkpt lat="41.9321525" lon="12.582008"><ele>36.0</ele><time>2026-05-03T10:24:33.923Z</time></trkpt><trkpt lat="41.9321927" lon="12.5822639"><ele>35.0</ele><time>2026-05-03T10:24:34.926Z</time></trkpt><trkpt lat="41.932239" lon="12.5824815"><ele>34.0</ele><time>2026-05-03T10:24:35.922Z</time></trkpt><trkpt lat="41.932295" lon="12.5826948"><ele>33.0</ele><time>2026-05-03T10:24:36.929Z</time></trkpt><trkpt lat="41.9323355" lon="12.5828884"><ele>33.0</ele><time>2026-05-03T10:24:37.921Z</time></trkpt><trkpt lat="41.9323584" lon="12.583044"><ele>33.0</ele><time>2026-05-03T10:24:38.93Z</time></trkpt><trkpt lat="41.9323753" lon="12.5832045"><ele>33.0</ele><time>2026-05-03T10:24:39.947Z</time></trkpt><trkpt lat="41.9324012" lon="12.5833641"><ele>33.0</ele><time>2026-05-03T10:24:40.966Z</time></trkpt><trkpt lat="41.9324053" lon="12.5835218"><ele>33.0</ele><time>2026-05-03T10:24:41.967Z</time></trkpt><trkpt lat="41.9324099" lon="12.5836536"><ele>33.0</ele><time>2026-05-03T10:24:42.923Z</time></trkpt><trkpt lat="41.9324163" lon="12.5837972"><ele>33.0</ele><time>2026-05-03T10:24:43.908Z</time></trkpt><trkpt lat="41.9324223" lon="12.5839115"><ele>33.0</ele><time>2026-05-03T10:24:44.922Z</time></trkpt><trkpt lat="41.932428" lon="12.5840209"><ele>33.0</ele><time>2026-05-03T10:24:45.912Z</time></trkpt><trkpt lat="41.9324273" lon="12.5841296"><ele>32.666666666666664</ele><time>2026-05-03T10:24:46.92Z</time></trkpt><trkpt lat="41.9324255" lon="12.5842261"><ele>32.333333333333336</ele><time>2026-05-03T10:24:47.921Z</time></trkpt><trkpt lat="41.9324251" lon="12.5843184"><ele>32.0</ele><time>2026-05-03T10:24:48.93Z</time></trkpt><trkpt lat="41.9324266" lon="12.5844094"><ele>31.666666666666668</ele><time>2026-05-03T10:24:49.927Z</time></trkpt><trkpt lat="41.9324198" lon="12.5844975"><ele>31.333333333333336</ele><time>2026-05-03T10:24:50.932Z</time></trkpt><trkpt lat="41.9324225" lon="12.5847284"><ele>31.0</ele><time>2026-05-03T10:24:53.926Z</time></trkpt><trkpt lat="41.9324674" lon="12.584797"><ele>31.0</ele><time>2026-05-03T10:24:54.934Z</time></trkpt><trkpt lat="41.9325326" lon="12.5848561"><ele>31.0</ele><time>2026-05-03T10:24:55.916Z</time></trkpt><trkpt lat="41.9326211" lon="12.584877"><ele>31.0</ele><time>2026-05-03T10:24:56.924Z</time></trkpt><trkpt lat="41.9327297" lon="12.5848632"><ele>31.0</ele><time>2026-05-03T10:24:57.918Z</time></trkpt><trkpt lat="41.9328466" lon="12.5848071"><ele>31.0</ele><time>2026-05-03T10:24:58.912Z</time></trkpt><trkpt lat="41.9329623" lon="12.584742"><ele>31.0</ele><time>2026-05-03T10:24:59.924Z</time></trkpt><trkpt lat="41.9331103" lon="12.5846238"><ele>31.0</ele><time>2026-05-03T10:25:00.915Z</time></trkpt><trkpt lat="41.933282" lon="12.5844716"><ele>31.0</ele><time>2026-05-03T10:25:01.92Z</time></trkpt><trkpt lat="41.9334624" lon="12.5842883"><ele>31.5</ele><time>2026-05-03T10:25:02.92Z</time></trkpt><trkpt lat="41.933649" lon="12.584086"><ele>32.0</ele><time>2026-05-03T10:25:03.913Z</time></trkpt><trkpt lat="41.9338199" lon="12.58391"><ele>32.0</ele><time>2026-05-03T10:25:04.913Z</time></trkpt><trkpt lat="41.9339827" lon="12.5837604"><ele>32.0</ele><time>2026-05-03T10:25:05.915Z</time></trkpt><trkpt lat="41.9341215" lon="12.5836407"><ele>32.0</ele><time>2026-05-03T10:25:06.92Z</time></trkpt><trkpt lat="41.9342476" lon="12.5835372"><ele>34.33333333333333</ele><time>2026-05-03T10:25:07.925Z</time></trkpt><trkpt lat="41.9343925" lon="12.5834718"><ele>36.666666666666664</ele><time>2026-05-03T10:25:08.919Z</time></trkpt><trkpt lat="41.9345533" lon="12.5833866"><ele>39.0</ele><time>2026-05-03T10:25:09.938Z</time></trkpt><trkpt lat="41.9346956" lon="12.5832807"><ele>39.0</ele><time>2026-05-03T10:25:10.933Z</time></trkpt><trkpt lat="41.9348682" lon="12.5831693"><ele>39.0</ele><time>2026-05-03T10:25:11.926Z</time></trkpt><trkpt lat="41.9350174" lon="12.5830729"><ele>39.0</ele><time>2026-05-03T10:25:12.924Z</time></trkpt><trkpt lat="41.9351443" lon="12.5829787"><ele>39.4</ele><time>2026-05-03T10:25:13.918Z</time></trkpt><trkpt lat="41.9352464" lon="12.5828972"><ele>39.8</ele><time>2026-05-03T10:25:14.92Z</time></trkpt><trkpt lat="41.9353424" lon="12.5828329"><ele>40.199999999999996</ele><time>2026-05-03T10:25:15.915Z</time></trkpt><trkpt lat="41.9354273" lon="12.5827575"><ele>40.599999999999994</ele><time>2026-05-03T10:25:16.912Z</time></trkpt><trkpt lat="41.9355075" lon="12.5826786"><ele>41.0</ele><time>2026-05-03T10:25:17.92Z</time></trkpt><trkpt lat="41.9355989" lon="12.5825978"><ele>41.0</ele><time>2026-05-03T10:25:18.927Z</time></trkpt><trkpt lat="41.935678" lon="12.5825072"><ele>41.0</ele><time>2026-05-03T10:25:19.92Z</time></trkpt><trkpt lat="41.9357526" lon="12.5824206"><ele>41.0</ele><time>2026-05-03T10:25:20.925Z</time></trkpt><trkpt lat="41.9358327" lon="12.5823587"><ele>41.0</ele><time>2026-05-03T10:25:21.926Z</time></trkpt><trkpt lat="41.9359089" lon="12.5823027"><ele>41.0</ele><time>2026-05-03T10:25:22.926Z</time></trkpt><trkpt lat="41.9359876" lon="12.5822543"><ele>41.0</ele><time>2026-05-03T10:25:23.918Z</time></trkpt><trkpt lat="41.9360682" lon="12.5822028"><ele>41.0</ele><time>2026-05-03T10:25:24.936Z</time></trkpt><trkpt lat="41.9361426" lon="12.5821422"><ele>41.0</ele><time>2026-05-03T10:25:25.914Z</time></trkpt><trkpt lat="41.9362197" lon="12.5820706"><ele>41.0</ele><time>2026-05-03T10:25:26.929Z</time></trkpt><trkpt lat="41.9363056" lon="12.5820158"><ele>41.0</ele><time>2026-05-03T10:25:27.926Z</time></trkpt><trkpt lat="41.9363984" lon="12.5819425"><ele>41.0</ele><time>2026-05-03T10:25:28.922Z</time></trkpt><trkpt lat="41.9364759" lon="12.5818556"><ele>41.0</ele><time>2026-05-03T10:25:29.918Z</time></trkpt><trkpt lat="41.9365506" lon="12.58176"><ele>41.0</ele><time>2026-05-03T10:25:30.925Z</time></trkpt><trkpt lat="41.9366286" lon="12.5816519"><ele>41.0</ele><time>2026-05-03T10:25:31.932Z</time></trkpt><trkpt lat="41.9367096" lon="12.5815203"><ele>41.0</ele><time>2026-05-03T10:25:32.926Z</time></trkpt><trkpt lat="41.9368059" lon="12.5813766"><ele>41.25</ele><time>2026-05-03T10:25:33.932Z</time></trkpt><trkpt lat="41.9368907" lon="12.5812354"><ele>41.5</ele><time>2026-05-03T10:25:34.926Z</time></trkpt><trkpt lat="41.9369605" lon="12.5811084"><ele>41.75</ele><time>2026-05-03T10:25:35.93Z</time></trkpt><trkpt lat="41.937033" lon="12.5809901"><ele>42.0</ele><time>2026-05-03T10:25:36.93Z</time></trkpt><trkpt lat="41.9371061" lon="12.5808802"><ele>42.0</ele><time>2026-05-03T10:25:37.928Z</time></trkpt><trkpt lat="41.9371797" lon="12.580785"><ele>42.0</ele><time>2026-05-03T10:25:38.933Z</time></trkpt><trkpt lat="41.9372448" lon="12.5806956"><ele>42.0</ele><time>2026-05-03T10:25:39.937Z</time></trkpt><trkpt lat="41.9372965" lon="12.5806052"><ele>42.0</ele><time>2026-05-03T10:25:40.925Z</time></trkpt><trkpt lat="41.9373491" lon="12.5805419"><ele>42.0</ele><time>2026-05-03T10:25:41.932Z</time></trkpt><trkpt lat="41.937421" lon="12.5805418"><ele>42.0</ele><time>2026-05-03T10:25:42.929Z</time></trkpt><trkpt lat="41.9374994" lon="12.5806063"><ele>42.75</ele><time>2026-05-03T10:25:43.927Z</time></trkpt><trkpt lat="41.9375741" lon="12.5807181"><ele>43.5</ele><time>2026-05-03T10:25:44.924Z</time></trkpt><trkpt lat="41.937663" lon="12.5808757"><ele>44.25</ele><time>2026-05-03T10:25:45.926Z</time></trkpt><trkpt lat="41.9377575" lon="12.5810259"><ele>45.0</ele><time>2026-05-03T10:25:46.929Z</time></trkpt><trkpt lat="41.9378762" lon="12.5811778"><ele>43.666666666666664</ele><time>2026-05-03T10:25:47.93Z</time></trkpt><trkpt lat="41.9380164" lon="12.581414"><ele>42.33333333333333</ele><time>2026-05-03T10:25:48.916Z</time></trkpt><trkpt lat="41.9381569" lon="12.5816087"><ele>41.0</ele><time>2026-05-03T10:25:49.926Z</time></trkpt><trkpt lat="41.9382816" lon="12.5817678"><ele>40.33333333333333</ele><time>2026-05-03T10:25:50.916Z</time></trkpt><trkpt lat="41.9384114" lon="12.5819044"><ele>39.666666666666664</ele><time>2026-05-03T10:25:51.929Z</time></trkpt><trkpt lat="41.9385439" lon="12.582031"><ele>39.0</ele><time>2026-05-03T10:25:52.925Z</time></trkpt><trkpt lat="41.9386739" lon="12.5821686"><ele>39.0</ele><time>2026-05-03T10:25:53.927Z</time></trkpt><trkpt lat="41.9387807" lon="12.5823235"><ele>39.0</ele><time>2026-05-03T10:25:54.927Z</time></trkpt><trkpt lat="41.9389239" lon="12.5824382"><ele>39.0</ele><time>2026-05-03T10:25:55.92Z</time></trkpt><trkpt lat="41.9390263" lon="12.5825636"><ele>39.0</ele><time>2026-05-03T10:25:56.926Z</time></trkpt><trkpt lat="41.9391027" lon="12.5826533"><ele>39.0</ele><time>2026-05-03T10:25:57.93Z</time></trkpt><trkpt lat="41.939202" lon="12.5827915"><ele>39.0</ele><time>2026-05-03T10:25:58.93Z</time></trkpt><trkpt lat="41.9393006" lon="12.5829206"><ele>39.0</ele><time>2026-05-03T10:25:59.928Z</time></trkpt><trkpt lat="41.939436" lon="12.5829849"><ele>38.5</ele><time>2026-05-03T10:26:00.929Z</time></trkpt><trkpt lat="41.9395862" lon="12.5830839"><ele>38.0</ele><time>2026-05-03T10:26:01.925Z</time></trkpt><trkpt lat="41.9396974" lon="12.5832074"><ele>37.5</ele><time>2026-05-03T10:26:02.93Z</time></trkpt><trkpt lat="41.9397962" lon="12.5833196"><ele>37.0</ele><time>2026-05-03T10:26:03.927Z</time></trkpt><trkpt lat="41.9398969" lon="12.5834103"><ele>37.0</ele><time>2026-05-03T10:26:04.92Z</time></trkpt><trkpt lat="41.9399761" lon="12.5835281"><ele>37.0</ele><time>2026-05-03T10:26:05.928Z</time></trkpt><trkpt lat="41.9400479" lon="12.5836268"><ele>37.0</ele><time>2026-05-03T10:26:06.929Z</time></trkpt><trkpt lat="41.9401119" lon="12.5837239"><ele>37.0</ele><time>2026-05-03T10:26:07.933Z</time></trkpt><trkpt lat="41.9402043" lon="12.5837892"><ele>37.0</ele><time>2026-05-03T10:26:08.931Z</time></trkpt><trkpt lat="41.940301" lon="12.5838817"><ele>37.0</ele><time>2026-05-03T10:26:09.924Z</time></trkpt><trkpt lat="41.9403934" lon="12.5839904"><ele>37.0</ele><time>2026-05-03T10:26:10.935Z</time></trkpt><trkpt lat="41.9404954" lon="12.5841031"><ele>37.0</ele><time>2026-05-03T10:26:11.934Z</time></trkpt><trkpt lat="41.9405865" lon="12.584207"><ele>37.0</ele><time>2026-05-03T10:26:12.928Z</time></trkpt><trkpt lat="41.9406625" lon="12.5842949"><ele>37.0</ele><time>2026-05-03T10:26:13.934Z</time></trkpt><trkpt lat="41.9407244" lon="12.5843474"><ele>37.0</ele><time>2026-05-03T10:26:14.924Z</time></trkpt><trkpt lat="41.9407964" lon="12.5844316"><ele>37.0</ele><time>2026-05-03T10:26:16.927Z</time></trkpt><trkpt lat="41.9408414" lon="12.5845391"><ele>37.0</ele><time>2026-05-03T10:26:27.934Z</time></trkpt><trkpt lat="41.9409114" lon="12.5846335"><ele>37.0</ele><time>2026-05-03T10:26:29.932Z</time></trkpt><trkpt lat="41.9409813" lon="12.5847129"><ele>37.75</ele><time>2026-05-03T10:26:30.928Z</time></trkpt><trkpt lat="41.9410626" lon="12.5847947"><ele>38.5</ele><time>2026-05-03T10:26:31.939Z</time></trkpt><trkpt lat="41.9411659" lon="12.5848848"><ele>39.25</ele><time>2026-05-03T10:26:32.929Z</time></trkpt><trkpt lat="41.941271" lon="12.5849852"><ele>40.0</ele><time>2026-05-03T10:26:33.934Z</time></trkpt><trkpt lat="41.9413818" lon="12.5851042"><ele>40.0</ele><time>2026-05-03T10:26:34.921Z</time></trkpt><trkpt lat="41.9414973" lon="12.5852345"><ele>40.0</ele><time>2026-05-03T10:26:35.929Z</time></trkpt><trkpt lat="41.9416265" lon="12.5853411"><ele>40.0</ele><time>2026-05-03T10:26:36.93Z</time></trkpt><trkpt lat="41.9417569" lon="12.5854454"><ele>39.0</ele><time>2026-05-03T10:26:37.924Z</time></trkpt><trkpt lat="41.9418456" lon="12.5855523"><ele>38.0</ele><time>2026-05-03T10:26:38.928Z</time></trkpt><trkpt lat="41.9419303" lon="12.5856496"><ele>37.0</ele><time>2026-05-03T10:26:39.931Z</time></trkpt><trkpt lat="41.942025" lon="12.5857313"><ele>36.0</ele><time>2026-05-03T10:26:40.925Z</time></trkpt><trkpt lat="41.9421385" lon="12.5858064"><ele>36.0</ele><time>2026-05-03T10:26:41.952Z</time></trkpt><trkpt lat="41.9422812" lon="12.5858564"><ele>36.0</ele><time>2026-05-03T10:26:42.929Z</time></trkpt><trkpt lat="41.9424384" lon="12.5858973"><ele>36.0</ele><time>2026-05-03T10:26:43.931Z</time></trkpt><trkpt lat="41.9425771" lon="12.5859377"><ele>36.0</ele><time>2026-05-03T10:26:44.95Z</time></trkpt><trkpt lat="41.9426843" lon="12.5859672"><ele>36.2</ele><time>2026-05-03T10:26:45.924Z</time></trkpt><trkpt lat="41.9427812" lon="12.5860168"><ele>36.400000000000006</ele><time>2026-05-03T10:26:46.936Z</time></trkpt><trkpt lat="41.9428607" lon="12.5860637"><ele>36.6</ele><time>2026-05-03T10:26:47.954Z</time></trkpt><trkpt lat="41.9429517" lon="12.5860926"><ele>36.800000000000004</ele><time>2026-05-03T10:26:48.93Z</time></trkpt><trkpt lat="41.9430159" lon="12.5861337"><ele>37.0</ele><time>2026-05-03T10:26:49.932Z</time></trkpt><trkpt lat="41.9431084" lon="12.5861869"><ele>37.25</ele><time>2026-05-03T10:26:50.937Z</time></trkpt><trkpt lat="41.9432102" lon="12.5862122"><ele>37.5</ele><time>2026-05-03T10:26:51.927Z</time></trkpt><trkpt lat="41.9433291" lon="12.5862183"><ele>37.75</ele><time>2026-05-03T10:26:52.932Z</time></trkpt><trkpt lat="41.9434629" lon="12.5861994"><ele>38.0</ele><time>2026-05-03T10:26:53.946Z</time></trkpt><trkpt lat="41.9436205" lon="12.5861637"><ele>38.0</ele><time>2026-05-03T10:26:54.941Z</time></trkpt><trkpt lat="41.9437721" lon="12.5861546"><ele>38.0</ele><time>2026-05-03T10:26:55.951Z</time></trkpt><trkpt lat="41.9439438" lon="12.5861817"><ele>38.0</ele><time>2026-05-03T10:26:56.942Z</time></trkpt><trkpt lat="41.9440654" lon="12.5862334"><ele>38.166666666666664</ele><time>2026-05-03T10:26:57.953Z</time></trkpt><trkpt lat="41.9441547" lon="12.5862632"><ele>38.33333333333333</ele><time>2026-05-03T10:26:58.929Z</time></trkpt><trkpt lat="41.9442366" lon="12.5862959"><ele>38.5</ele><time>2026-05-03T10:26:59.928Z</time></trkpt><trkpt lat="41.9443065" lon="12.5863702"><ele>38.666666666666664</ele><time>2026-05-03T10:27:00.931Z</time></trkpt><trkpt lat="41.9443648" lon="12.586466"><ele>38.833333333333336</ele><time>2026-05-03T10:27:01.925Z</time></trkpt><trkpt lat="41.9444157" lon="12.5865653"><ele>39.0</ele><time>2026-05-03T10:27:02.928Z</time></trkpt><trkpt lat="41.9444677" lon="12.5866715"><ele>39.666666666666664</ele><time>2026-05-03T10:27:03.934Z</time></trkpt><trkpt lat="41.9445069" lon="12.5867928"><ele>40.333333333333336</ele><time>2026-05-03T10:27:04.949Z</time></trkpt><trkpt lat="41.9445129" lon="12.5869032"><ele>41.0</ele><time>2026-05-03T10:27:05.932Z</time></trkpt><trkpt lat="41.9445146" lon="12.587012"><ele>41.66666666666667</ele><time>2026-05-03T10:27:06.929Z</time></trkpt><trkpt lat="41.944517" lon="12.5871108"><ele>42.333333333333336</ele><time>2026-05-03T10:27:07.934Z</time></trkpt><trkpt lat="41.9444989" lon="12.5872246"><ele>43.0</ele><time>2026-05-03T10:27:08.921Z</time></trkpt><trkpt lat="41.9444652" lon="12.5873649"><ele>43.0</ele><time>2026-05-03T10:27:09.926Z</time></trkpt><trkpt lat="41.9444156" lon="12.5874864"><ele>43.0</ele><time>2026-05-03T10:27:10.93Z</time></trkpt><trkpt lat="41.9443639" lon="12.5875782"><ele>43.0</ele><time>2026-05-03T10:27:11.924Z</time></trkpt><trkpt lat="41.9443103" lon="12.5876649"><ele>43.0</ele><time>2026-05-03T10:27:12.934Z</time></trkpt><trkpt lat="41.9442657" lon="12.5877577"><ele>43.0</ele><time>2026-05-03T10:27:13.925Z</time></trkpt><trkpt lat="41.9442422" lon="12.587864"><ele>43.0</ele><time>2026-05-03T10:27:14.935Z</time></trkpt><trkpt lat="41.9442672" lon="12.5879721"><ele>42.4</ele><time>2026-05-03T10:27:15.927Z</time></trkpt><trkpt lat="41.9443181" lon="12.5880779"><ele>41.8</ele><time>2026-05-03T10:27:16.927Z</time></trkpt><trkpt lat="41.9443872" lon="12.5881586"><ele>41.2</ele><time>2026-05-03T10:27:17.931Z</time></trkpt><trkpt lat="41.9444761" lon="12.5882095"><ele>40.6</ele><time>2026-05-03T10:27:18.924Z</time></trkpt><trkpt lat="41.9446038" lon="12.5882258"><ele>40.0</ele><time>2026-05-03T10:27:19.925Z</time></trkpt><trkpt lat="41.9447493" lon="12.5882329"><ele>40.0</ele><time>2026-05-03T10:27:20.952Z</time></trkpt><trkpt lat="41.9448906" lon="12.5882645"><ele>40.0</ele><time>2026-05-03T10:27:21.952Z</time></trkpt><trkpt lat="41.9450286" lon="12.5883254"><ele>40.0</ele><time>2026-05-03T10:27:22.928Z</time></trkpt><trkpt lat="41.9451434" lon="12.5884119"><ele>40.0</ele><time>2026-05-03T10:27:23.928Z</time></trkpt><trkpt lat="41.945203" lon="12.5885081"><ele>40.4</ele><time>2026-05-03T10:27:24.932Z</time></trkpt><trkpt lat="41.9452339" lon="12.5886155"><ele>40.8</ele><time>2026-05-03T10:27:25.943Z</time></trkpt><trkpt lat="41.945219" lon="12.5887298"><ele>41.2</ele><time>2026-05-03T10:27:27.92Z</time></trkpt><trkpt lat="41.9451861" lon="12.5888267"><ele>41.6</ele><time>2026-05-03T10:27:28.917Z</time></trkpt><trkpt lat="41.9451165" lon="12.58892"><ele>42.0</ele><time>2026-05-03T10:27:29.918Z</time></trkpt><trkpt lat="41.9450427" lon="12.5890439"><ele>42.5</ele><time>2026-05-03T10:27:30.926Z</time></trkpt><trkpt lat="41.9449405" lon="12.5891523"><ele>43.0</ele><time>2026-05-03T10:27:31.929Z</time></trkpt><trkpt lat="41.9448213" lon="12.5892673"><ele>43.5</ele><time>2026-05-03T10:27:32.928Z</time></trkpt><trkpt lat="41.944723" lon="12.5894109"><ele>44.0</ele><time>2026-05-03T10:27:33.922Z</time></trkpt><trkpt lat="41.9446513" lon="12.5895757"><ele>44.0</ele><time>2026-05-03T10:27:34.922Z</time></trkpt><trkpt lat="41.9446302" lon="12.5897474"><ele>44.0</ele><time>2026-05-03T10:27:35.915Z</time></trkpt><trkpt lat="41.9446121" lon="12.5899177"><ele>44.0</ele><time>2026-05-03T10:27:36.945Z</time></trkpt><trkpt lat="41.9446327" lon="12.5900849"><ele>44.0</ele><time>2026-05-03T10:27:37.927Z</time></trkpt><trkpt lat="41.944666" lon="12.5902106"><ele>44.0</ele><time>2026-05-03T10:27:38.924Z</time></trkpt><trkpt lat="41.9447124" lon="12.5902862"><ele>44.0</ele><time>2026-05-03T10:27:39.92Z</time></trkpt><trkpt lat="41.9447567" lon="12.5903656"><ele>44.0</ele><time>2026-05-03T10:27:40.929Z</time></trkpt><trkpt lat="41.9448204" lon="12.590455"><ele>44.0</ele><time>2026-05-03T10:27:41.928Z</time></trkpt><trkpt lat="41.944909" lon="12.5905974"><ele>44.0</ele><time>2026-05-03T10:27:42.931Z</time></trkpt><trkpt lat="41.9449899" lon="12.5907518"><ele>43.5</ele><time>2026-05-03T10:27:43.923Z</time></trkpt><trkpt lat="41.9450688" lon="12.5909346"><ele>43.0</ele><time>2026-05-03T10:27:44.935Z</time></trkpt><trkpt lat="41.9451378" lon="12.5910982"><ele>42.5</ele><time>2026-05-03T10:27:45.936Z</time></trkpt><trkpt lat="41.9452207" lon="12.5912648"><ele>42.0</ele><time>2026-05-03T10:27:46.936Z</time></trkpt><trkpt lat="41.9453206" lon="12.5914444"><ele>42.0</ele><time>2026-05-03T10:27:47.938Z</time></trkpt><trkpt lat="41.9454275" lon="12.5916377"><ele>42.0</ele><time>2026-05-03T10:27:48.936Z</time></trkpt><trkpt lat="41.9455353" lon="12.5918504"><ele>42.0</ele><time>2026-05-03T10:27:49.938Z</time></trkpt><trkpt lat="41.9456346" lon="12.5920564"><ele>42.0</ele><time>2026-05-03T10:27:50.935Z</time></trkpt><trkpt lat="41.9457389" lon="12.5922258"><ele>42.0</ele><time>2026-05-03T10:27:51.941Z</time></trkpt><trkpt lat="41.9458236" lon="12.592403"><ele>42.0</ele><time>2026-05-03T10:27:52.935Z</time></trkpt><trkpt lat="41.9459234" lon="12.5925881"><ele>42.0</ele><time>2026-05-03T10:27:53.933Z</time></trkpt><trkpt lat="41.9460195" lon="12.5927873"><ele>42.0</ele><time>2026-05-03T10:27:54.936Z</time></trkpt><trkpt lat="41.9461361" lon="12.5929668"><ele>42.0</ele><time>2026-05-03T10:27:55.937Z</time></trkpt><trkpt lat="41.9462351" lon="12.5931584"><ele>41.333333333333336</ele><time>2026-05-03T10:27:56.932Z</time></trkpt><trkpt lat="41.9463476" lon="12.5933592"><ele>40.66666666666667</ele><time>2026-05-03T10:27:57.939Z</time></trkpt><trkpt lat="41.9464475" lon="12.5935783"><ele>40.0</ele><time>2026-05-03T10:27:58.938Z</time></trkpt><trkpt lat="41.9465483" lon="12.5938013"><ele>40.0</ele><time>2026-05-03T10:27:59.929Z</time></trkpt><trkpt lat="41.9466545" lon="12.5940055"><ele>40.0</ele><time>2026-05-03T10:28:00.941Z</time></trkpt><trkpt lat="41.9467541" lon="12.5942326"><ele>40.0</ele><time>2026-05-03T10:28:01.936Z</time></trkpt><trkpt lat="41.9468641" lon="12.5944759"><ele>40.333333333333336</ele><time>2026-05-03T10:28:02.934Z</time></trkpt><trkpt lat="41.9469917" lon="12.5947169"><ele>40.666666666666664</ele><time>2026-05-03T10:28:03.931Z</time></trkpt><trkpt lat="41.9471053" lon="12.5949542"><ele>41.0</ele><time>2026-05-03T10:28:04.933Z</time></trkpt><trkpt lat="41.9472234" lon="12.5951591"><ele>40.666666666666664</ele><time>2026-05-03T10:28:05.928Z</time></trkpt><trkpt lat="41.9473415" lon="12.5953587"><ele>40.333333333333336</ele><time>2026-05-03T10:28:06.938Z</time></trkpt><trkpt lat="41.9474277" lon="12.59556"><ele>40.0</ele><time>2026-05-03T10:28:07.942Z</time></trkpt><trkpt lat="41.9475546" lon="12.5957483"><ele>40.0</ele><time>2026-05-03T10:28:08.942Z</time></trkpt><trkpt lat="41.9476472" lon="12.5959686"><ele>40.0</ele><time>2026-05-03T10:28:09.937Z</time></trkpt><trkpt lat="41.947746" lon="12.5961981"><ele>40.0</ele><time>2026-05-03T10:28:10.934Z</time></trkpt><trkpt lat="41.9478623" lon="12.5964214"><ele>40.66666666666667</ele><time>2026-05-03T10:28:11.926Z</time></trkpt><trkpt lat="41.9479842" lon="12.5966324"><ele>41.333333333333336</ele><time>2026-05-03T10:28:12.935Z</time></trkpt><trkpt lat="41.9480795" lon="12.5968604"><ele>42.0</ele><time>2026-05-03T10:28:13.941Z</time></trkpt><trkpt lat="41.948202" lon="12.5971002"><ele>43.0</ele><time>2026-05-03T10:28:14.931Z</time></trkpt><trkpt lat="41.9483066" lon="12.5973401"><ele>44.0</ele><time>2026-05-03T10:28:15.935Z</time></trkpt><trkpt lat="41.9484206" lon="12.5975878"><ele>45.0</ele><time>2026-05-03T10:28:16.928Z</time></trkpt><trkpt lat="41.9485448" lon="12.5978257"><ele>45.666666666666664</ele><time>2026-05-03T10:28:17.936Z</time></trkpt><trkpt lat="41.9486754" lon="12.5980589"><ele>46.33333333333333</ele><time>2026-05-03T10:28:18.957Z</time></trkpt><trkpt lat="41.9488299" lon="12.5982816"><ele>47.0</ele><time>2026-05-03T10:28:19.936Z</time></trkpt><trkpt lat="41.9489841" lon="12.5984978"><ele>46.666666666666664</ele><time>2026-05-03T10:28:20.928Z</time></trkpt><trkpt lat="41.9491434" lon="12.5986969"><ele>46.333333333333336</ele><time>2026-05-03T10:28:21.929Z</time></trkpt><trkpt lat="41.949286" lon="12.5988918"><ele>46.0</ele><time>2026-05-03T10:28:22.925Z</time></trkpt><trkpt lat="41.9494428" lon="12.59907"><ele>46.333333333333336</ele><time>2026-05-03T10:28:23.924Z</time></trkpt><trkpt lat="41.949622" lon="12.5992491"><ele>46.666666666666664</ele><time>2026-05-03T10:28:24.932Z</time></trkpt><trkpt lat="41.9498085" lon="12.5993839"><ele>47.0</ele><time>2026-05-03T10:28:25.939Z</time></trkpt><trkpt lat="41.9499847" lon="12.599519"><ele>47.666666666666664</ele><time>2026-05-03T10:28:26.932Z</time></trkpt><trkpt lat="41.9501715" lon="12.5996386"><ele>48.33333333333333</ele><time>2026-05-03T10:28:27.932Z</time></trkpt><trkpt lat="41.9503701" lon="12.599755"><ele>49.0</ele><time>2026-05-03T10:28:28.925Z</time></trkpt><trkpt lat="41.9505882" lon="12.5998836"><ele>49.0</ele><time>2026-05-03T10:28:29.955Z</time></trkpt><trkpt lat="41.9507682" lon="12.6000252"><ele>49.0</ele><time>2026-05-03T10:28:30.957Z</time></trkpt><trkpt lat="41.9509406" lon="12.6001751"><ele>49.0</ele><time>2026-05-03T10:28:31.925Z</time></trkpt><trkpt lat="41.9511299" lon="12.600312"><ele>49.0</ele><time>2026-05-03T10:28:32.931Z</time></trkpt><trkpt lat="41.9513221" lon="12.6004453"><ele>49.0</ele><time>2026-05-03T10:28:33.932Z</time></trkpt><trkpt lat="41.9515261" lon="12.6005759"><ele>49.0</ele><time>2026-05-03T10:28:34.933Z</time></trkpt><trkpt lat="41.9517315" lon="12.6007071"><ele>49.5</ele><time>2026-05-03T10:28:35.939Z</time></trkpt><trkpt lat="41.9519407" lon="12.6008479"><ele>50.0</ele><time>2026-05-03T10:28:36.952Z</time></trkpt><trkpt lat="41.9521452" lon="12.6009906"><ele>50.0</ele><time>2026-05-03T10:28:37.942Z</time></trkpt><trkpt lat="41.9523207" lon="12.6011136"><ele>50.0</ele><time>2026-05-03T10:28:38.935Z</time></trkpt><trkpt lat="41.9525077" lon="12.6012523"><ele>50.0</ele><time>2026-05-03T10:28:39.939Z</time></trkpt><trkpt lat="41.9527115" lon="12.6014036"><ele>50.5</ele><time>2026-05-03T10:28:40.942Z</time></trkpt><trkpt lat="41.9529303" lon="12.6015581"><ele>51.0</ele><time>2026-05-03T10:28:41.944Z</time></trkpt><trkpt lat="41.9531501" lon="12.6017112"><ele>52.5</ele><time>2026-05-03T10:28:42.947Z</time></trkpt><trkpt lat="41.9533723" lon="12.601879"><ele>54.0</ele><time>2026-05-03T10:28:43.941Z</time></trkpt><trkpt lat="41.9535823" lon="12.6020369"><ele>54.0</ele><time>2026-05-03T10:28:44.948Z</time></trkpt><trkpt lat="41.953808" lon="12.6021877"><ele>54.0</ele><time>2026-05-03T10:28:45.942Z</time></trkpt><trkpt lat="41.9540308" lon="12.6023403"><ele>56.0</ele><time>2026-05-03T10:28:46.947Z</time></trkpt><trkpt lat="41.9542563" lon="12.6025065"><ele>58.0</ele><time>2026-05-03T10:28:47.943Z</time></trkpt><trkpt lat="41.9544929" lon="12.6026588"><ele>58.0</ele><time>2026-05-03T10:28:48.941Z</time></trkpt><trkpt lat="41.9547274" lon="12.6028308"><ele>58.0</ele><time>2026-05-03T10:28:49.939Z</time></trkpt><trkpt lat="41.9549773" lon="12.6029673"><ele>58.0</ele><time>2026-05-03T10:28:50.936Z</time></trkpt><trkpt lat="41.955219" lon="12.603067"><ele>58.0</ele><time>2026-05-03T10:28:51.937Z</time></trkpt><trkpt lat="41.9554495" lon="12.603153"><ele>58.0</ele><time>2026-05-03T10:28:52.939Z</time></trkpt><trkpt lat="41.9556754" lon="12.6032373"><ele>58.0</ele><time>2026-05-03T10:28:53.928Z</time></trkpt><trkpt lat="41.9559221" lon="12.6033281"><ele>57.5</ele><time>2026-05-03T10:28:54.937Z</time></trkpt><trkpt lat="41.9561696" lon="12.6033922"><ele>57.0</ele><time>2026-05-03T10:28:55.935Z</time></trkpt><trkpt lat="41.9564219" lon="12.6034486"><ele>57.0</ele><time>2026-05-03T10:28:56.937Z</time></trkpt><trkpt lat="41.9566709" lon="12.6035178"><ele>57.0</ele><time>2026-05-03T10:28:57.93Z</time></trkpt><trkpt lat="41.956936" lon="12.6036202"><ele>56.0</ele><time>2026-05-03T10:28:58.935Z</time></trkpt><trkpt lat="41.9571548" lon="12.6036997"><ele>55.0</ele><time>2026-05-03T10:28:59.934Z</time></trkpt><trkpt lat="41.9573633" lon="12.6038173"><ele>54.5</ele><time>2026-05-03T10:29:00.93Z</time></trkpt><trkpt lat="41.9575501" lon="12.6039698"><ele>54.0</ele><time>2026-05-03T10:29:01.927Z</time></trkpt><trkpt lat="41.9577415" lon="12.6041714"><ele>54.0</ele><time>2026-05-03T10:29:02.928Z</time></trkpt><trkpt lat="41.9579055" lon="12.6043828"><ele>54.0</ele><time>2026-05-03T10:29:03.927Z</time></trkpt><trkpt lat="41.9580519" lon="12.6046338"><ele>54.0</ele><time>2026-05-03T10:29:04.938Z</time></trkpt><trkpt lat="41.9581868" lon="12.6049012"><ele>54.0</ele><time>2026-05-03T10:29:05.938Z</time></trkpt><trkpt lat="41.9583168" lon="12.6052166"><ele>56.0</ele><time>2026-05-03T10:29:06.93Z</time></trkpt><trkpt lat="41.958438" lon="12.6055338"><ele>58.0</ele><time>2026-05-03T10:29:07.94Z</time></trkpt><trkpt lat="41.9585527" lon="12.605833"><ele>58.0</ele><time>2026-05-03T10:29:08.936Z</time></trkpt><trkpt lat="41.9586926" lon="12.6061253"><ele>58.0</ele><time>2026-05-03T10:29:09.937Z</time></trkpt><trkpt lat="41.9588153" lon="12.6064005"><ele>58.33333333333333</ele><time>2026-05-03T10:29:10.932Z</time></trkpt><trkpt lat="41.9589239" lon="12.6066588"><ele>58.66666666666667</ele><time>2026-05-03T10:29:11.935Z</time></trkpt><trkpt lat="41.9590076" lon="12.6069007"><ele>59.0</ele><time>2026-05-03T10:29:12.928Z</time></trkpt><trkpt lat="41.959104" lon="12.6071338"><ele>59.25</ele><time>2026-05-03T10:29:13.933Z</time></trkpt><trkpt lat="41.9591963" lon="12.6073155"><ele>59.5</ele><time>2026-05-03T10:29:14.939Z</time></trkpt><trkpt lat="41.9592423" lon="12.6074896"><ele>59.75</ele><time>2026-05-03T10:29:15.928Z</time></trkpt><trkpt lat="41.9592976" lon="12.6076334"><ele>60.0</ele><time>2026-05-03T10:29:16.929Z</time></trkpt><trkpt lat="41.9593149" lon="12.6077986"><ele>60.2</ele><time>2026-05-03T10:29:17.938Z</time></trkpt><trkpt lat="41.9592956" lon="12.6079679"><ele>60.4</ele><time>2026-05-03T10:29:18.934Z</time></trkpt><trkpt lat="41.959291" lon="12.608107"><ele>60.599999999999994</ele><time>2026-05-03T10:29:19.936Z</time></trkpt><trkpt lat="41.9593125" lon="12.6082067"><ele>60.8</ele><time>2026-05-03T10:29:20.94Z</time></trkpt><trkpt lat="41.9593698" lon="12.6082872"><ele>61.0</ele><time>2026-05-03T10:29:21.935Z</time></trkpt><trkpt lat="41.9594419" lon="12.6083341"><ele>61.0</ele><time>2026-05-03T10:29:22.933Z</time></trkpt><trkpt lat="41.9595366" lon="12.6083715"><ele>61.0</ele><time>2026-05-03T10:29:23.935Z</time></trkpt><trkpt lat="41.9596347" lon="12.6084344"><ele>61.0</ele><time>2026-05-03T10:29:24.926Z</time></trkpt><trkpt lat="41.9597281" lon="12.6085516"><ele>61.0</ele><time>2026-05-03T10:29:25.914Z</time></trkpt><trkpt lat="41.9598105" lon="12.6086744"><ele>61.666666666666664</ele><time>2026-05-03T10:29:26.918Z</time></trkpt><trkpt lat="41.9598859" lon="12.6088061"><ele>62.33333333333333</ele><time>2026-05-03T10:29:27.922Z</time></trkpt><trkpt lat="41.9599689" lon="12.6089908"><ele>63.0</ele><time>2026-05-03T10:29:28.922Z</time></trkpt><trkpt lat="41.9600839" lon="12.6092598"><ele>64.0</ele><time>2026-05-03T10:29:29.924Z</time></trkpt><trkpt lat="41.9602162" lon="12.6095002"><ele>65.0</ele><time>2026-05-03T10:29:30.922Z</time></trkpt><trkpt lat="41.9603856" lon="12.6096848"><ele>66.0</ele><time>2026-05-03T10:29:31.929Z</time></trkpt><trkpt lat="41.9605681" lon="12.6098568"><ele>66.0</ele><time>2026-05-03T10:29:32.92Z</time></trkpt><trkpt lat="41.9607455" lon="12.610013"><ele>66.0</ele><time>2026-05-03T10:29:33.95Z</time></trkpt><trkpt lat="41.9609373" lon="12.6101599"><ele>66.0</ele><time>2026-05-03T10:29:34.95Z</time></trkpt><trkpt lat="41.9611377" lon="12.610294"><ele>65.0</ele><time>2026-05-03T10:29:35.921Z</time></trkpt><trkpt lat="41.9613608" lon="12.6103977"><ele>64.0</ele><time>2026-05-03T10:29:36.933Z</time></trkpt><trkpt lat="41.9615547" lon="12.610515"><ele>63.0</ele><time>2026-05-03T10:29:37.925Z</time></trkpt><trkpt lat="41.9617804" lon="12.6105884"><ele>63.0</ele><time>2026-05-03T10:29:38.929Z</time></trkpt><trkpt lat="41.9620172" lon="12.610646"><ele>63.0</ele><time>2026-05-03T10:29:39.956Z</time></trkpt><trkpt lat="41.9622519" lon="12.6106724"><ele>63.0</ele><time>2026-05-03T10:29:40.93Z</time></trkpt><trkpt lat="41.9624767" lon="12.6106894"><ele>63.0</ele><time>2026-05-03T10:29:41.934Z</time></trkpt><trkpt lat="41.9627214" lon="12.6106909"><ele>63.5</ele><time>2026-05-03T10:29:42.937Z</time></trkpt><trkpt lat="41.9629748" lon="12.610709"><ele>64.0</ele><time>2026-05-03T10:29:43.933Z</time></trkpt><trkpt lat="41.9632307" lon="12.6107567"><ele>65.0</ele><time>2026-05-03T10:29:44.931Z</time></trkpt><trkpt lat="41.9635017" lon="12.6108115"><ele>66.0</ele><time>2026-05-03T10:29:45.937Z</time></trkpt><trkpt lat="41.9637979" lon="12.6108465"><ele>66.0</ele><time>2026-05-03T10:29:46.935Z</time></trkpt><trkpt lat="41.9640471" lon="12.6108795"><ele>66.0</ele><time>2026-05-03T10:29:47.93Z</time></trkpt><trkpt lat="41.9642882" lon="12.6109177"><ele>68.0</ele><time>2026-05-03T10:29:48.941Z</time></trkpt><trkpt lat="41.9645301" lon="12.6109528"><ele>70.0</ele><time>2026-05-03T10:29:49.93Z</time></trkpt><trkpt lat="41.9647717" lon="12.6109985"><ele>70.0</ele><time>2026-05-03T10:29:50.93Z</time></trkpt><trkpt lat="41.9650142" lon="12.6110551"><ele>70.0</ele><time>2026-05-03T10:29:51.937Z</time></trkpt><trkpt lat="41.9652531" lon="12.6111153"><ele>72.0</ele><time>2026-05-03T10:29:52.936Z</time></trkpt><trkpt lat="41.9655128" lon="12.611178"><ele>74.0</ele><time>2026-05-03T10:29:53.941Z</time></trkpt><trkpt lat="41.9657679" lon="12.6112692"><ele>73.5</ele><time>2026-05-03T10:29:54.937Z</time></trkpt><trkpt lat="41.9660059" lon="12.6113535"><ele>73.0</ele><time>2026-05-03T10:29:55.928Z</time></trkpt><trkpt lat="41.9662379" lon="12.611418"><ele>73.0</ele><time>2026-05-03T10:29:56.944Z</time></trkpt><trkpt lat="41.9664588" lon="12.6114843"><ele>73.0</ele><time>2026-05-03T10:29:57.945Z</time></trkpt><trkpt lat="41.966693" lon="12.6115505"><ele>73.5</ele><time>2026-05-03T10:29:58.932Z</time></trkpt><trkpt lat="41.9669109" lon="12.6116217"><ele>74.0</ele><time>2026-05-03T10:29:59.937Z</time></trkpt><trkpt lat="41.9671471" lon="12.6116925"><ele>74.0</ele><time>2026-05-03T10:30:00.93Z</time></trkpt><trkpt lat="41.9673802" lon="12.6117517"><ele>74.0</ele><time>2026-05-03T10:30:01.933Z</time></trkpt><trkpt lat="41.9676032" lon="12.6117837"><ele>74.66666666666667</ele><time>2026-05-03T10:30:02.946Z</time></trkpt><trkpt lat="41.9678084" lon="12.6118406"><ele>75.33333333333333</ele><time>2026-05-03T10:30:03.926Z</time></trkpt><trkpt lat="41.9679999" lon="12.6118934"><ele>76.0</ele><time>2026-05-03T10:30:04.945Z</time></trkpt><trkpt lat="41.9681896" lon="12.611958"><ele>76.66666666666666</ele><time>2026-05-03T10:30:05.933Z</time></trkpt><trkpt lat="41.9683871" lon="12.612007"><ele>77.33333333333333</ele><time>2026-05-03T10:30:06.928Z</time></trkpt><trkpt lat="41.9685729" lon="12.6120697"><ele>78.0</ele><time>2026-05-03T10:30:07.946Z</time></trkpt><trkpt lat="41.9687469" lon="12.6120921"><ele>78.0</ele><time>2026-05-03T10:30:08.939Z</time></trkpt><trkpt lat="41.9688971" lon="12.6121506"><ele>78.0</ele><time>2026-05-03T10:30:09.931Z</time></trkpt><trkpt lat="41.9690536" lon="12.6122005"><ele>78.0</ele><time>2026-05-03T10:30:10.936Z</time></trkpt><trkpt lat="41.9692002" lon="12.612228"><ele>78.4</ele><time>2026-05-03T10:30:11.932Z</time></trkpt><trkpt lat="41.969321" lon="12.6122634"><ele>78.8</ele><time>2026-05-03T10:30:12.937Z</time></trkpt><trkpt lat="41.9694399" lon="12.6122748"><ele>79.2</ele><time>2026-05-03T10:30:13.933Z</time></trkpt><trkpt lat="41.9695394" lon="12.6122646"><ele>79.6</ele><time>2026-05-03T10:30:14.945Z</time></trkpt><trkpt lat="41.9696377" lon="12.6122399"><ele>80.0</ele><time>2026-05-03T10:30:15.936Z</time></trkpt><trkpt lat="41.9697384" lon="12.6122066"><ele>80.0</ele><time>2026-05-03T10:30:16.94Z</time></trkpt><trkpt lat="41.9698201" lon="12.612203"><ele>80.0</ele><time>2026-05-03T10:30:17.935Z</time></trkpt><trkpt lat="41.9699112" lon="12.6122759"><ele>80.0</ele><time>2026-05-03T10:30:19.942Z</time></trkpt><trkpt lat="41.9699835" lon="12.6123875"><ele>80.0</ele><time>2026-05-03T10:30:21.94Z</time></trkpt><trkpt lat="41.9700645" lon="12.6124988"><ele>80.0</ele><time>2026-05-03T10:30:23.941Z</time></trkpt><trkpt lat="41.9701355" lon="12.6125364"><ele>80.4</ele><time>2026-05-03T10:30:24.938Z</time></trkpt><trkpt lat="41.9702108" lon="12.6125466"><ele>80.8</ele><time>2026-05-03T10:30:25.942Z</time></trkpt><trkpt lat="41.9702916" lon="12.6125244"><ele>81.19999999999999</ele><time>2026-05-03T10:30:26.936Z</time></trkpt><trkpt lat="41.9703669" lon="12.6124502"><ele>81.6</ele><time>2026-05-03T10:30:27.934Z</time></trkpt><trkpt lat="41.9704339" lon="12.6123415"><ele>82.0</ele><time>2026-05-03T10:30:28.932Z</time></trkpt><trkpt lat="41.970493" lon="12.6122385"><ele>82.0</ele><time>2026-05-03T10:30:29.935Z</time></trkpt><trkpt lat="41.9705717" lon="12.6121694"><ele>82.0</ele><time>2026-05-03T10:30:30.937Z</time></trkpt><trkpt lat="41.9706614" lon="12.6121511"><ele>82.0</ele><time>2026-05-03T10:30:31.936Z</time></trkpt><trkpt lat="41.970771" lon="12.6121494"><ele>82.0</ele><time>2026-05-03T10:30:32.94Z</time></trkpt><trkpt lat="41.9708964" lon="12.6121786"><ele>82.0</ele><time>2026-05-03T10:30:33.939Z</time></trkpt><trkpt lat="41.9710257" lon="12.6122321"><ele>81.66666666666666</ele><time>2026-05-03T10:30:34.937Z</time></trkpt><trkpt lat="41.9711568" lon="12.6123167"><ele>81.33333333333333</ele><time>2026-05-03T10:30:35.939Z</time></trkpt><trkpt lat="41.971284" lon="12.6124245"><ele>81.0</ele><time>2026-05-03T10:30:36.941Z</time></trkpt><trkpt lat="41.9714442" lon="12.6125701"><ele>81.0</ele><time>2026-05-03T10:30:37.967Z</time></trkpt><trkpt lat="41.9715686" lon="12.612697"><ele>81.0</ele><time>2026-05-03T10:30:38.936Z</time></trkpt><trkpt lat="41.9716827" lon="12.6128025"><ele>81.0</ele><time>2026-05-03T10:30:39.943Z</time></trkpt><trkpt lat="41.9717757" lon="12.6128772"><ele>81.0</ele><time>2026-05-03T10:30:40.96Z</time></trkpt><trkpt lat="41.971872" lon="12.6129262"><ele>80.5</ele><time>2026-05-03T10:30:41.944Z</time></trkpt><trkpt lat="41.9719677" lon="12.6129716"><ele>80.0</ele><time>2026-05-03T10:30:42.943Z</time></trkpt><trkpt lat="41.9720571" lon="12.6130298"><ele>79.5</ele><time>2026-05-03T10:30:43.941Z</time></trkpt><trkpt lat="41.9721333" lon="12.6130903"><ele>79.0</ele><time>2026-05-03T10:30:44.938Z</time></trkpt><trkpt lat="41.9721948" lon="12.6131354"><ele>78.5</ele><time>2026-05-03T10:30:45.941Z</time></trkpt><trkpt lat="41.9722559" lon="12.6131797"><ele>78.0</ele><time>2026-05-03T10:30:46.946Z</time></trkpt><trkpt lat="41.9723156" lon="12.6132229"><ele>78.0</ele><time>2026-05-03T10:30:47.946Z</time></trkpt><trkpt lat="41.9723737" lon="12.6132587"><ele>78.0</ele><time>2026-05-03T10:30:48.947Z</time></trkpt><trkpt lat="41.9724819" lon="12.6133075"><ele>78.0</ele><time>2026-05-03T10:30:50.946Z</time></trkpt><trkpt lat="41.9725498" lon="12.6133367"><ele>78.0</ele><time>2026-05-03T10:30:51.947Z</time></trkpt><trkpt lat="41.9726251" lon="12.6133677"><ele>78.0</ele><time>2026-05-03T10:30:52.933Z</time></trkpt><trkpt lat="41.9727178" lon="12.6134036"><ele>78.0</ele><time>2026-05-03T10:30:53.963Z</time></trkpt><trkpt lat="41.9728367" lon="12.6134506"><ele>77.25</ele><time>2026-05-03T10:30:54.959Z</time></trkpt><trkpt lat="41.9729598" lon="12.6134985"><ele>76.5</ele><time>2026-05-03T10:30:55.93Z</time></trkpt><trkpt lat="41.9731058" lon="12.6135554"><ele>75.75</ele><time>2026-05-03T10:30:56.923Z</time></trkpt><trkpt lat="41.9732448" lon="12.6136031"><ele>75.0</ele><time>2026-05-03T10:30:57.931Z</time></trkpt><trkpt lat="41.973394" lon="12.6136617"><ele>74.0</ele><time>2026-05-03T10:30:58.926Z</time></trkpt><trkpt lat="41.9736003" lon="12.6137111"><ele>73.0</ele><time>2026-05-03T10:30:59.92Z</time></trkpt><trkpt lat="41.9737883" lon="12.6137508"><ele>72.0</ele><time>2026-05-03T10:31:00.931Z</time></trkpt><trkpt lat="41.9739837" lon="12.6138098"><ele>72.0</ele><time>2026-05-03T10:31:01.926Z</time></trkpt><trkpt lat="41.974178" lon="12.6138435"><ele>72.0</ele><time>2026-05-03T10:31:02.919Z</time></trkpt><trkpt lat="41.9743588" lon="12.6138987"><ele>72.0</ele><time>2026-05-03T10:31:03.933Z</time></trkpt><trkpt lat="41.9745344" lon="12.6139531"><ele>71.66666666666667</ele><time>2026-05-03T10:31:04.93Z</time></trkpt><trkpt lat="41.974711" lon="12.6140238"><ele>71.33333333333334</ele><time>2026-05-03T10:31:05.92Z</time></trkpt><trkpt lat="41.9748396" lon="12.6140949"><ele>71.0</ele><time>2026-05-03T10:31:06.934Z</time></trkpt><trkpt lat="41.9750044" lon="12.614168"><ele>71.0</ele><time>2026-05-03T10:31:07.927Z</time></trkpt><trkpt lat="41.9751922" lon="12.6142094"><ele>71.0</ele><time>2026-05-03T10:31:08.929Z</time></trkpt><trkpt lat="41.9753696" lon="12.6142612"><ele>71.0</ele><time>2026-05-03T10:31:09.938Z</time></trkpt><trkpt lat="41.9755503" lon="12.6143344"><ele>71.0</ele><time>2026-05-03T10:31:10.958Z</time></trkpt><trkpt lat="41.9757289" lon="12.6144198"><ele>71.0</ele><time>2026-05-03T10:31:11.934Z</time></trkpt><trkpt lat="41.9759027" lon="12.6144897"><ele>71.0</ele><time>2026-05-03T10:31:12.94Z</time></trkpt><trkpt lat="41.9760865" lon="12.6145286"><ele>71.33333333333334</ele><time>2026-05-03T10:31:13.957Z</time></trkpt><trkpt lat="41.9762412" lon="12.6145845"><ele>71.66666666666667</ele><time>2026-05-03T10:31:14.925Z</time></trkpt><trkpt lat="41.976388" lon="12.6146534"><ele>72.0</ele><time>2026-05-03T10:31:15.935Z</time></trkpt><trkpt lat="41.9765542" lon="12.6147096"><ele>71.0</ele><time>2026-05-03T10:31:16.934Z</time></trkpt><trkpt lat="41.9767186" lon="12.6147558"><ele>70.0</ele><time>2026-05-03T10:31:17.962Z</time></trkpt><trkpt lat="41.9768754" lon="12.6148157"><ele>69.0</ele><time>2026-05-03T10:31:18.926Z</time></trkpt><trkpt lat="41.9770243" lon="12.6148938"><ele>69.0</ele><time>2026-05-03T10:31:19.935Z</time></trkpt><trkpt lat="41.9771901" lon="12.6149634"><ele>69.0</ele><time>2026-05-03T10:31:20.933Z</time></trkpt><trkpt lat="41.9773336" lon="12.6150437"><ele>69.0</ele><time>2026-05-03T10:31:21.941Z</time></trkpt><trkpt lat="41.9774831" lon="12.6151151"><ele>69.0</ele><time>2026-05-03T10:31:22.934Z</time></trkpt><trkpt lat="41.9776599" lon="12.6152055"><ele>69.0</ele><time>2026-05-03T10:31:23.934Z</time></trkpt><trkpt lat="41.9778231" lon="12.6153034"><ele>69.0</ele><time>2026-05-03T10:31:24.937Z</time></trkpt><trkpt lat="41.9779607" lon="12.6153826"><ele>70.0</ele><time>2026-05-03T10:31:25.937Z</time></trkpt><trkpt lat="41.9780998" lon="12.615468"><ele>71.0</ele><time>2026-05-03T10:31:26.932Z</time></trkpt><trkpt lat="41.9782414" lon="12.6155594"><ele>72.0</ele><time>2026-05-03T10:31:27.933Z</time></trkpt><trkpt lat="41.9784113" lon="12.6156035"><ele>72.66666666666667</ele><time>2026-05-03T10:31:28.926Z</time></trkpt><trkpt lat="41.9785731" lon="12.6156431"><ele>73.33333333333334</ele><time>2026-05-03T10:31:29.935Z</time></trkpt><trkpt lat="41.978715" lon="12.6157024"><ele>74.0</ele><time>2026-05-03T10:31:30.924Z</time></trkpt><trkpt lat="41.978857" lon="12.6157731"><ele>74.0</ele><time>2026-05-03T10:31:31.93Z</time></trkpt><trkpt lat="41.9790335" lon="12.615854"><ele>74.0</ele><time>2026-05-03T10:31:32.926Z</time></trkpt><trkpt lat="41.9792343" lon="12.6159026"><ele>74.0</ele><time>2026-05-03T10:31:33.927Z</time></trkpt><trkpt lat="41.979447" lon="12.6160026"><ele>74.0</ele><time>2026-05-03T10:31:34.953Z</time></trkpt><trkpt lat="41.9796475" lon="12.6160861"><ele>74.0</ele><time>2026-05-03T10:31:35.932Z</time></trkpt><trkpt lat="41.9798454" lon="12.6161348"><ele>74.0</ele><time>2026-05-03T10:31:36.935Z</time></trkpt><trkpt lat="41.9800448" lon="12.6161888"><ele>76.0</ele><time>2026-05-03T10:31:37.926Z</time></trkpt><trkpt lat="41.9802271" lon="12.6162442"><ele>78.0</ele><time>2026-05-03T10:31:38.925Z</time></trkpt><trkpt lat="41.9804045" lon="12.6162522"><ele>80.0</ele><time>2026-05-03T10:31:39.934Z</time></trkpt><trkpt lat="41.9805821" lon="12.6162196"><ele>80.0</ele><time>2026-05-03T10:31:40.931Z</time></trkpt><trkpt lat="41.9807339" lon="12.6162106"><ele>80.0</ele><time>2026-05-03T10:31:41.932Z</time></trkpt><trkpt lat="41.9808374" lon="12.6161998"><ele>80.0</ele><time>2026-05-03T10:31:42.932Z</time></trkpt><trkpt lat="41.9809532" lon="12.6161954"><ele>80.0</ele><time>2026-05-03T10:31:43.925Z</time></trkpt><trkpt lat="41.9811024" lon="12.6162324"><ele>81.25</ele><time>2026-05-03T10:31:44.931Z</time></trkpt><trkpt lat="41.9812489" lon="12.6162414"><ele>82.5</ele><time>2026-05-03T10:31:45.922Z</time></trkpt><trkpt lat="41.9813857" lon="12.6162511"><ele>83.75</ele><time>2026-05-03T10:31:46.973Z</time></trkpt><trkpt lat="41.9814898" lon="12.6162732"><ele>85.0</ele><time>2026-05-03T10:31:47.915Z</time></trkpt><trkpt lat="41.981571" lon="12.6162948"><ele>86.5</ele><time>2026-05-03T10:31:48.952Z</time></trkpt><trkpt lat="41.9816865" lon="12.6163365"><ele>88.0</ele><time>2026-05-03T10:31:49.919Z</time></trkpt><trkpt lat="41.981833" lon="12.6163749"><ele>89.5</ele><time>2026-05-03T10:31:50.916Z</time></trkpt><trkpt lat="41.9820049" lon="12.6163974"><ele>91.0</ele><time>2026-05-03T10:31:51.916Z</time></trkpt><trkpt lat="41.9821506" lon="12.6164188"><ele>91.0</ele><time>2026-05-03T10:31:52.916Z</time></trkpt><trkpt lat="41.9823025" lon="12.6164192"><ele>91.0</ele><time>2026-05-03T10:31:53.92Z</time></trkpt><trkpt lat="41.9824444" lon="12.6164545"><ele>91.0</ele><time>2026-05-03T10:31:54.911Z</time></trkpt><trkpt lat="41.9825816" lon="12.6164664"><ele>91.0</ele><time>2026-05-03T10:31:55.926Z</time></trkpt><trkpt lat="41.9827124" lon="12.6164877"><ele>89.0</ele><time>2026-05-03T10:31:56.924Z</time></trkpt><trkpt lat="41.9828253" lon="12.6164977"><ele>87.0</ele><time>2026-05-03T10:31:57.925Z</time></trkpt><trkpt lat="41.9829552" lon="12.6165055"><ele>85.0</ele><time>2026-05-03T10:31:58.932Z</time></trkpt><trkpt lat="41.9830549" lon="12.6165225"><ele>83.0</ele><time>2026-05-03T10:31:59.922Z</time></trkpt><trkpt lat="41.9831944" lon="12.6165521"><ele>83.0</ele><time>2026-05-03T10:32:00.937Z</time></trkpt><trkpt lat="41.9833716" lon="12.6165803"><ele>83.0</ele><time>2026-05-03T10:32:01.928Z</time></trkpt><trkpt lat="41.9835183" lon="12.6166175"><ele>83.0</ele><time>2026-05-03T10:32:02.935Z</time></trkpt><trkpt lat="41.9836621" lon="12.6167053"><ele>83.0</ele><time>2026-05-03T10:32:03.929Z</time></trkpt><trkpt lat="41.9838422" lon="12.6167985"><ele>83.0</ele><time>2026-05-03T10:32:04.927Z</time></trkpt><trkpt lat="41.9840511" lon="12.6169055"><ele>83.0</ele><time>2026-05-03T10:32:05.923Z</time></trkpt><trkpt lat="41.9842446" lon="12.6169824"><ele>85.33333333333334</ele><time>2026-05-03T10:32:06.934Z</time></trkpt><trkpt lat="41.9844224" lon="12.6170568"><ele>87.66666666666667</ele><time>2026-05-03T10:32:07.929Z</time></trkpt><trkpt lat="41.9846036" lon="12.6171382"><ele>90.0</ele><time>2026-05-03T10:32:08.923Z</time></trkpt><trkpt lat="41.9847902" lon="12.6172196"><ele>90.0</ele><time>2026-05-03T10:32:09.923Z</time></trkpt><trkpt lat="41.9849768" lon="12.6173126"><ele>90.0</ele><time>2026-05-03T10:32:10.924Z</time></trkpt><trkpt lat="41.9851516" lon="12.6173922"><ele>90.0</ele><time>2026-05-03T10:32:11.93Z</time></trkpt><trkpt lat="41.9853223" lon="12.6174793"><ele>90.0</ele><time>2026-05-03T10:32:12.935Z</time></trkpt><trkpt lat="41.985525" lon="12.6175609"><ele>90.0</ele><time>2026-05-03T10:32:13.938Z</time></trkpt><trkpt lat="41.9857243" lon="12.6176485"><ele>90.0</ele><time>2026-05-03T10:32:14.934Z</time></trkpt><trkpt lat="41.9859202" lon="12.617743"><ele>91.33333333333333</ele><time>2026-05-03T10:32:15.936Z</time></trkpt><trkpt lat="41.9861263" lon="12.6178514"><ele>92.66666666666666</ele><time>2026-05-03T10:32:16.927Z</time></trkpt><trkpt lat="41.9863427" lon="12.6179291"><ele>94.0</ele><time>2026-05-03T10:32:17.931Z</time></trkpt><trkpt lat="41.9865175" lon="12.6179946"><ele>94.33333333333333</ele><time>2026-05-03T10:32:18.926Z</time></trkpt><trkpt lat="41.9866935" lon="12.6180716"><ele>94.66666666666667</ele><time>2026-05-03T10:32:19.937Z</time></trkpt><trkpt lat="41.9868552" lon="12.6181515"><ele>95.0</ele><time>2026-05-03T10:32:20.933Z</time></trkpt><trkpt lat="41.9870203" lon="12.6182172"><ele>95.0</ele><time>2026-05-03T10:32:21.932Z</time></trkpt><trkpt lat="41.9871844" lon="12.6182657"><ele>95.0</ele><time>2026-05-03T10:32:22.928Z</time></trkpt><trkpt lat="41.9873676" lon="12.618263"><ele>95.0</ele><time>2026-05-03T10:32:23.939Z</time></trkpt><trkpt lat="41.9875476" lon="12.6182916"><ele>96.66666666666667</ele><time>2026-05-03T10:32:24.936Z</time></trkpt><trkpt lat="41.9877357" lon="12.6183138"><ele>98.33333333333334</ele><time>2026-05-03T10:32:25.942Z</time></trkpt><trkpt lat="41.9879218" lon="12.6183551"><ele>100.0</ele><time>2026-05-03T10:32:26.932Z</time></trkpt><trkpt lat="41.9881436" lon="12.6183982"><ele>102.0</ele><time>2026-05-03T10:32:27.938Z</time></trkpt><trkpt lat="41.9883572" lon="12.6184167"><ele>104.0</ele><time>2026-05-03T10:32:28.932Z</time></trkpt><trkpt lat="41.9885761" lon="12.6184464"><ele>106.0</ele><time>2026-05-03T10:32:29.929Z</time></trkpt><trkpt lat="41.9887901" lon="12.6184798"><ele>106.0</ele><time>2026-05-03T10:32:30.933Z</time></trkpt><trkpt lat="41.9889675" lon="12.6184961"><ele>106.0</ele><time>2026-05-03T10:32:31.925Z</time></trkpt><trkpt lat="41.9891437" lon="12.618529"><ele>106.0</ele><time>2026-05-03T10:32:32.958Z</time></trkpt><trkpt lat="41.9893027" lon="12.618544"><ele>107.5</ele><time>2026-05-03T10:32:33.946Z</time></trkpt><trkpt lat="41.9894518" lon="12.6185684"><ele>109.0</ele><time>2026-05-03T10:32:34.928Z</time></trkpt><trkpt lat="41.9895774" lon="12.6186141"><ele>110.5</ele><time>2026-05-03T10:32:35.932Z</time></trkpt><trkpt lat="41.989697" lon="12.6186444"><ele>112.0</ele><time>2026-05-03T10:32:36.933Z</time></trkpt><trkpt lat="41.9897657" lon="12.6186686"><ele>112.00000000000001</ele><time>2026-05-03T10:32:37.935Z</time></trkpt><trkpt lat="41.9898289" lon="12.6186806"><ele>112.0</ele><time>2026-05-03T10:32:38.941Z</time></trkpt><trkpt lat="41.9898872" lon="12.6187213"><ele>112.0</ele><time>2026-05-03T10:32:39.931Z</time></trkpt><trkpt lat="41.9899192" lon="12.6188783"><ele>112.0</ele><time>2026-05-03T10:32:41.942Z</time></trkpt><trkpt lat="41.9899052" lon="12.6189818"><ele>112.00000000000001</ele><time>2026-05-03T10:32:42.928Z</time></trkpt><trkpt lat="41.98991" lon="12.6191005"><ele>112.0</ele><time>2026-05-03T10:32:43.933Z</time></trkpt><trkpt lat="41.9899346" lon="12.6191789"><ele>112.83333333333334</ele><time>2026-05-03T10:32:44.931Z</time></trkpt><trkpt lat="41.9900228" lon="12.61923"><ele>113.66666666666667</ele><time>2026-05-03T10:32:46.937Z</time></trkpt><trkpt lat="41.9900913" lon="12.6192436"><ele>114.5</ele><time>2026-05-03T10:32:47.928Z</time></trkpt><trkpt lat="41.9901619" lon="12.6192424"><ele>115.33333333333334</ele><time>2026-05-03T10:32:48.917Z</time></trkpt><trkpt lat="41.9902434" lon="12.6192218"><ele>116.16666666666667</ele><time>2026-05-03T10:32:49.94Z</time></trkpt><trkpt lat="41.9903102" lon="12.6192396"><ele>117.0</ele><time>2026-05-03T10:32:50.939Z</time></trkpt><trkpt lat="41.990374" lon="12.6193059"><ele>117.0</ele><time>2026-05-03T10:32:51.928Z</time></trkpt><trkpt lat="41.9904259" lon="12.6194101"><ele>116.99999999999999</ele><time>2026-05-03T10:32:52.933Z</time></trkpt><trkpt lat="41.9904522" lon="12.6195475"><ele>116.99999999999999</ele><time>2026-05-03T10:32:53.929Z</time></trkpt><trkpt lat="41.9904656" lon="12.6197126"><ele>117.0</ele><time>2026-05-03T10:32:54.934Z</time></trkpt><trkpt lat="41.9904785" lon="12.6198404"><ele>117.0</ele><time>2026-05-03T10:32:55.934Z</time></trkpt><trkpt lat="41.9904676" lon="12.6199729"><ele>115.5</ele><time>2026-05-03T10:32:56.934Z</time></trkpt><trkpt lat="41.9904735" lon="12.6201026"><ele>114.0</ele><time>2026-05-03T10:32:57.929Z</time></trkpt><trkpt lat="41.9904787" lon="12.6202494"><ele>112.5</ele><time>2026-05-03T10:32:58.937Z</time></trkpt><trkpt lat="41.9905224" lon="12.6203983"><ele>111.0</ele><time>2026-05-03T10:32:59.931Z</time></trkpt><trkpt lat="41.9905812" lon="12.6205547"><ele>109.66666666666666</ele><time>2026-05-03T10:33:00.935Z</time></trkpt><trkpt lat="41.9906432" lon="12.6207228"><ele>108.33333333333333</ele><time>2026-05-03T10:33:01.928Z</time></trkpt><trkpt lat="41.9907101" lon="12.6208924"><ele>107.0</ele><time>2026-05-03T10:33:02.933Z</time></trkpt><trkpt lat="41.9907862" lon="12.6211158"><ele>107.5</ele><time>2026-05-03T10:33:03.935Z</time></trkpt><trkpt lat="41.9908501" lon="12.621305"><ele>108.0</ele><time>2026-05-03T10:33:04.93Z</time></trkpt><trkpt lat="41.9909002" lon="12.6214821"><ele>108.5</ele><time>2026-05-03T10:33:05.94Z</time></trkpt><trkpt lat="41.9909326" lon="12.6216363"><ele>109.0</ele><time>2026-05-03T10:33:06.961Z</time></trkpt><trkpt lat="41.9909879" lon="12.6217433"><ele>109.0</ele><time>2026-05-03T10:33:07.939Z</time></trkpt><trkpt lat="41.9910493" lon="12.6218518"><ele>109.0</ele><time>2026-05-03T10:33:08.94Z</time></trkpt><trkpt lat="41.9911048" lon="12.6220124"><ele>109.0</ele><time>2026-05-03T10:33:09.943Z</time></trkpt><trkpt lat="41.9911582" lon="12.6221569"><ele>109.0</ele><time>2026-05-03T10:33:10.944Z</time></trkpt><trkpt lat="41.9912058" lon="12.6222934"><ele>107.4</ele><time>2026-05-03T10:33:11.942Z</time></trkpt><trkpt lat="41.9912511" lon="12.6224221"><ele>105.80000000000001</ele><time>2026-05-03T10:33:12.934Z</time></trkpt><trkpt lat="41.991294" lon="12.6225454"><ele>104.19999999999999</ele><time>2026-05-03T10:33:13.939Z</time></trkpt><trkpt lat="41.9913331" lon="12.6226611"><ele>102.6</ele><time>2026-05-03T10:33:14.964Z</time></trkpt><trkpt lat="41.9913696" lon="12.6227592"><ele>101.0</ele><time>2026-05-03T10:33:15.961Z</time></trkpt><trkpt lat="41.9914048" lon="12.6228531"><ele>99.49999999999999</ele><time>2026-05-03T10:33:16.938Z</time></trkpt><trkpt lat="41.9914387" lon="12.622939"><ele>98.0</ele><time>2026-05-03T10:33:17.937Z</time></trkpt><trkpt lat="41.9914649" lon="12.6230407"><ele>96.5</ele><time>2026-05-03T10:33:18.923Z</time></trkpt><trkpt lat="41.991478" lon="12.6231568"><ele>95.0</ele><time>2026-05-03T10:33:19.921Z</time></trkpt><trkpt lat="41.9914756" lon="12.6232586"><ele>93.5</ele><time>2026-05-03T10:33:20.918Z</time></trkpt><trkpt lat="41.9914682" lon="12.6233964"><ele>92.0</ele><time>2026-05-03T10:33:21.924Z</time></trkpt><trkpt lat="41.9913998" lon="12.6234288"><ele>92.0</ele><time>2026-05-03T10:33:22.916Z</time></trkpt><trkpt lat="41.9913235" lon="12.6234204"><ele>92.0</ele><time>2026-05-03T10:33:23.923Z</time></trkpt><trkpt lat="41.9912091" lon="12.6234404"><ele>92.0</ele><time>2026-05-03T10:33:24.93Z</time></trkpt><trkpt lat="41.9910517" lon="12.6234811"><ele>92.0</ele><time>2026-05-03T10:33:25.928Z</time></trkpt><trkpt lat="41.9908891" lon="12.6235431"><ele>90.66666666666667</ele><time>2026-05-03T10:33:26.92Z</time></trkpt><trkpt lat="41.990691" lon="12.6235826"><ele>89.33333333333333</ele><time>2026-05-03T10:33:27.924Z</time></trkpt><trkpt lat="41.9904951" lon="12.6236295"><ele>88.0</ele><time>2026-05-03T10:33:28.922Z</time></trkpt><trkpt lat="41.9903679" lon="12.6236436"><ele>88.0</ele><time>2026-05-03T10:33:29.919Z</time></trkpt><trkpt lat="41.9902587" lon="12.6236794"><ele>88.0</ele><time>2026-05-03T10:33:30.92Z</time></trkpt><trkpt lat="41.9901541" lon="12.6236217"><ele>88.0</ele><time>2026-05-03T10:33:32.919Z</time></trkpt><trkpt lat="41.9901609" lon="12.6235015"><ele>88.0</ele><time>2026-05-03T10:33:33.926Z</time></trkpt><trkpt lat="41.9901959" lon="12.6233608"><ele>88.0</ele><time>2026-05-03T10:33:34.961Z</time></trkpt><trkpt lat="41.9902465" lon="12.6232381"><ele>88.0</ele><time>2026-05-03T10:33:35.972Z</time></trkpt><trkpt lat="41.9903475" lon="12.6231522"><ele>88.0</ele><time>2026-05-03T10:33:36.971Z</time></trkpt><trkpt lat="41.9904731" lon="12.6230953"><ele>88.0</ele><time>2026-05-03T10:33:37.935Z</time></trkpt><trkpt lat="41.9906197" lon="12.6230575"><ele>88.0</ele><time>2026-05-03T10:33:38.922Z</time></trkpt><trkpt lat="41.990743" lon="12.6230213"><ele>89.0</ele><time>2026-05-03T10:33:39.928Z</time></trkpt><trkpt lat="41.9908717" lon="12.6229942"><ele>90.0</ele><time>2026-05-03T10:33:40.933Z</time></trkpt><trkpt lat="41.9909954" lon="12.6229791"><ele>91.0</ele><time>2026-05-03T10:33:41.924Z</time></trkpt><trkpt lat="41.9911264" lon="12.6229777"><ele>92.0</ele><time>2026-05-03T10:33:42.937Z</time></trkpt><trkpt lat="41.9912539" lon="12.6229896"><ele>92.0</ele><time>2026-05-03T10:33:43.925Z</time></trkpt><trkpt lat="41.9913967" lon="12.6230085"><ele>92.0</ele><time>2026-05-03T10:33:44.931Z</time></trkpt><trkpt lat="41.9915655" lon="12.62304"><ele>92.0</ele><time>2026-05-03T10:33:45.931Z</time></trkpt><trkpt lat="41.9918163" lon="12.623129"><ele>95.5</ele><time>2026-05-03T10:33:46.935Z</time></trkpt><trkpt lat="41.9920732" lon="12.6231935"><ele>99.0</ele><time>2026-05-03T10:33:47.94Z</time></trkpt><trkpt lat="41.9922853" lon="12.6232725"><ele>101.0</ele><time>2026-05-03T10:33:48.936Z</time></trkpt><trkpt lat="41.9925165" lon="12.6233493"><ele>103.0</ele><time>2026-05-03T10:33:49.928Z</time></trkpt><trkpt lat="41.992741" lon="12.6234345"><ele>103.0</ele><time>2026-05-03T10:33:50.947Z</time></trkpt><trkpt lat="41.9929598" lon="12.6235554"><ele>103.0</ele><time>2026-05-03T10:33:51.928Z</time></trkpt><trkpt lat="41.9931489" lon="12.62368"><ele>103.0</ele><time>2026-05-03T10:33:52.93Z</time></trkpt><trkpt lat="41.9933225" lon="12.6238044"><ele>106.0</ele><time>2026-05-03T10:33:53.932Z</time></trkpt><trkpt lat="41.993491" lon="12.6239478"><ele>109.0</ele><time>2026-05-03T10:33:54.931Z</time></trkpt><trkpt lat="41.9936824" lon="12.6240962"><ele>112.0</ele><time>2026-05-03T10:33:55.929Z</time></trkpt><trkpt lat="41.993825" lon="12.6242806"><ele>115.0</ele><time>2026-05-03T10:33:56.957Z</time></trkpt><trkpt lat="41.9939488" lon="12.6244812"><ele>118.0</ele><time>2026-05-03T10:33:57.928Z</time></trkpt><trkpt lat="41.994057" lon="12.6246907"><ele>121.0</ele><time>2026-05-03T10:33:58.936Z</time></trkpt><trkpt lat="41.9941388" lon="12.6249072"><ele>121.0</ele><time>2026-05-03T10:33:59.925Z</time></trkpt><trkpt lat="41.9942201" lon="12.6251456"><ele>121.0</ele><time>2026-05-03T10:34:00.932Z</time></trkpt><trkpt lat="41.9942919" lon="12.6254086"><ele>121.0</ele><time>2026-05-03T10:34:01.929Z</time></trkpt><trkpt lat="41.9943785" lon="12.6256704"><ele>123.33333333333334</ele><time>2026-05-03T10:34:02.911Z</time></trkpt><trkpt lat="41.9944493" lon="12.6259595"><ele>125.66666666666666</ele><time>2026-05-03T10:34:03.914Z</time></trkpt><trkpt lat="41.9945246" lon="12.6262238"><ele>128.0</ele><time>2026-05-03T10:34:04.9Z</time></trkpt><trkpt lat="41.9946614" lon="12.6264541"><ele>143.0</ele><time>2026-05-03T10:34:05.888Z</time></trkpt><trkpt lat="41.9971685" lon="12.6258071"><ele>147.0</ele><time>2026-05-03T10:34:17.547Z</time></trkpt><trkpt lat="41.9975077" lon="12.6276978"><ele>139.0</ele><time>2026-05-03T10:34:22.927Z</time></trkpt><trkpt lat="41.9979425" lon="12.6280099"><ele>139.0</ele><time>2026-05-03T10:34:24.929Z</time></trkpt><trkpt lat="41.9981656" lon="12.62815"><ele>139.0</ele><time>2026-05-03T10:34:25.92Z</time></trkpt><trkpt lat="41.9983767" lon="12.6282543"><ele>141.33333333333334</ele><time>2026-05-03T10:34:26.931Z</time></trkpt><trkpt lat="41.9985643" lon="12.6283409"><ele>143.66666666666666</ele><time>2026-05-03T10:34:27.927Z</time></trkpt><trkpt lat="41.9987151" lon="12.6284314"><ele>146.0</ele><time>2026-05-03T10:34:28.925Z</time></trkpt><trkpt lat="41.9988652" lon="12.6284794"><ele>146.0</ele><time>2026-05-03T10:34:29.929Z</time></trkpt><trkpt lat="41.999001" lon="12.6284894"><ele>146.0</ele><time>2026-05-03T10:34:30.917Z</time></trkpt><trkpt lat="41.9991042" lon="12.628514"><ele>146.0</ele><time>2026-05-03T10:34:31.924Z</time></trkpt><trkpt lat="41.9992194" lon="12.6285068"><ele>146.0</ele><time>2026-05-03T10:34:32.936Z</time></trkpt><trkpt lat="41.9993049" lon="12.6285445"><ele>146.0</ele><time>2026-05-03T10:34:33.928Z</time></trkpt><trkpt lat="41.9993857" lon="12.6286107"><ele>147.14285714285714</ele><time>2026-05-03T10:34:35.929Z</time></trkpt><trkpt lat="41.9994387" lon="12.6287185"><ele>148.28571428571428</ele><time>2026-05-03T10:34:38.953Z</time></trkpt><trkpt lat="41.9994793" lon="12.6287947"><ele>149.42857142857144</ele><time>2026-05-03T10:34:40.96Z</time></trkpt><trkpt lat="41.9995085" lon="12.6288863"><ele>150.57142857142856</ele><time>2026-05-03T10:34:42.939Z</time></trkpt><trkpt lat="41.9995742" lon="12.6289334"><ele>151.71428571428572</ele><time>2026-05-03T10:34:43.938Z</time></trkpt><trkpt lat="41.9996364" lon="12.628956"><ele>152.85714285714286</ele><time>2026-05-03T10:34:44.931Z</time></trkpt><trkpt lat="41.9997023" lon="12.6289557"><ele>154.0</ele><time>2026-05-03T10:34:45.939Z</time></trkpt><trkpt lat="41.9998045" lon="12.6289836"><ele>154.0</ele><time>2026-05-03T10:34:47.932Z</time></trkpt><trkpt lat="41.9998633" lon="12.6290574"><ele>154.0</ele><time>2026-05-03T10:34:49.936Z</time></trkpt><trkpt lat="41.9998761" lon="12.62921"><ele>154.0</ele><time>2026-05-03T10:34:51.937Z</time></trkpt><trkpt lat="41.9998851" lon="12.6293064"><ele>154.0</ele><time>2026-05-03T10:34:52.938Z</time></trkpt><trkpt lat="41.9999131" lon="12.6293851"><ele>154.0</ele><time>2026-05-03T10:34:53.934Z</time></trkpt><trkpt lat="41.9999621" lon="12.6294864"><ele>154.0</ele><time>2026-05-03T10:34:55.933Z</time></trkpt><trkpt lat="42.0000203" lon="12.6295467"><ele>154.0</ele><time>2026-05-03T10:34:57.981Z</time></trkpt><trkpt lat="42.0000709" lon="12.629478"><ele>154.0</ele><time>2026-05-03T10:34:59.932Z</time></trkpt><trkpt lat="42.000049" lon="12.629396"><ele>154.0</ele><time>2026-05-03T10:35:00.931Z</time></trkpt><trkpt lat="41.9999903" lon="12.6293156"><ele>154.0</ele><time>2026-05-03T10:35:01.927Z</time></trkpt><trkpt lat="41.9999341" lon="12.6292316"><ele>154.0</ele><time>2026-05-03T10:35:02.934Z</time></trkpt><trkpt lat="41.9998843" lon="12.6291425"><ele>154.0</ele><time>2026-05-03T10:35:03.928Z</time></trkpt><trkpt lat="41.9998507" lon="12.6290236"><ele>154.0</ele><time>2026-05-03T10:35:04.925Z</time></trkpt><trkpt lat="41.9998214" lon="12.6288852"><ele>154.0</ele><time>2026-05-03T10:35:05.919Z</time></trkpt><trkpt lat="41.9997894" lon="12.6287462"><ele>154.0</ele><time>2026-05-03T10:35:06.929Z</time></trkpt><trkpt lat="41.9997669" lon="12.6286267"><ele>154.0</ele><time>2026-05-03T10:35:07.929Z</time></trkpt><trkpt lat="41.9997473" lon="12.6285196"><ele>154.0</ele><time>2026-05-03T10:35:08.927Z</time></trkpt><trkpt lat="41.9997097" lon="12.6284292"><ele>153.66666666666669</ele><time>2026-05-03T10:35:09.929Z</time></trkpt><trkpt lat="41.9996687" lon="12.6283549"><ele>153.33333333333334</ele><time>2026-05-03T10:35:10.922Z</time></trkpt><trkpt lat="41.9996022" lon="12.6283287"><ele>153.0</ele><time>2026-05-03T10:35:11.924Z</time></trkpt><trkpt lat="41.9995233" lon="12.6283206"><ele>152.66666666666666</ele><time>2026-05-03T10:35:12.928Z</time></trkpt><trkpt lat="41.9994541" lon="12.6283448"><ele>152.33333333333331</ele><time>2026-05-03T10:35:13.928Z</time></trkpt><trkpt lat="41.9993757" lon="12.6284675"><ele>152.0</ele><time>2026-05-03T10:35:15.931Z</time></trkpt><trkpt lat="41.9993779" lon="12.6285548"><ele>152.33333333333331</ele><time>2026-05-03T10:35:16.925Z</time></trkpt><trkpt lat="41.9993892" lon="12.6287127"><ele>152.66666666666666</ele><time>2026-05-03T10:35:18.935Z</time></trkpt><trkpt lat="41.9994089" lon="12.6287975"><ele>153.0</ele><time>2026-05-03T10:35:19.93Z</time></trkpt><trkpt lat="41.9994374" lon="12.6288773"><ele>153.33333333333334</ele><time>2026-05-03T10:35:20.935Z</time></trkpt><trkpt lat="41.9994636" lon="12.6289769"><ele>153.66666666666669</ele><time>2026-05-03T10:35:21.936Z</time></trkpt><trkpt lat="41.9994697" lon="12.6290811"><ele>154.0</ele><time>2026-05-03T10:35:22.927Z</time></trkpt><trkpt lat="41.9994713" lon="12.6291803"><ele>154.0</ele><time>2026-05-03T10:35:23.925Z</time></trkpt><trkpt lat="41.9994645" lon="12.6292789"><ele>154.0</ele><time>2026-05-03T10:35:24.929Z</time></trkpt><trkpt lat="41.9994498" lon="12.6293853"><ele>154.0</ele><time>2026-05-03T10:35:25.927Z</time></trkpt><trkpt lat="41.9994278" lon="12.6294956"><ele>154.0</ele><time>2026-05-03T10:35:26.946Z</time></trkpt><trkpt lat="41.9994185" lon="12.6296169"><ele>154.0</ele><time>2026-05-03T10:35:27.924Z</time></trkpt><trkpt lat="41.9994258" lon="12.6297826"><ele>154.0</ele><time>2026-05-03T10:35:28.926Z</time></trkpt><trkpt lat="41.9994472" lon="12.6299833"><ele>154.0</ele><time>2026-05-03T10:35:29.926Z</time></trkpt><trkpt lat="41.9995077" lon="12.6302423"><ele>154.0</ele><time>2026-05-03T10:35:30.93Z</time></trkpt><trkpt lat="41.9995932" lon="12.6304141"><ele>153.5</ele><time>2026-05-03T10:35:31.922Z</time></trkpt><trkpt lat="41.9996827" lon="12.6305165"><ele>153.0</ele><time>2026-05-03T10:35:32.922Z</time></trkpt><trkpt lat="41.9997509" lon="12.6306442"><ele>152.5</ele><time>2026-05-03T10:35:33.925Z</time></trkpt><trkpt lat="41.9998318" lon="12.6307662"><ele>152.0</ele><time>2026-05-03T10:35:34.924Z</time></trkpt><trkpt lat="41.9999241" lon="12.6309114"><ele>152.0</ele><time>2026-05-03T10:35:35.944Z</time></trkpt><trkpt lat="41.9999956" lon="12.6310565"><ele>152.0</ele><time>2026-05-03T10:35:36.93Z</time></trkpt><trkpt lat="42.0000544" lon="12.6311821"><ele>152.0</ele><time>2026-05-03T10:35:37.923Z</time></trkpt><trkpt lat="42.0001102" lon="12.6312756"><ele>152.0</ele><time>2026-05-03T10:35:38.927Z</time></trkpt><trkpt lat="42.0002011" lon="12.6313739"><ele>152.0</ele><time>2026-05-03T10:35:40.946Z</time></trkpt><trkpt lat="42.0002427" lon="12.631444"><ele>150.79999999999998</ele><time>2026-05-03T10:35:41.947Z</time></trkpt><trkpt lat="42.0003196" lon="12.6315669"><ele>149.6</ele><time>2026-05-03T10:35:43.924Z</time></trkpt><trkpt lat="42.0003674" lon="12.6316266"><ele>148.39999999999998</ele><time>2026-05-03T10:35:44.927Z</time></trkpt><trkpt lat="42.000413" lon="12.6316955"><ele>147.2</ele><time>2026-05-03T10:35:45.932Z</time></trkpt><trkpt lat="42.0004753" lon="12.6317905"><ele>146.0</ele><time>2026-05-03T10:35:46.928Z</time></trkpt><trkpt lat="42.0005461" lon="12.6319087"><ele>146.2</ele><time>2026-05-03T10:35:47.934Z</time></trkpt><trkpt lat="42.000622" lon="12.6320371"><ele>146.39999999999998</ele><time>2026-05-03T10:35:48.929Z</time></trkpt><trkpt lat="42.0006999" lon="12.6321516"><ele>146.6</ele><time>2026-05-03T10:35:49.926Z</time></trkpt><trkpt lat="42.0007752" lon="12.6322526"><ele>146.79999999999998</ele><time>2026-05-03T10:35:50.93Z</time></trkpt><trkpt lat="42.0008587" lon="12.6323317"><ele>147.0</ele><time>2026-05-03T10:35:51.931Z</time></trkpt><trkpt lat="42.0009551" lon="12.6323959"><ele>147.0</ele><time>2026-05-03T10:35:52.957Z</time></trkpt><trkpt lat="42.001055" lon="12.6324597"><ele>147.0</ele><time>2026-05-03T10:35:53.953Z</time></trkpt><trkpt lat="42.0011478" lon="12.6325156"><ele>147.0</ele><time>2026-05-03T10:35:54.956Z</time></trkpt><trkpt lat="42.0012364" lon="12.6325594"><ele>147.0</ele><time>2026-05-03T10:35:55.953Z</time></trkpt><trkpt lat="42.0013223" lon="12.6326009"><ele>147.0</ele><time>2026-05-03T10:35:56.956Z</time></trkpt><trkpt lat="42.0014101" lon="12.6326459"><ele>147.0</ele><time>2026-05-03T10:35:57.934Z</time></trkpt><trkpt lat="42.001502" lon="12.6326891"><ele>147.0</ele><time>2026-05-03T10:35:58.933Z</time></trkpt><trkpt lat="42.0015952" lon="12.6327327"><ele>147.0</ele><time>2026-05-03T10:35:59.929Z</time></trkpt><trkpt lat="42.0016872" lon="12.6327813"><ele>147.0</ele><time>2026-05-03T10:36:00.93Z</time></trkpt><trkpt lat="42.0017803" lon="12.6328376"><ele>147.0</ele><time>2026-05-03T10:36:01.926Z</time></trkpt><trkpt lat="42.0018795" lon="12.6328973"><ele>147.25</ele><time>2026-05-03T10:36:02.928Z</time></trkpt><trkpt lat="42.0019919" lon="12.6329573"><ele>147.5</ele><time>2026-05-03T10:36:03.923Z</time></trkpt><trkpt lat="42.0021247" lon="12.6330038"><ele>147.75</ele><time>2026-05-03T10:36:04.926Z</time></trkpt><trkpt lat="42.0022678" lon="12.6330618"><ele>148.0</ele><time>2026-05-03T10:36:05.927Z</time></trkpt><trkpt lat="42.0024224" lon="12.6331542"><ele>147.0</ele><time>2026-05-03T10:36:06.935Z</time></trkpt><trkpt lat="42.0025757" lon="12.6332233"><ele>146.0</ele><time>2026-05-03T10:36:07.929Z</time></trkpt><trkpt lat="42.0027471" lon="12.6332958"><ele>145.0</ele><time>2026-05-03T10:36:08.936Z</time></trkpt><trkpt lat="42.0029062" lon="12.6333222"><ele>145.0</ele><time>2026-05-03T10:36:09.926Z</time></trkpt><trkpt lat="42.0030514" lon="12.6333684"><ele>145.0</ele><time>2026-05-03T10:36:10.929Z</time></trkpt><trkpt lat="42.0031674" lon="12.6334131"><ele>145.0</ele><time>2026-05-03T10:36:11.937Z</time></trkpt><trkpt lat="42.003279" lon="12.6334858"><ele>145.0</ele><time>2026-05-03T10:36:12.934Z</time></trkpt><trkpt lat="42.0033927" lon="12.6335668"><ele>146.75</ele><time>2026-05-03T10:36:13.939Z</time></trkpt><trkpt lat="42.0034945" lon="12.6336511"><ele>148.5</ele><time>2026-05-03T10:36:14.932Z</time></trkpt><trkpt lat="42.0036144" lon="12.6337393"><ele>150.25</ele><time>2026-05-03T10:36:15.926Z</time></trkpt><trkpt lat="42.0037146" lon="12.6338109"><ele>152.0</ele><time>2026-05-03T10:36:16.917Z</time></trkpt><trkpt lat="42.0038127" lon="12.6338839"><ele>152.0</ele><time>2026-05-03T10:36:17.937Z</time></trkpt><trkpt lat="42.003905" lon="12.6339376"><ele>152.0</ele><time>2026-05-03T10:36:18.923Z</time></trkpt><trkpt lat="42.0040194" lon="12.6339792"><ele>152.0</ele><time>2026-05-03T10:36:19.938Z</time></trkpt><trkpt lat="42.0041512" lon="12.634008"><ele>152.0</ele><time>2026-05-03T10:36:20.952Z</time></trkpt><trkpt lat="42.0043334" lon="12.6340035"><ele>150.33333333333331</ele><time>2026-05-03T10:36:21.944Z</time></trkpt><trkpt lat="42.0045193" lon="12.6340167"><ele>148.66666666666666</ele><time>2026-05-03T10:36:22.919Z</time></trkpt><trkpt lat="42.0046675" lon="12.6340249"><ele>147.0</ele><time>2026-05-03T10:36:23.93Z</time></trkpt><trkpt lat="42.0047995" lon="12.6340479"><ele>147.0</ele><time>2026-05-03T10:36:24.921Z</time></trkpt><trkpt lat="42.0049436" lon="12.634094"><ele>147.0</ele><time>2026-05-03T10:36:25.931Z</time></trkpt><trkpt lat="42.0050941" lon="12.6341535"><ele>147.0</ele><time>2026-05-03T10:36:26.931Z</time></trkpt><trkpt lat="42.0052249" lon="12.6342159"><ele>147.0</ele><time>2026-05-03T10:36:27.924Z</time></trkpt><trkpt lat="42.0053521" lon="12.6342735"><ele>147.75</ele><time>2026-05-03T10:36:28.929Z</time></trkpt><trkpt lat="42.0054473" lon="12.6343122"><ele>148.5</ele><time>2026-05-03T10:36:29.924Z</time></trkpt><trkpt lat="42.0055452" lon="12.6343599"><ele>149.25</ele><time>2026-05-03T10:36:30.928Z</time></trkpt><trkpt lat="42.0056533" lon="12.6344051"><ele>150.0</ele><time>2026-05-03T10:36:31.923Z</time></trkpt><trkpt lat="42.0057919" lon="12.6344684"><ele>152.0</ele><time>2026-05-03T10:36:32.922Z</time></trkpt><trkpt lat="42.0059154" lon="12.6345688"><ele>154.0</ele><time>2026-05-03T10:36:33.928Z</time></trkpt><trkpt lat="42.0060412" lon="12.6346254"><ele>156.0</ele><time>2026-05-03T10:36:34.922Z</time></trkpt><trkpt lat="42.0061597" lon="12.6346777"><ele>158.0</ele><time>2026-05-03T10:36:35.928Z</time></trkpt><trkpt lat="42.0062742" lon="12.634727"><ele>158.0</ele><time>2026-05-03T10:36:36.926Z</time></trkpt><trkpt lat="42.006387" lon="12.634764"><ele>158.0</ele><time>2026-05-03T10:36:37.929Z</time></trkpt><trkpt lat="42.006498" lon="12.6347903"><ele>158.0</ele><time>2026-05-03T10:36:38.934Z</time></trkpt><trkpt lat="42.0066077" lon="12.634818"><ele>158.0</ele><time>2026-05-03T10:36:39.926Z</time></trkpt><trkpt lat="42.0067211" lon="12.6348497"><ele>157.0</ele><time>2026-05-03T10:36:40.932Z</time></trkpt><trkpt lat="42.0068385" lon="12.6348882"><ele>156.0</ele><time>2026-05-03T10:36:41.936Z</time></trkpt><trkpt lat="42.0069565" lon="12.6349362"><ele>155.0</ele><time>2026-05-03T10:36:42.925Z</time></trkpt><trkpt lat="42.007078" lon="12.6349873"><ele>154.0</ele><time>2026-05-03T10:36:43.938Z</time></trkpt><trkpt lat="42.0071997" lon="12.6350414"><ele>154.0</ele><time>2026-05-03T10:36:44.934Z</time></trkpt><trkpt lat="42.0073079" lon="12.6350973"><ele>154.0</ele><time>2026-05-03T10:36:45.932Z</time></trkpt><trkpt lat="42.0074087" lon="12.6351558"><ele>154.0</ele><time>2026-05-03T10:36:46.935Z</time></trkpt><trkpt lat="42.0075019" lon="12.6352108"><ele>154.0</ele><time>2026-05-03T10:36:47.934Z</time></trkpt><trkpt lat="42.0075815" lon="12.6352611"><ele>154.0</ele><time>2026-05-03T10:36:48.937Z</time></trkpt><trkpt lat="42.0076486" lon="12.6353028"><ele>152.5</ele><time>2026-05-03T10:36:49.935Z</time></trkpt><trkpt lat="42.0077213" lon="12.6353604"><ele>151.0</ele><time>2026-05-03T10:36:50.942Z</time></trkpt><trkpt lat="42.0077897" lon="12.6354104"><ele>149.5</ele><time>2026-05-03T10:36:51.932Z</time></trkpt><trkpt lat="42.0078906" lon="12.6354837"><ele>148.0</ele><time>2026-05-03T10:36:53.945Z</time></trkpt><trkpt lat="42.0079499" lon="12.6355309"><ele>146.5</ele><time>2026-05-03T10:36:54.93Z</time></trkpt><trkpt lat="42.0080413" lon="12.6355903"><ele>145.0</ele><time>2026-05-03T10:36:55.93Z</time></trkpt><trkpt lat="42.0081478" lon="12.6356503"><ele>145.0</ele><time>2026-05-03T10:36:56.934Z</time></trkpt><trkpt lat="42.0082722" lon="12.6357044"><ele>145.0</ele><time>2026-05-03T10:36:57.921Z</time></trkpt><trkpt lat="42.0084096" lon="12.6357585"><ele>145.0</ele><time>2026-05-03T10:36:58.924Z</time></trkpt><trkpt lat="42.0085421" lon="12.6358135"><ele>145.0</ele><time>2026-05-03T10:36:59.934Z</time></trkpt><trkpt lat="42.00868" lon="12.6358749"><ele>146.0</ele><time>2026-05-03T10:37:00.928Z</time></trkpt><trkpt lat="42.008824" lon="12.6359234"><ele>147.0</ele><time>2026-05-03T10:37:01.932Z</time></trkpt><trkpt lat="42.0089575" lon="12.635968"><ele>148.0</ele><time>2026-05-03T10:37:02.924Z</time></trkpt><trkpt lat="42.0090764" lon="12.6360178"><ele>149.0</ele><time>2026-05-03T10:37:03.929Z</time></trkpt><trkpt lat="42.0091829" lon="12.6360741"><ele>148.0</ele><time>2026-05-03T10:37:04.95Z</time></trkpt><trkpt lat="42.0092802" lon="12.636145"><ele>147.0</ele><time>2026-05-03T10:37:05.941Z</time></trkpt><trkpt lat="42.0093794" lon="12.6362358"><ele>146.0</ele><time>2026-05-03T10:37:06.928Z</time></trkpt><trkpt lat="42.0094755" lon="12.6363442"><ele>145.0</ele><time>2026-05-03T10:37:07.955Z</time></trkpt><trkpt lat="42.0095586" lon="12.6364481"><ele>145.0</ele><time>2026-05-03T10:37:08.926Z</time></trkpt><trkpt lat="42.0096329" lon="12.6365514"><ele>145.0</ele><time>2026-05-03T10:37:09.934Z</time></trkpt><trkpt lat="42.0096977" lon="12.6366503"><ele>145.0</ele><time>2026-05-03T10:37:10.939Z</time></trkpt><trkpt lat="42.0097612" lon="12.6367513"><ele>145.0</ele><time>2026-05-03T10:37:11.935Z</time></trkpt><trkpt lat="42.0098248" lon="12.6368563"><ele>145.0</ele><time>2026-05-03T10:37:12.941Z</time></trkpt><trkpt lat="42.0099018" lon="12.6369647"><ele>145.2</ele><time>2026-05-03T10:37:13.938Z</time></trkpt><trkpt lat="42.0099764" lon="12.6370717"><ele>145.4</ele><time>2026-05-03T10:37:14.935Z</time></trkpt><trkpt lat="42.01005" lon="12.637165"><ele>145.6</ele><time>2026-05-03T10:37:15.928Z</time></trkpt><trkpt lat="42.0101149" lon="12.637255"><ele>145.8</ele><time>2026-05-03T10:37:16.933Z</time></trkpt><trkpt lat="42.0101721" lon="12.6373514"><ele>146.0</ele><time>2026-05-03T10:37:17.934Z</time></trkpt><trkpt lat="42.010243" lon="12.6374643"><ele>146.0</ele><time>2026-05-03T10:37:18.931Z</time></trkpt><trkpt lat="42.0103359" lon="12.6376048"><ele>146.0</ele><time>2026-05-03T10:37:19.931Z</time></trkpt><trkpt lat="42.0104435" lon="12.6377779"><ele>146.0</ele><time>2026-05-03T10:37:20.92Z</time></trkpt><trkpt lat="42.010571" lon="12.63804"><ele>148.33333333333331</ele><time>2026-05-03T10:37:21.926Z</time></trkpt><trkpt lat="42.0106676" lon="12.6382437"><ele>150.66666666666666</ele><time>2026-05-03T10:37:22.93Z</time></trkpt><trkpt lat="42.0107811" lon="12.6383502"><ele>153.0</ele><time>2026-05-03T10:37:23.932Z</time></trkpt><trkpt lat="42.0109251" lon="12.6383934"><ele>153.66666666666666</ele><time>2026-05-03T10:37:24.92Z</time></trkpt><trkpt lat="42.0110804" lon="12.6384043"><ele>154.33333333333331</ele><time>2026-05-03T10:37:25.946Z</time></trkpt><trkpt lat="42.0112501" lon="12.6383935"><ele>155.0</ele><time>2026-05-03T10:37:26.937Z</time></trkpt><trkpt lat="42.0114258" lon="12.6383208"><ele>155.0</ele><time>2026-05-03T10:37:27.922Z</time></trkpt><trkpt lat="42.0116025" lon="12.6382621"><ele>155.0</ele><time>2026-05-03T10:37:28.92Z</time></trkpt><trkpt lat="42.011761" lon="12.6381963"><ele>155.0</ele><time>2026-05-03T10:37:29.919Z</time></trkpt><trkpt lat="42.0119105" lon="12.6381268"><ele>157.25</ele><time>2026-05-03T10:37:30.919Z</time></trkpt><trkpt lat="42.0120294" lon="12.6380475"><ele>159.5</ele><time>2026-05-03T10:37:31.92Z</time></trkpt><trkpt lat="42.0121443" lon="12.6379619"><ele>161.75</ele><time>2026-05-03T10:37:32.915Z</time></trkpt><trkpt lat="42.0122843" lon="12.6379192"><ele>164.0</ele><time>2026-05-03T10:37:33.918Z</time></trkpt><trkpt lat="42.0124453" lon="12.6379278"><ele>167.33333333333331</ele><time>2026-05-03T10:37:34.911Z</time></trkpt><trkpt lat="42.0126056" lon="12.6379482"><ele>170.66666666666666</ele><time>2026-05-03T10:37:35.917Z</time></trkpt><trkpt lat="42.012743" lon="12.6379509"><ele>174.0</ele><time>2026-05-03T10:37:36.922Z</time></trkpt><trkpt lat="42.0129247" lon="12.6380305"><ele>174.0</ele><time>2026-05-03T10:37:37.922Z</time></trkpt><trkpt lat="42.0131267" lon="12.6381532"><ele>174.0</ele><time>2026-05-03T10:37:38.917Z</time></trkpt><trkpt lat="42.0132949" lon="12.6382851"><ele>174.0</ele><time>2026-05-03T10:37:39.919Z</time></trkpt><trkpt lat="42.0134697" lon="12.6384138"><ele>175.66666666666666</ele><time>2026-05-03T10:37:40.927Z</time></trkpt><trkpt lat="42.0136445" lon="12.6385669"><ele>177.33333333333331</ele><time>2026-05-03T10:37:41.919Z</time></trkpt><trkpt lat="42.0137879" lon="12.6387079"><ele>179.0</ele><time>2026-05-03T10:37:42.92Z</time></trkpt><trkpt lat="42.0139252" lon="12.6388406"><ele>180.5</ele><time>2026-05-03T10:37:43.914Z</time></trkpt><trkpt lat="42.0140613" lon="12.6389347"><ele>182.0</ele><time>2026-05-03T10:37:44.913Z</time></trkpt><trkpt lat="42.0141788" lon="12.6390102"><ele>183.5</ele><time>2026-05-03T10:37:46.007Z</time></trkpt><trkpt lat="42.0142768" lon="12.6390928"><ele>185.0</ele><time>2026-05-03T10:37:46.94Z</time></trkpt><trkpt lat="42.0143869" lon="12.639222"><ele>185.0</ele><time>2026-05-03T10:37:47.925Z</time></trkpt><trkpt lat="42.0144842" lon="12.6393785"><ele>185.0</ele><time>2026-05-03T10:37:48.924Z</time></trkpt><trkpt lat="42.0146112" lon="12.6395293"><ele>185.0</ele><time>2026-05-03T10:37:49.924Z</time></trkpt><trkpt lat="42.0147418" lon="12.639684"><ele>184.33333333333331</ele><time>2026-05-03T10:37:50.933Z</time></trkpt><trkpt lat="42.0148826" lon="12.6397881"><ele>183.66666666666666</ele><time>2026-05-03T10:37:51.928Z</time></trkpt><trkpt lat="42.0150145" lon="12.6398587"><ele>183.0</ele><time>2026-05-03T10:37:52.923Z</time></trkpt><trkpt lat="42.0151687" lon="12.6399004"><ele>183.0</ele><time>2026-05-03T10:37:53.933Z</time></trkpt><trkpt lat="42.0153292" lon="12.6398928"><ele>183.0</ele><time>2026-05-03T10:37:54.923Z</time></trkpt><trkpt lat="42.015508" lon="12.6398374"><ele>183.0</ele><time>2026-05-03T10:37:55.915Z</time></trkpt><trkpt lat="42.0156896" lon="12.6397676"><ele>184.66666666666666</ele><time>2026-05-03T10:37:56.915Z</time></trkpt><trkpt lat="42.0158602" lon="12.6396961"><ele>186.33333333333331</ele><time>2026-05-03T10:37:57.922Z</time></trkpt><trkpt lat="42.016009" lon="12.6396053"><ele>188.0</ele><time>2026-05-03T10:37:58.915Z</time></trkpt><trkpt lat="42.0161645" lon="12.6395303"><ele>188.0</ele><time>2026-05-03T10:37:59.922Z</time></trkpt><trkpt lat="42.016332" lon="12.6394806"><ele>188.0</ele><time>2026-05-03T10:38:00.928Z</time></trkpt><trkpt lat="42.016501" lon="12.639446"><ele>188.0</ele><time>2026-05-03T10:38:01.916Z</time></trkpt><trkpt lat="42.0166348" lon="12.6394389"><ele>189.66666666666666</ele><time>2026-05-03T10:38:02.925Z</time></trkpt><trkpt lat="42.0167883" lon="12.6394749"><ele>191.33333333333331</ele><time>2026-05-03T10:38:03.913Z</time></trkpt><trkpt lat="42.0169354" lon="12.639551"><ele>193.0</ele><time>2026-05-03T10:38:04.994Z</time></trkpt><trkpt lat="42.0170754" lon="12.6396262"><ele>193.0</ele><time>2026-05-03T10:38:05.917Z</time></trkpt><trkpt lat="42.0172176" lon="12.6397098"><ele>193.0</ele><time>2026-05-03T10:38:06.904Z</time></trkpt><trkpt lat="42.0173868" lon="12.6397792"><ele>193.0</ele><time>2026-05-03T10:38:08.073Z</time></trkpt><trkpt lat="42.0175253" lon="12.6398398"><ele>188.5</ele><time>2026-05-03T10:38:09.154Z</time></trkpt><trkpt lat="42.0178288" lon="12.6401455"><ele>184.0</ele><time>2026-05-03T10:38:10.912Z</time></trkpt><trkpt lat="42.0179225" lon="12.6402894"><ele>183.66666666666669</ele><time>2026-05-03T10:38:11.912Z</time></trkpt><trkpt lat="42.018024" lon="12.6405144"><ele>183.33333333333334</ele><time>2026-05-03T10:38:12.912Z</time></trkpt><trkpt lat="42.018136" lon="12.6407372"><ele>183.0</ele><time>2026-05-03T10:38:13.913Z</time></trkpt><trkpt lat="42.018254" lon="12.6408873"><ele>176.66666666666666</ele><time>2026-05-03T10:38:14.912Z</time></trkpt><trkpt lat="42.0183971" lon="12.6411164"><ele>170.33333333333331</ele><time>2026-05-03T10:38:15.913Z</time></trkpt><trkpt lat="42.0185247" lon="12.6413197"><ele>164.0</ele><time>2026-05-03T10:38:16.975Z</time></trkpt><trkpt lat="42.0186475" lon="12.6415111"><ele>162.33333333333331</ele><time>2026-05-03T10:38:17.928Z</time></trkpt><trkpt lat="42.0187911" lon="12.6417232"><ele>160.66666666666666</ele><time>2026-05-03T10:38:18.924Z</time></trkpt><trkpt lat="42.0189399" lon="12.64194"><ele>159.0</ele><time>2026-05-03T10:38:19.924Z</time></trkpt><trkpt lat="42.0191454" lon="12.6421633"><ele>159.33333333333334</ele><time>2026-05-03T10:38:20.92Z</time></trkpt><trkpt lat="42.0192833" lon="12.6423793"><ele>159.66666666666669</ele><time>2026-05-03T10:38:21.923Z</time></trkpt><trkpt lat="42.0194284" lon="12.642496"><ele>160.0</ele><time>2026-05-03T10:38:22.956Z</time></trkpt><trkpt lat="42.0195775" lon="12.6426251"><ele>160.0</ele><time>2026-05-03T10:38:23.953Z</time></trkpt><trkpt lat="42.0197452" lon="12.6427473"><ele>160.0</ele><time>2026-05-03T10:38:24.972Z</time></trkpt><trkpt lat="42.0199276" lon="12.6428597"><ele>160.0</ele><time>2026-05-03T10:38:25.969Z</time></trkpt><trkpt lat="42.0200982" lon="12.6429934"><ele>164.66666666666669</ele><time>2026-05-03T10:38:26.933Z</time></trkpt><trkpt lat="42.0202897" lon="12.6431364"><ele>169.33333333333334</ele><time>2026-05-03T10:38:27.926Z</time></trkpt><trkpt lat="42.0204429" lon="12.6432866"><ele>174.0</ele><time>2026-05-03T10:38:28.925Z</time></trkpt><trkpt lat="42.0205881" lon="12.6434159"><ele>174.0</ele><time>2026-05-03T10:38:29.915Z</time></trkpt><trkpt lat="42.0207329" lon="12.643503"><ele>174.0</ele><time>2026-05-03T10:38:30.916Z</time></trkpt><trkpt lat="42.0208442" lon="12.6436073"><ele>174.0</ele><time>2026-05-03T10:38:31.913Z</time></trkpt><trkpt lat="42.0209286" lon="12.6437217"><ele>174.0</ele><time>2026-05-03T10:38:32.909Z</time></trkpt><trkpt lat="42.020991" lon="12.6438373"><ele>176.33333333333334</ele><time>2026-05-03T10:38:33.932Z</time></trkpt><trkpt lat="42.0210756" lon="12.6439994"><ele>178.66666666666669</ele><time>2026-05-03T10:38:34.914Z</time></trkpt><trkpt lat="42.0211464" lon="12.6441929"><ele>181.0</ele><time>2026-05-03T10:38:35.94Z</time></trkpt><trkpt lat="42.0211579" lon="12.6444322"><ele>182.66666666666669</ele><time>2026-05-03T10:38:36.923Z</time></trkpt><trkpt lat="42.0212068" lon="12.6446243"><ele>184.33333333333334</ele><time>2026-05-03T10:38:37.923Z</time></trkpt><trkpt lat="42.0212684" lon="12.644828"><ele>186.0</ele><time>2026-05-03T10:38:38.927Z</time></trkpt><trkpt lat="42.021328" lon="12.6450491"><ele>186.0</ele><time>2026-05-03T10:38:39.932Z</time></trkpt><trkpt lat="42.0213735" lon="12.6452827"><ele>186.0</ele><time>2026-05-03T10:38:40.927Z</time></trkpt><trkpt lat="42.0214372" lon="12.6454839"><ele>186.0</ele><time>2026-05-03T10:38:41.93Z</time></trkpt><trkpt lat="42.0214835" lon="12.6456609"><ele>187.33333333333334</ele><time>2026-05-03T10:38:42.919Z</time></trkpt><trkpt lat="42.0215119" lon="12.6458538"><ele>188.66666666666669</ele><time>2026-05-03T10:38:43.927Z</time></trkpt><trkpt lat="42.0215679" lon="12.6460408"><ele>190.0</ele><time>2026-05-03T10:38:44.928Z</time></trkpt><trkpt lat="42.0216136" lon="12.6462496"><ele>189.75</ele><time>2026-05-03T10:38:45.926Z</time></trkpt><trkpt lat="42.0216818" lon="12.6464423"><ele>189.5</ele><time>2026-05-03T10:38:46.928Z</time></trkpt><trkpt lat="42.0217708" lon="12.6465792"><ele>189.25</ele><time>2026-05-03T10:38:47.953Z</time></trkpt><trkpt lat="42.021853" lon="12.6467225"><ele>189.0</ele><time>2026-05-03T10:38:48.927Z</time></trkpt><trkpt lat="42.0219051" lon="12.6468753"><ele>189.0</ele><time>2026-05-03T10:38:49.927Z</time></trkpt><trkpt lat="42.0219636" lon="12.6470237"><ele>189.0</ele><time>2026-05-03T10:38:50.936Z</time></trkpt><trkpt lat="42.0220263" lon="12.6471535"><ele>189.0</ele><time>2026-05-03T10:38:51.929Z</time></trkpt><trkpt lat="42.0220894" lon="12.6472879"><ele>189.0</ele><time>2026-05-03T10:38:52.928Z</time></trkpt><trkpt lat="42.0221597" lon="12.6473854"><ele>189.0</ele><time>2026-05-03T10:38:53.929Z</time></trkpt><trkpt lat="42.0222328" lon="12.6474639"><ele>189.0</ele><time>2026-05-03T10:38:54.932Z</time></trkpt><trkpt lat="42.0222878" lon="12.6475288"><ele>189.0</ele><time>2026-05-03T10:38:55.927Z</time></trkpt><trkpt lat="42.0223622" lon="12.6476343"><ele>189.0</ele><time>2026-05-03T10:38:57.921Z</time></trkpt><trkpt lat="42.0224537" lon="12.6477339"><ele>189.0</ele><time>2026-05-03T10:38:59.951Z</time></trkpt><trkpt lat="42.0225227" lon="12.6477961"><ele>191.5</ele><time>2026-05-03T10:39:00.947Z</time></trkpt><trkpt lat="42.0226179" lon="12.6478857"><ele>194.0</ele><time>2026-05-03T10:39:01.932Z</time></trkpt><trkpt lat="42.0227484" lon="12.6480098"><ele>196.5</ele><time>2026-05-03T10:39:02.917Z</time></trkpt><trkpt lat="42.0228997" lon="12.6481058"><ele>199.0</ele><time>2026-05-03T10:39:03.965Z</time></trkpt><trkpt lat="42.0230233" lon="12.6482576"><ele>199.0</ele><time>2026-05-03T10:39:04.929Z</time></trkpt><trkpt lat="42.0231763" lon="12.6483605"><ele>199.0</ele><time>2026-05-03T10:39:05.95Z</time></trkpt><trkpt lat="42.0233098" lon="12.6484487"><ele>199.0</ele><time>2026-05-03T10:39:06.945Z</time></trkpt><trkpt lat="42.0234303" lon="12.6485785"><ele>199.5</ele><time>2026-05-03T10:39:07.924Z</time></trkpt><trkpt lat="42.0235297" lon="12.6486927"><ele>200.0</ele><time>2026-05-03T10:39:08.951Z</time></trkpt><trkpt lat="42.0236602" lon="12.6487879"><ele>200.5</ele><time>2026-05-03T10:39:09.95Z</time></trkpt><trkpt lat="42.0237965" lon="12.648881"><ele>201.0</ele><time>2026-05-03T10:39:10.948Z</time></trkpt><trkpt lat="42.0239169" lon="12.6489646"><ele>201.0</ele><time>2026-05-03T10:39:11.957Z</time></trkpt><trkpt lat="42.0240168" lon="12.6490294"><ele>201.0</ele><time>2026-05-03T10:39:12.933Z</time></trkpt><trkpt lat="42.0241043" lon="12.649102"><ele>201.0</ele><time>2026-05-03T10:39:13.922Z</time></trkpt><trkpt lat="42.0242125" lon="12.649149"><ele>201.0</ele><time>2026-05-03T10:39:14.941Z</time></trkpt><trkpt lat="42.0243293" lon="12.6491724"><ele>201.0</ele><time>2026-05-03T10:39:15.945Z</time></trkpt><trkpt lat="42.0244553" lon="12.6491918"><ele>200.0</ele><time>2026-05-03T10:39:16.923Z</time></trkpt><trkpt lat="42.0245789" lon="12.6492024"><ele>199.0</ele><time>2026-05-03T10:39:17.924Z</time></trkpt><trkpt lat="42.0247063" lon="12.6491768"><ele>198.0</ele><time>2026-05-03T10:39:18.931Z</time></trkpt><trkpt lat="42.0248159" lon="12.6491196"><ele>197.0</ele><time>2026-05-03T10:39:19.941Z</time></trkpt><trkpt lat="42.0249208" lon="12.6490575"><ele>196.5</ele><time>2026-05-03T10:39:20.952Z</time></trkpt><trkpt lat="42.025025" lon="12.648997"><ele>196.0</ele><time>2026-05-03T10:39:21.928Z</time></trkpt><trkpt lat="42.0251421" lon="12.6489329"><ele>195.5</ele><time>2026-05-03T10:39:22.937Z</time></trkpt><trkpt lat="42.0252636" lon="12.6488592"><ele>195.0</ele><time>2026-05-03T10:39:23.935Z</time></trkpt><trkpt lat="42.0253792" lon="12.6487878"><ele>195.0</ele><time>2026-05-03T10:39:24.933Z</time></trkpt><trkpt lat="42.0254929" lon="12.6487376"><ele>195.0</ele><time>2026-05-03T10:39:25.926Z</time></trkpt><trkpt lat="42.025614" lon="12.6486988"><ele>195.0</ele><time>2026-05-03T10:39:26.923Z</time></trkpt><trkpt lat="42.025737" lon="12.6487004"><ele>195.0</ele><time>2026-05-03T10:39:27.926Z</time></trkpt><trkpt lat="42.0258595" lon="12.6487397"><ele>194.5</ele><time>2026-05-03T10:39:28.934Z</time></trkpt><trkpt lat="42.0259819" lon="12.6487778"><ele>194.0</ele><time>2026-05-03T10:39:29.925Z</time></trkpt><trkpt lat="42.0261019" lon="12.6488025"><ele>193.5</ele><time>2026-05-03T10:39:30.934Z</time></trkpt><trkpt lat="42.0262137" lon="12.6488166"><ele>193.0</ele><time>2026-05-03T10:39:31.927Z</time></trkpt><trkpt lat="42.026318" lon="12.6488292"><ele>192.99999999999997</ele><time>2026-05-03T10:39:32.937Z</time></trkpt><trkpt lat="42.0264135" lon="12.6488349"><ele>193.0</ele><time>2026-05-03T10:39:33.937Z</time></trkpt><trkpt lat="42.0265087" lon="12.6488319"><ele>193.0</ele><time>2026-05-03T10:39:34.928Z</time></trkpt><trkpt lat="42.0265977" lon="12.6488219"><ele>193.0</ele><time>2026-05-03T10:39:35.952Z</time></trkpt><trkpt lat="42.0266819" lon="12.648795"><ele>192.99999999999997</ele><time>2026-05-03T10:39:36.937Z</time></trkpt><trkpt lat="42.0267473" lon="12.6487617"><ele>193.0</ele><time>2026-05-03T10:39:37.927Z</time></trkpt><trkpt lat="42.0268082" lon="12.6487206"><ele>192.99999999999997</ele><time>2026-05-03T10:39:38.935Z</time></trkpt><trkpt lat="42.0268703" lon="12.6486688"><ele>193.0</ele><time>2026-05-03T10:39:39.931Z</time></trkpt><trkpt lat="42.0269419" lon="12.6485926"><ele>193.0</ele><time>2026-05-03T10:39:40.926Z</time></trkpt><trkpt lat="42.0270123" lon="12.6485101"><ele>193.0</ele><time>2026-05-03T10:39:41.935Z</time></trkpt><trkpt lat="42.0270855" lon="12.6484348"><ele>192.99999999999997</ele><time>2026-05-03T10:39:42.931Z</time></trkpt><trkpt lat="42.0271584" lon="12.648346"><ele>193.0</ele><time>2026-05-03T10:39:43.92Z</time></trkpt><trkpt lat="42.0272241" lon="12.6482605"><ele>193.0</ele><time>2026-05-03T10:39:44.924Z</time></trkpt><trkpt lat="42.0272807" lon="12.6481822"><ele>193.0</ele><time>2026-05-03T10:39:45.922Z</time></trkpt><trkpt lat="42.0273317" lon="12.6481078"><ele>193.0</ele><time>2026-05-03T10:39:46.933Z</time></trkpt><trkpt lat="42.0274091" lon="12.6479751"><ele>193.0</ele><time>2026-05-03T10:39:48.93Z</time></trkpt><trkpt lat="42.0274523" lon="12.6479095"><ele>193.0</ele><time>2026-05-03T10:39:49.924Z</time></trkpt><trkpt lat="42.0275296" lon="12.6477932"><ele>193.2</ele><time>2026-05-03T10:39:51.925Z</time></trkpt><trkpt lat="42.0276002" lon="12.6476703"><ele>193.4</ele><time>2026-05-03T10:39:53.931Z</time></trkpt><trkpt lat="42.0276508" lon="12.6475831"><ele>193.6</ele><time>2026-05-03T10:39:54.925Z</time></trkpt><trkpt lat="42.0277102" lon="12.6474757"><ele>193.79999999999998</ele><time>2026-05-03T10:39:55.923Z</time></trkpt><trkpt lat="42.0277948" lon="12.6473643"><ele>194.0</ele><time>2026-05-03T10:39:56.926Z</time></trkpt><trkpt lat="42.0278916" lon="12.6472599"><ele>194.0</ele><time>2026-05-03T10:39:57.936Z</time></trkpt><trkpt lat="42.0279641" lon="12.6471769"><ele>194.0</ele><time>2026-05-03T10:39:58.931Z</time></trkpt><trkpt lat="42.0280225" lon="12.6470954"><ele>194.0</ele><time>2026-05-03T10:39:59.931Z</time></trkpt><trkpt lat="42.028087" lon="12.6470033"><ele>194.0</ele><time>2026-05-03T10:40:00.935Z</time></trkpt><trkpt lat="42.0281527" lon="12.646921"><ele>194.0</ele><time>2026-05-03T10:40:01.952Z</time></trkpt><trkpt lat="42.0282315" lon="12.6468345"><ele>194.39999999999998</ele><time>2026-05-03T10:40:02.924Z</time></trkpt><trkpt lat="42.0283251" lon="12.6467643"><ele>194.8</ele><time>2026-05-03T10:40:03.953Z</time></trkpt><trkpt lat="42.0284002" lon="12.6466939"><ele>195.2</ele><time>2026-05-03T10:40:04.932Z</time></trkpt><trkpt lat="42.0284968" lon="12.6466157"><ele>195.60000000000002</ele><time>2026-05-03T10:40:05.916Z</time></trkpt><trkpt lat="42.0286121" lon="12.6465467"><ele>196.0</ele><time>2026-05-03T10:40:06.926Z</time></trkpt><trkpt lat="42.0287207" lon="12.6464693"><ele>196.0</ele><time>2026-05-03T10:40:07.924Z</time></trkpt><trkpt lat="42.0288255" lon="12.6463923"><ele>196.0</ele><time>2026-05-03T10:40:08.927Z</time></trkpt><trkpt lat="42.0289223" lon="12.6463146"><ele>196.0</ele><time>2026-05-03T10:40:09.931Z</time></trkpt><trkpt lat="42.0290298" lon="12.6462407"><ele>196.0</ele><time>2026-05-03T10:40:10.933Z</time></trkpt><trkpt lat="42.0291466" lon="12.6461743"><ele>193.75</ele><time>2026-05-03T10:40:11.928Z</time></trkpt><trkpt lat="42.0292736" lon="12.6461177"><ele>191.5</ele><time>2026-05-03T10:40:12.934Z</time></trkpt><trkpt lat="42.0294146" lon="12.6460848"><ele>189.25</ele><time>2026-05-03T10:40:13.922Z</time></trkpt><trkpt lat="42.0295532" lon="12.6460642"><ele>187.0</ele><time>2026-05-03T10:40:14.929Z</time></trkpt><trkpt lat="42.0296825" lon="12.6460456"><ele>187.0</ele><time>2026-05-03T10:40:15.928Z</time></trkpt><trkpt lat="42.0298027" lon="12.6460228"><ele>187.0</ele><time>2026-05-03T10:40:16.927Z</time></trkpt><trkpt lat="42.0299098" lon="12.6459923"><ele>187.0</ele><time>2026-05-03T10:40:17.928Z</time></trkpt><trkpt lat="42.0300107" lon="12.6459629"><ele>187.0</ele><time>2026-05-03T10:40:18.925Z</time></trkpt><trkpt lat="42.0301051" lon="12.6459305"><ele>187.0</ele><time>2026-05-03T10:40:19.924Z</time></trkpt><trkpt lat="42.0301958" lon="12.6458871"><ele>186.25</ele><time>2026-05-03T10:40:20.93Z</time></trkpt><trkpt lat="42.0302856" lon="12.6458312"><ele>185.5</ele><time>2026-05-03T10:40:21.933Z</time></trkpt><trkpt lat="42.0303929" lon="12.6457585"><ele>184.75</ele><time>2026-05-03T10:40:22.929Z</time></trkpt><trkpt lat="42.030508" lon="12.6456729"><ele>184.0</ele><time>2026-05-03T10:40:23.936Z</time></trkpt><trkpt lat="42.0306275" lon="12.6455669"><ele>184.0</ele><time>2026-05-03T10:40:24.935Z</time></trkpt><trkpt lat="42.0307588" lon="12.6454157"><ele>184.0</ele><time>2026-05-03T10:40:25.927Z</time></trkpt><trkpt lat="42.0309034" lon="12.6452356"><ele>184.0</ele><time>2026-05-03T10:40:26.939Z</time></trkpt><trkpt lat="42.0310404" lon="12.6450723"><ele>181.0</ele><time>2026-05-03T10:40:27.938Z</time></trkpt><trkpt lat="42.0311662" lon="12.6449499"><ele>178.0</ele><time>2026-05-03T10:40:28.962Z</time></trkpt><trkpt lat="42.0312829" lon="12.6448437"><ele>175.0</ele><time>2026-05-03T10:40:29.955Z</time></trkpt><trkpt lat="42.0313885" lon="12.6447309"><ele>172.0</ele><time>2026-05-03T10:40:30.936Z</time></trkpt><trkpt lat="42.031498" lon="12.6446323"><ele>172.0</ele><time>2026-05-03T10:40:31.934Z</time></trkpt><trkpt lat="42.0315916" lon="12.6445922"><ele>172.0</ele><time>2026-05-03T10:40:32.934Z</time></trkpt><trkpt lat="42.0316943" lon="12.6445536"><ele>172.0</ele><time>2026-05-03T10:40:33.935Z</time></trkpt><trkpt lat="42.0318128" lon="12.6445374"><ele>172.0</ele><time>2026-05-03T10:40:34.928Z</time></trkpt><trkpt lat="42.0319365" lon="12.6445438"><ele>172.0</ele><time>2026-05-03T10:40:35.934Z</time></trkpt><trkpt lat="42.0320321" lon="12.6445616"><ele>173.0</ele><time>2026-05-03T10:40:36.927Z</time></trkpt><trkpt lat="42.0321155" lon="12.6445904"><ele>174.0</ele><time>2026-05-03T10:40:37.929Z</time></trkpt><trkpt lat="42.0321936" lon="12.6446269"><ele>175.0</ele><time>2026-05-03T10:40:38.926Z</time></trkpt><trkpt lat="42.0322717" lon="12.6446734"><ele>176.0</ele><time>2026-05-03T10:40:39.928Z</time></trkpt><trkpt lat="42.032357" lon="12.6447232"><ele>177.0</ele><time>2026-05-03T10:40:40.926Z</time></trkpt><trkpt lat="42.0324472" lon="12.6447631"><ele>178.0</ele><time>2026-05-03T10:40:41.933Z</time></trkpt><trkpt lat="42.0325285" lon="12.644803"><ele>178.0</ele><time>2026-05-03T10:40:42.93Z</time></trkpt><trkpt lat="42.0326149" lon="12.6448322"><ele>178.0</ele><time>2026-05-03T10:40:43.932Z</time></trkpt><trkpt lat="42.0327238" lon="12.6448518"><ele>178.0</ele><time>2026-05-03T10:40:44.928Z</time></trkpt><trkpt lat="42.0328406" lon="12.6448549"><ele>178.0</ele><time>2026-05-03T10:40:45.927Z</time></trkpt><trkpt lat="42.0329418" lon="12.6448261"><ele>178.0</ele><time>2026-05-03T10:40:46.924Z</time></trkpt><trkpt lat="42.0330445" lon="12.6447959"><ele>178.0</ele><time>2026-05-03T10:40:47.92Z</time></trkpt><trkpt lat="42.0331309" lon="12.6447631"><ele>178.0</ele><time>2026-05-03T10:40:48.927Z</time></trkpt><trkpt lat="42.0332127" lon="12.6447345"><ele>178.0</ele><time>2026-05-03T10:40:49.928Z</time></trkpt><trkpt lat="42.0333043" lon="12.6447158"><ele>178.0</ele><time>2026-05-03T10:40:50.922Z</time></trkpt><trkpt lat="42.0334012" lon="12.6447107"><ele>178.0</ele><time>2026-05-03T10:40:51.922Z</time></trkpt><trkpt lat="42.0335144" lon="12.6447108"><ele>176.5</ele><time>2026-05-03T10:40:52.925Z</time></trkpt><trkpt lat="42.0336175" lon="12.6446997"><ele>175.0</ele><time>2026-05-03T10:40:53.93Z</time></trkpt><trkpt lat="42.0336978" lon="12.6446794"><ele>173.5</ele><time>2026-05-03T10:40:54.918Z</time></trkpt><trkpt lat="42.0337704" lon="12.6446678"><ele>172.0</ele><time>2026-05-03T10:40:55.925Z</time></trkpt><trkpt lat="42.0338511" lon="12.6446521"><ele>170.5</ele><time>2026-05-03T10:40:57.928Z</time></trkpt><trkpt lat="42.0339253" lon="12.6446835"><ele>169.0</ele><time>2026-05-03T10:40:59.931Z</time></trkpt><trkpt lat="42.0339823" lon="12.6447474"><ele>169.0</ele><time>2026-05-03T10:41:01.933Z</time></trkpt><trkpt lat="42.0340333" lon="12.6448168"><ele>169.0</ele><time>2026-05-03T10:41:03.935Z</time></trkpt><trkpt lat="42.0340913" lon="12.6449039"><ele>169.0</ele><time>2026-05-03T10:41:05.94Z</time></trkpt><trkpt lat="42.03418" lon="12.6448942"><ele>169.0</ele><time>2026-05-03T10:41:07.916Z</time></trkpt><trkpt lat="42.0341735" lon="12.6447052"><ele>169.0</ele><time>2026-05-03T10:41:09.938Z</time></trkpt><trkpt lat="42.0341565" lon="12.6445882"><ele>168.83333333333334</ele><time>2026-05-03T10:41:10.92Z</time></trkpt><trkpt lat="42.0341533" lon="12.6444764"><ele>168.66666666666669</ele><time>2026-05-03T10:41:11.913Z</time></trkpt><trkpt lat="42.0341389" lon="12.6443819"><ele>168.5</ele><time>2026-05-03T10:41:12.915Z</time></trkpt><trkpt lat="42.0341307" lon="12.6442926"><ele>168.33333333333334</ele><time>2026-05-03T10:41:13.916Z</time></trkpt><trkpt lat="42.0341302" lon="12.6441357"><ele>168.16666666666666</ele><time>2026-05-03T10:41:15.918Z</time></trkpt><trkpt lat="42.0341544" lon="12.6440501"><ele>168.0</ele><time>2026-05-03T10:41:16.924Z</time></trkpt><trkpt lat="42.0341845" lon="12.643961"><ele>167.0</ele><time>2026-05-03T10:41:17.926Z</time></trkpt><trkpt lat="42.0342161" lon="12.6438611"><ele>166.0</ele><time>2026-05-03T10:41:18.921Z</time></trkpt><trkpt lat="42.03425" lon="12.6437532"><ele>165.0</ele><time>2026-05-03T10:41:19.922Z</time></trkpt><trkpt lat="42.0343005" lon="12.6436289"><ele>164.0</ele><time>2026-05-03T10:41:20.924Z</time></trkpt><trkpt lat="42.0343438" lon="12.6435037"><ele>163.0</ele><time>2026-05-03T10:41:21.918Z</time></trkpt><trkpt lat="42.0343908" lon="12.6433934"><ele>163.0</ele><time>2026-05-03T10:41:22.912Z</time></trkpt><trkpt lat="42.0344454" lon="12.6432773"><ele>163.0</ele><time>2026-05-03T10:41:23.915Z</time></trkpt><trkpt lat="42.0344902" lon="12.6431421"><ele>163.0</ele><time>2026-05-03T10:41:24.925Z</time></trkpt><trkpt lat="42.0345518" lon="12.6430168"><ele>163.0</ele><time>2026-05-03T10:41:25.913Z</time></trkpt><trkpt lat="42.0346105" lon="12.6428997"><ele>163.0</ele><time>2026-05-03T10:41:26.922Z</time></trkpt><trkpt lat="42.0346628" lon="12.6427842"><ele>163.4</ele><time>2026-05-03T10:41:27.925Z</time></trkpt><trkpt lat="42.0347104" lon="12.6426741"><ele>163.8</ele><time>2026-05-03T10:41:28.929Z</time></trkpt><trkpt lat="42.0347472" lon="12.6425591"><ele>164.2</ele><time>2026-05-03T10:41:29.933Z</time></trkpt><trkpt lat="42.0347987" lon="12.6424342"><ele>164.6</ele><time>2026-05-03T10:41:30.921Z</time></trkpt><trkpt lat="42.0348397" lon="12.6423068"><ele>165.0</ele><time>2026-05-03T10:41:31.927Z</time></trkpt><trkpt lat="42.0348647" lon="12.6421803"><ele>165.00000000000003</ele><time>2026-05-03T10:41:32.923Z</time></trkpt><trkpt lat="42.0348996" lon="12.6420829"><ele>165.0</ele><time>2026-05-03T10:41:33.922Z</time></trkpt><trkpt lat="42.0349332" lon="12.6419807"><ele>165.0</ele><time>2026-05-03T10:41:34.93Z</time></trkpt><trkpt lat="42.0349658" lon="12.6418882"><ele>165.0</ele><time>2026-05-03T10:41:35.928Z</time></trkpt><trkpt lat="42.0350027" lon="12.6418174"><ele>165.0</ele><time>2026-05-03T10:41:36.929Z</time></trkpt><trkpt lat="42.035042" lon="12.6417411"><ele>165.00000000000003</ele><time>2026-05-03T10:41:37.933Z</time></trkpt><trkpt lat="42.0350772" lon="12.6416617"><ele>165.0</ele><time>2026-05-03T10:41:38.926Z</time></trkpt><trkpt lat="42.0351166" lon="12.6415675"><ele>165.0</ele><time>2026-05-03T10:41:40.004Z</time></trkpt><trkpt lat="42.0351712" lon="12.6414703"><ele>165.0</ele><time>2026-05-03T10:41:41.082Z</time></trkpt><trkpt lat="42.0352821" lon="12.6412327"><ele>165.0</ele><time>2026-05-03T10:41:42.932Z</time></trkpt><trkpt lat="42.0353403" lon="12.6411161"><ele>165.0</ele><time>2026-05-03T10:41:43.933Z</time></trkpt><trkpt lat="42.03539" lon="12.6410085"><ele>165.0</ele><time>2026-05-03T10:41:44.93Z</time></trkpt><trkpt lat="42.0354393" lon="12.6409026"><ele>165.0</ele><time>2026-05-03T10:41:45.929Z</time></trkpt><trkpt lat="42.0354873" lon="12.6407981"><ele>165.0</ele><time>2026-05-03T10:41:46.923Z</time></trkpt><trkpt lat="42.0355397" lon="12.6406881"><ele>165.0</ele><time>2026-05-03T10:41:47.93Z</time></trkpt><trkpt lat="42.0355967" lon="12.6405645"><ele>165.0</ele><time>2026-05-03T10:41:48.923Z</time></trkpt><trkpt lat="42.0356631" lon="12.640419"><ele>166.0</ele><time>2026-05-03T10:41:49.92Z</time></trkpt><trkpt lat="42.0357397" lon="12.6402665"><ele>167.0</ele><time>2026-05-03T10:41:50.923Z</time></trkpt><trkpt lat="42.0358173" lon="12.6401083"><ele>168.0</ele><time>2026-05-03T10:41:51.945Z</time></trkpt><trkpt lat="42.0358795" lon="12.6399507"><ele>169.0</ele><time>2026-05-03T10:41:52.946Z</time></trkpt><trkpt lat="42.0359405" lon="12.6397886"><ele>167.75</ele><time>2026-05-03T10:41:53.946Z</time></trkpt><trkpt lat="42.0360084" lon="12.6396257"><ele>166.5</ele><time>2026-05-03T10:41:54.918Z</time></trkpt><trkpt lat="42.0360839" lon="12.6394448"><ele>165.25</ele><time>2026-05-03T10:41:55.917Z</time></trkpt><trkpt lat="42.0361495" lon="12.6392753"><ele>164.0</ele><time>2026-05-03T10:41:56.918Z</time></trkpt><trkpt lat="42.0362169" lon="12.6391265"><ele>164.0</ele><time>2026-05-03T10:41:57.925Z</time></trkpt><trkpt lat="42.0362535" lon="12.6390009"><ele>164.0</ele><time>2026-05-03T10:41:58.913Z</time></trkpt><trkpt lat="42.0363193" lon="12.6389034"><ele>164.0</ele><time>2026-05-03T10:41:59.936Z</time></trkpt><trkpt lat="42.0363565" lon="12.6388185"><ele>164.0</ele><time>2026-05-03T10:42:00.913Z</time></trkpt><trkpt lat="42.0363498" lon="12.6386988"><ele>164.0</ele><time>2026-05-03T10:42:01.917Z</time></trkpt><trkpt lat="42.0363632" lon="12.6385119"><ele>163.66666666666666</ele><time>2026-05-03T10:42:03.946Z</time></trkpt><trkpt lat="42.0364003" lon="12.6384102"><ele>163.33333333333331</ele><time>2026-05-03T10:42:04.923Z</time></trkpt><trkpt lat="42.0364481" lon="12.6383059"><ele>163.0</ele><time>2026-05-03T10:42:05.936Z</time></trkpt><trkpt lat="42.0364889" lon="12.6382201"><ele>162.66666666666666</ele><time>2026-05-03T10:42:06.92Z</time></trkpt><trkpt lat="42.0365045" lon="12.6381208"><ele>162.33333333333334</ele><time>2026-05-03T10:42:07.945Z</time></trkpt><trkpt lat="42.0365247" lon="12.6380344"><ele>162.0</ele><time>2026-05-03T10:42:08.937Z</time></trkpt><trkpt lat="42.0365581" lon="12.6378846"><ele>160.4</ele><time>2026-05-03T10:42:10.932Z</time></trkpt><trkpt lat="42.0365653" lon="12.6377461"><ele>158.79999999999998</ele><time>2026-05-03T10:42:12.94Z</time></trkpt><trkpt lat="42.0365569" lon="12.6376525"><ele>157.2</ele><time>2026-05-03T10:42:14.915Z</time></trkpt><trkpt lat="42.0367253" lon="12.6377601"><ele>155.6</ele><time>2026-05-03T10:42:19.074Z</time></trkpt><trkpt lat="42.0368091" lon="12.6378009"><ele>154.0</ele><time>2026-05-03T10:42:20.071Z</time></trkpt><trkpt lat="42.0368951" lon="12.6378593"><ele>154.0</ele><time>2026-05-03T10:42:21.078Z</time></trkpt><trkpt lat="42.0369767" lon="12.6378994"><ele>154.0</ele><time>2026-05-03T10:42:22.082Z</time></trkpt><trkpt lat="42.0371065" lon="12.6379816"><ele>154.0</ele><time>2026-05-03T10:42:23.942Z</time></trkpt><trkpt lat="42.0371799" lon="12.638006"><ele>154.0</ele><time>2026-05-03T10:42:24.919Z</time></trkpt><trkpt lat="42.0372436" lon="12.6380193"><ele>154.0</ele><time>2026-05-03T10:42:25.917Z</time></trkpt><trkpt lat="42.037342" lon="12.6380208"><ele>154.0</ele><time>2026-05-03T10:42:27.918Z</time></trkpt><trkpt lat="42.0372806" lon="12.6380627"><ele>154.0</ele><time>2026-05-03T10:42:34.913Z</time></trkpt><trkpt lat="42.0371978" lon="12.6380829"><ele>154.0</ele><time>2026-05-03T10:42:37.078Z</time></trkpt><trkpt lat="42.037128" lon="12.6380854"><ele>154.0</ele><time>2026-05-03T10:42:38.077Z</time></trkpt><trkpt lat="42.0369828" lon="12.638081"><ele>154.0</ele><time>2026-05-03T10:42:39.916Z</time></trkpt><trkpt lat="42.0369188" lon="12.6380491"><ele>154.0</ele><time>2026-05-03T10:42:40.915Z</time></trkpt><trkpt lat="42.0368611" lon="12.6379957"><ele>154.0</ele><time>2026-05-03T10:42:41.936Z</time></trkpt><trkpt lat="42.0367693" lon="12.6379622"><ele>154.0</ele><time>2026-05-03T10:42:42.924Z</time></trkpt><trkpt lat="42.0367028" lon="12.6379342"><ele>154.0</ele><time>2026-05-03T10:42:43.917Z</time></trkpt><trkpt lat="42.036615" lon="12.6378882"><ele>154.0</ele><time>2026-05-03T10:42:45.914Z</time></trkpt><trkpt lat="42.0365401" lon="12.637824"><ele>154.0</ele><time>2026-05-03T10:42:50.954Z</time></trkpt><trkpt lat="42.0364425" lon="12.6377766"><ele>153.2</ele><time>2026-05-03T10:42:58.927Z</time></trkpt><trkpt lat="42.0365505" lon="12.6377189"><ele>152.4</ele><time>2026-05-03T10:43:09.916Z</time></trkpt><trkpt lat="42.036629" lon="12.6376687"><ele>151.6</ele><time>2026-05-03T10:43:10.941Z</time></trkpt><trkpt lat="42.0367169" lon="12.6376321"><ele>150.8</ele><time>2026-05-03T10:43:11.919Z</time></trkpt><trkpt lat="42.0368406" lon="12.6376458"><ele>150.0</ele><time>2026-05-03T10:43:12.925Z</time></trkpt><trkpt lat="42.0369067" lon="12.6375612"><ele>149.2</ele><time>2026-05-03T10:43:13.91Z</time></trkpt><trkpt lat="42.0370292" lon="12.6374894"><ele>148.4</ele><time>2026-05-03T10:43:14.918Z</time></trkpt><trkpt lat="42.037088" lon="12.637422"><ele>147.6</ele><time>2026-05-03T10:43:15.91Z</time></trkpt><trkpt lat="42.0371905" lon="12.6373359"><ele>146.8</ele><time>2026-05-03T10:43:16.945Z</time></trkpt><trkpt lat="42.0372642" lon="12.6372555"><ele>146.0</ele><time>2026-05-03T10:43:17.935Z</time></trkpt><trkpt lat="42.0373288" lon="12.6371573"><ele>146.0</ele><time>2026-05-03T10:43:18.915Z</time></trkpt><trkpt lat="42.0374129" lon="12.6370767"><ele>146.0</ele><time>2026-05-03T10:43:19.919Z</time></trkpt><trkpt lat="42.0374784" lon="12.6370023"><ele>146.0</ele><time>2026-05-03T10:43:20.915Z</time></trkpt><trkpt lat="42.0375745" lon="12.636895"><ele>146.0</ele><time>2026-05-03T10:43:21.924Z</time></trkpt><trkpt lat="42.0376596" lon="12.636792"><ele>146.0</ele><time>2026-05-03T10:43:22.916Z</time></trkpt><trkpt lat="42.0377643" lon="12.6366873"><ele>145.4</ele><time>2026-05-03T10:43:23.915Z</time></trkpt><trkpt lat="42.0378278" lon="12.6365955"><ele>144.8</ele><time>2026-05-03T10:43:24.918Z</time></trkpt><trkpt lat="42.0379159" lon="12.6364877"><ele>144.20000000000002</ele><time>2026-05-03T10:43:25.939Z</time></trkpt><trkpt lat="42.037989" lon="12.6364027"><ele>143.6</ele><time>2026-05-03T10:43:26.936Z</time></trkpt><trkpt lat="42.0380647" lon="12.6363279"><ele>143.0</ele><time>2026-05-03T10:43:27.917Z</time></trkpt><trkpt lat="42.0381619" lon="12.6362525"><ele>143.0</ele><time>2026-05-03T10:43:28.922Z</time></trkpt><trkpt lat="42.0382541" lon="12.6361784"><ele>143.0</ele><time>2026-05-03T10:43:29.915Z</time></trkpt><trkpt lat="42.0383186" lon="12.6361035"><ele>143.0</ele><time>2026-05-03T10:43:30.923Z</time></trkpt><trkpt lat="42.0383897" lon="12.6360352"><ele>143.0</ele><time>2026-05-03T10:43:31.924Z</time></trkpt><trkpt lat="42.0384832" lon="12.6359785"><ele>143.0</ele><time>2026-05-03T10:43:32.927Z</time></trkpt><trkpt lat="42.0385809" lon="12.635919"><ele>145.25</ele><time>2026-05-03T10:43:33.92Z</time></trkpt><trkpt lat="42.0386769" lon="12.6358431"><ele>147.5</ele><time>2026-05-03T10:43:34.94Z</time></trkpt><trkpt lat="42.0387757" lon="12.63576"><ele>149.75</ele><time>2026-05-03T10:43:35.92Z</time></trkpt><trkpt lat="42.0388948" lon="12.6356808"><ele>152.0</ele><time>2026-05-03T10:43:36.923Z</time></trkpt><trkpt lat="42.0389992" lon="12.6355999"><ele>152.0</ele><time>2026-05-03T10:43:37.921Z</time></trkpt><trkpt lat="42.0390905" lon="12.6355316"><ele>152.0</ele><time>2026-05-03T10:43:38.92Z</time></trkpt><trkpt lat="42.0391932" lon="12.6354818"><ele>152.0</ele><time>2026-05-03T10:43:39.925Z</time></trkpt><trkpt lat="42.0393003" lon="12.6354299"><ele>152.0</ele><time>2026-05-03T10:43:40.925Z</time></trkpt><trkpt lat="42.03939" lon="12.6353691"><ele>152.0</ele><time>2026-05-03T10:43:41.929Z</time></trkpt><trkpt lat="42.0394747" lon="12.6353074"><ele>151.6</ele><time>2026-05-03T10:43:42.935Z</time></trkpt><trkpt lat="42.0395557" lon="12.6352616"><ele>151.2</ele><time>2026-05-03T10:43:43.924Z</time></trkpt><trkpt lat="42.0396301" lon="12.6352274"><ele>150.8</ele><time>2026-05-03T10:43:44.93Z</time></trkpt><trkpt lat="42.039714" lon="12.6351919"><ele>150.4</ele><time>2026-05-03T10:43:45.935Z</time></trkpt><trkpt lat="42.0398147" lon="12.6351553"><ele>150.0</ele><time>2026-05-03T10:43:46.933Z</time></trkpt><trkpt lat="42.0399165" lon="12.6351208"><ele>149.0</ele><time>2026-05-03T10:43:47.932Z</time></trkpt><trkpt lat="42.0400304" lon="12.6350789"><ele>148.0</ele><time>2026-05-03T10:43:48.936Z</time></trkpt><trkpt lat="42.0401597" lon="12.6350234"><ele>147.0</ele><time>2026-05-03T10:43:49.929Z</time></trkpt><trkpt lat="42.0402862" lon="12.6349489"><ele>146.0</ele><time>2026-05-03T10:43:50.926Z</time></trkpt><trkpt lat="42.0404044" lon="12.6348624"><ele>146.0</ele><time>2026-05-03T10:43:51.932Z</time></trkpt><trkpt lat="42.0405113" lon="12.6347575"><ele>146.0</ele><time>2026-05-03T10:43:52.926Z</time></trkpt><trkpt lat="42.0406105" lon="12.6346413"><ele>146.0</ele><time>2026-05-03T10:43:53.926Z</time></trkpt><trkpt lat="42.0406991" lon="12.6345361"><ele>146.0</ele><time>2026-05-03T10:43:54.933Z</time></trkpt><trkpt lat="42.040783" lon="12.6344234"><ele>145.5</ele><time>2026-05-03T10:43:55.925Z</time></trkpt><trkpt lat="42.0408605" lon="12.6343025"><ele>145.0</ele><time>2026-05-03T10:43:56.923Z</time></trkpt><trkpt lat="42.0409453" lon="12.6341634"><ele>144.5</ele><time>2026-05-03T10:43:57.952Z</time></trkpt><trkpt lat="42.0410272" lon="12.6340051"><ele>144.0</ele><time>2026-05-03T10:43:58.93Z</time></trkpt><trkpt lat="42.0411028" lon="12.6338557"><ele>144.0</ele><time>2026-05-03T10:43:59.932Z</time></trkpt><trkpt lat="42.0411688" lon="12.6337197"><ele>144.0</ele><time>2026-05-03T10:44:00.928Z</time></trkpt><trkpt lat="42.0412426" lon="12.6335822"><ele>144.0</ele><time>2026-05-03T10:44:01.928Z</time></trkpt><trkpt lat="42.0413274" lon="12.6334203"><ele>144.0</ele><time>2026-05-03T10:44:02.933Z</time></trkpt><trkpt lat="42.0414384" lon="12.63323"><ele>144.5</ele><time>2026-05-03T10:44:03.936Z</time></trkpt><trkpt lat="42.0415364" lon="12.6330795"><ele>145.0</ele><time>2026-05-03T10:44:04.928Z</time></trkpt><trkpt lat="42.0416204" lon="12.6329883"><ele>145.5</ele><time>2026-05-03T10:44:05.925Z</time></trkpt><trkpt lat="42.0417061" lon="12.6329008"><ele>146.0</ele><time>2026-05-03T10:44:06.958Z</time></trkpt><trkpt lat="42.0418106" lon="12.6328024"><ele>144.75</ele><time>2026-05-03T10:44:07.975Z</time></trkpt><trkpt lat="42.0418929" lon="12.6326972"><ele>143.5</ele><time>2026-05-03T10:44:08.947Z</time></trkpt><trkpt lat="42.0419868" lon="12.6325901"><ele>142.25</ele><time>2026-05-03T10:44:09.932Z</time></trkpt><trkpt lat="42.0420765" lon="12.6324902"><ele>141.0</ele><time>2026-05-03T10:44:10.958Z</time></trkpt><trkpt lat="42.0421493" lon="12.6323957"><ele>141.0</ele><time>2026-05-03T10:44:11.932Z</time></trkpt><trkpt lat="42.0422262" lon="12.6323083"><ele>141.0</ele><time>2026-05-03T10:44:12.938Z</time></trkpt><trkpt lat="42.0423008" lon="12.6322179"><ele>141.0</ele><time>2026-05-03T10:44:13.931Z</time></trkpt><trkpt lat="42.0423732" lon="12.6321285"><ele>141.0</ele><time>2026-05-03T10:44:14.929Z</time></trkpt><trkpt lat="42.0424501" lon="12.632057"><ele>141.0</ele><time>2026-05-03T10:44:15.935Z</time></trkpt><trkpt lat="42.0425405" lon="12.6319975"><ele>141.2</ele><time>2026-05-03T10:44:16.93Z</time></trkpt><trkpt lat="42.0426338" lon="12.6319461"><ele>141.39999999999998</ele><time>2026-05-03T10:44:17.936Z</time></trkpt><trkpt lat="42.042733" lon="12.6319023"><ele>141.6</ele><time>2026-05-03T10:44:18.932Z</time></trkpt><trkpt lat="42.0428356" lon="12.6318668"><ele>141.79999999999998</ele><time>2026-05-03T10:44:19.924Z</time></trkpt><trkpt lat="42.042928" lon="12.6318575"><ele>142.0</ele><time>2026-05-03T10:44:20.938Z</time></trkpt><trkpt lat="42.04302" lon="12.6318737"><ele>142.0</ele><time>2026-05-03T10:44:21.935Z</time></trkpt><trkpt lat="42.0431099" lon="12.6318899"><ele>142.0</ele><time>2026-05-03T10:44:22.965Z</time></trkpt><trkpt lat="42.0431977" lon="12.6318956"><ele>142.0</ele><time>2026-05-03T10:44:23.938Z</time></trkpt><trkpt lat="42.0432802" lon="12.6318845"><ele>142.0</ele><time>2026-05-03T10:44:24.929Z</time></trkpt><trkpt lat="42.0433671" lon="12.6318589"><ele>142.0</ele><time>2026-05-03T10:44:25.954Z</time></trkpt><trkpt lat="42.0434545" lon="12.6317969"><ele>142.0</ele><time>2026-05-03T10:44:26.933Z</time></trkpt><trkpt lat="42.0435537" lon="12.6316737"><ele>142.33333333333334</ele><time>2026-05-03T10:44:27.933Z</time></trkpt><trkpt lat="42.043654" lon="12.6315039"><ele>142.66666666666666</ele><time>2026-05-03T10:44:28.93Z</time></trkpt><trkpt lat="42.0437734" lon="12.6312459"><ele>143.0</ele><time>2026-05-03T10:44:29.931Z</time></trkpt><trkpt lat="42.0439575" lon="12.6309942"><ele>143.0</ele><time>2026-05-03T10:44:30.93Z</time></trkpt><trkpt lat="42.0441027" lon="12.630751"><ele>143.0</ele><time>2026-05-03T10:44:31.915Z</time></trkpt><trkpt lat="42.0442655" lon="12.6305402"><ele>141.0</ele><time>2026-05-03T10:44:32.924Z</time></trkpt><trkpt lat="42.0443438" lon="12.6303228"><ele>139.0</ele><time>2026-05-03T10:44:33.919Z</time></trkpt><trkpt lat="42.0444597" lon="12.630117"><ele>137.0</ele><time>2026-05-03T10:44:34.918Z</time></trkpt><trkpt lat="42.0445811" lon="12.6299445"><ele>137.0</ele><time>2026-05-03T10:44:35.928Z</time></trkpt><trkpt lat="42.0446969" lon="12.6297989"><ele>137.0</ele><time>2026-05-03T10:44:36.923Z</time></trkpt><trkpt lat="42.0448181" lon="12.6296381"><ele>137.0</ele><time>2026-05-03T10:44:37.929Z</time></trkpt><trkpt lat="42.0449348" lon="12.6294715"><ele>135.75</ele><time>2026-05-03T10:44:38.942Z</time></trkpt><trkpt lat="42.0450021" lon="12.6293004"><ele>134.5</ele><time>2026-05-03T10:44:39.929Z</time></trkpt><trkpt lat="42.0450374" lon="12.6291154"><ele>133.25</ele><time>2026-05-03T10:44:40.948Z</time></trkpt><trkpt lat="42.0450786" lon="12.6289253"><ele>132.0</ele><time>2026-05-03T10:44:41.952Z</time></trkpt><trkpt lat="42.0451425" lon="12.6288104"><ele>132.0</ele><time>2026-05-03T10:44:42.952Z</time></trkpt><trkpt lat="42.0451971" lon="12.6286908"><ele>132.0</ele><time>2026-05-03T10:44:43.956Z</time></trkpt><trkpt lat="42.0452525" lon="12.6285705"><ele>132.0</ele><time>2026-05-03T10:44:44.927Z</time></trkpt><trkpt lat="42.0453066" lon="12.6284633"><ele>132.0</ele><time>2026-05-03T10:44:45.925Z</time></trkpt><trkpt lat="42.0453709" lon="12.6283664"><ele>132.0</ele><time>2026-05-03T10:44:46.932Z</time></trkpt><trkpt lat="42.0454468" lon="12.6282589"><ele>131.79999999999998</ele><time>2026-05-03T10:44:47.928Z</time></trkpt><trkpt lat="42.0455274" lon="12.628147"><ele>131.6</ele><time>2026-05-03T10:44:48.937Z</time></trkpt><trkpt lat="42.045605" lon="12.6280411"><ele>131.39999999999998</ele><time>2026-05-03T10:44:49.928Z</time></trkpt><trkpt lat="42.0456907" lon="12.6279416"><ele>131.2</ele><time>2026-05-03T10:44:50.926Z</time></trkpt><trkpt lat="42.0457666" lon="12.6278587"><ele>131.0</ele><time>2026-05-03T10:44:51.927Z</time></trkpt><trkpt lat="42.0458454" lon="12.6277724"><ele>131.0</ele><time>2026-05-03T10:44:52.93Z</time></trkpt><trkpt lat="42.0459137" lon="12.6276943"><ele>131.0</ele><time>2026-05-03T10:44:53.931Z</time></trkpt><trkpt lat="42.0459863" lon="12.627611"><ele>131.0</ele><time>2026-05-03T10:44:54.934Z</time></trkpt><trkpt lat="42.0460661" lon="12.6275256"><ele>131.0</ele><time>2026-05-03T10:44:55.923Z</time></trkpt><trkpt lat="42.0461514" lon="12.627438"><ele>131.0</ele><time>2026-05-03T10:44:56.931Z</time></trkpt><trkpt lat="42.0462412" lon="12.6273541"><ele>131.0</ele><time>2026-05-03T10:44:57.939Z</time></trkpt><trkpt lat="42.0463244" lon="12.6272702"><ele>131.0</ele><time>2026-05-03T10:44:58.972Z</time></trkpt><trkpt lat="42.0464054" lon="12.627188"><ele>131.0</ele><time>2026-05-03T10:44:59.914Z</time></trkpt><trkpt lat="42.046483" lon="12.6271106"><ele>131.0</ele><time>2026-05-03T10:45:00.929Z</time></trkpt><trkpt lat="42.0465566" lon="12.6270317"><ele>131.0</ele><time>2026-05-03T10:45:01.914Z</time></trkpt><trkpt lat="42.0466238" lon="12.6269542"><ele>130.66666666666666</ele><time>2026-05-03T10:45:02.92Z</time></trkpt><trkpt lat="42.0467011" lon="12.6268682"><ele>130.33333333333331</ele><time>2026-05-03T10:45:03.913Z</time></trkpt><trkpt lat="42.0467792" lon="12.6267953"><ele>130.0</ele><time>2026-05-03T10:45:04.915Z</time></trkpt><trkpt lat="42.0468524" lon="12.6267304"><ele>129.66666666666666</ele><time>2026-05-03T10:45:05.926Z</time></trkpt><trkpt lat="42.0469167" lon="12.6266738"><ele>129.33333333333334</ele><time>2026-05-03T10:45:06.924Z</time></trkpt><trkpt lat="42.0469803" lon="12.626617"><ele>129.0</ele><time>2026-05-03T10:45:07.918Z</time></trkpt><trkpt lat="42.047049" lon="12.6265527"><ele>129.0</ele><time>2026-05-03T10:45:08.918Z</time></trkpt><trkpt lat="42.0471235" lon="12.6264845"><ele>129.0</ele><time>2026-05-03T10:45:09.926Z</time></trkpt><trkpt lat="42.0471958" lon="12.6264163"><ele>129.0</ele><time>2026-05-03T10:45:10.925Z</time></trkpt><trkpt lat="42.0472578" lon="12.6263581"><ele>129.0</ele><time>2026-05-03T10:45:11.921Z</time></trkpt><trkpt lat="42.0473141" lon="12.6263186"><ele>129.0</ele><time>2026-05-03T10:45:12.924Z</time></trkpt><trkpt lat="42.047397" lon="12.6262708"><ele>129.0</ele><time>2026-05-03T10:45:14.925Z</time></trkpt><trkpt lat="42.047446" lon="12.6262141"><ele>127.5</ele><time>2026-05-03T10:45:33.925Z</time></trkpt><trkpt lat="42.0475055" lon="12.6261679"><ele>126.0</ele><time>2026-05-03T10:45:49.94Z</time></trkpt><trkpt lat="42.0476236" lon="12.6260449"><ele>124.5</ele><time>2026-05-03T10:45:51.911Z</time></trkpt><trkpt lat="42.0477042" lon="12.6258973"><ele>123.0</ele><time>2026-05-03T10:45:52.917Z</time></trkpt><trkpt lat="42.0478157" lon="12.6257332"><ele>123.0</ele><time>2026-05-03T10:45:53.909Z</time></trkpt><trkpt lat="42.0479476" lon="12.6255758"><ele>123.0</ele><time>2026-05-03T10:45:54.91Z</time></trkpt><trkpt lat="42.0480657" lon="12.6254509"><ele>123.0</ele><time>2026-05-03T10:45:55.909Z</time></trkpt><trkpt lat="42.04819" lon="12.6253376"><ele>123.4</ele><time>2026-05-03T10:45:56.909Z</time></trkpt><trkpt lat="42.0482892" lon="12.6252484"><ele>123.80000000000001</ele><time>2026-05-03T10:45:57.903Z</time></trkpt><trkpt lat="42.0483834" lon="12.6251571"><ele>124.2</ele><time>2026-05-03T10:45:58.905Z</time></trkpt><trkpt lat="42.0484616" lon="12.6250977"><ele>124.6</ele><time>2026-05-03T10:45:59.907Z</time></trkpt><trkpt lat="42.0485678" lon="12.6250712"><ele>125.0</ele><time>2026-05-03T10:46:00.897Z</time></trkpt><trkpt lat="42.048655" lon="12.6251517"><ele>124.99999999999999</ele><time>2026-05-03T10:46:01.914Z</time></trkpt><trkpt lat="42.0487305" lon="12.6252359"><ele>125.0</ele><time>2026-05-03T10:46:02.903Z</time></trkpt><trkpt lat="42.0488082" lon="12.6252905"><ele>125.0</ele><time>2026-05-03T10:46:03.909Z</time></trkpt><trkpt lat="42.0488794" lon="12.6253093"><ele>125.0</ele><time>2026-05-03T10:46:04.916Z</time></trkpt><trkpt lat="42.0489503" lon="12.6252722"><ele>124.99999999999999</ele><time>2026-05-03T10:46:05.906Z</time></trkpt><trkpt lat="42.0489937" lon="12.6251756"><ele>125.0</ele><time>2026-05-03T10:46:06.914Z</time></trkpt><trkpt lat="42.0490129" lon="12.6250629"><ele>125.0</ele><time>2026-05-03T10:46:07.906Z</time></trkpt><trkpt lat="42.0490025" lon="12.6249363"><ele>125.0</ele><time>2026-05-03T10:46:08.914Z</time></trkpt><trkpt lat="42.0489636" lon="12.6248325"><ele>125.0</ele><time>2026-05-03T10:46:09.911Z</time></trkpt><trkpt lat="42.0489331" lon="12.6247407"><ele>125.0</ele><time>2026-05-03T10:46:10.93Z</time></trkpt><trkpt lat="42.0489132" lon="12.6246123"><ele>125.0</ele><time>2026-05-03T10:46:12.907Z</time></trkpt><trkpt lat="42.0489496" lon="12.6244906"><ele>126.0</ele><time>2026-05-03T10:46:14.913Z</time></trkpt><trkpt lat="42.0490246" lon="12.6243632"><ele>127.0</ele><time>2026-05-03T10:46:16.939Z</time></trkpt><trkpt lat="42.0490785" lon="12.6243129"><ele>128.0</ele><time>2026-05-03T10:46:17.904Z</time></trkpt><trkpt lat="42.0491816" lon="12.6242117"><ele>129.0</ele><time>2026-05-03T10:46:19.9Z</time></trkpt><trkpt lat="42.0492461" lon="12.6241265"><ele>130.0</ele><time>2026-05-03T10:46:20.907Z</time></trkpt><trkpt lat="42.0493062" lon="12.624043"><ele>130.0</ele><time>2026-05-03T10:46:21.908Z</time></trkpt><trkpt lat="42.0494502" lon="12.6239211"><ele>130.0</ele><time>2026-05-03T10:46:22.909Z</time></trkpt><trkpt lat="42.0496018" lon="12.6237784"><ele>130.0</ele><time>2026-05-03T10:46:23.917Z</time></trkpt><trkpt lat="42.049719" lon="12.6236502"><ele>131.75</ele><time>2026-05-03T10:46:24.908Z</time></trkpt><trkpt lat="42.0498408" lon="12.6235325"><ele>133.5</ele><time>2026-05-03T10:46:25.912Z</time></trkpt><trkpt lat="42.0499586" lon="12.6234118"><ele>135.25</ele><time>2026-05-03T10:46:26.907Z</time></trkpt><trkpt lat="42.0500552" lon="12.6232842"><ele>137.0</ele><time>2026-05-03T10:46:27.913Z</time></trkpt><trkpt lat="42.0501332" lon="12.6231371"><ele>137.6</ele><time>2026-05-03T10:46:28.907Z</time></trkpt><trkpt lat="42.0501895" lon="12.6230044"><ele>138.2</ele><time>2026-05-03T10:46:29.918Z</time></trkpt><trkpt lat="42.0502524" lon="12.6228732"><ele>138.8</ele><time>2026-05-03T10:46:30.911Z</time></trkpt><trkpt lat="42.0503066" lon="12.622797"><ele>139.4</ele><time>2026-05-03T10:46:31.912Z</time></trkpt><trkpt lat="42.0503557" lon="12.6227227"><ele>140.0</ele><time>2026-05-03T10:46:32.918Z</time></trkpt><trkpt lat="42.050479" lon="12.6226715"><ele>140.0</ele><time>2026-05-03T10:46:34.937Z</time></trkpt><trkpt lat="42.0505931" lon="12.6226844"><ele>140.0</ele><time>2026-05-03T10:46:35.939Z</time></trkpt><trkpt lat="42.050651" lon="12.6227743"><ele>140.0</ele><time>2026-05-03T10:46:36.909Z</time></trkpt><trkpt lat="42.0507031" lon="12.6229118"><ele>140.0</ele><time>2026-05-03T10:46:37.906Z</time></trkpt><trkpt lat="42.0507961" lon="12.6230039"><ele>140.0</ele><time>2026-05-03T10:46:38.913Z</time></trkpt><trkpt lat="42.0508613" lon="12.6231043"><ele>139.0</ele><time>2026-05-03T10:46:39.914Z</time></trkpt><trkpt lat="42.0509364" lon="12.6232177"><ele>138.0</ele><time>2026-05-03T10:46:40.911Z</time></trkpt><trkpt lat="42.0510191" lon="12.6233439"><ele>137.0</ele><time>2026-05-03T10:46:41.911Z</time></trkpt><trkpt lat="42.0511127" lon="12.6234476"><ele>136.0</ele><time>2026-05-03T10:46:42.905Z</time></trkpt><trkpt lat="42.0512172" lon="12.6235293"><ele>136.0</ele><time>2026-05-03T10:46:43.914Z</time></trkpt><trkpt lat="42.0513366" lon="12.6235686"><ele>136.0</ele><time>2026-05-03T10:46:44.903Z</time></trkpt><trkpt lat="42.0514519" lon="12.6236125"><ele>136.0</ele><time>2026-05-03T10:46:45.906Z</time></trkpt><trkpt lat="42.0515692" lon="12.6236631"><ele>136.0</ele><time>2026-05-03T10:46:47.134Z</time></trkpt><trkpt lat="42.0517964" lon="12.6237649"><ele>135.5</ele><time>2026-05-03T10:46:48.897Z</time></trkpt><trkpt lat="42.0518683" lon="12.6238042"><ele>135.0</ele><time>2026-05-03T10:46:50.217Z</time></trkpt><trkpt lat="42.052039" lon="12.6239193"><ele>134.5</ele><time>2026-05-03T10:46:51.91Z</time></trkpt><trkpt lat="42.0521088" lon="12.6239431"><ele>134.0</ele><time>2026-05-03T10:46:53.231Z</time></trkpt><trkpt lat="42.0522407" lon="12.6239412"><ele>134.0</ele><time>2026-05-03T10:46:54.904Z</time></trkpt><trkpt lat="42.0523376" lon="12.6238392"><ele>134.0</ele><time>2026-05-03T10:46:56.932Z</time></trkpt><trkpt lat="42.0523752" lon="12.6237591"><ele>134.0</ele><time>2026-05-03T10:46:57.911Z</time></trkpt><trkpt lat="42.0523961" lon="12.623669"><ele>134.0</ele><time>2026-05-03T10:46:58.903Z</time></trkpt><trkpt lat="42.0523718" lon="12.6235511"><ele>134.0</ele><time>2026-05-03T10:47:00.901Z</time></trkpt><trkpt lat="42.0523417" lon="12.6234471"><ele>134.0</ele><time>2026-05-03T10:47:02.9Z</time></trkpt><trkpt lat="42.0523559" lon="12.6232909"><ele>134.2</ele><time>2026-05-03T10:47:05.057Z</time></trkpt><trkpt lat="42.0524022" lon="12.6232137"><ele>134.4</ele><time>2026-05-03T10:47:06.139Z</time></trkpt><trkpt lat="42.0524775" lon="12.6231272"><ele>134.6</ele><time>2026-05-03T10:47:07.102Z</time></trkpt><trkpt lat="42.0525395" lon="12.6230272"><ele>134.8</ele><time>2026-05-03T10:47:07.947Z</time></trkpt><trkpt lat="42.0525926" lon="12.6229102"><ele>135.0</ele><time>2026-05-03T10:47:08.92Z</time></trkpt><trkpt lat="42.0526262" lon="12.6227606"><ele>136.5</ele><time>2026-05-03T10:47:09.905Z</time></trkpt><trkpt lat="42.0526437" lon="12.6226049"><ele>138.0</ele><time>2026-05-03T10:47:10.915Z</time></trkpt><trkpt lat="42.0526433" lon="12.6224351"><ele>139.5</ele><time>2026-05-03T10:47:11.905Z</time></trkpt><trkpt lat="42.0526601" lon="12.6222768"><ele>141.0</ele><time>2026-05-03T10:47:12.903Z</time></trkpt><trkpt lat="42.0526794" lon="12.6221357"><ele>141.5</ele><time>2026-05-03T10:47:13.9Z</time></trkpt><trkpt lat="42.0526834" lon="12.6219545"><ele>142.0</ele><time>2026-05-03T10:47:14.908Z</time></trkpt><trkpt lat="42.0526833" lon="12.6217683"><ele>142.5</ele><time>2026-05-03T10:47:15.905Z</time></trkpt><trkpt lat="42.0527201" lon="12.6216307"><ele>143.0</ele><time>2026-05-03T10:47:16.909Z</time></trkpt><trkpt lat="42.052745" lon="12.6214994"><ele>143.0</ele><time>2026-05-03T10:47:17.898Z</time></trkpt><trkpt lat="42.052803" lon="12.6213601"><ele>143.0</ele><time>2026-05-03T10:47:18.908Z</time></trkpt><trkpt lat="42.05286" lon="12.6212612"><ele>143.0</ele><time>2026-05-03T10:47:19.913Z</time></trkpt><trkpt lat="42.0529294" lon="12.6211544"><ele>143.0</ele><time>2026-05-03T10:47:20.912Z</time></trkpt><trkpt lat="42.0529919" lon="12.6210616"><ele>143.0</ele><time>2026-05-03T10:47:21.909Z</time></trkpt><trkpt lat="42.0530472" lon="12.6209896"><ele>143.5</ele><time>2026-05-03T10:47:22.913Z</time></trkpt><trkpt lat="42.05311" lon="12.6209393"><ele>144.0</ele><time>2026-05-03T10:47:23.905Z</time></trkpt><trkpt lat="42.0531705" lon="12.6209061"><ele>144.5</ele><time>2026-05-03T10:47:24.929Z</time></trkpt><trkpt lat="42.0532022" lon="12.6208215"><ele>145.0</ele><time>2026-05-03T10:47:25.906Z</time></trkpt><trkpt lat="42.0532229" lon="12.6207412"><ele>145.5</ele><time>2026-05-03T10:47:26.896Z</time></trkpt><trkpt lat="42.0532293" lon="12.6205899"><ele>146.0</ele><time>2026-05-03T10:47:28.903Z</time></trkpt><trkpt lat="42.0532304" lon="12.6204725"><ele>146.0</ele><time>2026-05-03T10:47:29.912Z</time></trkpt><trkpt lat="42.0532427" lon="12.6203366"><ele>146.0</ele><time>2026-05-03T10:47:30.901Z</time></trkpt><trkpt lat="42.0532366" lon="12.6201591"><ele>146.0</ele><time>2026-05-03T10:47:31.909Z</time></trkpt><trkpt lat="42.0532372" lon="12.6199834"><ele>146.0</ele><time>2026-05-03T10:47:32.908Z</time></trkpt><trkpt lat="42.0532327" lon="12.6198352"><ele>145.0</ele><time>2026-05-03T10:47:33.901Z</time></trkpt><trkpt lat="42.0532368" lon="12.6197051"><ele>144.0</ele><time>2026-05-03T10:47:34.909Z</time></trkpt><trkpt lat="42.0532476" lon="12.6195854"><ele>143.0</ele><time>2026-05-03T10:47:35.906Z</time></trkpt><trkpt lat="42.0532606" lon="12.6194656"><ele>142.0</ele><time>2026-05-03T10:47:36.931Z</time></trkpt><trkpt lat="42.0532773" lon="12.6193621"><ele>141.0</ele><time>2026-05-03T10:47:37.925Z</time></trkpt><trkpt lat="42.0532934" lon="12.6192536"><ele>140.0</ele><time>2026-05-03T10:47:38.932Z</time></trkpt><trkpt lat="42.0533005" lon="12.6191468"><ele>139.8</ele><time>2026-05-03T10:47:39.908Z</time></trkpt><trkpt lat="42.0533105" lon="12.6190365"><ele>139.6</ele><time>2026-05-03T10:47:40.902Z</time></trkpt><trkpt lat="42.0533296" lon="12.6188923"><ele>139.4</ele><time>2026-05-03T10:47:41.904Z</time></trkpt><trkpt lat="42.0533343" lon="12.6187331"><ele>139.2</ele><time>2026-05-03T10:47:42.9Z</time></trkpt><trkpt lat="42.0533575" lon="12.6186089"><ele>139.0</ele><time>2026-05-03T10:47:43.904Z</time></trkpt><trkpt lat="42.0533676" lon="12.6184812"><ele>138.0</ele><time>2026-05-03T10:47:44.897Z</time></trkpt><trkpt lat="42.0533864" lon="12.6183218"><ele>137.0</ele><time>2026-05-03T10:47:45.909Z</time></trkpt><trkpt lat="42.0534458" lon="12.6181576"><ele>136.0</ele><time>2026-05-03T10:47:46.899Z</time></trkpt><trkpt lat="42.053492" lon="12.6180504"><ele>135.0</ele><time>2026-05-03T10:47:47.904Z</time></trkpt><trkpt lat="42.0535262" lon="12.6179108"><ele>135.0</ele><time>2026-05-03T10:47:48.9Z</time></trkpt><trkpt lat="42.0535527" lon="12.6177986"><ele>135.0</ele><time>2026-05-03T10:47:49.906Z</time></trkpt><trkpt lat="42.0535858" lon="12.6176779"><ele>135.0</ele><time>2026-05-03T10:47:50.907Z</time></trkpt><trkpt lat="42.0536149" lon="12.6175614"><ele>135.0</ele><time>2026-05-03T10:47:51.903Z</time></trkpt><trkpt lat="42.0536299" lon="12.6174261"><ele>135.0</ele><time>2026-05-03T10:47:52.911Z</time></trkpt><trkpt lat="42.0536583" lon="12.6173407"><ele>135.0</ele><time>2026-05-03T10:47:53.905Z</time></trkpt><trkpt lat="42.0536449" lon="12.6172391"><ele>135.0</ele><time>2026-05-03T10:47:54.903Z</time></trkpt><trkpt lat="42.053635" lon="12.6171128"><ele>135.0</ele><time>2026-05-03T10:47:55.908Z</time></trkpt><trkpt lat="42.0536201" lon="12.6169982"><ele>135.0</ele><time>2026-05-03T10:47:56.902Z</time></trkpt><trkpt lat="42.0535979" lon="12.6169128"><ele>135.0</ele><time>2026-05-03T10:47:57.91Z</time></trkpt><trkpt lat="42.0535541" lon="12.6167594"><ele>135.0</ele><time>2026-05-03T10:47:59.909Z</time></trkpt><trkpt lat="42.0535589" lon="12.6166739"><ele>135.0</ele><time>2026-05-03T10:48:00.912Z</time></trkpt><trkpt lat="42.053574" lon="12.6165822"><ele>135.83333333333334</ele><time>2026-05-03T10:48:01.909Z</time></trkpt><trkpt lat="42.0536008" lon="12.6165026"><ele>136.66666666666666</ele><time>2026-05-03T10:48:02.913Z</time></trkpt><trkpt lat="42.0536599" lon="12.6164093"><ele>137.5</ele><time>2026-05-03T10:48:04.915Z</time></trkpt><trkpt lat="42.0537575" lon="12.616376"><ele>138.33333333333331</ele><time>2026-05-03T10:48:06.937Z</time></trkpt><trkpt lat="42.0538605" lon="12.6163615"><ele>139.16666666666666</ele><time>2026-05-03T10:48:08.902Z</time></trkpt><trkpt lat="42.0539281" lon="12.6163554"><ele>140.0</ele><time>2026-05-03T10:48:09.903Z</time></trkpt><trkpt lat="42.054025" lon="12.6162965"><ele>140.0</ele><time>2026-05-03T10:48:11.906Z</time></trkpt><trkpt lat="42.0540624" lon="12.6161956"><ele>140.0</ele><time>2026-05-03T10:48:13.903Z</time></trkpt><trkpt lat="42.0540401" lon="12.616076"><ele>140.0</ele><time>2026-05-03T10:48:14.9Z</time></trkpt><trkpt lat="42.0540211" lon="12.6159523"><ele>140.0</ele><time>2026-05-03T10:48:15.902Z</time></trkpt><trkpt lat="42.0539586" lon="12.6158306"><ele>140.0</ele><time>2026-05-03T10:48:16.901Z</time></trkpt><trkpt lat="42.0539332" lon="12.6156948"><ele>140.0</ele><time>2026-05-03T10:48:17.902Z</time></trkpt><trkpt lat="42.053906" lon="12.615596"><ele>140.0</ele><time>2026-05-03T10:48:18.897Z</time></trkpt><trkpt lat="42.0538629" lon="12.615513"><ele>140.0</ele><time>2026-05-03T10:48:19.925Z</time></trkpt><trkpt lat="42.0538726" lon="12.6154247"><ele>140.0</ele><time>2026-05-03T10:48:20.901Z</time></trkpt><trkpt lat="42.0538869" lon="12.615239"><ele>140.0</ele><time>2026-05-03T10:48:22.899Z</time></trkpt><trkpt lat="42.0539538" lon="12.615132"><ele>140.16666666666666</ele><time>2026-05-03T10:48:24.93Z</time></trkpt><trkpt lat="42.0540517" lon="12.6150448"><ele>140.33333333333331</ele><time>2026-05-03T10:48:26.904Z</time></trkpt><trkpt lat="42.0541206" lon="12.6150359"><ele>140.5</ele><time>2026-05-03T10:48:27.899Z</time></trkpt><trkpt lat="42.0542031" lon="12.6150523"><ele>140.66666666666666</ele><time>2026-05-03T10:48:28.92Z</time></trkpt><trkpt lat="42.0542863" lon="12.6150999"><ele>140.83333333333334</ele><time>2026-05-03T10:48:29.92Z</time></trkpt><trkpt lat="42.0543645" lon="12.6151244"><ele>141.0</ele><time>2026-05-03T10:48:30.899Z</time></trkpt><trkpt lat="42.0544437" lon="12.6151696"><ele>140.4</ele><time>2026-05-03T10:48:31.948Z</time></trkpt><trkpt lat="42.0545315" lon="12.6152591"><ele>139.8</ele><time>2026-05-03T10:48:32.932Z</time></trkpt><trkpt lat="42.0546202" lon="12.6153173"><ele>139.20000000000002</ele><time>2026-05-03T10:48:33.911Z</time></trkpt><trkpt lat="42.0546889" lon="12.6154182"><ele>138.6</ele><time>2026-05-03T10:48:34.932Z</time></trkpt><trkpt lat="42.0547436" lon="12.6154987"><ele>138.0</ele><time>2026-05-03T10:48:35.924Z</time></trkpt><trkpt lat="42.0548043" lon="12.6155945"><ele>137.5</ele><time>2026-05-03T10:48:36.904Z</time></trkpt><trkpt lat="42.0548577" lon="12.6156679"><ele>137.0</ele><time>2026-05-03T10:48:37.912Z</time></trkpt><trkpt lat="42.0549422" lon="12.6157483"><ele>136.5</ele><time>2026-05-03T10:48:38.928Z</time></trkpt><trkpt lat="42.0550298" lon="12.6158859"><ele>136.0</ele><time>2026-05-03T10:48:39.902Z</time></trkpt><trkpt lat="42.0551327" lon="12.6160374"><ele>135.0</ele><time>2026-05-03T10:48:40.907Z</time></trkpt><trkpt lat="42.055245" lon="12.6162034"><ele>134.0</ele><time>2026-05-03T10:48:41.899Z</time></trkpt><trkpt lat="42.0554029" lon="12.6164514"><ele>133.0</ele><time>2026-05-03T10:48:42.901Z</time></trkpt><trkpt lat="42.0555479" lon="12.6166969"><ele>133.0</ele><time>2026-05-03T10:48:43.905Z</time></trkpt><trkpt lat="42.055686" lon="12.6168939"><ele>133.0</ele><time>2026-05-03T10:48:44.921Z</time></trkpt><trkpt lat="42.0557697" lon="12.6170232"><ele>133.0</ele><time>2026-05-03T10:48:45.914Z</time></trkpt><trkpt lat="42.0558358" lon="12.6171139"><ele>133.0</ele><time>2026-05-03T10:48:46.93Z</time></trkpt><trkpt lat="42.0558907" lon="12.6172262"><ele>134.66666666666669</ele><time>2026-05-03T10:48:47.936Z</time></trkpt><trkpt lat="42.0559444" lon="12.6172892"><ele>136.33333333333334</ele><time>2026-05-03T10:48:48.907Z</time></trkpt><trkpt lat="42.0560028" lon="12.6173523"><ele>138.0</ele><time>2026-05-03T10:48:49.911Z</time></trkpt><trkpt lat="42.0560724" lon="12.6174313"><ele>139.66666666666666</ele><time>2026-05-03T10:48:50.932Z</time></trkpt><trkpt lat="42.0561204" lon="12.6175071"><ele>141.33333333333331</ele><time>2026-05-03T10:48:51.96Z</time></trkpt><trkpt lat="42.0561915" lon="12.6175474"><ele>143.0</ele><time>2026-05-03T10:48:52.914Z</time></trkpt><trkpt lat="42.0562733" lon="12.6175729"><ele>143.0</ele><time>2026-05-03T10:48:53.919Z</time></trkpt><trkpt lat="42.0563604" lon="12.6175863"><ele>143.0</ele><time>2026-05-03T10:48:54.915Z</time></trkpt><trkpt lat="42.0564383" lon="12.6176077"><ele>143.0</ele><time>2026-05-03T10:48:55.919Z</time></trkpt><trkpt lat="42.0565137" lon="12.6176303"><ele>143.0</ele><time>2026-05-03T10:48:56.921Z</time></trkpt><trkpt lat="42.0565958" lon="12.617651"><ele>143.0</ele><time>2026-05-03T10:48:57.942Z</time></trkpt><trkpt lat="42.0566859" lon="12.6176857"><ele>143.0</ele><time>2026-05-03T10:48:58.938Z</time></trkpt><trkpt lat="42.0567844" lon="12.617704"><ele>142.5</ele><time>2026-05-03T10:48:59.943Z</time></trkpt><trkpt lat="42.0569142" lon="12.6176857"><ele>142.0</ele><time>2026-05-03T10:49:00.915Z</time></trkpt><trkpt lat="42.0570628" lon="12.6176365"><ele>141.5</ele><time>2026-05-03T10:49:01.912Z</time></trkpt><trkpt lat="42.0572245" lon="12.6175884"><ele>141.0</ele><time>2026-05-03T10:49:02.91Z</time></trkpt><trkpt lat="42.0573866" lon="12.6175036"><ele>140.75</ele><time>2026-05-03T10:49:03.903Z</time></trkpt><trkpt lat="42.0574937" lon="12.6174423"><ele>140.5</ele><time>2026-05-03T10:49:04.903Z</time></trkpt><trkpt lat="42.0576262" lon="12.6173608"><ele>140.25</ele><time>2026-05-03T10:49:05.912Z</time></trkpt><trkpt lat="42.0577348" lon="12.6172931"><ele>140.0</ele><time>2026-05-03T10:49:06.91Z</time></trkpt><trkpt lat="42.0578244" lon="12.6172451"><ele>140.0</ele><time>2026-05-03T10:49:07.907Z</time></trkpt><trkpt lat="42.0579559" lon="12.6171342"><ele>140.0</ele><time>2026-05-03T10:49:08.914Z</time></trkpt><trkpt lat="42.0580404" lon="12.6170461"><ele>140.0</ele><time>2026-05-03T10:49:09.916Z</time></trkpt><trkpt lat="42.0581277" lon="12.6169498"><ele>140.0</ele><time>2026-05-03T10:49:10.911Z</time></trkpt><trkpt lat="42.0582142" lon="12.6168699"><ele>140.2</ele><time>2026-05-03T10:49:11.937Z</time></trkpt><trkpt lat="42.0582991" lon="12.6167683"><ele>140.4</ele><time>2026-05-03T10:49:12.91Z</time></trkpt><trkpt lat="42.0583633" lon="12.6166727"><ele>140.6</ele><time>2026-05-03T10:49:13.933Z</time></trkpt><trkpt lat="42.0584223" lon="12.6165854"><ele>140.8</ele><time>2026-05-03T10:49:14.912Z</time></trkpt><trkpt lat="42.058502" lon="12.6164629"><ele>141.0</ele><time>2026-05-03T10:49:15.912Z</time></trkpt><trkpt lat="42.0586211" lon="12.6163313"><ele>141.0</ele><time>2026-05-03T10:49:16.954Z</time></trkpt><trkpt lat="42.0587607" lon="12.6162174"><ele>141.0</ele><time>2026-05-03T10:49:17.937Z</time></trkpt><trkpt lat="42.0589292" lon="12.6160934"><ele>141.0</ele><time>2026-05-03T10:49:18.951Z</time></trkpt><trkpt lat="42.0590549" lon="12.6160177"><ele>141.5</ele><time>2026-05-03T10:49:19.91Z</time></trkpt><trkpt lat="42.059214" lon="12.6159747"><ele>142.0</ele><time>2026-05-03T10:49:20.913Z</time></trkpt><trkpt lat="42.0593427" lon="12.6159322"><ele>142.5</ele><time>2026-05-03T10:49:21.911Z</time></trkpt><trkpt lat="42.0594782" lon="12.6158921"><ele>143.0</ele><time>2026-05-03T10:49:22.907Z</time></trkpt><trkpt lat="42.0596078" lon="12.6158441"><ele>143.0</ele><time>2026-05-03T10:49:23.913Z</time></trkpt><trkpt lat="42.0597593" lon="12.6157595"><ele>143.0</ele><time>2026-05-03T10:49:24.908Z</time></trkpt><trkpt lat="42.0599198" lon="12.6156839"><ele>143.0</ele><time>2026-05-03T10:49:25.909Z</time></trkpt><trkpt lat="42.0600961" lon="12.6156207"><ele>142.5</ele><time>2026-05-03T10:49:26.912Z</time></trkpt><trkpt lat="42.0602369" lon="12.6155506"><ele>142.0</ele><time>2026-05-03T10:49:27.982Z</time></trkpt><trkpt lat="42.0604124" lon="12.6155405"><ele>141.5</ele><time>2026-05-03T10:49:28.922Z</time></trkpt><trkpt lat="42.0604871" lon="12.6155347"><ele>141.0</ele><time>2026-05-03T10:49:30.077Z</time></trkpt><trkpt lat="42.0607407" lon="12.615564"><ele>140.5</ele><time>2026-05-03T10:49:31.923Z</time></trkpt><trkpt lat="42.0608698" lon="12.6155353"><ele>140.0</ele><time>2026-05-03T10:49:32.905Z</time></trkpt><trkpt lat="42.061003" lon="12.6155991"><ele>139.5</ele><time>2026-05-03T10:49:33.9Z</time></trkpt><trkpt lat="42.0611283" lon="12.615677"><ele>139.0</ele><time>2026-05-03T10:49:34.906Z</time></trkpt><trkpt lat="42.0612843" lon="12.6157684"><ele>139.0</ele><time>2026-05-03T10:49:35.897Z</time></trkpt><trkpt lat="42.0614595" lon="12.6157915"><ele>139.0</ele><time>2026-05-03T10:49:36.913Z</time></trkpt><trkpt lat="42.0615767" lon="12.6158214"><ele>139.0</ele><time>2026-05-03T10:49:37.902Z</time></trkpt><trkpt lat="42.0616868" lon="12.6158327"><ele>139.0</ele><time>2026-05-03T10:49:38.895Z</time></trkpt><trkpt lat="42.0618272" lon="12.6158381"><ele>138.8</ele><time>2026-05-03T10:49:39.904Z</time></trkpt><trkpt lat="42.0619027" lon="12.6158064"><ele>138.60000000000002</ele><time>2026-05-03T10:49:40.911Z</time></trkpt><trkpt lat="42.0620172" lon="12.6157899"><ele>138.4</ele><time>2026-05-03T10:49:41.903Z</time></trkpt><trkpt lat="42.0621253" lon="12.615779"><ele>138.20000000000002</ele><time>2026-05-03T10:49:42.917Z</time></trkpt><trkpt lat="42.0622325" lon="12.6157839"><ele>138.0</ele><time>2026-05-03T10:49:43.911Z</time></trkpt><trkpt lat="42.0623503" lon="12.615779"><ele>137.0</ele><time>2026-05-03T10:49:44.93Z</time></trkpt><trkpt lat="42.0624809" lon="12.6157771"><ele>136.0</ele><time>2026-05-03T10:49:45.911Z</time></trkpt><trkpt lat="42.0626245" lon="12.6157607"><ele>135.0</ele><time>2026-05-03T10:49:46.934Z</time></trkpt><trkpt lat="42.0627858" lon="12.6157318"><ele>134.0</ele><time>2026-05-03T10:49:47.929Z</time></trkpt><trkpt lat="42.0629844" lon="12.6157024"><ele>134.0</ele><time>2026-05-03T10:49:48.904Z</time></trkpt><trkpt lat="42.0632692" lon="12.6156425"><ele>134.0</ele><time>2026-05-03T10:49:49.898Z</time></trkpt><trkpt lat="42.0635335" lon="12.6156099"><ele>132.0</ele><time>2026-05-03T10:49:50.898Z</time></trkpt><trkpt lat="42.0637579" lon="12.6156108"><ele>130.0</ele><time>2026-05-03T10:49:51.896Z</time></trkpt><trkpt lat="42.06395" lon="12.6156178"><ele>128.0</ele><time>2026-05-03T10:49:52.899Z</time></trkpt><trkpt lat="42.0641371" lon="12.6156011"><ele>125.66666666666666</ele><time>2026-05-03T10:49:53.898Z</time></trkpt><trkpt lat="42.0643166" lon="12.6155754"><ele>123.33333333333334</ele><time>2026-05-03T10:49:54.9Z</time></trkpt><trkpt lat="42.0644783" lon="12.6155424"><ele>121.0</ele><time>2026-05-03T10:49:55.901Z</time></trkpt><trkpt lat="42.0646516" lon="12.6155464"><ele>121.0</ele><time>2026-05-03T10:49:56.91Z</time></trkpt><trkpt lat="42.0648235" lon="12.6155138"><ele>121.0</ele><time>2026-05-03T10:49:57.906Z</time></trkpt><trkpt lat="42.0649882" lon="12.6154696"><ele>121.0</ele><time>2026-05-03T10:49:58.903Z</time></trkpt><trkpt lat="42.065123" lon="12.615442"><ele>118.66666666666667</ele><time>2026-05-03T10:49:59.905Z</time></trkpt><trkpt lat="42.0653242" lon="12.6153201"><ele>116.33333333333334</ele><time>2026-05-03T10:50:00.91Z</time></trkpt><trkpt lat="42.0655078" lon="12.6152284"><ele>114.0</ele><time>2026-05-03T10:50:01.916Z</time></trkpt><trkpt lat="42.0656651" lon="12.6151662"><ele>114.66666666666666</ele><time>2026-05-03T10:50:02.912Z</time></trkpt><trkpt lat="42.0658182" lon="12.6150906"><ele>115.33333333333333</ele><time>2026-05-03T10:50:03.909Z</time></trkpt><trkpt lat="42.0660095" lon="12.6150513"><ele>116.0</ele><time>2026-05-03T10:50:04.999Z</time></trkpt><trkpt lat="42.0661736" lon="12.6149807"><ele>116.0</ele><time>2026-05-03T10:50:05.933Z</time></trkpt><trkpt lat="42.0663288" lon="12.6149142"><ele>116.0</ele><time>2026-05-03T10:50:06.953Z</time></trkpt><trkpt lat="42.0664854" lon="12.6148386"><ele>116.0</ele><time>2026-05-03T10:50:07.959Z</time></trkpt><trkpt lat="42.0666389" lon="12.6148149"><ele>115.33333333333333</ele><time>2026-05-03T10:50:08.955Z</time></trkpt><trkpt lat="42.0667993" lon="12.6148256"><ele>114.66666666666666</ele><time>2026-05-03T10:50:09.904Z</time></trkpt><trkpt lat="42.0669904" lon="12.6148178"><ele>114.0</ele><time>2026-05-03T10:50:10.909Z</time></trkpt><trkpt lat="42.0671399" lon="12.6148865"><ele>114.0</ele><time>2026-05-03T10:50:11.913Z</time></trkpt><trkpt lat="42.0672862" lon="12.6149814"><ele>114.0</ele><time>2026-05-03T10:50:12.908Z</time></trkpt><trkpt lat="42.0673761" lon="12.6150767"><ele>114.0</ele><time>2026-05-03T10:50:13.938Z</time></trkpt><trkpt lat="42.0675192" lon="12.6151517"><ele>114.0</ele><time>2026-05-03T10:50:14.915Z</time></trkpt><trkpt lat="42.0676744" lon="12.6152604"><ele>111.66666666666666</ele><time>2026-05-03T10:50:15.917Z</time></trkpt><trkpt lat="42.0678183" lon="12.6153571"><ele>109.33333333333333</ele><time>2026-05-03T10:50:16.917Z</time></trkpt><trkpt lat="42.0679517" lon="12.6154548"><ele>107.0</ele><time>2026-05-03T10:50:17.913Z</time></trkpt><trkpt lat="42.0680921" lon="12.6155485"><ele>107.0</ele><time>2026-05-03T10:50:18.921Z</time></trkpt><trkpt lat="42.0682185" lon="12.6156531"><ele>107.0</ele><time>2026-05-03T10:50:19.924Z</time></trkpt><trkpt lat="42.0683594" lon="12.6157423"><ele>107.0</ele><time>2026-05-03T10:50:20.929Z</time></trkpt><trkpt lat="42.0684817" lon="12.6158146"><ele>107.0</ele><time>2026-05-03T10:50:21.928Z</time></trkpt><trkpt lat="42.0686268" lon="12.6158728"><ele>107.33333333333333</ele><time>2026-05-03T10:50:22.925Z</time></trkpt><trkpt lat="42.0687703" lon="12.6159521"><ele>107.66666666666666</ele><time>2026-05-03T10:50:23.92Z</time></trkpt><trkpt lat="42.0689196" lon="12.616001"><ele>108.0</ele><time>2026-05-03T10:50:24.942Z</time></trkpt><trkpt lat="42.0691162" lon="12.6160004"><ele>108.0</ele><time>2026-05-03T10:50:25.915Z</time></trkpt><trkpt lat="42.0693213" lon="12.6159718"><ele>108.0</ele><time>2026-05-03T10:50:26.922Z</time></trkpt><trkpt lat="42.0695229" lon="12.6159325"><ele>108.0</ele><time>2026-05-03T10:50:27.908Z</time></trkpt><trkpt lat="42.0697463" lon="12.6159121"><ele>108.0</ele><time>2026-05-03T10:50:28.909Z</time></trkpt><trkpt lat="42.0699348" lon="12.6159154"><ele>108.0</ele><time>2026-05-03T10:50:29.917Z</time></trkpt><trkpt lat="42.0701268" lon="12.6159024"><ele>108.0</ele><time>2026-05-03T10:50:30.919Z</time></trkpt><trkpt lat="42.0703338" lon="12.6158895"><ele>105.33333333333334</ele><time>2026-05-03T10:50:31.921Z</time></trkpt><trkpt lat="42.0705488" lon="12.6158956"><ele>102.66666666666667</ele><time>2026-05-03T10:50:32.915Z</time></trkpt><trkpt lat="42.0707364" lon="12.6158981"><ele>100.0</ele><time>2026-05-03T10:50:33.918Z</time></trkpt><trkpt lat="42.0709359" lon="12.6159219"><ele>97.66666666666667</ele><time>2026-05-03T10:50:34.915Z</time></trkpt><trkpt lat="42.0711287" lon="12.6159725"><ele>95.33333333333334</ele><time>2026-05-03T10:50:35.909Z</time></trkpt><trkpt lat="42.071347" lon="12.6159971"><ele>93.0</ele><time>2026-05-03T10:50:36.911Z</time></trkpt><trkpt lat="42.0715507" lon="12.6160112"><ele>91.66666666666667</ele><time>2026-05-03T10:50:37.924Z</time></trkpt><trkpt lat="42.0717368" lon="12.6160521"><ele>90.33333333333334</ele><time>2026-05-03T10:50:38.933Z</time></trkpt><trkpt lat="42.07193" lon="12.6160711"><ele>89.0</ele><time>2026-05-03T10:50:39.916Z</time></trkpt><trkpt lat="42.0721351" lon="12.6161017"><ele>89.0</ele><time>2026-05-03T10:50:40.918Z</time></trkpt><trkpt lat="42.0723059" lon="12.6161272"><ele>89.0</ele><time>2026-05-03T10:50:41.915Z</time></trkpt><trkpt lat="42.0724736" lon="12.6161368"><ele>89.0</ele><time>2026-05-03T10:50:42.911Z</time></trkpt><trkpt lat="42.072644" lon="12.6161659"><ele>87.0</ele><time>2026-05-03T10:50:43.916Z</time></trkpt><trkpt lat="42.0728059" lon="12.6161763"><ele>85.0</ele><time>2026-05-03T10:50:44.917Z</time></trkpt><trkpt lat="42.072983" lon="12.6161934"><ele>83.0</ele><time>2026-05-03T10:50:45.91Z</time></trkpt><trkpt lat="42.0731755" lon="12.6162396"><ele>81.66666666666667</ele><time>2026-05-03T10:50:46.916Z</time></trkpt><trkpt lat="42.0733441" lon="12.6162859"><ele>80.33333333333333</ele><time>2026-05-03T10:50:47.917Z</time></trkpt><trkpt lat="42.0735199" lon="12.6163413"><ele>79.0</ele><time>2026-05-03T10:50:48.915Z</time></trkpt><trkpt lat="42.073735" lon="12.616463"><ele>79.0</ele><time>2026-05-03T10:50:49.908Z</time></trkpt><trkpt lat="42.0739361" lon="12.616576"><ele>79.0</ele><time>2026-05-03T10:50:50.919Z</time></trkpt><trkpt lat="42.0741224" lon="12.6166852"><ele>79.0</ele><time>2026-05-03T10:50:51.914Z</time></trkpt><trkpt lat="42.0742988" lon="12.6168014"><ele>78.0</ele><time>2026-05-03T10:50:52.915Z</time></trkpt><trkpt lat="42.0744831" lon="12.6169075"><ele>77.0</ele><time>2026-05-03T10:50:53.914Z</time></trkpt><trkpt lat="42.0746648" lon="12.6169948"><ele>76.0</ele><time>2026-05-03T10:50:54.918Z</time></trkpt><trkpt lat="42.07483" lon="12.6170972"><ele>74.0</ele><time>2026-05-03T10:50:55.915Z</time></trkpt><trkpt lat="42.0749759" lon="12.6171606"><ele>72.0</ele><time>2026-05-03T10:50:56.916Z</time></trkpt><trkpt lat="42.0751205" lon="12.6172114"><ele>70.0</ele><time>2026-05-03T10:50:57.929Z</time></trkpt><trkpt lat="42.0753075" lon="12.6172369"><ele>70.0</ele><time>2026-05-03T10:50:58.939Z</time></trkpt><trkpt lat="42.0754845" lon="12.6172827"><ele>70.0</ele><time>2026-05-03T10:50:59.914Z</time></trkpt><trkpt lat="42.0756611" lon="12.6172864"><ele>70.0</ele><time>2026-05-03T10:51:00.92Z</time></trkpt><trkpt lat="42.0758338" lon="12.6172858"><ele>69.33333333333333</ele><time>2026-05-03T10:51:01.922Z</time></trkpt><trkpt lat="42.0759949" lon="12.6172639"><ele>68.66666666666667</ele><time>2026-05-03T10:51:02.923Z</time></trkpt><trkpt lat="42.0761615" lon="12.6172361"><ele>68.0</ele><time>2026-05-03T10:51:03.92Z</time></trkpt><trkpt lat="42.0763367" lon="12.6172138"><ele>68.0</ele><time>2026-05-03T10:51:04.922Z</time></trkpt><trkpt lat="42.0765064" lon="12.6172021"><ele>68.0</ele><time>2026-05-03T10:51:05.92Z</time></trkpt><trkpt lat="42.0766401" lon="12.617194"><ele>68.0</ele><time>2026-05-03T10:51:06.922Z</time></trkpt><trkpt lat="42.0767778" lon="12.6171996"><ele>68.0</ele><time>2026-05-03T10:51:07.919Z</time></trkpt><trkpt lat="42.0768906" lon="12.6171948"><ele>67.4</ele><time>2026-05-03T10:51:08.922Z</time></trkpt><trkpt lat="42.0769865" lon="12.6172254"><ele>66.8</ele><time>2026-05-03T10:51:09.917Z</time></trkpt><trkpt lat="42.0771103" lon="12.6172746"><ele>66.2</ele><time>2026-05-03T10:51:10.92Z</time></trkpt><trkpt lat="42.0771892" lon="12.6173394"><ele>65.6</ele><time>2026-05-03T10:51:11.912Z</time></trkpt><trkpt lat="42.0772431" lon="12.6174152"><ele>65.0</ele><time>2026-05-03T10:51:12.912Z</time></trkpt><trkpt lat="42.0773147" lon="12.6174748"><ele>65.0</ele><time>2026-05-03T10:51:13.918Z</time></trkpt><trkpt lat="42.0773819" lon="12.617506"><ele>65.0</ele><time>2026-05-03T10:51:14.926Z</time></trkpt><trkpt lat="42.0774468" lon="12.6175161"><ele>65.0</ele><time>2026-05-03T10:51:15.922Z</time></trkpt><trkpt lat="42.0775131" lon="12.6174911"><ele>65.0</ele><time>2026-05-03T10:51:16.921Z</time></trkpt><trkpt lat="42.0776104" lon="12.6174262"><ele>65.0</ele><time>2026-05-03T10:51:17.918Z</time></trkpt><trkpt lat="42.0777257" lon="12.6173026"><ele>66.0</ele><time>2026-05-03T10:51:18.913Z</time></trkpt><trkpt lat="42.0778531" lon="12.6171436"><ele>67.0</ele><time>2026-05-03T10:51:19.921Z</time></trkpt><trkpt lat="42.0779708" lon="12.616933"><ele>68.0</ele><time>2026-05-03T10:51:20.918Z</time></trkpt><trkpt lat="42.0781183" lon="12.616762"><ele>64.33333333333334</ele><time>2026-05-03T10:51:21.918Z</time></trkpt><trkpt lat="42.0782761" lon="12.616553"><ele>60.66666666666667</ele><time>2026-05-03T10:51:22.917Z</time></trkpt><trkpt lat="42.0784373" lon="12.6163364"><ele>57.0</ele><time>2026-05-03T10:51:23.92Z</time></trkpt><trkpt lat="42.0786099" lon="12.6161197"><ele>57.0</ele><time>2026-05-03T10:51:24.918Z</time></trkpt><trkpt lat="42.07878" lon="12.6158892"><ele>57.0</ele><time>2026-05-03T10:51:25.913Z</time></trkpt><trkpt lat="42.0789562" lon="12.6156248"><ele>54.0</ele><time>2026-05-03T10:51:26.918Z</time></trkpt><trkpt lat="42.0791521" lon="12.6153384"><ele>51.0</ele><time>2026-05-03T10:51:27.916Z</time></trkpt><trkpt lat="42.0793623" lon="12.6150894"><ele>51.0</ele><time>2026-05-03T10:51:28.925Z</time></trkpt><trkpt lat="42.0795765" lon="12.614824"><ele>51.0</ele><time>2026-05-03T10:51:29.913Z</time></trkpt><trkpt lat="42.0797677" lon="12.6145452"><ele>49.5</ele><time>2026-05-03T10:51:30.923Z</time></trkpt><trkpt lat="42.0799438" lon="12.6143002"><ele>48.0</ele><time>2026-05-03T10:51:31.914Z</time></trkpt><trkpt lat="42.080118" lon="12.6140496"><ele>48.0</ele><time>2026-05-03T10:51:32.931Z</time></trkpt><trkpt lat="42.0802992" lon="12.6137932"><ele>48.0</ele><time>2026-05-03T10:51:33.921Z</time></trkpt><trkpt lat="42.0805012" lon="12.6135573"><ele>47.5</ele><time>2026-05-03T10:51:34.919Z</time></trkpt><trkpt lat="42.0806567" lon="12.613341"><ele>47.0</ele><time>2026-05-03T10:51:35.919Z</time></trkpt><trkpt lat="42.0808186" lon="12.6131095"><ele>47.0</ele><time>2026-05-03T10:51:36.924Z</time></trkpt><trkpt lat="42.080971" lon="12.612891"><ele>47.0</ele><time>2026-05-03T10:51:37.924Z</time></trkpt><trkpt lat="42.08111" lon="12.6126818"><ele>47.0</ele><time>2026-05-03T10:51:38.918Z</time></trkpt><trkpt lat="42.0812134" lon="12.6124818"><ele>47.33333333333333</ele><time>2026-05-03T10:51:39.92Z</time></trkpt><trkpt lat="42.0813152" lon="12.6122312"><ele>47.666666666666664</ele><time>2026-05-03T10:51:40.911Z</time></trkpt><trkpt lat="42.081417" lon="12.6119542"><ele>48.0</ele><time>2026-05-03T10:51:41.919Z</time></trkpt><trkpt lat="42.0815003" lon="12.6116727"><ele>46.666666666666664</ele><time>2026-05-03T10:51:42.918Z</time></trkpt><trkpt lat="42.0815747" lon="12.6114435"><ele>45.33333333333333</ele><time>2026-05-03T10:51:43.913Z</time></trkpt><trkpt lat="42.0816293" lon="12.6112072"><ele>44.0</ele><time>2026-05-03T10:51:44.919Z</time></trkpt><trkpt lat="42.0816818" lon="12.6109594"><ele>43.666666666666664</ele><time>2026-05-03T10:51:45.922Z</time></trkpt><trkpt lat="42.0817479" lon="12.6107224"><ele>43.333333333333336</ele><time>2026-05-03T10:51:46.917Z</time></trkpt><trkpt lat="42.0818216" lon="12.6105009"><ele>43.0</ele><time>2026-05-03T10:51:47.92Z</time></trkpt><trkpt lat="42.0818809" lon="12.6102984"><ele>42.333333333333336</ele><time>2026-05-03T10:51:48.916Z</time></trkpt><trkpt lat="42.081945" lon="12.6100905"><ele>41.666666666666664</ele><time>2026-05-03T10:51:49.915Z</time></trkpt><trkpt lat="42.0820188" lon="12.6098612"><ele>41.0</ele><time>2026-05-03T10:51:50.916Z</time></trkpt><trkpt lat="42.0820774" lon="12.6096455"><ele>40.33333333333333</ele><time>2026-05-03T10:51:51.914Z</time></trkpt><trkpt lat="42.0821553" lon="12.6094459"><ele>39.666666666666664</ele><time>2026-05-03T10:51:52.941Z</time></trkpt><trkpt lat="42.0822336" lon="12.6092324"><ele>39.0</ele><time>2026-05-03T10:51:53.919Z</time></trkpt><trkpt lat="42.0823106" lon="12.6090297"><ele>39.0</ele><time>2026-05-03T10:51:54.925Z</time></trkpt><trkpt lat="42.082384" lon="12.6087813"><ele>39.0</ele><time>2026-05-03T10:51:55.915Z</time></trkpt><trkpt lat="42.0824174" lon="12.6085333"><ele>39.0</ele><time>2026-05-03T10:51:56.915Z</time></trkpt><trkpt lat="42.0824519" lon="12.6082949"><ele>36.333333333333336</ele><time>2026-05-03T10:51:57.915Z</time></trkpt><trkpt lat="42.0825345" lon="12.6080424"><ele>33.66666666666667</ele><time>2026-05-03T10:51:58.915Z</time></trkpt><trkpt lat="42.0826008" lon="12.6078215"><ele>31.0</ele><time>2026-05-03T10:51:59.917Z</time></trkpt><trkpt lat="42.0826713" lon="12.607589"><ele>30.0</ele><time>2026-05-03T10:52:00.919Z</time></trkpt><trkpt lat="42.0827437" lon="12.6073593"><ele>29.0</ele><time>2026-05-03T10:52:01.913Z</time></trkpt><trkpt lat="42.0828384" lon="12.607142"><ele>28.0</ele><time>2026-05-03T10:52:02.917Z</time></trkpt><trkpt lat="42.0829365" lon="12.6069378"><ele>27.0</ele><time>2026-05-03T10:52:03.916Z</time></trkpt><trkpt lat="42.0830322" lon="12.6067619"><ele>26.0</ele><time>2026-05-03T10:52:04.915Z</time></trkpt><trkpt lat="42.0831176" lon="12.6065944"><ele>25.0</ele><time>2026-05-03T10:52:05.918Z</time></trkpt><trkpt lat="42.0831993" lon="12.606447"><ele>24.0</ele><time>2026-05-03T10:52:06.917Z</time></trkpt><trkpt lat="42.0832887" lon="12.6063173"><ele>23.75</ele><time>2026-05-03T10:52:07.906Z</time></trkpt><trkpt lat="42.0833978" lon="12.6062003"><ele>23.5</ele><time>2026-05-03T10:52:08.922Z</time></trkpt><trkpt lat="42.0834859" lon="12.6060995"><ele>23.25</ele><time>2026-05-03T10:52:09.914Z</time></trkpt><trkpt lat="42.0835767" lon="12.6060628"><ele>23.0</ele><time>2026-05-03T10:52:10.923Z</time></trkpt><trkpt lat="42.0836876" lon="12.6059902"><ele>23.0</ele><time>2026-05-03T10:52:11.933Z</time></trkpt><trkpt lat="42.0837997" lon="12.6059248"><ele>23.0</ele><time>2026-05-03T10:52:12.924Z</time></trkpt><trkpt lat="42.0838198" lon="12.6057683"><ele>23.0</ele><time>2026-05-03T10:52:13.919Z</time></trkpt><trkpt lat="42.0838157" lon="12.6055969"><ele>23.0</ele><time>2026-05-03T10:52:14.917Z</time></trkpt><trkpt lat="42.0838341" lon="12.6053959"><ele>23.75</ele><time>2026-05-03T10:52:15.909Z</time></trkpt><trkpt lat="42.0838419" lon="12.6052002"><ele>24.5</ele><time>2026-05-03T10:52:16.916Z</time></trkpt><trkpt lat="42.0838364" lon="12.6050669"><ele>25.25</ele><time>2026-05-03T10:52:17.91Z</time></trkpt><trkpt lat="42.0838474" lon="12.6049182"><ele>26.0</ele><time>2026-05-03T10:52:18.906Z</time></trkpt><trkpt lat="42.083862" lon="12.6047865"><ele>26.0</ele><time>2026-05-03T10:52:19.914Z</time></trkpt><trkpt lat="42.0839109" lon="12.6046028"><ele>26.0</ele><time>2026-05-03T10:52:20.907Z</time></trkpt><trkpt lat="42.0839849" lon="12.6043965"><ele>26.0</ele><time>2026-05-03T10:52:21.918Z</time></trkpt><trkpt lat="42.0840771" lon="12.6042305"><ele>26.666666666666664</ele><time>2026-05-03T10:52:22.903Z</time></trkpt><trkpt lat="42.0842053" lon="12.6041132"><ele>27.333333333333336</ele><time>2026-05-03T10:52:23.912Z</time></trkpt><trkpt lat="42.084324" lon="12.603986"><ele>28.0</ele><time>2026-05-03T10:52:24.9Z</time></trkpt><trkpt lat="42.0844469" lon="12.6038196"><ele>28.0</ele><time>2026-05-03T10:52:25.899Z</time></trkpt><trkpt lat="42.0845983" lon="12.603665"><ele>28.0</ele><time>2026-05-03T10:52:26.901Z</time></trkpt><trkpt lat="42.0847321" lon="12.6035417"><ele>28.0</ele><time>2026-05-03T10:52:27.902Z</time></trkpt><trkpt lat="42.0848214" lon="12.6034328"><ele>28.0</ele><time>2026-05-03T10:52:28.905Z</time></trkpt><trkpt lat="42.0849059" lon="12.603299"><ele>28.0</ele><time>2026-05-03T10:52:29.907Z</time></trkpt><trkpt lat="42.0850106" lon="12.6032196"><ele>28.0</ele><time>2026-05-03T10:52:30.929Z</time></trkpt><trkpt lat="42.0851264" lon="12.6031798"><ele>28.0</ele><time>2026-05-03T10:52:31.913Z</time></trkpt><trkpt lat="42.0852153" lon="12.6031484"><ele>28.0</ele><time>2026-05-03T10:52:32.914Z</time></trkpt><trkpt lat="42.0853218" lon="12.6031532"><ele>27.999999999999996</ele><time>2026-05-03T10:52:33.916Z</time></trkpt><trkpt lat="42.0854083" lon="12.6031809"><ele>27.999999999999996</ele><time>2026-05-03T10:52:34.936Z</time></trkpt><trkpt lat="42.0855079" lon="12.6032755"><ele>28.0</ele><time>2026-05-03T10:52:35.91Z</time></trkpt><trkpt lat="42.0856055" lon="12.6033782"><ele>28.0</ele><time>2026-05-03T10:52:36.908Z</time></trkpt><trkpt lat="42.0856974" lon="12.6034794"><ele>27.2</ele><time>2026-05-03T10:52:37.913Z</time></trkpt><trkpt lat="42.0857822" lon="12.6035358"><ele>26.4</ele><time>2026-05-03T10:52:38.911Z</time></trkpt><trkpt lat="42.0858772" lon="12.603568"><ele>25.599999999999998</ele><time>2026-05-03T10:52:39.92Z</time></trkpt><trkpt lat="42.0859706" lon="12.6035504"><ele>24.799999999999997</ele><time>2026-05-03T10:52:40.911Z</time></trkpt><trkpt lat="42.0860572" lon="12.6034945"><ele>24.0</ele><time>2026-05-03T10:52:41.903Z</time></trkpt><trkpt lat="42.086135" lon="12.6033976"><ele>24.0</ele><time>2026-05-03T10:52:42.911Z</time></trkpt><trkpt lat="42.0861906" lon="12.6032757"><ele>24.0</ele><time>2026-05-03T10:52:43.906Z</time></trkpt><trkpt lat="42.0862193" lon="12.603123"><ele>24.0</ele><time>2026-05-03T10:52:44.913Z</time></trkpt><trkpt lat="42.0862235" lon="12.6029698"><ele>24.0</ele><time>2026-05-03T10:52:45.907Z</time></trkpt><trkpt lat="42.0862089" lon="12.6028082"><ele>24.25</ele><time>2026-05-03T10:52:46.908Z</time></trkpt><trkpt lat="42.0861981" lon="12.6026314"><ele>24.5</ele><time>2026-05-03T10:52:47.907Z</time></trkpt><trkpt lat="42.0861878" lon="12.6024639"><ele>24.75</ele><time>2026-05-03T10:52:48.906Z</time></trkpt><trkpt lat="42.0861998" lon="12.6022865"><ele>25.0</ele><time>2026-05-03T10:52:49.911Z</time></trkpt><trkpt lat="42.0862715" lon="12.6021695"><ele>25.0</ele><time>2026-05-03T10:52:50.906Z</time></trkpt><trkpt lat="42.0863283" lon="12.6020495"><ele>25.0</ele><time>2026-05-03T10:52:51.9Z</time></trkpt><trkpt lat="42.0864447" lon="12.6019979"><ele>25.0</ele><time>2026-05-03T10:52:52.903Z</time></trkpt><trkpt lat="42.0866035" lon="12.601955"><ele>25.0</ele><time>2026-05-03T10:52:53.903Z</time></trkpt><trkpt lat="42.0867523" lon="12.6019085"><ele>24.0</ele><time>2026-05-03T10:52:54.904Z</time></trkpt><trkpt lat="42.0868882" lon="12.6018701"><ele>23.0</ele><time>2026-05-03T10:52:55.906Z</time></trkpt><trkpt lat="42.0870208" lon="12.6018285"><ele>22.0</ele><time>2026-05-03T10:52:56.9Z</time></trkpt><trkpt lat="42.0872637" lon="12.601757"><ele>21.5</ele><time>2026-05-03T10:52:57.906Z</time></trkpt><trkpt lat="42.0875037" lon="12.6016362"><ele>21.0</ele><time>2026-05-03T10:52:58.907Z</time></trkpt><trkpt lat="42.0877528" lon="12.6015181"><ele>21.0</ele><time>2026-05-03T10:52:59.918Z</time></trkpt><trkpt lat="42.0879971" lon="12.6014113"><ele>21.0</ele><time>2026-05-03T10:53:00.91Z</time></trkpt><trkpt lat="42.088203" lon="12.6013143"><ele>22.0</ele><time>2026-05-03T10:53:01.915Z</time></trkpt><trkpt lat="42.0883569" lon="12.6012117"><ele>23.0</ele><time>2026-05-03T10:53:02.907Z</time></trkpt><trkpt lat="42.0885054" lon="12.6011298"><ele>24.0</ele><time>2026-05-03T10:53:03.911Z</time></trkpt><trkpt lat="42.0886573" lon="12.601"><ele>24.666666666666664</ele><time>2026-05-03T10:53:04.905Z</time></trkpt><trkpt lat="42.08881" lon="12.6008847"><ele>25.333333333333332</ele><time>2026-05-03T10:53:05.925Z</time></trkpt><trkpt lat="42.088957" lon="12.6007611"><ele>26.0</ele><time>2026-05-03T10:53:06.932Z</time></trkpt><trkpt lat="42.089076" lon="12.6006073"><ele>26.0</ele><time>2026-05-03T10:53:07.931Z</time></trkpt><trkpt lat="42.0892135" lon="12.6004244"><ele>26.0</ele><time>2026-05-03T10:53:08.932Z</time></trkpt><trkpt lat="42.0893086" lon="12.6001793"><ele>26.0</ele><time>2026-05-03T10:53:09.931Z</time></trkpt><trkpt lat="42.0893443" lon="12.5999505"><ele>26.333333333333332</ele><time>2026-05-03T10:53:10.912Z</time></trkpt><trkpt lat="42.0893819" lon="12.5996953"><ele>26.666666666666664</ele><time>2026-05-03T10:53:11.905Z</time></trkpt><trkpt lat="42.089454" lon="12.599422"><ele>27.0</ele><time>2026-05-03T10:53:12.911Z</time></trkpt><trkpt lat="42.0895158" lon="12.5991723"><ele>27.0</ele><time>2026-05-03T10:53:13.914Z</time></trkpt><trkpt lat="42.0895779" lon="12.5989011"><ele>27.0</ele><time>2026-05-03T10:53:14.918Z</time></trkpt><trkpt lat="42.0896523" lon="12.5986093"><ele>27.0</ele><time>2026-05-03T10:53:15.917Z</time></trkpt><trkpt lat="42.0897327" lon="12.5983105"><ele>26.5</ele><time>2026-05-03T10:53:16.907Z</time></trkpt><trkpt lat="42.0898187" lon="12.5980116"><ele>26.0</ele><time>2026-05-03T10:53:17.912Z</time></trkpt><trkpt lat="42.0898999" lon="12.5977266"><ele>26.0</ele><time>2026-05-03T10:53:18.914Z</time></trkpt><trkpt lat="42.0899732" lon="12.5974636"><ele>26.0</ele><time>2026-05-03T10:53:19.913Z</time></trkpt><trkpt lat="42.0900449" lon="12.5972047"><ele>26.0</ele><time>2026-05-03T10:53:20.921Z</time></trkpt><trkpt lat="42.0901122" lon="12.5969638"><ele>25.666666666666664</ele><time>2026-05-03T10:53:21.906Z</time></trkpt><trkpt lat="42.0901889" lon="12.5966928"><ele>25.333333333333336</ele><time>2026-05-03T10:53:22.928Z</time></trkpt><trkpt lat="42.0902472" lon="12.5964354"><ele>25.0</ele><time>2026-05-03T10:53:23.925Z</time></trkpt><trkpt lat="42.0902986" lon="12.5961678"><ele>25.0</ele><time>2026-05-03T10:53:24.916Z</time></trkpt><trkpt lat="42.0903588" lon="12.5959004"><ele>25.0</ele><time>2026-05-03T10:53:25.937Z</time></trkpt><trkpt lat="42.0904187" lon="12.5956506"><ele>25.0</ele><time>2026-05-03T10:53:26.915Z</time></trkpt><trkpt lat="42.0904946" lon="12.5954115"><ele>24.666666666666668</ele><time>2026-05-03T10:53:27.908Z</time></trkpt><trkpt lat="42.0905664" lon="12.5951333"><ele>24.333333333333336</ele><time>2026-05-03T10:53:28.915Z</time></trkpt><trkpt lat="42.0906425" lon="12.5948525"><ele>24.0</ele><time>2026-05-03T10:53:29.918Z</time></trkpt><trkpt lat="42.0907202" lon="12.5945818"><ele>24.333333333333336</ele><time>2026-05-03T10:53:30.917Z</time></trkpt><trkpt lat="42.0907911" lon="12.5943277"><ele>24.666666666666668</ele><time>2026-05-03T10:53:31.917Z</time></trkpt><trkpt lat="42.0908687" lon="12.5940659"><ele>25.0</ele><time>2026-05-03T10:53:32.916Z</time></trkpt><trkpt lat="42.090929" lon="12.5938179"><ele>25.0</ele><time>2026-05-03T10:53:33.914Z</time></trkpt><trkpt lat="42.0910036" lon="12.5935598"><ele>25.0</ele><time>2026-05-03T10:53:34.918Z</time></trkpt><trkpt lat="42.0910767" lon="12.5932688"><ele>25.0</ele><time>2026-05-03T10:53:35.91Z</time></trkpt><trkpt lat="42.0911416" lon="12.5929905"><ele>24.0</ele><time>2026-05-03T10:53:36.913Z</time></trkpt><trkpt lat="42.0912077" lon="12.5927354"><ele>23.0</ele><time>2026-05-03T10:53:37.917Z</time></trkpt><trkpt lat="42.0912706" lon="12.5924901"><ele>22.0</ele><time>2026-05-03T10:53:38.927Z</time></trkpt><trkpt lat="42.0913371" lon="12.5922576"><ele>22.666666666666664</ele><time>2026-05-03T10:53:39.91Z</time></trkpt><trkpt lat="42.0914075" lon="12.5919848"><ele>23.333333333333332</ele><time>2026-05-03T10:53:40.915Z</time></trkpt><trkpt lat="42.091486" lon="12.591729"><ele>24.0</ele><time>2026-05-03T10:53:41.904Z</time></trkpt><trkpt lat="42.091568" lon="12.5914652"><ele>24.666666666666664</ele><time>2026-05-03T10:53:42.907Z</time></trkpt><trkpt lat="42.0916716" lon="12.5912084"><ele>25.333333333333332</ele><time>2026-05-03T10:53:43.913Z</time></trkpt><trkpt lat="42.091801" lon="12.5910362"><ele>26.0</ele><time>2026-05-03T10:53:44.904Z</time></trkpt><trkpt lat="42.0920313" lon="12.5908904"><ele>26.0</ele><time>2026-05-03T10:53:45.912Z</time></trkpt><trkpt lat="42.0921939" lon="12.5907269"><ele>26.0</ele><time>2026-05-03T10:53:46.914Z</time></trkpt><trkpt lat="42.0923305" lon="12.5905778"><ele>26.0</ele><time>2026-05-03T10:53:47.907Z</time></trkpt><trkpt lat="42.0924667" lon="12.5904363"><ele>26.333333333333332</ele><time>2026-05-03T10:53:48.914Z</time></trkpt><trkpt lat="42.0926167" lon="12.5902598"><ele>26.666666666666664</ele><time>2026-05-03T10:53:49.92Z</time></trkpt><trkpt lat="42.0927654" lon="12.5900729"><ele>27.0</ele><time>2026-05-03T10:53:50.906Z</time></trkpt><trkpt lat="42.0929177" lon="12.5898721"><ele>27.0</ele><time>2026-05-03T10:53:51.911Z</time></trkpt><trkpt lat="42.0930903" lon="12.5896647"><ele>27.0</ele><time>2026-05-03T10:53:52.918Z</time></trkpt><trkpt lat="42.0932534" lon="12.5894618"><ele>27.333333333333336</ele><time>2026-05-03T10:53:53.915Z</time></trkpt><trkpt lat="42.0934058" lon="12.5892613"><ele>27.666666666666668</ele><time>2026-05-03T10:53:54.915Z</time></trkpt><trkpt lat="42.093563" lon="12.5890725"><ele>28.0</ele><time>2026-05-03T10:53:55.92Z</time></trkpt><trkpt lat="42.093721" lon="12.5888544"><ele>27.0</ele><time>2026-05-03T10:53:56.909Z</time></trkpt><trkpt lat="42.0939012" lon="12.5886284"><ele>26.0</ele><time>2026-05-03T10:53:57.927Z</time></trkpt><trkpt lat="42.0940637" lon="12.5884029"><ele>26.5</ele><time>2026-05-03T10:53:58.917Z</time></trkpt><trkpt lat="42.0942422" lon="12.5881862"><ele>27.0</ele><time>2026-05-03T10:53:59.929Z</time></trkpt><trkpt lat="42.0944052" lon="12.5879753"><ele>26.333333333333336</ele><time>2026-05-03T10:54:00.931Z</time></trkpt><trkpt lat="42.0945627" lon="12.5877772"><ele>25.666666666666668</ele><time>2026-05-03T10:54:01.919Z</time></trkpt><trkpt lat="42.0947267" lon="12.5875681"><ele>25.0</ele><time>2026-05-03T10:54:02.927Z</time></trkpt><trkpt lat="42.0948797" lon="12.5873803"><ele>25.0</ele><time>2026-05-03T10:54:03.92Z</time></trkpt><trkpt lat="42.095055" lon="12.5871678"><ele>25.0</ele><time>2026-05-03T10:54:04.92Z</time></trkpt><trkpt lat="42.0952248" lon="12.5869716"><ele>25.0</ele><time>2026-05-03T10:54:05.915Z</time></trkpt><trkpt lat="42.0953908" lon="12.5867716"><ele>25.0</ele><time>2026-05-03T10:54:06.918Z</time></trkpt><trkpt lat="42.095534" lon="12.5865812"><ele>25.0</ele><time>2026-05-03T10:54:07.919Z</time></trkpt><trkpt lat="42.0957058" lon="12.5863854"><ele>25.0</ele><time>2026-05-03T10:54:08.915Z</time></trkpt><trkpt lat="42.0958614" lon="12.5862019"><ele>25.0</ele><time>2026-05-03T10:54:09.92Z</time></trkpt><trkpt lat="42.0960364" lon="12.585983"><ele>25.0</ele><time>2026-05-03T10:54:10.914Z</time></trkpt><trkpt lat="42.0962028" lon="12.5857823"><ele>25.0</ele><time>2026-05-03T10:54:11.919Z</time></trkpt><trkpt lat="42.0963899" lon="12.5855645"><ele>25.0</ele><time>2026-05-03T10:54:12.913Z</time></trkpt><trkpt lat="42.0965597" lon="12.5853546"><ele>25.0</ele><time>2026-05-03T10:54:13.921Z</time></trkpt><trkpt lat="42.0967127" lon="12.5851358"><ele>25.0</ele><time>2026-05-03T10:54:14.921Z</time></trkpt><trkpt lat="42.0968661" lon="12.5849474"><ele>25.0</ele><time>2026-05-03T10:54:15.918Z</time></trkpt><trkpt lat="42.0970046" lon="12.58478"><ele>25.0</ele><time>2026-05-03T10:54:16.942Z</time></trkpt><trkpt lat="42.0971571" lon="12.5846104"><ele>25.0</ele><time>2026-05-03T10:54:17.918Z</time></trkpt><trkpt lat="42.0973033" lon="12.5844153"><ele>25.0</ele><time>2026-05-03T10:54:18.92Z</time></trkpt><trkpt lat="42.0974491" lon="12.5842234"><ele>25.5</ele><time>2026-05-03T10:54:19.916Z</time></trkpt><trkpt lat="42.0976155" lon="12.5840023"><ele>26.0</ele><time>2026-05-03T10:54:20.911Z</time></trkpt><trkpt lat="42.097788" lon="12.5837621"><ele>25.0</ele><time>2026-05-03T10:54:21.925Z</time></trkpt><trkpt lat="42.0979707" lon="12.5835471"><ele>24.0</ele><time>2026-05-03T10:54:22.915Z</time></trkpt><trkpt lat="42.0981702" lon="12.5833274"><ele>24.333333333333336</ele><time>2026-05-03T10:54:23.917Z</time></trkpt><trkpt lat="42.0983329" lon="12.5831142"><ele>24.666666666666668</ele><time>2026-05-03T10:54:24.918Z</time></trkpt><trkpt lat="42.0984793" lon="12.5829162"><ele>25.0</ele><time>2026-05-03T10:54:25.908Z</time></trkpt><trkpt lat="42.0986216" lon="12.5827359"><ele>24.333333333333336</ele><time>2026-05-03T10:54:26.919Z</time></trkpt><trkpt lat="42.0987794" lon="12.5825525"><ele>23.666666666666668</ele><time>2026-05-03T10:54:27.921Z</time></trkpt><trkpt lat="42.0989243" lon="12.5823499"><ele>23.0</ele><time>2026-05-03T10:54:28.916Z</time></trkpt><trkpt lat="42.0990691" lon="12.5821392"><ele>24.0</ele><time>2026-05-03T10:54:29.908Z</time></trkpt><trkpt lat="42.0992038" lon="12.5819446"><ele>25.0</ele><time>2026-05-03T10:54:30.916Z</time></trkpt><trkpt lat="42.0992936" lon="12.5817713"><ele>26.0</ele><time>2026-05-03T10:54:31.916Z</time></trkpt><trkpt lat="42.0993664" lon="12.5816023"><ele>26.0</ele><time>2026-05-03T10:54:32.934Z</time></trkpt><trkpt lat="42.0994645" lon="12.5814344"><ele>26.0</ele><time>2026-05-03T10:54:33.928Z</time></trkpt><trkpt lat="42.0995517" lon="12.5812766"><ele>26.0</ele><time>2026-05-03T10:54:34.927Z</time></trkpt><trkpt lat="42.0996186" lon="12.5811345"><ele>26.0</ele><time>2026-05-03T10:54:35.914Z</time></trkpt><trkpt lat="42.0996874" lon="12.5809712"><ele>26.200000000000003</ele><time>2026-05-03T10:54:36.913Z</time></trkpt><trkpt lat="42.0997781" lon="12.5808275"><ele>26.400000000000002</ele><time>2026-05-03T10:54:37.907Z</time></trkpt><trkpt lat="42.0998138" lon="12.5807191"><ele>26.6</ele><time>2026-05-03T10:54:38.915Z</time></trkpt><trkpt lat="42.0998689" lon="12.5806282"><ele>26.8</ele><time>2026-05-03T10:54:39.919Z</time></trkpt><trkpt lat="42.0999712" lon="12.5806303"><ele>27.0</ele><time>2026-05-03T10:54:40.926Z</time></trkpt><trkpt lat="42.1000661" lon="12.5806635"><ele>27.0</ele><time>2026-05-03T10:54:41.914Z</time></trkpt><trkpt lat="42.1001904" lon="12.5808067"><ele>27.0</ele><time>2026-05-03T10:54:42.914Z</time></trkpt><trkpt lat="42.1002899" lon="12.5809857"><ele>27.0</ele><time>2026-05-03T10:54:43.92Z</time></trkpt><trkpt lat="42.1003797" lon="12.5811576"><ele>26.666666666666664</ele><time>2026-05-03T10:54:44.915Z</time></trkpt><trkpt lat="42.1004897" lon="12.5813534"><ele>26.333333333333332</ele><time>2026-05-03T10:54:45.922Z</time></trkpt><trkpt lat="42.1006295" lon="12.5814991"><ele>26.0</ele><time>2026-05-03T10:54:46.923Z</time></trkpt><trkpt lat="42.1007748" lon="12.5816073"><ele>26.0</ele><time>2026-05-03T10:54:47.919Z</time></trkpt><trkpt lat="42.1009165" lon="12.5816847"><ele>26.0</ele><time>2026-05-03T10:54:48.917Z</time></trkpt><trkpt lat="42.101036" lon="12.5818062"><ele>26.0</ele><time>2026-05-03T10:54:49.919Z</time></trkpt><trkpt lat="42.1011776" lon="12.5819025"><ele>26.0</ele><time>2026-05-03T10:54:50.925Z</time></trkpt><trkpt lat="42.1013265" lon="12.5820144"><ele>26.0</ele><time>2026-05-03T10:54:51.92Z</time></trkpt><trkpt lat="42.1014943" lon="12.5821311"><ele>26.0</ele><time>2026-05-03T10:54:52.916Z</time></trkpt><trkpt lat="42.1016495" lon="12.5822587"><ele>26.0</ele><time>2026-05-03T10:54:53.922Z</time></trkpt><trkpt lat="42.1018301" lon="12.5823918"><ele>26.0</ele><time>2026-05-03T10:54:54.923Z</time></trkpt><trkpt lat="42.1019934" lon="12.582507"><ele>26.0</ele><time>2026-05-03T10:54:55.914Z</time></trkpt><trkpt lat="42.102146" lon="12.5826045"><ele>26.0</ele><time>2026-05-03T10:54:56.915Z</time></trkpt><trkpt lat="42.1022761" lon="12.5826986"><ele>26.0</ele><time>2026-05-03T10:54:57.919Z</time></trkpt><trkpt lat="42.1024011" lon="12.582794"><ele>26.0</ele><time>2026-05-03T10:54:58.922Z</time></trkpt><trkpt lat="42.1025411" lon="12.582829"><ele>26.0</ele><time>2026-05-03T10:54:59.916Z</time></trkpt><trkpt lat="42.1026777" lon="12.5828362"><ele>25.5</ele><time>2026-05-03T10:55:00.917Z</time></trkpt><trkpt lat="42.1028132" lon="12.5828825"><ele>25.0</ele><time>2026-05-03T10:55:01.914Z</time></trkpt><trkpt lat="42.1029417" lon="12.5829287"><ele>24.5</ele><time>2026-05-03T10:55:02.917Z</time></trkpt><trkpt lat="42.10305" lon="12.5829633"><ele>24.0</ele><time>2026-05-03T10:55:03.912Z</time></trkpt><trkpt lat="42.1031385" lon="12.5830026"><ele>24.0</ele><time>2026-05-03T10:55:04.921Z</time></trkpt><trkpt lat="42.1032372" lon="12.5830674"><ele>24.0</ele><time>2026-05-03T10:55:05.911Z</time></trkpt><trkpt lat="42.1033089" lon="12.5831857"><ele>24.0</ele><time>2026-05-03T10:55:06.911Z</time></trkpt><trkpt lat="42.1033384" lon="12.5832669"><ele>24.0</ele><time>2026-05-03T10:55:07.903Z</time></trkpt><trkpt lat="42.1033523" lon="12.5833699"><ele>24.0</ele><time>2026-05-03T10:55:08.915Z</time></trkpt><trkpt lat="42.1033641" lon="12.5834722"><ele>24.0</ele><time>2026-05-03T10:55:09.915Z</time></trkpt><trkpt lat="42.1033907" lon="12.5835558"><ele>24.166666666666668</ele><time>2026-05-03T10:55:10.912Z</time></trkpt><trkpt lat="42.1034535" lon="12.5836027"><ele>24.333333333333336</ele><time>2026-05-03T10:55:11.915Z</time></trkpt><trkpt lat="42.1035301" lon="12.583601"><ele>24.5</ele><time>2026-05-03T10:55:12.91Z</time></trkpt><trkpt lat="42.1036066" lon="12.5835836"><ele>24.666666666666668</ele><time>2026-05-03T10:55:13.922Z</time></trkpt><trkpt lat="42.1036425" lon="12.5834759"><ele>24.833333333333336</ele><time>2026-05-03T10:55:14.915Z</time></trkpt><trkpt lat="42.1036739" lon="12.583354"><ele>25.0</ele><time>2026-05-03T10:55:15.904Z</time></trkpt><trkpt lat="42.1037045" lon="12.5832346"><ele>25.0</ele><time>2026-05-03T10:55:16.906Z</time></trkpt><trkpt lat="42.1037633" lon="12.5831261"><ele>25.0</ele><time>2026-05-03T10:55:17.905Z</time></trkpt><trkpt lat="42.1038407" lon="12.5830392"><ele>25.0</ele><time>2026-05-03T10:55:18.903Z</time></trkpt><trkpt lat="42.1039479" lon="12.5829706"><ele>25.0</ele><time>2026-05-03T10:55:19.911Z</time></trkpt><trkpt lat="42.1040946" lon="12.5829161"><ele>24.75</ele><time>2026-05-03T10:55:20.913Z</time></trkpt><trkpt lat="42.1042362" lon="12.5828688"><ele>24.5</ele><time>2026-05-03T10:55:21.91Z</time></trkpt><trkpt lat="42.1043611" lon="12.5828243"><ele>24.25</ele><time>2026-05-03T10:55:22.915Z</time></trkpt><trkpt lat="42.1044789" lon="12.5827807"><ele>24.0</ele><time>2026-05-03T10:55:23.905Z</time></trkpt><trkpt lat="42.1046069" lon="12.582738"><ele>26.333333333333336</ele><time>2026-05-03T10:55:24.908Z</time></trkpt><trkpt lat="42.1047551" lon="12.5826914"><ele>28.666666666666668</ele><time>2026-05-03T10:55:25.91Z</time></trkpt><trkpt lat="42.104908" lon="12.5826593"><ele>31.0</ele><time>2026-05-03T10:55:26.908Z</time></trkpt><trkpt lat="42.1050906" lon="12.5826688"><ele>31.0</ele><time>2026-05-03T10:55:28.004Z</time></trkpt><trkpt lat="42.1052864" lon="12.5826929"><ele>31.0</ele><time>2026-05-03T10:55:28.936Z</time></trkpt><trkpt lat="42.1054608" lon="12.5827516"><ele>31.0</ele><time>2026-05-03T10:55:29.908Z</time></trkpt><trkpt lat="42.1056553" lon="12.5828283"><ele>29.666666666666668</ele><time>2026-05-03T10:55:30.914Z</time></trkpt><trkpt lat="42.105862" lon="12.58289"><ele>28.333333333333336</ele><time>2026-05-03T10:55:31.914Z</time></trkpt><trkpt lat="42.1060766" lon="12.5829472"><ele>27.0</ele><time>2026-05-03T10:55:32.919Z</time></trkpt><trkpt lat="42.1062765" lon="12.5830145"><ele>27.0</ele><time>2026-05-03T10:55:33.912Z</time></trkpt><trkpt lat="42.106494" lon="12.5830524"><ele>27.0</ele><time>2026-05-03T10:55:34.914Z</time></trkpt><trkpt lat="42.106673" lon="12.5831201"><ele>27.0</ele><time>2026-05-03T10:55:35.916Z</time></trkpt><trkpt lat="42.1068579" lon="12.5831667"><ele>27.25</ele><time>2026-05-03T10:55:36.913Z</time></trkpt><trkpt lat="42.1070147" lon="12.5832227"><ele>27.5</ele><time>2026-05-03T10:55:37.918Z</time></trkpt><trkpt lat="42.1071319" lon="12.5832967"><ele>27.75</ele><time>2026-05-03T10:55:38.912Z</time></trkpt><trkpt lat="42.1072545" lon="12.5833607"><ele>28.0</ele><time>2026-05-03T10:55:39.918Z</time></trkpt><trkpt lat="42.1073976" lon="12.5834281"><ele>28.0</ele><time>2026-05-03T10:55:40.92Z</time></trkpt><trkpt lat="42.1075377" lon="12.5834713"><ele>28.0</ele><time>2026-05-03T10:55:41.918Z</time></trkpt><trkpt lat="42.1076579" lon="12.583531"><ele>28.0</ele><time>2026-05-03T10:55:42.918Z</time></trkpt><trkpt lat="42.1077532" lon="12.5835478"><ele>28.0</ele><time>2026-05-03T10:55:43.921Z</time></trkpt><trkpt lat="42.1078419" lon="12.5835694"><ele>28.000000000000004</ele><time>2026-05-03T10:55:44.921Z</time></trkpt><trkpt lat="42.1079269" lon="12.583579"><ele>28.0</ele><time>2026-05-03T10:55:45.928Z</time></trkpt><trkpt lat="42.1080059" lon="12.5835672"><ele>28.0</ele><time>2026-05-03T10:55:46.942Z</time></trkpt><trkpt lat="42.1080159" lon="12.5834818"><ele>28.0</ele><time>2026-05-03T10:55:50.919Z</time></trkpt><trkpt lat="42.1080419" lon="12.5833144"><ele>28.000000000000004</ele><time>2026-05-03T10:55:52.917Z</time></trkpt><trkpt lat="42.1080589" lon="12.5831906"><ele>28.0</ele><time>2026-05-03T10:55:54.921Z</time></trkpt><trkpt lat="42.1081071" lon="12.5830749"><ele>28.000000000000004</ele><time>2026-05-03T10:55:56.912Z</time></trkpt><trkpt lat="42.10814" lon="12.5829668"><ele>28.0</ele><time>2026-05-03T10:55:58.92Z</time></trkpt><trkpt lat="42.1081797" lon="12.5828691"><ele>28.0</ele><time>2026-05-03T10:56:00.92Z</time></trkpt><trkpt lat="42.1082589" lon="12.5828506"><ele>28.0</ele><time>2026-05-03T10:56:02.911Z</time></trkpt><trkpt lat="42.1083351" lon="12.5828826"><ele>28.000000000000004</ele><time>2026-05-03T10:56:05.227Z</time></trkpt><trkpt lat="42.1084119" lon="12.582927"><ele>28.0</ele><time>2026-05-03T10:56:06.939Z</time></trkpt><trkpt lat="42.1084753" lon="12.5829755"><ele>27.799999999999997</ele><time>2026-05-03T10:56:08.912Z</time></trkpt><trkpt lat="42.1085569" lon="12.5829875"><ele>27.599999999999998</ele><time>2026-05-03T10:56:10.912Z</time></trkpt><trkpt lat="42.1086347" lon="12.5830115"><ele>27.400000000000002</ele><time>2026-05-03T10:56:12.919Z</time></trkpt><trkpt lat="42.1086923" lon="12.5830673"><ele>27.200000000000003</ele><time>2026-05-03T10:56:14.921Z</time></trkpt><trkpt lat="42.1087598" lon="12.5831745"><ele>27.0</ele><time>2026-05-03T10:56:16.922Z</time></trkpt><trkpt lat="42.1088622" lon="12.5832851"><ele>27.0</ele><time>2026-05-03T10:56:18.918Z</time></trkpt><trkpt lat="42.1089337" lon="12.5833378"><ele>27.000000000000004</ele><time>2026-05-03T10:56:19.926Z</time></trkpt><trkpt lat="42.1090088" lon="12.5833896"><ele>27.000000000000004</ele><time>2026-05-03T10:56:20.923Z</time></trkpt><trkpt lat="42.1090975" lon="12.5834215"><ele>27.0</ele><time>2026-05-03T10:56:21.917Z</time></trkpt><trkpt lat="42.1091949" lon="12.5834551"><ele>27.0</ele><time>2026-05-03T10:56:22.917Z</time></trkpt><trkpt lat="42.1093169" lon="12.5834892"><ele>28.25</ele><time>2026-05-03T10:56:23.918Z</time></trkpt><trkpt lat="42.1094352" lon="12.5835158"><ele>29.5</ele><time>2026-05-03T10:56:24.917Z</time></trkpt><trkpt lat="42.1095576" lon="12.5835508"><ele>30.75</ele><time>2026-05-03T10:56:25.92Z</time></trkpt><trkpt lat="42.1096881" lon="12.5835925"><ele>32.0</ele><time>2026-05-03T10:56:26.917Z</time></trkpt><trkpt lat="42.1098272" lon="12.5836291"><ele>34.0</ele><time>2026-05-03T10:56:27.918Z</time></trkpt><trkpt lat="42.1099769" lon="12.5836609"><ele>36.0</ele><time>2026-05-03T10:56:28.913Z</time></trkpt><trkpt lat="42.1101654" lon="12.5836874"><ele>38.0</ele><time>2026-05-03T10:56:29.913Z</time></trkpt><trkpt lat="42.1103162" lon="12.5837088"><ele>35.0</ele><time>2026-05-03T10:56:30.92Z</time></trkpt><trkpt lat="42.1104799" lon="12.5837279"><ele>32.0</ele><time>2026-05-03T10:56:31.919Z</time></trkpt><trkpt lat="42.1106184" lon="12.5837718"><ele>29.0</ele><time>2026-05-03T10:56:32.914Z</time></trkpt><trkpt lat="42.1107406" lon="12.5838254"><ele>26.0</ele><time>2026-05-03T10:56:33.915Z</time></trkpt><trkpt lat="42.1108673" lon="12.5838822"><ele>26.0</ele><time>2026-05-03T10:56:34.917Z</time></trkpt><trkpt lat="42.1110081" lon="12.5839098"><ele>26.0</ele><time>2026-05-03T10:56:35.917Z</time></trkpt><trkpt lat="42.1111618" lon="12.5839208"><ele>26.0</ele><time>2026-05-03T10:56:36.91Z</time></trkpt><trkpt lat="42.1112968" lon="12.5839484"><ele>26.0</ele><time>2026-05-03T10:56:37.911Z</time></trkpt><trkpt lat="42.1113738" lon="12.583984"><ele>26.0</ele><time>2026-05-03T10:56:38.911Z</time></trkpt><trkpt lat="42.1114483" lon="12.5840399"><ele>26.0</ele><time>2026-05-03T10:56:39.91Z</time></trkpt><trkpt lat="42.1115535" lon="12.5840665"><ele>26.0</ele><time>2026-05-03T10:56:40.938Z</time></trkpt><trkpt lat="42.1116395" lon="12.5841112"><ele>26.0</ele><time>2026-05-03T10:56:41.934Z</time></trkpt><trkpt lat="42.1117273" lon="12.5841363"><ele>26.0</ele><time>2026-05-03T10:56:42.916Z</time></trkpt><trkpt lat="42.1118175" lon="12.5841097"><ele>26.5</ele><time>2026-05-03T10:56:43.911Z</time></trkpt><trkpt lat="42.1119258" lon="12.5840721"><ele>27.0</ele><time>2026-05-03T10:56:44.913Z</time></trkpt><trkpt lat="42.1120293" lon="12.5840145"><ele>27.5</ele><time>2026-05-03T10:56:45.912Z</time></trkpt><trkpt lat="42.1121445" lon="12.583929"><ele>28.0</ele><time>2026-05-03T10:56:46.915Z</time></trkpt><trkpt lat="42.1122652" lon="12.5838055"><ele>28.0</ele><time>2026-05-03T10:56:47.909Z</time></trkpt><trkpt lat="42.1123855" lon="12.5836648"><ele>28.0</ele><time>2026-05-03T10:56:48.914Z</time></trkpt><trkpt lat="42.1125125" lon="12.5835049"><ele>28.0</ele><time>2026-05-03T10:56:49.916Z</time></trkpt><trkpt lat="42.112652" lon="12.5833497"><ele>28.0</ele><time>2026-05-03T10:56:50.916Z</time></trkpt><trkpt lat="42.1127596" lon="12.5832633"><ele>27.999999999999996</ele><time>2026-05-03T10:56:51.922Z</time></trkpt><trkpt lat="42.1128534" lon="12.5831954"><ele>27.999999999999996</ele><time>2026-05-03T10:56:52.914Z</time></trkpt><trkpt lat="42.1129491" lon="12.5831231"><ele>28.0</ele><time>2026-05-03T10:56:54.912Z</time></trkpt><trkpt lat="42.1129354" lon="12.5830241"><ele>28.0</ele><time>2026-05-03T10:56:56.906Z</time></trkpt><trkpt lat="42.1129027" lon="12.5829183"><ele>28.0</ele><time>2026-05-03T10:56:58.908Z</time></trkpt><trkpt lat="42.1128808" lon="12.5827971"><ele>28.0</ele><time>2026-05-03T10:57:00.936Z</time></trkpt><trkpt lat="42.1128255" lon="12.5826597"><ele>28.0</ele><time>2026-05-03T10:57:01.917Z</time></trkpt><trkpt lat="42.1127683" lon="12.5825064"><ele>28.0</ele><time>2026-05-03T10:57:02.913Z</time></trkpt><trkpt lat="42.1127091" lon="12.5823516"><ele>28.000000000000004</ele><time>2026-05-03T10:57:03.937Z</time></trkpt><trkpt lat="42.1126633" lon="12.5822126"><ele>28.0</ele><time>2026-05-03T10:57:04.912Z</time></trkpt><trkpt lat="42.1126295" lon="12.5821039"><ele>28.0</ele><time>2026-05-03T10:57:05.909Z</time></trkpt><trkpt lat="42.112585" lon="12.5820084"><ele>28.0</ele><time>2026-05-03T10:57:06.914Z</time></trkpt><trkpt lat="42.1125343" lon="12.581932"><ele>28.000000000000004</ele><time>2026-05-03T10:57:07.916Z</time></trkpt><trkpt lat="42.1124743" lon="12.5818593"><ele>28.0</ele><time>2026-05-03T10:57:08.914Z</time></trkpt><trkpt lat="42.1124141" lon="12.581794"><ele>28.599999999999998</ele><time>2026-05-03T10:57:09.908Z</time></trkpt><trkpt lat="42.1123573" lon="12.5817287"><ele>29.199999999999996</ele><time>2026-05-03T10:57:10.913Z</time></trkpt><trkpt lat="42.1122793" lon="12.5816494"><ele>29.8</ele><time>2026-05-03T10:57:11.914Z</time></trkpt><trkpt lat="42.1121901" lon="12.5815778"><ele>30.4</ele><time>2026-05-03T10:57:12.932Z</time></trkpt><trkpt lat="42.1121246" lon="12.5814881"><ele>31.0</ele><time>2026-05-03T10:57:13.937Z</time></trkpt><trkpt lat="42.1120481" lon="12.5813906"><ele>31.000000000000004</ele><time>2026-05-03T10:57:14.934Z</time></trkpt><trkpt lat="42.111957" lon="12.581314"><ele>31.0</ele><time>2026-05-03T10:57:15.91Z</time></trkpt><trkpt lat="42.1118765" lon="12.5812405"><ele>31.0</ele><time>2026-05-03T10:57:16.909Z</time></trkpt><trkpt lat="42.1118057" lon="12.5811738"><ele>31.0</ele><time>2026-05-03T10:57:17.911Z</time></trkpt><trkpt lat="42.111738" lon="12.5811148"><ele>31.000000000000004</ele><time>2026-05-03T10:57:19.907Z</time></trkpt><trkpt lat="42.1117235" lon="12.5812006"><ele>31.0</ele><time>2026-05-03T10:57:26.909Z</time></trkpt><trkpt lat="42.111736" lon="12.5812854"><ele>31.0</ele><time>2026-05-03T10:57:29.9Z</time></trkpt><trkpt lat="42.1118488" lon="12.5813729"><ele>31.0</ele><time>2026-05-03T10:57:32.92Z</time></trkpt><trkpt lat="42.1119439" lon="12.581455"><ele>31.0</ele><time>2026-05-03T10:57:33.912Z</time></trkpt><trkpt lat="42.1120628" lon="12.5815679"><ele>31.0</ele><time>2026-05-03T10:57:34.921Z</time></trkpt><trkpt lat="42.1122255" lon="12.5816712"><ele>31.0</ele><time>2026-05-03T10:57:35.913Z</time></trkpt><trkpt lat="42.1123705" lon="12.5817842"><ele>31.0</ele><time>2026-05-03T10:57:36.915Z</time></trkpt><trkpt lat="42.1124452" lon="12.5818796"><ele>31.0</ele><time>2026-05-03T10:57:37.91Z</time></trkpt><trkpt lat="42.1125141" lon="12.5819888"><ele>31.0</ele><time>2026-05-03T10:57:38.907Z</time></trkpt><trkpt lat="42.1125726" lon="12.582051"><ele>30.8</ele><time>2026-05-03T10:57:39.913Z</time></trkpt><trkpt lat="42.1126423" lon="12.5820391"><ele>30.6</ele><time>2026-05-03T10:57:41.907Z</time></trkpt><trkpt lat="42.1126944" lon="12.5819166"><ele>30.4</ele><time>2026-05-03T10:57:44.904Z</time></trkpt><trkpt lat="42.1127274" lon="12.581804"><ele>30.2</ele><time>2026-05-03T10:57:45.91Z</time></trkpt><trkpt lat="42.1127811" lon="12.5816832"><ele>30.0</ele><time>2026-05-03T10:57:46.912Z</time></trkpt><trkpt lat="42.1128454" lon="12.5815847"><ele>30.0</ele><time>2026-05-03T10:57:47.912Z</time></trkpt><trkpt lat="42.1129036" lon="12.5814797"><ele>30.0</ele><time>2026-05-03T10:57:48.908Z</time></trkpt><trkpt lat="42.1129594" lon="12.5813766"><ele>30.0</ele><time>2026-05-03T10:57:49.915Z</time></trkpt><trkpt lat="42.1130127" lon="12.5812697"><ele>30.0</ele><time>2026-05-03T10:57:50.913Z</time></trkpt><trkpt lat="42.1130608" lon="12.5811697"><ele>30.0</ele><time>2026-05-03T10:57:51.906Z</time></trkpt><trkpt lat="42.1131141" lon="12.5810763"><ele>30.666666666666668</ele><time>2026-05-03T10:57:52.918Z</time></trkpt><trkpt lat="42.1131748" lon="12.5809788"><ele>31.333333333333336</ele><time>2026-05-03T10:57:53.911Z</time></trkpt><trkpt lat="42.1132319" lon="12.5808797"><ele>32.0</ele><time>2026-05-03T10:57:54.915Z</time></trkpt><trkpt lat="42.1132807" lon="12.580791"><ele>32.66666666666667</ele><time>2026-05-03T10:57:55.917Z</time></trkpt><trkpt lat="42.1133245" lon="12.5807187"><ele>33.333333333333336</ele><time>2026-05-03T10:57:56.911Z</time></trkpt><trkpt lat="42.1133742" lon="12.5807821"><ele>34.0</ele><time>2026-05-03T10:58:16.913Z</time></trkpt><trkpt lat="42.1133534" lon="12.5808658"><ele>34.0</ele><time>2026-05-03T10:58:18.917Z</time></trkpt><trkpt lat="42.1132538" lon="12.5809843"><ele>34.0</ele><time>2026-05-03T10:58:20.918Z</time></trkpt><trkpt lat="42.1131785" lon="12.581045"><ele>34.0</ele><time>2026-05-03T10:58:21.911Z</time></trkpt><trkpt lat="42.1131076" lon="12.5811206"><ele>34.0</ele><time>2026-05-03T10:58:22.913Z</time></trkpt><trkpt lat="42.1130415" lon="12.5811906"><ele>34.0</ele><time>2026-05-03T10:58:23.91Z</time></trkpt><trkpt lat="42.1129727" lon="12.5812732"><ele>33.0</ele><time>2026-05-03T10:58:24.916Z</time></trkpt><trkpt lat="42.1129" lon="12.5813661"><ele>32.0</ele><time>2026-05-03T10:58:25.914Z</time></trkpt><trkpt lat="42.1128171" lon="12.5815102"><ele>31.0</ele><time>2026-05-03T10:58:26.918Z</time></trkpt><trkpt lat="42.1127469" lon="12.5816367"><ele>30.0</ele><time>2026-05-03T10:58:27.92Z</time></trkpt><trkpt lat="42.1126762" lon="12.5817562"><ele>30.0</ele><time>2026-05-03T10:58:28.918Z</time></trkpt><trkpt lat="42.1126182" lon="12.5818576"><ele>30.0</ele><time>2026-05-03T10:58:29.913Z</time></trkpt><trkpt lat="42.1125694" lon="12.5819412"><ele>30.0</ele><time>2026-05-03T10:58:30.917Z</time></trkpt><trkpt lat="42.1125178" lon="12.5820379"><ele>30.0</ele><time>2026-05-03T10:58:32.922Z</time></trkpt><trkpt lat="42.1126014" lon="12.5819254"><ele>30.0</ele><time>2026-05-03T10:58:40.904Z</time></trkpt><trkpt lat="42.1126581" lon="12.5818238"><ele>30.0</ele><time>2026-05-03T10:58:41.918Z</time></trkpt><trkpt lat="42.1127242" lon="12.5817033"><ele>30.0</ele><time>2026-05-03T10:58:42.91Z</time></trkpt><trkpt lat="42.1127972" lon="12.5815638"><ele>30.0</ele><time>2026-05-03T10:58:43.912Z</time></trkpt><trkpt lat="42.1128754" lon="12.5814386"><ele>30.0</ele><time>2026-05-03T10:58:44.908Z</time></trkpt><trkpt lat="42.1129587" lon="12.581307"><ele>31.0</ele><time>2026-05-03T10:58:45.913Z</time></trkpt><trkpt lat="42.1130312" lon="12.5811782"><ele>32.0</ele><time>2026-05-03T10:58:46.961Z</time></trkpt><trkpt lat="42.1131053" lon="12.5810538"><ele>33.0</ele><time>2026-05-03T10:58:47.911Z</time></trkpt><trkpt lat="42.1131709" lon="12.5809373"><ele>34.0</ele><time>2026-05-03T10:58:48.914Z</time></trkpt><trkpt lat="42.1132463" lon="12.5808128"><ele>34.6</ele><time>2026-05-03T10:58:49.906Z</time></trkpt><trkpt lat="42.1133184" lon="12.5807322"><ele>35.2</ele><time>2026-05-03T10:58:50.915Z</time></trkpt><trkpt lat="42.1134036" lon="12.5806756"><ele>35.800000000000004</ele><time>2026-05-03T10:58:51.914Z</time></trkpt><trkpt lat="42.1135046" lon="12.5806649"><ele>36.4</ele><time>2026-05-03T10:58:52.914Z</time></trkpt><trkpt lat="42.113602" lon="12.5806787"><ele>37.0</ele><time>2026-05-03T10:58:53.909Z</time></trkpt><trkpt lat="42.1137213" lon="12.5807284"><ele>37.0</ele><time>2026-05-03T10:58:54.933Z</time></trkpt><trkpt lat="42.1138485" lon="12.5807915"><ele>37.0</ele><time>2026-05-03T10:58:55.911Z</time></trkpt><trkpt lat="42.11399" lon="12.5808487"><ele>37.0</ele><time>2026-05-03T10:58:56.917Z</time></trkpt><trkpt lat="42.1141886" lon="12.5809909"><ele>36.0</ele><time>2026-05-03T10:58:57.912Z</time></trkpt><trkpt lat="42.1143576" lon="12.5811134"><ele>35.0</ele><time>2026-05-03T10:58:58.914Z</time></trkpt><trkpt lat="42.1144874" lon="12.5812189"><ele>34.0</ele><time>2026-05-03T10:58:59.905Z</time></trkpt><trkpt lat="42.1146085" lon="12.5812803"><ele>33.833333333333336</ele><time>2026-05-03T10:59:00.915Z</time></trkpt><trkpt lat="42.1147136" lon="12.5813006"><ele>33.66666666666667</ele><time>2026-05-03T10:59:01.902Z</time></trkpt><trkpt lat="42.1147874" lon="12.5813323"><ele>33.5</ele><time>2026-05-03T10:59:02.912Z</time></trkpt><trkpt lat="42.1148935" lon="12.5813468"><ele>33.333333333333336</ele><time>2026-05-03T10:59:04.907Z</time></trkpt><trkpt lat="42.1149762" lon="12.5813282"><ele>33.166666666666664</ele><time>2026-05-03T10:59:06.909Z</time></trkpt><trkpt lat="42.1150433" lon="12.581309"><ele>33.0</ele><time>2026-05-03T10:59:19.918Z</time></trkpt><trkpt lat="42.1151354" lon="12.581288"><ele>34.0</ele><time>2026-05-03T10:59:23.918Z</time></trkpt><trkpt lat="42.1151922" lon="12.5812092"><ele>35.0</ele><time>2026-05-03T10:59:25.908Z</time></trkpt><trkpt lat="42.1151982" lon="12.5811233"><ele>36.0</ele><time>2026-05-03T10:59:26.913Z</time></trkpt><trkpt lat="42.1151753" lon="12.5809294"><ele>37.0</ele><time>2026-05-03T10:59:27.908Z</time></trkpt><trkpt lat="42.1151382" lon="12.5807203"><ele>38.333333333333336</ele><time>2026-05-03T10:59:28.907Z</time></trkpt><trkpt lat="42.1151308" lon="12.5804751"><ele>39.666666666666664</ele><time>2026-05-03T10:59:29.904Z</time></trkpt><trkpt lat="42.1151188" lon="12.580129"><ele>41.0</ele><time>2026-05-03T10:59:30.91Z</time></trkpt><trkpt lat="42.1150784" lon="12.5797872"><ele>43.0</ele><time>2026-05-03T10:59:31.912Z</time></trkpt><trkpt lat="42.1150065" lon="12.5794198"><ele>45.0</ele><time>2026-05-03T10:59:32.909Z</time></trkpt><trkpt lat="42.1149354" lon="12.5790889"><ele>42.5</ele><time>2026-05-03T10:59:33.907Z</time></trkpt><trkpt lat="42.1148386" lon="12.5787331"><ele>40.0</ele><time>2026-05-03T10:59:34.91Z</time></trkpt><trkpt lat="42.1147998" lon="12.5784681"><ele>40.0</ele><time>2026-05-03T10:59:35.895Z</time></trkpt><trkpt lat="42.1147915" lon="12.5782387"><ele>40.0</ele><time>2026-05-03T10:59:36.904Z</time></trkpt><trkpt lat="42.1148119" lon="12.5779852"><ele>40.0</ele><time>2026-05-03T10:59:37.901Z</time></trkpt><trkpt lat="42.1148208" lon="12.5777532"><ele>41.333333333333336</ele><time>2026-05-03T10:59:38.905Z</time></trkpt><trkpt lat="42.1148244" lon="12.5774959"><ele>42.666666666666664</ele><time>2026-05-03T10:59:39.91Z</time></trkpt><trkpt lat="42.1148499" lon="12.577235"><ele>44.0</ele><time>2026-05-03T10:59:40.904Z</time></trkpt><trkpt lat="42.1148841" lon="12.5769345"><ele>45.0</ele><time>2026-05-03T10:59:42.064Z</time></trkpt><trkpt lat="42.1149152" lon="12.5766392"><ele>46.0</ele><time>2026-05-03T10:59:43.068Z</time></trkpt><trkpt lat="42.1149531" lon="12.5760228"><ele>47.0</ele><time>2026-05-03T10:59:44.913Z</time></trkpt><trkpt lat="42.1149707" lon="12.5757435"><ele>48.0</ele><time>2026-05-03T10:59:45.913Z</time></trkpt><trkpt lat="42.1149857" lon="12.5754771"><ele>49.0</ele><time>2026-05-03T10:59:46.904Z</time></trkpt><trkpt lat="42.1150021" lon="12.5752482"><ele>50.0</ele><time>2026-05-03T10:59:47.913Z</time></trkpt><trkpt lat="42.115021" lon="12.5750115"><ele>51.0</ele><time>2026-05-03T10:59:48.912Z</time></trkpt><trkpt lat="42.1150482" lon="12.5747529"><ele>52.0</ele><time>2026-05-03T10:59:49.918Z</time></trkpt><trkpt lat="42.1150804" lon="12.574473"><ele>52.666666666666664</ele><time>2026-05-03T10:59:50.917Z</time></trkpt><trkpt lat="42.1150976" lon="12.5742083"><ele>53.33333333333333</ele><time>2026-05-03T10:59:51.918Z</time></trkpt><trkpt lat="42.1151084" lon="12.5739481"><ele>54.0</ele><time>2026-05-03T10:59:52.914Z</time></trkpt><trkpt lat="42.11513" lon="12.5737057"><ele>55.66666666666667</ele><time>2026-05-03T10:59:53.912Z</time></trkpt><trkpt lat="42.115156" lon="12.5735079"><ele>57.333333333333336</ele><time>2026-05-03T10:59:54.91Z</time></trkpt><trkpt lat="42.1151664" lon="12.5732813"><ele>59.0</ele><time>2026-05-03T10:59:55.909Z</time></trkpt><trkpt lat="42.1151858" lon="12.5730339"><ele>59.66666666666667</ele><time>2026-05-03T10:59:56.907Z</time></trkpt><trkpt lat="42.1151979" lon="12.5727998"><ele>60.33333333333333</ele><time>2026-05-03T10:59:57.905Z</time></trkpt><trkpt lat="42.1152164" lon="12.5726008"><ele>61.0</ele><time>2026-05-03T10:59:58.902Z</time></trkpt><trkpt lat="42.1152545" lon="12.5723924"><ele>61.0</ele><time>2026-05-03T10:59:59.904Z</time></trkpt><trkpt lat="42.1152777" lon="12.5722039"><ele>61.0</ele><time>2026-05-03T11:00:00.902Z</time></trkpt><trkpt lat="42.1152701" lon="12.5719815"><ele>61.0</ele><time>2026-05-03T11:00:01.904Z</time></trkpt><trkpt lat="42.1152708" lon="12.5717318"><ele>60.0</ele><time>2026-05-03T11:00:02.896Z</time></trkpt><trkpt lat="42.1152997" lon="12.5715013"><ele>59.0</ele><time>2026-05-03T11:00:03.899Z</time></trkpt><trkpt lat="42.1153444" lon="12.5713191"><ele>58.0</ele><time>2026-05-03T11:00:04.91Z</time></trkpt><trkpt lat="42.1153585" lon="12.5711403"><ele>57.0</ele><time>2026-05-03T11:00:05.905Z</time></trkpt><trkpt lat="42.1153849" lon="12.5709589"><ele>56.0</ele><time>2026-05-03T11:00:06.897Z</time></trkpt><trkpt lat="42.1154362" lon="12.5706949"><ele>55.0</ele><time>2026-05-03T11:00:07.904Z</time></trkpt><trkpt lat="42.1154984" lon="12.5704437"><ele>54.0</ele><time>2026-05-03T11:00:08.9Z</time></trkpt><trkpt lat="42.1155534" lon="12.5702122"><ele>53.0</ele><time>2026-05-03T11:00:09.899Z</time></trkpt><trkpt lat="42.1155883" lon="12.569983"><ele>52.0</ele><time>2026-05-03T11:00:10.896Z</time></trkpt><trkpt lat="42.1156547" lon="12.5697885"><ele>51.0</ele><time>2026-05-03T11:00:11.901Z</time></trkpt><trkpt lat="42.1156976" lon="12.5695923"><ele>50.5</ele><time>2026-05-03T11:00:12.896Z</time></trkpt><trkpt lat="42.1157299" lon="12.5693958"><ele>50.0</ele><time>2026-05-03T11:00:13.904Z</time></trkpt><trkpt lat="42.1157916" lon="12.5692212"><ele>49.5</ele><time>2026-05-03T11:00:14.901Z</time></trkpt><trkpt lat="42.1158415" lon="12.5691121"><ele>49.0</ele><time>2026-05-03T11:00:15.9Z</time></trkpt><trkpt lat="42.1159972" lon="12.5689772"><ele>49.0</ele><time>2026-05-03T11:00:16.932Z</time></trkpt><trkpt lat="42.1161419" lon="12.5688261"><ele>49.0</ele><time>2026-05-03T11:00:17.907Z</time></trkpt><trkpt lat="42.1162577" lon="12.5686944"><ele>49.0</ele><time>2026-05-03T11:00:18.909Z</time></trkpt><trkpt lat="42.1163125" lon="12.5685783"><ele>49.0</ele><time>2026-05-03T11:00:19.914Z</time></trkpt><trkpt lat="42.1163874" lon="12.5684818"><ele>49.0</ele><time>2026-05-03T11:00:20.912Z</time></trkpt><trkpt lat="42.1164454" lon="12.5684147"><ele>49.0</ele><time>2026-05-03T11:00:22.908Z</time></trkpt><trkpt lat="42.1165382" lon="12.5684811"><ele>49.0</ele><time>2026-05-03T11:00:25.905Z</time></trkpt><trkpt lat="42.1165877" lon="12.5686446"><ele>49.0</ele><time>2026-05-03T11:00:27.916Z</time></trkpt><trkpt lat="42.1166187" lon="12.5687419"><ele>49.0</ele><time>2026-05-03T11:00:28.913Z</time></trkpt><trkpt lat="42.1166692" lon="12.568852"><ele>48.25</ele><time>2026-05-03T11:00:29.91Z</time></trkpt><trkpt lat="42.1167388" lon="12.5689479"><ele>47.5</ele><time>2026-05-03T11:00:30.914Z</time></trkpt><trkpt lat="42.1168157" lon="12.5690764"><ele>46.75</ele><time>2026-05-03T11:00:31.915Z</time></trkpt><trkpt lat="42.1169044" lon="12.5692137"><ele>46.0</ele><time>2026-05-03T11:00:32.916Z</time></trkpt><trkpt lat="42.1170051" lon="12.5693439"><ele>46.0</ele><time>2026-05-03T11:00:33.917Z</time></trkpt><trkpt lat="42.1171215" lon="12.5694891"><ele>46.0</ele><time>2026-05-03T11:00:34.913Z</time></trkpt><trkpt lat="42.1172787" lon="12.569693"><ele>46.0</ele><time>2026-05-03T11:00:35.915Z</time></trkpt><trkpt lat="42.1174078" lon="12.5698743"><ele>45.25</ele><time>2026-05-03T11:00:36.92Z</time></trkpt><trkpt lat="42.1175089" lon="12.5700177"><ele>44.5</ele><time>2026-05-03T11:00:37.916Z</time></trkpt><trkpt lat="42.1176081" lon="12.5701621"><ele>43.75</ele><time>2026-05-03T11:00:38.918Z</time></trkpt><trkpt lat="42.117731" lon="12.5702716"><ele>43.0</ele><time>2026-05-03T11:00:39.923Z</time></trkpt><trkpt lat="42.1178483" lon="12.5703819"><ele>43.0</ele><time>2026-05-03T11:00:40.92Z</time></trkpt><trkpt lat="42.1179835" lon="12.5704797"><ele>43.0</ele><time>2026-05-03T11:00:41.914Z</time></trkpt><trkpt lat="42.1181309" lon="12.5705954"><ele>43.0</ele><time>2026-05-03T11:00:42.912Z</time></trkpt><trkpt lat="42.1183354" lon="12.5706903"><ele>42.333333333333336</ele><time>2026-05-03T11:00:43.917Z</time></trkpt><trkpt lat="42.1185207" lon="12.5707825"><ele>41.666666666666664</ele><time>2026-05-03T11:00:44.908Z</time></trkpt><trkpt lat="42.118686" lon="12.5708814"><ele>41.0</ele><time>2026-05-03T11:00:45.91Z</time></trkpt><trkpt lat="42.1188391" lon="12.5709794"><ele>41.0</ele><time>2026-05-03T11:00:46.909Z</time></trkpt><trkpt lat="42.1190073" lon="12.57107"><ele>41.0</ele><time>2026-05-03T11:00:47.915Z</time></trkpt><trkpt lat="42.1191854" lon="12.5711888"><ele>41.0</ele><time>2026-05-03T11:00:48.913Z</time></trkpt><trkpt lat="42.1193701" lon="12.5713063"><ele>42.0</ele><time>2026-05-03T11:00:49.917Z</time></trkpt><trkpt lat="42.1195513" lon="12.571416"><ele>43.0</ele><time>2026-05-03T11:00:50.921Z</time></trkpt><trkpt lat="42.1197014" lon="12.5715095"><ele>44.0</ele><time>2026-05-03T11:00:51.909Z</time></trkpt><trkpt lat="42.1198507" lon="12.571587"><ele>45.0</ele><time>2026-05-03T11:00:52.916Z</time></trkpt><trkpt lat="42.1199882" lon="12.5716611"><ele>46.0</ele><time>2026-05-03T11:00:53.914Z</time></trkpt><trkpt lat="42.1201132" lon="12.5717618"><ele>47.0</ele><time>2026-05-03T11:00:54.922Z</time></trkpt><trkpt lat="42.1202571" lon="12.5718645"><ele>47.0</ele><time>2026-05-03T11:00:55.914Z</time></trkpt><trkpt lat="42.1204143" lon="12.5719463"><ele>47.0</ele><time>2026-05-03T11:00:56.915Z</time></trkpt><trkpt lat="42.1205689" lon="12.5720225"><ele>47.0</ele><time>2026-05-03T11:00:57.907Z</time></trkpt><trkpt lat="42.1207176" lon="12.5721162"><ele>47.33333333333333</ele><time>2026-05-03T11:00:58.905Z</time></trkpt><trkpt lat="42.1208625" lon="12.5722184"><ele>47.666666666666664</ele><time>2026-05-03T11:00:59.913Z</time></trkpt><trkpt lat="42.121017" lon="12.5723207"><ele>48.0</ele><time>2026-05-03T11:01:00.913Z</time></trkpt><trkpt lat="42.1211707" lon="12.5724292"><ele>48.0</ele><time>2026-05-03T11:01:01.901Z</time></trkpt><trkpt lat="42.1213116" lon="12.5725626"><ele>48.0</ele><time>2026-05-03T11:01:02.909Z</time></trkpt><trkpt lat="42.1214651" lon="12.5726598"><ele>48.0</ele><time>2026-05-03T11:01:03.906Z</time></trkpt><trkpt lat="42.1216079" lon="12.5727467"><ele>49.25</ele><time>2026-05-03T11:01:04.911Z</time></trkpt><trkpt lat="42.1217393" lon="12.5728344"><ele>50.5</ele><time>2026-05-03T11:01:05.91Z</time></trkpt><trkpt lat="42.1218309" lon="12.5729403"><ele>51.75</ele><time>2026-05-03T11:01:06.904Z</time></trkpt><trkpt lat="42.1219207" lon="12.5730528"><ele>53.0</ele><time>2026-05-03T11:01:07.917Z</time></trkpt><trkpt lat="42.1220345" lon="12.5731925"><ele>53.0</ele><time>2026-05-03T11:01:08.909Z</time></trkpt><trkpt lat="42.1221649" lon="12.5733081"><ele>53.0</ele><time>2026-05-03T11:01:09.912Z</time></trkpt><trkpt lat="42.122308" lon="12.5734391"><ele>53.0</ele><time>2026-05-03T11:01:10.928Z</time></trkpt><trkpt lat="42.1224671" lon="12.5735816"><ele>54.66666666666667</ele><time>2026-05-03T11:01:11.909Z</time></trkpt><trkpt lat="42.1226366" lon="12.5736753"><ele>56.33333333333333</ele><time>2026-05-03T11:01:12.908Z</time></trkpt><trkpt lat="42.1228105" lon="12.5737787"><ele>58.0</ele><time>2026-05-03T11:01:13.91Z</time></trkpt><trkpt lat="42.1229712" lon="12.5738666"><ele>58.25</ele><time>2026-05-03T11:01:14.912Z</time></trkpt><trkpt lat="42.1231253" lon="12.5739418"><ele>58.5</ele><time>2026-05-03T11:01:15.914Z</time></trkpt><trkpt lat="42.1232543" lon="12.5740234"><ele>58.75</ele><time>2026-05-03T11:01:16.913Z</time></trkpt><trkpt lat="42.1233825" lon="12.5740897"><ele>59.0</ele><time>2026-05-03T11:01:17.908Z</time></trkpt><trkpt lat="42.1235131" lon="12.5741792"><ele>60.333333333333336</ele><time>2026-05-03T11:01:18.913Z</time></trkpt><trkpt lat="42.1236525" lon="12.5742478"><ele>61.66666666666667</ele><time>2026-05-03T11:01:19.914Z</time></trkpt><trkpt lat="42.123817" lon="12.5743125"><ele>63.0</ele><time>2026-05-03T11:01:20.912Z</time></trkpt><trkpt lat="42.1239576" lon="12.5743802"><ele>64.25</ele><time>2026-05-03T11:01:21.915Z</time></trkpt><trkpt lat="42.124072" lon="12.5744506"><ele>65.5</ele><time>2026-05-03T11:01:22.917Z</time></trkpt><trkpt lat="42.1241817" lon="12.5745237"><ele>66.75</ele><time>2026-05-03T11:01:23.937Z</time></trkpt><trkpt lat="42.1242794" lon="12.5745863"><ele>68.0</ele><time>2026-05-03T11:01:24.913Z</time></trkpt><trkpt lat="42.1244034" lon="12.5746583"><ele>68.33333333333334</ele><time>2026-05-03T11:01:25.913Z</time></trkpt><trkpt lat="42.1245477" lon="12.5747454"><ele>68.66666666666667</ele><time>2026-05-03T11:01:26.922Z</time></trkpt><trkpt lat="42.1246974" lon="12.5748279"><ele>69.0</ele><time>2026-05-03T11:01:27.916Z</time></trkpt><trkpt lat="42.1248405" lon="12.5749212"><ele>69.5</ele><time>2026-05-03T11:01:28.924Z</time></trkpt><trkpt lat="42.1249667" lon="12.574994"><ele>70.0</ele><time>2026-05-03T11:01:29.906Z</time></trkpt><trkpt lat="42.1250916" lon="12.5750672"><ele>70.5</ele><time>2026-05-03T11:01:30.916Z</time></trkpt><trkpt lat="42.1252138" lon="12.5751395"><ele>71.0</ele><time>2026-05-03T11:01:31.918Z</time></trkpt><trkpt lat="42.1253099" lon="12.5752181"><ele>71.0</ele><time>2026-05-03T11:01:32.917Z</time></trkpt><trkpt lat="42.1254132" lon="12.5752722"><ele>71.0</ele><time>2026-05-03T11:01:33.912Z</time></trkpt><trkpt lat="42.1255064" lon="12.5753237"><ele>71.0</ele><time>2026-05-03T11:01:34.91Z</time></trkpt><trkpt lat="42.1255711" lon="12.5753654"><ele>71.0</ele><time>2026-05-03T11:01:35.909Z</time></trkpt><trkpt lat="42.1256057" lon="12.5754498"><ele>71.0</ele><time>2026-05-03T11:01:36.904Z</time></trkpt><trkpt lat="42.1256378" lon="12.575534"><ele>71.0</ele><time>2026-05-03T11:01:37.909Z</time></trkpt><trkpt lat="42.125725" lon="12.5755596"><ele>71.33333333333334</ele><time>2026-05-03T11:01:39.911Z</time></trkpt><trkpt lat="42.1257921" lon="12.5755792"><ele>71.66666666666667</ele><time>2026-05-03T11:01:41.901Z</time></trkpt><trkpt lat="42.1258868" lon="12.5756202"><ele>72.0</ele><time>2026-05-03T11:01:44.917Z</time></trkpt><trkpt lat="42.1259563" lon="12.575615"><ele>72.33333333333333</ele><time>2026-05-03T11:01:45.91Z</time></trkpt><trkpt lat="42.1260266" lon="12.5755849"><ele>72.66666666666666</ele><time>2026-05-03T11:01:46.917Z</time></trkpt><trkpt lat="42.1261248" lon="12.5755374"><ele>73.0</ele><time>2026-05-03T11:01:47.911Z</time></trkpt><trkpt lat="42.126257" lon="12.575445"><ele>73.0</ele><time>2026-05-03T11:01:48.916Z</time></trkpt><trkpt lat="42.1264066" lon="12.5753558"><ele>73.0</ele><time>2026-05-03T11:01:49.908Z</time></trkpt><trkpt lat="42.1265508" lon="12.5752535"><ele>73.0</ele><time>2026-05-03T11:01:50.91Z</time></trkpt><trkpt lat="42.126729" lon="12.5750498"><ele>73.0</ele><time>2026-05-03T11:01:51.911Z</time></trkpt><trkpt lat="42.1268898" lon="12.5748485"><ele>73.0</ele><time>2026-05-03T11:01:52.919Z</time></trkpt><trkpt lat="42.1270301" lon="12.5746363"><ele>73.0</ele><time>2026-05-03T11:01:53.908Z</time></trkpt><trkpt lat="42.1271373" lon="12.5743803"><ele>73.0</ele><time>2026-05-03T11:01:54.917Z</time></trkpt><trkpt lat="42.1272167" lon="12.5741126"><ele>73.0</ele><time>2026-05-03T11:01:55.911Z</time></trkpt><trkpt lat="42.1272847" lon="12.573822"><ele>73.0</ele><time>2026-05-03T11:01:56.91Z</time></trkpt><trkpt lat="42.1273589" lon="12.5735204"><ele>74.5</ele><time>2026-05-03T11:01:57.911Z</time></trkpt><trkpt lat="42.1274572" lon="12.5732229"><ele>76.0</ele><time>2026-05-03T11:01:58.909Z</time></trkpt><trkpt lat="42.127552" lon="12.5729408"><ele>76.0</ele><time>2026-05-03T11:01:59.905Z</time></trkpt><trkpt lat="42.1276358" lon="12.5726642"><ele>76.0</ele><time>2026-05-03T11:02:00.908Z</time></trkpt><trkpt lat="42.1277339" lon="12.5724317"><ele>76.0</ele><time>2026-05-03T11:02:01.916Z</time></trkpt><trkpt lat="42.1278532" lon="12.5721942"><ele>76.33333333333333</ele><time>2026-05-03T11:02:02.909Z</time></trkpt><trkpt lat="42.1279157" lon="12.5719196"><ele>76.66666666666667</ele><time>2026-05-03T11:02:03.913Z</time></trkpt><trkpt lat="42.1279948" lon="12.5716409"><ele>77.0</ele><time>2026-05-03T11:02:04.934Z</time></trkpt><trkpt lat="42.128078" lon="12.5713613"><ele>77.0</ele><time>2026-05-03T11:02:05.911Z</time></trkpt><trkpt lat="42.128164" lon="12.5711272"><ele>77.0</ele><time>2026-05-03T11:02:06.912Z</time></trkpt><trkpt lat="42.1282442" lon="12.5708651"><ele>77.0</ele><time>2026-05-03T11:02:07.91Z</time></trkpt><trkpt lat="42.1283063" lon="12.5706603"><ele>77.0</ele><time>2026-05-03T11:02:08.906Z</time></trkpt><trkpt lat="42.1283751" lon="12.5704292"><ele>77.0</ele><time>2026-05-03T11:02:09.913Z</time></trkpt><trkpt lat="42.1284598" lon="12.5701789"><ele>77.0</ele><time>2026-05-03T11:02:10.916Z</time></trkpt><trkpt lat="42.1285411" lon="12.5699112"><ele>77.33333333333334</ele><time>2026-05-03T11:02:11.914Z</time></trkpt><trkpt lat="42.1286317" lon="12.5696731"><ele>77.66666666666667</ele><time>2026-05-03T11:02:12.918Z</time></trkpt><trkpt lat="42.1287093" lon="12.5694234"><ele>78.0</ele><time>2026-05-03T11:02:13.918Z</time></trkpt><trkpt lat="42.1287759" lon="12.5691362"><ele>78.66666666666667</ele><time>2026-05-03T11:02:14.908Z</time></trkpt><trkpt lat="42.1288683" lon="12.5688923"><ele>79.33333333333334</ele><time>2026-05-03T11:02:15.915Z</time></trkpt><trkpt lat="42.1289608" lon="12.5686498"><ele>80.0</ele><time>2026-05-03T11:02:16.915Z</time></trkpt><trkpt lat="42.1290548" lon="12.5683752"><ele>80.0</ele><time>2026-05-03T11:02:17.911Z</time></trkpt><trkpt lat="42.1291561" lon="12.5680758"><ele>80.0</ele><time>2026-05-03T11:02:18.914Z</time></trkpt><trkpt lat="42.1292533" lon="12.5678"><ele>81.5</ele><time>2026-05-03T11:02:19.916Z</time></trkpt><trkpt lat="42.1293404" lon="12.5675196"><ele>83.0</ele><time>2026-05-03T11:02:20.913Z</time></trkpt><trkpt lat="42.1294318" lon="12.5672147"><ele>84.33333333333334</ele><time>2026-05-03T11:02:21.915Z</time></trkpt><trkpt lat="42.1295313" lon="12.566956"><ele>85.66666666666667</ele><time>2026-05-03T11:02:22.957Z</time></trkpt><trkpt lat="42.1296322" lon="12.5666945"><ele>87.0</ele><time>2026-05-03T11:02:23.959Z</time></trkpt><trkpt lat="42.1297203" lon="12.5664403"><ele>87.0</ele><time>2026-05-03T11:02:24.939Z</time></trkpt><trkpt lat="42.129788" lon="12.5662519"><ele>87.0</ele><time>2026-05-03T11:02:25.934Z</time></trkpt><trkpt lat="42.1298519" lon="12.5660695"><ele>87.0</ele><time>2026-05-03T11:02:26.921Z</time></trkpt><trkpt lat="42.1299046" lon="12.5659381"><ele>87.0</ele><time>2026-05-03T11:02:27.911Z</time></trkpt><trkpt lat="42.1299511" lon="12.5658217"><ele>87.0</ele><time>2026-05-03T11:02:28.91Z</time></trkpt><trkpt lat="42.1300312" lon="12.5657203"><ele>87.0</ele><time>2026-05-03T11:02:29.903Z</time></trkpt><trkpt lat="42.1300594" lon="12.5655651"><ele>87.0</ele><time>2026-05-03T11:02:31.904Z</time></trkpt><trkpt lat="42.1300865" lon="12.5654761"><ele>87.0</ele><time>2026-05-03T11:02:32.904Z</time></trkpt><trkpt lat="42.1301364" lon="12.5653698"><ele>87.0</ele><time>2026-05-03T11:02:33.905Z</time></trkpt><trkpt lat="42.1301829" lon="12.565273"><ele>87.33333333333333</ele><time>2026-05-03T11:02:34.902Z</time></trkpt><trkpt lat="42.1302717" lon="12.5652355"><ele>87.66666666666667</ele><time>2026-05-03T11:02:36.906Z</time></trkpt><trkpt lat="42.1303433" lon="12.5653226"><ele>88.0</ele><time>2026-05-03T11:02:38.92Z</time></trkpt><trkpt lat="42.1304226" lon="12.5653583"><ele>88.33333333333334</ele><time>2026-05-03T11:02:40.909Z</time></trkpt><trkpt lat="42.1304852" lon="12.5653272"><ele>88.66666666666667</ele><time>2026-05-03T11:02:41.905Z</time></trkpt><trkpt lat="42.1305515" lon="12.565276"><ele>89.0</ele><time>2026-05-03T11:02:42.904Z</time></trkpt><trkpt lat="42.1306265" lon="12.5652022"><ele>89.0</ele><time>2026-05-03T11:02:43.904Z</time></trkpt><trkpt lat="42.130705" lon="12.5651108"><ele>89.0</ele><time>2026-05-03T11:02:44.909Z</time></trkpt><trkpt lat="42.1307908" lon="12.5650117"><ele>89.0</ele><time>2026-05-03T11:02:45.907Z</time></trkpt><trkpt lat="42.1308862" lon="12.5648903"><ele>89.0</ele><time>2026-05-03T11:02:46.909Z</time></trkpt><trkpt lat="42.1309804" lon="12.5647731"><ele>89.0</ele><time>2026-05-03T11:02:47.907Z</time></trkpt><trkpt lat="42.1310738" lon="12.5646555"><ele>89.0</ele><time>2026-05-03T11:02:48.907Z</time></trkpt><trkpt lat="42.1311651" lon="12.5645196"><ele>89.0</ele><time>2026-05-03T11:02:49.916Z</time></trkpt><trkpt lat="42.1312668" lon="12.5643604"><ele>89.0</ele><time>2026-05-03T11:02:50.918Z</time></trkpt><trkpt lat="42.1314022" lon="12.5640918"><ele>89.0</ele><time>2026-05-03T11:02:51.913Z</time></trkpt><trkpt lat="42.1315256" lon="12.5638247"><ele>89.0</ele><time>2026-05-03T11:02:52.921Z</time></trkpt><trkpt lat="42.1316365" lon="12.5636063"><ele>89.0</ele><time>2026-05-03T11:02:53.915Z</time></trkpt><trkpt lat="42.1317375" lon="12.5633652"><ele>89.0</ele><time>2026-05-03T11:02:54.921Z</time></trkpt><trkpt lat="42.1318559" lon="12.5631329"><ele>89.0</ele><time>2026-05-03T11:02:55.909Z</time></trkpt><trkpt lat="42.1319742" lon="12.5629204"><ele>89.0</ele><time>2026-05-03T11:02:56.926Z</time></trkpt><trkpt lat="42.1320825" lon="12.5627347"><ele>89.66666666666667</ele><time>2026-05-03T11:02:57.913Z</time></trkpt><trkpt lat="42.1321933" lon="12.5625535"><ele>90.33333333333333</ele><time>2026-05-03T11:02:58.918Z</time></trkpt><trkpt lat="42.1322871" lon="12.5623759"><ele>91.0</ele><time>2026-05-03T11:02:59.934Z</time></trkpt><trkpt lat="42.1323533" lon="12.5622031"><ele>89.66666666666666</ele><time>2026-05-03T11:03:00.912Z</time></trkpt><trkpt lat="42.1323969" lon="12.5620056"><ele>88.33333333333333</ele><time>2026-05-03T11:03:01.921Z</time></trkpt><trkpt lat="42.132458" lon="12.5618213"><ele>87.0</ele><time>2026-05-03T11:03:02.91Z</time></trkpt><trkpt lat="42.1325362" lon="12.5616453"><ele>87.0</ele><time>2026-05-03T11:03:03.919Z</time></trkpt><trkpt lat="42.1326054" lon="12.5614885"><ele>87.0</ele><time>2026-05-03T11:03:04.917Z</time></trkpt><trkpt lat="42.1326659" lon="12.5613111"><ele>87.0</ele><time>2026-05-03T11:03:05.916Z</time></trkpt><trkpt lat="42.1327213" lon="12.5611468"><ele>87.0</ele><time>2026-05-03T11:03:06.915Z</time></trkpt><trkpt lat="42.1327896" lon="12.5609921"><ele>87.66666666666667</ele><time>2026-05-03T11:03:07.914Z</time></trkpt><trkpt lat="42.1328729" lon="12.5608302"><ele>88.33333333333334</ele><time>2026-05-03T11:03:08.916Z</time></trkpt><trkpt lat="42.1329708" lon="12.5606646"><ele>89.0</ele><time>2026-05-03T11:03:09.919Z</time></trkpt><trkpt lat="42.1330858" lon="12.5605044"><ele>89.33333333333334</ele><time>2026-05-03T11:03:10.917Z</time></trkpt><trkpt lat="42.1331858" lon="12.5603355"><ele>89.66666666666667</ele><time>2026-05-03T11:03:11.913Z</time></trkpt><trkpt lat="42.1332862" lon="12.560178"><ele>90.0</ele><time>2026-05-03T11:03:12.918Z</time></trkpt><trkpt lat="42.1333868" lon="12.5600302"><ele>90.0</ele><time>2026-05-03T11:03:13.916Z</time></trkpt><trkpt lat="42.1334584" lon="12.5598821"><ele>90.0</ele><time>2026-05-03T11:03:14.926Z</time></trkpt><trkpt lat="42.1335298" lon="12.5597315"><ele>90.0</ele><time>2026-05-03T11:03:15.923Z</time></trkpt><trkpt lat="42.1336089" lon="12.5595741"><ele>90.0</ele><time>2026-05-03T11:03:16.916Z</time></trkpt><trkpt lat="42.1336855" lon="12.559391"><ele>90.33333333333333</ele><time>2026-05-03T11:03:17.918Z</time></trkpt><trkpt lat="42.1337565" lon="12.559186"><ele>90.66666666666666</ele><time>2026-05-03T11:03:18.918Z</time></trkpt><trkpt lat="42.1338222" lon="12.5589859"><ele>91.0</ele><time>2026-05-03T11:03:19.922Z</time></trkpt><trkpt lat="42.1338955" lon="12.5587764"><ele>92.0</ele><time>2026-05-03T11:03:20.914Z</time></trkpt><trkpt lat="42.1339654" lon="12.5585455"><ele>93.0</ele><time>2026-05-03T11:03:21.923Z</time></trkpt><trkpt lat="42.1340112" lon="12.5583227"><ele>94.0</ele><time>2026-05-03T11:03:22.925Z</time></trkpt><trkpt lat="42.1340638" lon="12.5581148"><ele>94.5</ele><time>2026-05-03T11:03:23.916Z</time></trkpt><trkpt lat="42.134117" lon="12.5579225"><ele>95.0</ele><time>2026-05-03T11:03:24.913Z</time></trkpt><trkpt lat="42.1341513" lon="12.5577074"><ele>95.5</ele><time>2026-05-03T11:03:25.906Z</time></trkpt><trkpt lat="42.1341732" lon="12.5575526"><ele>96.0</ele><time>2026-05-03T11:03:26.908Z</time></trkpt><trkpt lat="42.1341996" lon="12.5573539"><ele>96.5</ele><time>2026-05-03T11:03:27.903Z</time></trkpt><trkpt lat="42.134221" lon="12.5571846"><ele>97.0</ele><time>2026-05-03T11:03:28.907Z</time></trkpt><trkpt lat="42.1342323" lon="12.5570039"><ele>97.5</ele><time>2026-05-03T11:03:29.916Z</time></trkpt><trkpt lat="42.1342461" lon="12.556785"><ele>98.0</ele><time>2026-05-03T11:03:30.915Z</time></trkpt><trkpt lat="42.1342701" lon="12.5565779"><ele>98.25</ele><time>2026-05-03T11:03:31.907Z</time></trkpt><trkpt lat="42.1343022" lon="12.5564027"><ele>98.5</ele><time>2026-05-03T11:03:32.912Z</time></trkpt><trkpt lat="42.1343212" lon="12.5561866"><ele>98.75</ele><time>2026-05-03T11:03:33.905Z</time></trkpt><trkpt lat="42.1343414" lon="12.5560518"><ele>99.0</ele><time>2026-05-03T11:03:34.903Z</time></trkpt><trkpt lat="42.1344126" lon="12.5560336"><ele>99.25</ele><time>2026-05-03T11:03:36.908Z</time></trkpt><trkpt lat="42.1345252" lon="12.5561366"><ele>99.5</ele><time>2026-05-03T11:03:38.908Z</time></trkpt><trkpt lat="42.1346023" lon="12.5561665"><ele>99.75</ele><time>2026-05-03T11:03:39.907Z</time></trkpt><trkpt lat="42.1347233" lon="12.5560498"><ele>100.0</ele><time>2026-05-03T11:03:41.912Z</time></trkpt><trkpt lat="42.1347986" lon="12.5559484"><ele>100.75</ele><time>2026-05-03T11:03:42.911Z</time></trkpt><trkpt lat="42.1348886" lon="12.5558127"><ele>101.5</ele><time>2026-05-03T11:03:43.906Z</time></trkpt><trkpt lat="42.1350125" lon="12.555688"><ele>102.25</ele><time>2026-05-03T11:03:44.909Z</time></trkpt><trkpt lat="42.1351353" lon="12.5555694"><ele>103.0</ele><time>2026-05-03T11:03:45.901Z</time></trkpt><trkpt lat="42.1353474" lon="12.5554089"><ele>103.0</ele><time>2026-05-03T11:03:46.896Z</time></trkpt><trkpt lat="42.1355783" lon="12.5551908"><ele>103.0</ele><time>2026-05-03T11:03:47.906Z</time></trkpt><trkpt lat="42.1357659" lon="12.5549845"><ele>103.0</ele><time>2026-05-03T11:03:48.931Z</time></trkpt><trkpt lat="42.1359516" lon="12.5547866"><ele>103.0</ele><time>2026-05-03T11:03:49.911Z</time></trkpt><trkpt lat="42.1361141" lon="12.5546328"><ele>103.0</ele><time>2026-05-03T11:03:50.916Z</time></trkpt><trkpt lat="42.1362665" lon="12.5544746"><ele>103.5</ele><time>2026-05-03T11:03:51.907Z</time></trkpt><trkpt lat="42.1364354" lon="12.5542804"><ele>104.0</ele><time>2026-05-03T11:03:52.917Z</time></trkpt><trkpt lat="42.1366029" lon="12.554049"><ele>103.0</ele><time>2026-05-03T11:03:53.906Z</time></trkpt><trkpt lat="42.1367425" lon="12.5538037"><ele>102.0</ele><time>2026-05-03T11:03:54.913Z</time></trkpt><trkpt lat="42.1368735" lon="12.553626"><ele>101.0</ele><time>2026-05-03T11:03:55.919Z</time></trkpt><trkpt lat="42.1370009" lon="12.5534526"><ele>101.0</ele><time>2026-05-03T11:03:56.914Z</time></trkpt><trkpt lat="42.1371447" lon="12.5532553"><ele>101.0</ele><time>2026-05-03T11:03:57.918Z</time></trkpt><trkpt lat="42.1372996" lon="12.5530384"><ele>101.0</ele><time>2026-05-03T11:03:58.912Z</time></trkpt><trkpt lat="42.1374379" lon="12.5528584"><ele>101.0</ele><time>2026-05-03T11:03:59.905Z</time></trkpt><trkpt lat="42.1375571" lon="12.5526933"><ele>101.0</ele><time>2026-05-03T11:04:00.908Z</time></trkpt><trkpt lat="42.1377128" lon="12.552501"><ele>101.0</ele><time>2026-05-03T11:04:01.91Z</time></trkpt><trkpt lat="42.1378506" lon="12.5523262"><ele>101.0</ele><time>2026-05-03T11:04:02.911Z</time></trkpt><trkpt lat="42.1379725" lon="12.5521707"><ele>101.0</ele><time>2026-05-03T11:04:03.91Z</time></trkpt><trkpt lat="42.1381053" lon="12.5520484"><ele>101.0</ele><time>2026-05-03T11:04:04.907Z</time></trkpt><trkpt lat="42.1382596" lon="12.5519691"><ele>100.0</ele><time>2026-05-03T11:04:05.931Z</time></trkpt><trkpt lat="42.1384431" lon="12.5519225"><ele>99.0</ele><time>2026-05-03T11:04:06.907Z</time></trkpt><trkpt lat="42.138649" lon="12.5519225"><ele>98.0</ele><time>2026-05-03T11:04:07.921Z</time></trkpt><trkpt lat="42.1388847" lon="12.5519348"><ele>97.33333333333333</ele><time>2026-05-03T11:04:08.911Z</time></trkpt><trkpt lat="42.1391041" lon="12.5519172"><ele>96.66666666666666</ele><time>2026-05-03T11:04:09.911Z</time></trkpt><trkpt lat="42.139305" lon="12.5518779"><ele>96.0</ele><time>2026-05-03T11:04:10.912Z</time></trkpt><trkpt lat="42.1395152" lon="12.5518593"><ele>96.0</ele><time>2026-05-03T11:04:11.909Z</time></trkpt><trkpt lat="42.139713" lon="12.5518378"><ele>96.0</ele><time>2026-05-03T11:04:12.936Z</time></trkpt><trkpt lat="42.139921" lon="12.5518044"><ele>96.0</ele><time>2026-05-03T11:04:13.932Z</time></trkpt><trkpt lat="42.140114" lon="12.5517433"><ele>96.33333333333334</ele><time>2026-05-03T11:04:14.932Z</time></trkpt><trkpt lat="42.140291" lon="12.5516974"><ele>96.66666666666667</ele><time>2026-05-03T11:04:15.906Z</time></trkpt><trkpt lat="42.1404652" lon="12.5516378"><ele>97.0</ele><time>2026-05-03T11:04:16.912Z</time></trkpt><trkpt lat="42.1406428" lon="12.5515572"><ele>96.33333333333334</ele><time>2026-05-03T11:04:17.907Z</time></trkpt><trkpt lat="42.1408302" lon="12.5515"><ele>95.66666666666667</ele><time>2026-05-03T11:04:18.914Z</time></trkpt><trkpt lat="42.1410382" lon="12.5514026"><ele>95.0</ele><time>2026-05-03T11:04:19.922Z</time></trkpt><trkpt lat="42.1412766" lon="12.5513304"><ele>95.0</ele><time>2026-05-03T11:04:20.91Z</time></trkpt><trkpt lat="42.1415109" lon="12.5513157"><ele>95.0</ele><time>2026-05-03T11:04:21.914Z</time></trkpt><trkpt lat="42.1417154" lon="12.5512918"><ele>95.0</ele><time>2026-05-03T11:04:22.917Z</time></trkpt><trkpt lat="42.1419248" lon="12.5512472"><ele>95.66666666666667</ele><time>2026-05-03T11:04:23.914Z</time></trkpt><trkpt lat="42.1421364" lon="12.5511575"><ele>96.33333333333334</ele><time>2026-05-03T11:04:24.916Z</time></trkpt><trkpt lat="42.1423257" lon="12.5510435"><ele>97.0</ele><time>2026-05-03T11:04:25.912Z</time></trkpt><trkpt lat="42.1425206" lon="12.5509198"><ele>97.0</ele><time>2026-05-03T11:04:26.925Z</time></trkpt><trkpt lat="42.1427199" lon="12.5507972"><ele>97.0</ele><time>2026-05-03T11:04:27.913Z</time></trkpt><trkpt lat="42.1429434" lon="12.5507192"><ele>97.0</ele><time>2026-05-03T11:04:28.917Z</time></trkpt><trkpt lat="42.1431838" lon="12.5506473"><ele>97.0</ele><time>2026-05-03T11:04:29.936Z</time></trkpt><trkpt lat="42.1433978" lon="12.5505733"><ele>97.5</ele><time>2026-05-03T11:04:30.918Z</time></trkpt><trkpt lat="42.1436571" lon="12.5505198"><ele>98.0</ele><time>2026-05-03T11:04:31.91Z</time></trkpt><trkpt lat="42.1439353" lon="12.5504433"><ele>97.5</ele><time>2026-05-03T11:04:32.918Z</time></trkpt><trkpt lat="42.1442001" lon="12.5503417"><ele>97.0</ele><time>2026-05-03T11:04:33.915Z</time></trkpt><trkpt lat="42.1444575" lon="12.5502548"><ele>97.0</ele><time>2026-05-03T11:04:34.917Z</time></trkpt><trkpt lat="42.1447114" lon="12.5501726"><ele>97.0</ele><time>2026-05-03T11:04:35.919Z</time></trkpt><trkpt lat="42.1449472" lon="12.5501095"><ele>97.0</ele><time>2026-05-03T11:04:36.916Z</time></trkpt><trkpt lat="42.1451913" lon="12.5500412"><ele>97.0</ele><time>2026-05-03T11:04:37.912Z</time></trkpt><trkpt lat="42.1454214" lon="12.5499848"><ele>97.0</ele><time>2026-05-03T11:04:38.912Z</time></trkpt><trkpt lat="42.1456464" lon="12.5499095"><ele>97.0</ele><time>2026-05-03T11:04:39.916Z</time></trkpt><trkpt lat="42.1458631" lon="12.5498422"><ele>96.66666666666667</ele><time>2026-05-03T11:04:40.913Z</time></trkpt><trkpt lat="42.1460824" lon="12.5497668"><ele>96.33333333333334</ele><time>2026-05-03T11:04:41.926Z</time></trkpt><trkpt lat="42.146258" lon="12.5497186"><ele>96.0</ele><time>2026-05-03T11:04:42.9Z</time></trkpt><trkpt lat="42.1464171" lon="12.5496648"><ele>96.33333333333334</ele><time>2026-05-03T11:04:43.934Z</time></trkpt><trkpt lat="42.1465871" lon="12.5496077"><ele>96.66666666666667</ele><time>2026-05-03T11:04:44.93Z</time></trkpt><trkpt lat="42.1467573" lon="12.5495476"><ele>97.0</ele><time>2026-05-03T11:04:45.916Z</time></trkpt><trkpt lat="42.1469201" lon="12.5494836"><ele>97.0</ele><time>2026-05-03T11:04:46.918Z</time></trkpt><trkpt lat="42.1470593" lon="12.5494723"><ele>97.0</ele><time>2026-05-03T11:04:47.91Z</time></trkpt><trkpt lat="42.147194" lon="12.5494596"><ele>97.0</ele><time>2026-05-03T11:04:48.919Z</time></trkpt><trkpt lat="42.1473191" lon="12.5494642"><ele>97.0</ele><time>2026-05-03T11:04:49.92Z</time></trkpt><trkpt lat="42.1474357" lon="12.5494951"><ele>95.75</ele><time>2026-05-03T11:04:50.916Z</time></trkpt><trkpt lat="42.1475338" lon="12.5495434"><ele>94.5</ele><time>2026-05-03T11:04:51.92Z</time></trkpt><trkpt lat="42.1476767" lon="12.5495824"><ele>93.25</ele><time>2026-05-03T11:04:52.913Z</time></trkpt><trkpt lat="42.1478303" lon="12.5496542"><ele>92.0</ele><time>2026-05-03T11:04:53.909Z</time></trkpt><trkpt lat="42.1479732" lon="12.5496909"><ele>92.0</ele><time>2026-05-03T11:04:54.91Z</time></trkpt><trkpt lat="42.1481568" lon="12.549762"><ele>92.0</ele><time>2026-05-03T11:04:55.917Z</time></trkpt><trkpt lat="42.1483459" lon="12.5498129"><ele>92.0</ele><time>2026-05-03T11:04:56.919Z</time></trkpt><trkpt lat="42.1485708" lon="12.5498317"><ele>92.66666666666667</ele><time>2026-05-03T11:04:57.912Z</time></trkpt><trkpt lat="42.1487875" lon="12.5498686"><ele>93.33333333333333</ele><time>2026-05-03T11:04:58.92Z</time></trkpt><trkpt lat="42.1489692" lon="12.5498846"><ele>94.0</ele><time>2026-05-03T11:04:59.916Z</time></trkpt><trkpt lat="42.1491566" lon="12.5499034"><ele>95.66666666666666</ele><time>2026-05-03T11:05:00.915Z</time></trkpt><trkpt lat="42.149348" lon="12.5499224"><ele>97.33333333333333</ele><time>2026-05-03T11:05:01.915Z</time></trkpt><trkpt lat="42.1495519" lon="12.5499049"><ele>99.0</ele><time>2026-05-03T11:05:02.915Z</time></trkpt><trkpt lat="42.1497652" lon="12.5499024"><ele>99.0</ele><time>2026-05-03T11:05:03.92Z</time></trkpt><trkpt lat="42.1499712" lon="12.5498937"><ele>99.0</ele><time>2026-05-03T11:05:04.947Z</time></trkpt><trkpt lat="42.1501768" lon="12.549872"><ele>99.0</ele><time>2026-05-03T11:05:05.939Z</time></trkpt><trkpt lat="42.1503859" lon="12.549837"><ele>99.0</ele><time>2026-05-03T11:05:06.91Z</time></trkpt><trkpt lat="42.1505909" lon="12.5498086"><ele>99.0</ele><time>2026-05-03T11:05:07.932Z</time></trkpt><trkpt lat="42.1507945" lon="12.5497828"><ele>99.0</ele><time>2026-05-03T11:05:08.91Z</time></trkpt><trkpt lat="42.1510036" lon="12.5497607"><ele>99.0</ele><time>2026-05-03T11:05:09.911Z</time></trkpt><trkpt lat="42.1512034" lon="12.5497246"><ele>99.0</ele><time>2026-05-03T11:05:10.912Z</time></trkpt><trkpt lat="42.1514003" lon="12.5497092"><ele>99.0</ele><time>2026-05-03T11:05:11.912Z</time></trkpt><trkpt lat="42.1516019" lon="12.5496846"><ele>99.66666666666666</ele><time>2026-05-03T11:05:12.91Z</time></trkpt><trkpt lat="42.1518017" lon="12.5496755"><ele>100.33333333333333</ele><time>2026-05-03T11:05:13.907Z</time></trkpt><trkpt lat="42.1519945" lon="12.5496796"><ele>101.0</ele><time>2026-05-03T11:05:14.908Z</time></trkpt><trkpt lat="42.1521671" lon="12.5497036"><ele>101.0</ele><time>2026-05-03T11:05:15.917Z</time></trkpt><trkpt lat="42.1523374" lon="12.5496941"><ele>101.0</ele><time>2026-05-03T11:05:16.908Z</time></trkpt><trkpt lat="42.1524636" lon="12.5496757"><ele>101.0</ele><time>2026-05-03T11:05:17.916Z</time></trkpt><trkpt lat="42.1525875" lon="12.5496423"><ele>101.0</ele><time>2026-05-03T11:05:18.904Z</time></trkpt><trkpt lat="42.1527538" lon="12.5495501"><ele>103.33333333333333</ele><time>2026-05-03T11:05:19.903Z</time></trkpt><trkpt lat="42.1529351" lon="12.5494132"><ele>105.66666666666666</ele><time>2026-05-03T11:05:20.906Z</time></trkpt><trkpt lat="42.1531258" lon="12.5493155"><ele>108.0</ele><time>2026-05-03T11:05:21.91Z</time></trkpt><trkpt lat="42.1533318" lon="12.5492435"><ele>108.0</ele><time>2026-05-03T11:05:22.96Z</time></trkpt><trkpt lat="42.1535219" lon="12.5491694"><ele>108.0</ele><time>2026-05-03T11:05:23.952Z</time></trkpt><trkpt lat="42.1537133" lon="12.5491247"><ele>108.0</ele><time>2026-05-03T11:05:24.957Z</time></trkpt><trkpt lat="42.1538951" lon="12.5490549"><ele>105.66666666666666</ele><time>2026-05-03T11:05:25.959Z</time></trkpt><trkpt lat="42.1540901" lon="12.548974"><ele>103.33333333333333</ele><time>2026-05-03T11:05:26.956Z</time></trkpt><trkpt lat="42.1542761" lon="12.5489532"><ele>101.0</ele><time>2026-05-03T11:05:27.954Z</time></trkpt><trkpt lat="42.1544809" lon="12.5489578"><ele>101.0</ele><time>2026-05-03T11:05:28.983Z</time></trkpt><trkpt lat="42.1546857" lon="12.5489672"><ele>101.0</ele><time>2026-05-03T11:05:29.953Z</time></trkpt><trkpt lat="42.1549003" lon="12.548969"><ele>101.0</ele><time>2026-05-03T11:05:30.957Z</time></trkpt><trkpt lat="42.1551011" lon="12.5489465"><ele>101.0</ele><time>2026-05-03T11:05:31.957Z</time></trkpt><trkpt lat="42.155296" lon="12.5489403"><ele>101.0</ele><time>2026-05-03T11:05:32.955Z</time></trkpt><trkpt lat="42.1555007" lon="12.5489152"><ele>101.0</ele><time>2026-05-03T11:05:33.955Z</time></trkpt><trkpt lat="42.1557283" lon="12.5488738"><ele>99.66666666666666</ele><time>2026-05-03T11:05:34.959Z</time></trkpt><trkpt lat="42.1559266" lon="12.5488487"><ele>98.33333333333334</ele><time>2026-05-03T11:05:35.961Z</time></trkpt><trkpt lat="42.1560986" lon="12.548828"><ele>97.0</ele><time>2026-05-03T11:05:36.953Z</time></trkpt><trkpt lat="42.156278" lon="12.5488394"><ele>97.0</ele><time>2026-05-03T11:05:37.955Z</time></trkpt><trkpt lat="42.1564696" lon="12.5488574"><ele>97.0</ele><time>2026-05-03T11:05:38.937Z</time></trkpt><trkpt lat="42.1566307" lon="12.5488953"><ele>97.0</ele><time>2026-05-03T11:05:39.93Z</time></trkpt><trkpt lat="42.1567698" lon="12.5489306"><ele>96.33333333333334</ele><time>2026-05-03T11:05:40.926Z</time></trkpt><trkpt lat="42.1569277" lon="12.548981"><ele>95.66666666666667</ele><time>2026-05-03T11:05:41.949Z</time></trkpt><trkpt lat="42.1570847" lon="12.5490163"><ele>95.0</ele><time>2026-05-03T11:05:42.954Z</time></trkpt><trkpt lat="42.1572213" lon="12.5490361"><ele>95.33333333333334</ele><time>2026-05-03T11:05:43.915Z</time></trkpt><trkpt lat="42.1573754" lon="12.5490573"><ele>95.66666666666667</ele><time>2026-05-03T11:05:44.912Z</time></trkpt><trkpt lat="42.1575376" lon="12.5490742"><ele>96.0</ele><time>2026-05-03T11:05:45.915Z</time></trkpt><trkpt lat="42.1577053" lon="12.5490708"><ele>96.0</ele><time>2026-05-03T11:05:46.914Z</time></trkpt><trkpt lat="42.1578464" lon="12.5490673"><ele>96.0</ele><time>2026-05-03T11:05:47.914Z</time></trkpt><trkpt lat="42.1579872" lon="12.5490522"><ele>96.0</ele><time>2026-05-03T11:05:48.906Z</time></trkpt><trkpt lat="42.1581483" lon="12.5489859"><ele>96.0</ele><time>2026-05-03T11:05:49.909Z</time></trkpt><trkpt lat="42.1583295" lon="12.5488817"><ele>96.0</ele><time>2026-05-03T11:05:50.91Z</time></trkpt><trkpt lat="42.1585283" lon="12.5487671"><ele>96.0</ele><time>2026-05-03T11:05:51.906Z</time></trkpt><trkpt lat="42.1587404" lon="12.5486541"><ele>96.0</ele><time>2026-05-03T11:05:52.913Z</time></trkpt><trkpt lat="42.1589567" lon="12.5485489"><ele>96.0</ele><time>2026-05-03T11:05:53.902Z</time></trkpt><trkpt lat="42.1591724" lon="12.5483927"><ele>96.5</ele><time>2026-05-03T11:05:54.903Z</time></trkpt><trkpt lat="42.1593941" lon="12.5482475"><ele>97.0</ele><time>2026-05-03T11:05:55.916Z</time></trkpt><trkpt lat="42.1596327" lon="12.5481193"><ele>97.5</ele><time>2026-05-03T11:05:56.924Z</time></trkpt><trkpt lat="42.159876" lon="12.5480245"><ele>98.0</ele><time>2026-05-03T11:05:57.911Z</time></trkpt><trkpt lat="42.1600749" lon="12.5479457"><ele>98.33333333333333</ele><time>2026-05-03T11:05:58.915Z</time></trkpt><trkpt lat="42.160255" lon="12.5478481"><ele>98.66666666666666</ele><time>2026-05-03T11:05:59.91Z</time></trkpt><trkpt lat="42.1604185" lon="12.5477775"><ele>99.0</ele><time>2026-05-03T11:06:00.905Z</time></trkpt><trkpt lat="42.160576" lon="12.5477113"><ele>99.66666666666666</ele><time>2026-05-03T11:06:01.904Z</time></trkpt><trkpt lat="42.1607633" lon="12.5476361"><ele>100.33333333333333</ele><time>2026-05-03T11:06:02.911Z</time></trkpt><trkpt lat="42.1609855" lon="12.5475341"><ele>101.0</ele><time>2026-05-03T11:06:03.906Z</time></trkpt><trkpt lat="42.161203" lon="12.5474615"><ele>101.0</ele><time>2026-05-03T11:06:04.906Z</time></trkpt><trkpt lat="42.161408" lon="12.5474292"><ele>101.0</ele><time>2026-05-03T11:06:05.908Z</time></trkpt><trkpt lat="42.1616028" lon="12.5474007"><ele>101.0</ele><time>2026-05-03T11:06:06.904Z</time></trkpt><trkpt lat="42.1618051" lon="12.5473939"><ele>100.66666666666666</ele><time>2026-05-03T11:06:07.905Z</time></trkpt><trkpt lat="42.1619855" lon="12.5473878"><ele>100.33333333333334</ele><time>2026-05-03T11:06:08.906Z</time></trkpt><trkpt lat="42.1621599" lon="12.5473765"><ele>100.0</ele><time>2026-05-03T11:06:09.906Z</time></trkpt><trkpt lat="42.1623468" lon="12.5473709"><ele>100.66666666666667</ele><time>2026-05-03T11:06:10.912Z</time></trkpt><trkpt lat="42.1625431" lon="12.5473796"><ele>101.33333333333334</ele><time>2026-05-03T11:06:11.911Z</time></trkpt><trkpt lat="42.1627041" lon="12.547378"><ele>102.0</ele><time>2026-05-03T11:06:12.91Z</time></trkpt><trkpt lat="42.1628552" lon="12.5474067"><ele>102.0</ele><time>2026-05-03T11:06:13.909Z</time></trkpt><trkpt lat="42.1630125" lon="12.5474514"><ele>102.0</ele><time>2026-05-03T11:06:14.915Z</time></trkpt><trkpt lat="42.1631736" lon="12.5474897"><ele>102.0</ele><time>2026-05-03T11:06:15.909Z</time></trkpt><trkpt lat="42.1633383" lon="12.5475089"><ele>103.33333333333334</ele><time>2026-05-03T11:06:16.912Z</time></trkpt><trkpt lat="42.163524" lon="12.547526"><ele>104.66666666666667</ele><time>2026-05-03T11:06:17.914Z</time></trkpt><trkpt lat="42.1637103" lon="12.5475332"><ele>106.0</ele><time>2026-05-03T11:06:18.905Z</time></trkpt><trkpt lat="42.1638954" lon="12.5475362"><ele>106.0</ele><time>2026-05-03T11:06:19.914Z</time></trkpt><trkpt lat="42.164062" lon="12.5475472"><ele>106.0</ele><time>2026-05-03T11:06:20.91Z</time></trkpt><trkpt lat="42.1642228" lon="12.5475347"><ele>106.0</ele><time>2026-05-03T11:06:21.906Z</time></trkpt><trkpt lat="42.1643759" lon="12.5475186"><ele>106.0</ele><time>2026-05-03T11:06:22.905Z</time></trkpt><trkpt lat="42.1645161" lon="12.5475134"><ele>106.0</ele><time>2026-05-03T11:06:23.906Z</time></trkpt><trkpt lat="42.164653" lon="12.5474649"><ele>106.0</ele><time>2026-05-03T11:06:24.905Z</time></trkpt><trkpt lat="42.1648087" lon="12.5474346"><ele>106.0</ele><time>2026-05-03T11:06:25.909Z</time></trkpt><trkpt lat="42.1649406" lon="12.5474073"><ele>106.33333333333334</ele><time>2026-05-03T11:06:26.909Z</time></trkpt><trkpt lat="42.1650699" lon="12.5473968"><ele>106.66666666666666</ele><time>2026-05-03T11:06:27.905Z</time></trkpt><trkpt lat="42.1652301" lon="12.5473313"><ele>107.0</ele><time>2026-05-03T11:06:28.9Z</time></trkpt><trkpt lat="42.1654068" lon="12.547237"><ele>107.0</ele><time>2026-05-03T11:06:29.904Z</time></trkpt><trkpt lat="42.1655774" lon="12.5471582"><ele>107.0</ele><time>2026-05-03T11:06:30.904Z</time></trkpt><trkpt lat="42.1657641" lon="12.547059"><ele>107.0</ele><time>2026-05-03T11:06:31.906Z</time></trkpt><trkpt lat="42.1659297" lon="12.5469902"><ele>110.0</ele><time>2026-05-03T11:06:32.915Z</time></trkpt><trkpt lat="42.1661297" lon="12.5468754"><ele>113.0</ele><time>2026-05-03T11:06:33.904Z</time></trkpt><trkpt lat="42.1662885" lon="12.546755"><ele>116.0</ele><time>2026-05-03T11:06:34.906Z</time></trkpt><trkpt lat="42.1664289" lon="12.5466334"><ele>114.5</ele><time>2026-05-03T11:06:35.906Z</time></trkpt><trkpt lat="42.1665299" lon="12.5465554"><ele>113.0</ele><time>2026-05-03T11:06:36.906Z</time></trkpt><trkpt lat="42.1666523" lon="12.5464309"><ele>111.5</ele><time>2026-05-03T11:06:37.908Z</time></trkpt><trkpt lat="42.1667298" lon="12.5462762"><ele>110.0</ele><time>2026-05-03T11:06:38.903Z</time></trkpt><trkpt lat="42.1668003" lon="12.546123"><ele>113.25</ele><time>2026-05-03T11:06:39.931Z</time></trkpt><trkpt lat="42.1668659" lon="12.5459667"><ele>116.5</ele><time>2026-05-03T11:06:40.909Z</time></trkpt><trkpt lat="42.1669355" lon="12.5457901"><ele>119.75</ele><time>2026-05-03T11:06:41.932Z</time></trkpt><trkpt lat="42.1670218" lon="12.5456092"><ele>123.0</ele><time>2026-05-03T11:06:42.923Z</time></trkpt><trkpt lat="42.167081" lon="12.5454525"><ele>122.0</ele><time>2026-05-03T11:06:43.923Z</time></trkpt><trkpt lat="42.1671496" lon="12.5453102"><ele>121.0</ele><time>2026-05-03T11:06:44.919Z</time></trkpt><trkpt lat="42.1672067" lon="12.545174"><ele>120.0</ele><time>2026-05-03T11:06:45.898Z</time></trkpt><trkpt lat="42.1672879" lon="12.5450411"><ele>119.0</ele><time>2026-05-03T11:06:46.906Z</time></trkpt><trkpt lat="42.1673899" lon="12.5448754"><ele>119.0</ele><time>2026-05-03T11:06:47.902Z</time></trkpt><trkpt lat="42.1675426" lon="12.5447342"><ele>119.0</ele><time>2026-05-03T11:06:48.901Z</time></trkpt><trkpt lat="42.1676626" lon="12.5446166"><ele>119.0</ele><time>2026-05-03T11:06:49.934Z</time></trkpt><trkpt lat="42.1677782" lon="12.5445019"><ele>117.5</ele><time>2026-05-03T11:06:50.918Z</time></trkpt><trkpt lat="42.1678948" lon="12.5444126"><ele>116.0</ele><time>2026-05-03T11:06:51.922Z</time></trkpt><trkpt lat="42.1680223" lon="12.5443467"><ele>114.5</ele><time>2026-05-03T11:06:52.964Z</time></trkpt><trkpt lat="42.1681331" lon="12.5442677"><ele>113.0</ele><time>2026-05-03T11:06:53.918Z</time></trkpt><trkpt lat="42.1682126" lon="12.5441723"><ele>113.0</ele><time>2026-05-03T11:06:54.925Z</time></trkpt><trkpt lat="42.1682864" lon="12.5440482"><ele>113.0</ele><time>2026-05-03T11:06:55.921Z</time></trkpt><trkpt lat="42.1683401" lon="12.5438479"><ele>113.0</ele><time>2026-05-03T11:06:56.91Z</time></trkpt><trkpt lat="42.1683697" lon="12.5436473"><ele>113.0</ele><time>2026-05-03T11:06:57.915Z</time></trkpt><trkpt lat="42.168399" lon="12.5434627"><ele>114.5</ele><time>2026-05-03T11:06:58.906Z</time></trkpt><trkpt lat="42.168437" lon="12.5432754"><ele>116.0</ele><time>2026-05-03T11:06:59.906Z</time></trkpt><trkpt lat="42.1685427" lon="12.5431459"><ele>117.5</ele><time>2026-05-03T11:07:00.908Z</time></trkpt><trkpt lat="42.1686876" lon="12.5430599"><ele>119.0</ele><time>2026-05-03T11:07:01.908Z</time></trkpt><trkpt lat="42.1688525" lon="12.5429721"><ele>118.0</ele><time>2026-05-03T11:07:02.904Z</time></trkpt><trkpt lat="42.1690351" lon="12.5429285"><ele>117.0</ele><time>2026-05-03T11:07:03.908Z</time></trkpt><trkpt lat="42.1691834" lon="12.5428663"><ele>116.0</ele><time>2026-05-03T11:07:04.904Z</time></trkpt><trkpt lat="42.1693171" lon="12.5427755"><ele>116.0</ele><time>2026-05-03T11:07:05.902Z</time></trkpt><trkpt lat="42.1694404" lon="12.5426732"><ele>116.0</ele><time>2026-05-03T11:07:06.903Z</time></trkpt><trkpt lat="42.1695239" lon="12.5425968"><ele>116.0</ele><time>2026-05-03T11:07:07.902Z</time></trkpt><trkpt lat="42.1695806" lon="12.5424956"><ele>116.0</ele><time>2026-05-03T11:07:08.907Z</time></trkpt><trkpt lat="42.1696327" lon="12.5424009"><ele>116.0</ele><time>2026-05-03T11:07:09.899Z</time></trkpt><trkpt lat="42.169739" lon="12.542333"><ele>116.0</ele><time>2026-05-03T11:07:11.952Z</time></trkpt><trkpt lat="42.1698478" lon="12.5423107"><ele>116.0</ele><time>2026-05-03T11:07:13.909Z</time></trkpt><trkpt lat="42.1699427" lon="12.5423481"><ele>116.0</ele><time>2026-05-03T11:07:14.907Z</time></trkpt><trkpt lat="42.1700392" lon="12.5424263"><ele>116.0</ele><time>2026-05-03T11:07:15.91Z</time></trkpt><trkpt lat="42.1701459" lon="12.5425345"><ele>114.33333333333333</ele><time>2026-05-03T11:07:16.914Z</time></trkpt><trkpt lat="42.1702732" lon="12.5426523"><ele>112.66666666666666</ele><time>2026-05-03T11:07:17.932Z</time></trkpt><trkpt lat="42.1704087" lon="12.5428358"><ele>111.0</ele><time>2026-05-03T11:07:18.935Z</time></trkpt><trkpt lat="42.1705267" lon="12.5430428"><ele>111.25</ele><time>2026-05-03T11:07:19.932Z</time></trkpt><trkpt lat="42.1706223" lon="12.543199"><ele>111.5</ele><time>2026-05-03T11:07:20.912Z</time></trkpt><trkpt lat="42.170725" lon="12.5433183"><ele>111.75</ele><time>2026-05-03T11:07:21.909Z</time></trkpt><trkpt lat="42.170836" lon="12.543416"><ele>112.0</ele><time>2026-05-03T11:07:22.904Z</time></trkpt><trkpt lat="42.1709658" lon="12.5434964"><ele>112.0</ele><time>2026-05-03T11:07:23.909Z</time></trkpt><trkpt lat="42.1711303" lon="12.5435641"><ele>112.0</ele><time>2026-05-03T11:07:24.91Z</time></trkpt><trkpt lat="42.171284" lon="12.5436137"><ele>112.0</ele><time>2026-05-03T11:07:25.908Z</time></trkpt><trkpt lat="42.171399" lon="12.5436737"><ele>112.33333333333334</ele><time>2026-05-03T11:07:26.911Z</time></trkpt><trkpt lat="42.1715469" lon="12.5436806"><ele>112.66666666666666</ele><time>2026-05-03T11:07:27.904Z</time></trkpt><trkpt lat="42.1717065" lon="12.5436604"><ele>113.0</ele><time>2026-05-03T11:07:28.911Z</time></trkpt><trkpt lat="42.1718691" lon="12.5436641"><ele>113.0</ele><time>2026-05-03T11:07:29.924Z</time></trkpt><trkpt lat="42.1720049" lon="12.5437116"><ele>113.0</ele><time>2026-05-03T11:07:30.924Z</time></trkpt><trkpt lat="42.172153" lon="12.5437487"><ele>113.0</ele><time>2026-05-03T11:07:31.898Z</time></trkpt><trkpt lat="42.1723273" lon="12.5437983"><ele>111.5</ele><time>2026-05-03T11:07:32.923Z</time></trkpt><trkpt lat="42.1724735" lon="12.5438101"><ele>110.0</ele><time>2026-05-03T11:07:33.907Z</time></trkpt><trkpt lat="42.1726111" lon="12.5438454"><ele>108.5</ele><time>2026-05-03T11:07:34.911Z</time></trkpt><trkpt lat="42.1727458" lon="12.543887"><ele>107.0</ele><time>2026-05-03T11:07:35.907Z</time></trkpt><trkpt lat="42.172877" lon="12.5439461"><ele>107.0</ele><time>2026-05-03T11:07:36.908Z</time></trkpt><trkpt lat="42.1730084" lon="12.5440067"><ele>107.0</ele><time>2026-05-03T11:07:37.9Z</time></trkpt><trkpt lat="42.1731208" lon="12.5440677"><ele>107.0</ele><time>2026-05-03T11:07:38.9Z</time></trkpt><trkpt lat="42.1732924" lon="12.5441488"><ele>107.0</ele><time>2026-05-03T11:07:39.905Z</time></trkpt><trkpt lat="42.17341" lon="12.5442231"><ele>107.0</ele><time>2026-05-03T11:07:40.913Z</time></trkpt><trkpt lat="42.1735229" lon="12.5443091"><ele>107.0</ele><time>2026-05-03T11:07:41.911Z</time></trkpt><trkpt lat="42.1736317" lon="12.5444096"><ele>107.0</ele><time>2026-05-03T11:07:42.911Z</time></trkpt><trkpt lat="42.1737451" lon="12.5445102"><ele>107.0</ele><time>2026-05-03T11:07:43.912Z</time></trkpt><trkpt lat="42.1738663" lon="12.544619"><ele>107.0</ele><time>2026-05-03T11:07:44.921Z</time></trkpt><trkpt lat="42.1739792" lon="12.5447216"><ele>107.0</ele><time>2026-05-03T11:07:45.914Z</time></trkpt><trkpt lat="42.1740897" lon="12.5447951"><ele>107.0</ele><time>2026-05-03T11:07:46.911Z</time></trkpt><trkpt lat="42.1741922" lon="12.5448531"><ele>107.0</ele><time>2026-05-03T11:07:47.912Z</time></trkpt><trkpt lat="42.1743124" lon="12.5448957"><ele>107.0</ele><time>2026-05-03T11:07:48.904Z</time></trkpt><trkpt lat="42.1744244" lon="12.5449197"><ele>106.99999999999999</ele><time>2026-05-03T11:07:49.906Z</time></trkpt><trkpt lat="42.1745277" lon="12.5449362"><ele>106.99999999999999</ele><time>2026-05-03T11:07:50.906Z</time></trkpt><trkpt lat="42.1745973" lon="12.5449589"><ele>107.0</ele><time>2026-05-03T11:07:51.902Z</time></trkpt><trkpt lat="42.1746878" lon="12.5449295"><ele>107.0</ele><time>2026-05-03T11:07:52.913Z</time></trkpt><trkpt lat="42.1747915" lon="12.5448841"><ele>106.75</ele><time>2026-05-03T11:07:53.907Z</time></trkpt><trkpt lat="42.1749113" lon="12.544819"><ele>106.5</ele><time>2026-05-03T11:07:54.906Z</time></trkpt><trkpt lat="42.1750346" lon="12.5447509"><ele>106.25</ele><time>2026-05-03T11:07:55.911Z</time></trkpt><trkpt lat="42.17515" lon="12.5446866"><ele>106.0</ele><time>2026-05-03T11:07:56.905Z</time></trkpt><trkpt lat="42.1752503" lon="12.544631"><ele>106.0</ele><time>2026-05-03T11:07:57.904Z</time></trkpt><trkpt lat="42.1753424" lon="12.5445857"><ele>106.0</ele><time>2026-05-03T11:07:58.913Z</time></trkpt><trkpt lat="42.1754462" lon="12.5445561"><ele>106.0</ele><time>2026-05-03T11:07:59.909Z</time></trkpt><trkpt lat="42.1755556" lon="12.5445232"><ele>106.0</ele><time>2026-05-03T11:08:00.907Z</time></trkpt><trkpt lat="42.1756913" lon="12.5444966"><ele>108.0</ele><time>2026-05-03T11:08:01.906Z</time></trkpt><trkpt lat="42.1758306" lon="12.5444766"><ele>110.0</ele><time>2026-05-03T11:08:02.908Z</time></trkpt><trkpt lat="42.1759866" lon="12.5444404"><ele>112.0</ele><time>2026-05-03T11:08:03.9Z</time></trkpt><trkpt lat="42.17615" lon="12.5444337"><ele>112.0</ele><time>2026-05-03T11:08:04.926Z</time></trkpt><trkpt lat="42.1763268" lon="12.5444008"><ele>112.0</ele><time>2026-05-03T11:08:05.897Z</time></trkpt><trkpt lat="42.1764496" lon="12.5443788"><ele>112.0</ele><time>2026-05-03T11:08:06.929Z</time></trkpt><trkpt lat="42.1765575" lon="12.5443754"><ele>112.0</ele><time>2026-05-03T11:08:07.933Z</time></trkpt><trkpt lat="42.1766884" lon="12.5443548"><ele>111.66666666666667</ele><time>2026-05-03T11:08:08.899Z</time></trkpt><trkpt lat="42.1767846" lon="12.5443503"><ele>111.33333333333334</ele><time>2026-05-03T11:08:09.904Z</time></trkpt><trkpt lat="42.1769057" lon="12.5443546"><ele>111.0</ele><time>2026-05-03T11:08:10.911Z</time></trkpt><trkpt lat="42.1769931" lon="12.5443494"><ele>110.66666666666666</ele><time>2026-05-03T11:08:11.902Z</time></trkpt><trkpt lat="42.1770705" lon="12.544341"><ele>110.33333333333333</ele><time>2026-05-03T11:08:12.905Z</time></trkpt><trkpt lat="42.1771355" lon="12.5443257"><ele>110.0</ele><time>2026-05-03T11:08:13.888Z</time></trkpt><trkpt lat="42.1771986" lon="12.544307"><ele>109.99999999999999</ele><time>2026-05-03T11:08:14.893Z</time></trkpt><trkpt lat="42.1772631" lon="12.5442933"><ele>110.0</ele><time>2026-05-03T11:08:15.895Z</time></trkpt><trkpt lat="42.1773258" lon="12.5442839"><ele>110.0</ele><time>2026-05-03T11:08:16.91Z</time></trkpt><trkpt lat="42.1773884" lon="12.5442703"><ele>110.0</ele><time>2026-05-03T11:08:17.898Z</time></trkpt><trkpt lat="42.1775121" lon="12.544278"><ele>109.99999999999999</ele><time>2026-05-03T11:08:19.901Z</time></trkpt><trkpt lat="42.1776008" lon="12.54431"><ele>110.0</ele><time>2026-05-03T11:08:20.909Z</time></trkpt><trkpt lat="42.1777048" lon="12.5443137"><ele>110.5</ele><time>2026-05-03T11:08:21.917Z</time></trkpt><trkpt lat="42.1778125" lon="12.5442902"><ele>111.0</ele><time>2026-05-03T11:08:22.949Z</time></trkpt><trkpt lat="42.1779208" lon="12.5442565"><ele>111.5</ele><time>2026-05-03T11:08:23.938Z</time></trkpt><trkpt lat="42.1780269" lon="12.5442235"><ele>112.0</ele><time>2026-05-03T11:08:24.892Z</time></trkpt><trkpt lat="42.1781436" lon="12.5441577"><ele>112.8</ele><time>2026-05-03T11:08:25.895Z</time></trkpt><trkpt lat="42.1782293" lon="12.5440987"><ele>113.6</ele><time>2026-05-03T11:08:26.894Z</time></trkpt><trkpt lat="42.1783092" lon="12.5440469"><ele>114.39999999999999</ele><time>2026-05-03T11:08:27.905Z</time></trkpt><trkpt lat="42.1783734" lon="12.5439862"><ele>115.19999999999999</ele><time>2026-05-03T11:08:28.894Z</time></trkpt><trkpt lat="42.1784452" lon="12.5439131"><ele>116.0</ele><time>2026-05-03T11:08:29.899Z</time></trkpt><trkpt lat="42.1785319" lon="12.5438322"><ele>116.0</ele><time>2026-05-03T11:08:30.9Z</time></trkpt><trkpt lat="42.178642" lon="12.5437569"><ele>116.0</ele><time>2026-05-03T11:08:31.902Z</time></trkpt><trkpt lat="42.1787483" lon="12.5436905"><ele>116.0</ele><time>2026-05-03T11:08:32.892Z</time></trkpt><trkpt lat="42.1788574" lon="12.5436302"><ele>116.0</ele><time>2026-05-03T11:08:33.904Z</time></trkpt><trkpt lat="42.1789707" lon="12.5435632"><ele>115.0</ele><time>2026-05-03T11:08:34.896Z</time></trkpt><trkpt lat="42.1790852" lon="12.5435173"><ele>114.0</ele><time>2026-05-03T11:08:35.906Z</time></trkpt><trkpt lat="42.179206" lon="12.5434887"><ele>113.0</ele><time>2026-05-03T11:08:36.897Z</time></trkpt><trkpt lat="42.1793397" lon="12.5434545"><ele>112.0</ele><time>2026-05-03T11:08:37.909Z</time></trkpt><trkpt lat="42.1794656" lon="12.5434234"><ele>112.0</ele><time>2026-05-03T11:08:38.903Z</time></trkpt><trkpt lat="42.1795833" lon="12.5433927"><ele>112.0</ele><time>2026-05-03T11:08:39.905Z</time></trkpt><trkpt lat="42.1797013" lon="12.5433603"><ele>112.0</ele><time>2026-05-03T11:08:40.952Z</time></trkpt><trkpt lat="42.1798101" lon="12.5433435"><ele>112.0</ele><time>2026-05-03T11:08:41.943Z</time></trkpt><trkpt lat="42.1799164" lon="12.5433347"><ele>112.39999999999999</ele><time>2026-05-03T11:08:42.95Z</time></trkpt><trkpt lat="42.1800271" lon="12.5433164"><ele>112.79999999999998</ele><time>2026-05-03T11:08:43.98Z</time></trkpt><trkpt lat="42.1801377" lon="12.5433045"><ele>113.2</ele><time>2026-05-03T11:08:44.976Z</time></trkpt><trkpt lat="42.1802454" lon="12.543275"><ele>113.6</ele><time>2026-05-03T11:08:45.998Z</time></trkpt><trkpt lat="42.1803458" lon="12.5432343"><ele>114.0</ele><time>2026-05-03T11:08:47.003Z</time></trkpt><trkpt lat="42.1804395" lon="12.5431776"><ele>114.0</ele><time>2026-05-03T11:08:47.976Z</time></trkpt><trkpt lat="42.1805258" lon="12.543116"><ele>114.0</ele><time>2026-05-03T11:08:48.952Z</time></trkpt><trkpt lat="42.1806228" lon="12.5430623"><ele>114.0</ele><time>2026-05-03T11:08:49.971Z</time></trkpt><trkpt lat="42.1807255" lon="12.5430096"><ele>114.0</ele><time>2026-05-03T11:08:50.944Z</time></trkpt><trkpt lat="42.1808354" lon="12.542951"><ele>114.0</ele><time>2026-05-03T11:08:51.957Z</time></trkpt><trkpt lat="42.1809313" lon="12.5429046"><ele>114.0</ele><time>2026-05-03T11:08:52.949Z</time></trkpt><trkpt lat="42.1810333" lon="12.5428561"><ele>114.0</ele><time>2026-05-03T11:08:53.945Z</time></trkpt><trkpt lat="42.1811451" lon="12.5428023"><ele>114.0</ele><time>2026-05-03T11:08:54.944Z</time></trkpt><trkpt lat="42.1812641" lon="12.5427536"><ele>114.0</ele><time>2026-05-03T11:08:55.947Z</time></trkpt><trkpt lat="42.18138" lon="12.5426999"><ele>114.0</ele><time>2026-05-03T11:08:56.943Z</time></trkpt><trkpt lat="42.1814934" lon="12.5426386"><ele>114.0</ele><time>2026-05-03T11:08:57.904Z</time></trkpt><trkpt lat="42.1816062" lon="12.5425798"><ele>114.0</ele><time>2026-05-03T11:08:58.966Z</time></trkpt><trkpt lat="42.1817158" lon="12.5425189"><ele>114.0</ele><time>2026-05-03T11:08:59.9Z</time></trkpt><trkpt lat="42.1818235" lon="12.542465"><ele>113.83333333333333</ele><time>2026-05-03T11:09:00.934Z</time></trkpt><trkpt lat="42.1819159" lon="12.5424165"><ele>113.66666666666666</ele><time>2026-05-03T11:09:01.927Z</time></trkpt><trkpt lat="42.181993" lon="12.5423568"><ele>113.5</ele><time>2026-05-03T11:09:02.899Z</time></trkpt><trkpt lat="42.1820787" lon="12.5423299"><ele>113.33333333333333</ele><time>2026-05-03T11:09:03.926Z</time></trkpt><trkpt lat="42.1821354" lon="12.5422853"><ele>113.16666666666666</ele><time>2026-05-03T11:09:04.922Z</time></trkpt><trkpt lat="42.1821896" lon="12.5422192"><ele>113.0</ele><time>2026-05-03T11:09:05.931Z</time></trkpt><trkpt lat="42.182251" lon="12.5421514"><ele>113.0</ele><time>2026-05-03T11:09:06.924Z</time></trkpt><trkpt lat="42.1823152" lon="12.542074"><ele>113.00000000000001</ele><time>2026-05-03T11:09:07.929Z</time></trkpt><trkpt lat="42.18237" lon="12.54198"><ele>113.00000000000001</ele><time>2026-05-03T11:09:08.925Z</time></trkpt><trkpt lat="42.1824298" lon="12.5418931"><ele>113.0</ele><time>2026-05-03T11:09:09.93Z</time></trkpt><trkpt lat="42.1825005" lon="12.5417883"><ele>113.0</ele><time>2026-05-03T11:09:10.906Z</time></trkpt><trkpt lat="42.1825733" lon="12.5416676"><ele>113.0</ele><time>2026-05-03T11:09:11.944Z</time></trkpt><trkpt lat="42.1826608" lon="12.5415238"><ele>113.00000000000001</ele><time>2026-05-03T11:09:12.927Z</time></trkpt><trkpt lat="42.1827308" lon="12.5413877"><ele>113.00000000000001</ele><time>2026-05-03T11:09:13.908Z</time></trkpt><trkpt lat="42.1827807" lon="12.5412697"><ele>113.0</ele><time>2026-05-03T11:09:14.933Z</time></trkpt><trkpt lat="42.1828209" lon="12.5411678"><ele>113.0</ele><time>2026-05-03T11:09:15.906Z</time></trkpt><trkpt lat="42.1828518" lon="12.5410875"><ele>112.99999999999999</ele><time>2026-05-03T11:09:16.932Z</time></trkpt><trkpt lat="42.1829221" lon="12.5409426"><ele>113.0</ele><time>2026-05-03T11:09:18.954Z</time></trkpt><trkpt lat="42.1829553" lon="12.5408565"><ele>113.0</ele><time>2026-05-03T11:09:19.976Z</time></trkpt><trkpt lat="42.1829996" lon="12.5407533"><ele>113.0</ele><time>2026-05-03T11:09:21.926Z</time></trkpt><trkpt lat="42.1830568" lon="12.5406941"><ele>112.99999999999999</ele><time>2026-05-03T11:11:32.006Z</time></trkpt><trkpt lat="42.1831014" lon="12.540612"><ele>113.0</ele><time>2026-05-03T11:13:54.924Z</time></trkpt><trkpt lat="42.1831634" lon="12.5404943"><ele>113.25</ele><time>2026-05-03T11:13:56.922Z</time></trkpt><trkpt lat="42.1832238" lon="12.5404015"><ele>113.5</ele><time>2026-05-03T11:13:57.925Z</time></trkpt><trkpt lat="42.1833093" lon="12.5402923"><ele>113.75</ele><time>2026-05-03T11:13:58.912Z</time></trkpt><trkpt lat="42.1834274" lon="12.5401819"><ele>114.0</ele><time>2026-05-03T11:13:59.923Z</time></trkpt><trkpt lat="42.1835472" lon="12.5400621"><ele>114.0</ele><time>2026-05-03T11:14:00.922Z</time></trkpt><trkpt lat="42.1836703" lon="12.5399306"><ele>114.0</ele><time>2026-05-03T11:14:01.907Z</time></trkpt><trkpt lat="42.1838195" lon="12.5397802"><ele>114.0</ele><time>2026-05-03T11:14:02.93Z</time></trkpt><trkpt lat="42.1839211" lon="12.5396447"><ele>114.33333333333334</ele><time>2026-05-03T11:14:03.928Z</time></trkpt><trkpt lat="42.1840332" lon="12.5395102"><ele>114.66666666666667</ele><time>2026-05-03T11:14:04.944Z</time></trkpt><trkpt lat="42.1841574" lon="12.5393846"><ele>115.0</ele><time>2026-05-03T11:14:05.952Z</time></trkpt><trkpt lat="42.1842833" lon="12.5392534"><ele>115.0</ele><time>2026-05-03T11:14:06.952Z</time></trkpt><trkpt lat="42.1844047" lon="12.5391054"><ele>115.0</ele><time>2026-05-03T11:14:07.952Z</time></trkpt><trkpt lat="42.1845138" lon="12.5389672"><ele>115.0</ele><time>2026-05-03T11:14:08.952Z</time></trkpt><trkpt lat="42.1846411" lon="12.5388489"><ele>115.0</ele><time>2026-05-03T11:14:09.952Z</time></trkpt><trkpt lat="42.1847882" lon="12.5386897"><ele>115.0</ele><time>2026-05-03T11:14:10.952Z</time></trkpt><trkpt lat="42.18494" lon="12.5385352"><ele>115.0</ele><time>2026-05-03T11:14:11.945Z</time></trkpt><trkpt lat="42.1850529" lon="12.5383848"><ele>115.66666666666667</ele><time>2026-05-03T11:14:12.956Z</time></trkpt><trkpt lat="42.1851603" lon="12.5382593"><ele>116.33333333333334</ele><time>2026-05-03T11:14:13.949Z</time></trkpt><trkpt lat="42.1852752" lon="12.5381314"><ele>117.0</ele><time>2026-05-03T11:14:14.947Z</time></trkpt><trkpt lat="42.1854014" lon="12.5379884"><ele>117.25</ele><time>2026-05-03T11:14:15.945Z</time></trkpt><trkpt lat="42.1855189" lon="12.5378775"><ele>117.5</ele><time>2026-05-03T11:14:16.945Z</time></trkpt><trkpt lat="42.1856197" lon="12.5377828"><ele>117.75</ele><time>2026-05-03T11:14:17.944Z</time></trkpt><trkpt lat="42.1857136" lon="12.5376946"><ele>118.0</ele><time>2026-05-03T11:14:18.947Z</time></trkpt><trkpt lat="42.1857996" lon="12.5375935"><ele>117.5</ele><time>2026-05-03T11:14:19.945Z</time></trkpt><trkpt lat="42.1858923" lon="12.5375003"><ele>117.0</ele><time>2026-05-03T11:14:20.952Z</time></trkpt><trkpt lat="42.1859982" lon="12.537408"><ele>116.5</ele><time>2026-05-03T11:14:21.926Z</time></trkpt><trkpt lat="42.1861063" lon="12.5373126"><ele>116.0</ele><time>2026-05-03T11:14:22.973Z</time></trkpt><trkpt lat="42.1862037" lon="12.5372085"><ele>116.0</ele><time>2026-05-03T11:14:23.943Z</time></trkpt><trkpt lat="42.1862959" lon="12.5370913"><ele>116.0</ele><time>2026-05-03T11:14:24.949Z</time></trkpt><trkpt lat="42.1863753" lon="12.5369633"><ele>116.0</ele><time>2026-05-03T11:14:25.944Z</time></trkpt><trkpt lat="42.1864576" lon="12.5368193"><ele>116.0</ele><time>2026-05-03T11:14:26.94Z</time></trkpt><trkpt lat="42.1865438" lon="12.5366752"><ele>116.25</ele><time>2026-05-03T11:14:27.949Z</time></trkpt><trkpt lat="42.1866328" lon="12.5365341"><ele>116.5</ele><time>2026-05-03T11:14:28.946Z</time></trkpt><trkpt lat="42.1867201" lon="12.5363984"><ele>116.75</ele><time>2026-05-03T11:14:29.941Z</time></trkpt><trkpt lat="42.1867985" lon="12.5362568"><ele>117.0</ele><time>2026-05-03T11:14:30.941Z</time></trkpt><trkpt lat="42.1868918" lon="12.5361199"><ele>117.0</ele><time>2026-05-03T11:14:31.951Z</time></trkpt><trkpt lat="42.1869684" lon="12.5360044"><ele>116.99999999999999</ele><time>2026-05-03T11:14:32.947Z</time></trkpt><trkpt lat="42.1870247" lon="12.5358743"><ele>116.99999999999999</ele><time>2026-05-03T11:14:33.941Z</time></trkpt><trkpt lat="42.1870626" lon="12.5357478"><ele>117.0</ele><time>2026-05-03T11:14:34.942Z</time></trkpt><trkpt lat="42.187109" lon="12.5356046"><ele>117.0</ele><time>2026-05-03T11:14:35.948Z</time></trkpt><trkpt lat="42.1871676" lon="12.5354505"><ele>116.5</ele><time>2026-05-03T11:14:36.946Z</time></trkpt><trkpt lat="42.1872302" lon="12.5352946"><ele>116.0</ele><time>2026-05-03T11:14:37.949Z</time></trkpt><trkpt lat="42.1872843" lon="12.5351272"><ele>115.5</ele><time>2026-05-03T11:14:38.955Z</time></trkpt><trkpt lat="42.1873386" lon="12.5349603"><ele>115.0</ele><time>2026-05-03T11:14:39.947Z</time></trkpt><trkpt lat="42.1873926" lon="12.5348049"><ele>115.5</ele><time>2026-05-03T11:14:40.943Z</time></trkpt><trkpt lat="42.1874531" lon="12.5346255"><ele>116.0</ele><time>2026-05-03T11:14:41.972Z</time></trkpt><trkpt lat="42.1875094" lon="12.5344709"><ele>116.5</ele><time>2026-05-03T11:14:42.971Z</time></trkpt><trkpt lat="42.187556" lon="12.5343282"><ele>117.0</ele><time>2026-05-03T11:14:43.967Z</time></trkpt><trkpt lat="42.1876052" lon="12.534181"><ele>117.0</ele><time>2026-05-03T11:14:44.948Z</time></trkpt><trkpt lat="42.1876627" lon="12.5340389"><ele>116.99999999999999</ele><time>2026-05-03T11:14:45.951Z</time></trkpt><trkpt lat="42.187709" lon="12.5339195"><ele>116.99999999999999</ele><time>2026-05-03T11:14:46.948Z</time></trkpt><trkpt lat="42.1877706" lon="12.5338096"><ele>117.0</ele><time>2026-05-03T11:14:47.969Z</time></trkpt><trkpt lat="42.1878491" lon="12.5336871"><ele>117.0</ele><time>2026-05-03T11:14:48.949Z</time></trkpt><trkpt lat="42.1879466" lon="12.5335655"><ele>117.0</ele><time>2026-05-03T11:14:49.973Z</time></trkpt><trkpt lat="42.1880338" lon="12.5334534"><ele>117.0</ele><time>2026-05-03T11:14:50.944Z</time></trkpt><trkpt lat="42.1881216" lon="12.5333433"><ele>117.0</ele><time>2026-05-03T11:14:51.971Z</time></trkpt><trkpt lat="42.1882214" lon="12.5332408"><ele>117.0</ele><time>2026-05-03T11:14:52.973Z</time></trkpt><trkpt lat="42.1883426" lon="12.5331422"><ele>117.33333333333334</ele><time>2026-05-03T11:14:53.952Z</time></trkpt><trkpt lat="42.1884934" lon="12.5330681"><ele>117.66666666666667</ele><time>2026-05-03T11:14:54.976Z</time></trkpt><trkpt lat="42.1886341" lon="12.5329838"><ele>118.0</ele><time>2026-05-03T11:14:55.976Z</time></trkpt><trkpt lat="42.188774" lon="12.5328649"><ele>118.0</ele><time>2026-05-03T11:14:56.979Z</time></trkpt><trkpt lat="42.1888809" lon="12.5327508"><ele>118.0</ele><time>2026-05-03T11:14:57.979Z</time></trkpt><trkpt lat="42.1889896" lon="12.5326091"><ele>118.0</ele><time>2026-05-03T11:14:58.964Z</time></trkpt><trkpt lat="42.1890873" lon="12.5324696"><ele>118.0</ele><time>2026-05-03T11:14:59.96Z</time></trkpt><trkpt lat="42.1891558" lon="12.5323306"><ele>118.0</ele><time>2026-05-03T11:15:00.977Z</time></trkpt><trkpt lat="42.1892036" lon="12.5322067"><ele>118.0</ele><time>2026-05-03T11:15:01.972Z</time></trkpt><trkpt lat="42.1892841" lon="12.5320782"><ele>118.0</ele><time>2026-05-03T11:15:02.969Z</time></trkpt><trkpt lat="42.189395" lon="12.5319431"><ele>118.0</ele><time>2026-05-03T11:15:03.971Z</time></trkpt><trkpt lat="42.1894987" lon="12.5318114"><ele>117.80000000000001</ele><time>2026-05-03T11:15:04.969Z</time></trkpt><trkpt lat="42.1895764" lon="12.5317023"><ele>117.60000000000001</ele><time>2026-05-03T11:15:05.975Z</time></trkpt><trkpt lat="42.189644" lon="12.5316034"><ele>117.39999999999999</ele><time>2026-05-03T11:15:06.971Z</time></trkpt><trkpt lat="42.1897066" lon="12.5315188"><ele>117.19999999999999</ele><time>2026-05-03T11:15:07.98Z</time></trkpt><trkpt lat="42.189789" lon="12.531469"><ele>117.0</ele><time>2026-05-03T11:15:08.959Z</time></trkpt><trkpt lat="42.1898592" lon="12.5314359"><ele>117.75</ele><time>2026-05-03T11:15:09.953Z</time></trkpt><trkpt lat="42.1899365" lon="12.5314642"><ele>118.5</ele><time>2026-05-03T11:15:10.951Z</time></trkpt><trkpt lat="42.1900695" lon="12.5315184"><ele>119.25</ele><time>2026-05-03T11:15:11.999Z</time></trkpt><trkpt lat="42.1902119" lon="12.5315529"><ele>120.0</ele><time>2026-05-03T11:15:12.976Z</time></trkpt><trkpt lat="42.1903597" lon="12.5315699"><ele>120.0</ele><time>2026-05-03T11:15:13.969Z</time></trkpt><trkpt lat="42.1904988" lon="12.5315528"><ele>120.0</ele><time>2026-05-03T11:15:14.983Z</time></trkpt><trkpt lat="42.1906524" lon="12.5315715"><ele>120.0</ele><time>2026-05-03T11:15:16.318Z</time></trkpt><trkpt lat="42.1910228" lon="12.5316048"><ele>122.33333333333334</ele><time>2026-05-03T11:15:17.951Z</time></trkpt><trkpt lat="42.1912154" lon="12.5316375"><ele>124.66666666666667</ele><time>2026-05-03T11:15:18.965Z</time></trkpt><trkpt lat="42.1913719" lon="12.5316625"><ele>127.0</ele><time>2026-05-03T11:15:19.922Z</time></trkpt><trkpt lat="42.1915094" lon="12.5316624"><ele>128.83333333333334</ele><time>2026-05-03T11:15:20.932Z</time></trkpt><trkpt lat="42.1916268" lon="12.5316634"><ele>130.66666666666669</ele><time>2026-05-03T11:15:21.919Z</time></trkpt><trkpt lat="42.191722" lon="12.5316799"><ele>132.5</ele><time>2026-05-03T11:15:22.924Z</time></trkpt><trkpt lat="42.1917901" lon="12.5316948"><ele>134.33333333333334</ele><time>2026-05-03T11:15:23.92Z</time></trkpt><trkpt lat="42.1918653" lon="12.5316706"><ele>136.16666666666666</ele><time>2026-05-03T11:15:24.911Z</time></trkpt><trkpt lat="42.1919483" lon="12.531629"><ele>138.0</ele><time>2026-05-03T11:15:25.924Z</time></trkpt><trkpt lat="42.1920401" lon="12.531586"><ele>138.0</ele><time>2026-05-03T11:15:26.945Z</time></trkpt><trkpt lat="42.1921453" lon="12.5315201"><ele>138.0</ele><time>2026-05-03T11:15:27.944Z</time></trkpt><trkpt lat="42.1922507" lon="12.5314609"><ele>138.0</ele><time>2026-05-03T11:15:28.937Z</time></trkpt><trkpt lat="42.1923811" lon="12.5313799"><ele>138.0</ele><time>2026-05-03T11:15:29.921Z</time></trkpt><trkpt lat="42.1925254" lon="12.5313028"><ele>138.5</ele><time>2026-05-03T11:15:30.925Z</time></trkpt><trkpt lat="42.1926689" lon="12.5312394"><ele>139.0</ele><time>2026-05-03T11:15:31.926Z</time></trkpt><trkpt lat="42.1928147" lon="12.5311578"><ele>139.5</ele><time>2026-05-03T11:15:32.94Z</time></trkpt><trkpt lat="42.1929188" lon="12.5310894"><ele>140.0</ele><time>2026-05-03T11:15:33.923Z</time></trkpt><trkpt lat="42.1930418" lon="12.5310426"><ele>140.0</ele><time>2026-05-03T11:15:34.976Z</time></trkpt><trkpt lat="42.1931584" lon="12.5310139"><ele>140.0</ele><time>2026-05-03T11:15:35.925Z</time></trkpt><trkpt lat="42.1932791" lon="12.5310318"><ele>140.0</ele><time>2026-05-03T11:15:36.942Z</time></trkpt><trkpt lat="42.1934167" lon="12.5310376"><ele>140.0</ele><time>2026-05-03T11:15:37.945Z</time></trkpt><trkpt lat="42.193538" lon="12.5310445"><ele>142.5</ele><time>2026-05-03T11:15:38.921Z</time></trkpt><trkpt lat="42.1936626" lon="12.531061"><ele>145.0</ele><time>2026-05-03T11:15:39.958Z</time></trkpt><trkpt lat="42.1937943" lon="12.531052"><ele>147.5</ele><time>2026-05-03T11:15:40.971Z</time></trkpt><trkpt lat="42.1939156" lon="12.531062"><ele>150.0</ele><time>2026-05-03T11:15:41.962Z</time></trkpt><trkpt lat="42.1940479" lon="12.5310469"><ele>152.66666666666666</ele><time>2026-05-03T11:15:42.94Z</time></trkpt><trkpt lat="42.1942214" lon="12.531017"><ele>155.33333333333331</ele><time>2026-05-03T11:15:43.927Z</time></trkpt><trkpt lat="42.1943728" lon="12.5309777"><ele>158.0</ele><time>2026-05-03T11:15:44.943Z</time></trkpt><trkpt lat="42.1945243" lon="12.5309558"><ele>158.0</ele><time>2026-05-03T11:15:45.934Z</time></trkpt><trkpt lat="42.1946906" lon="12.5309338"><ele>158.0</ele><time>2026-05-03T11:15:46.947Z</time></trkpt><trkpt lat="42.1948337" lon="12.5309073"><ele>158.0</ele><time>2026-05-03T11:15:47.939Z</time></trkpt><trkpt lat="42.1949981" lon="12.5308776"><ele>162.0</ele><time>2026-05-03T11:15:48.918Z</time></trkpt><trkpt lat="42.1951237" lon="12.5308405"><ele>166.0</ele><time>2026-05-03T11:15:49.924Z</time></trkpt><trkpt lat="42.1952859" lon="12.530766"><ele>170.0</ele><time>2026-05-03T11:15:50.923Z</time></trkpt><trkpt lat="42.1954444" lon="12.5307128"><ele>170.0</ele><time>2026-05-03T11:15:51.928Z</time></trkpt><trkpt lat="42.1955974" lon="12.5306598"><ele>170.0</ele><time>2026-05-03T11:15:52.964Z</time></trkpt><trkpt lat="42.1957147" lon="12.5306211"><ele>170.0</ele><time>2026-05-03T11:15:53.936Z</time></trkpt><trkpt lat="42.1958346" lon="12.5305693"><ele>170.0</ele><time>2026-05-03T11:15:54.976Z</time></trkpt><trkpt lat="42.1959608" lon="12.5305145"><ele>171.2</ele><time>2026-05-03T11:15:55.943Z</time></trkpt><trkpt lat="42.1960638" lon="12.5304909"><ele>172.4</ele><time>2026-05-03T11:15:56.924Z</time></trkpt><trkpt lat="42.1961642" lon="12.5304642"><ele>173.60000000000002</ele><time>2026-05-03T11:15:57.926Z</time></trkpt><trkpt lat="42.1962624" lon="12.5304331"><ele>174.8</ele><time>2026-05-03T11:15:58.918Z</time></trkpt><trkpt lat="42.1963804" lon="12.5304142"><ele>176.0</ele><time>2026-05-03T11:16:00.921Z</time></trkpt><trkpt lat="42.1964899" lon="12.5303873"><ele>177.83333333333331</ele><time>2026-05-03T11:16:02.915Z</time></trkpt><trkpt lat="42.1965995" lon="12.5303816"><ele>179.66666666666666</ele><time>2026-05-03T11:16:04.915Z</time></trkpt><trkpt lat="42.1966669" lon="12.5303694"><ele>181.5</ele><time>2026-05-03T11:16:05.924Z</time></trkpt><trkpt lat="42.1967385" lon="12.5303438"><ele>183.33333333333334</ele><time>2026-05-03T11:16:06.914Z</time></trkpt><trkpt lat="42.1968251" lon="12.5303226"><ele>185.16666666666669</ele><time>2026-05-03T11:16:07.913Z</time></trkpt><trkpt lat="42.1969076" lon="12.5303098"><ele>187.0</ele><time>2026-05-03T11:16:08.917Z</time></trkpt><trkpt lat="42.197019" lon="12.5302967"><ele>187.0</ele><time>2026-05-03T11:16:09.926Z</time></trkpt><trkpt lat="42.1971538" lon="12.5302727"><ele>187.0</ele><time>2026-05-03T11:16:10.912Z</time></trkpt><trkpt lat="42.1973077" lon="12.5302533"><ele>187.0</ele><time>2026-05-03T11:16:11.946Z</time></trkpt><trkpt lat="42.1974851" lon="12.5302447"><ele>189.0</ele><time>2026-05-03T11:16:12.946Z</time></trkpt><trkpt lat="42.1976309" lon="12.5302172"><ele>191.0</ele><time>2026-05-03T11:16:13.934Z</time></trkpt><trkpt lat="42.1977719" lon="12.5301864"><ele>193.0</ele><time>2026-05-03T11:16:14.938Z</time></trkpt><trkpt lat="42.1978861" lon="12.5301901"><ele>195.0</ele><time>2026-05-03T11:16:15.987Z</time></trkpt><trkpt lat="42.1980173" lon="12.5301983"><ele>195.0</ele><time>2026-05-03T11:16:16.956Z</time></trkpt><trkpt lat="42.198147" lon="12.5302451"><ele>195.0</ele><time>2026-05-03T11:16:17.94Z</time></trkpt><trkpt lat="42.1982619" lon="12.5302713"><ele>195.0</ele><time>2026-05-03T11:16:18.959Z</time></trkpt><trkpt lat="42.198391" lon="12.5302886"><ele>195.0</ele><time>2026-05-03T11:16:19.966Z</time></trkpt><trkpt lat="42.198518" lon="12.5303089"><ele>197.4</ele><time>2026-05-03T11:16:20.939Z</time></trkpt><trkpt lat="42.198627" lon="12.5303284"><ele>199.8</ele><time>2026-05-03T11:16:21.917Z</time></trkpt><trkpt lat="42.1987305" lon="12.5303316"><ele>202.2</ele><time>2026-05-03T11:16:22.918Z</time></trkpt><trkpt lat="42.1988148" lon="12.5303191"><ele>204.6</ele><time>2026-05-03T11:16:23.914Z</time></trkpt><trkpt lat="42.1988944" lon="12.5302773"><ele>207.0</ele><time>2026-05-03T11:16:24.917Z</time></trkpt><trkpt lat="42.1989807" lon="12.5302229"><ele>208.0</ele><time>2026-05-03T11:16:25.946Z</time></trkpt><trkpt lat="42.1990772" lon="12.5301307"><ele>209.0</ele><time>2026-05-03T11:16:26.937Z</time></trkpt><trkpt lat="42.1991842" lon="12.5300222"><ele>210.0</ele><time>2026-05-03T11:16:28.247Z</time></trkpt><trkpt lat="42.1993944" lon="12.5298319"><ele>210.0</ele><time>2026-05-03T11:16:29.957Z</time></trkpt><trkpt lat="42.1995032" lon="12.529752"><ele>210.0</ele><time>2026-05-03T11:16:30.922Z</time></trkpt><trkpt lat="42.1996322" lon="12.5297042"><ele>210.0</ele><time>2026-05-03T11:16:31.944Z</time></trkpt><trkpt lat="42.1997645" lon="12.5296543"><ele>210.0</ele><time>2026-05-03T11:16:32.939Z</time></trkpt><trkpt lat="42.1998826" lon="12.5296068"><ele>209.5</ele><time>2026-05-03T11:16:33.916Z</time></trkpt><trkpt lat="42.1999925" lon="12.5295316"><ele>209.0</ele><time>2026-05-03T11:16:34.915Z</time></trkpt><trkpt lat="42.2001056" lon="12.5294272"><ele>208.5</ele><time>2026-05-03T11:16:35.919Z</time></trkpt><trkpt lat="42.2002346" lon="12.5292936"><ele>208.0</ele><time>2026-05-03T11:16:36.918Z</time></trkpt><trkpt lat="42.2003618" lon="12.5291661"><ele>208.0</ele><time>2026-05-03T11:16:37.924Z</time></trkpt><trkpt lat="42.2004736" lon="12.529022"><ele>208.0</ele><time>2026-05-03T11:16:38.918Z</time></trkpt><trkpt lat="42.2005581" lon="12.5289152"><ele>208.0</ele><time>2026-05-03T11:16:39.92Z</time></trkpt><trkpt lat="42.200625" lon="12.5288485"><ele>208.0</ele><time>2026-05-03T11:16:40.92Z</time></trkpt><trkpt lat="42.2006942" lon="12.5287983"><ele>208.0</ele><time>2026-05-03T11:16:41.924Z</time></trkpt><trkpt lat="42.2007833" lon="12.5287579"><ele>209.0</ele><time>2026-05-03T11:16:42.919Z</time></trkpt><trkpt lat="42.2008934" lon="12.5287246"><ele>210.0</ele><time>2026-05-03T11:16:43.915Z</time></trkpt><trkpt lat="42.2010086" lon="12.5287358"><ele>211.0</ele><time>2026-05-03T11:16:44.933Z</time></trkpt><trkpt lat="42.2011177" lon="12.5287613"><ele>212.0</ele><time>2026-05-03T11:16:45.915Z</time></trkpt><trkpt lat="42.2012503" lon="12.5288167"><ele>212.0</ele><time>2026-05-03T11:16:46.914Z</time></trkpt><trkpt lat="42.2013892" lon="12.5288839"><ele>212.0</ele><time>2026-05-03T11:16:47.942Z</time></trkpt><trkpt lat="42.2015406" lon="12.5289497"><ele>212.0</ele><time>2026-05-03T11:16:48.922Z</time></trkpt><trkpt lat="42.2017158" lon="12.5290537"><ele>215.0</ele><time>2026-05-03T11:16:49.933Z</time></trkpt><trkpt lat="42.2018959" lon="12.5291312"><ele>218.0</ele><time>2026-05-03T11:16:50.923Z</time></trkpt><trkpt lat="42.2020544" lon="12.5291966"><ele>221.0</ele><time>2026-05-03T11:16:51.925Z</time></trkpt><trkpt lat="42.2021652" lon="12.5292801"><ele>221.00000000000003</ele><time>2026-05-03T11:16:52.922Z</time></trkpt><trkpt lat="42.202281" lon="12.5293185"><ele>221.0</ele><time>2026-05-03T11:16:53.921Z</time></trkpt><trkpt lat="42.2023778" lon="12.5293534"><ele>221.0</ele><time>2026-05-03T11:16:54.92Z</time></trkpt><trkpt lat="42.2024498" lon="12.5293932"><ele>221.0</ele><time>2026-05-03T11:16:55.921Z</time></trkpt><trkpt lat="42.2025252" lon="12.5294308"><ele>221.00000000000003</ele><time>2026-05-03T11:16:56.916Z</time></trkpt><trkpt lat="42.2025862" lon="12.5294689"><ele>221.0</ele><time>2026-05-03T11:16:57.919Z</time></trkpt><trkpt lat="42.2026792" lon="12.529505"><ele>222.0</ele><time>2026-05-03T11:16:59.922Z</time></trkpt><trkpt lat="42.2027416" lon="12.5295337"><ele>223.00000000000003</ele><time>2026-05-03T11:17:07.952Z</time></trkpt><trkpt lat="42.2028523" lon="12.5296224"><ele>224.00000000000003</ele><time>2026-05-03T11:17:10.924Z</time></trkpt><trkpt lat="42.202936" lon="12.5296904"><ele>225.0</ele><time>2026-05-03T11:17:11.952Z</time></trkpt><trkpt lat="42.203036" lon="12.5297743"><ele>226.0</ele><time>2026-05-03T11:17:12.926Z</time></trkpt><trkpt lat="42.2031397" lon="12.5298446"><ele>227.8</ele><time>2026-05-03T11:17:13.929Z</time></trkpt><trkpt lat="42.2032409" lon="12.5299037"><ele>229.60000000000002</ele><time>2026-05-03T11:17:14.925Z</time></trkpt><trkpt lat="42.2033504" lon="12.5299481"><ele>231.4</ele><time>2026-05-03T11:17:15.927Z</time></trkpt><trkpt lat="42.2034566" lon="12.5299768"><ele>233.2</ele><time>2026-05-03T11:17:16.94Z</time></trkpt><trkpt lat="42.2035592" lon="12.5300001"><ele>235.0</ele><time>2026-05-03T11:17:17.924Z</time></trkpt><trkpt lat="42.2036889" lon="12.5300295"><ele>235.0</ele><time>2026-05-03T11:17:18.926Z</time></trkpt><trkpt lat="42.2038261" lon="12.5300795"><ele>235.0</ele><time>2026-05-03T11:17:19.925Z</time></trkpt><trkpt lat="42.2040084" lon="12.5301776"><ele>235.0</ele><time>2026-05-03T11:17:20.927Z</time></trkpt><trkpt lat="42.2041573" lon="12.5302454"><ele>236.0</ele><time>2026-05-03T11:17:21.93Z</time></trkpt><trkpt lat="42.2042923" lon="12.5303189"><ele>237.0</ele><time>2026-05-03T11:17:22.968Z</time></trkpt><trkpt lat="42.2044155" lon="12.5303846"><ele>238.0</ele><time>2026-05-03T11:17:23.936Z</time></trkpt><trkpt lat="42.2045221" lon="12.5304687"><ele>239.0</ele><time>2026-05-03T11:17:24.924Z</time></trkpt><trkpt lat="42.2046227" lon="12.5305541"><ele>235.5</ele><time>2026-05-03T11:17:25.915Z</time></trkpt><trkpt lat="42.2047014" lon="12.5305808"><ele>232.0</ele><time>2026-05-03T11:17:26.921Z</time></trkpt><trkpt lat="42.2048074" lon="12.5305861"><ele>228.5</ele><time>2026-05-03T11:17:27.928Z</time></trkpt><trkpt lat="42.204935" lon="12.5305727"><ele>225.0</ele><time>2026-05-03T11:17:28.913Z</time></trkpt><trkpt lat="42.2050726" lon="12.5305591"><ele>225.0</ele><time>2026-05-03T11:17:29.919Z</time></trkpt><trkpt lat="42.2052204" lon="12.5305359"><ele>225.0</ele><time>2026-05-03T11:17:30.919Z</time></trkpt><trkpt lat="42.2053829" lon="12.5304918"><ele>225.0</ele><time>2026-05-03T11:17:31.925Z</time></trkpt><trkpt lat="42.205532" lon="12.5304259"><ele>227.0</ele><time>2026-05-03T11:17:32.916Z</time></trkpt><trkpt lat="42.2056717" lon="12.5303375"><ele>229.0</ele><time>2026-05-03T11:17:33.918Z</time></trkpt><trkpt lat="42.2057968" lon="12.5303091"><ele>231.0</ele><time>2026-05-03T11:17:34.938Z</time></trkpt><trkpt lat="42.2059327" lon="12.5302788"><ele>233.0</ele><time>2026-05-03T11:17:35.942Z</time></trkpt><trkpt lat="42.2060563" lon="12.5302816"><ele>233.0</ele><time>2026-05-03T11:17:36.918Z</time></trkpt><trkpt lat="42.2061985" lon="12.5303"><ele>233.0</ele><time>2026-05-03T11:17:37.945Z</time></trkpt><trkpt lat="42.2063192" lon="12.5303146"><ele>233.0</ele><time>2026-05-03T11:17:38.934Z</time></trkpt><trkpt lat="42.2064189" lon="12.5303528"><ele>233.0</ele><time>2026-05-03T11:17:39.922Z</time></trkpt><trkpt lat="42.2065009" lon="12.5304073"><ele>233.60000000000002</ele><time>2026-05-03T11:17:40.966Z</time></trkpt><trkpt lat="42.2065839" lon="12.5304222"><ele>234.20000000000002</ele><time>2026-05-03T11:17:41.961Z</time></trkpt><trkpt lat="42.2066746" lon="12.5304552"><ele>234.8</ele><time>2026-05-03T11:17:42.928Z</time></trkpt><trkpt lat="42.2067631" lon="12.5304288"><ele>235.4</ele><time>2026-05-03T11:17:43.919Z</time></trkpt><trkpt lat="42.2068603" lon="12.5303654"><ele>236.0</ele><time>2026-05-03T11:17:44.922Z</time></trkpt><trkpt lat="42.2069196" lon="12.5302988"><ele>234.25</ele><time>2026-05-03T11:17:45.922Z</time></trkpt><trkpt lat="42.2069904" lon="12.5302162"><ele>232.5</ele><time>2026-05-03T11:17:46.918Z</time></trkpt><trkpt lat="42.2070849" lon="12.5300739"><ele>230.75</ele><time>2026-05-03T11:17:47.921Z</time></trkpt><trkpt lat="42.2071765" lon="12.5299087"><ele>229.0</ele><time>2026-05-03T11:17:48.916Z</time></trkpt><trkpt lat="42.2072597" lon="12.5297372"><ele>230.25</ele><time>2026-05-03T11:17:49.922Z</time></trkpt><trkpt lat="42.2073546" lon="12.5295597"><ele>231.5</ele><time>2026-05-03T11:17:50.926Z</time></trkpt><trkpt lat="42.207424" lon="12.5294236"><ele>232.75</ele><time>2026-05-03T11:17:51.92Z</time></trkpt><trkpt lat="42.2075222" lon="12.5293136"><ele>234.0</ele><time>2026-05-03T11:17:52.926Z</time></trkpt><trkpt lat="42.2076629" lon="12.5292511"><ele>234.0</ele><time>2026-05-03T11:17:53.928Z</time></trkpt><trkpt lat="42.207819" lon="12.5291956"><ele>234.0</ele><time>2026-05-03T11:17:54.922Z</time></trkpt><trkpt lat="42.2079738" lon="12.5291478"><ele>234.0</ele><time>2026-05-03T11:17:55.917Z</time></trkpt><trkpt lat="42.2081381" lon="12.5290889"><ele>235.66666666666669</ele><time>2026-05-03T11:17:56.919Z</time></trkpt><trkpt lat="42.2083166" lon="12.5290389"><ele>237.33333333333334</ele><time>2026-05-03T11:17:57.933Z</time></trkpt><trkpt lat="42.2084964" lon="12.5289943"><ele>239.0</ele><time>2026-05-03T11:17:58.929Z</time></trkpt><trkpt lat="42.2086487" lon="12.5289444"><ele>239.0</ele><time>2026-05-03T11:17:59.918Z</time></trkpt><trkpt lat="42.2087866" lon="12.5288956"><ele>239.0</ele><time>2026-05-03T11:18:00.913Z</time></trkpt><trkpt lat="42.2089296" lon="12.5288586"><ele>239.0</ele><time>2026-05-03T11:18:01.909Z</time></trkpt><trkpt lat="42.2090497" lon="12.5288566"><ele>239.0</ele><time>2026-05-03T11:18:02.916Z</time></trkpt><trkpt lat="42.2091771" lon="12.5288751"><ele>238.5</ele><time>2026-05-03T11:18:03.91Z</time></trkpt><trkpt lat="42.2093114" lon="12.5289247"><ele>238.0</ele><time>2026-05-03T11:18:04.921Z</time></trkpt><trkpt lat="42.2094503" lon="12.52896"><ele>237.5</ele><time>2026-05-03T11:18:05.94Z</time></trkpt><trkpt lat="42.2095801" lon="12.5289799"><ele>237.0</ele><time>2026-05-03T11:18:06.942Z</time></trkpt><trkpt lat="42.2096737" lon="12.5289736"><ele>237.0</ele><time>2026-05-03T11:18:07.913Z</time></trkpt><trkpt lat="42.2097944" lon="12.5289397"><ele>237.0</ele><time>2026-05-03T11:18:08.912Z</time></trkpt><trkpt lat="42.2099083" lon="12.5288664"><ele>237.0</ele><time>2026-05-03T11:18:09.919Z</time></trkpt><trkpt lat="42.2100242" lon="12.5287329"><ele>237.0</ele><time>2026-05-03T11:18:10.916Z</time></trkpt><trkpt lat="42.2101236" lon="12.5285481"><ele>235.0</ele><time>2026-05-03T11:18:11.912Z</time></trkpt><trkpt lat="42.2102492" lon="12.528409"><ele>233.0</ele><time>2026-05-03T11:18:12.919Z</time></trkpt><trkpt lat="42.2103728" lon="12.5283292"><ele>231.0</ele><time>2026-05-03T11:18:13.914Z</time></trkpt><trkpt lat="42.2105233" lon="12.5283003"><ele>234.33333333333331</ele><time>2026-05-03T11:18:14.914Z</time></trkpt><trkpt lat="42.2106801" lon="12.5282692"><ele>237.66666666666666</ele><time>2026-05-03T11:18:16.072Z</time></trkpt><trkpt lat="42.2108502" lon="12.5282457"><ele>241.0</ele><time>2026-05-03T11:18:17.072Z</time></trkpt><trkpt lat="42.2110755" lon="12.5280842"><ele>241.0</ele><time>2026-05-03T11:18:19.08Z</time></trkpt><trkpt lat="42.2111767" lon="12.5279475"><ele>241.0</ele><time>2026-05-03T11:18:20.06Z</time></trkpt><trkpt lat="42.2112231" lon="12.5277713"><ele>241.0</ele><time>2026-05-03T11:18:21.266Z</time></trkpt><trkpt lat="42.2112055" lon="12.5274325"><ele>239.0</ele><time>2026-05-03T11:18:22.94Z</time></trkpt><trkpt lat="42.2111525" lon="12.5272724"><ele>237.0</ele><time>2026-05-03T11:18:23.934Z</time></trkpt><trkpt lat="42.2110876" lon="12.5270973"><ele>235.0</ele><time>2026-05-03T11:18:24.94Z</time></trkpt><trkpt lat="42.2110347" lon="12.5269356"><ele>233.0</ele><time>2026-05-03T11:18:25.96Z</time></trkpt><trkpt lat="42.2110035" lon="12.5267873"><ele>233.0</ele><time>2026-05-03T11:18:26.934Z</time></trkpt><trkpt lat="42.2109897" lon="12.5266372"><ele>233.0</ele><time>2026-05-03T11:18:27.944Z</time></trkpt><trkpt lat="42.2109968" lon="12.5264848"><ele>233.0</ele><time>2026-05-03T11:18:28.93Z</time></trkpt><trkpt lat="42.2110357" lon="12.5263366"><ele>233.0</ele><time>2026-05-03T11:18:29.943Z</time></trkpt><trkpt lat="42.2111025" lon="12.5262196"><ele>232.25</ele><time>2026-05-03T11:18:30.936Z</time></trkpt><trkpt lat="42.2111773" lon="12.5261258"><ele>231.5</ele><time>2026-05-03T11:18:31.941Z</time></trkpt><trkpt lat="42.2112684" lon="12.5260592"><ele>230.75</ele><time>2026-05-03T11:18:32.915Z</time></trkpt><trkpt lat="42.2113775" lon="12.5260261"><ele>230.0</ele><time>2026-05-03T11:18:34.079Z</time></trkpt><trkpt lat="42.2115647" lon="12.5260018"><ele>232.00000000000003</ele><time>2026-05-03T11:18:35.952Z</time></trkpt><trkpt lat="42.2116378" lon="12.5259792"><ele>234.0</ele><time>2026-05-03T11:18:36.937Z</time></trkpt><trkpt lat="42.2116963" lon="12.5259426"><ele>236.0</ele><time>2026-05-03T11:18:37.956Z</time></trkpt><trkpt lat="42.2117388" lon="12.5260331"><ele>238.0</ele><time>2026-05-03T11:18:42.941Z</time></trkpt><trkpt lat="42.2117996" lon="12.5260944"><ele>240.00000000000003</ele><time>2026-05-03T11:19:18.955Z</time></trkpt><trkpt lat="42.2119362" lon="12.526131"><ele>242.0</ele><time>2026-05-03T11:19:20.984Z</time></trkpt><trkpt lat="42.2120082" lon="12.5261589"><ele>242.00000000000003</ele><time>2026-05-03T11:19:21.969Z</time></trkpt><trkpt lat="42.2120725" lon="12.5261977"><ele>242.0</ele><time>2026-05-03T11:19:22.965Z</time></trkpt><trkpt lat="42.2121707" lon="12.5262417"><ele>242.0</ele><time>2026-05-03T11:19:25.005Z</time></trkpt><trkpt lat="42.2122387" lon="12.5262584"><ele>242.0</ele><time>2026-05-03T11:19:26.007Z</time></trkpt><trkpt lat="42.2123086" lon="12.526238"><ele>242.00000000000003</ele><time>2026-05-03T11:19:27.004Z</time></trkpt><trkpt lat="42.2124121" lon="12.5261958"><ele>242.0</ele><time>2026-05-03T11:19:27.973Z</time></trkpt><trkpt lat="42.2125469" lon="12.5261374"><ele>245.0</ele><time>2026-05-03T11:19:28.963Z</time></trkpt><trkpt lat="42.2126909" lon="12.52607"><ele>248.0</ele><time>2026-05-03T11:19:29.966Z</time></trkpt><trkpt lat="42.2128392" lon="12.5259877"><ele>251.0</ele><time>2026-05-03T11:19:30.92Z</time></trkpt><trkpt lat="42.2129977" lon="12.5259241"><ele>251.0</ele><time>2026-05-03T11:19:31.922Z</time></trkpt><trkpt lat="42.213188" lon="12.5258737"><ele>251.0</ele><time>2026-05-03T11:19:32.926Z</time></trkpt><trkpt lat="42.213347" lon="12.5258091"><ele>251.0</ele><time>2026-05-03T11:19:33.926Z</time></trkpt><trkpt lat="42.2134883" lon="12.5257431"><ele>251.0</ele><time>2026-05-03T11:19:34.93Z</time></trkpt><trkpt lat="42.2136014" lon="12.525714"><ele>251.0</ele><time>2026-05-03T11:19:35.936Z</time></trkpt><trkpt lat="42.2136972" lon="12.5256647"><ele>251.0</ele><time>2026-05-03T11:19:36.932Z</time></trkpt><trkpt lat="42.2138286" lon="12.5256314"><ele>251.0</ele><time>2026-05-03T11:19:37.954Z</time></trkpt><trkpt lat="42.2139662" lon="12.5256218"><ele>251.25</ele><time>2026-05-03T11:19:38.925Z</time></trkpt><trkpt lat="42.2141033" lon="12.5256027"><ele>251.5</ele><time>2026-05-03T11:19:39.919Z</time></trkpt><trkpt lat="42.2142325" lon="12.5255779"><ele>251.75</ele><time>2026-05-03T11:19:40.948Z</time></trkpt><trkpt lat="42.214387" lon="12.5255516"><ele>252.0</ele><time>2026-05-03T11:19:41.924Z</time></trkpt><trkpt lat="42.2145861" lon="12.5255071"><ele>252.0</ele><time>2026-05-03T11:19:42.944Z</time></trkpt><trkpt lat="42.2147697" lon="12.5254391"><ele>252.0</ele><time>2026-05-03T11:19:43.926Z</time></trkpt><trkpt lat="42.2149328" lon="12.5253745"><ele>252.0</ele><time>2026-05-03T11:19:44.931Z</time></trkpt><trkpt lat="42.2151118" lon="12.5253202"><ele>254.66666666666669</ele><time>2026-05-03T11:19:45.946Z</time></trkpt><trkpt lat="42.2152944" lon="12.5252852"><ele>257.33333333333337</ele><time>2026-05-03T11:19:46.923Z</time></trkpt><trkpt lat="42.2154663" lon="12.5252331"><ele>260.0</ele><time>2026-05-03T11:19:47.966Z</time></trkpt><trkpt lat="42.2156191" lon="12.5251672"><ele>257.0</ele><time>2026-05-03T11:19:48.945Z</time></trkpt><trkpt lat="42.2157854" lon="12.5251399"><ele>254.0</ele><time>2026-05-03T11:19:49.961Z</time></trkpt><trkpt lat="42.2159419" lon="12.5251046"><ele>251.0</ele><time>2026-05-03T11:19:50.949Z</time></trkpt><trkpt lat="42.2161355" lon="12.5250575"><ele>251.0</ele><time>2026-05-03T11:19:51.94Z</time></trkpt><trkpt lat="42.2163346" lon="12.5249662"><ele>251.0</ele><time>2026-05-03T11:19:52.942Z</time></trkpt><trkpt lat="42.2165161" lon="12.524836"><ele>251.0</ele><time>2026-05-03T11:19:53.959Z</time></trkpt><trkpt lat="42.216689" lon="12.5247605"><ele>250.66666666666669</ele><time>2026-05-03T11:19:54.91Z</time></trkpt><trkpt lat="42.2168432" lon="12.5247034"><ele>250.33333333333331</ele><time>2026-05-03T11:19:55.946Z</time></trkpt><trkpt lat="42.2170138" lon="12.5246227"><ele>250.0</ele><time>2026-05-03T11:19:56.965Z</time></trkpt><trkpt lat="42.2171853" lon="12.5245519"><ele>248.0</ele><time>2026-05-03T11:19:57.924Z</time></trkpt><trkpt lat="42.2173328" lon="12.5244975"><ele>246.0</ele><time>2026-05-03T11:19:58.919Z</time></trkpt><trkpt lat="42.2175123" lon="12.5244346"><ele>244.0</ele><time>2026-05-03T11:19:59.936Z</time></trkpt><trkpt lat="42.2176776" lon="12.5243599"><ele>244.0</ele><time>2026-05-03T11:20:00.942Z</time></trkpt><trkpt lat="42.217837" lon="12.524342"><ele>244.0</ele><time>2026-05-03T11:20:01.945Z</time></trkpt><trkpt lat="42.2179958" lon="12.5243096"><ele>244.0</ele><time>2026-05-03T11:20:02.964Z</time></trkpt><trkpt lat="42.2181335" lon="12.5242874"><ele>243.75</ele><time>2026-05-03T11:20:03.938Z</time></trkpt><trkpt lat="42.2182672" lon="12.5242973"><ele>243.5</ele><time>2026-05-03T11:20:04.973Z</time></trkpt><trkpt lat="42.2184156" lon="12.5243184"><ele>243.25</ele><time>2026-05-03T11:20:05.945Z</time></trkpt><trkpt lat="42.2185389" lon="12.5243483"><ele>243.0</ele><time>2026-05-03T11:20:06.921Z</time></trkpt><trkpt lat="42.2186857" lon="12.5243445"><ele>243.0</ele><time>2026-05-03T11:20:07.925Z</time></trkpt><trkpt lat="42.2188245" lon="12.5243405"><ele>243.0</ele><time>2026-05-03T11:20:08.923Z</time></trkpt><trkpt lat="42.2189433" lon="12.5243487"><ele>243.0</ele><time>2026-05-03T11:20:09.92Z</time></trkpt><trkpt lat="42.2190975" lon="12.5242938"><ele>243.0</ele><time>2026-05-03T11:20:10.923Z</time></trkpt><trkpt lat="42.2192751" lon="12.5241935"><ele>244.0</ele><time>2026-05-03T11:20:11.924Z</time></trkpt><trkpt lat="42.2194567" lon="12.5240257"><ele>245.0</ele><time>2026-05-03T11:20:12.923Z</time></trkpt><trkpt lat="42.2196652" lon="12.5238738"><ele>246.33333333333334</ele><time>2026-05-03T11:20:13.907Z</time></trkpt><trkpt lat="42.2198506" lon="12.5237504"><ele>247.66666666666669</ele><time>2026-05-03T11:20:14.92Z</time></trkpt><trkpt lat="42.2200209" lon="12.5236609"><ele>249.0</ele><time>2026-05-03T11:20:15.92Z</time></trkpt><trkpt lat="42.2201899" lon="12.5234834"><ele>249.0</ele><time>2026-05-03T11:20:16.916Z</time></trkpt><trkpt lat="42.220335" lon="12.5233589"><ele>249.0</ele><time>2026-05-03T11:20:17.92Z</time></trkpt><trkpt lat="42.2204844" lon="12.5231785"><ele>249.0</ele><time>2026-05-03T11:20:18.915Z</time></trkpt><trkpt lat="42.2206193" lon="12.5229721"><ele>250.0</ele><time>2026-05-03T11:20:19.905Z</time></trkpt><trkpt lat="42.2207255" lon="12.5227788"><ele>251.0</ele><time>2026-05-03T11:20:20.913Z</time></trkpt><trkpt lat="42.2208449" lon="12.5225814"><ele>252.0</ele><time>2026-05-03T11:20:21.904Z</time></trkpt><trkpt lat="42.2209295" lon="12.522417"><ele>252.0</ele><time>2026-05-03T11:20:22.908Z</time></trkpt><trkpt lat="42.2210528" lon="12.52225"><ele>252.0</ele><time>2026-05-03T11:20:23.932Z</time></trkpt><trkpt lat="42.2211495" lon="12.5221257"><ele>252.0</ele><time>2026-05-03T11:20:24.906Z</time></trkpt><trkpt lat="42.2212625" lon="12.5219917"><ele>251.5</ele><time>2026-05-03T11:20:25.907Z</time></trkpt><trkpt lat="42.2213758" lon="12.5219109"><ele>251.0</ele><time>2026-05-03T11:20:26.932Z</time></trkpt><trkpt lat="42.2214795" lon="12.5218645"><ele>250.5</ele><time>2026-05-03T11:20:27.942Z</time></trkpt><trkpt lat="42.2215567" lon="12.5218888"><ele>250.0</ele><time>2026-05-03T11:20:28.918Z</time></trkpt><trkpt lat="42.2216944" lon="12.5219364"><ele>250.0</ele><time>2026-05-03T11:20:29.937Z</time></trkpt><trkpt lat="42.2218728" lon="12.5219923"><ele>250.0</ele><time>2026-05-03T11:20:30.914Z</time></trkpt><trkpt lat="42.2220332" lon="12.5220703"><ele>250.0</ele><time>2026-05-03T11:20:31.919Z</time></trkpt><trkpt lat="42.2222106" lon="12.522214"><ele>249.0</ele><time>2026-05-03T11:20:32.938Z</time></trkpt><trkpt lat="42.2223759" lon="12.5223473"><ele>248.0</ele><time>2026-05-03T11:20:33.92Z</time></trkpt><trkpt lat="42.2225505" lon="12.5224885"><ele>247.0</ele><time>2026-05-03T11:20:34.912Z</time></trkpt><trkpt lat="42.2227224" lon="12.5226366"><ele>247.0</ele><time>2026-05-03T11:20:35.926Z</time></trkpt><trkpt lat="42.2229022" lon="12.5227779"><ele>247.0</ele><time>2026-05-03T11:20:36.922Z</time></trkpt><trkpt lat="42.2230769" lon="12.5229095"><ele>247.0</ele><time>2026-05-03T11:20:37.912Z</time></trkpt><trkpt lat="42.2232334" lon="12.5230308"><ele>246.66666666666666</ele><time>2026-05-03T11:20:38.925Z</time></trkpt><trkpt lat="42.2233807" lon="12.5231398"><ele>246.33333333333331</ele><time>2026-05-03T11:20:39.923Z</time></trkpt><trkpt lat="42.2235287" lon="12.5232489"><ele>246.0</ele><time>2026-05-03T11:20:40.94Z</time></trkpt><trkpt lat="42.2236831" lon="12.5233558"><ele>246.0</ele><time>2026-05-03T11:20:41.92Z</time></trkpt><trkpt lat="42.2238811" lon="12.5234377"><ele>246.0</ele><time>2026-05-03T11:20:42.942Z</time></trkpt><trkpt lat="42.2240822" lon="12.5235022"><ele>246.0</ele><time>2026-05-03T11:20:43.914Z</time></trkpt><trkpt lat="42.2242763" lon="12.5235735"><ele>246.66666666666669</ele><time>2026-05-03T11:20:44.918Z</time></trkpt><trkpt lat="42.2244965" lon="12.5236077"><ele>247.33333333333334</ele><time>2026-05-03T11:20:45.92Z</time></trkpt><trkpt lat="42.2246884" lon="12.5236313"><ele>248.0</ele><time>2026-05-03T11:20:46.91Z</time></trkpt><trkpt lat="42.2248708" lon="12.5236587"><ele>249.0</ele><time>2026-05-03T11:20:47.914Z</time></trkpt><trkpt lat="42.2250251" lon="12.523692"><ele>250.0</ele><time>2026-05-03T11:20:48.907Z</time></trkpt><trkpt lat="42.2251698" lon="12.5237293"><ele>251.0</ele><time>2026-05-03T11:20:49.908Z</time></trkpt><trkpt lat="42.2253043" lon="12.5237886"><ele>252.0</ele><time>2026-05-03T11:20:50.903Z</time></trkpt><trkpt lat="42.2254646" lon="12.5238225"><ele>252.33333333333331</ele><time>2026-05-03T11:20:51.914Z</time></trkpt><trkpt lat="42.2256201" lon="12.5238322"><ele>252.66666666666666</ele><time>2026-05-03T11:20:52.914Z</time></trkpt><trkpt lat="42.2257844" lon="12.5238378"><ele>253.0</ele><time>2026-05-03T11:20:53.909Z</time></trkpt><trkpt lat="42.2259483" lon="12.5238706"><ele>254.0</ele><time>2026-05-03T11:20:54.915Z</time></trkpt><trkpt lat="42.2260854" lon="12.5238462"><ele>255.0</ele><time>2026-05-03T11:20:55.914Z</time></trkpt><trkpt lat="42.2262344" lon="12.5238494"><ele>256.0</ele><time>2026-05-03T11:20:56.905Z</time></trkpt><trkpt lat="42.2263492" lon="12.5238593"><ele>257.0</ele><time>2026-05-03T11:20:57.928Z</time></trkpt><trkpt lat="42.2264444" lon="12.5238787"><ele>257.2857142857143</ele><time>2026-05-03T11:20:58.899Z</time></trkpt><trkpt lat="42.2265126" lon="12.5239219"><ele>257.57142857142856</ele><time>2026-05-03T11:20:59.907Z</time></trkpt><trkpt lat="42.2265854" lon="12.5239724"><ele>257.8571428571429</ele><time>2026-05-03T11:21:00.921Z</time></trkpt><trkpt lat="42.2266333" lon="12.5240322"><ele>258.1428571428571</ele><time>2026-05-03T11:21:01.899Z</time></trkpt><trkpt lat="42.2267036" lon="12.5240645"><ele>258.42857142857144</ele><time>2026-05-03T11:21:03.929Z</time></trkpt><trkpt lat="42.2267464" lon="12.5241397"><ele>258.7142857142857</ele><time>2026-05-03T11:21:13.902Z</time></trkpt><trkpt lat="42.2268086" lon="12.5241831"><ele>259.0</ele><time>2026-05-03T11:21:47.921Z</time></trkpt><trkpt lat="42.2268865" lon="12.5242317"><ele>259.0</ele><time>2026-05-03T11:22:21.92Z</time></trkpt><trkpt lat="42.2270428" lon="12.5242437"><ele>259.0</ele><time>2026-05-03T11:22:28.923Z</time></trkpt><trkpt lat="42.227137" lon="12.5242184"><ele>259.0</ele><time>2026-05-03T11:22:29.918Z</time></trkpt><trkpt lat="42.2272403" lon="12.5241898"><ele>259.0</ele><time>2026-05-03T11:22:30.916Z</time></trkpt><trkpt lat="42.2273812" lon="12.5241599"><ele>259.0</ele><time>2026-05-03T11:22:31.924Z</time></trkpt><trkpt lat="42.227519" lon="12.5241262"><ele>259.0</ele><time>2026-05-03T11:22:32.923Z</time></trkpt><trkpt lat="42.2276675" lon="12.5241058"><ele>259.0</ele><time>2026-05-03T11:22:33.915Z</time></trkpt><trkpt lat="42.2278036" lon="12.5241181"><ele>259.0</ele><time>2026-05-03T11:22:34.921Z</time></trkpt><trkpt lat="42.2279387" lon="12.5241106"><ele>259.0</ele><time>2026-05-03T11:22:35.92Z</time></trkpt><trkpt lat="42.2280646" lon="12.5241199"><ele>259.0</ele><time>2026-05-03T11:22:36.919Z</time></trkpt><trkpt lat="42.2281924" lon="12.5241774"><ele>259.0</ele><time>2026-05-03T11:22:37.915Z</time></trkpt><trkpt lat="42.2283259" lon="12.5242214"><ele>259.0</ele><time>2026-05-03T11:22:38.918Z</time></trkpt><trkpt lat="42.2284706" lon="12.5242676"><ele>261.0</ele><time>2026-05-03T11:22:39.925Z</time></trkpt><trkpt lat="42.2285869" lon="12.5243224"><ele>263.0</ele><time>2026-05-03T11:22:40.921Z</time></trkpt><trkpt lat="42.2287025" lon="12.5243755"><ele>265.0</ele><time>2026-05-03T11:22:41.917Z</time></trkpt><trkpt lat="42.2288036" lon="12.524437"><ele>267.0</ele><time>2026-05-03T11:22:42.923Z</time></trkpt><trkpt lat="42.2288865" lon="12.5245067"><ele>265.75</ele><time>2026-05-03T11:22:43.924Z</time></trkpt><trkpt lat="42.2289641" lon="12.5245894"><ele>264.5</ele><time>2026-05-03T11:22:44.93Z</time></trkpt><trkpt lat="42.2290466" lon="12.5246807"><ele>263.25</ele><time>2026-05-03T11:22:45.948Z</time></trkpt><trkpt lat="42.2291318" lon="12.5247951"><ele>262.0</ele><time>2026-05-03T11:22:46.926Z</time></trkpt><trkpt lat="42.2292251" lon="12.5249149"><ele>265.2</ele><time>2026-05-03T11:22:47.927Z</time></trkpt><trkpt lat="42.2292979" lon="12.5250332"><ele>268.4</ele><time>2026-05-03T11:22:48.919Z</time></trkpt><trkpt lat="42.2293681" lon="12.5251465"><ele>271.6</ele><time>2026-05-03T11:22:49.922Z</time></trkpt><trkpt lat="42.2294445" lon="12.5252301"><ele>274.8</ele><time>2026-05-03T11:22:50.926Z</time></trkpt><trkpt lat="42.2295221" lon="12.5252957"><ele>278.0</ele><time>2026-05-03T11:22:51.922Z</time></trkpt><trkpt lat="42.2296144" lon="12.5253334"><ele>278.0</ele><time>2026-05-03T11:22:52.928Z</time></trkpt><trkpt lat="42.2297204" lon="12.5253478"><ele>278.0</ele><time>2026-05-03T11:22:53.918Z</time></trkpt><trkpt lat="42.2298303" lon="12.5253764"><ele>278.0</ele><time>2026-05-03T11:22:54.927Z</time></trkpt><trkpt lat="42.2299287" lon="12.5254156"><ele>278.0</ele><time>2026-05-03T11:22:55.916Z</time></trkpt><trkpt lat="42.2300234" lon="12.5254673"><ele>278.0</ele><time>2026-05-03T11:22:56.922Z</time></trkpt><trkpt lat="42.2300937" lon="12.5255237"><ele>281.0</ele><time>2026-05-03T11:22:57.92Z</time></trkpt><trkpt lat="42.2301511" lon="12.5255948"><ele>284.0</ele><time>2026-05-03T11:22:58.923Z</time></trkpt><trkpt lat="42.230173" lon="12.5256914"><ele>287.0</ele><time>2026-05-03T11:22:59.925Z</time></trkpt><trkpt lat="42.2301778" lon="12.5258159"><ele>290.0</ele><time>2026-05-03T11:23:00.916Z</time></trkpt><trkpt lat="42.23018" lon="12.525961"><ele>293.0</ele><time>2026-05-03T11:23:01.917Z</time></trkpt><trkpt lat="42.2301676" lon="12.5260842"><ele>296.0</ele><time>2026-05-03T11:23:02.918Z</time></trkpt><trkpt lat="42.2301494" lon="12.5261961"><ele>297.0</ele><time>2026-05-03T11:23:03.916Z</time></trkpt><trkpt lat="42.2301297" lon="12.5262958"><ele>298.0</ele><time>2026-05-03T11:23:04.937Z</time></trkpt><trkpt lat="42.2301094" lon="12.5263821"><ele>299.0</ele><time>2026-05-03T11:23:05.916Z</time></trkpt><trkpt lat="42.2300899" lon="12.5264698"><ele>300.0</ele><time>2026-05-03T11:23:06.94Z</time></trkpt><trkpt lat="42.2300563" lon="12.5265575"><ele>301.0</ele><time>2026-05-03T11:23:07.917Z</time></trkpt><trkpt lat="42.2299836" lon="12.5266455"><ele>302.0</ele><time>2026-05-03T11:23:08.91Z</time></trkpt><trkpt lat="42.2298979" lon="12.5267394"><ele>297.0</ele><time>2026-05-03T11:23:09.909Z</time></trkpt><trkpt lat="42.2297943" lon="12.5268172"><ele>292.0</ele><time>2026-05-03T11:23:10.905Z</time></trkpt><trkpt lat="42.2296547" lon="12.5268831"><ele>287.0</ele><time>2026-05-03T11:23:11.956Z</time></trkpt><trkpt lat="42.2295299" lon="12.5269369"><ele>282.0</ele><time>2026-05-03T11:23:12.961Z</time></trkpt><trkpt lat="42.2294661" lon="12.5269481"><ele>282.0</ele><time>2026-05-03T11:23:18.943Z</time></trkpt><trkpt lat="42.2294004" lon="12.5269774"><ele>282.0</ele><time>2026-05-03T11:25:02.98Z</time></trkpt><trkpt lat="42.2293201" lon="12.5270071"><ele>282.0</ele><time>2026-05-03T11:25:03.991Z</time></trkpt><trkpt lat="42.2292206" lon="12.5270322"><ele>282.0</ele><time>2026-05-03T11:25:04.954Z</time></trkpt><trkpt lat="42.2291066" lon="12.5270671"><ele>282.0</ele><time>2026-05-03T11:25:05.929Z</time></trkpt><trkpt lat="42.2289926" lon="12.5271048"><ele>281.0</ele><time>2026-05-03T11:25:06.926Z</time></trkpt><trkpt lat="42.2288705" lon="12.5271505"><ele>280.0</ele><time>2026-05-03T11:25:07.932Z</time></trkpt><trkpt lat="42.2287428" lon="12.527219"><ele>279.0</ele><time>2026-05-03T11:25:08.924Z</time></trkpt><trkpt lat="42.2286257" lon="12.5273098"><ele>278.0</ele><time>2026-05-03T11:25:09.931Z</time></trkpt><trkpt lat="42.2285087" lon="12.5273884"><ele>278.0</ele><time>2026-05-03T11:25:10.948Z</time></trkpt><trkpt lat="42.2283996" lon="12.5274658"><ele>278.0</ele><time>2026-05-03T11:25:11.918Z</time></trkpt><trkpt lat="42.2282893" lon="12.5275474"><ele>278.0</ele><time>2026-05-03T11:25:12.927Z</time></trkpt><trkpt lat="42.2281748" lon="12.5276395"><ele>278.0</ele><time>2026-05-03T11:25:13.924Z</time></trkpt><trkpt lat="42.2280572" lon="12.5277439"><ele>273.75</ele><time>2026-05-03T11:25:14.947Z</time></trkpt><trkpt lat="42.2279493" lon="12.5278589"><ele>269.5</ele><time>2026-05-03T11:25:15.93Z</time></trkpt><trkpt lat="42.2278441" lon="12.5279762"><ele>265.25</ele><time>2026-05-03T11:25:16.919Z</time></trkpt><trkpt lat="42.227741" lon="12.528096"><ele>261.0</ele><time>2026-05-03T11:25:17.921Z</time></trkpt><trkpt lat="42.2276435" lon="12.5282177"><ele>261.0</ele><time>2026-05-03T11:25:18.926Z</time></trkpt><trkpt lat="42.2275498" lon="12.5283438"><ele>261.0</ele><time>2026-05-03T11:25:19.924Z</time></trkpt><trkpt lat="42.2274659" lon="12.5284847"><ele>261.0</ele><time>2026-05-03T11:25:20.956Z</time></trkpt><trkpt lat="42.227393" lon="12.528634"><ele>261.0</ele><time>2026-05-03T11:25:21.934Z</time></trkpt><trkpt lat="42.2273236" lon="12.5287906"><ele>253.33333333333331</ele><time>2026-05-03T11:25:22.93Z</time></trkpt><trkpt lat="42.2272666" lon="12.5289697"><ele>245.66666666666666</ele><time>2026-05-03T11:25:23.929Z</time></trkpt><trkpt lat="42.2272159" lon="12.5292094"><ele>238.0</ele><time>2026-05-03T11:25:24.948Z</time></trkpt><trkpt lat="42.2271589" lon="12.5294251"><ele>236.33333333333331</ele><time>2026-05-03T11:25:25.947Z</time></trkpt><trkpt lat="42.227105" lon="12.5296585"><ele>234.66666666666669</ele><time>2026-05-03T11:25:26.931Z</time></trkpt><trkpt lat="42.2270534" lon="12.5298869"><ele>233.0</ele><time>2026-05-03T11:25:27.931Z</time></trkpt><trkpt lat="42.2270378" lon="12.5300784"><ele>233.0</ele><time>2026-05-03T11:25:28.947Z</time></trkpt><trkpt lat="42.2270309" lon="12.5302959"><ele>233.0</ele><time>2026-05-03T11:25:29.976Z</time></trkpt><trkpt lat="42.2270338" lon="12.5304733"><ele>233.0</ele><time>2026-05-03T11:25:30.973Z</time></trkpt><trkpt lat="42.2270387" lon="12.5306794"><ele>233.0</ele><time>2026-05-03T11:25:31.926Z</time></trkpt><trkpt lat="42.2270661" lon="12.530868"><ele>231.33333333333334</ele><time>2026-05-03T11:25:32.971Z</time></trkpt><trkpt lat="42.2270935" lon="12.5310929"><ele>229.66666666666669</ele><time>2026-05-03T11:25:33.957Z</time></trkpt><trkpt lat="42.2271406" lon="12.5313245"><ele>228.0</ele><time>2026-05-03T11:25:34.933Z</time></trkpt><trkpt lat="42.2272103" lon="12.5315134"><ele>227.5</ele><time>2026-05-03T11:25:35.933Z</time></trkpt><trkpt lat="42.2272702" lon="12.5316807"><ele>227.0</ele><time>2026-05-03T11:25:36.929Z</time></trkpt><trkpt lat="42.2273103" lon="12.5318627"><ele>226.5</ele><time>2026-05-03T11:25:37.928Z</time></trkpt><trkpt lat="42.2273473" lon="12.5320374"><ele>226.0</ele><time>2026-05-03T11:25:38.93Z</time></trkpt><trkpt lat="42.2273796" lon="12.5322446"><ele>226.0</ele><time>2026-05-03T11:25:39.93Z</time></trkpt><trkpt lat="42.2274111" lon="12.5324251"><ele>226.0</ele><time>2026-05-03T11:25:40.925Z</time></trkpt><trkpt lat="42.2274552" lon="12.5326085"><ele>226.0</ele><time>2026-05-03T11:25:41.928Z</time></trkpt><trkpt lat="42.2275238" lon="12.5327749"><ele>226.0</ele><time>2026-05-03T11:25:42.932Z</time></trkpt><trkpt lat="42.2275833" lon="12.5329498"><ele>221.75</ele><time>2026-05-03T11:25:43.925Z</time></trkpt><trkpt lat="42.2276532" lon="12.5330793"><ele>217.5</ele><time>2026-05-03T11:25:44.928Z</time></trkpt><trkpt lat="42.2277321" lon="12.5331976"><ele>213.25</ele><time>2026-05-03T11:25:46.087Z</time></trkpt><trkpt lat="42.2278311" lon="12.5332942"><ele>209.0</ele><time>2026-05-03T11:25:47.247Z</time></trkpt><trkpt lat="42.2279384" lon="12.5333735"><ele>212.66666666666669</ele><time>2026-05-03T11:25:48.249Z</time></trkpt><trkpt lat="42.2281828" lon="12.5335362"><ele>216.33333333333331</ele><time>2026-05-03T11:25:49.946Z</time></trkpt><trkpt lat="42.2283053" lon="12.5336013"><ele>220.0</ele><time>2026-05-03T11:25:50.944Z</time></trkpt><trkpt lat="42.2284225" lon="12.5336532"><ele>220.0</ele><time>2026-05-03T11:25:51.94Z</time></trkpt><trkpt lat="42.2285497" lon="12.5337025"><ele>220.0</ele><time>2026-05-03T11:25:52.922Z</time></trkpt><trkpt lat="42.2286867" lon="12.5337366"><ele>220.0</ele><time>2026-05-03T11:25:53.92Z</time></trkpt><trkpt lat="42.22882" lon="12.5337543"><ele>220.0</ele><time>2026-05-03T11:25:54.917Z</time></trkpt><trkpt lat="42.2289495" lon="12.5337592"><ele>219.0</ele><time>2026-05-03T11:25:55.919Z</time></trkpt><trkpt lat="42.2290739" lon="12.5337445"><ele>218.0</ele><time>2026-05-03T11:25:56.909Z</time></trkpt><trkpt lat="42.2291947" lon="12.5337127"><ele>217.0</ele><time>2026-05-03T11:25:57.915Z</time></trkpt><trkpt lat="42.2293164" lon="12.5336578"><ele>216.0</ele><time>2026-05-03T11:25:58.914Z</time></trkpt><trkpt lat="42.2294207" lon="12.5336105"><ele>216.0</ele><time>2026-05-03T11:25:59.926Z</time></trkpt><trkpt lat="42.2295193" lon="12.5335478"><ele>216.0</ele><time>2026-05-03T11:26:00.917Z</time></trkpt><trkpt lat="42.2296112" lon="12.5334872"><ele>216.0</ele><time>2026-05-03T11:26:01.91Z</time></trkpt><trkpt lat="42.2296931" lon="12.5333822"><ele>216.0</ele><time>2026-05-03T11:26:02.913Z</time></trkpt><trkpt lat="42.2297706" lon="12.5332485"><ele>216.0</ele><time>2026-05-03T11:26:03.98Z</time></trkpt><trkpt lat="42.229844" lon="12.5330944"><ele>216.0</ele><time>2026-05-03T11:26:05.067Z</time></trkpt><trkpt lat="42.229931" lon="12.5329133"><ele>216.0</ele><time>2026-05-03T11:26:06.064Z</time></trkpt><trkpt lat="42.2300892" lon="12.5326049"><ele>216.0</ele><time>2026-05-03T11:26:07.908Z</time></trkpt><trkpt lat="42.2301718" lon="12.5324626"><ele>216.0</ele><time>2026-05-03T11:26:08.906Z</time></trkpt><trkpt lat="42.2302576" lon="12.5323818"><ele>216.0</ele><time>2026-05-03T11:26:10.069Z</time></trkpt><trkpt lat="42.2303859" lon="12.5323136"><ele>216.0</ele><time>2026-05-03T11:26:11.107Z</time></trkpt><trkpt lat="42.2306515" lon="12.5322412"><ele>219.25</ele><time>2026-05-03T11:26:12.905Z</time></trkpt><trkpt lat="42.2307754" lon="12.5321975"><ele>222.5</ele><time>2026-05-03T11:26:13.907Z</time></trkpt><trkpt lat="42.230921" lon="12.5321598"><ele>225.75</ele><time>2026-05-03T11:26:14.908Z</time></trkpt><trkpt lat="42.2310471" lon="12.5321073"><ele>229.0</ele><time>2026-05-03T11:26:15.912Z</time></trkpt><trkpt lat="42.2311736" lon="12.5320096"><ele>229.0</ele><time>2026-05-03T11:26:16.914Z</time></trkpt><trkpt lat="42.2312931" lon="12.5319079"><ele>229.0</ele><time>2026-05-03T11:26:17.913Z</time></trkpt><trkpt lat="42.2314232" lon="12.5318294"><ele>229.0</ele><time>2026-05-03T11:26:18.915Z</time></trkpt><trkpt lat="42.2315476" lon="12.5317425"><ele>229.0</ele><time>2026-05-03T11:26:19.912Z</time></trkpt><trkpt lat="42.2316378" lon="12.531649"><ele>223.6</ele><time>2026-05-03T11:26:20.911Z</time></trkpt><trkpt lat="42.2317364" lon="12.5315849"><ele>218.2</ele><time>2026-05-03T11:26:21.923Z</time></trkpt><trkpt lat="42.2318402" lon="12.5315378"><ele>212.79999999999998</ele><time>2026-05-03T11:26:22.918Z</time></trkpt><trkpt lat="42.2319461" lon="12.5314904"><ele>207.39999999999998</ele><time>2026-05-03T11:26:23.912Z</time></trkpt><trkpt lat="42.2320321" lon="12.531404"><ele>202.0</ele><time>2026-05-03T11:26:24.92Z</time></trkpt><trkpt lat="42.2321357" lon="12.531307"><ele>201.99999999999997</ele><time>2026-05-03T11:26:25.923Z</time></trkpt><trkpt lat="42.2321973" lon="12.531225"><ele>202.0</ele><time>2026-05-03T11:26:26.915Z</time></trkpt><trkpt lat="42.232285" lon="12.5311469"><ele>202.0</ele><time>2026-05-03T11:26:27.926Z</time></trkpt><trkpt lat="42.2323513" lon="12.5310533"><ele>202.0</ele><time>2026-05-03T11:26:28.923Z</time></trkpt><trkpt lat="42.232365" lon="12.5309592"><ele>201.99999999999997</ele><time>2026-05-03T11:26:29.915Z</time></trkpt><trkpt lat="42.2323536" lon="12.5308484"><ele>202.0</ele><time>2026-05-03T11:26:30.924Z</time></trkpt><trkpt lat="42.2323827" lon="12.5307055"><ele>200.0</ele><time>2026-05-03T11:26:31.917Z</time></trkpt><trkpt lat="42.2324427" lon="12.5305355"><ele>198.0</ele><time>2026-05-03T11:26:32.926Z</time></trkpt><trkpt lat="42.2324967" lon="12.5303873"><ele>196.0</ele><time>2026-05-03T11:26:33.919Z</time></trkpt><trkpt lat="42.2325077" lon="12.530216"><ele>194.0</ele><time>2026-05-03T11:26:34.919Z</time></trkpt><trkpt lat="42.2325775" lon="12.5300924"><ele>194.0</ele><time>2026-05-03T11:26:35.918Z</time></trkpt><trkpt lat="42.2326317" lon="12.5299981"><ele>194.0</ele><time>2026-05-03T11:26:36.923Z</time></trkpt><trkpt lat="42.2327328" lon="12.5298847"><ele>194.0</ele><time>2026-05-03T11:26:38.923Z</time></trkpt><trkpt lat="42.2327874" lon="12.5298174"><ele>194.0</ele><time>2026-05-03T11:26:39.999Z</time></trkpt><trkpt lat="42.2328945" lon="12.5297122"><ele>194.0</ele><time>2026-05-03T11:26:40.948Z</time></trkpt><trkpt lat="42.233008" lon="12.5296056"><ele>191.0</ele><time>2026-05-03T11:26:41.921Z</time></trkpt><trkpt lat="42.2331221" lon="12.5294802"><ele>188.0</ele><time>2026-05-03T11:26:42.928Z</time></trkpt><trkpt lat="42.2332337" lon="12.5293708"><ele>185.0</ele><time>2026-05-03T11:26:43.946Z</time></trkpt><trkpt lat="42.2333672" lon="12.5292896"><ele>182.0</ele><time>2026-05-03T11:26:44.944Z</time></trkpt><trkpt lat="42.2335409" lon="12.529239"><ele>182.0</ele><time>2026-05-03T11:26:45.926Z</time></trkpt><trkpt lat="42.2337185" lon="12.5292019"><ele>182.0</ele><time>2026-05-03T11:26:46.919Z</time></trkpt><trkpt lat="42.233874" lon="12.5291853"><ele>182.0</ele><time>2026-05-03T11:26:47.93Z</time></trkpt><trkpt lat="42.2340399" lon="12.5291561"><ele>181.0</ele><time>2026-05-03T11:26:48.951Z</time></trkpt><trkpt lat="42.2341771" lon="12.5291004"><ele>180.0</ele><time>2026-05-03T11:26:49.927Z</time></trkpt><trkpt lat="42.2342844" lon="12.5291025"><ele>179.0</ele><time>2026-05-03T11:26:50.928Z</time></trkpt><trkpt lat="42.2343679" lon="12.5290822"><ele>178.0</ele><time>2026-05-03T11:26:51.926Z</time></trkpt><trkpt lat="42.2344367" lon="12.5290768"><ele>177.0</ele><time>2026-05-03T11:26:52.934Z</time></trkpt><trkpt lat="42.2345433" lon="12.5290385"><ele>177.0</ele><time>2026-05-03T11:26:54.931Z</time></trkpt><trkpt lat="42.2345813" lon="12.5289638"><ele>177.0</ele><time>2026-05-03T11:26:56.934Z</time></trkpt><trkpt lat="42.2345929" lon="12.5288001"><ele>177.0</ele><time>2026-05-03T11:26:58.95Z</time></trkpt><trkpt lat="42.2345589" lon="12.5286659"><ele>177.0</ele><time>2026-05-03T11:26:59.93Z</time></trkpt><trkpt lat="42.2345282" lon="12.528516"><ele>177.0</ele><time>2026-05-03T11:27:00.946Z</time></trkpt><trkpt lat="42.2345072" lon="12.5283974"><ele>180.2</ele><time>2026-05-03T11:27:01.927Z</time></trkpt><trkpt lat="42.2344926" lon="12.5282991"><ele>183.39999999999998</ele><time>2026-05-03T11:27:02.921Z</time></trkpt><trkpt lat="42.2345192" lon="12.5281165"><ele>186.60000000000002</ele><time>2026-05-03T11:27:04.919Z</time></trkpt><trkpt lat="42.2345515" lon="12.528017"><ele>189.8</ele><time>2026-05-03T11:27:05.921Z</time></trkpt><trkpt lat="42.2346253" lon="12.5279437"><ele>193.0</ele><time>2026-05-03T11:27:06.921Z</time></trkpt><trkpt lat="42.2347429" lon="12.527878"><ele>196.0</ele><time>2026-05-03T11:27:07.941Z</time></trkpt><trkpt lat="42.2348463" lon="12.5278069"><ele>199.0</ele><time>2026-05-03T11:27:08.914Z</time></trkpt><trkpt lat="42.2349617" lon="12.527728"><ele>202.0</ele><time>2026-05-03T11:27:09.915Z</time></trkpt><trkpt lat="42.2350909" lon="12.527642"><ele>205.0</ele><time>2026-05-03T11:27:10.926Z</time></trkpt><trkpt lat="42.2352511" lon="12.527609"><ele>205.0</ele><time>2026-05-03T11:27:11.92Z</time></trkpt><trkpt lat="42.2353782" lon="12.52758"><ele>205.0</ele><time>2026-05-03T11:27:12.922Z</time></trkpt><trkpt lat="42.2354879" lon="12.5275188"><ele>205.0</ele><time>2026-05-03T11:27:13.93Z</time></trkpt><trkpt lat="42.2355833" lon="12.5274419"><ele>205.0</ele><time>2026-05-03T11:27:14.93Z</time></trkpt><trkpt lat="42.235675" lon="12.5273555"><ele>202.83333333333331</ele><time>2026-05-03T11:27:15.941Z</time></trkpt><trkpt lat="42.2357545" lon="12.5272977"><ele>200.66666666666666</ele><time>2026-05-03T11:27:16.952Z</time></trkpt><trkpt lat="42.235825" lon="12.5272625"><ele>198.5</ele><time>2026-05-03T11:27:17.954Z</time></trkpt><trkpt lat="42.2358798" lon="12.5271978"><ele>196.33333333333331</ele><time>2026-05-03T11:27:18.929Z</time></trkpt><trkpt lat="42.2359382" lon="12.527113"><ele>194.16666666666666</ele><time>2026-05-03T11:27:19.931Z</time></trkpt><trkpt lat="42.2360077" lon="12.5270277"><ele>192.0</ele><time>2026-05-03T11:27:20.927Z</time></trkpt><trkpt lat="42.2360766" lon="12.5269551"><ele>193.39999999999998</ele><time>2026-05-03T11:27:21.918Z</time></trkpt><trkpt lat="42.2361656" lon="12.5269085"><ele>194.79999999999998</ele><time>2026-05-03T11:27:22.946Z</time></trkpt><trkpt lat="42.2362679" lon="12.5268661"><ele>196.2</ele><time>2026-05-03T11:27:23.936Z</time></trkpt><trkpt lat="42.2363526" lon="12.5268084"><ele>197.6</ele><time>2026-05-03T11:27:24.932Z</time></trkpt><trkpt lat="42.2364198" lon="12.5267726"><ele>199.0</ele><time>2026-05-03T11:27:25.913Z</time></trkpt><trkpt lat="42.2365011" lon="12.5267421"><ele>199.0</ele><time>2026-05-03T11:27:26.941Z</time></trkpt><trkpt lat="42.2366138" lon="12.5266958"><ele>199.0</ele><time>2026-05-03T11:27:27.915Z</time></trkpt><trkpt lat="42.236718" lon="12.5265875"><ele>199.0</ele><time>2026-05-03T11:27:28.921Z</time></trkpt><trkpt lat="42.2368387" lon="12.5265016"><ele>199.0</ele><time>2026-05-03T11:27:29.922Z</time></trkpt><trkpt lat="42.2369608" lon="12.5264227"><ele>199.0</ele><time>2026-05-03T11:27:30.922Z</time></trkpt><trkpt lat="42.2370649" lon="12.5263616"><ele>199.0</ele><time>2026-05-03T11:27:31.922Z</time></trkpt><trkpt lat="42.2371305" lon="12.5263124"><ele>199.0</ele><time>2026-05-03T11:27:32.926Z</time></trkpt><trkpt lat="42.2372911" lon="12.5264405"><ele>199.0</ele><time>2026-05-03T11:27:34.95Z</time></trkpt><trkpt lat="42.2373709" lon="12.5265406"><ele>197.79999999999998</ele><time>2026-05-03T11:27:35.93Z</time></trkpt><trkpt lat="42.2374582" lon="12.526659"><ele>196.6</ele><time>2026-05-03T11:27:36.927Z</time></trkpt><trkpt lat="42.2375106" lon="12.5267868"><ele>195.4</ele><time>2026-05-03T11:27:37.949Z</time></trkpt><trkpt lat="42.2375592" lon="12.5268942"><ele>194.2</ele><time>2026-05-03T11:27:38.947Z</time></trkpt><trkpt lat="42.2376218" lon="12.5269691"><ele>193.0</ele><time>2026-05-03T11:27:39.93Z</time></trkpt><trkpt lat="42.2376935" lon="12.5270096"><ele>193.0</ele><time>2026-05-03T11:27:40.925Z</time></trkpt><trkpt lat="42.2377608" lon="12.5270365"><ele>193.0</ele><time>2026-05-03T11:27:41.914Z</time></trkpt><trkpt lat="42.2378722" lon="12.5270375"><ele>193.0</ele><time>2026-05-03T11:27:43.913Z</time></trkpt><trkpt lat="42.2379382" lon="12.5269983"><ele>193.0</ele><time>2026-05-03T11:27:51.922Z</time></trkpt><trkpt lat="42.2379894" lon="12.5270917"><ele>193.0</ele><time>2026-05-03T11:28:58.966Z</time></trkpt><trkpt lat="42.2381133" lon="12.5271205"><ele>189.83333333333331</ele><time>2026-05-03T11:29:00.937Z</time></trkpt><trkpt lat="42.2381751" lon="12.5271606"><ele>186.66666666666666</ele><time>2026-05-03T11:29:01.958Z</time></trkpt><trkpt lat="42.238249" lon="12.52721"><ele>183.5</ele><time>2026-05-03T11:29:02.934Z</time></trkpt><trkpt lat="42.2383285" lon="12.5272714"><ele>180.33333333333331</ele><time>2026-05-03T11:29:04.021Z</time></trkpt><trkpt lat="42.2384111" lon="12.5273155"><ele>177.16666666666666</ele><time>2026-05-03T11:29:04.938Z</time></trkpt><trkpt lat="42.2384985" lon="12.5273376"><ele>174.0</ele><time>2026-05-03T11:29:05.934Z</time></trkpt><trkpt lat="42.2385825" lon="12.527354"><ele>174.0</ele><time>2026-05-03T11:29:06.939Z</time></trkpt><trkpt lat="42.2386586" lon="12.5273582"><ele>174.0</ele><time>2026-05-03T11:29:07.927Z</time></trkpt><trkpt lat="42.2387267" lon="12.527374"><ele>174.0</ele><time>2026-05-03T11:29:08.932Z</time></trkpt><trkpt lat="42.2387899" lon="12.5273786"><ele>174.0</ele><time>2026-05-03T11:29:09.929Z</time></trkpt><trkpt lat="42.2388545" lon="12.5273682"><ele>174.0</ele><time>2026-05-03T11:29:10.932Z</time></trkpt><trkpt lat="42.2389147" lon="12.5273417"><ele>174.0</ele><time>2026-05-03T11:29:11.932Z</time></trkpt><trkpt lat="42.239005" lon="12.5272825"><ele>174.0</ele><time>2026-05-03T11:29:13.929Z</time></trkpt><trkpt lat="42.2390765" lon="12.527203"><ele>174.0</ele><time>2026-05-03T11:29:15.939Z</time></trkpt><trkpt lat="42.2391018" lon="12.5270431"><ele>174.0</ele><time>2026-05-03T11:29:17.94Z</time></trkpt><trkpt lat="42.2391124" lon="12.5269545"><ele>174.0</ele><time>2026-05-03T11:29:18.931Z</time></trkpt><trkpt lat="42.2391114" lon="12.5268656"><ele>174.0</ele><time>2026-05-03T11:29:19.939Z</time></trkpt><trkpt lat="42.239106" lon="12.5267529"><ele>174.0</ele><time>2026-05-03T11:29:20.936Z</time></trkpt><trkpt lat="42.2390968" lon="12.5266372"><ele>174.0</ele><time>2026-05-03T11:29:22.097Z</time></trkpt><trkpt lat="42.239095" lon="12.5265232"><ele>174.0</ele><time>2026-05-03T11:29:23.093Z</time></trkpt><trkpt lat="42.2390713" lon="12.5263079"><ele>174.0</ele><time>2026-05-03T11:29:24.963Z</time></trkpt><trkpt lat="42.2390631" lon="12.5261937"><ele>174.0</ele><time>2026-05-03T11:29:26.092Z</time></trkpt><trkpt lat="42.239073" lon="12.5259681"><ele>174.0</ele><time>2026-05-03T11:29:27.964Z</time></trkpt><trkpt lat="42.2390721" lon="12.5258439"><ele>174.33333333333334</ele><time>2026-05-03T11:29:28.959Z</time></trkpt><trkpt lat="42.2390692" lon="12.5257118"><ele>174.66666666666666</ele><time>2026-05-03T11:29:29.963Z</time></trkpt><trkpt lat="42.2390799" lon="12.5255717"><ele>175.0</ele><time>2026-05-03T11:29:30.957Z</time></trkpt><trkpt lat="42.239093" lon="12.5254692"><ele>175.33333333333331</ele><time>2026-05-03T11:29:31.959Z</time></trkpt><trkpt lat="42.2391118" lon="12.5253671"><ele>175.66666666666666</ele><time>2026-05-03T11:29:32.959Z</time></trkpt><trkpt lat="42.2391152" lon="12.5252678"><ele>176.0</ele><time>2026-05-03T11:29:33.956Z</time></trkpt><trkpt lat="42.2390712" lon="12.5251284"><ele>177.4</ele><time>2026-05-03T11:29:35.961Z</time></trkpt><trkpt lat="42.2390188" lon="12.5250269"><ele>178.8</ele><time>2026-05-03T11:29:37.934Z</time></trkpt><trkpt lat="42.2389582" lon="12.5249198"><ele>180.20000000000002</ele><time>2026-05-03T11:29:39.944Z</time></trkpt><trkpt lat="42.2388935" lon="12.5247722"><ele>181.60000000000002</ele><time>2026-05-03T11:29:41.94Z</time></trkpt><trkpt lat="42.2387956" lon="12.5246768"><ele>183.0</ele><time>2026-05-03T11:29:43.932Z</time></trkpt><trkpt lat="42.2387085" lon="12.524685"><ele>186.4</ele><time>2026-05-03T11:29:45.931Z</time></trkpt><trkpt lat="42.2386273" lon="12.5247403"><ele>189.8</ele><time>2026-05-03T11:29:47.95Z</time></trkpt><trkpt lat="42.2385371" lon="12.5248248"><ele>193.2</ele><time>2026-05-03T11:29:49.947Z</time></trkpt><trkpt lat="42.2384153" lon="12.5248837"><ele>196.6</ele><time>2026-05-03T11:29:51.927Z</time></trkpt><trkpt lat="42.2383163" lon="12.5249499"><ele>200.0</ele><time>2026-05-03T11:29:53.943Z</time></trkpt><trkpt lat="42.2382493" lon="12.5249782"><ele>200.00000000000003</ele><time>2026-05-03T11:29:54.947Z</time></trkpt><trkpt lat="42.2381384" lon="12.5249918"><ele>200.0</ele><time>2026-05-03T11:29:56.919Z</time></trkpt><trkpt lat="42.2380459" lon="12.5249852"><ele>200.0</ele><time>2026-05-03T11:29:58.947Z</time></trkpt><trkpt lat="42.2379638" lon="12.5249322"><ele>200.0</ele><time>2026-05-03T11:30:01.005Z</time></trkpt><trkpt lat="42.237905" lon="12.5248864"><ele>200.00000000000003</ele><time>2026-05-03T11:30:01.954Z</time></trkpt><trkpt lat="42.237831" lon="12.5248452"><ele>200.0</ele><time>2026-05-03T11:30:03.972Z</time></trkpt><trkpt lat="42.2378745" lon="12.5249409"><ele>200.00000000000003</ele><time>2026-05-03T11:31:23.926Z</time></trkpt><trkpt lat="42.2379416" lon="12.5249643"><ele>200.0</ele><time>2026-05-03T11:31:25.931Z</time></trkpt><trkpt lat="42.2380039" lon="12.5250085"><ele>200.0</ele><time>2026-05-03T11:31:28.009Z</time></trkpt><trkpt lat="42.2380932" lon="12.5250217"><ele>200.0</ele><time>2026-05-03T11:31:29.939Z</time></trkpt><trkpt lat="42.2381877" lon="12.5250433"><ele>200.00000000000003</ele><time>2026-05-03T11:31:31.923Z</time></trkpt><trkpt lat="42.2382882" lon="12.5250368"><ele>200.0</ele><time>2026-05-03T11:31:33.917Z</time></trkpt><trkpt lat="42.2383663" lon="12.5250245"><ele>200.00000000000003</ele><time>2026-05-03T11:31:35.925Z</time></trkpt><trkpt lat="42.2384393" lon="12.5249834"><ele>200.0</ele><time>2026-05-03T11:31:37.923Z</time></trkpt><trkpt lat="42.2385357" lon="12.5249436"><ele>200.0</ele><time>2026-05-03T11:31:39.926Z</time></trkpt><trkpt lat="42.2386356" lon="12.5248746"><ele>200.0</ele><time>2026-05-03T11:31:41.921Z</time></trkpt><trkpt lat="42.2387198" lon="12.5248276"><ele>200.00000000000003</ele><time>2026-05-03T11:31:43.921Z</time></trkpt><trkpt lat="42.2387796" lon="12.5248002"><ele>200.0</ele><time>2026-05-03T11:31:45.933Z</time></trkpt><trkpt lat="42.2388632" lon="12.5247743"><ele>200.00000000000003</ele><time>2026-05-03T11:31:48.008Z</time></trkpt><trkpt lat="42.2389328" lon="12.5249098"><ele>200.0</ele><time>2026-05-03T11:31:50.925Z</time></trkpt><trkpt lat="42.2389629" lon="12.5249856"><ele>200.0</ele><time>2026-05-03T11:31:51.928Z</time></trkpt><trkpt lat="42.2390109" lon="12.525085"><ele>200.0</ele><time>2026-05-03T11:31:53.927Z</time></trkpt><trkpt lat="42.2390644" lon="12.5251301"><ele>200.00000000000003</ele><time>2026-05-03T11:31:58.922Z</time></trkpt><trkpt lat="42.2391244" lon="12.5250287"><ele>200.0</ele><time>2026-05-03T11:32:01.924Z</time></trkpt><trkpt lat="42.2392086" lon="12.5248951"><ele>197.4</ele><time>2026-05-03T11:32:03.932Z</time></trkpt><trkpt lat="42.2392654" lon="12.5248073"><ele>194.8</ele><time>2026-05-03T11:32:04.923Z</time></trkpt><trkpt lat="42.2393038" lon="12.5246914"><ele>192.2</ele><time>2026-05-03T11:32:05.941Z</time></trkpt><trkpt lat="42.2393373" lon="12.5245558"><ele>189.6</ele><time>2026-05-03T11:32:06.927Z</time></trkpt><trkpt lat="42.2393672" lon="12.5244037"><ele>187.0</ele><time>2026-05-03T11:32:07.919Z</time></trkpt><trkpt lat="42.2393798" lon="12.5242848"><ele>187.0</ele><time>2026-05-03T11:32:08.928Z</time></trkpt><trkpt lat="42.2394075" lon="12.5241644"><ele>187.0</ele><time>2026-05-03T11:32:09.931Z</time></trkpt><trkpt lat="42.2394421" lon="12.5240506"><ele>187.0</ele><time>2026-05-03T11:32:10.937Z</time></trkpt><trkpt lat="42.2394695" lon="12.5239565"><ele>187.0</ele><time>2026-05-03T11:32:11.93Z</time></trkpt><trkpt lat="42.239487" lon="12.5238648"><ele>187.0</ele><time>2026-05-03T11:32:12.928Z</time></trkpt><trkpt lat="42.2394816" lon="12.5237733"><ele>187.0</ele><time>2026-05-03T11:32:13.938Z</time></trkpt><trkpt lat="42.2394648" lon="12.5236773"><ele>187.16666666666669</ele><time>2026-05-03T11:32:14.937Z</time></trkpt><trkpt lat="42.2394432" lon="12.5235809"><ele>187.33333333333334</ele><time>2026-05-03T11:32:15.94Z</time></trkpt><trkpt lat="42.2394209" lon="12.5234787"><ele>187.5</ele><time>2026-05-03T11:32:16.933Z</time></trkpt><trkpt lat="42.2393996" lon="12.5233636"><ele>187.66666666666666</ele><time>2026-05-03T11:32:17.926Z</time></trkpt><trkpt lat="42.2393888" lon="12.5232355"><ele>187.83333333333331</ele><time>2026-05-03T11:32:18.931Z</time></trkpt><trkpt lat="42.2393902" lon="12.5231009"><ele>188.0</ele><time>2026-05-03T11:32:19.936Z</time></trkpt><trkpt lat="42.2393942" lon="12.5229785"><ele>188.60000000000002</ele><time>2026-05-03T11:32:20.928Z</time></trkpt><trkpt lat="42.2393957" lon="12.5228705"><ele>189.20000000000002</ele><time>2026-05-03T11:32:21.938Z</time></trkpt><trkpt lat="42.2393802" lon="12.5227597"><ele>189.8</ele><time>2026-05-03T11:32:22.929Z</time></trkpt><trkpt lat="42.2393573" lon="12.5226437"><ele>190.4</ele><time>2026-05-03T11:32:23.957Z</time></trkpt><trkpt lat="42.2393509" lon="12.5225108"><ele>191.0</ele><time>2026-05-03T11:32:24.952Z</time></trkpt><trkpt lat="42.2393588" lon="12.5223667"><ele>191.0</ele><time>2026-05-03T11:32:25.946Z</time></trkpt><trkpt lat="42.2393543" lon="12.5222597"><ele>191.0</ele><time>2026-05-03T11:32:26.924Z</time></trkpt><trkpt lat="42.2393561" lon="12.522128"><ele>191.0</ele><time>2026-05-03T11:32:28.922Z</time></trkpt><trkpt lat="42.2394656" lon="12.5220529"><ele>191.0</ele><time>2026-05-03T11:32:30.915Z</time></trkpt><trkpt lat="42.2395417" lon="12.5220232"><ele>191.0</ele><time>2026-05-03T11:32:31.931Z</time></trkpt><trkpt lat="42.2396284" lon="12.5220084"><ele>193.16666666666666</ele><time>2026-05-03T11:32:32.921Z</time></trkpt><trkpt lat="42.2397251" lon="12.5219832"><ele>195.33333333333331</ele><time>2026-05-03T11:32:33.918Z</time></trkpt><trkpt lat="42.2398094" lon="12.5219668"><ele>197.5</ele><time>2026-05-03T11:32:34.948Z</time></trkpt><trkpt lat="42.2398956" lon="12.5219459"><ele>199.66666666666666</ele><time>2026-05-03T11:32:35.945Z</time></trkpt><trkpt lat="42.2399707" lon="12.5219441"><ele>201.83333333333334</ele><time>2026-05-03T11:32:36.935Z</time></trkpt><trkpt lat="42.2400472" lon="12.5219693"><ele>204.0</ele><time>2026-05-03T11:32:37.925Z</time></trkpt><trkpt lat="42.2401223" lon="12.5220079"><ele>204.0</ele><time>2026-05-03T11:32:38.912Z</time></trkpt><trkpt lat="42.2402016" lon="12.5220428"><ele>204.0</ele><time>2026-05-03T11:32:39.923Z</time></trkpt><trkpt lat="42.2402794" lon="12.5220776"><ele>204.0</ele><time>2026-05-03T11:32:40.917Z</time></trkpt><trkpt lat="42.2403906" lon="12.5221171"><ele>204.0</ele><time>2026-05-03T11:32:41.917Z</time></trkpt><trkpt lat="42.240508" lon="12.5221463"><ele>204.0</ele><time>2026-05-03T11:32:42.923Z</time></trkpt><trkpt lat="42.2406149" lon="12.5221793"><ele>196.0</ele><time>2026-05-03T11:32:43.921Z</time></trkpt><trkpt lat="42.2407145" lon="12.5221895"><ele>188.0</ele><time>2026-05-03T11:32:44.934Z</time></trkpt><trkpt lat="42.2408477" lon="12.5221992"><ele>180.0</ele><time>2026-05-03T11:32:45.929Z</time></trkpt><trkpt lat="42.2409805" lon="12.5221678"><ele>172.0</ele><time>2026-05-03T11:32:46.925Z</time></trkpt><trkpt lat="42.2410907" lon="12.5221149"><ele>174.5</ele><time>2026-05-03T11:32:47.918Z</time></trkpt><trkpt lat="42.241199" lon="12.5220445"><ele>177.0</ele><time>2026-05-03T11:32:48.924Z</time></trkpt><trkpt lat="42.2413074" lon="12.5219483"><ele>179.5</ele><time>2026-05-03T11:32:49.919Z</time></trkpt><trkpt lat="42.2414065" lon="12.5218324"><ele>182.0</ele><time>2026-05-03T11:32:50.924Z</time></trkpt><trkpt lat="42.2414992" lon="12.5217215"><ele>182.0</ele><time>2026-05-03T11:32:51.926Z</time></trkpt><trkpt lat="42.2415896" lon="12.5216099"><ele>182.0</ele><time>2026-05-03T11:32:52.926Z</time></trkpt><trkpt lat="42.2416709" lon="12.5215003"><ele>182.0</ele><time>2026-05-03T11:32:53.925Z</time></trkpt><trkpt lat="42.2417424" lon="12.5213836"><ele>182.0</ele><time>2026-05-03T11:32:54.927Z</time></trkpt><trkpt lat="42.24182" lon="12.5212692"><ele>186.75</ele><time>2026-05-03T11:32:55.925Z</time></trkpt><trkpt lat="42.2418941" lon="12.5211615"><ele>191.5</ele><time>2026-05-03T11:32:56.929Z</time></trkpt><trkpt lat="42.2419765" lon="12.5210757"><ele>196.25</ele><time>2026-05-03T11:32:57.924Z</time></trkpt><trkpt lat="42.2420801" lon="12.5209904"><ele>201.0</ele><time>2026-05-03T11:32:58.914Z</time></trkpt><trkpt lat="42.2421963" lon="12.5209108"><ele>201.0</ele><time>2026-05-03T11:32:59.913Z</time></trkpt><trkpt lat="42.242293" lon="12.5208093"><ele>201.0</ele><time>2026-05-03T11:33:00.919Z</time></trkpt><trkpt lat="42.242372" lon="12.520736"><ele>201.0</ele><time>2026-05-03T11:33:01.913Z</time></trkpt><trkpt lat="42.2424294" lon="12.5206638"><ele>201.0</ele><time>2026-05-03T11:33:02.911Z</time></trkpt><trkpt lat="42.2424909" lon="12.5205494"><ele>201.0</ele><time>2026-05-03T11:33:03.939Z</time></trkpt><trkpt lat="42.2425458" lon="12.5204211"><ele>199.8</ele><time>2026-05-03T11:33:04.916Z</time></trkpt><trkpt lat="42.2425885" lon="12.5203007"><ele>198.60000000000002</ele><time>2026-05-03T11:33:05.919Z</time></trkpt><trkpt lat="42.2426494" lon="12.5201979"><ele>197.4</ele><time>2026-05-03T11:33:06.912Z</time></trkpt><trkpt lat="42.242721" lon="12.5200561"><ele>196.2</ele><time>2026-05-03T11:33:07.938Z</time></trkpt><trkpt lat="42.2427663" lon="12.5199411"><ele>195.0</ele><time>2026-05-03T11:33:08.937Z</time></trkpt><trkpt lat="42.2427817" lon="12.5198266"><ele>195.0</ele><time>2026-05-03T11:33:09.918Z</time></trkpt><trkpt lat="42.2427702" lon="12.519722"><ele>195.0</ele><time>2026-05-03T11:33:10.918Z</time></trkpt><trkpt lat="42.2427904" lon="12.5196274"><ele>195.0</ele><time>2026-05-03T11:33:11.918Z</time></trkpt><trkpt lat="42.2428068" lon="12.5195088"><ele>195.0</ele><time>2026-05-03T11:33:12.918Z</time></trkpt><trkpt lat="42.2428253" lon="12.5194022"><ele>195.0</ele><time>2026-05-03T11:33:13.914Z</time></trkpt><trkpt lat="42.2428415" lon="12.5193047"><ele>195.0</ele><time>2026-05-03T11:33:14.92Z</time></trkpt><trkpt lat="42.2428625" lon="12.5192086"><ele>194.5</ele><time>2026-05-03T11:33:15.92Z</time></trkpt><trkpt lat="42.242874" lon="12.5190978"><ele>194.0</ele><time>2026-05-03T11:33:16.914Z</time></trkpt><trkpt lat="42.2429099" lon="12.5190101"><ele>193.5</ele><time>2026-05-03T11:33:17.918Z</time></trkpt><trkpt lat="42.2430127" lon="12.5189141"><ele>193.0</ele><time>2026-05-03T11:33:19.942Z</time></trkpt><trkpt lat="42.2430873" lon="12.5188852"><ele>192.5</ele><time>2026-05-03T11:33:20.946Z</time></trkpt><trkpt lat="42.2431624" lon="12.5188479"><ele>192.0</ele><time>2026-05-03T11:33:21.946Z</time></trkpt><trkpt lat="42.2432602" lon="12.5187984"><ele>192.0</ele><time>2026-05-03T11:33:22.943Z</time></trkpt><trkpt lat="42.2433441" lon="12.5187421"><ele>192.0</ele><time>2026-05-03T11:33:23.948Z</time></trkpt><trkpt lat="42.24341" lon="12.5186864"><ele>192.0</ele><time>2026-05-03T11:33:24.942Z</time></trkpt><trkpt lat="42.2434648" lon="12.5186197"><ele>192.0</ele><time>2026-05-03T11:33:25.919Z</time></trkpt><trkpt lat="42.243524" lon="12.5185588"><ele>192.0</ele><time>2026-05-03T11:33:26.936Z</time></trkpt><trkpt lat="42.2435671" lon="12.518437"><ele>192.0</ele><time>2026-05-03T11:33:27.922Z</time></trkpt><trkpt lat="42.2436057" lon="12.5183209"><ele>195.39999999999998</ele><time>2026-05-03T11:33:28.926Z</time></trkpt><trkpt lat="42.2436555" lon="12.5182221"><ele>198.79999999999998</ele><time>2026-05-03T11:33:29.927Z</time></trkpt><trkpt lat="42.2436958" lon="12.5181541"><ele>202.2</ele><time>2026-05-03T11:33:30.92Z</time></trkpt><trkpt lat="42.2437603" lon="12.5180157"><ele>205.6</ele><time>2026-05-03T11:33:32.947Z</time></trkpt><trkpt lat="42.2438157" lon="12.5179332"><ele>209.0</ele><time>2026-05-03T11:33:33.924Z</time></trkpt><trkpt lat="42.2438925" lon="12.5178192"><ele>210.39999999999998</ele><time>2026-05-03T11:33:34.927Z</time></trkpt><trkpt lat="42.2439754" lon="12.517704"><ele>211.8</ele><time>2026-05-03T11:33:35.922Z</time></trkpt><trkpt lat="42.2440504" lon="12.5175994"><ele>213.20000000000002</ele><time>2026-05-03T11:33:36.929Z</time></trkpt><trkpt lat="42.2441132" lon="12.5174988"><ele>214.60000000000002</ele><time>2026-05-03T11:33:37.928Z</time></trkpt><trkpt lat="42.2441727" lon="12.5174173"><ele>216.0</ele><time>2026-05-03T11:33:38.923Z</time></trkpt><trkpt lat="42.2442624" lon="12.5173284"><ele>216.0</ele><time>2026-05-03T11:33:40.927Z</time></trkpt><trkpt lat="42.2443222" lon="12.5172983"><ele>216.00000000000003</ele><time>2026-05-03T11:33:41.916Z</time></trkpt><trkpt lat="42.2444007" lon="12.5172818"><ele>216.00000000000003</ele><time>2026-05-03T11:33:43.086Z</time></trkpt><trkpt lat="42.2444872" lon="12.5172839"><ele>216.0</ele><time>2026-05-03T11:33:44.1Z</time></trkpt><trkpt lat="42.2446751" lon="12.5172856"><ele>216.0</ele><time>2026-05-03T11:33:45.934Z</time></trkpt><trkpt lat="42.2447753" lon="12.5172898"><ele>215.83333333333334</ele><time>2026-05-03T11:33:46.928Z</time></trkpt><trkpt lat="42.24485" lon="12.5173001"><ele>215.66666666666669</ele><time>2026-05-03T11:33:47.923Z</time></trkpt><trkpt lat="42.2449216" lon="12.5173101"><ele>215.5</ele><time>2026-05-03T11:33:48.923Z</time></trkpt><trkpt lat="42.2449874" lon="12.517313"><ele>215.33333333333334</ele><time>2026-05-03T11:33:49.924Z</time></trkpt><trkpt lat="42.2450882" lon="12.5172285"><ele>215.16666666666669</ele><time>2026-05-03T11:33:52.006Z</time></trkpt><trkpt lat="42.2451357" lon="12.5171414"><ele>215.0</ele><time>2026-05-03T11:33:52.933Z</time></trkpt><trkpt lat="42.2451849" lon="12.5170524"><ele>215.0</ele><time>2026-05-03T11:33:53.924Z</time></trkpt><trkpt lat="42.2452453" lon="12.5169827"><ele>215.0</ele><time>2026-05-03T11:33:54.926Z</time></trkpt><trkpt lat="42.2453069" lon="12.5169234"><ele>215.0</ele><time>2026-05-03T11:33:55.919Z</time></trkpt><trkpt lat="42.2453658" lon="12.5168762"><ele>215.0</ele><time>2026-05-03T11:33:56.918Z</time></trkpt><trkpt lat="42.2454232" lon="12.5168236"><ele>215.0</ele><time>2026-05-03T11:33:57.918Z</time></trkpt><trkpt lat="42.245473" lon="12.5167702"><ele>215.0</ele><time>2026-05-03T11:33:59.919Z</time></trkpt><trkpt lat="42.2455102" lon="12.5166868"><ele>215.0</ele><time>2026-05-03T11:34:02.916Z</time></trkpt><trkpt lat="42.2455163" lon="12.5165599"><ele>215.00000000000003</ele><time>2026-05-03T11:34:04.917Z</time></trkpt><trkpt lat="42.2455599" lon="12.5164919"><ele>215.0</ele><time>2026-05-03T11:34:05.913Z</time></trkpt><trkpt lat="42.2456116" lon="12.516401"><ele>215.0</ele><time>2026-05-03T11:34:06.921Z</time></trkpt><trkpt lat="42.2456832" lon="12.5163209"><ele>215.0</ele><time>2026-05-03T11:34:07.917Z</time></trkpt><trkpt lat="42.2457474" lon="12.5162404"><ele>215.00000000000003</ele><time>2026-05-03T11:34:08.92Z</time></trkpt><trkpt lat="42.2458069" lon="12.5161925"><ele>215.0</ele><time>2026-05-03T11:34:09.917Z</time></trkpt><trkpt lat="42.245889" lon="12.51615"><ele>212.4</ele><time>2026-05-03T11:34:10.918Z</time></trkpt><trkpt lat="42.2459873" lon="12.5161042"><ele>209.8</ele><time>2026-05-03T11:34:11.921Z</time></trkpt><trkpt lat="42.2460825" lon="12.5160654"><ele>207.2</ele><time>2026-05-03T11:34:12.916Z</time></trkpt><trkpt lat="42.246167" lon="12.5160217"><ele>204.6</ele><time>2026-05-03T11:34:13.923Z</time></trkpt><trkpt lat="42.2462538" lon="12.5159536"><ele>202.0</ele><time>2026-05-03T11:34:14.949Z</time></trkpt><trkpt lat="42.2463424" lon="12.5158859"><ele>202.0</ele><time>2026-05-03T11:34:15.919Z</time></trkpt><trkpt lat="42.2464237" lon="12.5158197"><ele>202.0</ele><time>2026-05-03T11:34:16.917Z</time></trkpt><trkpt lat="42.2465011" lon="12.5157429"><ele>202.0</ele><time>2026-05-03T11:34:17.942Z</time></trkpt><trkpt lat="42.2465674" lon="12.5156272"><ele>202.0</ele><time>2026-05-03T11:34:18.919Z</time></trkpt><trkpt lat="42.2466195" lon="12.5154847"><ele>202.0</ele><time>2026-05-03T11:34:19.91Z</time></trkpt><trkpt lat="42.2466613" lon="12.5153127"><ele>203.25</ele><time>2026-05-03T11:34:20.924Z</time></trkpt><trkpt lat="42.2466971" lon="12.5151274"><ele>204.5</ele><time>2026-05-03T11:34:21.926Z</time></trkpt><trkpt lat="42.2467351" lon="12.5149619"><ele>205.75</ele><time>2026-05-03T11:34:22.928Z</time></trkpt><trkpt lat="42.2467974" lon="12.5148245"><ele>207.0</ele><time>2026-05-03T11:34:23.944Z</time></trkpt><trkpt lat="42.2468669" lon="12.5147029"><ele>207.0</ele><time>2026-05-03T11:34:24.92Z</time></trkpt><trkpt lat="42.2469458" lon="12.5145878"><ele>207.0</ele><time>2026-05-03T11:34:25.927Z</time></trkpt><trkpt lat="42.2470335" lon="12.5145112"><ele>207.0</ele><time>2026-05-03T11:34:26.916Z</time></trkpt><trkpt lat="42.2471342" lon="12.5144571"><ele>207.0</ele><time>2026-05-03T11:34:27.922Z</time></trkpt><trkpt lat="42.2472515" lon="12.5144558"><ele>207.0</ele><time>2026-05-03T11:34:28.916Z</time></trkpt><trkpt lat="42.2473758" lon="12.5144746"><ele>206.8</ele><time>2026-05-03T11:34:29.913Z</time></trkpt><trkpt lat="42.2474974" lon="12.514509"><ele>206.6</ele><time>2026-05-03T11:34:30.921Z</time></trkpt><trkpt lat="42.2476087" lon="12.5145619"><ele>206.4</ele><time>2026-05-03T11:34:31.927Z</time></trkpt><trkpt lat="42.2477027" lon="12.5146184"><ele>206.20000000000002</ele><time>2026-05-03T11:34:32.922Z</time></trkpt><trkpt lat="42.247786" lon="12.5146465"><ele>206.0</ele><time>2026-05-03T11:34:33.927Z</time></trkpt><trkpt lat="42.2478479" lon="12.5146678"><ele>210.0</ele><time>2026-05-03T11:34:34.924Z</time></trkpt><trkpt lat="42.2479345" lon="12.5145642"><ele>214.0</ele><time>2026-05-03T11:34:36.928Z</time></trkpt><trkpt lat="42.2479493" lon="12.5144629"><ele>218.00000000000003</ele><time>2026-05-03T11:34:37.929Z</time></trkpt><trkpt lat="42.2479727" lon="12.5143341"><ele>222.0</ele><time>2026-05-03T11:34:38.92Z</time></trkpt><trkpt lat="42.2480002" lon="12.5141691"><ele>226.0</ele><time>2026-05-03T11:34:39.93Z</time></trkpt><trkpt lat="42.2480127" lon="12.5140002"><ele>226.0</ele><time>2026-05-03T11:34:40.918Z</time></trkpt><trkpt lat="42.2480318" lon="12.5138429"><ele>226.00000000000003</ele><time>2026-05-03T11:34:41.919Z</time></trkpt><trkpt lat="42.2480681" lon="12.5137064"><ele>226.00000000000003</ele><time>2026-05-03T11:34:42.912Z</time></trkpt><trkpt lat="42.248075" lon="12.5135668"><ele>226.0</ele><time>2026-05-03T11:34:43.901Z</time></trkpt><trkpt lat="42.2480418" lon="12.5134512"><ele>226.0</ele><time>2026-05-03T11:34:45.909Z</time></trkpt><trkpt lat="42.2479665" lon="12.5134165"><ele>228.49999999999997</ele><time>2026-05-03T11:34:47.906Z</time></trkpt><trkpt lat="42.2479253" lon="12.5135176"><ele>231.0</ele><time>2026-05-03T11:35:08.931Z</time></trkpt><trkpt lat="42.2479135" lon="12.5136071"><ele>233.5</ele><time>2026-05-03T11:35:10.937Z</time></trkpt><trkpt lat="42.2479877" lon="12.513679"><ele>236.0</ele><time>2026-05-03T11:35:18.937Z</time></trkpt><trkpt lat="42.248044" lon="12.5136393"><ele>238.49999999999997</ele><time>2026-05-03T11:36:14.938Z</time></trkpt><trkpt lat="42.2480892" lon="12.5135564"><ele>241.0</ele><time>2026-05-03T11:36:16.936Z</time></trkpt><trkpt lat="42.2481685" lon="12.5134363"><ele>241.0</ele><time>2026-05-03T11:36:18.938Z</time></trkpt><trkpt lat="42.2482395" lon="12.5133088"><ele>241.00000000000003</ele><time>2026-05-03T11:36:20.943Z</time></trkpt><trkpt lat="42.2482999" lon="12.5131886"><ele>241.00000000000003</ele><time>2026-05-03T11:36:22.944Z</time></trkpt><trkpt lat="42.2483656" lon="12.5130719"><ele>241.0</ele><time>2026-05-03T11:36:24.945Z</time></trkpt><trkpt lat="42.2484295" lon="12.5129459"><ele>241.0</ele><time>2026-05-03T11:36:26.941Z</time></trkpt><trkpt lat="42.2484698" lon="12.5128776"><ele>243.16666666666666</ele><time>2026-05-03T11:36:27.944Z</time></trkpt><trkpt lat="42.2485363" lon="12.5127511"><ele>245.33333333333331</ele><time>2026-05-03T11:36:29.942Z</time></trkpt><trkpt lat="42.2485781" lon="12.5126859"><ele>247.5</ele><time>2026-05-03T11:36:30.945Z</time></trkpt><trkpt lat="42.2486237" lon="12.5126217"><ele>249.66666666666669</ele><time>2026-05-03T11:36:31.937Z</time></trkpt><trkpt lat="42.2486653" lon="12.5125427"><ele>251.83333333333334</ele><time>2026-05-03T11:36:32.948Z</time></trkpt><trkpt lat="42.2486968" lon="12.512445"><ele>254.0</ele><time>2026-05-03T11:36:33.939Z</time></trkpt><trkpt lat="42.2487119" lon="12.512337"><ele>254.0</ele><time>2026-05-03T11:36:34.939Z</time></trkpt><trkpt lat="42.2487113" lon="12.5122244"><ele>253.99999999999997</ele><time>2026-05-03T11:36:35.948Z</time></trkpt><trkpt lat="42.2487157" lon="12.5121045"><ele>253.99999999999997</ele><time>2026-05-03T11:36:36.948Z</time></trkpt><trkpt lat="42.2487198" lon="12.5119722"><ele>254.0</ele><time>2026-05-03T11:36:37.939Z</time></trkpt><trkpt lat="42.2487145" lon="12.5118373"><ele>254.0</ele><time>2026-05-03T11:36:38.941Z</time></trkpt><trkpt lat="42.248702" lon="12.5117099"><ele>256.83333333333337</ele><time>2026-05-03T11:36:39.944Z</time></trkpt><trkpt lat="42.2486946" lon="12.5116039"><ele>259.6666666666667</ele><time>2026-05-03T11:36:40.937Z</time></trkpt><trkpt lat="42.248704" lon="12.5115084"><ele>262.5</ele><time>2026-05-03T11:36:41.941Z</time></trkpt><trkpt lat="42.2486933" lon="12.5113941"><ele>265.3333333333333</ele><time>2026-05-03T11:36:43.941Z</time></trkpt><trkpt lat="42.2485939" lon="12.5113477"><ele>268.16666666666663</ele><time>2026-05-03T11:36:45.967Z</time></trkpt><trkpt lat="42.2485095" lon="12.5113524"><ele>271.0</ele><time>2026-05-03T11:36:46.941Z</time></trkpt><trkpt lat="42.2484225" lon="12.5113622"><ele>271.0</ele><time>2026-05-03T11:36:47.944Z</time></trkpt><trkpt lat="42.2483464" lon="12.5113726"><ele>271.0</ele><time>2026-05-03T11:36:48.942Z</time></trkpt><trkpt lat="42.2482729" lon="12.511385"><ele>271.0</ele><time>2026-05-03T11:36:54.943Z</time></trkpt><trkpt lat="42.2482037" lon="12.5114033"><ele>271.0</ele><time>2026-05-03T11:36:57.948Z</time></trkpt><trkpt lat="42.2481015" lon="12.5114392"><ele>271.0</ele><time>2026-05-03T11:36:59.946Z</time></trkpt><trkpt lat="42.2479936" lon="12.5114834"><ele>271.0</ele><time>2026-05-03T11:37:01.944Z</time></trkpt><trkpt lat="42.2479103" lon="12.5114759"><ele>273.0</ele><time>2026-05-03T11:37:03.95Z</time></trkpt><trkpt lat="42.2478466" lon="12.5114068"><ele>275.0</ele><time>2026-05-03T11:37:05.946Z</time></trkpt><trkpt lat="42.2478361" lon="12.5112731"><ele>277.0</ele><time>2026-05-03T11:37:07.943Z</time></trkpt><trkpt lat="42.2479011" lon="12.5111079"><ele>279.0</ele><time>2026-05-03T11:37:09.938Z</time></trkpt><trkpt lat="42.2479502" lon="12.5109973"><ele>281.0</ele><time>2026-05-03T11:37:10.963Z</time></trkpt><trkpt lat="42.2480001" lon="12.5108636"><ele>284.5</ele><time>2026-05-03T11:37:11.958Z</time></trkpt><trkpt lat="42.248056" lon="12.5106997"><ele>288.0</ele><time>2026-05-03T11:37:12.96Z</time></trkpt><trkpt lat="42.2481131" lon="12.5105293"><ele>291.5</ele><time>2026-05-03T11:37:13.941Z</time></trkpt><trkpt lat="42.2481529" lon="12.5103999"><ele>295.0</ele><time>2026-05-03T11:37:14.95Z</time></trkpt><trkpt lat="42.2481892" lon="12.5102869"><ele>295.75</ele><time>2026-05-03T11:37:16.101Z</time></trkpt><trkpt lat="42.2482227" lon="12.5100361"><ele>296.5</ele><time>2026-05-03T11:37:17.949Z</time></trkpt><trkpt lat="42.2482021" lon="12.5098934"><ele>297.25</ele><time>2026-05-03T11:37:18.938Z</time></trkpt><trkpt lat="42.2481837" lon="12.5097845"><ele>298.0</ele><time>2026-05-03T11:37:19.941Z</time></trkpt><trkpt lat="42.2481792" lon="12.5096828"><ele>302.0</ele><time>2026-05-03T11:37:20.94Z</time></trkpt><trkpt lat="42.2481954" lon="12.5095457"><ele>306.0</ele><time>2026-05-03T11:37:22.932Z</time></trkpt><trkpt lat="42.2482706" lon="12.509476"><ele>310.0</ele><time>2026-05-03T11:37:24.935Z</time></trkpt><trkpt lat="42.2483944" lon="12.5094358"><ele>314.0</ele><time>2026-05-03T11:37:26.939Z</time></trkpt><trkpt lat="42.2484784" lon="12.5094176"><ele>318.0</ele><time>2026-05-03T11:37:27.944Z</time></trkpt><trkpt lat="42.2485653" lon="12.509397"><ele>318.0</ele><time>2026-05-03T11:37:28.934Z</time></trkpt><trkpt lat="42.2486428" lon="12.5093746"><ele>318.0</ele><time>2026-05-03T11:37:29.946Z</time></trkpt><trkpt lat="42.2487474" lon="12.5093137"><ele>318.0</ele><time>2026-05-03T11:37:31.941Z</time></trkpt><trkpt lat="42.2486924" lon="12.5093613"><ele>318.0</ele><time>2026-05-03T11:38:11.94Z</time></trkpt><trkpt lat="42.2486356" lon="12.5094124"><ele>318.0</ele><time>2026-05-03T11:38:15.925Z</time></trkpt><trkpt lat="42.2485525" lon="12.5094341"><ele>318.0</ele><time>2026-05-03T11:38:17.935Z</time></trkpt><trkpt lat="42.2484609" lon="12.509467"><ele>318.0</ele><time>2026-05-03T11:38:19.927Z</time></trkpt><trkpt lat="42.2484007" lon="12.5094925"><ele>318.0</ele><time>2026-05-03T11:38:20.936Z</time></trkpt><trkpt lat="42.2483062" lon="12.5095367"><ele>318.0</ele><time>2026-05-03T11:38:22.933Z</time></trkpt><trkpt lat="42.2482319" lon="12.5095831"><ele>318.0</ele><time>2026-05-03T11:38:24.935Z</time></trkpt><trkpt lat="42.2481634" lon="12.5096499"><ele>318.0</ele><time>2026-05-03T11:38:27.928Z</time></trkpt><trkpt lat="42.2481091" lon="12.5097011"><ele>318.0</ele><time>2026-05-03T11:40:14.942Z</time></trkpt><trkpt lat="42.2480507" lon="12.5097364"><ele>313.0</ele><time>2026-05-03T11:40:59.952Z</time></trkpt><trkpt lat="42.2479945" lon="12.5097799"><ele>313.0</ele><time>2026-05-03T11:41:16.94Z</time></trkpt><trkpt lat="42.2479221" lon="12.5098125"><ele>313.0</ele><time>2026-05-03T11:41:27.948Z</time></trkpt><trkpt lat="42.2478572" lon="12.5098575"><ele>313.0</ele><time>2026-05-03T11:42:39.944Z</time></trkpt><trkpt lat="42.2477918" lon="12.5098982"><ele>313.0</ele><time>2026-05-03T11:42:52.942Z</time></trkpt><trkpt lat="42.2477299" lon="12.5099451"><ele>313.0</ele><time>2026-05-03T11:43:04.947Z</time></trkpt></trkseg><trkseg><trkpt lat="42.2476856" lon="12.5105317"><ele>295.0</ele><time>2026-05-03T12:00:02.953Z</time></trkpt><trkpt lat="42.2477052" lon="12.5106137"><ele>295.0</ele><time>2026-05-03T12:00:05.952Z</time></trkpt><trkpt lat="42.2477183" lon="12.5106995"><ele>295.0</ele><time>2026-05-03T12:00:07.937Z</time></trkpt><trkpt lat="42.2477003" lon="12.5108268"><ele>295.0</ele><time>2026-05-03T12:00:09.936Z</time></trkpt><trkpt lat="42.2476685" lon="12.5109812"><ele>295.0</ele><time>2026-05-03T12:00:11.939Z</time></trkpt><trkpt lat="42.2476555" lon="12.5110786"><ele>295.0</ele><time>2026-05-03T12:00:12.945Z</time></trkpt><trkpt lat="42.2476372" lon="12.5112475"><ele>292.66666666666663</ele><time>2026-05-03T12:00:14.937Z</time></trkpt><trkpt lat="42.2476504" lon="12.5113634"><ele>290.3333333333333</ele><time>2026-05-03T12:00:16.969Z</time></trkpt><trkpt lat="42.2477332" lon="12.5114414"><ele>288.0</ele><time>2026-05-03T12:00:18.957Z</time></trkpt><trkpt lat="42.2478082" lon="12.511464"><ele>285.6666666666667</ele><time>2026-05-03T12:00:19.946Z</time></trkpt><trkpt lat="42.247884" lon="12.5114814"><ele>283.33333333333337</ele><time>2026-05-03T12:00:20.946Z</time></trkpt><trkpt lat="42.2479725" lon="12.5114693"><ele>281.0</ele><time>2026-05-03T12:00:21.943Z</time></trkpt><trkpt lat="42.2480851" lon="12.5114374"><ele>279.0</ele><time>2026-05-03T12:00:22.943Z</time></trkpt><trkpt lat="42.2482048" lon="12.5113865"><ele>277.0</ele><time>2026-05-03T12:00:23.944Z</time></trkpt><trkpt lat="42.2482982" lon="12.5113662"><ele>275.0</ele><time>2026-05-03T12:00:24.942Z</time></trkpt><trkpt lat="42.2483707" lon="12.5113462"><ele>273.0</ele><time>2026-05-03T12:00:25.939Z</time></trkpt><trkpt lat="42.2484494" lon="12.5113414"><ele>271.0</ele><time>2026-05-03T12:00:26.947Z</time></trkpt><trkpt lat="42.248567" lon="12.5112746"><ele>271.0</ele><time>2026-05-03T12:00:28.94Z</time></trkpt><trkpt lat="42.2486236" lon="12.5112339"><ele>271.0</ele><time>2026-05-03T12:00:29.946Z</time></trkpt><trkpt lat="42.2487159" lon="12.5111742"><ele>271.0</ele><time>2026-05-03T12:00:31.96Z</time></trkpt><trkpt lat="42.2487874" lon="12.5111777"><ele>271.0</ele><time>2026-05-03T12:00:33.968Z</time></trkpt><trkpt lat="42.2487604" lon="12.5112954"><ele>271.0</ele><time>2026-05-03T12:00:37.94Z</time></trkpt><trkpt lat="42.2487343" lon="12.5113747"><ele>271.0</ele><time>2026-05-03T12:00:38.948Z</time></trkpt><trkpt lat="42.2487025" lon="12.511472"><ele>271.0</ele><time>2026-05-03T12:00:39.942Z</time></trkpt><trkpt lat="42.2486782" lon="12.5115745"><ele>271.0</ele><time>2026-05-03T12:00:40.954Z</time></trkpt><trkpt lat="42.2486655" lon="12.5116759"><ele>271.0</ele><time>2026-05-03T12:00:41.935Z</time></trkpt><trkpt lat="42.248645" lon="12.5117775"><ele>271.0</ele><time>2026-05-03T12:00:43.949Z</time></trkpt><trkpt lat="42.2486308" lon="12.5118812"><ele>271.0</ele><time>2026-05-03T12:00:45.957Z</time></trkpt><trkpt lat="42.2486348" lon="12.5120383"><ele>271.0</ele><time>2026-05-03T12:00:47.95Z</time></trkpt><trkpt lat="42.248634" lon="12.5121373"><ele>268.16666666666663</ele><time>2026-05-03T12:00:48.956Z</time></trkpt><trkpt lat="42.2486328" lon="12.5122415"><ele>265.3333333333333</ele><time>2026-05-03T12:00:49.955Z</time></trkpt><trkpt lat="42.2486305" lon="12.5123437"><ele>262.5</ele><time>2026-05-03T12:00:50.951Z</time></trkpt><trkpt lat="42.2486263" lon="12.5124527"><ele>259.6666666666667</ele><time>2026-05-03T12:00:51.957Z</time></trkpt><trkpt lat="42.2486158" lon="12.5125569"><ele>256.83333333333337</ele><time>2026-05-03T12:00:52.949Z</time></trkpt><trkpt lat="42.2485932" lon="12.5126525"><ele>254.0</ele><time>2026-05-03T12:00:53.939Z</time></trkpt><trkpt lat="42.2485584" lon="12.5127426"><ele>254.00000000000003</ele><time>2026-05-03T12:00:54.955Z</time></trkpt><trkpt lat="42.2485111" lon="12.5128274"><ele>254.0</ele><time>2026-05-03T12:00:55.955Z</time></trkpt><trkpt lat="42.2484543" lon="12.5129119"><ele>254.0</ele><time>2026-05-03T12:00:56.947Z</time></trkpt><trkpt lat="42.2483986" lon="12.5130077"><ele>254.0</ele><time>2026-05-03T12:00:57.947Z</time></trkpt><trkpt lat="42.248352" lon="12.5131056"><ele>254.00000000000003</ele><time>2026-05-03T12:00:58.952Z</time></trkpt><trkpt lat="42.2483097" lon="12.5131956"><ele>254.0</ele><time>2026-05-03T12:00:59.957Z</time></trkpt><trkpt lat="42.2482683" lon="12.5132807"><ele>252.33333333333334</ele><time>2026-05-03T12:01:00.95Z</time></trkpt><trkpt lat="42.2482336" lon="12.5133543"><ele>250.66666666666669</ele><time>2026-05-03T12:01:01.951Z</time></trkpt><trkpt lat="42.2481967" lon="12.5134355"><ele>249.0</ele><time>2026-05-03T12:01:02.946Z</time></trkpt><trkpt lat="42.2481573" lon="12.5135147"><ele>247.33333333333331</ele><time>2026-05-03T12:01:03.954Z</time></trkpt><trkpt lat="42.2481191" lon="12.5135875"><ele>245.66666666666666</ele><time>2026-05-03T12:01:04.948Z</time></trkpt><trkpt lat="42.2480821" lon="12.513661"><ele>244.0</ele><time>2026-05-03T12:01:05.946Z</time></trkpt><trkpt lat="42.2480263" lon="12.5137971"><ele>239.5</ele><time>2026-05-03T12:01:07.954Z</time></trkpt><trkpt lat="42.2479577" lon="12.513966"><ele>235.0</ele><time>2026-05-03T12:01:09.942Z</time></trkpt><trkpt lat="42.2479256" lon="12.5140906"><ele>230.5</ele><time>2026-05-03T12:01:10.945Z</time></trkpt><trkpt lat="42.2478915" lon="12.5142322"><ele>226.0</ele><time>2026-05-03T12:01:11.944Z</time></trkpt><trkpt lat="42.2478551" lon="12.5143614"><ele>225.99999999999997</ele><time>2026-05-03T12:01:12.946Z</time></trkpt><trkpt lat="42.2478261" lon="12.5144724"><ele>226.0</ele><time>2026-05-03T12:01:13.948Z</time></trkpt><trkpt lat="42.2478028" lon="12.5145653"><ele>226.0</ele><time>2026-05-03T12:01:14.947Z</time></trkpt><trkpt lat="42.2477838" lon="12.5146467"><ele>226.0</ele><time>2026-05-03T12:01:15.946Z</time></trkpt><trkpt lat="42.2477363" lon="12.5147308"><ele>225.99999999999997</ele><time>2026-05-03T12:01:17.975Z</time></trkpt><trkpt lat="42.2476655" lon="12.5147652"><ele>226.0</ele><time>2026-05-03T12:01:19.949Z</time></trkpt><trkpt lat="42.2475712" lon="12.5147359"><ele>226.0</ele><time>2026-05-03T12:01:21.95Z</time></trkpt><trkpt lat="42.2474877" lon="12.5146287"><ele>226.00000000000003</ele><time>2026-05-03T12:01:23.943Z</time></trkpt><trkpt lat="42.2473766" lon="12.5145346"><ele>226.00000000000003</ele><time>2026-05-03T12:01:25.937Z</time></trkpt><trkpt lat="42.2472848" lon="12.5144769"><ele>226.0</ele><time>2026-05-03T12:01:26.931Z</time></trkpt><trkpt lat="42.2471951" lon="12.5144388"><ele>226.0</ele><time>2026-05-03T12:01:27.947Z</time></trkpt><trkpt lat="42.247107" lon="12.5144222"><ele>226.66666666666666</ele><time>2026-05-03T12:01:28.939Z</time></trkpt><trkpt lat="42.2470109" lon="12.5143994"><ele>227.33333333333331</ele><time>2026-05-03T12:01:29.934Z</time></trkpt><trkpt lat="42.2469316" lon="12.5144024"><ele>228.0</ele><time>2026-05-03T12:01:30.932Z</time></trkpt><trkpt lat="42.2468545" lon="12.5144343"><ele>228.66666666666669</ele><time>2026-05-03T12:01:31.932Z</time></trkpt><trkpt lat="42.2467958" lon="12.5144907"><ele>229.33333333333334</ele><time>2026-05-03T12:01:32.93Z</time></trkpt><trkpt lat="42.2467531" lon="12.5145741"><ele>230.0</ele><time>2026-05-03T12:01:33.934Z</time></trkpt><trkpt lat="42.2467098" lon="12.5146672"><ele>226.16666666666669</ele><time>2026-05-03T12:01:34.925Z</time></trkpt><trkpt lat="42.2466804" lon="12.5147775"><ele>222.33333333333334</ele><time>2026-05-03T12:01:35.937Z</time></trkpt><trkpt lat="42.246646" lon="12.5148897"><ele>218.5</ele><time>2026-05-03T12:01:36.931Z</time></trkpt><trkpt lat="42.2466121" lon="12.5150099"><ele>214.66666666666669</ele><time>2026-05-03T12:01:37.93Z</time></trkpt><trkpt lat="42.2465901" lon="12.5151222"><ele>210.83333333333334</ele><time>2026-05-03T12:01:38.934Z</time></trkpt><trkpt lat="42.2465632" lon="12.5152243"><ele>207.0</ele><time>2026-05-03T12:01:39.934Z</time></trkpt><trkpt lat="42.2465296" lon="12.5153192"><ele>206.16666666666666</ele><time>2026-05-03T12:01:40.942Z</time></trkpt><trkpt lat="42.2464911" lon="12.5154192"><ele>205.33333333333331</ele><time>2026-05-03T12:01:41.929Z</time></trkpt><trkpt lat="42.2464582" lon="12.5155185"><ele>204.5</ele><time>2026-05-03T12:01:42.938Z</time></trkpt><trkpt lat="42.2464224" lon="12.5156095"><ele>203.66666666666666</ele><time>2026-05-03T12:01:43.939Z</time></trkpt><trkpt lat="42.2463783" lon="12.5156933"><ele>202.83333333333331</ele><time>2026-05-03T12:01:44.936Z</time></trkpt><trkpt lat="42.2463264" lon="12.5157595"><ele>202.0</ele><time>2026-05-03T12:01:46.015Z</time></trkpt><trkpt lat="42.2462722" lon="12.5158181"><ele>202.0</ele><time>2026-05-03T12:01:46.962Z</time></trkpt><trkpt lat="42.2462058" lon="12.5158622"><ele>202.0</ele><time>2026-05-03T12:01:47.95Z</time></trkpt><trkpt lat="42.2461228" lon="12.515888"><ele>202.0</ele><time>2026-05-03T12:01:48.934Z</time></trkpt><trkpt lat="42.2460085" lon="12.5159107"><ele>202.0</ele><time>2026-05-03T12:01:49.928Z</time></trkpt><trkpt lat="42.2458987" lon="12.515955"><ele>202.0</ele><time>2026-05-03T12:01:50.936Z</time></trkpt><trkpt lat="42.2458003" lon="12.5159979"><ele>202.0</ele><time>2026-05-03T12:01:51.936Z</time></trkpt><trkpt lat="42.2457131" lon="12.5160516"><ele>202.0</ele><time>2026-05-03T12:01:52.932Z</time></trkpt><trkpt lat="42.2456323" lon="12.5160974"><ele>202.0</ele><time>2026-05-03T12:01:53.93Z</time></trkpt><trkpt lat="42.245552" lon="12.5161754"><ele>202.0</ele><time>2026-05-03T12:01:54.935Z</time></trkpt><trkpt lat="42.2454833" lon="12.5162466"><ele>202.0</ele><time>2026-05-03T12:01:55.932Z</time></trkpt><trkpt lat="42.2454214" lon="12.5163453"><ele>204.16666666666666</ele><time>2026-05-03T12:01:56.929Z</time></trkpt><trkpt lat="42.2453726" lon="12.5164405"><ele>206.33333333333331</ele><time>2026-05-03T12:01:57.929Z</time></trkpt><trkpt lat="42.2453497" lon="12.5165431"><ele>208.5</ele><time>2026-05-03T12:01:58.93Z</time></trkpt><trkpt lat="42.2453154" lon="12.5166295"><ele>210.66666666666669</ele><time>2026-05-03T12:01:59.927Z</time></trkpt><trkpt lat="42.2452384" lon="12.5167351"><ele>212.83333333333334</ele><time>2026-05-03T12:02:01.932Z</time></trkpt><trkpt lat="42.2451819" lon="12.5167842"><ele>215.0</ele><time>2026-05-03T12:02:02.933Z</time></trkpt><trkpt lat="42.2451057" lon="12.5168691"><ele>215.00000000000003</ele><time>2026-05-03T12:02:03.93Z</time></trkpt><trkpt lat="42.2450327" lon="12.516959"><ele>215.0</ele><time>2026-05-03T12:02:04.931Z</time></trkpt><trkpt lat="42.2449776" lon="12.5170599"><ele>215.0</ele><time>2026-05-03T12:02:05.936Z</time></trkpt><trkpt lat="42.2449432" lon="12.517146"><ele>215.0</ele><time>2026-05-03T12:02:06.937Z</time></trkpt><trkpt lat="42.2448962" lon="12.5172206"><ele>215.00000000000003</ele><time>2026-05-03T12:02:07.939Z</time></trkpt><trkpt lat="42.2448349" lon="12.5172723"><ele>215.0</ele><time>2026-05-03T12:02:08.94Z</time></trkpt><trkpt lat="42.2447689" lon="12.5173053"><ele>215.2</ele><time>2026-05-03T12:02:09.961Z</time></trkpt><trkpt lat="42.2446483" lon="12.5173291"><ele>215.4</ele><time>2026-05-03T12:02:11.936Z</time></trkpt><trkpt lat="42.2445851" lon="12.5173379"><ele>215.60000000000002</ele><time>2026-05-03T12:02:12.932Z</time></trkpt><trkpt lat="42.2444678" lon="12.5173701"><ele>215.8</ele><time>2026-05-03T12:02:14.947Z</time></trkpt><trkpt lat="42.2443953" lon="12.5173868"><ele>216.0</ele><time>2026-05-03T12:02:15.934Z</time></trkpt><trkpt lat="42.2443103" lon="12.5173892"><ele>216.0</ele><time>2026-05-03T12:02:16.943Z</time></trkpt><trkpt lat="42.2442292" lon="12.5173834"><ele>216.0</ele><time>2026-05-03T12:02:17.942Z</time></trkpt><trkpt lat="42.2441586" lon="12.5173863"><ele>216.0</ele><time>2026-05-03T12:02:18.932Z</time></trkpt><trkpt lat="42.2440982" lon="12.5174127"><ele>216.0</ele><time>2026-05-03T12:02:19.936Z</time></trkpt><trkpt lat="42.2440401" lon="12.5174637"><ele>216.0</ele><time>2026-05-03T12:02:20.943Z</time></trkpt><trkpt lat="42.2439877" lon="12.5175419"><ele>216.0</ele><time>2026-05-03T12:02:21.955Z</time></trkpt><trkpt lat="42.2439299" lon="12.5176449"><ele>214.83333333333334</ele><time>2026-05-03T12:02:22.952Z</time></trkpt><trkpt lat="42.2438816" lon="12.5177347"><ele>213.66666666666669</ele><time>2026-05-03T12:02:23.955Z</time></trkpt><trkpt lat="42.2438285" lon="12.5178124"><ele>212.5</ele><time>2026-05-03T12:02:24.984Z</time></trkpt><trkpt lat="42.2437766" lon="12.5178832"><ele>211.33333333333334</ele><time>2026-05-03T12:02:25.986Z</time></trkpt><trkpt lat="42.2437225" lon="12.5179488"><ele>210.16666666666669</ele><time>2026-05-03T12:02:26.983Z</time></trkpt><trkpt lat="42.2436684" lon="12.5180113"><ele>209.0</ele><time>2026-05-03T12:02:27.961Z</time></trkpt><trkpt lat="42.2436117" lon="12.5180926"><ele>209.0</ele><time>2026-05-03T12:02:28.968Z</time></trkpt><trkpt lat="42.2435571" lon="12.5181827"><ele>209.0</ele><time>2026-05-03T12:02:29.964Z</time></trkpt><trkpt lat="42.243501" lon="12.5182819"><ele>209.0</ele><time>2026-05-03T12:02:30.963Z</time></trkpt><trkpt lat="42.2434449" lon="12.5183813"><ele>209.0</ele><time>2026-05-03T12:02:31.961Z</time></trkpt><trkpt lat="42.2433888" lon="12.5184908"><ele>209.0</ele><time>2026-05-03T12:02:32.963Z</time></trkpt><trkpt lat="42.2433399" lon="12.518596"><ele>209.00000000000003</ele><time>2026-05-03T12:02:33.964Z</time></trkpt><trkpt lat="42.2432955" lon="12.5186996"><ele>209.0</ele><time>2026-05-03T12:02:34.961Z</time></trkpt><trkpt lat="42.2432499" lon="12.5187876"><ele>209.0</ele><time>2026-05-03T12:02:35.954Z</time></trkpt><trkpt lat="42.2431991" lon="12.5188517"><ele>209.0</ele><time>2026-05-03T12:02:36.953Z</time></trkpt><trkpt lat="42.2431349" lon="12.5189067"><ele>209.00000000000003</ele><time>2026-05-03T12:02:37.949Z</time></trkpt><trkpt lat="42.2430664" lon="12.5189517"><ele>209.0</ele><time>2026-05-03T12:02:38.949Z</time></trkpt><trkpt lat="42.2430015" lon="12.5189895"><ele>210.2</ele><time>2026-05-03T12:02:39.942Z</time></trkpt><trkpt lat="42.2428937" lon="12.5190576"><ele>211.39999999999998</ele><time>2026-05-03T12:02:41.947Z</time></trkpt><trkpt lat="42.2428007" lon="12.5191359"><ele>212.6</ele><time>2026-05-03T12:02:43.975Z</time></trkpt><trkpt lat="42.2427445" lon="12.5192515"><ele>213.8</ele><time>2026-05-03T12:02:45.936Z</time></trkpt><trkpt lat="42.242704" lon="12.5193969"><ele>215.0</ele><time>2026-05-03T12:02:47.944Z</time></trkpt><trkpt lat="42.2426947" lon="12.5194949"><ele>211.0</ele><time>2026-05-03T12:02:48.939Z</time></trkpt><trkpt lat="42.2427095" lon="12.519609"><ele>207.0</ele><time>2026-05-03T12:02:50.108Z</time></trkpt><trkpt lat="42.24272" lon="12.5198196"><ele>203.0</ele><time>2026-05-03T12:02:51.948Z</time></trkpt><trkpt lat="42.2427094" lon="12.5199217"><ele>199.0</ele><time>2026-05-03T12:02:52.934Z</time></trkpt><trkpt lat="42.2426999" lon="12.5200074"><ele>195.0</ele><time>2026-05-03T12:02:53.941Z</time></trkpt><trkpt lat="42.2426757" lon="12.5201482"><ele>195.0</ele><time>2026-05-03T12:02:55.948Z</time></trkpt><trkpt lat="42.2425633" lon="12.5203109"><ele>195.0</ele><time>2026-05-03T12:02:57.956Z</time></trkpt><trkpt lat="42.2424986" lon="12.5204278"><ele>195.0</ele><time>2026-05-03T12:02:58.938Z</time></trkpt><trkpt lat="42.2424486" lon="12.5205305"><ele>195.0</ele><time>2026-05-03T12:02:59.955Z</time></trkpt><trkpt lat="42.2424044" lon="12.5206396"><ele>196.2</ele><time>2026-05-03T12:03:00.946Z</time></trkpt><trkpt lat="42.2423585" lon="12.5207271"><ele>197.4</ele><time>2026-05-03T12:03:01.944Z</time></trkpt><trkpt lat="42.2423132" lon="12.5208197"><ele>198.60000000000002</ele><time>2026-05-03T12:03:02.934Z</time></trkpt><trkpt lat="42.2422339" lon="12.5208928"><ele>199.8</ele><time>2026-05-03T12:03:03.939Z</time></trkpt><trkpt lat="42.2421342" lon="12.5209508"><ele>201.0</ele><time>2026-05-03T12:03:04.926Z</time></trkpt><trkpt lat="42.2420589" lon="12.521014"><ele>201.0</ele><time>2026-05-03T12:03:05.93Z</time></trkpt><trkpt lat="42.2419787" lon="12.5210716"><ele>201.0</ele><time>2026-05-03T12:03:06.929Z</time></trkpt><trkpt lat="42.2418961" lon="12.5211555"><ele>201.0</ele><time>2026-05-03T12:03:07.941Z</time></trkpt><trkpt lat="42.2418147" lon="12.521317"><ele>201.0</ele><time>2026-05-03T12:03:08.944Z</time></trkpt><trkpt lat="42.2417308" lon="12.5214715"><ele>199.5</ele><time>2026-05-03T12:03:09.939Z</time></trkpt><trkpt lat="42.2416463" lon="12.5216017"><ele>198.0</ele><time>2026-05-03T12:03:10.938Z</time></trkpt><trkpt lat="42.2415536" lon="12.5217194"><ele>196.5</ele><time>2026-05-03T12:03:11.943Z</time></trkpt><trkpt lat="42.241464" lon="12.5218403"><ele>195.0</ele><time>2026-05-03T12:03:12.943Z</time></trkpt><trkpt lat="42.2413909" lon="12.5218963"><ele>195.0</ele><time>2026-05-03T12:03:13.943Z</time></trkpt><trkpt lat="42.2413108" lon="12.5219318"><ele>195.0</ele><time>2026-05-03T12:03:14.945Z</time></trkpt><trkpt lat="42.2412386" lon="12.5219639"><ele>195.0</ele><time>2026-05-03T12:03:15.948Z</time></trkpt><trkpt lat="42.2411603" lon="12.522015"><ele>195.0</ele><time>2026-05-03T12:03:16.97Z</time></trkpt><trkpt lat="42.2410679" lon="12.5220645"><ele>195.0</ele><time>2026-05-03T12:03:17.966Z</time></trkpt><trkpt lat="42.2409729" lon="12.5221195"><ele>191.6</ele><time>2026-05-03T12:03:18.96Z</time></trkpt><trkpt lat="42.2408813" lon="12.5221702"><ele>188.2</ele><time>2026-05-03T12:03:19.939Z</time></trkpt><trkpt lat="42.2407869" lon="12.5222211"><ele>184.8</ele><time>2026-05-03T12:03:20.944Z</time></trkpt><trkpt lat="42.2406992" lon="12.5222615"><ele>181.4</ele><time>2026-05-03T12:03:21.936Z</time></trkpt><trkpt lat="42.2405954" lon="12.5222725"><ele>178.0</ele><time>2026-05-03T12:03:22.933Z</time></trkpt><trkpt lat="42.2404984" lon="12.5222591"><ele>178.0</ele><time>2026-05-03T12:03:23.952Z</time></trkpt><trkpt lat="42.2403961" lon="12.5222439"><ele>178.0</ele><time>2026-05-03T12:03:24.944Z</time></trkpt><trkpt lat="42.240306" lon="12.5222321"><ele>178.0</ele><time>2026-05-03T12:03:25.942Z</time></trkpt><trkpt lat="42.2402186" lon="12.5222192"><ele>178.0</ele><time>2026-05-03T12:03:26.948Z</time></trkpt><trkpt lat="42.2401253" lon="12.5221831"><ele>178.0</ele><time>2026-05-03T12:03:27.941Z</time></trkpt><trkpt lat="42.2400419" lon="12.5221319"><ele>178.0</ele><time>2026-05-03T12:03:28.951Z</time></trkpt><trkpt lat="42.2399582" lon="12.5220694"><ele>178.0</ele><time>2026-05-03T12:03:29.942Z</time></trkpt><trkpt lat="42.2398732" lon="12.5220257"><ele>178.0</ele><time>2026-05-03T12:03:30.952Z</time></trkpt><trkpt lat="42.2398021" lon="12.5220059"><ele>178.0</ele><time>2026-05-03T12:03:31.942Z</time></trkpt><trkpt lat="42.2397312" lon="12.5219945"><ele>178.0</ele><time>2026-05-03T12:03:32.945Z</time></trkpt><trkpt lat="42.2396586" lon="12.5219963"><ele>178.0</ele><time>2026-05-03T12:03:33.959Z</time></trkpt><trkpt lat="42.2395729" lon="12.5220067"><ele>180.16666666666669</ele><time>2026-05-03T12:03:34.945Z</time></trkpt><trkpt lat="42.2394774" lon="12.5220399"><ele>182.33333333333334</ele><time>2026-05-03T12:03:35.947Z</time></trkpt><trkpt lat="42.2394165" lon="12.522085"><ele>184.5</ele><time>2026-05-03T12:03:36.953Z</time></trkpt><trkpt lat="42.2393792" lon="12.5221668"><ele>186.66666666666666</ele><time>2026-05-03T12:03:37.95Z</time></trkpt><trkpt lat="42.239375" lon="12.5222719"><ele>188.83333333333331</ele><time>2026-05-03T12:03:38.945Z</time></trkpt><trkpt lat="42.2393668" lon="12.5223997"><ele>191.0</ele><time>2026-05-03T12:03:39.942Z</time></trkpt><trkpt lat="42.2393613" lon="12.5225327"><ele>191.0</ele><time>2026-05-03T12:03:40.953Z</time></trkpt><trkpt lat="42.2393716" lon="12.5226676"><ele>191.0</ele><time>2026-05-03T12:03:41.952Z</time></trkpt><trkpt lat="42.239387" lon="12.5228053"><ele>191.0</ele><time>2026-05-03T12:03:42.947Z</time></trkpt><trkpt lat="42.2394103" lon="12.5229249"><ele>191.0</ele><time>2026-05-03T12:03:43.949Z</time></trkpt><trkpt lat="42.2394179" lon="12.5230469"><ele>191.0</ele><time>2026-05-03T12:03:44.944Z</time></trkpt><trkpt lat="42.2394164" lon="12.5231806"><ele>190.4</ele><time>2026-05-03T12:03:45.941Z</time></trkpt><trkpt lat="42.2394141" lon="12.523312"><ele>189.8</ele><time>2026-05-03T12:03:46.948Z</time></trkpt><trkpt lat="42.2394219" lon="12.5234547"><ele>189.20000000000002</ele><time>2026-05-03T12:03:47.945Z</time></trkpt><trkpt lat="42.2394515" lon="12.5235784"><ele>188.60000000000002</ele><time>2026-05-03T12:03:48.949Z</time></trkpt><trkpt lat="42.2394809" lon="12.5236786"><ele>188.0</ele><time>2026-05-03T12:03:49.936Z</time></trkpt><trkpt lat="42.2395054" lon="12.5237931"><ele>187.83333333333331</ele><time>2026-05-03T12:03:50.954Z</time></trkpt><trkpt lat="42.2395017" lon="12.5239047"><ele>187.66666666666666</ele><time>2026-05-03T12:03:51.954Z</time></trkpt><trkpt lat="42.2394816" lon="12.5240084"><ele>187.5</ele><time>2026-05-03T12:03:52.949Z</time></trkpt><trkpt lat="42.2394583" lon="12.5241024"><ele>187.33333333333334</ele><time>2026-05-03T12:03:53.953Z</time></trkpt><trkpt lat="42.2394248" lon="12.5241951"><ele>187.16666666666669</ele><time>2026-05-03T12:03:54.957Z</time></trkpt><trkpt lat="42.2393888" lon="12.5242981"><ele>187.0</ele><time>2026-05-03T12:03:55.935Z</time></trkpt><trkpt lat="42.2393665" lon="12.5244194"><ele>187.0</ele><time>2026-05-03T12:03:56.946Z</time></trkpt><trkpt lat="42.2393443" lon="12.5245271"><ele>187.0</ele><time>2026-05-03T12:03:57.947Z</time></trkpt><trkpt lat="42.2393344" lon="12.5246436"><ele>187.0</ele><time>2026-05-03T12:03:58.947Z</time></trkpt><trkpt lat="42.2393011" lon="12.5247611"><ele>187.0</ele><time>2026-05-03T12:04:00.024Z</time></trkpt><trkpt lat="42.2392686" lon="12.5248794"><ele>187.0</ele><time>2026-05-03T12:04:01.105Z</time></trkpt><trkpt lat="42.239217" lon="12.5249825"><ele>187.0</ele><time>2026-05-03T12:04:02.102Z</time></trkpt><trkpt lat="42.2391066" lon="12.5251095"><ele>186.2</ele><time>2026-05-03T12:04:03.948Z</time></trkpt><trkpt lat="42.2390571" lon="12.5251933"><ele>185.39999999999998</ele><time>2026-05-03T12:04:05.947Z</time></trkpt><trkpt lat="42.2390741" lon="12.5253714"><ele>184.60000000000002</ele><time>2026-05-03T12:04:07.944Z</time></trkpt><trkpt lat="42.2391027" lon="12.5254767"><ele>183.8</ele><time>2026-05-03T12:04:08.947Z</time></trkpt><trkpt lat="42.2391186" lon="12.5256015"><ele>183.0</ele><time>2026-05-03T12:04:09.938Z</time></trkpt><trkpt lat="42.2391022" lon="12.5257392"><ele>181.60000000000002</ele><time>2026-05-03T12:04:10.943Z</time></trkpt><trkpt lat="42.2390932" lon="12.525888"><ele>180.20000000000002</ele><time>2026-05-03T12:04:11.944Z</time></trkpt><trkpt lat="42.2390869" lon="12.5260196"><ele>178.8</ele><time>2026-05-03T12:04:12.949Z</time></trkpt><trkpt lat="42.239087" lon="12.526139"><ele>177.4</ele><time>2026-05-03T12:04:13.949Z</time></trkpt><trkpt lat="42.2390862" lon="12.5262658"><ele>176.0</ele><time>2026-05-03T12:04:14.962Z</time></trkpt><trkpt lat="42.2390815" lon="12.5263866"><ele>175.66666666666666</ele><time>2026-05-03T12:04:15.942Z</time></trkpt><trkpt lat="42.2390812" lon="12.5264918"><ele>175.33333333333331</ele><time>2026-05-03T12:04:16.934Z</time></trkpt><trkpt lat="42.2390711" lon="12.5266021"><ele>175.0</ele><time>2026-05-03T12:04:17.951Z</time></trkpt><trkpt lat="42.2390707" lon="12.5267103"><ele>174.66666666666666</ele><time>2026-05-03T12:04:18.944Z</time></trkpt><trkpt lat="42.2390657" lon="12.526813"><ele>174.33333333333334</ele><time>2026-05-03T12:04:19.948Z</time></trkpt><trkpt lat="42.2390536" lon="12.5269096"><ele>174.0</ele><time>2026-05-03T12:04:20.946Z</time></trkpt><trkpt lat="42.2390413" lon="12.5270016"><ele>174.0</ele><time>2026-05-03T12:04:21.958Z</time></trkpt><trkpt lat="42.2390233" lon="12.5270879"><ele>174.0</ele><time>2026-05-03T12:04:22.947Z</time></trkpt><trkpt lat="42.2389976" lon="12.5271669"><ele>174.0</ele><time>2026-05-03T12:04:23.95Z</time></trkpt><trkpt lat="42.2389356" lon="12.527282"><ele>174.0</ele><time>2026-05-03T12:04:25.954Z</time></trkpt><trkpt lat="42.2390255" lon="12.5272393"><ele>174.0</ele><time>2026-05-03T12:04:28.943Z</time></trkpt><trkpt lat="42.2390886" lon="12.5272319"><ele>174.0</ele><time>2026-05-03T12:04:29.95Z</time></trkpt><trkpt lat="42.2391504" lon="12.5272623"><ele>172.6</ele><time>2026-05-03T12:04:30.967Z</time></trkpt><trkpt lat="42.2392271" lon="12.5273126"><ele>171.2</ele><time>2026-05-03T12:04:31.94Z</time></trkpt><trkpt lat="42.2393168" lon="12.5273675"><ele>169.79999999999998</ele><time>2026-05-03T12:04:32.948Z</time></trkpt><trkpt lat="42.2394233" lon="12.5274151"><ele>168.39999999999998</ele><time>2026-05-03T12:04:33.932Z</time></trkpt><trkpt lat="42.2395441" lon="12.527465"><ele>167.0</ele><time>2026-05-03T12:04:34.936Z</time></trkpt><trkpt lat="42.2396761" lon="12.5274923"><ele>164.33333333333331</ele><time>2026-05-03T12:04:35.943Z</time></trkpt><trkpt lat="42.2398224" lon="12.527536"><ele>161.66666666666666</ele><time>2026-05-03T12:04:36.943Z</time></trkpt><trkpt lat="42.2400217" lon="12.5275726"><ele>159.0</ele><time>2026-05-03T12:04:37.937Z</time></trkpt><trkpt lat="42.2401842" lon="12.527614"><ele>159.0</ele><time>2026-05-03T12:04:38.939Z</time></trkpt><trkpt lat="42.2403099" lon="12.5276958"><ele>159.0</ele><time>2026-05-03T12:04:39.931Z</time></trkpt><trkpt lat="42.2403896" lon="12.527732"><ele>159.0</ele><time>2026-05-03T12:04:40.938Z</time></trkpt><trkpt lat="42.240468" lon="12.5277583"><ele>159.0</ele><time>2026-05-03T12:04:41.947Z</time></trkpt><trkpt lat="42.2405346" lon="12.5277959"><ele>159.0</ele><time>2026-05-03T12:04:42.937Z</time></trkpt><trkpt lat="42.2405743" lon="12.5278648"><ele>159.0</ele><time>2026-05-03T12:04:43.942Z</time></trkpt><trkpt lat="42.2406406" lon="12.5279927"><ele>158.16666666666666</ele><time>2026-05-03T12:04:45.941Z</time></trkpt><trkpt lat="42.2407073" lon="12.5280931"><ele>157.33333333333334</ele><time>2026-05-03T12:04:47.95Z</time></trkpt><trkpt lat="42.2407615" lon="12.5281585"><ele>156.5</ele><time>2026-05-03T12:04:49.948Z</time></trkpt><trkpt lat="42.2408165" lon="12.5282225"><ele>155.66666666666669</ele><time>2026-05-03T12:04:51.954Z</time></trkpt><trkpt lat="42.2408706" lon="12.5282784"><ele>154.83333333333334</ele><time>2026-05-03T12:04:53.959Z</time></trkpt><trkpt lat="42.240923" lon="12.5283427"><ele>154.0</ele><time>2026-05-03T12:04:55.95Z</time></trkpt><trkpt lat="42.2409707" lon="12.5284277"><ele>154.0</ele><time>2026-05-03T12:04:57.939Z</time></trkpt><trkpt lat="42.2410124" lon="12.5284938"><ele>154.0</ele><time>2026-05-03T12:04:58.939Z</time></trkpt><trkpt lat="42.2410649" lon="12.5285771"><ele>154.0</ele><time>2026-05-03T12:04:59.936Z</time></trkpt><trkpt lat="42.2411244" lon="12.5286561"><ele>154.0</ele><time>2026-05-03T12:05:00.935Z</time></trkpt><trkpt lat="42.2412043" lon="12.5287332"><ele>154.0</ele><time>2026-05-03T12:05:01.936Z</time></trkpt><trkpt lat="42.2413018" lon="12.5288108"><ele>154.0</ele><time>2026-05-03T12:05:02.936Z</time></trkpt><trkpt lat="42.2413955" lon="12.5288786"><ele>152.6</ele><time>2026-05-03T12:05:03.936Z</time></trkpt><trkpt lat="42.2414721" lon="12.5289413"><ele>151.2</ele><time>2026-05-03T12:05:04.945Z</time></trkpt><trkpt lat="42.2415433" lon="12.5289981"><ele>149.79999999999998</ele><time>2026-05-03T12:05:05.939Z</time></trkpt><trkpt lat="42.241626" lon="12.5290594"><ele>148.4</ele><time>2026-05-03T12:05:06.938Z</time></trkpt><trkpt lat="42.2417292" lon="12.5291101"><ele>147.0</ele><time>2026-05-03T12:05:07.939Z</time></trkpt><trkpt lat="42.241838" lon="12.5291334"><ele>147.0</ele><time>2026-05-03T12:05:08.934Z</time></trkpt><trkpt lat="42.2419485" lon="12.5291381"><ele>147.0</ele><time>2026-05-03T12:05:09.945Z</time></trkpt><trkpt lat="42.2420681" lon="12.5291485"><ele>147.0</ele><time>2026-05-03T12:05:10.943Z</time></trkpt><trkpt lat="42.2421997" lon="12.5291783"><ele>147.0</ele><time>2026-05-03T12:05:11.943Z</time></trkpt><trkpt lat="42.2423234" lon="12.529217"><ele>147.2</ele><time>2026-05-03T12:05:12.948Z</time></trkpt><trkpt lat="42.2424364" lon="12.5292503"><ele>147.39999999999998</ele><time>2026-05-03T12:05:13.934Z</time></trkpt><trkpt lat="42.2425294" lon="12.5292879"><ele>147.60000000000002</ele><time>2026-05-03T12:05:14.937Z</time></trkpt><trkpt lat="42.2426089" lon="12.5293031"><ele>147.8</ele><time>2026-05-03T12:05:15.93Z</time></trkpt><trkpt lat="42.2426844" lon="12.5293012"><ele>148.0</ele><time>2026-05-03T12:05:16.937Z</time></trkpt><trkpt lat="42.2427792" lon="12.5292757"><ele>148.0</ele><time>2026-05-03T12:05:17.931Z</time></trkpt><trkpt lat="42.2428853" lon="12.5292186"><ele>148.0</ele><time>2026-05-03T12:05:18.932Z</time></trkpt><trkpt lat="42.2429955" lon="12.5291355"><ele>148.0</ele><time>2026-05-03T12:05:19.927Z</time></trkpt><trkpt lat="42.2431057" lon="12.5290578"><ele>148.0</ele><time>2026-05-03T12:05:20.929Z</time></trkpt><trkpt lat="42.2432215" lon="12.5290043"><ele>149.25</ele><time>2026-05-03T12:05:22.013Z</time></trkpt><trkpt lat="42.2433411" lon="12.5289628"><ele>150.5</ele><time>2026-05-03T12:05:22.934Z</time></trkpt><trkpt lat="42.2434457" lon="12.5289224"><ele>151.75</ele><time>2026-05-03T12:05:23.923Z</time></trkpt><trkpt lat="42.2435427" lon="12.5289199"><ele>153.0</ele><time>2026-05-03T12:05:25.086Z</time></trkpt><trkpt lat="42.2436829" lon="12.5289731"><ele>153.0</ele><time>2026-05-03T12:05:26.93Z</time></trkpt><trkpt lat="42.2437428" lon="12.5290033"><ele>153.0</ele><time>2026-05-03T12:05:27.934Z</time></trkpt><trkpt lat="42.2437956" lon="12.5290516"><ele>153.0</ele><time>2026-05-03T12:05:28.964Z</time></trkpt><trkpt lat="42.2438119" lon="12.5292221"><ele>153.0</ele><time>2026-05-03T12:05:30.937Z</time></trkpt><trkpt lat="42.2438099" lon="12.5293104"><ele>153.0</ele><time>2026-05-03T12:05:31.926Z</time></trkpt><trkpt lat="42.2438007" lon="12.5293996"><ele>153.0</ele><time>2026-05-03T12:05:32.931Z</time></trkpt><trkpt lat="42.2437988" lon="12.529492"><ele>154.8</ele><time>2026-05-03T12:05:33.927Z</time></trkpt><trkpt lat="42.2438146" lon="12.5296582"><ele>156.60000000000002</ele><time>2026-05-03T12:05:35.923Z</time></trkpt><trkpt lat="42.2438867" lon="12.5297329"><ele>158.39999999999998</ele><time>2026-05-03T12:05:37.928Z</time></trkpt><trkpt lat="42.2440012" lon="12.5297903"><ele>160.2</ele><time>2026-05-03T12:05:39.932Z</time></trkpt><trkpt lat="42.2440728" lon="12.5298035"><ele>162.0</ele><time>2026-05-03T12:05:40.922Z</time></trkpt><trkpt lat="42.2441412" lon="12.5297887"><ele>162.33333333333334</ele><time>2026-05-03T12:05:42.93Z</time></trkpt><trkpt lat="42.2441378" lon="12.5296908"><ele>162.66666666666666</ele><time>2026-05-03T12:05:46.932Z</time></trkpt><trkpt lat="42.2441556" lon="12.5295837"><ele>163.0</ele><time>2026-05-03T12:05:49.933Z</time></trkpt><trkpt lat="42.2442136" lon="12.5294839"><ele>163.33333333333331</ele><time>2026-05-03T12:05:51.933Z</time></trkpt><trkpt lat="42.244282" lon="12.5294708"><ele>163.66666666666666</ele><time>2026-05-03T12:06:08.93Z</time></trkpt><trkpt lat="42.2443541" lon="12.5294302"><ele>164.0</ele><time>2026-05-03T12:06:31.929Z</time></trkpt><trkpt lat="42.2444284" lon="12.529429"><ele>164.0</ele><time>2026-05-03T12:06:33.931Z</time></trkpt><trkpt lat="42.2445702" lon="12.52944"><ele>164.0</ele><time>2026-05-03T12:06:36.09Z</time></trkpt><trkpt lat="42.2446909" lon="12.5294775"><ele>164.0</ele><time>2026-05-03T12:06:37.93Z</time></trkpt><trkpt lat="42.2447392" lon="12.5295429"><ele>164.0</ele><time>2026-05-03T12:06:38.925Z</time></trkpt><trkpt lat="42.2447833" lon="12.5296194"><ele>164.0</ele><time>2026-05-03T12:06:39.934Z</time></trkpt><trkpt lat="42.2448243" lon="12.5296992"><ele>164.28571428571428</ele><time>2026-05-03T12:06:40.931Z</time></trkpt><trkpt lat="42.2448691" lon="12.5297609"><ele>164.57142857142856</ele><time>2026-05-03T12:06:41.924Z</time></trkpt><trkpt lat="42.2449217" lon="12.5298092"><ele>164.85714285714283</ele><time>2026-05-03T12:06:42.937Z</time></trkpt><trkpt lat="42.244984" lon="12.5298563"><ele>165.14285714285714</ele><time>2026-05-03T12:06:43.938Z</time></trkpt><trkpt lat="42.2450641" lon="12.5298857"><ele>165.42857142857144</ele><time>2026-05-03T12:06:44.922Z</time></trkpt><trkpt lat="42.2451419" lon="12.5298976"><ele>165.7142857142857</ele><time>2026-05-03T12:06:45.935Z</time></trkpt><trkpt lat="42.2452233" lon="12.5298995"><ele>166.0</ele><time>2026-05-03T12:06:46.933Z</time></trkpt><trkpt lat="42.2453113" lon="12.5299102"><ele>166.0</ele><time>2026-05-03T12:06:47.934Z</time></trkpt><trkpt lat="42.2453955" lon="12.5299387"><ele>166.0</ele><time>2026-05-03T12:06:48.938Z</time></trkpt><trkpt lat="42.2454806" lon="12.5299355"><ele>166.0</ele><time>2026-05-03T12:06:49.94Z</time></trkpt><trkpt lat="42.2455633" lon="12.5299308"><ele>166.0</ele><time>2026-05-03T12:06:50.937Z</time></trkpt><trkpt lat="42.2456642" lon="12.5299171"><ele>166.0</ele><time>2026-05-03T12:06:51.94Z</time></trkpt><trkpt lat="42.2457481" lon="12.5299019"><ele>166.0</ele><time>2026-05-03T12:06:52.937Z</time></trkpt><trkpt lat="42.2458249" lon="12.5298945"><ele>163.25</ele><time>2026-05-03T12:06:53.951Z</time></trkpt><trkpt lat="42.245888" lon="12.5299517"><ele>160.5</ele><time>2026-05-03T12:06:55.095Z</time></trkpt><trkpt lat="42.2460403" lon="12.5301601"><ele>157.75</ele><time>2026-05-03T12:06:56.939Z</time></trkpt><trkpt lat="42.2461111" lon="12.5302713"><ele>155.0</ele><time>2026-05-03T12:06:57.942Z</time></trkpt><trkpt lat="42.2461805" lon="12.5303753"><ele>155.75</ele><time>2026-05-03T12:06:58.936Z</time></trkpt><trkpt lat="42.2462709" lon="12.5304668"><ele>156.5</ele><time>2026-05-03T12:06:59.945Z</time></trkpt><trkpt lat="42.246386" lon="12.5305506"><ele>157.25</ele><time>2026-05-03T12:07:00.934Z</time></trkpt><trkpt lat="42.2465064" lon="12.5306133"><ele>158.0</ele><time>2026-05-03T12:07:01.94Z</time></trkpt><trkpt lat="42.2466108" lon="12.5306812"><ele>156.33333333333331</ele><time>2026-05-03T12:07:02.944Z</time></trkpt><trkpt lat="42.2467047" lon="12.5307315"><ele>154.66666666666666</ele><time>2026-05-03T12:07:03.936Z</time></trkpt><trkpt lat="42.2467885" lon="12.5307626"><ele>153.0</ele><time>2026-05-03T12:07:04.94Z</time></trkpt><trkpt lat="42.2468576" lon="12.530794"><ele>151.33333333333334</ele><time>2026-05-03T12:07:05.941Z</time></trkpt><trkpt lat="42.2469314" lon="12.5308429"><ele>149.66666666666669</ele><time>2026-05-03T12:07:06.945Z</time></trkpt><trkpt lat="42.2470153" lon="12.5309131"><ele>148.0</ele><time>2026-05-03T12:07:07.94Z</time></trkpt><trkpt lat="42.2470928" lon="12.5309882"><ele>148.0</ele><time>2026-05-03T12:07:08.942Z</time></trkpt><trkpt lat="42.2471566" lon="12.5310544"><ele>148.0</ele><time>2026-05-03T12:07:09.94Z</time></trkpt><trkpt lat="42.2472271" lon="12.5311186"><ele>148.0</ele><time>2026-05-03T12:07:10.941Z</time></trkpt><trkpt lat="42.2472856" lon="12.5312002"><ele>148.0</ele><time>2026-05-03T12:07:11.932Z</time></trkpt><trkpt lat="42.2473343" lon="12.5312922"><ele>148.0</ele><time>2026-05-03T12:07:12.942Z</time></trkpt><trkpt lat="42.2473823" lon="12.5314109"><ele>148.0</ele><time>2026-05-03T12:07:13.943Z</time></trkpt><trkpt lat="42.2474291" lon="12.5315275"><ele>145.8</ele><time>2026-05-03T12:07:14.94Z</time></trkpt><trkpt lat="42.2474546" lon="12.5316644"><ele>143.60000000000002</ele><time>2026-05-03T12:07:15.946Z</time></trkpt><trkpt lat="42.2474624" lon="12.5318037"><ele>141.39999999999998</ele><time>2026-05-03T12:07:16.946Z</time></trkpt><trkpt lat="42.247467" lon="12.5319443"><ele>139.2</ele><time>2026-05-03T12:07:17.938Z</time></trkpt><trkpt lat="42.2474956" lon="12.5320902"><ele>137.0</ele><time>2026-05-03T12:07:18.938Z</time></trkpt><trkpt lat="42.2475529" lon="12.5322211"><ele>136.0</ele><time>2026-05-03T12:07:19.937Z</time></trkpt><trkpt lat="42.2476428" lon="12.5323216"><ele>135.0</ele><time>2026-05-03T12:07:20.935Z</time></trkpt><trkpt lat="42.247735" lon="12.5323945"><ele>134.0</ele><time>2026-05-03T12:07:21.932Z</time></trkpt><trkpt lat="42.2478363" lon="12.53245"><ele>133.0</ele><time>2026-05-03T12:07:22.928Z</time></trkpt><trkpt lat="42.2479497" lon="12.5324784"><ele>132.0</ele><time>2026-05-03T12:07:23.937Z</time></trkpt><trkpt lat="42.2480712" lon="12.5324834"><ele>132.5</ele><time>2026-05-03T12:07:24.925Z</time></trkpt><trkpt lat="42.2482172" lon="12.5324948"><ele>133.0</ele><time>2026-05-03T12:07:25.925Z</time></trkpt><trkpt lat="42.2483637" lon="12.5325227"><ele>133.5</ele><time>2026-05-03T12:07:26.935Z</time></trkpt><trkpt lat="42.2484898" lon="12.5325425"><ele>134.0</ele><time>2026-05-03T12:07:27.931Z</time></trkpt><trkpt lat="42.2486147" lon="12.5325451"><ele>134.0</ele><time>2026-05-03T12:07:28.93Z</time></trkpt><trkpt lat="42.2487395" lon="12.5325478"><ele>134.0</ele><time>2026-05-03T12:07:29.928Z</time></trkpt><trkpt lat="42.2488607" lon="12.5325809"><ele>134.0</ele><time>2026-05-03T12:07:30.93Z</time></trkpt><trkpt lat="42.2489644" lon="12.5326523"><ele>134.0</ele><time>2026-05-03T12:07:31.928Z</time></trkpt><trkpt lat="42.2490531" lon="12.5327117"><ele>133.25</ele><time>2026-05-03T12:07:32.932Z</time></trkpt><trkpt lat="42.2491538" lon="12.532739"><ele>132.5</ele><time>2026-05-03T12:07:33.932Z</time></trkpt><trkpt lat="42.2492715" lon="12.5327428"><ele>131.75</ele><time>2026-05-03T12:07:34.931Z</time></trkpt><trkpt lat="42.2493983" lon="12.5327564"><ele>131.0</ele><time>2026-05-03T12:07:35.942Z</time></trkpt><trkpt lat="42.2495107" lon="12.5327742"><ele>131.0</ele><time>2026-05-03T12:07:36.936Z</time></trkpt><trkpt lat="42.2496071" lon="12.5327765"><ele>131.0</ele><time>2026-05-03T12:07:37.941Z</time></trkpt><trkpt lat="42.2497274" lon="12.5327554"><ele>131.0</ele><time>2026-05-03T12:07:38.939Z</time></trkpt><trkpt lat="42.2498724" lon="12.5327113"><ele>131.0</ele><time>2026-05-03T12:07:39.934Z</time></trkpt><trkpt lat="42.2500277" lon="12.5326614"><ele>132.0</ele><time>2026-05-03T12:07:40.931Z</time></trkpt><trkpt lat="42.2502257" lon="12.5326087"><ele>133.0</ele><time>2026-05-03T12:07:41.939Z</time></trkpt><trkpt lat="42.2503861" lon="12.5325457"><ele>134.0</ele><time>2026-05-03T12:07:42.943Z</time></trkpt><trkpt lat="42.2505342" lon="12.5324901"><ele>134.75</ele><time>2026-05-03T12:07:43.936Z</time></trkpt><trkpt lat="42.2506877" lon="12.5324707"><ele>135.5</ele><time>2026-05-03T12:07:44.948Z</time></trkpt><trkpt lat="42.2508234" lon="12.5324721"><ele>136.25</ele><time>2026-05-03T12:07:45.949Z</time></trkpt><trkpt lat="42.2509778" lon="12.5324673"><ele>137.0</ele><time>2026-05-03T12:07:46.943Z</time></trkpt><trkpt lat="42.2511519" lon="12.5324883"><ele>137.0</ele><time>2026-05-03T12:07:47.949Z</time></trkpt><trkpt lat="42.2513483" lon="12.5325229"><ele>137.0</ele><time>2026-05-03T12:07:48.945Z</time></trkpt><trkpt lat="42.2515156" lon="12.5325764"><ele>137.0</ele><time>2026-05-03T12:07:49.951Z</time></trkpt><trkpt lat="42.2516556" lon="12.5326245"><ele>139.4</ele><time>2026-05-03T12:07:50.934Z</time></trkpt><trkpt lat="42.2517672" lon="12.5326342"><ele>141.79999999999998</ele><time>2026-05-03T12:07:51.942Z</time></trkpt><trkpt lat="42.2518552" lon="12.5326785"><ele>144.2</ele><time>2026-05-03T12:07:52.928Z</time></trkpt><trkpt lat="42.2519817" lon="12.5327002"><ele>146.6</ele><time>2026-05-03T12:07:53.931Z</time></trkpt><trkpt lat="42.2520831" lon="12.5326993"><ele>149.0</ele><time>2026-05-03T12:07:54.928Z</time></trkpt><trkpt lat="42.2522159" lon="12.5327019"><ele>150.5</ele><time>2026-05-03T12:07:55.926Z</time></trkpt><trkpt lat="42.2523281" lon="12.5326752"><ele>152.0</ele><time>2026-05-03T12:07:56.911Z</time></trkpt><trkpt lat="42.2524409" lon="12.5326264"><ele>153.5</ele><time>2026-05-03T12:07:57.932Z</time></trkpt><trkpt lat="42.2525512" lon="12.5325815"><ele>155.0</ele><time>2026-05-03T12:07:58.922Z</time></trkpt><trkpt lat="42.2526526" lon="12.5325559"><ele>155.0</ele><time>2026-05-03T12:07:59.921Z</time></trkpt><trkpt lat="42.2527524" lon="12.532539"><ele>155.0</ele><time>2026-05-03T12:08:00.929Z</time></trkpt><trkpt lat="42.2528533" lon="12.5325563"><ele>155.0</ele><time>2026-05-03T12:08:01.929Z</time></trkpt><trkpt lat="42.2529456" lon="12.5325818"><ele>155.0</ele><time>2026-05-03T12:08:02.915Z</time></trkpt><trkpt lat="42.2530408" lon="12.5326101"><ele>155.0</ele><time>2026-05-03T12:08:03.926Z</time></trkpt><trkpt lat="42.2531416" lon="12.5326769"><ele>152.75</ele><time>2026-05-03T12:08:04.918Z</time></trkpt><trkpt lat="42.2532486" lon="12.5327253"><ele>150.5</ele><time>2026-05-03T12:08:05.943Z</time></trkpt><trkpt lat="42.25336" lon="12.5327737"><ele>148.25</ele><time>2026-05-03T12:08:07.077Z</time></trkpt><trkpt lat="42.2535586" lon="12.532843"><ele>146.0</ele><time>2026-05-03T12:08:08.948Z</time></trkpt><trkpt lat="42.2536501" lon="12.5328288"><ele>146.0</ele><time>2026-05-03T12:08:10.09Z</time></trkpt><trkpt lat="42.253807" lon="12.5328526"><ele>146.0</ele><time>2026-05-03T12:08:11.935Z</time></trkpt><trkpt lat="42.2539174" lon="12.5329145"><ele>146.0</ele><time>2026-05-03T12:08:12.941Z</time></trkpt><trkpt lat="42.2540296" lon="12.532979"><ele>146.0</ele><time>2026-05-03T12:08:13.938Z</time></trkpt><trkpt lat="42.2541346" lon="12.5330394"><ele>143.5</ele><time>2026-05-03T12:08:14.946Z</time></trkpt><trkpt lat="42.2542317" lon="12.5330886"><ele>141.0</ele><time>2026-05-03T12:08:15.947Z</time></trkpt><trkpt lat="42.2543073" lon="12.5331244"><ele>138.5</ele><time>2026-05-03T12:08:16.938Z</time></trkpt><trkpt lat="42.2543764" lon="12.5331561"><ele>136.0</ele><time>2026-05-03T12:08:17.955Z</time></trkpt><trkpt lat="42.2544637" lon="12.5331913"><ele>133.5</ele><time>2026-05-03T12:08:19.944Z</time></trkpt><trkpt lat="42.2545356" lon="12.5331957"><ele>131.0</ele><time>2026-05-03T12:08:21.951Z</time></trkpt><trkpt lat="42.254623" lon="12.5331257"><ele>131.0</ele><time>2026-05-03T12:08:23.943Z</time></trkpt><trkpt lat="42.254682" lon="12.5330711"><ele>131.0</ele><time>2026-05-03T12:08:24.948Z</time></trkpt><trkpt lat="42.2547567" lon="12.5330447"><ele>131.0</ele><time>2026-05-03T12:08:25.932Z</time></trkpt><trkpt lat="42.2548473" lon="12.5330443"><ele>131.0</ele><time>2026-05-03T12:08:26.945Z</time></trkpt><trkpt lat="42.2549448" lon="12.5330502"><ele>131.0</ele><time>2026-05-03T12:08:27.939Z</time></trkpt><trkpt lat="42.2550694" lon="12.5330604"><ele>130.8</ele><time>2026-05-03T12:08:28.938Z</time></trkpt><trkpt lat="42.2551791" lon="12.5330771"><ele>130.6</ele><time>2026-05-03T12:08:29.943Z</time></trkpt><trkpt lat="42.2552882" lon="12.5330942"><ele>130.4</ele><time>2026-05-03T12:08:30.938Z</time></trkpt><trkpt lat="42.2553939" lon="12.5331183"><ele>130.2</ele><time>2026-05-03T12:08:31.954Z</time></trkpt><trkpt lat="42.255494" lon="12.5331399"><ele>130.0</ele><time>2026-05-03T12:08:32.948Z</time></trkpt><trkpt lat="42.2555911" lon="12.5331522"><ele>128.2</ele><time>2026-05-03T12:08:33.952Z</time></trkpt><trkpt lat="42.2556831" lon="12.5331542"><ele>126.4</ele><time>2026-05-03T12:08:34.953Z</time></trkpt><trkpt lat="42.2557761" lon="12.5331729"><ele>124.6</ele><time>2026-05-03T12:08:35.947Z</time></trkpt><trkpt lat="42.2558589" lon="12.533224"><ele>122.8</ele><time>2026-05-03T12:08:36.945Z</time></trkpt><trkpt lat="42.2559173" lon="12.5333183"><ele>121.0</ele><time>2026-05-03T12:08:37.948Z</time></trkpt><trkpt lat="42.2559715" lon="12.5334199"><ele>121.0</ele><time>2026-05-03T12:08:38.944Z</time></trkpt><trkpt lat="42.2560194" lon="12.5335633"><ele>121.0</ele><time>2026-05-03T12:08:39.948Z</time></trkpt><trkpt lat="42.2560714" lon="12.5337276"><ele>121.0</ele><time>2026-05-03T12:08:40.945Z</time></trkpt><trkpt lat="42.2561237" lon="12.5338767"><ele>121.0</ele><time>2026-05-03T12:08:41.953Z</time></trkpt><trkpt lat="42.2561734" lon="12.5340038"><ele>119.19999999999999</ele><time>2026-05-03T12:08:42.95Z</time></trkpt><trkpt lat="42.256217" lon="12.5341283"><ele>117.39999999999999</ele><time>2026-05-03T12:08:43.949Z</time></trkpt><trkpt lat="42.2562613" lon="12.5342338"><ele>115.6</ele><time>2026-05-03T12:08:44.957Z</time></trkpt><trkpt lat="42.2563021" lon="12.5343244"><ele>113.8</ele><time>2026-05-03T12:08:45.949Z</time></trkpt><trkpt lat="42.2563487" lon="12.5344415"><ele>112.0</ele><time>2026-05-03T12:08:46.96Z</time></trkpt><trkpt lat="42.2563891" lon="12.5345569"><ele>110.6</ele><time>2026-05-03T12:08:47.944Z</time></trkpt><trkpt lat="42.2564331" lon="12.5346368"><ele>109.19999999999999</ele><time>2026-05-03T12:08:48.951Z</time></trkpt><trkpt lat="42.2565077" lon="12.5347259"><ele>107.8</ele><time>2026-05-03T12:08:50.952Z</time></trkpt><trkpt lat="42.2566142" lon="12.5348366"><ele>106.4</ele><time>2026-05-03T12:08:52.943Z</time></trkpt><trkpt lat="42.2566963" lon="12.5348921"><ele>105.0</ele><time>2026-05-03T12:08:53.94Z</time></trkpt><trkpt lat="42.2568028" lon="12.5349488"><ele>105.0</ele><time>2026-05-03T12:08:54.945Z</time></trkpt><trkpt lat="42.2569138" lon="12.5350188"><ele>105.0</ele><time>2026-05-03T12:08:55.946Z</time></trkpt><trkpt lat="42.2570182" lon="12.5350922"><ele>105.0</ele><time>2026-05-03T12:08:56.951Z</time></trkpt><trkpt lat="42.2571229" lon="12.5351698"><ele>105.0</ele><time>2026-05-03T12:08:57.946Z</time></trkpt><trkpt lat="42.2572173" lon="12.53524"><ele>105.75</ele><time>2026-05-03T12:08:58.945Z</time></trkpt><trkpt lat="42.2573073" lon="12.5353129"><ele>106.5</ele><time>2026-05-03T12:08:59.944Z</time></trkpt><trkpt lat="42.2574086" lon="12.5353976"><ele>107.25</ele><time>2026-05-03T12:09:00.941Z</time></trkpt><trkpt lat="42.2575061" lon="12.5354868"><ele>108.0</ele><time>2026-05-03T12:09:01.949Z</time></trkpt><trkpt lat="42.257601" lon="12.5355762"><ele>105.2</ele><time>2026-05-03T12:09:02.949Z</time></trkpt><trkpt lat="42.2577012" lon="12.5356665"><ele>102.4</ele><time>2026-05-03T12:09:03.94Z</time></trkpt><trkpt lat="42.2577981" lon="12.5357468"><ele>99.60000000000001</ele><time>2026-05-03T12:09:04.945Z</time></trkpt><trkpt lat="42.2578876" lon="12.5358057"><ele>96.80000000000001</ele><time>2026-05-03T12:09:05.941Z</time></trkpt><trkpt lat="42.2579776" lon="12.5358563"><ele>94.0</ele><time>2026-05-03T12:09:06.948Z</time></trkpt><trkpt lat="42.258063" lon="12.5359042"><ele>94.0</ele><time>2026-05-03T12:09:07.945Z</time></trkpt><trkpt lat="42.2581434" lon="12.5359505"><ele>94.0</ele><time>2026-05-03T12:09:08.945Z</time></trkpt><trkpt lat="42.2582296" lon="12.535995"><ele>94.0</ele><time>2026-05-03T12:09:09.948Z</time></trkpt><trkpt lat="42.2583341" lon="12.5360332"><ele>94.0</ele><time>2026-05-03T12:09:10.956Z</time></trkpt><trkpt lat="42.2584715" lon="12.5360544"><ele>94.0</ele><time>2026-05-03T12:09:11.941Z</time></trkpt><trkpt lat="42.2586083" lon="12.5360542"><ele>94.0</ele><time>2026-05-03T12:09:12.946Z</time></trkpt><trkpt lat="42.2587264" lon="12.5360551"><ele>94.0</ele><time>2026-05-03T12:09:13.957Z</time></trkpt><trkpt lat="42.2588375" lon="12.53607"><ele>94.0</ele><time>2026-05-03T12:09:14.949Z</time></trkpt><trkpt lat="42.2589383" lon="12.5361075"><ele>94.0</ele><time>2026-05-03T12:09:15.949Z</time></trkpt><trkpt lat="42.2590231" lon="12.5362122"><ele>94.0</ele><time>2026-05-03T12:09:16.947Z</time></trkpt><trkpt lat="42.259113" lon="12.5363832"><ele>88.33333333333333</ele><time>2026-05-03T12:09:17.938Z</time></trkpt><trkpt lat="42.2592203" lon="12.5366677"><ele>82.66666666666667</ele><time>2026-05-03T12:09:18.937Z</time></trkpt><trkpt lat="42.2593358" lon="12.5369001"><ele>77.0</ele><time>2026-05-03T12:09:19.947Z</time></trkpt><trkpt lat="42.2594464" lon="12.5370678"><ele>73.5</ele><time>2026-05-03T12:09:20.943Z</time></trkpt><trkpt lat="42.2595521" lon="12.5372152"><ele>70.0</ele><time>2026-05-03T12:09:21.953Z</time></trkpt><trkpt lat="42.2596176" lon="12.5373346"><ele>66.5</ele><time>2026-05-03T12:09:22.947Z</time></trkpt><trkpt lat="42.2596711" lon="12.5374698"><ele>63.0</ele><time>2026-05-03T12:09:23.953Z</time></trkpt><trkpt lat="42.2597315" lon="12.5375981"><ele>64.25</ele><time>2026-05-03T12:09:24.96Z</time></trkpt><trkpt lat="42.2598262" lon="12.5377234"><ele>65.5</ele><time>2026-05-03T12:09:25.947Z</time></trkpt><trkpt lat="42.2599186" lon="12.5378552"><ele>66.75</ele><time>2026-05-03T12:09:26.957Z</time></trkpt><trkpt lat="42.2600022" lon="12.5379631"><ele>68.0</ele><time>2026-05-03T12:09:27.947Z</time></trkpt><trkpt lat="42.2600667" lon="12.5380586"><ele>65.8</ele><time>2026-05-03T12:09:28.943Z</time></trkpt><trkpt lat="42.2601376" lon="12.5381296"><ele>63.599999999999994</ele><time>2026-05-03T12:09:29.95Z</time></trkpt><trkpt lat="42.2602056" lon="12.5381906"><ele>61.400000000000006</ele><time>2026-05-03T12:09:30.944Z</time></trkpt><trkpt lat="42.2602953" lon="12.5382448"><ele>59.2</ele><time>2026-05-03T12:09:32.941Z</time></trkpt><trkpt lat="42.260383" lon="12.5382523"><ele>57.0</ele><time>2026-05-03T12:09:34.939Z</time></trkpt><trkpt lat="42.2604814" lon="12.5381918"><ele>57.0</ele><time>2026-05-03T12:09:36.939Z</time></trkpt><trkpt lat="42.2605636" lon="12.5380698"><ele>57.0</ele><time>2026-05-03T12:09:38.927Z</time></trkpt><trkpt lat="42.2606042" lon="12.5379802"><ele>57.0</ele><time>2026-05-03T12:09:39.927Z</time></trkpt><trkpt lat="42.2606712" lon="12.5378698"><ele>57.0</ele><time>2026-05-03T12:09:40.938Z</time></trkpt><trkpt lat="42.2607439" lon="12.5377972"><ele>57.0</ele><time>2026-05-03T12:09:41.935Z</time></trkpt><trkpt lat="42.2608113" lon="12.5377331"><ele>59.2</ele><time>2026-05-03T12:09:42.928Z</time></trkpt><trkpt lat="42.2609121" lon="12.5376617"><ele>61.400000000000006</ele><time>2026-05-03T12:09:44.927Z</time></trkpt><trkpt lat="42.2609839" lon="12.5376163"><ele>63.599999999999994</ele><time>2026-05-03T12:09:55.929Z</time></trkpt><trkpt lat="42.261092" lon="12.5375403"><ele>65.8</ele><time>2026-05-03T12:09:57.957Z</time></trkpt><trkpt lat="42.2611783" lon="12.5375438"><ele>68.0</ele><time>2026-05-03T12:09:58.931Z</time></trkpt><trkpt lat="42.2612633" lon="12.5375654"><ele>68.0</ele><time>2026-05-03T12:09:59.937Z</time></trkpt><trkpt lat="42.2613428" lon="12.5376089"><ele>68.0</ele><time>2026-05-03T12:10:00.931Z</time></trkpt><trkpt lat="42.261422" lon="12.5376811"><ele>68.0</ele><time>2026-05-03T12:10:01.936Z</time></trkpt><trkpt lat="42.2615097" lon="12.5377734"><ele>68.0</ele><time>2026-05-03T12:10:02.929Z</time></trkpt><trkpt lat="42.2615874" lon="12.5378462"><ele>68.0</ele><time>2026-05-03T12:10:03.928Z</time></trkpt><trkpt lat="42.2616699" lon="12.5378944"><ele>66.0</ele><time>2026-05-03T12:10:04.934Z</time></trkpt><trkpt lat="42.261763" lon="12.5379109"><ele>64.0</ele><time>2026-05-03T12:10:05.932Z</time></trkpt><trkpt lat="42.2618734" lon="12.5378952"><ele>62.0</ele><time>2026-05-03T12:10:06.937Z</time></trkpt><trkpt lat="42.2620196" lon="12.5378474"><ele>60.0</ele><time>2026-05-03T12:10:07.93Z</time></trkpt><trkpt lat="42.2621932" lon="12.5377981"><ele>58.33333333333333</ele><time>2026-05-03T12:10:08.942Z</time></trkpt><trkpt lat="42.2623895" lon="12.5377471"><ele>56.666666666666664</ele><time>2026-05-03T12:10:09.94Z</time></trkpt><trkpt lat="42.2625774" lon="12.5376818"><ele>55.0</ele><time>2026-05-03T12:10:10.943Z</time></trkpt><trkpt lat="42.262755" lon="12.5376338"><ele>55.0</ele><time>2026-05-03T12:10:11.94Z</time></trkpt><trkpt lat="42.2629072" lon="12.537576"><ele>55.0</ele><time>2026-05-03T12:10:12.941Z</time></trkpt><trkpt lat="42.2630284" lon="12.5375167"><ele>55.0</ele><time>2026-05-03T12:10:13.945Z</time></trkpt><trkpt lat="42.2631131" lon="12.5375684"><ele>55.0</ele><time>2026-05-03T12:10:15.945Z</time></trkpt><trkpt lat="42.2631336" lon="12.537656"><ele>55.0</ele><time>2026-05-03T12:10:16.939Z</time></trkpt><trkpt lat="42.263136" lon="12.5378227"><ele>58.0</ele><time>2026-05-03T12:10:17.938Z</time></trkpt><trkpt lat="42.2631737" lon="12.5380292"><ele>61.0</ele><time>2026-05-03T12:10:18.945Z</time></trkpt><trkpt lat="42.2632296" lon="12.5382202"><ele>64.0</ele><time>2026-05-03T12:10:19.933Z</time></trkpt><trkpt lat="42.2633101" lon="12.5383903"><ele>64.0</ele><time>2026-05-03T12:10:20.93Z</time></trkpt><trkpt lat="42.263415" lon="12.5385769"><ele>64.0</ele><time>2026-05-03T12:10:21.936Z</time></trkpt><trkpt lat="42.2635066" lon="12.5387042"><ele>64.0</ele><time>2026-05-03T12:10:22.935Z</time></trkpt><trkpt lat="42.2635713" lon="12.538838"><ele>64.0</ele><time>2026-05-03T12:10:23.933Z</time></trkpt><trkpt lat="42.2636119" lon="12.5389755"><ele>61.75</ele><time>2026-05-03T12:10:24.943Z</time></trkpt><trkpt lat="42.2636625" lon="12.5391549"><ele>59.5</ele><time>2026-05-03T12:10:25.931Z</time></trkpt><trkpt lat="42.2637151" lon="12.5393452"><ele>57.25</ele><time>2026-05-03T12:10:26.937Z</time></trkpt><trkpt lat="42.263765" lon="12.5395407"><ele>55.0</ele><time>2026-05-03T12:10:27.941Z</time></trkpt><trkpt lat="42.2638196" lon="12.5396978"><ele>55.666666666666664</ele><time>2026-05-03T12:10:28.957Z</time></trkpt><trkpt lat="42.2638581" lon="12.5398294"><ele>56.33333333333333</ele><time>2026-05-03T12:10:30.1Z</time></trkpt><trkpt lat="42.2639698" lon="12.5401388"><ele>57.0</ele><time>2026-05-03T12:10:31.937Z</time></trkpt><trkpt lat="42.2640777" lon="12.5402847"><ele>54.66666666666667</ele><time>2026-05-03T12:10:32.939Z</time></trkpt><trkpt lat="42.2642049" lon="12.5404239"><ele>52.333333333333336</ele><time>2026-05-03T12:10:33.935Z</time></trkpt><trkpt lat="42.264333" lon="12.5405804"><ele>50.0</ele><time>2026-05-03T12:10:34.931Z</time></trkpt><trkpt lat="42.2644707" lon="12.5407724"><ele>50.0</ele><time>2026-05-03T12:10:35.934Z</time></trkpt><trkpt lat="42.2645828" lon="12.5409427"><ele>50.0</ele><time>2026-05-03T12:10:36.934Z</time></trkpt><trkpt lat="42.2646927" lon="12.541073"><ele>50.0</ele><time>2026-05-03T12:10:37.929Z</time></trkpt><trkpt lat="42.2647623" lon="12.5412381"><ele>50.0</ele><time>2026-05-03T12:10:38.932Z</time></trkpt><trkpt lat="42.2648687" lon="12.5413302"><ele>50.0</ele><time>2026-05-03T12:10:39.931Z</time></trkpt><trkpt lat="42.2649771" lon="12.5414244"><ele>50.0</ele><time>2026-05-03T12:10:40.939Z</time></trkpt><trkpt lat="42.2651142" lon="12.5415133"><ele>50.0</ele><time>2026-05-03T12:10:41.932Z</time></trkpt><trkpt lat="42.2652755" lon="12.5415541"><ele>50.0</ele><time>2026-05-03T12:10:42.943Z</time></trkpt><trkpt lat="42.2653898" lon="12.5416474"><ele>50.0</ele><time>2026-05-03T12:10:43.934Z</time></trkpt><trkpt lat="42.2655073" lon="12.5417468"><ele>50.0</ele><time>2026-05-03T12:10:44.947Z</time></trkpt><trkpt lat="42.2656248" lon="12.5418114"><ele>50.0</ele><time>2026-05-03T12:10:45.951Z</time></trkpt><trkpt lat="42.2657584" lon="12.541866"><ele>51.0</ele><time>2026-05-03T12:10:46.94Z</time></trkpt><trkpt lat="42.2659181" lon="12.541895"><ele>52.0</ele><time>2026-05-03T12:10:47.935Z</time></trkpt><trkpt lat="42.2660832" lon="12.5418667"><ele>53.0</ele><time>2026-05-03T12:10:48.946Z</time></trkpt><trkpt lat="42.2662233" lon="12.5418052"><ele>53.0</ele><time>2026-05-03T12:10:49.941Z</time></trkpt><trkpt lat="42.2663539" lon="12.541734"><ele>53.0</ele><time>2026-05-03T12:10:50.944Z</time></trkpt><trkpt lat="42.2664796" lon="12.5416687"><ele>53.0</ele><time>2026-05-03T12:10:51.946Z</time></trkpt><trkpt lat="42.2666051" lon="12.5416469"><ele>53.0</ele><time>2026-05-03T12:10:52.944Z</time></trkpt><trkpt lat="42.2667439" lon="12.541696"><ele>53.0</ele><time>2026-05-03T12:10:53.942Z</time></trkpt><trkpt lat="42.2668639" lon="12.5417703"><ele>53.0</ele><time>2026-05-03T12:10:54.938Z</time></trkpt><trkpt lat="42.2669778" lon="12.5417966"><ele>53.0</ele><time>2026-05-03T12:10:55.942Z</time></trkpt><trkpt lat="42.2671146" lon="12.5418511"><ele>53.0</ele><time>2026-05-03T12:10:56.942Z</time></trkpt><trkpt lat="42.2672123" lon="12.5419228"><ele>53.0</ele><time>2026-05-03T12:10:57.934Z</time></trkpt><trkpt lat="42.2672666" lon="12.5420312"><ele>53.0</ele><time>2026-05-03T12:10:58.94Z</time></trkpt><trkpt lat="42.2672943" lon="12.5421436"><ele>53.0</ele><time>2026-05-03T12:10:59.942Z</time></trkpt><trkpt lat="42.2672342" lon="12.5423167"><ele>53.0</ele><time>2026-05-03T12:11:00.941Z</time></trkpt><trkpt lat="42.2671585" lon="12.5424907"><ele>51.0</ele><time>2026-05-03T12:11:01.937Z</time></trkpt><trkpt lat="42.2670936" lon="12.5426619"><ele>49.0</ele><time>2026-05-03T12:11:02.943Z</time></trkpt><trkpt lat="42.2670397" lon="12.5428364"><ele>47.0</ele><time>2026-05-03T12:11:03.943Z</time></trkpt><trkpt lat="42.2669922" lon="12.5429892"><ele>45.0</ele><time>2026-05-03T12:11:04.937Z</time></trkpt><trkpt lat="42.2669399" lon="12.5431416"><ele>45.0</ele><time>2026-05-03T12:11:05.948Z</time></trkpt><trkpt lat="42.2668718" lon="12.5433031"><ele>45.0</ele><time>2026-05-03T12:11:06.94Z</time></trkpt><trkpt lat="42.2668112" lon="12.5434765"><ele>45.0</ele><time>2026-05-03T12:11:07.931Z</time></trkpt><trkpt lat="42.2667593" lon="12.5436401"><ele>45.0</ele><time>2026-05-03T12:11:08.937Z</time></trkpt><trkpt lat="42.2667133" lon="12.5437913"><ele>45.5</ele><time>2026-05-03T12:11:09.96Z</time></trkpt><trkpt lat="42.2666737" lon="12.5439217"><ele>46.0</ele><time>2026-05-03T12:11:10.956Z</time></trkpt><trkpt lat="42.2666545" lon="12.5440304"><ele>46.5</ele><time>2026-05-03T12:11:11.986Z</time></trkpt><trkpt lat="42.2666711" lon="12.5441335"><ele>47.0</ele><time>2026-05-03T12:11:12.939Z</time></trkpt><trkpt lat="42.2667233" lon="12.5442266"><ele>47.5</ele><time>2026-05-03T12:11:13.945Z</time></trkpt><trkpt lat="42.2667928" lon="12.5442992"><ele>48.0</ele><time>2026-05-03T12:11:14.941Z</time></trkpt><trkpt lat="42.2668604" lon="12.5443488"><ele>48.0</ele><time>2026-05-03T12:11:15.951Z</time></trkpt><trkpt lat="42.2669303" lon="12.5443923"><ele>48.0</ele><time>2026-05-03T12:11:16.94Z</time></trkpt><trkpt lat="42.2670137" lon="12.5444469"><ele>48.0</ele><time>2026-05-03T12:11:17.944Z</time></trkpt><trkpt lat="42.2671124" lon="12.5445156"><ele>48.0</ele><time>2026-05-03T12:11:18.936Z</time></trkpt><trkpt lat="42.2672347" lon="12.5446098"><ele>48.0</ele><time>2026-05-03T12:11:19.929Z</time></trkpt><trkpt lat="42.2673621" lon="12.5447253"><ele>49.25</ele><time>2026-05-03T12:11:20.941Z</time></trkpt><trkpt lat="42.2675144" lon="12.5448575"><ele>50.5</ele><time>2026-05-03T12:11:21.934Z</time></trkpt><trkpt lat="42.2676316" lon="12.5449358"><ele>51.75</ele><time>2026-05-03T12:11:22.933Z</time></trkpt><trkpt lat="42.2677341" lon="12.544985"><ele>53.0</ele><time>2026-05-03T12:11:23.935Z</time></trkpt><trkpt lat="42.2678335" lon="12.5450177"><ele>53.0</ele><time>2026-05-03T12:11:24.938Z</time></trkpt><trkpt lat="42.2679355" lon="12.5450076"><ele>53.0</ele><time>2026-05-03T12:11:25.929Z</time></trkpt><trkpt lat="42.2680325" lon="12.5449994"><ele>53.0</ele><time>2026-05-03T12:11:26.937Z</time></trkpt><trkpt lat="42.2681254" lon="12.5449827"><ele>53.0</ele><time>2026-05-03T12:11:27.928Z</time></trkpt><trkpt lat="42.2682118" lon="12.544959"><ele>53.0</ele><time>2026-05-03T12:11:28.924Z</time></trkpt><trkpt lat="42.2682971" lon="12.5449368"><ele>52.8</ele><time>2026-05-03T12:11:29.929Z</time></trkpt><trkpt lat="42.2683795" lon="12.5449116"><ele>52.599999999999994</ele><time>2026-05-03T12:11:30.928Z</time></trkpt><trkpt lat="42.2684672" lon="12.5448743"><ele>52.400000000000006</ele><time>2026-05-03T12:11:31.931Z</time></trkpt><trkpt lat="42.2685797" lon="12.5448129"><ele>52.2</ele><time>2026-05-03T12:11:32.932Z</time></trkpt><trkpt lat="42.2686978" lon="12.5447403"><ele>52.0</ele><time>2026-05-03T12:11:33.937Z</time></trkpt><trkpt lat="42.2687995" lon="12.5446528"><ele>52.0</ele><time>2026-05-03T12:11:34.93Z</time></trkpt><trkpt lat="42.2688879" lon="12.5445568"><ele>52.0</ele><time>2026-05-03T12:11:35.933Z</time></trkpt><trkpt lat="42.2689556" lon="12.5444598"><ele>52.0</ele><time>2026-05-03T12:11:36.93Z</time></trkpt><trkpt lat="42.2690244" lon="12.544376"><ele>52.0</ele><time>2026-05-03T12:11:37.934Z</time></trkpt><trkpt lat="42.2690921" lon="12.5443086"><ele>52.0</ele><time>2026-05-03T12:11:38.934Z</time></trkpt><trkpt lat="42.26916" lon="12.5442516"><ele>51.33333333333333</ele><time>2026-05-03T12:11:39.93Z</time></trkpt><trkpt lat="42.2692263" lon="12.5442025"><ele>50.666666666666664</ele><time>2026-05-03T12:11:40.935Z</time></trkpt><trkpt lat="42.2692957" lon="12.544147"><ele>50.0</ele><time>2026-05-03T12:11:41.932Z</time></trkpt><trkpt lat="42.2693682" lon="12.5440957"><ele>49.33333333333333</ele><time>2026-05-03T12:11:42.937Z</time></trkpt><trkpt lat="42.2694494" lon="12.5440577"><ele>48.666666666666664</ele><time>2026-05-03T12:11:43.938Z</time></trkpt><trkpt lat="42.2695324" lon="12.5440276"><ele>48.0</ele><time>2026-05-03T12:11:44.937Z</time></trkpt><trkpt lat="42.2696139" lon="12.5440035"><ele>48.0</ele><time>2026-05-03T12:11:45.936Z</time></trkpt><trkpt lat="42.2696918" lon="12.5440199"><ele>48.0</ele><time>2026-05-03T12:11:46.929Z</time></trkpt><trkpt lat="42.2697723" lon="12.5440626"><ele>48.0</ele><time>2026-05-03T12:11:47.931Z</time></trkpt><trkpt lat="42.2698611" lon="12.5441259"><ele>48.0</ele><time>2026-05-03T12:11:48.927Z</time></trkpt><trkpt lat="42.2699557" lon="12.5441852"><ele>48.0</ele><time>2026-05-03T12:11:49.929Z</time></trkpt><trkpt lat="42.2700678" lon="12.5442361"><ele>47.5</ele><time>2026-05-03T12:11:50.925Z</time></trkpt><trkpt lat="42.2701814" lon="12.5442918"><ele>47.0</ele><time>2026-05-03T12:11:51.926Z</time></trkpt><trkpt lat="42.270302" lon="12.5443511"><ele>46.5</ele><time>2026-05-03T12:11:52.92Z</time></trkpt><trkpt lat="42.2704344" lon="12.5443941"><ele>46.0</ele><time>2026-05-03T12:11:53.93Z</time></trkpt><trkpt lat="42.2705805" lon="12.5444356"><ele>45.0</ele><time>2026-05-03T12:11:54.934Z</time></trkpt><trkpt lat="42.2707961" lon="12.5444781"><ele>44.0</ele><time>2026-05-03T12:11:55.929Z</time></trkpt><trkpt lat="42.2709796" lon="12.5445362"><ele>43.0</ele><time>2026-05-03T12:11:56.934Z</time></trkpt><trkpt lat="42.2711441" lon="12.5445624"><ele>43.0</ele><time>2026-05-03T12:11:57.942Z</time></trkpt><trkpt lat="42.2712603" lon="12.5445954"><ele>43.0</ele><time>2026-05-03T12:11:58.924Z</time></trkpt><trkpt lat="42.2713562" lon="12.5445687"><ele>43.0</ele><time>2026-05-03T12:11:59.923Z</time></trkpt><trkpt lat="42.2714371" lon="12.5445312"><ele>43.0</ele><time>2026-05-03T12:12:00.929Z</time></trkpt><trkpt lat="42.271468" lon="12.5444545"><ele>43.0</ele><time>2026-05-03T12:12:01.929Z</time></trkpt><trkpt lat="42.271509" lon="12.5443805"><ele>43.0</ele><time>2026-05-03T12:12:02.93Z</time></trkpt><trkpt lat="42.2715581" lon="12.5442858"><ele>42.833333333333336</ele><time>2026-05-03T12:12:03.933Z</time></trkpt><trkpt lat="42.2716024" lon="12.5441916"><ele>42.66666666666667</ele><time>2026-05-03T12:12:04.944Z</time></trkpt><trkpt lat="42.2716584" lon="12.5441145"><ele>42.5</ele><time>2026-05-03T12:12:05.938Z</time></trkpt><trkpt lat="42.2717144" lon="12.5440689"><ele>42.333333333333336</ele><time>2026-05-03T12:12:06.924Z</time></trkpt><trkpt lat="42.2717813" lon="12.5440173"><ele>42.166666666666664</ele><time>2026-05-03T12:12:11.93Z</time></trkpt><trkpt lat="42.2718229" lon="12.5439299"><ele>42.0</ele><time>2026-05-03T12:12:21.938Z</time></trkpt><trkpt lat="42.2718338" lon="12.5437648"><ele>44.0</ele><time>2026-05-03T12:12:23.938Z</time></trkpt><trkpt lat="42.2718171" lon="12.543662"><ele>46.0</ele><time>2026-05-03T12:12:24.937Z</time></trkpt><trkpt lat="42.2717746" lon="12.5435316"><ele>48.0</ele><time>2026-05-03T12:12:25.94Z</time></trkpt><trkpt lat="42.2717076" lon="12.543407"><ele>50.0</ele><time>2026-05-03T12:12:26.941Z</time></trkpt><trkpt lat="42.2716321" lon="12.5432911"><ele>52.0</ele><time>2026-05-03T12:12:27.944Z</time></trkpt><trkpt lat="42.2715482" lon="12.5431911"><ele>52.0</ele><time>2026-05-03T12:12:28.936Z</time></trkpt><trkpt lat="42.2714533" lon="12.5431184"><ele>52.0</ele><time>2026-05-03T12:12:29.93Z</time></trkpt><trkpt lat="42.2713652" lon="12.5430585"><ele>52.0</ele><time>2026-05-03T12:12:30.94Z</time></trkpt><trkpt lat="42.2712754" lon="12.5430012"><ele>52.0</ele><time>2026-05-03T12:12:31.936Z</time></trkpt><trkpt lat="42.2712001" lon="12.5429579"><ele>52.0</ele><time>2026-05-03T12:12:32.935Z</time></trkpt><trkpt lat="42.2711115" lon="12.5428981"><ele>53.666666666666664</ele><time>2026-05-03T12:12:33.936Z</time></trkpt><trkpt lat="42.2710182" lon="12.5428136"><ele>55.33333333333333</ele><time>2026-05-03T12:12:34.929Z</time></trkpt><trkpt lat="42.2709638" lon="12.5427459"><ele>57.0</ele><time>2026-05-03T12:12:35.948Z</time></trkpt><trkpt lat="42.2709122" lon="12.5426859"><ele>58.66666666666667</ele><time>2026-05-03T12:12:36.936Z</time></trkpt><trkpt lat="42.270862" lon="12.5425991"><ele>60.333333333333336</ele><time>2026-05-03T12:12:38.934Z</time></trkpt><trkpt lat="42.2708128" lon="12.5425309"><ele>62.0</ele><time>2026-05-03T12:12:42.961Z</time></trkpt><trkpt lat="42.2707871" lon="12.5426504"><ele>62.0</ele><time>2026-05-03T12:12:45.946Z</time></trkpt><trkpt lat="42.2708414" lon="12.5427647"><ele>62.0</ele><time>2026-05-03T12:12:47.934Z</time></trkpt><trkpt lat="42.2708855" lon="12.5428264"><ele>62.0</ele><time>2026-05-03T12:12:48.949Z</time></trkpt><trkpt lat="42.2709902" lon="12.542923"><ele>62.0</ele><time>2026-05-03T12:12:49.937Z</time></trkpt><trkpt lat="42.2711034" lon="12.5430108"><ele>62.0</ele><time>2026-05-03T12:12:50.938Z</time></trkpt><trkpt lat="42.2712173" lon="12.5431004"><ele>60.0</ele><time>2026-05-03T12:12:51.942Z</time></trkpt><trkpt lat="42.2713191" lon="12.5431763"><ele>58.0</ele><time>2026-05-03T12:12:52.934Z</time></trkpt><trkpt lat="42.2714097" lon="12.5432483"><ele>56.0</ele><time>2026-05-03T12:12:53.936Z</time></trkpt><trkpt lat="42.2715006" lon="12.5433426"><ele>54.0</ele><time>2026-05-03T12:12:54.946Z</time></trkpt><trkpt lat="42.2715696" lon="12.543458"><ele>52.0</ele><time>2026-05-03T12:12:55.933Z</time></trkpt><trkpt lat="42.2716197" lon="12.5435788"><ele>52.0</ele><time>2026-05-03T12:12:56.944Z</time></trkpt><trkpt lat="42.2716588" lon="12.5436942"><ele>52.0</ele><time>2026-05-03T12:12:57.938Z</time></trkpt><trkpt lat="42.2716926" lon="12.5438168"><ele>52.0</ele><time>2026-05-03T12:12:58.932Z</time></trkpt><trkpt lat="42.2717116" lon="12.5439567"><ele>52.0</ele><time>2026-05-03T12:12:59.938Z</time></trkpt><trkpt lat="42.2717355" lon="12.5440962"><ele>52.0</ele><time>2026-05-03T12:13:00.941Z</time></trkpt><trkpt lat="42.2717734" lon="12.5442255"><ele>50.400000000000006</ele><time>2026-05-03T12:13:01.93Z</time></trkpt><trkpt lat="42.2718264" lon="12.544341"><ele>48.800000000000004</ele><time>2026-05-03T12:13:02.92Z</time></trkpt><trkpt lat="42.2718834" lon="12.5444544"><ele>47.2</ele><time>2026-05-03T12:13:03.905Z</time></trkpt><trkpt lat="42.2719381" lon="12.5445667"><ele>45.6</ele><time>2026-05-03T12:13:04.907Z</time></trkpt><trkpt lat="42.2719871" lon="12.544658"><ele>44.0</ele><time>2026-05-03T12:13:05.907Z</time></trkpt><trkpt lat="42.2720705" lon="12.5447116"><ele>44.0</ele><time>2026-05-03T12:13:06.916Z</time></trkpt><trkpt lat="42.2721755" lon="12.5446794"><ele>44.0</ele><time>2026-05-03T12:13:07.927Z</time></trkpt><trkpt lat="42.2722604" lon="12.5446604"><ele>44.0</ele><time>2026-05-03T12:13:08.927Z</time></trkpt><trkpt lat="42.2723511" lon="12.5445952"><ele>44.0</ele><time>2026-05-03T12:13:09.933Z</time></trkpt><trkpt lat="42.2724268" lon="12.5445442"><ele>44.0</ele><time>2026-05-03T12:13:10.927Z</time></trkpt><trkpt lat="42.2724872" lon="12.5445122"><ele>44.0</ele><time>2026-05-03T12:13:11.922Z</time></trkpt><trkpt lat="42.2726078" lon="12.5445099"><ele>43.0</ele><time>2026-05-03T12:13:15.943Z</time></trkpt><trkpt lat="42.2727183" lon="12.5444918"><ele>42.0</ele><time>2026-05-03T12:13:17.934Z</time></trkpt><trkpt lat="42.2727571" lon="12.5444126"><ele>41.0</ele><time>2026-05-03T12:13:18.945Z</time></trkpt><trkpt lat="42.2727969" lon="12.5442929"><ele>40.0</ele><time>2026-05-03T12:13:19.934Z</time></trkpt><trkpt lat="42.2728584" lon="12.5441363"><ele>39.0</ele><time>2026-05-03T12:13:20.943Z</time></trkpt><trkpt lat="42.2729543" lon="12.5439836"><ele>39.0</ele><time>2026-05-03T12:13:21.936Z</time></trkpt><trkpt lat="42.2730537" lon="12.5438423"><ele>39.0</ele><time>2026-05-03T12:13:22.939Z</time></trkpt><trkpt lat="42.2731641" lon="12.5437235"><ele>39.0</ele><time>2026-05-03T12:13:23.932Z</time></trkpt><trkpt lat="42.273281" lon="12.54362"><ele>39.0</ele><time>2026-05-03T12:13:24.937Z</time></trkpt><trkpt lat="42.2733947" lon="12.5435381"><ele>40.0</ele><time>2026-05-03T12:13:25.932Z</time></trkpt><trkpt lat="42.2734912" lon="12.5434656"><ele>41.0</ele><time>2026-05-03T12:13:26.937Z</time></trkpt><trkpt lat="42.2735916" lon="12.5433892"><ele>42.0</ele><time>2026-05-03T12:13:27.944Z</time></trkpt><trkpt lat="42.2736904" lon="12.5433827"><ele>43.0</ele><time>2026-05-03T12:13:28.937Z</time></trkpt><trkpt lat="42.2737757" lon="12.543401"><ele>44.0</ele><time>2026-05-03T12:13:29.942Z</time></trkpt><trkpt lat="42.2738397" lon="12.5434624"><ele>44.0</ele><time>2026-05-03T12:13:30.928Z</time></trkpt><trkpt lat="42.2738791" lon="12.5435964"><ele>44.0</ele><time>2026-05-03T12:13:31.938Z</time></trkpt><trkpt lat="42.2739258" lon="12.543755"><ele>44.0</ele><time>2026-05-03T12:13:32.937Z</time></trkpt><trkpt lat="42.2739832" lon="12.5439024"><ele>44.0</ele><time>2026-05-03T12:13:33.932Z</time></trkpt><trkpt lat="42.2740462" lon="12.5440536"><ele>42.666666666666664</ele><time>2026-05-03T12:13:34.946Z</time></trkpt><trkpt lat="42.2741286" lon="12.5442076"><ele>41.333333333333336</ele><time>2026-05-03T12:13:35.949Z</time></trkpt><trkpt lat="42.2742227" lon="12.5443612"><ele>40.0</ele><time>2026-05-03T12:13:36.94Z</time></trkpt><trkpt lat="42.2743156" lon="12.5445587"><ele>40.0</ele><time>2026-05-03T12:13:37.946Z</time></trkpt><trkpt lat="42.2744363" lon="12.54474"><ele>40.0</ele><time>2026-05-03T12:13:38.946Z</time></trkpt><trkpt lat="42.2745941" lon="12.5448735"><ele>40.0</ele><time>2026-05-03T12:13:39.933Z</time></trkpt><trkpt lat="42.2747779" lon="12.5450195"><ele>40.333333333333336</ele><time>2026-05-03T12:13:40.953Z</time></trkpt><trkpt lat="42.2749412" lon="12.5451033"><ele>40.666666666666664</ele><time>2026-05-03T12:13:41.939Z</time></trkpt><trkpt lat="42.2751386" lon="12.5451986"><ele>41.0</ele><time>2026-05-03T12:13:42.953Z</time></trkpt><trkpt lat="42.2753443" lon="12.5453249"><ele>40.0</ele><time>2026-05-03T12:13:43.944Z</time></trkpt><trkpt lat="42.2755395" lon="12.5454638"><ele>39.0</ele><time>2026-05-03T12:13:44.953Z</time></trkpt><trkpt lat="42.2757362" lon="12.5456333"><ele>39.0</ele><time>2026-05-03T12:13:45.948Z</time></trkpt><trkpt lat="42.2759248" lon="12.5457686"><ele>39.0</ele><time>2026-05-03T12:13:46.937Z</time></trkpt><trkpt lat="42.2760604" lon="12.5459234"><ele>39.0</ele><time>2026-05-03T12:13:47.949Z</time></trkpt><trkpt lat="42.2761666" lon="12.5461206"><ele>38.666666666666664</ele><time>2026-05-03T12:13:48.945Z</time></trkpt><trkpt lat="42.2762741" lon="12.5463584"><ele>38.33333333333333</ele><time>2026-05-03T12:13:49.951Z</time></trkpt><trkpt lat="42.2763814" lon="12.5466143"><ele>38.0</ele><time>2026-05-03T12:13:50.938Z</time></trkpt><trkpt lat="42.2764725" lon="12.5468523"><ele>37.666666666666664</ele><time>2026-05-03T12:13:51.938Z</time></trkpt><trkpt lat="42.2765698" lon="12.5471129"><ele>37.333333333333336</ele><time>2026-05-03T12:13:52.94Z</time></trkpt><trkpt lat="42.2766854" lon="12.5473706"><ele>37.0</ele><time>2026-05-03T12:13:53.95Z</time></trkpt><trkpt lat="42.2768035" lon="12.5476228"><ele>36.5</ele><time>2026-05-03T12:13:54.938Z</time></trkpt><trkpt lat="42.2769346" lon="12.5478969"><ele>36.0</ele><time>2026-05-03T12:13:55.949Z</time></trkpt><trkpt lat="42.2770563" lon="12.5481671"><ele>36.0</ele><time>2026-05-03T12:13:56.941Z</time></trkpt><trkpt lat="42.2771694" lon="12.5484207"><ele>36.0</ele><time>2026-05-03T12:13:57.948Z</time></trkpt><trkpt lat="42.2772865" lon="12.5486674"><ele>36.0</ele><time>2026-05-03T12:13:58.944Z</time></trkpt><trkpt lat="42.2773955" lon="12.5489256"><ele>35.5</ele><time>2026-05-03T12:13:59.948Z</time></trkpt><trkpt lat="42.2775075" lon="12.5491907"><ele>35.0</ele><time>2026-05-03T12:14:00.943Z</time></trkpt><trkpt lat="42.2776306" lon="12.5494635"><ele>34.5</ele><time>2026-05-03T12:14:01.945Z</time></trkpt><trkpt lat="42.2777635" lon="12.5497118"><ele>34.0</ele><time>2026-05-03T12:14:02.944Z</time></trkpt><trkpt lat="42.2778959" lon="12.5499671"><ele>34.0</ele><time>2026-05-03T12:14:03.94Z</time></trkpt><trkpt lat="42.278" lon="12.550248"><ele>34.0</ele><time>2026-05-03T12:14:04.943Z</time></trkpt><trkpt lat="42.2781076" lon="12.5504999"><ele>34.0</ele><time>2026-05-03T12:14:05.944Z</time></trkpt><trkpt lat="42.2782413" lon="12.5507697"><ele>34.5</ele><time>2026-05-03T12:14:06.938Z</time></trkpt><trkpt lat="42.2783693" lon="12.5510477"><ele>35.0</ele><time>2026-05-03T12:14:07.943Z</time></trkpt><trkpt lat="42.2785018" lon="12.551351"><ele>35.0</ele><time>2026-05-03T12:14:08.948Z</time></trkpt><trkpt lat="42.278642" lon="12.5516473"><ele>35.0</ele><time>2026-05-03T12:14:09.943Z</time></trkpt><trkpt lat="42.2787892" lon="12.5519681"><ele>35.0</ele><time>2026-05-03T12:14:10.941Z</time></trkpt><trkpt lat="42.2789332" lon="12.5522948"><ele>35.0</ele><time>2026-05-03T12:14:11.943Z</time></trkpt><trkpt lat="42.2790805" lon="12.552614"><ele>35.0</ele><time>2026-05-03T12:14:12.937Z</time></trkpt><trkpt lat="42.2792149" lon="12.5528874"><ele>35.0</ele><time>2026-05-03T12:14:13.945Z</time></trkpt><trkpt lat="42.2793472" lon="12.5531474"><ele>35.0</ele><time>2026-05-03T12:14:14.94Z</time></trkpt><trkpt lat="42.2794892" lon="12.5534093"><ele>35.0</ele><time>2026-05-03T12:14:15.946Z</time></trkpt><trkpt lat="42.2796071" lon="12.5536957"><ele>34.0</ele><time>2026-05-03T12:14:16.947Z</time></trkpt><trkpt lat="42.2797299" lon="12.554014"><ele>33.0</ele><time>2026-05-03T12:14:17.953Z</time></trkpt><trkpt lat="42.2798594" lon="12.5543118"><ele>33.0</ele><time>2026-05-03T12:14:18.95Z</time></trkpt><trkpt lat="42.2799905" lon="12.5545794"><ele>33.0</ele><time>2026-05-03T12:14:19.95Z</time></trkpt><trkpt lat="42.2801254" lon="12.5548194"><ele>33.0</ele><time>2026-05-03T12:14:20.952Z</time></trkpt><trkpt lat="42.2802541" lon="12.5550572"><ele>33.0</ele><time>2026-05-03T12:14:21.957Z</time></trkpt><trkpt lat="42.2803843" lon="12.5553104"><ele>33.0</ele><time>2026-05-03T12:14:22.948Z</time></trkpt><trkpt lat="42.2805145" lon="12.5555753"><ele>34.0</ele><time>2026-05-03T12:14:23.957Z</time></trkpt><trkpt lat="42.2806442" lon="12.5558377"><ele>35.0</ele><time>2026-05-03T12:14:24.949Z</time></trkpt><trkpt lat="42.2807725" lon="12.5561259"><ele>34.5</ele><time>2026-05-03T12:14:25.953Z</time></trkpt><trkpt lat="42.2809071" lon="12.5564234"><ele>34.0</ele><time>2026-05-03T12:14:26.945Z</time></trkpt><trkpt lat="42.2810444" lon="12.5567061"><ele>34.0</ele><time>2026-05-03T12:14:27.945Z</time></trkpt><trkpt lat="42.2811833" lon="12.5569666"><ele>34.0</ele><time>2026-05-03T12:14:28.949Z</time></trkpt><trkpt lat="42.2813074" lon="12.5572177"><ele>34.0</ele><time>2026-05-03T12:14:29.952Z</time></trkpt><trkpt lat="42.2814233" lon="12.5574666"><ele>34.0</ele><time>2026-05-03T12:14:30.953Z</time></trkpt><trkpt lat="42.2815417" lon="12.5577209"><ele>34.0</ele><time>2026-05-03T12:14:31.951Z</time></trkpt><trkpt lat="42.2816601" lon="12.5579876"><ele>33.5</ele><time>2026-05-03T12:14:32.949Z</time></trkpt><trkpt lat="42.2817859" lon="12.5582828"><ele>33.0</ele><time>2026-05-03T12:14:33.951Z</time></trkpt><trkpt lat="42.2819104" lon="12.5585818"><ele>33.5</ele><time>2026-05-03T12:14:34.947Z</time></trkpt><trkpt lat="42.2820494" lon="12.5588465"><ele>34.0</ele><time>2026-05-03T12:14:35.948Z</time></trkpt><trkpt lat="42.2821823" lon="12.5590934"><ele>34.0</ele><time>2026-05-03T12:14:36.947Z</time></trkpt><trkpt lat="42.2823215" lon="12.5593651"><ele>34.0</ele><time>2026-05-03T12:14:37.948Z</time></trkpt><trkpt lat="42.2824488" lon="12.5596586"><ele>34.0</ele><time>2026-05-03T12:14:38.945Z</time></trkpt><trkpt lat="42.2825879" lon="12.5599189"><ele>34.0</ele><time>2026-05-03T12:14:39.959Z</time></trkpt><trkpt lat="42.282701" lon="12.5602132"><ele>34.0</ele><time>2026-05-03T12:14:40.97Z</time></trkpt><trkpt lat="42.2828482" lon="12.5605022"><ele>34.0</ele><time>2026-05-03T12:14:41.948Z</time></trkpt><trkpt lat="42.2829734" lon="12.5607907"><ele>34.0</ele><time>2026-05-03T12:14:42.955Z</time></trkpt><trkpt lat="42.283117" lon="12.5610918"><ele>34.0</ele><time>2026-05-03T12:14:43.951Z</time></trkpt><trkpt lat="42.2832468" lon="12.5613793"><ele>34.5</ele><time>2026-05-03T12:14:44.951Z</time></trkpt><trkpt lat="42.2833762" lon="12.5616482"><ele>35.0</ele><time>2026-05-03T12:14:45.95Z</time></trkpt><trkpt lat="42.2835101" lon="12.5619286"><ele>34.0</ele><time>2026-05-03T12:14:46.95Z</time></trkpt><trkpt lat="42.2836503" lon="12.5622051"><ele>33.0</ele><time>2026-05-03T12:14:47.954Z</time></trkpt><trkpt lat="42.2837729" lon="12.5625087"><ele>33.0</ele><time>2026-05-03T12:14:48.948Z</time></trkpt><trkpt lat="42.2839167" lon="12.5628172"><ele>33.0</ele><time>2026-05-03T12:14:49.948Z</time></trkpt><trkpt lat="42.2840726" lon="12.5631006"><ele>33.5</ele><time>2026-05-03T12:14:50.948Z</time></trkpt><trkpt lat="42.2842003" lon="12.5633763"><ele>34.0</ele><time>2026-05-03T12:14:51.95Z</time></trkpt><trkpt lat="42.2843125" lon="12.5636409"><ele>33.5</ele><time>2026-05-03T12:14:52.943Z</time></trkpt><trkpt lat="42.2844279" lon="12.5639135"><ele>33.0</ele><time>2026-05-03T12:14:53.954Z</time></trkpt><trkpt lat="42.2845539" lon="12.5641928"><ele>33.0</ele><time>2026-05-03T12:14:54.947Z</time></trkpt><trkpt lat="42.2846817" lon="12.5644757"><ele>33.0</ele><time>2026-05-03T12:14:55.948Z</time></trkpt><trkpt lat="42.2848166" lon="12.5647681"><ele>33.5</ele><time>2026-05-03T12:14:56.958Z</time></trkpt><trkpt lat="42.2849599" lon="12.5650658"><ele>34.0</ele><time>2026-05-03T12:14:57.949Z</time></trkpt><trkpt lat="42.2850875" lon="12.5653647"><ele>34.0</ele><time>2026-05-03T12:14:58.927Z</time></trkpt><trkpt lat="42.2852098" lon="12.5656379"><ele>34.0</ele><time>2026-05-03T12:14:59.938Z</time></trkpt><trkpt lat="42.2853446" lon="12.5658934"><ele>34.0</ele><time>2026-05-03T12:15:00.932Z</time></trkpt><trkpt lat="42.2854845" lon="12.5661736"><ele>34.0</ele><time>2026-05-03T12:15:01.934Z</time></trkpt><trkpt lat="42.285622" lon="12.5664733"><ele>34.5</ele><time>2026-05-03T12:15:02.937Z</time></trkpt><trkpt lat="42.2857513" lon="12.5667653"><ele>35.0</ele><time>2026-05-03T12:15:03.937Z</time></trkpt><trkpt lat="42.2859044" lon="12.5670974"><ele>35.0</ele><time>2026-05-03T12:15:04.934Z</time></trkpt><trkpt lat="42.286055" lon="12.5674233"><ele>35.0</ele><time>2026-05-03T12:15:05.939Z</time></trkpt><trkpt lat="42.2861913" lon="12.5677069"><ele>35.5</ele><time>2026-05-03T12:15:06.939Z</time></trkpt><trkpt lat="42.2863241" lon="12.5679818"><ele>36.0</ele><time>2026-05-03T12:15:07.936Z</time></trkpt><trkpt lat="42.2864553" lon="12.5682628"><ele>36.0</ele><time>2026-05-03T12:15:08.929Z</time></trkpt><trkpt lat="42.2865951" lon="12.5685497"><ele>36.0</ele><time>2026-05-03T12:15:09.934Z</time></trkpt><trkpt lat="42.2867225" lon="12.568813"><ele>35.0</ele><time>2026-05-03T12:15:10.936Z</time></trkpt><trkpt lat="42.286848" lon="12.5690945"><ele>34.0</ele><time>2026-05-03T12:15:11.938Z</time></trkpt><trkpt lat="42.2869701" lon="12.5693472"><ele>34.0</ele><time>2026-05-03T12:15:12.929Z</time></trkpt><trkpt lat="42.2870977" lon="12.5695944"><ele>34.0</ele><time>2026-05-03T12:15:13.941Z</time></trkpt><trkpt lat="42.2872161" lon="12.5698383"><ele>34.0</ele><time>2026-05-03T12:15:14.932Z</time></trkpt><trkpt lat="42.2873128" lon="12.5700534"><ele>34.66666666666667</ele><time>2026-05-03T12:15:15.932Z</time></trkpt><trkpt lat="42.2873932" lon="12.5702615"><ele>35.333333333333336</ele><time>2026-05-03T12:15:16.934Z</time></trkpt><trkpt lat="42.2874484" lon="12.5705245"><ele>36.0</ele><time>2026-05-03T12:15:17.928Z</time></trkpt><trkpt lat="42.2874995" lon="12.5707631"><ele>36.0</ele><time>2026-05-03T12:15:18.931Z</time></trkpt><trkpt lat="42.2875579" lon="12.5709974"><ele>36.0</ele><time>2026-05-03T12:15:19.932Z</time></trkpt><trkpt lat="42.2875557" lon="12.5712018"><ele>36.0</ele><time>2026-05-03T12:15:20.937Z</time></trkpt><trkpt lat="42.2875428" lon="12.5714635"><ele>36.0</ele><time>2026-05-03T12:15:21.931Z</time></trkpt><trkpt lat="42.2875317" lon="12.5717499"><ele>36.0</ele><time>2026-05-03T12:15:22.926Z</time></trkpt><trkpt lat="42.2875456" lon="12.5720455"><ele>36.0</ele><time>2026-05-03T12:15:23.929Z</time></trkpt><trkpt lat="42.2875639" lon="12.5723371"><ele>36.5</ele><time>2026-05-03T12:15:24.926Z</time></trkpt><trkpt lat="42.2875473" lon="12.5726572"><ele>37.0</ele><time>2026-05-03T12:15:25.93Z</time></trkpt><trkpt lat="42.2875449" lon="12.5729676"><ele>37.0</ele><time>2026-05-03T12:15:26.93Z</time></trkpt><trkpt lat="42.2875632" lon="12.5732659"><ele>37.0</ele><time>2026-05-03T12:15:27.924Z</time></trkpt><trkpt lat="42.2875409" lon="12.5735596"><ele>37.0</ele><time>2026-05-03T12:15:28.928Z</time></trkpt><trkpt lat="42.2875367" lon="12.5738392"><ele>37.0</ele><time>2026-05-03T12:15:29.932Z</time></trkpt><trkpt lat="42.2875524" lon="12.574124"><ele>37.0</ele><time>2026-05-03T12:15:30.928Z</time></trkpt><trkpt lat="42.2875635" lon="12.5743879"><ele>37.0</ele><time>2026-05-03T12:15:31.935Z</time></trkpt><trkpt lat="42.2875924" lon="12.5746576"><ele>37.0</ele><time>2026-05-03T12:15:32.926Z</time></trkpt><trkpt lat="42.2876453" lon="12.5749001"><ele>37.0</ele><time>2026-05-03T12:15:33.938Z</time></trkpt><trkpt lat="42.28773" lon="12.5751417"><ele>37.0</ele><time>2026-05-03T12:15:34.934Z</time></trkpt><trkpt lat="42.2878459" lon="12.5753241"><ele>36.66666666666667</ele><time>2026-05-03T12:15:35.934Z</time></trkpt><trkpt lat="42.2879818" lon="12.5754901"><ele>36.333333333333336</ele><time>2026-05-03T12:15:36.929Z</time></trkpt><trkpt lat="42.2881255" lon="12.5756345"><ele>36.0</ele><time>2026-05-03T12:15:37.931Z</time></trkpt><trkpt lat="42.2882861" lon="12.5757374"><ele>37.0</ele><time>2026-05-03T12:15:38.932Z</time></trkpt><trkpt lat="42.2884637" lon="12.5758253"><ele>38.0</ele><time>2026-05-03T12:15:39.927Z</time></trkpt><trkpt lat="42.2885976" lon="12.5759173"><ele>39.0</ele><time>2026-05-03T12:15:40.926Z</time></trkpt><trkpt lat="42.2887162" lon="12.5759861"><ele>39.0</ele><time>2026-05-03T12:15:41.932Z</time></trkpt><trkpt lat="42.2888259" lon="12.576054"><ele>39.0</ele><time>2026-05-03T12:15:42.933Z</time></trkpt><trkpt lat="42.2889226" lon="12.5761234"><ele>39.0</ele><time>2026-05-03T12:15:43.93Z</time></trkpt><trkpt lat="42.2889919" lon="12.5762067"><ele>39.0</ele><time>2026-05-03T12:15:44.925Z</time></trkpt><trkpt lat="42.2890232" lon="12.576331"><ele>39.0</ele><time>2026-05-03T12:15:45.93Z</time></trkpt><trkpt lat="42.2890415" lon="12.5764993"><ele>39.5</ele><time>2026-05-03T12:15:46.922Z</time></trkpt><trkpt lat="42.2890146" lon="12.5767078"><ele>40.0</ele><time>2026-05-03T12:15:47.926Z</time></trkpt><trkpt lat="42.2890087" lon="12.5768974"><ele>40.5</ele><time>2026-05-03T12:15:48.921Z</time></trkpt><trkpt lat="42.2889691" lon="12.577087"><ele>41.0</ele><time>2026-05-03T12:15:49.927Z</time></trkpt><trkpt lat="42.2889104" lon="12.5773086"><ele>41.0</ele><time>2026-05-03T12:15:50.916Z</time></trkpt><trkpt lat="42.2888699" lon="12.5775603"><ele>41.0</ele><time>2026-05-03T12:15:51.93Z</time></trkpt><trkpt lat="42.2888568" lon="12.5777608"><ele>41.0</ele><time>2026-05-03T12:15:52.92Z</time></trkpt><trkpt lat="42.2888403" lon="12.5779668"><ele>41.25</ele><time>2026-05-03T12:15:53.917Z</time></trkpt><trkpt lat="42.2888354" lon="12.5781553"><ele>41.5</ele><time>2026-05-03T12:15:54.929Z</time></trkpt><trkpt lat="42.2888036" lon="12.5783208"><ele>41.75</ele><time>2026-05-03T12:15:55.917Z</time></trkpt><trkpt lat="42.2887245" lon="12.5784864"><ele>42.0</ele><time>2026-05-03T12:15:56.928Z</time></trkpt><trkpt lat="42.2886046" lon="12.5786411"><ele>43.666666666666664</ele><time>2026-05-03T12:15:57.924Z</time></trkpt><trkpt lat="42.2884765" lon="12.5788232"><ele>45.33333333333333</ele><time>2026-05-03T12:15:58.915Z</time></trkpt><trkpt lat="42.2883597" lon="12.5789489"><ele>47.0</ele><time>2026-05-03T12:15:59.922Z</time></trkpt><trkpt lat="42.2882202" lon="12.5790996"><ele>47.0</ele><time>2026-05-03T12:16:00.928Z</time></trkpt><trkpt lat="42.2881045" lon="12.5792842"><ele>47.0</ele><time>2026-05-03T12:16:01.92Z</time></trkpt><trkpt lat="42.2879621" lon="12.5794918"><ele>47.0</ele><time>2026-05-03T12:16:02.925Z</time></trkpt><trkpt lat="42.287819" lon="12.5797368"><ele>45.0</ele><time>2026-05-03T12:16:03.907Z</time></trkpt><trkpt lat="42.287654" lon="12.5799838"><ele>43.0</ele><time>2026-05-03T12:16:04.925Z</time></trkpt><trkpt lat="42.2875077" lon="12.5801894"><ele>41.66666666666667</ele><time>2026-05-03T12:16:05.922Z</time></trkpt><trkpt lat="42.2873831" lon="12.580397"><ele>40.333333333333336</ele><time>2026-05-03T12:16:06.929Z</time></trkpt><trkpt lat="42.2872623" lon="12.5805897"><ele>39.0</ele><time>2026-05-03T12:16:07.922Z</time></trkpt><trkpt lat="42.2871442" lon="12.5807944"><ele>39.0</ele><time>2026-05-03T12:16:08.93Z</time></trkpt><trkpt lat="42.2870447" lon="12.5809988"><ele>39.0</ele><time>2026-05-03T12:16:09.917Z</time></trkpt><trkpt lat="42.2869032" lon="12.581185"><ele>39.0</ele><time>2026-05-03T12:16:10.928Z</time></trkpt><trkpt lat="42.2867856" lon="12.5813759"><ele>40.0</ele><time>2026-05-03T12:16:11.926Z</time></trkpt><trkpt lat="42.2867031" lon="12.5816103"><ele>41.0</ele><time>2026-05-03T12:16:12.925Z</time></trkpt><trkpt lat="42.2866496" lon="12.5818709"><ele>42.0</ele><time>2026-05-03T12:16:13.917Z</time></trkpt><trkpt lat="42.2866075" lon="12.5821173"><ele>43.666666666666664</ele><time>2026-05-03T12:16:14.917Z</time></trkpt><trkpt lat="42.2865582" lon="12.582369"><ele>45.33333333333333</ele><time>2026-05-03T12:16:15.931Z</time></trkpt><trkpt lat="42.2865323" lon="12.5825989"><ele>47.0</ele><time>2026-05-03T12:16:16.916Z</time></trkpt><trkpt lat="42.2864767" lon="12.5828177"><ele>45.33333333333333</ele><time>2026-05-03T12:16:17.916Z</time></trkpt><trkpt lat="42.286371" lon="12.5830337"><ele>43.666666666666664</ele><time>2026-05-03T12:16:18.915Z</time></trkpt><trkpt lat="42.2862723" lon="12.5832657"><ele>42.0</ele><time>2026-05-03T12:16:19.926Z</time></trkpt><trkpt lat="42.2861809" lon="12.583506"><ele>43.666666666666664</ele><time>2026-05-03T12:16:20.916Z</time></trkpt><trkpt lat="42.2861008" lon="12.5837346"><ele>45.33333333333333</ele><time>2026-05-03T12:16:21.922Z</time></trkpt><trkpt lat="42.2860419" lon="12.5839513"><ele>47.0</ele><time>2026-05-03T12:16:22.926Z</time></trkpt><trkpt lat="42.285985" lon="12.5841801"><ele>47.0</ele><time>2026-05-03T12:16:23.918Z</time></trkpt><trkpt lat="42.2859436" lon="12.5844331"><ele>47.0</ele><time>2026-05-03T12:16:24.923Z</time></trkpt><trkpt lat="42.2858995" lon="12.5847155"><ele>47.0</ele><time>2026-05-03T12:16:25.922Z</time></trkpt><trkpt lat="42.2858827" lon="12.584998"><ele>46.666666666666664</ele><time>2026-05-03T12:16:26.925Z</time></trkpt><trkpt lat="42.2858657" lon="12.5852607"><ele>46.333333333333336</ele><time>2026-05-03T12:16:27.925Z</time></trkpt><trkpt lat="42.2858089" lon="12.5855196"><ele>46.0</ele><time>2026-05-03T12:16:28.923Z</time></trkpt><trkpt lat="42.2857224" lon="12.5857688"><ele>46.0</ele><time>2026-05-03T12:16:29.932Z</time></trkpt><trkpt lat="42.2856111" lon="12.5860197"><ele>46.0</ele><time>2026-05-03T12:16:30.933Z</time></trkpt><trkpt lat="42.2854906" lon="12.5862994"><ele>45.0</ele><time>2026-05-03T12:16:31.938Z</time></trkpt><trkpt lat="42.2853839" lon="12.5865337"><ele>44.0</ele><time>2026-05-03T12:16:32.936Z</time></trkpt><trkpt lat="42.2852973" lon="12.5867799"><ele>43.0</ele><time>2026-05-03T12:16:33.944Z</time></trkpt><trkpt lat="42.2852084" lon="12.5870326"><ele>43.0</ele><time>2026-05-03T12:16:34.939Z</time></trkpt><trkpt lat="42.2851067" lon="12.5872788"><ele>43.0</ele><time>2026-05-03T12:16:35.936Z</time></trkpt><trkpt lat="42.2850239" lon="12.5875008"><ele>43.0</ele><time>2026-05-03T12:16:36.934Z</time></trkpt><trkpt lat="42.2849539" lon="12.5877144"><ele>43.333333333333336</ele><time>2026-05-03T12:16:37.93Z</time></trkpt><trkpt lat="42.2848701" lon="12.5879431"><ele>43.666666666666664</ele><time>2026-05-03T12:16:38.932Z</time></trkpt><trkpt lat="42.2847817" lon="12.5881858"><ele>44.0</ele><time>2026-05-03T12:16:39.939Z</time></trkpt><trkpt lat="42.2846852" lon="12.5884411"><ele>42.666666666666664</ele><time>2026-05-03T12:16:40.931Z</time></trkpt><trkpt lat="42.2845922" lon="12.5886826"><ele>41.333333333333336</ele><time>2026-05-03T12:16:41.939Z</time></trkpt><trkpt lat="42.2845046" lon="12.5889108"><ele>40.0</ele><time>2026-05-03T12:16:42.936Z</time></trkpt><trkpt lat="42.2844383" lon="12.5891291"><ele>40.0</ele><time>2026-05-03T12:16:43.945Z</time></trkpt><trkpt lat="42.2843497" lon="12.5893554"><ele>40.0</ele><time>2026-05-03T12:16:44.925Z</time></trkpt><trkpt lat="42.2842656" lon="12.5895685"><ele>40.0</ele><time>2026-05-03T12:16:45.934Z</time></trkpt><trkpt lat="42.2841797" lon="12.5897906"><ele>41.0</ele><time>2026-05-03T12:16:46.935Z</time></trkpt><trkpt lat="42.2840931" lon="12.5900171"><ele>42.0</ele><time>2026-05-03T12:16:47.941Z</time></trkpt><trkpt lat="42.2840067" lon="12.5902357"><ele>43.0</ele><time>2026-05-03T12:16:48.928Z</time></trkpt><trkpt lat="42.2839385" lon="12.5903899"><ele>42.0</ele><time>2026-05-03T12:16:49.927Z</time></trkpt><trkpt lat="42.2838898" lon="12.5906017"><ele>41.0</ele><time>2026-05-03T12:16:50.921Z</time></trkpt><trkpt lat="42.2838302" lon="12.5907755"><ele>40.0</ele><time>2026-05-03T12:16:51.929Z</time></trkpt><trkpt lat="42.2837739" lon="12.590891"><ele>39.0</ele><time>2026-05-03T12:16:52.925Z</time></trkpt><trkpt lat="42.283713" lon="12.5910177"><ele>39.0</ele><time>2026-05-03T12:16:53.927Z</time></trkpt><trkpt lat="42.2835725" lon="12.5910739"><ele>39.0</ele><time>2026-05-03T12:16:55.929Z</time></trkpt><trkpt lat="42.2835044" lon="12.5911992"><ele>39.0</ele><time>2026-05-03T12:16:56.931Z</time></trkpt><trkpt lat="42.2834507" lon="12.5913392"><ele>39.0</ele><time>2026-05-03T12:16:57.935Z</time></trkpt><trkpt lat="42.2834055" lon="12.5914925"><ele>39.75</ele><time>2026-05-03T12:16:58.925Z</time></trkpt><trkpt lat="42.2833535" lon="12.5916486"><ele>40.5</ele><time>2026-05-03T12:16:59.93Z</time></trkpt><trkpt lat="42.2832883" lon="12.5918151"><ele>41.25</ele><time>2026-05-03T12:17:00.936Z</time></trkpt><trkpt lat="42.2832179" lon="12.591991"><ele>42.0</ele><time>2026-05-03T12:17:01.934Z</time></trkpt><trkpt lat="42.2831346" lon="12.5921936"><ele>40.666666666666664</ele><time>2026-05-03T12:17:02.93Z</time></trkpt><trkpt lat="42.2830665" lon="12.5923877"><ele>39.33333333333333</ele><time>2026-05-03T12:17:03.935Z</time></trkpt><trkpt lat="42.2829801" lon="12.5925821"><ele>38.0</ele><time>2026-05-03T12:17:04.935Z</time></trkpt><trkpt lat="42.2829023" lon="12.5928111"><ele>38.666666666666664</ele><time>2026-05-03T12:17:05.922Z</time></trkpt><trkpt lat="42.2828303" lon="12.5930361"><ele>39.333333333333336</ele><time>2026-05-03T12:17:06.926Z</time></trkpt><trkpt lat="42.2827558" lon="12.5932798"><ele>40.0</ele><time>2026-05-03T12:17:07.926Z</time></trkpt><trkpt lat="42.2826731" lon="12.5935091"><ele>40.66666666666667</ele><time>2026-05-03T12:17:08.93Z</time></trkpt><trkpt lat="42.2825662" lon="12.5937366"><ele>41.333333333333336</ele><time>2026-05-03T12:17:09.92Z</time></trkpt><trkpt lat="42.2824969" lon="12.5940371"><ele>42.0</ele><time>2026-05-03T12:17:10.923Z</time></trkpt><trkpt lat="42.2824149" lon="12.5943553"><ele>42.666666666666664</ele><time>2026-05-03T12:17:11.925Z</time></trkpt><trkpt lat="42.2823756" lon="12.5946462"><ele>43.33333333333333</ele><time>2026-05-03T12:17:12.917Z</time></trkpt><trkpt lat="42.2823188" lon="12.5949039"><ele>44.0</ele><time>2026-05-03T12:17:13.919Z</time></trkpt><trkpt lat="42.2822675" lon="12.5951507"><ele>42.666666666666664</ele><time>2026-05-03T12:17:14.923Z</time></trkpt><trkpt lat="42.2822364" lon="12.595403"><ele>41.333333333333336</ele><time>2026-05-03T12:17:15.916Z</time></trkpt><trkpt lat="42.2822027" lon="12.5956534"><ele>40.0</ele><time>2026-05-03T12:17:16.921Z</time></trkpt><trkpt lat="42.2821848" lon="12.5959257"><ele>40.0</ele><time>2026-05-03T12:17:17.92Z</time></trkpt><trkpt lat="42.28216" lon="12.5961808"><ele>40.0</ele><time>2026-05-03T12:17:18.922Z</time></trkpt><trkpt lat="42.2821205" lon="12.5964454"><ele>40.0</ele><time>2026-05-03T12:17:19.92Z</time></trkpt><trkpt lat="42.2820621" lon="12.5967093"><ele>40.0</ele><time>2026-05-03T12:17:20.929Z</time></trkpt><trkpt lat="42.2820173" lon="12.5970036"><ele>40.0</ele><time>2026-05-03T12:17:21.926Z</time></trkpt><trkpt lat="42.2819483" lon="12.59729"><ele>40.0</ele><time>2026-05-03T12:17:22.931Z</time></trkpt><trkpt lat="42.2818654" lon="12.5975557"><ele>40.0</ele><time>2026-05-03T12:17:23.925Z</time></trkpt><trkpt lat="42.2817879" lon="12.5978308"><ele>40.0</ele><time>2026-05-03T12:17:24.931Z</time></trkpt><trkpt lat="42.2817161" lon="12.5980874"><ele>40.0</ele><time>2026-05-03T12:17:25.927Z</time></trkpt><trkpt lat="42.2816488" lon="12.5983496"><ele>40.0</ele><time>2026-05-03T12:17:26.932Z</time></trkpt><trkpt lat="42.2815829" lon="12.5986285"><ele>40.0</ele><time>2026-05-03T12:17:27.933Z</time></trkpt><trkpt lat="42.2815089" lon="12.5989084"><ele>40.0</ele><time>2026-05-03T12:17:28.933Z</time></trkpt><trkpt lat="42.2814446" lon="12.5991995"><ele>39.5</ele><time>2026-05-03T12:17:29.944Z</time></trkpt><trkpt lat="42.2813929" lon="12.59951"><ele>39.0</ele><time>2026-05-03T12:17:30.929Z</time></trkpt><trkpt lat="42.2813388" lon="12.5998223"><ele>39.0</ele><time>2026-05-03T12:17:31.932Z</time></trkpt><trkpt lat="42.2812758" lon="12.6001085"><ele>39.0</ele><time>2026-05-03T12:17:32.937Z</time></trkpt><trkpt lat="42.2811958" lon="12.6003901"><ele>39.0</ele><time>2026-05-03T12:17:33.929Z</time></trkpt><trkpt lat="42.2811136" lon="12.6006704"><ele>39.666666666666664</ele><time>2026-05-03T12:17:34.929Z</time></trkpt><trkpt lat="42.2810133" lon="12.6009121"><ele>40.33333333333333</ele><time>2026-05-03T12:17:35.934Z</time></trkpt><trkpt lat="42.2809135" lon="12.6011974"><ele>41.0</ele><time>2026-05-03T12:17:36.929Z</time></trkpt><trkpt lat="42.280815" lon="12.6014452"><ele>41.33333333333333</ele><time>2026-05-03T12:17:37.932Z</time></trkpt><trkpt lat="42.2807108" lon="12.6016791"><ele>41.666666666666664</ele><time>2026-05-03T12:17:38.924Z</time></trkpt><trkpt lat="42.2806152" lon="12.6018919"><ele>42.0</ele><time>2026-05-03T12:17:39.934Z</time></trkpt><trkpt lat="42.2805093" lon="12.6020798"><ele>42.0</ele><time>2026-05-03T12:17:40.951Z</time></trkpt><trkpt lat="42.2803892" lon="12.6022979"><ele>42.0</ele><time>2026-05-03T12:17:41.926Z</time></trkpt><trkpt lat="42.2802458" lon="12.6024972"><ele>42.0</ele><time>2026-05-03T12:17:42.932Z</time></trkpt><trkpt lat="42.2800988" lon="12.6026572"><ele>42.333333333333336</ele><time>2026-05-03T12:17:43.931Z</time></trkpt><trkpt lat="42.2799469" lon="12.6028479"><ele>42.66666666666667</ele><time>2026-05-03T12:17:44.929Z</time></trkpt><trkpt lat="42.2797995" lon="12.6030272"><ele>43.0</ele><time>2026-05-03T12:17:45.937Z</time></trkpt><trkpt lat="42.2796741" lon="12.6032627"><ele>42.333333333333336</ele><time>2026-05-03T12:17:46.93Z</time></trkpt><trkpt lat="42.2795191" lon="12.6034809"><ele>41.666666666666664</ele><time>2026-05-03T12:17:47.936Z</time></trkpt><trkpt lat="42.2793628" lon="12.6036615"><ele>41.0</ele><time>2026-05-03T12:17:48.927Z</time></trkpt><trkpt lat="42.2791913" lon="12.6038384"><ele>41.0</ele><time>2026-05-03T12:17:49.935Z</time></trkpt><trkpt lat="42.2790415" lon="12.6040304"><ele>41.0</ele><time>2026-05-03T12:17:50.92Z</time></trkpt><trkpt lat="42.2788836" lon="12.604214"><ele>41.0</ele><time>2026-05-03T12:17:51.928Z</time></trkpt><trkpt lat="42.2787232" lon="12.6044427"><ele>40.33333333333333</ele><time>2026-05-03T12:17:52.931Z</time></trkpt><trkpt lat="42.2785749" lon="12.6046679"><ele>39.666666666666664</ele><time>2026-05-03T12:17:53.929Z</time></trkpt><trkpt lat="42.2784286" lon="12.6048584"><ele>39.0</ele><time>2026-05-03T12:17:54.93Z</time></trkpt><trkpt lat="42.2782975" lon="12.6050048"><ele>39.0</ele><time>2026-05-03T12:17:55.931Z</time></trkpt><trkpt lat="42.2781452" lon="12.6051646"><ele>39.0</ele><time>2026-05-03T12:17:56.924Z</time></trkpt><trkpt lat="42.2779983" lon="12.6053587"><ele>39.0</ele><time>2026-05-03T12:17:57.928Z</time></trkpt><trkpt lat="42.2778662" lon="12.6055121"><ele>39.333333333333336</ele><time>2026-05-03T12:17:58.931Z</time></trkpt><trkpt lat="42.2777521" lon="12.6056653"><ele>39.66666666666667</ele><time>2026-05-03T12:17:59.946Z</time></trkpt><trkpt lat="42.2775809" lon="12.6058062"><ele>40.0</ele><time>2026-05-03T12:18:00.926Z</time></trkpt><trkpt lat="42.2774311" lon="12.6059456"><ele>40.0</ele><time>2026-05-03T12:18:01.932Z</time></trkpt><trkpt lat="42.2772726" lon="12.606121"><ele>40.0</ele><time>2026-05-03T12:18:02.921Z</time></trkpt><trkpt lat="42.277143" lon="12.606334"><ele>40.0</ele><time>2026-05-03T12:18:03.956Z</time></trkpt><trkpt lat="42.2770169" lon="12.6065848"><ele>40.0</ele><time>2026-05-03T12:18:04.916Z</time></trkpt><trkpt lat="42.2769216" lon="12.6068404"><ele>40.0</ele><time>2026-05-03T12:18:05.938Z</time></trkpt><trkpt lat="42.2768545" lon="12.6071285"><ele>40.0</ele><time>2026-05-03T12:18:06.927Z</time></trkpt><trkpt lat="42.2767949" lon="12.6074049"><ele>40.0</ele><time>2026-05-03T12:18:07.923Z</time></trkpt><trkpt lat="42.2767353" lon="12.6076387"><ele>40.0</ele><time>2026-05-03T12:18:08.927Z</time></trkpt><trkpt lat="42.2766786" lon="12.6078771"><ele>40.0</ele><time>2026-05-03T12:18:09.929Z</time></trkpt><trkpt lat="42.2766071" lon="12.608133"><ele>40.0</ele><time>2026-05-03T12:18:10.928Z</time></trkpt><trkpt lat="42.2765303" lon="12.6083611"><ele>40.0</ele><time>2026-05-03T12:18:11.928Z</time></trkpt><trkpt lat="42.2764248" lon="12.6086001"><ele>40.0</ele><time>2026-05-03T12:18:12.925Z</time></trkpt><trkpt lat="42.2763019" lon="12.6088328"><ele>41.66666666666667</ele><time>2026-05-03T12:18:13.929Z</time></trkpt><trkpt lat="42.2761746" lon="12.6090251"><ele>43.333333333333336</ele><time>2026-05-03T12:18:14.92Z</time></trkpt><trkpt lat="42.2760506" lon="12.6092032"><ele>45.0</ele><time>2026-05-03T12:18:15.938Z</time></trkpt><trkpt lat="42.275941" lon="12.6093768"><ele>45.666666666666664</ele><time>2026-05-03T12:18:16.936Z</time></trkpt><trkpt lat="42.275807" lon="12.6095008"><ele>46.33333333333333</ele><time>2026-05-03T12:18:17.924Z</time></trkpt><trkpt lat="42.2756218" lon="12.6095674"><ele>47.0</ele><time>2026-05-03T12:18:18.926Z</time></trkpt><trkpt lat="42.2754277" lon="12.6096608"><ele>47.0</ele><time>2026-05-03T12:18:19.92Z</time></trkpt><trkpt lat="42.2752649" lon="12.6097935"><ele>47.0</ele><time>2026-05-03T12:18:20.918Z</time></trkpt><trkpt lat="42.2751054" lon="12.609889"><ele>47.0</ele><time>2026-05-03T12:18:21.927Z</time></trkpt><trkpt lat="42.2749425" lon="12.6099927"><ele>47.0</ele><time>2026-05-03T12:18:22.924Z</time></trkpt><trkpt lat="42.2747658" lon="12.6100846"><ele>47.0</ele><time>2026-05-03T12:18:23.917Z</time></trkpt><trkpt lat="42.2746121" lon="12.6102314"><ele>47.0</ele><time>2026-05-03T12:18:24.925Z</time></trkpt><trkpt lat="42.2744427" lon="12.6104241"><ele>47.0</ele><time>2026-05-03T12:18:25.924Z</time></trkpt><trkpt lat="42.2743069" lon="12.6106204"><ele>47.0</ele><time>2026-05-03T12:18:26.93Z</time></trkpt><trkpt lat="42.2741498" lon="12.6107995"><ele>47.0</ele><time>2026-05-03T12:18:27.933Z</time></trkpt><trkpt lat="42.2740034" lon="12.6109726"><ele>46.0</ele><time>2026-05-03T12:18:28.92Z</time></trkpt><trkpt lat="42.27385" lon="12.61112"><ele>45.0</ele><time>2026-05-03T12:18:29.932Z</time></trkpt><trkpt lat="42.2737322" lon="12.6112305"><ele>44.0</ele><time>2026-05-03T12:18:30.928Z</time></trkpt><trkpt lat="42.2735641" lon="12.6113599"><ele>46.33333333333333</ele><time>2026-05-03T12:18:31.919Z</time></trkpt><trkpt lat="42.2733869" lon="12.6114062"><ele>48.666666666666664</ele><time>2026-05-03T12:18:32.928Z</time></trkpt><trkpt lat="42.273214" lon="12.6113877"><ele>51.0</ele><time>2026-05-03T12:18:33.923Z</time></trkpt><trkpt lat="42.2730418" lon="12.6113773"><ele>52.5</ele><time>2026-05-03T12:18:34.929Z</time></trkpt><trkpt lat="42.2728815" lon="12.6113697"><ele>54.0</ele><time>2026-05-03T12:18:35.935Z</time></trkpt><trkpt lat="42.2727553" lon="12.6114025"><ele>55.5</ele><time>2026-05-03T12:18:36.931Z</time></trkpt><trkpt lat="42.2726193" lon="12.6115041"><ele>57.0</ele><time>2026-05-03T12:18:37.924Z</time></trkpt><trkpt lat="42.2725073" lon="12.6116107"><ele>57.0</ele><time>2026-05-03T12:18:38.932Z</time></trkpt><trkpt lat="42.2723859" lon="12.6117588"><ele>57.0</ele><time>2026-05-03T12:18:39.931Z</time></trkpt><trkpt lat="42.2722607" lon="12.6119246"><ele>57.0</ele><time>2026-05-03T12:18:40.923Z</time></trkpt><trkpt lat="42.2721466" lon="12.6120909"><ele>60.0</ele><time>2026-05-03T12:18:41.925Z</time></trkpt><trkpt lat="42.2720224" lon="12.6122402"><ele>63.0</ele><time>2026-05-03T12:18:42.927Z</time></trkpt><trkpt lat="42.2718849" lon="12.6123764"><ele>66.0</ele><time>2026-05-03T12:18:43.926Z</time></trkpt><trkpt lat="42.2717297" lon="12.6125191"><ele>66.0</ele><time>2026-05-03T12:18:44.93Z</time></trkpt><trkpt lat="42.2715749" lon="12.612654"><ele>66.0</ele><time>2026-05-03T12:18:45.928Z</time></trkpt><trkpt lat="42.271448" lon="12.6127905"><ele>66.0</ele><time>2026-05-03T12:18:46.922Z</time></trkpt><trkpt lat="42.2713259" lon="12.6129166"><ele>66.5</ele><time>2026-05-03T12:18:47.94Z</time></trkpt><trkpt lat="42.2712016" lon="12.6130475"><ele>67.0</ele><time>2026-05-03T12:18:48.917Z</time></trkpt><trkpt lat="42.2711184" lon="12.6131997"><ele>67.5</ele><time>2026-05-03T12:18:49.928Z</time></trkpt><trkpt lat="42.2710777" lon="12.6133823"><ele>68.0</ele><time>2026-05-03T12:18:50.926Z</time></trkpt><trkpt lat="42.2710691" lon="12.6135926"><ele>68.0</ele><time>2026-05-03T12:18:51.921Z</time></trkpt><trkpt lat="42.2710634" lon="12.613833"><ele>68.0</ele><time>2026-05-03T12:18:52.925Z</time></trkpt><trkpt lat="42.2710713" lon="12.6140999"><ele>68.0</ele><time>2026-05-03T12:18:53.919Z</time></trkpt><trkpt lat="42.2710707" lon="12.6143219"><ele>68.75</ele><time>2026-05-03T12:18:54.919Z</time></trkpt><trkpt lat="42.2710788" lon="12.6144895"><ele>69.5</ele><time>2026-05-03T12:18:55.915Z</time></trkpt><trkpt lat="42.2711227" lon="12.6146616"><ele>70.25</ele><time>2026-05-03T12:18:56.932Z</time></trkpt><trkpt lat="42.2712143" lon="12.6148271"><ele>71.0</ele><time>2026-05-03T12:18:57.917Z</time></trkpt><trkpt lat="42.2713372" lon="12.6149792"><ele>74.0</ele><time>2026-05-03T12:18:58.93Z</time></trkpt><trkpt lat="42.2715002" lon="12.6151511"><ele>77.0</ele><time>2026-05-03T12:18:59.928Z</time></trkpt><trkpt lat="42.2716285" lon="12.6152631"><ele>80.0</ele><time>2026-05-03T12:19:00.925Z</time></trkpt><trkpt lat="42.2717406" lon="12.6153835"><ele>80.5</ele><time>2026-05-03T12:19:01.925Z</time></trkpt><trkpt lat="42.2718164" lon="12.6155491"><ele>81.0</ele><time>2026-05-03T12:19:02.93Z</time></trkpt><trkpt lat="42.2718834" lon="12.6157307"><ele>81.5</ele><time>2026-05-03T12:19:03.921Z</time></trkpt><trkpt lat="42.2718852" lon="12.6159326"><ele>82.0</ele><time>2026-05-03T12:19:04.931Z</time></trkpt><trkpt lat="42.2718758" lon="12.616159"><ele>83.66666666666666</ele><time>2026-05-03T12:19:05.923Z</time></trkpt><trkpt lat="42.2717833" lon="12.6164129"><ele>85.33333333333333</ele><time>2026-05-03T12:19:06.918Z</time></trkpt><trkpt lat="42.2716899" lon="12.6166875"><ele>87.0</ele><time>2026-05-03T12:19:07.927Z</time></trkpt><trkpt lat="42.2716069" lon="12.6169302"><ele>87.33333333333333</ele><time>2026-05-03T12:19:08.924Z</time></trkpt><trkpt lat="42.2715399" lon="12.6171692"><ele>87.66666666666666</ele><time>2026-05-03T12:19:09.924Z</time></trkpt><trkpt lat="42.2714599" lon="12.6173738"><ele>88.0</ele><time>2026-05-03T12:19:10.927Z</time></trkpt><trkpt lat="42.2713942" lon="12.6175886"><ele>85.0</ele><time>2026-05-03T12:19:11.914Z</time></trkpt><trkpt lat="42.2713449" lon="12.6178199"><ele>82.0</ele><time>2026-05-03T12:19:12.925Z</time></trkpt><trkpt lat="42.2713056" lon="12.6180757"><ele>79.0</ele><time>2026-05-03T12:19:13.929Z</time></trkpt><trkpt lat="42.2712931" lon="12.6183268"><ele>79.0</ele><time>2026-05-03T12:19:14.925Z</time></trkpt><trkpt lat="42.2712788" lon="12.6185816"><ele>79.0</ele><time>2026-05-03T12:19:15.928Z</time></trkpt><trkpt lat="42.2712897" lon="12.6188577"><ele>79.0</ele><time>2026-05-03T12:19:16.932Z</time></trkpt><trkpt lat="42.271276" lon="12.619131"><ele>78.33333333333333</ele><time>2026-05-03T12:19:17.929Z</time></trkpt><trkpt lat="42.271266" lon="12.6193883"><ele>77.66666666666667</ele><time>2026-05-03T12:19:18.935Z</time></trkpt><trkpt lat="42.271266" lon="12.6196428"><ele>77.0</ele><time>2026-05-03T12:19:19.926Z</time></trkpt><trkpt lat="42.2712285" lon="12.6198902"><ele>77.0</ele><time>2026-05-03T12:19:20.93Z</time></trkpt><trkpt lat="42.2711647" lon="12.6201563"><ele>77.0</ele><time>2026-05-03T12:19:21.922Z</time></trkpt><trkpt lat="42.2711293" lon="12.620376"><ele>77.0</ele><time>2026-05-03T12:19:22.926Z</time></trkpt><trkpt lat="42.2710911" lon="12.6205989"><ele>77.25</ele><time>2026-05-03T12:19:23.926Z</time></trkpt><trkpt lat="42.2710448" lon="12.6208061"><ele>77.5</ele><time>2026-05-03T12:19:24.929Z</time></trkpt><trkpt lat="42.2710402" lon="12.6209862"><ele>77.75</ele><time>2026-05-03T12:19:25.929Z</time></trkpt><trkpt lat="42.2710636" lon="12.6211695"><ele>78.0</ele><time>2026-05-03T12:19:26.928Z</time></trkpt><trkpt lat="42.2711105" lon="12.6213414"><ele>78.0</ele><time>2026-05-03T12:19:27.932Z</time></trkpt><trkpt lat="42.2711773" lon="12.6215446"><ele>78.0</ele><time>2026-05-03T12:19:28.921Z</time></trkpt><trkpt lat="42.2712631" lon="12.6217464"><ele>78.0</ele><time>2026-05-03T12:19:29.928Z</time></trkpt><trkpt lat="42.2713205" lon="12.6219392"><ele>76.0</ele><time>2026-05-03T12:19:30.923Z</time></trkpt><trkpt lat="42.2713593" lon="12.6221374"><ele>74.0</ele><time>2026-05-03T12:19:31.929Z</time></trkpt><trkpt lat="42.2713756" lon="12.6223547"><ele>72.0</ele><time>2026-05-03T12:19:32.918Z</time></trkpt><trkpt lat="42.2713612" lon="12.6225825"><ele>70.66666666666667</ele><time>2026-05-03T12:19:33.928Z</time></trkpt><trkpt lat="42.2713329" lon="12.6228431"><ele>69.33333333333334</ele><time>2026-05-03T12:19:34.925Z</time></trkpt><trkpt lat="42.2712761" lon="12.6231087"><ele>68.0</ele><time>2026-05-03T12:19:35.928Z</time></trkpt><trkpt lat="42.271212" lon="12.6233723"><ele>65.33333333333334</ele><time>2026-05-03T12:19:36.924Z</time></trkpt><trkpt lat="42.2711487" lon="12.6236487"><ele>62.66666666666667</ele><time>2026-05-03T12:19:37.922Z</time></trkpt><trkpt lat="42.2711025" lon="12.6239378"><ele>60.0</ele><time>2026-05-03T12:19:38.94Z</time></trkpt><trkpt lat="42.2710418" lon="12.6242134"><ele>59.66666666666667</ele><time>2026-05-03T12:19:39.932Z</time></trkpt><trkpt lat="42.2709773" lon="12.6244824"><ele>59.333333333333336</ele><time>2026-05-03T12:19:40.933Z</time></trkpt><trkpt lat="42.2709208" lon="12.6247631"><ele>59.0</ele><time>2026-05-03T12:19:41.94Z</time></trkpt><trkpt lat="42.2708546" lon="12.62501"><ele>59.0</ele><time>2026-05-03T12:19:42.931Z</time></trkpt><trkpt lat="42.2707731" lon="12.6252071"><ele>59.0</ele><time>2026-05-03T12:19:43.929Z</time></trkpt><trkpt lat="42.2706496" lon="12.6253967"><ele>59.0</ele><time>2026-05-03T12:19:44.931Z</time></trkpt><trkpt lat="42.2705582" lon="12.6255569"><ele>58.66666666666667</ele><time>2026-05-03T12:19:45.932Z</time></trkpt><trkpt lat="42.2704692" lon="12.6257266"><ele>58.33333333333333</ele><time>2026-05-03T12:19:46.927Z</time></trkpt><trkpt lat="42.2704393" lon="12.6259377"><ele>58.0</ele><time>2026-05-03T12:19:47.927Z</time></trkpt><trkpt lat="42.2704621" lon="12.6261745"><ele>58.0</ele><time>2026-05-03T12:19:48.929Z</time></trkpt><trkpt lat="42.2705165" lon="12.6264195"><ele>58.0</ele><time>2026-05-03T12:19:49.936Z</time></trkpt><trkpt lat="42.2705949" lon="12.6266868"><ele>58.0</ele><time>2026-05-03T12:19:50.934Z</time></trkpt><trkpt lat="42.2706427" lon="12.6269441"><ele>60.33333333333333</ele><time>2026-05-03T12:19:51.929Z</time></trkpt><trkpt lat="42.2706996" lon="12.6271853"><ele>62.66666666666667</ele><time>2026-05-03T12:19:52.926Z</time></trkpt><trkpt lat="42.2707417" lon="12.6274096"><ele>65.0</ele><time>2026-05-03T12:19:53.937Z</time></trkpt><trkpt lat="42.2708162" lon="12.6276456"><ele>64.66666666666667</ele><time>2026-05-03T12:19:54.925Z</time></trkpt><trkpt lat="42.2708561" lon="12.6278624"><ele>64.33333333333333</ele><time>2026-05-03T12:19:55.929Z</time></trkpt><trkpt lat="42.270895" lon="12.628059"><ele>64.0</ele><time>2026-05-03T12:19:56.928Z</time></trkpt><trkpt lat="42.2709092" lon="12.6282673"><ele>64.0</ele><time>2026-05-03T12:19:57.928Z</time></trkpt><trkpt lat="42.2708946" lon="12.6284899"><ele>64.0</ele><time>2026-05-03T12:19:58.93Z</time></trkpt><trkpt lat="42.2708624" lon="12.6287015"><ele>64.0</ele><time>2026-05-03T12:19:59.934Z</time></trkpt><trkpt lat="42.2708101" lon="12.6289409"><ele>64.0</ele><time>2026-05-03T12:20:00.922Z</time></trkpt><trkpt lat="42.2707629" lon="12.6291641"><ele>64.0</ele><time>2026-05-03T12:20:01.932Z</time></trkpt><trkpt lat="42.2707427" lon="12.6293644"><ele>64.0</ele><time>2026-05-03T12:20:02.928Z</time></trkpt><trkpt lat="42.2707383" lon="12.6295576"><ele>63.0</ele><time>2026-05-03T12:20:03.933Z</time></trkpt><trkpt lat="42.2707565" lon="12.6297796"><ele>62.0</ele><time>2026-05-03T12:20:04.926Z</time></trkpt><trkpt lat="42.2707973" lon="12.6300203"><ele>61.0</ele><time>2026-05-03T12:20:05.928Z</time></trkpt><trkpt lat="42.2708482" lon="12.6302523"><ele>61.0</ele><time>2026-05-03T12:20:06.933Z</time></trkpt><trkpt lat="42.2708681" lon="12.6304837"><ele>61.0</ele><time>2026-05-03T12:20:07.93Z</time></trkpt><trkpt lat="42.2709035" lon="12.6307473"><ele>61.0</ele><time>2026-05-03T12:20:08.933Z</time></trkpt><trkpt lat="42.2709475" lon="12.6310312"><ele>60.0</ele><time>2026-05-03T12:20:09.929Z</time></trkpt><trkpt lat="42.2709808" lon="12.6312902"><ele>59.0</ele><time>2026-05-03T12:20:10.93Z</time></trkpt><trkpt lat="42.2710314" lon="12.6315741"><ele>58.0</ele><time>2026-05-03T12:20:11.926Z</time></trkpt><trkpt lat="42.2710695" lon="12.6318384"><ele>56.666666666666664</ele><time>2026-05-03T12:20:12.928Z</time></trkpt><trkpt lat="42.2710967" lon="12.6320586"><ele>55.33333333333333</ele><time>2026-05-03T12:20:13.929Z</time></trkpt><trkpt lat="42.2711147" lon="12.6322586"><ele>54.0</ele><time>2026-05-03T12:20:14.92Z</time></trkpt><trkpt lat="42.2711342" lon="12.6324777"><ele>54.0</ele><time>2026-05-03T12:20:15.924Z</time></trkpt><trkpt lat="42.2711458" lon="12.632711"><ele>54.0</ele><time>2026-05-03T12:20:16.93Z</time></trkpt><trkpt lat="42.2711853" lon="12.632951"><ele>54.0</ele><time>2026-05-03T12:20:17.925Z</time></trkpt><trkpt lat="42.2712324" lon="12.6332149"><ele>53.33333333333333</ele><time>2026-05-03T12:20:18.927Z</time></trkpt><trkpt lat="42.2712521" lon="12.6334746"><ele>52.666666666666664</ele><time>2026-05-03T12:20:19.924Z</time></trkpt><trkpt lat="42.2712776" lon="12.633746"><ele>52.0</ele><time>2026-05-03T12:20:20.935Z</time></trkpt><trkpt lat="42.2713337" lon="12.6340248"><ele>52.0</ele><time>2026-05-03T12:20:21.922Z</time></trkpt><trkpt lat="42.2713826" lon="12.6342854"><ele>52.0</ele><time>2026-05-03T12:20:22.921Z</time></trkpt><trkpt lat="42.271406" lon="12.63455"><ele>52.0</ele><time>2026-05-03T12:20:23.921Z</time></trkpt><trkpt lat="42.271403" lon="12.6348622"><ele>52.33333333333333</ele><time>2026-05-03T12:20:24.926Z</time></trkpt><trkpt lat="42.2713797" lon="12.6351682"><ele>52.66666666666667</ele><time>2026-05-03T12:20:25.925Z</time></trkpt><trkpt lat="42.2713688" lon="12.635466"><ele>53.0</ele><time>2026-05-03T12:20:26.927Z</time></trkpt><trkpt lat="42.271358" lon="12.6356972"><ele>53.66666666666667</ele><time>2026-05-03T12:20:27.928Z</time></trkpt><trkpt lat="42.2713781" lon="12.6359724"><ele>54.33333333333333</ele><time>2026-05-03T12:20:28.919Z</time></trkpt><trkpt lat="42.2713876" lon="12.63624"><ele>55.0</ele><time>2026-05-03T12:20:29.925Z</time></trkpt><trkpt lat="42.2713761" lon="12.6364782"><ele>55.0</ele><time>2026-05-03T12:20:30.924Z</time></trkpt><trkpt lat="42.2713944" lon="12.6366872"><ele>55.0</ele><time>2026-05-03T12:20:31.927Z</time></trkpt><trkpt lat="42.2714442" lon="12.6369238"><ele>55.0</ele><time>2026-05-03T12:20:32.922Z</time></trkpt><trkpt lat="42.2714931" lon="12.6370993"><ele>55.666666666666664</ele><time>2026-05-03T12:20:33.924Z</time></trkpt><trkpt lat="42.2715713" lon="12.6372656"><ele>56.33333333333333</ele><time>2026-05-03T12:20:34.926Z</time></trkpt><trkpt lat="42.2716884" lon="12.6374462"><ele>57.0</ele><time>2026-05-03T12:20:35.923Z</time></trkpt><trkpt lat="42.2718289" lon="12.637662"><ele>56.33333333333333</ele><time>2026-05-03T12:20:36.928Z</time></trkpt><trkpt lat="42.271943" lon="12.6378535"><ele>55.666666666666664</ele><time>2026-05-03T12:20:37.932Z</time></trkpt><trkpt lat="42.2720624" lon="12.638044"><ele>55.0</ele><time>2026-05-03T12:20:38.927Z</time></trkpt><trkpt lat="42.2722248" lon="12.6382307"><ele>56.666666666666664</ele><time>2026-05-03T12:20:39.931Z</time></trkpt><trkpt lat="42.2724153" lon="12.6383145"><ele>58.33333333333333</ele><time>2026-05-03T12:20:40.928Z</time></trkpt><trkpt lat="42.2725688" lon="12.6384329"><ele>60.0</ele><time>2026-05-03T12:20:41.928Z</time></trkpt><trkpt lat="42.2726915" lon="12.6385608"><ele>59.66666666666667</ele><time>2026-05-03T12:20:42.928Z</time></trkpt><trkpt lat="42.2728329" lon="12.6387029"><ele>59.333333333333336</ele><time>2026-05-03T12:20:43.924Z</time></trkpt><trkpt lat="42.272968" lon="12.6388339"><ele>59.0</ele><time>2026-05-03T12:20:44.931Z</time></trkpt><trkpt lat="42.2730806" lon="12.6389943"><ele>59.75</ele><time>2026-05-03T12:20:45.928Z</time></trkpt><trkpt lat="42.2731771" lon="12.6391197"><ele>60.5</ele><time>2026-05-03T12:20:46.929Z</time></trkpt><trkpt lat="42.2732829" lon="12.6392315"><ele>61.25</ele><time>2026-05-03T12:20:47.923Z</time></trkpt><trkpt lat="42.2734118" lon="12.6393467"><ele>62.0</ele><time>2026-05-03T12:20:48.93Z</time></trkpt><trkpt lat="42.2735289" lon="12.6394729"><ele>62.0</ele><time>2026-05-03T12:20:49.928Z</time></trkpt><trkpt lat="42.273645" lon="12.6396036"><ele>62.0</ele><time>2026-05-03T12:20:50.928Z</time></trkpt><trkpt lat="42.2737267" lon="12.6396848"><ele>62.0</ele><time>2026-05-03T12:20:51.932Z</time></trkpt><trkpt lat="42.2737933" lon="12.6397928"><ele>62.0</ele><time>2026-05-03T12:20:52.923Z</time></trkpt><trkpt lat="42.273836" lon="12.6398753"><ele>62.0</ele><time>2026-05-03T12:20:53.932Z</time></trkpt><trkpt lat="42.2738838" lon="12.6399655"><ele>62.00000000000001</ele><time>2026-05-03T12:20:55.928Z</time></trkpt><trkpt lat="42.2739353" lon="12.6400331"><ele>62.0</ele><time>2026-05-03T12:20:57.932Z</time></trkpt><trkpt lat="42.2740423" lon="12.6400782"><ele>62.0</ele><time>2026-05-03T12:20:59.926Z</time></trkpt><trkpt lat="42.2741165" lon="12.6400619"><ele>62.0</ele><time>2026-05-03T12:21:00.926Z</time></trkpt><trkpt lat="42.2742004" lon="12.6400391"><ele>62.00000000000001</ele><time>2026-05-03T12:21:01.917Z</time></trkpt><trkpt lat="42.2742915" lon="12.6400377"><ele>62.0</ele><time>2026-05-03T12:21:02.919Z</time></trkpt><trkpt lat="42.274401" lon="12.640049"><ele>63.25</ele><time>2026-05-03T12:21:03.925Z</time></trkpt><trkpt lat="42.274515" lon="12.6400805"><ele>64.5</ele><time>2026-05-03T12:21:04.924Z</time></trkpt><trkpt lat="42.2746346" lon="12.6401532"><ele>65.75</ele><time>2026-05-03T12:21:05.925Z</time></trkpt><trkpt lat="42.2747454" lon="12.6402786"><ele>67.0</ele><time>2026-05-03T12:21:06.919Z</time></trkpt><trkpt lat="42.27484" lon="12.6404231"><ele>67.0</ele><time>2026-05-03T12:21:07.916Z</time></trkpt><trkpt lat="42.2749456" lon="12.6405914"><ele>67.0</ele><time>2026-05-03T12:21:08.924Z</time></trkpt><trkpt lat="42.2750692" lon="12.6408024"><ele>67.0</ele><time>2026-05-03T12:21:09.923Z</time></trkpt><trkpt lat="42.2751874" lon="12.6409745"><ele>65.33333333333333</ele><time>2026-05-03T12:21:10.92Z</time></trkpt><trkpt lat="42.2753051" lon="12.6411739"><ele>63.66666666666667</ele><time>2026-05-03T12:21:11.922Z</time></trkpt><trkpt lat="42.2754198" lon="12.6413788"><ele>62.0</ele><time>2026-05-03T12:21:12.919Z</time></trkpt><trkpt lat="42.2755057" lon="12.6415715"><ele>62.0</ele><time>2026-05-03T12:21:13.917Z</time></trkpt><trkpt lat="42.2755835" lon="12.6417209"><ele>62.0</ele><time>2026-05-03T12:21:14.921Z</time></trkpt><trkpt lat="42.2756364" lon="12.6418928"><ele>62.0</ele><time>2026-05-03T12:21:15.919Z</time></trkpt><trkpt lat="42.2756798" lon="12.6420661"><ele>62.0</ele><time>2026-05-03T12:21:16.919Z</time></trkpt><trkpt lat="42.2757068" lon="12.64227"><ele>63.0</ele><time>2026-05-03T12:21:17.91Z</time></trkpt><trkpt lat="42.2757491" lon="12.6424689"><ele>64.0</ele><time>2026-05-03T12:21:18.919Z</time></trkpt><trkpt lat="42.275824" lon="12.6427118"><ele>65.0</ele><time>2026-05-03T12:21:19.916Z</time></trkpt><trkpt lat="42.2759089" lon="12.6429203"><ele>65.0</ele><time>2026-05-03T12:21:20.92Z</time></trkpt><trkpt lat="42.2760004" lon="12.6431442"><ele>65.0</ele><time>2026-05-03T12:21:21.923Z</time></trkpt><trkpt lat="42.2761087" lon="12.6433909"><ele>65.0</ele><time>2026-05-03T12:21:22.926Z</time></trkpt><trkpt lat="42.2761915" lon="12.6436212"><ele>64.66666666666667</ele><time>2026-05-03T12:21:23.928Z</time></trkpt><trkpt lat="42.2762658" lon="12.643814"><ele>64.33333333333333</ele><time>2026-05-03T12:21:24.924Z</time></trkpt><trkpt lat="42.2763667" lon="12.644026"><ele>64.0</ele><time>2026-05-03T12:21:25.926Z</time></trkpt><trkpt lat="42.2764828" lon="12.6442679"><ele>65.66666666666666</ele><time>2026-05-03T12:21:26.931Z</time></trkpt><trkpt lat="42.2766088" lon="12.6445281"><ele>67.33333333333333</ele><time>2026-05-03T12:21:27.922Z</time></trkpt><trkpt lat="42.2767159" lon="12.6447823"><ele>69.0</ele><time>2026-05-03T12:21:28.922Z</time></trkpt><trkpt lat="42.2768272" lon="12.6450372"><ele>68.0</ele><time>2026-05-03T12:21:29.926Z</time></trkpt><trkpt lat="42.2769348" lon="12.6453209"><ele>67.0</ele><time>2026-05-03T12:21:30.931Z</time></trkpt><trkpt lat="42.2770565" lon="12.645596"><ele>67.0</ele><time>2026-05-03T12:21:31.93Z</time></trkpt><trkpt lat="42.2771556" lon="12.6458589"><ele>67.0</ele><time>2026-05-03T12:21:32.922Z</time></trkpt><trkpt lat="42.2772655" lon="12.6460808"><ele>67.0</ele><time>2026-05-03T12:21:33.922Z</time></trkpt><trkpt lat="42.2773915" lon="12.6462941"><ele>68.66666666666666</ele><time>2026-05-03T12:21:34.919Z</time></trkpt><trkpt lat="42.2775178" lon="12.6464979"><ele>70.33333333333333</ele><time>2026-05-03T12:21:35.923Z</time></trkpt><trkpt lat="42.2776704" lon="12.6467079"><ele>72.0</ele><time>2026-05-03T12:21:36.92Z</time></trkpt><trkpt lat="42.2778156" lon="12.6469268"><ele>72.5</ele><time>2026-05-03T12:21:37.925Z</time></trkpt><trkpt lat="42.2779834" lon="12.6471395"><ele>73.0</ele><time>2026-05-03T12:21:38.922Z</time></trkpt><trkpt lat="42.2781596" lon="12.6473536"><ele>73.0</ele><time>2026-05-03T12:21:39.926Z</time></trkpt><trkpt lat="42.2783169" lon="12.6475564"><ele>73.0</ele><time>2026-05-03T12:21:40.925Z</time></trkpt><trkpt lat="42.2784954" lon="12.647755"><ele>73.0</ele><time>2026-05-03T12:21:41.93Z</time></trkpt><trkpt lat="42.2786815" lon="12.6479547"><ele>74.0</ele><time>2026-05-03T12:21:42.934Z</time></trkpt><trkpt lat="42.2788649" lon="12.6481318"><ele>75.0</ele><time>2026-05-03T12:21:43.931Z</time></trkpt><trkpt lat="42.2790563" lon="12.6483039"><ele>75.0</ele><time>2026-05-03T12:21:44.928Z</time></trkpt><trkpt lat="42.279245" lon="12.6484751"><ele>75.0</ele><time>2026-05-03T12:21:45.932Z</time></trkpt><trkpt lat="42.2794496" lon="12.6486383"><ele>75.5</ele><time>2026-05-03T12:21:46.924Z</time></trkpt><trkpt lat="42.279656" lon="12.6488099"><ele>76.0</ele><time>2026-05-03T12:21:47.928Z</time></trkpt><trkpt lat="42.2798275" lon="12.6489735"><ele>76.0</ele><time>2026-05-03T12:21:48.921Z</time></trkpt><trkpt lat="42.2800009" lon="12.649114"><ele>76.0</ele><time>2026-05-03T12:21:49.925Z</time></trkpt><trkpt lat="42.2801557" lon="12.6492309"><ele>76.0</ele><time>2026-05-03T12:21:50.924Z</time></trkpt><trkpt lat="42.2803149" lon="12.6493359"><ele>76.0</ele><time>2026-05-03T12:21:51.925Z</time></trkpt><trkpt lat="42.2804717" lon="12.649432"><ele>76.0</ele><time>2026-05-03T12:21:52.93Z</time></trkpt><trkpt lat="42.2806424" lon="12.6495245"><ele>76.0</ele><time>2026-05-03T12:21:53.925Z</time></trkpt><trkpt lat="42.2808145" lon="12.6496258"><ele>75.66666666666666</ele><time>2026-05-03T12:21:54.919Z</time></trkpt><trkpt lat="42.2809916" lon="12.6497126"><ele>75.33333333333333</ele><time>2026-05-03T12:21:55.926Z</time></trkpt><trkpt lat="42.281166" lon="12.6497943"><ele>75.0</ele><time>2026-05-03T12:21:56.929Z</time></trkpt><trkpt lat="42.2813428" lon="12.6498862"><ele>75.66666666666667</ele><time>2026-05-03T12:21:57.934Z</time></trkpt><trkpt lat="42.2815418" lon="12.6499837"><ele>76.33333333333334</ele><time>2026-05-03T12:21:58.918Z</time></trkpt><trkpt lat="42.2817248" lon="12.6500662"><ele>77.0</ele><time>2026-05-03T12:21:59.92Z</time></trkpt><trkpt lat="42.2819204" lon="12.650144"><ele>77.0</ele><time>2026-05-03T12:22:00.921Z</time></trkpt><trkpt lat="42.2821495" lon="12.650239"><ele>77.0</ele><time>2026-05-03T12:22:01.926Z</time></trkpt><trkpt lat="42.2823474" lon="12.6503163"><ele>77.0</ele><time>2026-05-03T12:22:02.927Z</time></trkpt><trkpt lat="42.2825405" lon="12.6504354"><ele>76.66666666666667</ele><time>2026-05-03T12:22:03.922Z</time></trkpt><trkpt lat="42.2827324" lon="12.6505273"><ele>76.33333333333333</ele><time>2026-05-03T12:22:04.929Z</time></trkpt><trkpt lat="42.282903" lon="12.6506335"><ele>76.0</ele><time>2026-05-03T12:22:05.926Z</time></trkpt><trkpt lat="42.2830877" lon="12.6507565"><ele>78.0</ele><time>2026-05-03T12:22:06.927Z</time></trkpt><trkpt lat="42.2832663" lon="12.6508655"><ele>80.0</ele><time>2026-05-03T12:22:07.92Z</time></trkpt><trkpt lat="42.2834251" lon="12.650979"><ele>82.0</ele><time>2026-05-03T12:22:08.927Z</time></trkpt><trkpt lat="42.2835635" lon="12.65108"><ele>82.66666666666666</ele><time>2026-05-03T12:22:09.926Z</time></trkpt><trkpt lat="42.2837349" lon="12.6512038"><ele>83.33333333333333</ele><time>2026-05-03T12:22:10.92Z</time></trkpt><trkpt lat="42.2839017" lon="12.651329"><ele>84.0</ele><time>2026-05-03T12:22:11.921Z</time></trkpt><trkpt lat="42.2840777" lon="12.6514203"><ele>84.0</ele><time>2026-05-03T12:22:12.92Z</time></trkpt><trkpt lat="42.2842322" lon="12.6515095"><ele>84.0</ele><time>2026-05-03T12:22:13.917Z</time></trkpt><trkpt lat="42.2843739" lon="12.6515824"><ele>84.0</ele><time>2026-05-03T12:22:14.92Z</time></trkpt><trkpt lat="42.2845053" lon="12.651661"><ele>84.0</ele><time>2026-05-03T12:22:15.921Z</time></trkpt><trkpt lat="42.2846127" lon="12.6517378"><ele>84.0</ele><time>2026-05-03T12:22:16.926Z</time></trkpt><trkpt lat="42.284719" lon="12.65183"><ele>84.0</ele><time>2026-05-03T12:22:17.923Z</time></trkpt><trkpt lat="42.2847816" lon="12.6518919"><ele>84.0</ele><time>2026-05-03T12:22:18.926Z</time></trkpt><trkpt lat="42.2848341" lon="12.6519664"><ele>84.0</ele><time>2026-05-03T12:22:19.914Z</time></trkpt><trkpt lat="42.2848314" lon="12.652111"><ele>84.0</ele><time>2026-05-03T12:22:21.926Z</time></trkpt><trkpt lat="42.2847491" lon="12.6522341"><ele>84.0</ele><time>2026-05-03T12:22:23.92Z</time></trkpt><trkpt lat="42.2846871" lon="12.6523677"><ele>84.0</ele><time>2026-05-03T12:22:25.922Z</time></trkpt><trkpt lat="42.2846797" lon="12.6524533"><ele>84.0</ele><time>2026-05-03T12:22:26.914Z</time></trkpt><trkpt lat="42.2847206" lon="12.6526075"><ele>84.0</ele><time>2026-05-03T12:22:28.916Z</time></trkpt><trkpt lat="42.2847748" lon="12.6526818"><ele>84.0</ele><time>2026-05-03T12:22:29.919Z</time></trkpt><trkpt lat="42.2848479" lon="12.6527365"><ele>84.0</ele><time>2026-05-03T12:22:30.926Z</time></trkpt><trkpt lat="42.2849342" lon="12.6527905"><ele>84.0</ele><time>2026-05-03T12:22:31.919Z</time></trkpt><trkpt lat="42.2850265" lon="12.6528496"><ele>84.0</ele><time>2026-05-03T12:22:32.921Z</time></trkpt><trkpt lat="42.2851138" lon="12.6529125"><ele>84.0</ele><time>2026-05-03T12:22:33.928Z</time></trkpt><trkpt lat="42.2851967" lon="12.6529733"><ele>83.6</ele><time>2026-05-03T12:22:34.923Z</time></trkpt><trkpt lat="42.2852878" lon="12.6530464"><ele>83.2</ele><time>2026-05-03T12:22:35.922Z</time></trkpt><trkpt lat="42.2853833" lon="12.6531226"><ele>82.8</ele><time>2026-05-03T12:22:36.92Z</time></trkpt><trkpt lat="42.2854761" lon="12.6532074"><ele>82.39999999999999</ele><time>2026-05-03T12:22:37.925Z</time></trkpt><trkpt lat="42.2855707" lon="12.6533066"><ele>82.0</ele><time>2026-05-03T12:22:38.924Z</time></trkpt><trkpt lat="42.2856479" lon="12.6534161"><ele>82.75</ele><time>2026-05-03T12:22:39.919Z</time></trkpt><trkpt lat="42.285717" lon="12.6535379"><ele>83.5</ele><time>2026-05-03T12:22:40.918Z</time></trkpt><trkpt lat="42.2857883" lon="12.653675"><ele>84.25</ele><time>2026-05-03T12:22:41.918Z</time></trkpt><trkpt lat="42.2858628" lon="12.6538051"><ele>85.0</ele><time>2026-05-03T12:22:42.922Z</time></trkpt><trkpt lat="42.2859257" lon="12.6539249"><ele>85.0</ele><time>2026-05-03T12:22:43.915Z</time></trkpt><trkpt lat="42.2859932" lon="12.6540513"><ele>85.0</ele><time>2026-05-03T12:22:44.914Z</time></trkpt><trkpt lat="42.286064" lon="12.654172"><ele>85.0</ele><time>2026-05-03T12:22:45.922Z</time></trkpt><trkpt lat="42.2861468" lon="12.6542933"><ele>85.0</ele><time>2026-05-03T12:22:46.922Z</time></trkpt><trkpt lat="42.2862409" lon="12.6544163"><ele>85.5</ele><time>2026-05-03T12:22:47.922Z</time></trkpt><trkpt lat="42.2863445" lon="12.6545237"><ele>86.0</ele><time>2026-05-03T12:22:48.921Z</time></trkpt><trkpt lat="42.2864618" lon="12.6546149"><ele>86.5</ele><time>2026-05-03T12:22:49.925Z</time></trkpt><trkpt lat="42.2865889" lon="12.6546994"><ele>87.0</ele><time>2026-05-03T12:22:50.924Z</time></trkpt><trkpt lat="42.2867409" lon="12.6548106"><ele>87.0</ele><time>2026-05-03T12:22:51.926Z</time></trkpt><trkpt lat="42.286886" lon="12.6549338"><ele>87.0</ele><time>2026-05-03T12:22:52.921Z</time></trkpt><trkpt lat="42.2870131" lon="12.6550038"><ele>87.0</ele><time>2026-05-03T12:22:53.915Z</time></trkpt><trkpt lat="42.2871418" lon="12.6550859"><ele>87.0</ele><time>2026-05-03T12:22:54.918Z</time></trkpt><trkpt lat="42.2872322" lon="12.6551414"><ele>87.0</ele><time>2026-05-03T12:22:55.916Z</time></trkpt><trkpt lat="42.2873089" lon="12.6551886"><ele>87.0</ele><time>2026-05-03T12:22:56.923Z</time></trkpt><trkpt lat="42.2874001" lon="12.6552395"><ele>87.0</ele><time>2026-05-03T12:22:57.924Z</time></trkpt><trkpt lat="42.2874852" lon="12.6552979"><ele>87.0</ele><time>2026-05-03T12:22:58.923Z</time></trkpt><trkpt lat="42.2875694" lon="12.6553611"><ele>86.75</ele><time>2026-05-03T12:22:59.919Z</time></trkpt><trkpt lat="42.2876562" lon="12.6554366"><ele>86.5</ele><time>2026-05-03T12:23:00.916Z</time></trkpt><trkpt lat="42.2877474" lon="12.6555308"><ele>86.25</ele><time>2026-05-03T12:23:01.92Z</time></trkpt><trkpt lat="42.2878452" lon="12.6556379"><ele>86.0</ele><time>2026-05-03T12:23:02.915Z</time></trkpt><trkpt lat="42.2879377" lon="12.6557328"><ele>86.0</ele><time>2026-05-03T12:23:03.921Z</time></trkpt><trkpt lat="42.2880211" lon="12.6558127"><ele>86.0</ele><time>2026-05-03T12:23:04.924Z</time></trkpt><trkpt lat="42.2881064" lon="12.6559008"><ele>86.0</ele><time>2026-05-03T12:23:05.921Z</time></trkpt><trkpt lat="42.2882028" lon="12.655994"><ele>86.0</ele><time>2026-05-03T12:23:06.925Z</time></trkpt><trkpt lat="42.2883045" lon="12.6560946"><ele>85.75</ele><time>2026-05-03T12:23:07.92Z</time></trkpt><trkpt lat="42.2884139" lon="12.6562047"><ele>85.5</ele><time>2026-05-03T12:23:08.922Z</time></trkpt><trkpt lat="42.2885137" lon="12.6563048"><ele>85.25</ele><time>2026-05-03T12:23:09.922Z</time></trkpt><trkpt lat="42.2886081" lon="12.6563988"><ele>85.0</ele><time>2026-05-03T12:23:10.918Z</time></trkpt><trkpt lat="42.2887006" lon="12.6564885"><ele>85.0</ele><time>2026-05-03T12:23:11.926Z</time></trkpt><trkpt lat="42.2888024" lon="12.6565827"><ele>85.0</ele><time>2026-05-03T12:23:12.924Z</time></trkpt><trkpt lat="42.2889006" lon="12.6566703"><ele>85.0</ele><time>2026-05-03T12:23:13.924Z</time></trkpt><trkpt lat="42.2889993" lon="12.6567622"><ele>85.0</ele><time>2026-05-03T12:23:14.928Z</time></trkpt><trkpt lat="42.2890974" lon="12.6568584"><ele>85.6</ele><time>2026-05-03T12:23:15.925Z</time></trkpt><trkpt lat="42.2891847" lon="12.6569495"><ele>86.2</ele><time>2026-05-03T12:23:16.925Z</time></trkpt><trkpt lat="42.2892737" lon="12.6570461"><ele>86.80000000000001</ele><time>2026-05-03T12:23:17.924Z</time></trkpt><trkpt lat="42.2893612" lon="12.6571433"><ele>87.4</ele><time>2026-05-03T12:23:18.921Z</time></trkpt><trkpt lat="42.2894301" lon="12.6572254"><ele>88.0</ele><time>2026-05-03T12:23:19.93Z</time></trkpt><trkpt lat="42.2894978" lon="12.6573146"><ele>88.0</ele><time>2026-05-03T12:23:20.924Z</time></trkpt><trkpt lat="42.2895503" lon="12.6574047"><ele>88.0</ele><time>2026-05-03T12:23:21.926Z</time></trkpt><trkpt lat="42.2895935" lon="12.6575207"><ele>88.0</ele><time>2026-05-03T12:23:22.914Z</time></trkpt><trkpt lat="42.2896449" lon="12.6576596"><ele>88.0</ele><time>2026-05-03T12:23:23.923Z</time></trkpt><trkpt lat="42.2896937" lon="12.6577988"><ele>88.0</ele><time>2026-05-03T12:23:24.916Z</time></trkpt><trkpt lat="42.2897572" lon="12.6579223"><ele>89.0</ele><time>2026-05-03T12:23:25.923Z</time></trkpt><trkpt lat="42.2898348" lon="12.6580181"><ele>90.0</ele><time>2026-05-03T12:23:26.925Z</time></trkpt><trkpt lat="42.2899231" lon="12.6580699"><ele>91.0</ele><time>2026-05-03T12:23:27.922Z</time></trkpt><trkpt lat="42.2900428" lon="12.6580756"><ele>92.0</ele><time>2026-05-03T12:23:28.919Z</time></trkpt><trkpt lat="42.2901739" lon="12.6580757"><ele>92.0</ele><time>2026-05-03T12:23:29.915Z</time></trkpt><trkpt lat="42.2903028" lon="12.6580885"><ele>92.0</ele><time>2026-05-03T12:23:30.914Z</time></trkpt><trkpt lat="42.290439" lon="12.6581095"><ele>92.0</ele><time>2026-05-03T12:23:31.916Z</time></trkpt><trkpt lat="42.2905542" lon="12.6581212"><ele>92.0</ele><time>2026-05-03T12:23:32.914Z</time></trkpt><trkpt lat="42.2906835" lon="12.6581418"><ele>93.33333333333334</ele><time>2026-05-03T12:23:33.921Z</time></trkpt><trkpt lat="42.2908296" lon="12.6581734"><ele>94.66666666666667</ele><time>2026-05-03T12:23:34.92Z</time></trkpt><trkpt lat="42.2910233" lon="12.6582231"><ele>96.0</ele><time>2026-05-03T12:23:35.926Z</time></trkpt><trkpt lat="42.2911902" lon="12.6582917"><ele>96.0</ele><time>2026-05-03T12:23:36.921Z</time></trkpt><trkpt lat="42.2913459" lon="12.6583294"><ele>96.0</ele><time>2026-05-03T12:23:37.918Z</time></trkpt><trkpt lat="42.2915139" lon="12.6583574"><ele>96.0</ele><time>2026-05-03T12:23:38.922Z</time></trkpt><trkpt lat="42.2916896" lon="12.6583926"><ele>98.33333333333334</ele><time>2026-05-03T12:23:39.922Z</time></trkpt><trkpt lat="42.2918504" lon="12.6584054"><ele>100.66666666666667</ele><time>2026-05-03T12:23:40.938Z</time></trkpt><trkpt lat="42.2920176" lon="12.6584019"><ele>103.0</ele><time>2026-05-03T12:23:41.921Z</time></trkpt><trkpt lat="42.2922128" lon="12.6584021"><ele>105.25</ele><time>2026-05-03T12:23:42.945Z</time></trkpt><trkpt lat="42.2923561" lon="12.6584165"><ele>107.5</ele><time>2026-05-03T12:23:43.915Z</time></trkpt><trkpt lat="42.2925147" lon="12.6584204"><ele>109.75</ele><time>2026-05-03T12:23:44.918Z</time></trkpt><trkpt lat="42.2926488" lon="12.6584311"><ele>112.0</ele><time>2026-05-03T12:23:45.921Z</time></trkpt><trkpt lat="42.2927517" lon="12.6584507"><ele>112.0</ele><time>2026-05-03T12:23:46.914Z</time></trkpt><trkpt lat="42.2929141" lon="12.6585202"><ele>112.0</ele><time>2026-05-03T12:23:47.917Z</time></trkpt><trkpt lat="42.2930669" lon="12.6585684"><ele>112.0</ele><time>2026-05-03T12:23:48.923Z</time></trkpt><trkpt lat="42.293217" lon="12.6586474"><ele>116.25</ele><time>2026-05-03T12:23:49.922Z</time></trkpt><trkpt lat="42.2933591" lon="12.6587017"><ele>120.5</ele><time>2026-05-03T12:23:50.917Z</time></trkpt><trkpt lat="42.293496" lon="12.6587329"><ele>124.75</ele><time>2026-05-03T12:23:51.917Z</time></trkpt><trkpt lat="42.2935992" lon="12.6587789"><ele>129.0</ele><time>2026-05-03T12:23:52.915Z</time></trkpt><trkpt lat="42.2937382" lon="12.658863"><ele>129.0</ele><time>2026-05-03T12:23:53.918Z</time></trkpt><trkpt lat="42.2938328" lon="12.6589019"><ele>129.0</ele><time>2026-05-03T12:23:54.917Z</time></trkpt><trkpt lat="42.2939023" lon="12.6589405"><ele>129.0</ele><time>2026-05-03T12:23:55.917Z</time></trkpt><trkpt lat="42.2939643" lon="12.6590043"><ele>129.0</ele><time>2026-05-03T12:23:56.928Z</time></trkpt><trkpt lat="42.2940112" lon="12.6590951"><ele>129.0</ele><time>2026-05-03T12:23:57.922Z</time></trkpt><trkpt lat="42.2940676" lon="12.6591825"><ele>129.0</ele><time>2026-05-03T12:23:58.907Z</time></trkpt><trkpt lat="42.2941156" lon="12.6592997"><ele>130.8</ele><time>2026-05-03T12:23:59.92Z</time></trkpt><trkpt lat="42.2941761" lon="12.6594405"><ele>132.60000000000002</ele><time>2026-05-03T12:24:00.912Z</time></trkpt><trkpt lat="42.2942341" lon="12.6595792"><ele>134.4</ele><time>2026-05-03T12:24:01.912Z</time></trkpt><trkpt lat="42.2942818" lon="12.6597007"><ele>136.20000000000002</ele><time>2026-05-03T12:24:02.923Z</time></trkpt><trkpt lat="42.2943471" lon="12.659799"><ele>138.0</ele><time>2026-05-03T12:24:03.916Z</time></trkpt><trkpt lat="42.2944328" lon="12.6598786"><ele>138.0</ele><time>2026-05-03T12:24:04.904Z</time></trkpt><trkpt lat="42.29454" lon="12.6599288"><ele>138.0</ele><time>2026-05-03T12:24:05.913Z</time></trkpt><trkpt lat="42.2946578" lon="12.6599539"><ele>138.0</ele><time>2026-05-03T12:24:06.914Z</time></trkpt><trkpt lat="42.2947833" lon="12.6599959"><ele>138.0</ele><time>2026-05-03T12:24:07.917Z</time></trkpt><trkpt lat="42.2949099" lon="12.6600333"><ele>141.0</ele><time>2026-05-03T12:24:08.92Z</time></trkpt><trkpt lat="42.2950399" lon="12.6600719"><ele>144.0</ele><time>2026-05-03T12:24:09.919Z</time></trkpt><trkpt lat="42.2951606" lon="12.6601092"><ele>147.0</ele><time>2026-05-03T12:24:10.922Z</time></trkpt><trkpt lat="42.2952903" lon="12.6601578"><ele>150.0</ele><time>2026-05-03T12:24:11.922Z</time></trkpt><trkpt lat="42.2954433" lon="12.6602089"><ele>149.0</ele><time>2026-05-03T12:24:12.922Z</time></trkpt><trkpt lat="42.2956327" lon="12.6602407"><ele>148.0</ele><time>2026-05-03T12:24:13.919Z</time></trkpt><trkpt lat="42.2957944" lon="12.6602808"><ele>147.0</ele><time>2026-05-03T12:24:14.922Z</time></trkpt><trkpt lat="42.2959215" lon="12.6603329"><ele>150.0</ele><time>2026-05-03T12:24:15.921Z</time></trkpt><trkpt lat="42.2960301" lon="12.6603623"><ele>153.0</ele><time>2026-05-03T12:24:16.919Z</time></trkpt><trkpt lat="42.2961188" lon="12.6604398"><ele>156.0</ele><time>2026-05-03T12:24:17.919Z</time></trkpt><trkpt lat="42.296223" lon="12.6605572"><ele>159.0</ele><time>2026-05-03T12:24:18.911Z</time></trkpt><trkpt lat="42.2963151" lon="12.6607288"><ele>159.0</ele><time>2026-05-03T12:24:19.914Z</time></trkpt><trkpt lat="42.2964088" lon="12.660885"><ele>159.0</ele><time>2026-05-03T12:24:20.919Z</time></trkpt><trkpt lat="42.2964926" lon="12.661035"><ele>159.0</ele><time>2026-05-03T12:24:21.92Z</time></trkpt><trkpt lat="42.2965845" lon="12.6612036"><ele>159.0</ele><time>2026-05-03T12:24:22.919Z</time></trkpt><trkpt lat="42.2966731" lon="12.6613404"><ele>161.66666666666666</ele><time>2026-05-03T12:24:23.919Z</time></trkpt><trkpt lat="42.296784" lon="12.6614605"><ele>164.33333333333331</ele><time>2026-05-03T12:24:24.918Z</time></trkpt><trkpt lat="42.2969374" lon="12.661551"><ele>167.0</ele><time>2026-05-03T12:24:25.921Z</time></trkpt><trkpt lat="42.2971144" lon="12.6616488"><ele>167.33333333333331</ele><time>2026-05-03T12:24:26.925Z</time></trkpt><trkpt lat="42.2972729" lon="12.6617538"><ele>167.66666666666666</ele><time>2026-05-03T12:24:27.924Z</time></trkpt><trkpt lat="42.2973969" lon="12.6618679"><ele>168.0</ele><time>2026-05-03T12:24:28.926Z</time></trkpt><trkpt lat="42.297536" lon="12.661971"><ele>169.5</ele><time>2026-05-03T12:24:29.932Z</time></trkpt><trkpt lat="42.2976563" lon="12.6620618"><ele>171.0</ele><time>2026-05-03T12:24:30.934Z</time></trkpt><trkpt lat="42.2977663" lon="12.6621589"><ele>172.5</ele><time>2026-05-03T12:24:31.932Z</time></trkpt><trkpt lat="42.2978955" lon="12.6622554"><ele>174.0</ele><time>2026-05-03T12:24:32.933Z</time></trkpt><trkpt lat="42.2980279" lon="12.6623687"><ele>174.33333333333334</ele><time>2026-05-03T12:24:33.942Z</time></trkpt><trkpt lat="42.2981698" lon="12.6624642"><ele>174.66666666666669</ele><time>2026-05-03T12:24:34.933Z</time></trkpt><trkpt lat="42.2982966" lon="12.6625875"><ele>175.0</ele><time>2026-05-03T12:24:35.925Z</time></trkpt><trkpt lat="42.2984209" lon="12.6627022"><ele>175.75</ele><time>2026-05-03T12:24:36.932Z</time></trkpt><trkpt lat="42.2985263" lon="12.6628221"><ele>176.5</ele><time>2026-05-03T12:24:37.936Z</time></trkpt><trkpt lat="42.2986354" lon="12.6629225"><ele>177.25</ele><time>2026-05-03T12:24:38.927Z</time></trkpt><trkpt lat="42.2987591" lon="12.6630236"><ele>178.0</ele><time>2026-05-03T12:24:39.928Z</time></trkpt><trkpt lat="42.2988707" lon="12.6631828"><ele>178.25</ele><time>2026-05-03T12:24:40.93Z</time></trkpt><trkpt lat="42.2989776" lon="12.6633295"><ele>178.5</ele><time>2026-05-03T12:24:41.929Z</time></trkpt><trkpt lat="42.2990955" lon="12.6634602"><ele>178.75</ele><time>2026-05-03T12:24:42.932Z</time></trkpt><trkpt lat="42.2991812" lon="12.6635641"><ele>179.0</ele><time>2026-05-03T12:24:43.926Z</time></trkpt><trkpt lat="42.2992515" lon="12.6636343"><ele>179.75</ele><time>2026-05-03T12:24:44.931Z</time></trkpt><trkpt lat="42.2993649" lon="12.6637389"><ele>180.5</ele><time>2026-05-03T12:24:45.922Z</time></trkpt><trkpt lat="42.2994648" lon="12.6638316"><ele>181.25</ele><time>2026-05-03T12:24:46.924Z</time></trkpt><trkpt lat="42.2995892" lon="12.663916"><ele>182.0</ele><time>2026-05-03T12:24:47.933Z</time></trkpt><trkpt lat="42.2997499" lon="12.6639719"><ele>183.33333333333331</ele><time>2026-05-03T12:24:48.928Z</time></trkpt><trkpt lat="42.2999076" lon="12.6640412"><ele>184.66666666666666</ele><time>2026-05-03T12:24:49.932Z</time></trkpt><trkpt lat="42.3000813" lon="12.6641126"><ele>186.0</ele><time>2026-05-03T12:24:50.937Z</time></trkpt><trkpt lat="42.3002659" lon="12.6641755"><ele>186.0</ele><time>2026-05-03T12:24:51.927Z</time></trkpt><trkpt lat="42.3004446" lon="12.6642514"><ele>186.0</ele><time>2026-05-03T12:24:52.935Z</time></trkpt><trkpt lat="42.3006159" lon="12.6643363"><ele>186.0</ele><time>2026-05-03T12:24:53.931Z</time></trkpt><trkpt lat="42.3008071" lon="12.6644122"><ele>186.33333333333334</ele><time>2026-05-03T12:24:54.935Z</time></trkpt><trkpt lat="42.3009993" lon="12.6644917"><ele>186.66666666666669</ele><time>2026-05-03T12:24:55.928Z</time></trkpt><trkpt lat="42.3011727" lon="12.6645626"><ele>187.0</ele><time>2026-05-03T12:24:56.935Z</time></trkpt><trkpt lat="42.3013273" lon="12.6646384"><ele>189.66666666666669</ele><time>2026-05-03T12:24:57.938Z</time></trkpt><trkpt lat="42.3015237" lon="12.6646998"><ele>192.33333333333334</ele><time>2026-05-03T12:24:58.939Z</time></trkpt><trkpt lat="42.3016907" lon="12.6647541"><ele>195.0</ele><time>2026-05-03T12:24:59.939Z</time></trkpt><trkpt lat="42.3018391" lon="12.6648237"><ele>195.0</ele><time>2026-05-03T12:25:00.935Z</time></trkpt><trkpt lat="42.301987" lon="12.6648889"><ele>195.0</ele><time>2026-05-03T12:25:01.922Z</time></trkpt><trkpt lat="42.3021364" lon="12.6649594"><ele>195.0</ele><time>2026-05-03T12:25:02.937Z</time></trkpt><trkpt lat="42.3022808" lon="12.6650346"><ele>196.0</ele><time>2026-05-03T12:25:03.929Z</time></trkpt><trkpt lat="42.3024185" lon="12.665098"><ele>197.0</ele><time>2026-05-03T12:25:04.933Z</time></trkpt><trkpt lat="42.3025963" lon="12.6651663"><ele>198.0</ele><time>2026-05-03T12:25:05.936Z</time></trkpt><trkpt lat="42.3027723" lon="12.6652165"><ele>198.0</ele><time>2026-05-03T12:25:06.931Z</time></trkpt><trkpt lat="42.3029387" lon="12.6652672"><ele>198.0</ele><time>2026-05-03T12:25:07.933Z</time></trkpt><trkpt lat="42.3030982" lon="12.6653253"><ele>198.0</ele><time>2026-05-03T12:25:08.933Z</time></trkpt><trkpt lat="42.3032464" lon="12.6653996"><ele>199.33333333333331</ele><time>2026-05-03T12:25:09.933Z</time></trkpt><trkpt lat="42.3033983" lon="12.6654637"><ele>200.66666666666666</ele><time>2026-05-03T12:25:10.932Z</time></trkpt><trkpt lat="42.3035667" lon="12.6655211"><ele>202.0</ele><time>2026-05-03T12:25:11.936Z</time></trkpt><trkpt lat="42.3037311" lon="12.6656014"><ele>202.0</ele><time>2026-05-03T12:25:12.932Z</time></trkpt><trkpt lat="42.3038971" lon="12.6656812"><ele>202.0</ele><time>2026-05-03T12:25:13.933Z</time></trkpt><trkpt lat="42.3040764" lon="12.6657661"><ele>202.0</ele><time>2026-05-03T12:25:14.931Z</time></trkpt><trkpt lat="42.3042503" lon="12.6658468"><ele>203.0</ele><time>2026-05-03T12:25:15.929Z</time></trkpt><trkpt lat="42.3044196" lon="12.6659203"><ele>204.0</ele><time>2026-05-03T12:25:16.937Z</time></trkpt><trkpt lat="42.3045737" lon="12.6659885"><ele>205.0</ele><time>2026-05-03T12:25:17.923Z</time></trkpt><trkpt lat="42.3047395" lon="12.6660588"><ele>206.66666666666666</ele><time>2026-05-03T12:25:18.932Z</time></trkpt><trkpt lat="42.3048955" lon="12.6661243"><ele>208.33333333333331</ele><time>2026-05-03T12:25:19.935Z</time></trkpt><trkpt lat="42.3050657" lon="12.666203"><ele>210.0</ele><time>2026-05-03T12:25:20.93Z</time></trkpt><trkpt lat="42.3052402" lon="12.6662748"><ele>210.0</ele><time>2026-05-03T12:25:21.931Z</time></trkpt><trkpt lat="42.3054121" lon="12.6663432"><ele>210.0</ele><time>2026-05-03T12:25:22.927Z</time></trkpt><trkpt lat="42.3056094" lon="12.6664335"><ele>210.0</ele><time>2026-05-03T12:25:23.93Z</time></trkpt><trkpt lat="42.305783" lon="12.6665248"><ele>209.66666666666669</ele><time>2026-05-03T12:25:24.927Z</time></trkpt><trkpt lat="42.3059666" lon="12.6665987"><ele>209.33333333333334</ele><time>2026-05-03T12:25:25.931Z</time></trkpt><trkpt lat="42.3061211" lon="12.666682"><ele>209.0</ele><time>2026-05-03T12:25:26.94Z</time></trkpt><trkpt lat="42.3062827" lon="12.6667684"><ele>209.0</ele><time>2026-05-03T12:25:27.932Z</time></trkpt><trkpt lat="42.3064611" lon="12.6668453"><ele>209.0</ele><time>2026-05-03T12:25:28.935Z</time></trkpt><trkpt lat="42.3066206" lon="12.6668935"><ele>209.0</ele><time>2026-05-03T12:25:29.924Z</time></trkpt><trkpt lat="42.3067644" lon="12.6669583"><ele>209.33333333333334</ele><time>2026-05-03T12:25:30.938Z</time></trkpt><trkpt lat="42.3069144" lon="12.6670281"><ele>209.66666666666669</ele><time>2026-05-03T12:25:31.933Z</time></trkpt><trkpt lat="42.3070792" lon="12.6670824"><ele>210.0</ele><time>2026-05-03T12:25:32.937Z</time></trkpt><trkpt lat="42.3072528" lon="12.6671467"><ele>211.66666666666669</ele><time>2026-05-03T12:25:33.933Z</time></trkpt><trkpt lat="42.3074043" lon="12.6672498"><ele>213.33333333333334</ele><time>2026-05-03T12:25:34.933Z</time></trkpt><trkpt lat="42.3075589" lon="12.6673605"><ele>215.0</ele><time>2026-05-03T12:25:35.933Z</time></trkpt><trkpt lat="42.3077127" lon="12.6674963"><ele>215.0</ele><time>2026-05-03T12:25:36.93Z</time></trkpt><trkpt lat="42.3078608" lon="12.6676464"><ele>215.0</ele><time>2026-05-03T12:25:37.94Z</time></trkpt><trkpt lat="42.3080117" lon="12.6678027"><ele>215.0</ele><time>2026-05-03T12:25:38.936Z</time></trkpt><trkpt lat="42.3081551" lon="12.6679554"><ele>216.33333333333334</ele><time>2026-05-03T12:25:39.944Z</time></trkpt><trkpt lat="42.3082905" lon="12.6681321"><ele>217.66666666666669</ele><time>2026-05-03T12:25:40.931Z</time></trkpt><trkpt lat="42.3084201" lon="12.6683002"><ele>219.0</ele><time>2026-05-03T12:25:41.934Z</time></trkpt><trkpt lat="42.3085484" lon="12.6684632"><ele>219.33333333333331</ele><time>2026-05-03T12:25:42.936Z</time></trkpt><trkpt lat="42.3086881" lon="12.6686153"><ele>219.66666666666666</ele><time>2026-05-03T12:25:43.932Z</time></trkpt><trkpt lat="42.3088277" lon="12.6687757"><ele>220.0</ele><time>2026-05-03T12:25:44.938Z</time></trkpt><trkpt lat="42.3089617" lon="12.6689198"><ele>220.0</ele><time>2026-05-03T12:25:45.931Z</time></trkpt><trkpt lat="42.3090915" lon="12.6690438"><ele>220.0</ele><time>2026-05-03T12:25:46.937Z</time></trkpt><trkpt lat="42.3092323" lon="12.6691774"><ele>220.0</ele><time>2026-05-03T12:25:47.935Z</time></trkpt><trkpt lat="42.309379" lon="12.6693206"><ele>221.33333333333331</ele><time>2026-05-03T12:25:48.926Z</time></trkpt><trkpt lat="42.3095006" lon="12.6694535"><ele>222.66666666666669</ele><time>2026-05-03T12:25:49.937Z</time></trkpt><trkpt lat="42.3096128" lon="12.6695884"><ele>224.0</ele><time>2026-05-03T12:25:50.932Z</time></trkpt><trkpt lat="42.309721" lon="12.6697458"><ele>224.33333333333334</ele><time>2026-05-03T12:25:51.939Z</time></trkpt><trkpt lat="42.30983" lon="12.6699159"><ele>224.66666666666669</ele><time>2026-05-03T12:25:52.934Z</time></trkpt><trkpt lat="42.3099484" lon="12.6700903"><ele>225.0</ele><time>2026-05-03T12:25:53.932Z</time></trkpt><trkpt lat="42.3100494" lon="12.6702713"><ele>226.66666666666669</ele><time>2026-05-03T12:25:54.925Z</time></trkpt><trkpt lat="42.3101258" lon="12.670462"><ele>228.33333333333334</ele><time>2026-05-03T12:25:55.924Z</time></trkpt><trkpt lat="42.31022" lon="12.6706535"><ele>230.0</ele><time>2026-05-03T12:25:56.925Z</time></trkpt><trkpt lat="42.3103215" lon="12.6708647"><ele>230.0</ele><time>2026-05-03T12:25:57.938Z</time></trkpt><trkpt lat="42.3104255" lon="12.671063"><ele>230.0</ele><time>2026-05-03T12:25:58.93Z</time></trkpt><trkpt lat="42.3104961" lon="12.671252"><ele>230.0</ele><time>2026-05-03T12:25:59.939Z</time></trkpt><trkpt lat="42.3105615" lon="12.6714035"><ele>230.0</ele><time>2026-05-03T12:26:00.92Z</time></trkpt><trkpt lat="42.3105955" lon="12.6715387"><ele>230.0</ele><time>2026-05-03T12:26:01.934Z</time></trkpt><trkpt lat="42.3106269" lon="12.6716689"><ele>230.0</ele><time>2026-05-03T12:26:02.919Z</time></trkpt><trkpt lat="42.3106605" lon="12.6718257"><ele>230.0</ele><time>2026-05-03T12:26:03.933Z</time></trkpt><trkpt lat="42.3106992" lon="12.6720035"><ele>230.0</ele><time>2026-05-03T12:26:04.926Z</time></trkpt><trkpt lat="42.3107511" lon="12.6721732"><ele>230.0</ele><time>2026-05-03T12:26:05.928Z</time></trkpt><trkpt lat="42.3107932" lon="12.6723463"><ele>230.0</ele><time>2026-05-03T12:26:06.925Z</time></trkpt><trkpt lat="42.3108746" lon="12.6725172"><ele>230.0</ele><time>2026-05-03T12:26:07.924Z</time></trkpt><trkpt lat="42.3109706" lon="12.6726689"><ele>230.66666666666669</ele><time>2026-05-03T12:26:08.927Z</time></trkpt><trkpt lat="42.3110977" lon="12.672869"><ele>231.33333333333331</ele><time>2026-05-03T12:26:09.922Z</time></trkpt><trkpt lat="42.3112152" lon="12.6730186"><ele>232.0</ele><time>2026-05-03T12:26:10.928Z</time></trkpt><trkpt lat="42.3112914" lon="12.6731828"><ele>232.0</ele><time>2026-05-03T12:26:11.93Z</time></trkpt><trkpt lat="42.3113531" lon="12.673342"><ele>232.0</ele><time>2026-05-03T12:26:12.924Z</time></trkpt><trkpt lat="42.311413" lon="12.6735183"><ele>232.0</ele><time>2026-05-03T12:26:13.931Z</time></trkpt><trkpt lat="42.3114734" lon="12.6736881"><ele>232.0</ele><time>2026-05-03T12:26:14.92Z</time></trkpt><trkpt lat="42.3115357" lon="12.6738024"><ele>233.0</ele><time>2026-05-03T12:26:15.933Z</time></trkpt><trkpt lat="42.311607" lon="12.6739707"><ele>234.0</ele><time>2026-05-03T12:26:16.927Z</time></trkpt><trkpt lat="42.3117001" lon="12.6741549"><ele>235.0</ele><time>2026-05-03T12:26:17.925Z</time></trkpt><trkpt lat="42.3117663" lon="12.674328"><ele>234.25</ele><time>2026-05-03T12:26:18.938Z</time></trkpt><trkpt lat="42.3118278" lon="12.6744629"><ele>233.5</ele><time>2026-05-03T12:26:19.932Z</time></trkpt><trkpt lat="42.3119058" lon="12.6745904"><ele>232.75</ele><time>2026-05-03T12:26:20.938Z</time></trkpt><trkpt lat="42.3119868" lon="12.6747093"><ele>232.0</ele><time>2026-05-03T12:26:21.936Z</time></trkpt><trkpt lat="42.3120823" lon="12.6748267"><ele>232.0</ele><time>2026-05-03T12:26:22.923Z</time></trkpt><trkpt lat="42.3121898" lon="12.6749381"><ele>232.0</ele><time>2026-05-03T12:26:23.928Z</time></trkpt><trkpt lat="42.3123105" lon="12.6750297"><ele>232.0</ele><time>2026-05-03T12:26:24.931Z</time></trkpt><trkpt lat="42.3124347" lon="12.675115"><ele>232.0</ele><time>2026-05-03T12:26:25.93Z</time></trkpt><trkpt lat="42.3125562" lon="12.6751565"><ele>234.5</ele><time>2026-05-03T12:26:26.926Z</time></trkpt><trkpt lat="42.3126698" lon="12.6751979"><ele>237.0</ele><time>2026-05-03T12:26:27.928Z</time></trkpt><trkpt lat="42.3127774" lon="12.6752642"><ele>239.5</ele><time>2026-05-03T12:26:28.93Z</time></trkpt><trkpt lat="42.3128744" lon="12.6753168"><ele>242.0</ele><time>2026-05-03T12:26:29.921Z</time></trkpt><trkpt lat="42.3129793" lon="12.6753898"><ele>245.0</ele><time>2026-05-03T12:26:30.934Z</time></trkpt><trkpt lat="42.3131141" lon="12.6754724"><ele>248.0</ele><time>2026-05-03T12:26:31.933Z</time></trkpt><trkpt lat="42.3132059" lon="12.6755719"><ele>251.0</ele><time>2026-05-03T12:26:32.928Z</time></trkpt><trkpt lat="42.3133216" lon="12.6756628"><ele>254.0</ele><time>2026-05-03T12:26:33.925Z</time></trkpt><trkpt lat="42.3134228" lon="12.6757479"><ele>254.0</ele><time>2026-05-03T12:26:34.936Z</time></trkpt><trkpt lat="42.3135277" lon="12.6758295"><ele>254.0</ele><time>2026-05-03T12:26:35.923Z</time></trkpt><trkpt lat="42.3136393" lon="12.6759147"><ele>254.0</ele><time>2026-05-03T12:26:36.932Z</time></trkpt><trkpt lat="42.3137596" lon="12.676005"><ele>254.0</ele><time>2026-05-03T12:26:37.926Z</time></trkpt><trkpt lat="42.3138934" lon="12.6761022"><ele>259.6666666666667</ele><time>2026-05-03T12:26:38.931Z</time></trkpt><trkpt lat="42.3140533" lon="12.6762241"><ele>265.3333333333333</ele><time>2026-05-03T12:26:39.918Z</time></trkpt><trkpt lat="42.3141834" lon="12.6763227"><ele>271.0</ele><time>2026-05-03T12:26:40.924Z</time></trkpt><trkpt lat="42.3143091" lon="12.6764131"><ele>271.0</ele><time>2026-05-03T12:26:41.93Z</time></trkpt><trkpt lat="42.3144121" lon="12.6764744"><ele>271.0</ele><time>2026-05-03T12:26:42.927Z</time></trkpt><trkpt lat="42.3145168" lon="12.6765532"><ele>271.0</ele><time>2026-05-03T12:26:43.918Z</time></trkpt><trkpt lat="42.3146059" lon="12.6766176"><ele>271.0</ele><time>2026-05-03T12:26:44.918Z</time></trkpt><trkpt lat="42.3146944" lon="12.6766795"><ele>271.0</ele><time>2026-05-03T12:26:45.924Z</time></trkpt><trkpt lat="42.3147917" lon="12.6767551"><ele>271.5</ele><time>2026-05-03T12:26:46.918Z</time></trkpt><trkpt lat="42.314876" lon="12.6768312"><ele>272.0</ele><time>2026-05-03T12:26:47.923Z</time></trkpt><trkpt lat="42.3149508" lon="12.6769106"><ele>272.5</ele><time>2026-05-03T12:26:48.926Z</time></trkpt><trkpt lat="42.3150086" lon="12.6769936"><ele>273.0</ele><time>2026-05-03T12:26:49.921Z</time></trkpt><trkpt lat="42.3150308" lon="12.6770893"><ele>273.5</ele><time>2026-05-03T12:26:50.931Z</time></trkpt><trkpt lat="42.3150379" lon="12.6771805"><ele>274.0</ele><time>2026-05-03T12:26:51.926Z</time></trkpt><trkpt lat="42.3150309" lon="12.6772652"><ele>274.00000000000006</ele><time>2026-05-03T12:26:52.931Z</time></trkpt><trkpt lat="42.3150318" lon="12.6773721"><ele>274.0</ele><time>2026-05-03T12:26:53.934Z</time></trkpt><trkpt lat="42.3150354" lon="12.6774821"><ele>274.0</ele><time>2026-05-03T12:26:54.927Z</time></trkpt><trkpt lat="42.3150299" lon="12.6775833"><ele>274.0</ele><time>2026-05-03T12:26:55.926Z</time></trkpt><trkpt lat="42.3150108" lon="12.6776741"><ele>274.0</ele><time>2026-05-03T12:26:56.929Z</time></trkpt><trkpt lat="42.3149725" lon="12.6777463"><ele>274.00000000000006</ele><time>2026-05-03T12:26:58.925Z</time></trkpt><trkpt lat="42.3149052" lon="12.677757"><ele>274.0</ele><time>2026-05-03T12:27:01.932Z</time></trkpt><trkpt lat="42.3149633" lon="12.677833"><ele>275.25</ele><time>2026-05-03T12:31:19.926Z</time></trkpt><trkpt lat="42.3150041" lon="12.6779701"><ele>276.5</ele><time>2026-05-03T12:31:21.914Z</time></trkpt><trkpt lat="42.3150201" lon="12.678073"><ele>277.75</ele><time>2026-05-03T12:31:22.912Z</time></trkpt><trkpt lat="42.3150317" lon="12.6782352"><ele>279.0</ele><time>2026-05-03T12:31:23.925Z</time></trkpt><trkpt lat="42.3150573" lon="12.6784359"><ele>279.6666666666667</ele><time>2026-05-03T12:31:24.929Z</time></trkpt><trkpt lat="42.3150895" lon="12.6786301"><ele>280.33333333333337</ele><time>2026-05-03T12:31:25.922Z</time></trkpt><trkpt lat="42.3151058" lon="12.6788431"><ele>281.0</ele><time>2026-05-03T12:31:26.923Z</time></trkpt><trkpt lat="42.3151214" lon="12.679111"><ele>281.0</ele><time>2026-05-03T12:31:27.935Z</time></trkpt><trkpt lat="42.3151207" lon="12.6793722"><ele>281.0</ele><time>2026-05-03T12:31:28.918Z</time></trkpt><trkpt lat="42.3151463" lon="12.6795999"><ele>281.0</ele><time>2026-05-03T12:31:29.953Z</time></trkpt><trkpt lat="42.315167" lon="12.6798355"><ele>284.33333333333337</ele><time>2026-05-03T12:31:30.946Z</time></trkpt><trkpt lat="42.3152408" lon="12.6800173"><ele>287.6666666666667</ele><time>2026-05-03T12:31:31.945Z</time></trkpt><trkpt lat="42.3153204" lon="12.6802129"><ele>291.0</ele><time>2026-05-03T12:31:32.926Z</time></trkpt><trkpt lat="42.315382" lon="12.6803851"><ele>293.5</ele><time>2026-05-03T12:31:33.935Z</time></trkpt><trkpt lat="42.3154531" lon="12.680542"><ele>296.0</ele><time>2026-05-03T12:31:34.919Z</time></trkpt><trkpt lat="42.3155633" lon="12.6806697"><ele>298.5</ele><time>2026-05-03T12:31:35.928Z</time></trkpt><trkpt lat="42.3156197" lon="12.6808088"><ele>301.0</ele><time>2026-05-03T12:31:36.921Z</time></trkpt><trkpt lat="42.3156921" lon="12.680924"><ele>293.0</ele><time>2026-05-03T12:31:37.918Z</time></trkpt><trkpt lat="42.3157652" lon="12.6810497"><ele>285.0</ele><time>2026-05-03T12:31:38.926Z</time></trkpt><trkpt lat="42.3158225" lon="12.6812166"><ele>277.0</ele><time>2026-05-03T12:31:39.924Z</time></trkpt><trkpt lat="42.3158491" lon="12.6814392"><ele>269.0</ele><time>2026-05-03T12:31:40.921Z</time></trkpt><trkpt lat="42.3158343" lon="12.681709"><ele>270.6666666666667</ele><time>2026-05-03T12:31:41.925Z</time></trkpt><trkpt lat="42.315818" lon="12.6819955"><ele>272.3333333333333</ele><time>2026-05-03T12:31:42.931Z</time></trkpt><trkpt lat="42.3158343" lon="12.682271"><ele>274.0</ele><time>2026-05-03T12:31:43.927Z</time></trkpt><trkpt lat="42.3158418" lon="12.6825639"><ele>277.0</ele><time>2026-05-03T12:31:44.925Z</time></trkpt><trkpt lat="42.3158801" lon="12.6828276"><ele>280.0</ele><time>2026-05-03T12:31:45.935Z</time></trkpt><trkpt lat="42.315952" lon="12.6830295"><ele>283.0</ele><time>2026-05-03T12:31:46.926Z</time></trkpt><trkpt lat="42.3160267" lon="12.6832425"><ele>283.0</ele><time>2026-05-03T12:31:47.949Z</time></trkpt><trkpt lat="42.3160868" lon="12.683436"><ele>283.0</ele><time>2026-05-03T12:31:48.943Z</time></trkpt><trkpt lat="42.3161624" lon="12.6836196"><ele>283.0</ele><time>2026-05-03T12:31:49.92Z</time></trkpt><trkpt lat="42.3162059" lon="12.6837511"><ele>283.0</ele><time>2026-05-03T12:31:50.925Z</time></trkpt><trkpt lat="42.3162817" lon="12.6838835"><ele>285.0</ele><time>2026-05-03T12:31:51.914Z</time></trkpt><trkpt lat="42.3163391" lon="12.6839921"><ele>287.0</ele><time>2026-05-03T12:31:52.918Z</time></trkpt><trkpt lat="42.3164155" lon="12.684082"><ele>289.0</ele><time>2026-05-03T12:31:53.941Z</time></trkpt><trkpt lat="42.3165199" lon="12.6841302"><ele>291.0</ele><time>2026-05-03T12:31:54.915Z</time></trkpt><trkpt lat="42.3166434" lon="12.6841473"><ele>293.0</ele><time>2026-05-03T12:31:55.921Z</time></trkpt><trkpt lat="42.3167587" lon="12.6841322"><ele>286.0</ele><time>2026-05-03T12:31:56.921Z</time></trkpt><trkpt lat="42.3168894" lon="12.6840796"><ele>279.0</ele><time>2026-05-03T12:31:57.922Z</time></trkpt><trkpt lat="42.3170419" lon="12.6840191"><ele>272.0</ele><time>2026-05-03T12:31:58.924Z</time></trkpt><trkpt lat="42.3172593" lon="12.6839551"><ele>267.6666666666667</ele><time>2026-05-03T12:31:59.928Z</time></trkpt><trkpt lat="42.3174573" lon="12.6839171"><ele>263.3333333333333</ele><time>2026-05-03T12:32:00.92Z</time></trkpt><trkpt lat="42.3176264" lon="12.6838785"><ele>259.0</ele><time>2026-05-03T12:32:01.926Z</time></trkpt><trkpt lat="42.3177871" lon="12.683828"><ele>259.0</ele><time>2026-05-03T12:32:02.922Z</time></trkpt><trkpt lat="42.3179159" lon="12.683735"><ele>259.0</ele><time>2026-05-03T12:32:03.921Z</time></trkpt><trkpt lat="42.3180367" lon="12.6836197"><ele>259.0</ele><time>2026-05-03T12:32:04.947Z</time></trkpt><trkpt lat="42.3181072" lon="12.6834479"><ele>259.0</ele><time>2026-05-03T12:32:05.925Z</time></trkpt><trkpt lat="42.3181421" lon="12.6832325"><ele>265.66666666666663</ele><time>2026-05-03T12:32:06.926Z</time></trkpt><trkpt lat="42.3181777" lon="12.682997"><ele>272.3333333333333</ele><time>2026-05-03T12:32:07.918Z</time></trkpt><trkpt lat="42.3182183" lon="12.6827606"><ele>279.0</ele><time>2026-05-03T12:32:08.918Z</time></trkpt><trkpt lat="42.3182773" lon="12.6824894"><ele>278.3333333333333</ele><time>2026-05-03T12:32:09.914Z</time></trkpt><trkpt lat="42.3183225" lon="12.6822219"><ele>277.66666666666663</ele><time>2026-05-03T12:32:10.916Z</time></trkpt><trkpt lat="42.3183368" lon="12.6819783"><ele>277.0</ele><time>2026-05-03T12:32:11.911Z</time></trkpt><trkpt lat="42.3183422" lon="12.6817701"><ele>277.0</ele><time>2026-05-03T12:32:12.907Z</time></trkpt><trkpt lat="42.3183813" lon="12.6816177"><ele>277.0</ele><time>2026-05-03T12:32:13.914Z</time></trkpt><trkpt lat="42.3184074" lon="12.6814793"><ele>277.0</ele><time>2026-05-03T12:32:14.898Z</time></trkpt><trkpt lat="42.3184601" lon="12.681371"><ele>277.0</ele><time>2026-05-03T12:32:15.919Z</time></trkpt><trkpt lat="42.3185262" lon="12.6813065"><ele>277.0</ele><time>2026-05-03T12:32:16.925Z</time></trkpt><trkpt lat="42.3186582" lon="12.6813178"><ele>277.0</ele><time>2026-05-03T12:32:18.928Z</time></trkpt><trkpt lat="42.3187267" lon="12.6813788"><ele>277.0</ele><time>2026-05-03T12:32:20.934Z</time></trkpt><trkpt lat="42.3186965" lon="12.6814644"><ele>277.0</ele><time>2026-05-03T12:32:22.933Z</time></trkpt><trkpt lat="42.3186712" lon="12.6815479"><ele>277.0</ele><time>2026-05-03T12:32:23.931Z</time></trkpt><trkpt lat="42.3186227" lon="12.681669"><ele>277.0</ele><time>2026-05-03T12:32:24.93Z</time></trkpt><trkpt lat="42.318577" lon="12.6817922"><ele>277.0</ele><time>2026-05-03T12:32:25.929Z</time></trkpt><trkpt lat="42.3185364" lon="12.6819107"><ele>277.8333333333333</ele><time>2026-05-03T12:32:26.935Z</time></trkpt><trkpt lat="42.3185004" lon="12.6820277"><ele>278.66666666666663</ele><time>2026-05-03T12:32:27.937Z</time></trkpt><trkpt lat="42.3184803" lon="12.6821424"><ele>279.5</ele><time>2026-05-03T12:32:28.933Z</time></trkpt><trkpt lat="42.3184785" lon="12.6822446"><ele>280.3333333333333</ele><time>2026-05-03T12:32:29.93Z</time></trkpt><trkpt lat="42.3185024" lon="12.68234"><ele>281.1666666666667</ele><time>2026-05-03T12:32:30.928Z</time></trkpt><trkpt lat="42.3185668" lon="12.6824367"><ele>282.0</ele><time>2026-05-03T12:32:31.93Z</time></trkpt><trkpt lat="42.3186455" lon="12.6825293"><ele>282.0</ele><time>2026-05-03T12:32:32.934Z</time></trkpt><trkpt lat="42.3187192" lon="12.6826319"><ele>282.0</ele><time>2026-05-03T12:32:33.932Z</time></trkpt><trkpt lat="42.3187973" lon="12.6827561"><ele>282.0</ele><time>2026-05-03T12:32:34.935Z</time></trkpt><trkpt lat="42.3188621" lon="12.6828719"><ele>282.0</ele><time>2026-05-03T12:32:35.92Z</time></trkpt><trkpt lat="42.3189335" lon="12.6829857"><ele>282.0</ele><time>2026-05-03T12:32:36.929Z</time></trkpt><trkpt lat="42.3190119" lon="12.6831054"><ele>284.25</ele><time>2026-05-03T12:32:37.927Z</time></trkpt><trkpt lat="42.3190901" lon="12.6832318"><ele>286.5</ele><time>2026-05-03T12:32:38.93Z</time></trkpt><trkpt lat="42.319156" lon="12.6833575"><ele>288.75</ele><time>2026-05-03T12:32:39.93Z</time></trkpt><trkpt lat="42.3192412" lon="12.6834923"><ele>291.0</ele><time>2026-05-03T12:32:40.93Z</time></trkpt><trkpt lat="42.3193323" lon="12.6836175"><ele>291.0</ele><time>2026-05-03T12:32:41.933Z</time></trkpt><trkpt lat="42.3194176" lon="12.6837434"><ele>291.0</ele><time>2026-05-03T12:32:42.93Z</time></trkpt><trkpt lat="42.319515" lon="12.6838649"><ele>291.0</ele><time>2026-05-03T12:32:43.929Z</time></trkpt><trkpt lat="42.3196226" lon="12.6839919"><ele>291.0</ele><time>2026-05-03T12:32:44.927Z</time></trkpt><trkpt lat="42.3197108" lon="12.6841121"><ele>295.25</ele><time>2026-05-03T12:32:45.929Z</time></trkpt><trkpt lat="42.319795" lon="12.6842397"><ele>299.5</ele><time>2026-05-03T12:32:46.937Z</time></trkpt><trkpt lat="42.3198719" lon="12.6843805"><ele>303.75</ele><time>2026-05-03T12:32:47.93Z</time></trkpt><trkpt lat="42.3199312" lon="12.684524"><ele>308.0</ele><time>2026-05-03T12:32:48.926Z</time></trkpt><trkpt lat="42.3199737" lon="12.6846475"><ele>308.0</ele><time>2026-05-03T12:32:49.932Z</time></trkpt><trkpt lat="42.3199995" lon="12.6847501"><ele>308.0</ele><time>2026-05-03T12:32:50.928Z</time></trkpt><trkpt lat="42.3200108" lon="12.6848339"><ele>308.0</ele><time>2026-05-03T12:32:51.922Z</time></trkpt><trkpt lat="42.3200737" lon="12.6847256"><ele>308.0</ele><time>2026-05-03T12:32:56.934Z</time></trkpt><trkpt lat="42.3200799" lon="12.6845991"><ele>308.0</ele><time>2026-05-03T12:32:57.93Z</time></trkpt><trkpt lat="42.3200913" lon="12.6845037"><ele>308.0</ele><time>2026-05-03T12:32:58.923Z</time></trkpt><trkpt lat="42.3201395" lon="12.6843751"><ele>308.0</ele><time>2026-05-03T12:33:00.924Z</time></trkpt><trkpt lat="42.3202456" lon="12.6843709"><ele>308.0</ele><time>2026-05-03T12:33:02.915Z</time></trkpt><trkpt lat="42.3203068" lon="12.6844288"><ele>308.0</ele><time>2026-05-03T12:33:03.919Z</time></trkpt><trkpt lat="42.3203823" lon="12.6845248"><ele>308.0</ele><time>2026-05-03T12:33:04.926Z</time></trkpt><trkpt lat="42.3204753" lon="12.6846386"><ele>308.0</ele><time>2026-05-03T12:33:05.926Z</time></trkpt><trkpt lat="42.3205651" lon="12.6847389"><ele>312.5</ele><time>2026-05-03T12:33:06.925Z</time></trkpt><trkpt lat="42.3206587" lon="12.6848475"><ele>317.0</ele><time>2026-05-03T12:33:07.925Z</time></trkpt><trkpt lat="42.3207643" lon="12.6849474"><ele>321.5</ele><time>2026-05-03T12:33:08.926Z</time></trkpt><trkpt lat="42.3208789" lon="12.6850254"><ele>326.0</ele><time>2026-05-03T12:33:09.921Z</time></trkpt><trkpt lat="42.3210019" lon="12.6850926"><ele>326.0</ele><time>2026-05-03T12:33:10.924Z</time></trkpt><trkpt lat="42.3211319" lon="12.6851601"><ele>326.0</ele><time>2026-05-03T12:33:11.926Z</time></trkpt><trkpt lat="42.3212608" lon="12.6852296"><ele>326.0</ele><time>2026-05-03T12:33:12.929Z</time></trkpt><trkpt lat="42.3213954" lon="12.6853073"><ele>326.0</ele><time>2026-05-03T12:33:13.931Z</time></trkpt><trkpt lat="42.3215351" lon="12.6853863"><ele>328.6666666666667</ele><time>2026-05-03T12:33:14.928Z</time></trkpt><trkpt lat="42.3217128" lon="12.6854783"><ele>331.3333333333333</ele><time>2026-05-03T12:33:15.934Z</time></trkpt><trkpt lat="42.3218591" lon="12.6855708"><ele>334.0</ele><time>2026-05-03T12:33:16.927Z</time></trkpt><trkpt lat="42.3219907" lon="12.6856592"><ele>334.0</ele><time>2026-05-03T12:33:17.932Z</time></trkpt><trkpt lat="42.3221162" lon="12.6857464"><ele>334.0</ele><time>2026-05-03T12:33:18.93Z</time></trkpt><trkpt lat="42.3222264" lon="12.6858151"><ele>334.0</ele><time>2026-05-03T12:33:19.926Z</time></trkpt><trkpt lat="42.32234" lon="12.685866"><ele>334.0</ele><time>2026-05-03T12:33:20.924Z</time></trkpt><trkpt lat="42.3223938" lon="12.6859465"><ele>335.2</ele><time>2026-05-03T12:33:21.924Z</time></trkpt><trkpt lat="42.3224345" lon="12.6860141"><ele>336.4</ele><time>2026-05-03T12:33:22.926Z</time></trkpt><trkpt lat="42.3224423" lon="12.6861745"><ele>337.6</ele><time>2026-05-03T12:33:24.919Z</time></trkpt><trkpt lat="42.3224464" lon="12.6862804"><ele>338.8</ele><time>2026-05-03T12:33:25.92Z</time></trkpt><trkpt lat="42.3224398" lon="12.6864018"><ele>340.0</ele><time>2026-05-03T12:33:26.927Z</time></trkpt><trkpt lat="42.322431" lon="12.6865407"><ele>341.5</ele><time>2026-05-03T12:33:27.929Z</time></trkpt><trkpt lat="42.322421" lon="12.6866849"><ele>343.0</ele><time>2026-05-03T12:33:28.927Z</time></trkpt><trkpt lat="42.3224274" lon="12.6868602"><ele>344.5</ele><time>2026-05-03T12:33:29.92Z</time></trkpt><trkpt lat="42.3224336" lon="12.6870228"><ele>346.0</ele><time>2026-05-03T12:33:30.918Z</time></trkpt><trkpt lat="42.3224506" lon="12.6872007"><ele>346.0</ele><time>2026-05-03T12:33:31.924Z</time></trkpt><trkpt lat="42.322469" lon="12.687389"><ele>346.0</ele><time>2026-05-03T12:33:32.929Z</time></trkpt><trkpt lat="42.3225083" lon="12.6875719"><ele>346.0</ele><time>2026-05-03T12:33:33.927Z</time></trkpt><trkpt lat="42.3225486" lon="12.6877399"><ele>346.0</ele><time>2026-05-03T12:33:34.918Z</time></trkpt><trkpt lat="42.3226362" lon="12.6879288"><ele>343.66666666666663</ele><time>2026-05-03T12:33:35.922Z</time></trkpt><trkpt lat="42.3227156" lon="12.6880947"><ele>341.3333333333333</ele><time>2026-05-03T12:33:36.915Z</time></trkpt><trkpt lat="42.322789" lon="12.6882582"><ele>339.0</ele><time>2026-05-03T12:33:37.915Z</time></trkpt><trkpt lat="42.3229005" lon="12.6884337"><ele>339.0</ele><time>2026-05-03T12:33:38.917Z</time></trkpt><trkpt lat="42.3230138" lon="12.6885833"><ele>339.0</ele><time>2026-05-03T12:33:39.916Z</time></trkpt><trkpt lat="42.3231234" lon="12.6887432"><ele>339.0</ele><time>2026-05-03T12:33:40.917Z</time></trkpt><trkpt lat="42.3232197" lon="12.6888845"><ele>345.5</ele><time>2026-05-03T12:33:41.916Z</time></trkpt><trkpt lat="42.323315" lon="12.6890021"><ele>352.0</ele><time>2026-05-03T12:33:42.914Z</time></trkpt><trkpt lat="42.3233925" lon="12.6891396"><ele>358.5</ele><time>2026-05-03T12:33:43.917Z</time></trkpt><trkpt lat="42.3234776" lon="12.6893296"><ele>365.0</ele><time>2026-05-03T12:33:44.915Z</time></trkpt><trkpt lat="42.3235001" lon="12.6895508"><ele>368.33333333333337</ele><time>2026-05-03T12:33:45.92Z</time></trkpt><trkpt lat="42.3235782" lon="12.6897234"><ele>371.6666666666667</ele><time>2026-05-03T12:33:46.918Z</time></trkpt><trkpt lat="42.3236729" lon="12.6898793"><ele>375.0</ele><time>2026-05-03T12:33:47.92Z</time></trkpt><trkpt lat="42.3237788" lon="12.6900434"><ele>375.0</ele><time>2026-05-03T12:33:48.916Z</time></trkpt><trkpt lat="42.3238346" lon="12.6901678"><ele>375.0</ele><time>2026-05-03T12:33:49.915Z</time></trkpt><trkpt lat="42.3238592" lon="12.6902749"><ele>375.0</ele><time>2026-05-03T12:33:50.918Z</time></trkpt><trkpt lat="42.3238274" lon="12.6903564"><ele>375.0</ele><time>2026-05-03T12:33:51.92Z</time></trkpt><trkpt lat="42.323723" lon="12.690411"><ele>375.0</ele><time>2026-05-03T12:33:53.911Z</time></trkpt><trkpt lat="42.3236301" lon="12.6904503"><ele>375.0</ele><time>2026-05-03T12:33:55.896Z</time></trkpt><trkpt lat="42.3235097" lon="12.6903812"><ele>375.0</ele><time>2026-05-03T12:33:57.918Z</time></trkpt><trkpt lat="42.3234156" lon="12.6902423"><ele>375.0</ele><time>2026-05-03T12:33:59.916Z</time></trkpt><trkpt lat="42.3233684" lon="12.6901705"><ele>375.0</ele><time>2026-05-03T12:34:00.911Z</time></trkpt><trkpt lat="42.3233079" lon="12.6901118"><ele>375.0</ele><time>2026-05-03T12:34:01.92Z</time></trkpt><trkpt lat="42.3232298" lon="12.690076"><ele>375.0</ele><time>2026-05-03T12:34:02.92Z</time></trkpt><trkpt lat="42.3231148" lon="12.6900778"><ele>375.0</ele><time>2026-05-03T12:34:03.916Z</time></trkpt><trkpt lat="42.3230044" lon="12.690149"><ele>375.0</ele><time>2026-05-03T12:34:04.918Z</time></trkpt><trkpt lat="42.3228561" lon="12.6901811"><ele>375.0</ele><time>2026-05-03T12:34:05.92Z</time></trkpt><trkpt lat="42.3227328" lon="12.6902573"><ele>377.75</ele><time>2026-05-03T12:34:06.924Z</time></trkpt><trkpt lat="42.3226283" lon="12.6903552"><ele>380.5</ele><time>2026-05-03T12:34:07.917Z</time></trkpt><trkpt lat="42.3224966" lon="12.6904238"><ele>383.25</ele><time>2026-05-03T12:34:08.935Z</time></trkpt><trkpt lat="42.3223926" lon="12.6905084"><ele>386.0</ele><time>2026-05-03T12:34:09.922Z</time></trkpt><trkpt lat="42.3223104" lon="12.6906092"><ele>386.0</ele><time>2026-05-03T12:34:10.927Z</time></trkpt><trkpt lat="42.3222611" lon="12.6907285"><ele>386.0</ele><time>2026-05-03T12:34:11.918Z</time></trkpt><trkpt lat="42.3222181" lon="12.6908762"><ele>386.0</ele><time>2026-05-03T12:34:12.92Z</time></trkpt><trkpt lat="42.3221961" lon="12.6910417"><ele>386.0</ele><time>2026-05-03T12:34:13.951Z</time></trkpt><trkpt lat="42.3221943" lon="12.6912155"><ele>387.75</ele><time>2026-05-03T12:34:14.922Z</time></trkpt><trkpt lat="42.3222172" lon="12.6913823"><ele>389.5</ele><time>2026-05-03T12:34:15.926Z</time></trkpt><trkpt lat="42.3222641" lon="12.6915525"><ele>391.25</ele><time>2026-05-03T12:34:16.919Z</time></trkpt><trkpt lat="42.3223283" lon="12.6917514"><ele>393.0</ele><time>2026-05-03T12:34:17.927Z</time></trkpt><trkpt lat="42.3223964" lon="12.6919594"><ele>393.75</ele><time>2026-05-03T12:34:18.915Z</time></trkpt><trkpt lat="42.3224358" lon="12.6921357"><ele>394.5</ele><time>2026-05-03T12:34:19.906Z</time></trkpt><trkpt lat="42.3224524" lon="12.692318"><ele>395.25</ele><time>2026-05-03T12:34:20.917Z</time></trkpt><trkpt lat="42.3224537" lon="12.6925168"><ele>396.0</ele><time>2026-05-03T12:34:21.914Z</time></trkpt><trkpt lat="42.3224398" lon="12.6926995"><ele>399.66666666666663</ele><time>2026-05-03T12:34:22.906Z</time></trkpt><trkpt lat="42.3224249" lon="12.6929096"><ele>403.3333333333333</ele><time>2026-05-03T12:34:23.907Z</time></trkpt><trkpt lat="42.3224044" lon="12.6931383"><ele>407.0</ele><time>2026-05-03T12:34:24.91Z</time></trkpt><trkpt lat="42.3223911" lon="12.6933135"><ele>407.0</ele><time>2026-05-03T12:34:25.914Z</time></trkpt><trkpt lat="42.3223564" lon="12.6934406"><ele>407.0</ele><time>2026-05-03T12:34:26.915Z</time></trkpt><trkpt lat="42.3223411" lon="12.6935533"><ele>407.0</ele><time>2026-05-03T12:34:27.911Z</time></trkpt><trkpt lat="42.3222967" lon="12.6936545"><ele>407.0</ele><time>2026-05-03T12:34:29.918Z</time></trkpt><trkpt lat="42.3222071" lon="12.6936034"><ele>407.0</ele><time>2026-05-03T12:34:31.935Z</time></trkpt><trkpt lat="42.3221418" lon="12.6934519"><ele>410.25</ele><time>2026-05-03T12:34:33.911Z</time></trkpt><trkpt lat="42.3221226" lon="12.6933015"><ele>413.5</ele><time>2026-05-03T12:34:34.915Z</time></trkpt><trkpt lat="42.3220979" lon="12.6931296"><ele>416.75</ele><time>2026-05-03T12:34:35.916Z</time></trkpt><trkpt lat="42.3220686" lon="12.6929559"><ele>420.0</ele><time>2026-05-03T12:34:36.912Z</time></trkpt><trkpt lat="42.3220139" lon="12.6927752"><ele>413.33333333333337</ele><time>2026-05-03T12:34:37.919Z</time></trkpt><trkpt lat="42.3219318" lon="12.6926036"><ele>406.6666666666667</ele><time>2026-05-03T12:34:38.914Z</time></trkpt><trkpt lat="42.3218164" lon="12.6924514"><ele>400.0</ele><time>2026-05-03T12:34:39.917Z</time></trkpt><trkpt lat="42.3217032" lon="12.6922249"><ele>400.0</ele><time>2026-05-03T12:34:40.916Z</time></trkpt><trkpt lat="42.3215577" lon="12.6920261"><ele>400.0</ele><time>2026-05-03T12:34:41.916Z</time></trkpt><trkpt lat="42.3214537" lon="12.6919032"><ele>400.0</ele><time>2026-05-03T12:34:42.916Z</time></trkpt><trkpt lat="42.3213548" lon="12.6917855"><ele>398.2</ele><time>2026-05-03T12:34:43.91Z</time></trkpt><trkpt lat="42.3212788" lon="12.6917373"><ele>396.4</ele><time>2026-05-03T12:34:44.924Z</time></trkpt><trkpt lat="42.3211668" lon="12.6916694"><ele>394.6</ele><time>2026-05-03T12:34:45.916Z</time></trkpt><trkpt lat="42.3210929" lon="12.69161"><ele>392.8</ele><time>2026-05-03T12:34:47.924Z</time></trkpt><trkpt lat="42.321075" lon="12.691709"><ele>391.0</ele><time>2026-05-03T12:34:50.942Z</time></trkpt><trkpt lat="42.3211671" lon="12.691784"><ele>391.0</ele><time>2026-05-03T12:34:52.912Z</time></trkpt><trkpt lat="42.3212251" lon="12.6918467"><ele>391.0</ele><time>2026-05-03T12:34:53.907Z</time></trkpt><trkpt lat="42.3212758" lon="12.691933"><ele>391.0</ele><time>2026-05-03T12:34:54.913Z</time></trkpt><trkpt lat="42.3213376" lon="12.6920469"><ele>391.0</ele><time>2026-05-03T12:34:55.914Z</time></trkpt><trkpt lat="42.3213995" lon="12.6921733"><ele>391.0</ele><time>2026-05-03T12:34:56.918Z</time></trkpt><trkpt lat="42.3214479" lon="12.6923024"><ele>393.25</ele><time>2026-05-03T12:34:57.928Z</time></trkpt><trkpt lat="42.3214878" lon="12.6924323"><ele>395.5</ele><time>2026-05-03T12:34:58.923Z</time></trkpt><trkpt lat="42.3215182" lon="12.6925578"><ele>397.75</ele><time>2026-05-03T12:34:59.923Z</time></trkpt><trkpt lat="42.3215727" lon="12.6927211"><ele>400.0</ele><time>2026-05-03T12:35:00.922Z</time></trkpt><trkpt lat="42.3216145" lon="12.6928718"><ele>405.0</ele><time>2026-05-03T12:35:01.915Z</time></trkpt><trkpt lat="42.3216481" lon="12.6930257"><ele>410.0</ele><time>2026-05-03T12:35:02.921Z</time></trkpt><trkpt lat="42.3216741" lon="12.6931702"><ele>415.0</ele><time>2026-05-03T12:35:03.92Z</time></trkpt><trkpt lat="42.3217017" lon="12.6933155"><ele>420.0</ele><time>2026-05-03T12:35:04.937Z</time></trkpt><trkpt lat="42.3217372" lon="12.693475"><ele>420.4</ele><time>2026-05-03T12:35:05.914Z</time></trkpt><trkpt lat="42.3217363" lon="12.693628"><ele>420.8</ele><time>2026-05-03T12:35:06.919Z</time></trkpt><trkpt lat="42.3217184" lon="12.6937704"><ele>421.20000000000005</ele><time>2026-05-03T12:35:07.91Z</time></trkpt><trkpt lat="42.3217026" lon="12.6939214"><ele>421.6</ele><time>2026-05-03T12:35:08.917Z</time></trkpt><trkpt lat="42.3216833" lon="12.6940498"><ele>422.0</ele><time>2026-05-03T12:35:09.919Z</time></trkpt><trkpt lat="42.3216442" lon="12.6941377"><ele>422.0</ele><time>2026-05-03T12:35:10.916Z</time></trkpt><trkpt lat="42.321569" lon="12.6942137"><ele>422.0</ele><time>2026-05-03T12:35:11.916Z</time></trkpt><trkpt lat="42.3214582" lon="12.6942585"><ele>422.0</ele><time>2026-05-03T12:35:12.918Z</time></trkpt><trkpt lat="42.3213325" lon="12.6942847"><ele>422.0</ele><time>2026-05-03T12:35:13.909Z</time></trkpt><trkpt lat="42.3212012" lon="12.6943115"><ele>425.75</ele><time>2026-05-03T12:35:14.906Z</time></trkpt><trkpt lat="42.3210765" lon="12.6943519"><ele>429.5</ele><time>2026-05-03T12:35:15.908Z</time></trkpt><trkpt lat="42.3209539" lon="12.694438"><ele>433.25</ele><time>2026-05-03T12:35:16.899Z</time></trkpt><trkpt lat="42.3208434" lon="12.694569"><ele>437.0</ele><time>2026-05-03T12:35:17.903Z</time></trkpt><trkpt lat="42.3207237" lon="12.694769"><ele>437.0</ele><time>2026-05-03T12:35:18.91Z</time></trkpt><trkpt lat="42.320646" lon="12.6948873"><ele>437.00000000000006</ele><time>2026-05-03T12:35:19.922Z</time></trkpt><trkpt lat="42.3205773" lon="12.6950014"><ele>437.00000000000006</ele><time>2026-05-03T12:35:20.909Z</time></trkpt><trkpt lat="42.3205053" lon="12.695067"><ele>437.0</ele><time>2026-05-03T12:35:21.913Z</time></trkpt><trkpt lat="42.3203964" lon="12.6951468"><ele>437.0</ele><time>2026-05-03T12:35:23.917Z</time></trkpt><trkpt lat="42.320331" lon="12.6951966"><ele>436.99999999999994</ele><time>2026-05-03T12:35:24.916Z</time></trkpt><trkpt lat="42.320275" lon="12.695253"><ele>437.0</ele><time>2026-05-03T12:35:25.941Z</time></trkpt><trkpt lat="42.3202179" lon="12.6953317"><ele>437.0</ele><time>2026-05-03T12:35:26.928Z</time></trkpt><trkpt lat="42.3201618" lon="12.6954258"><ele>437.0</ele><time>2026-05-03T12:35:27.919Z</time></trkpt><trkpt lat="42.3200972" lon="12.6955373"><ele>436.99999999999994</ele><time>2026-05-03T12:35:28.925Z</time></trkpt><trkpt lat="42.3200405" lon="12.6956461"><ele>437.0</ele><time>2026-05-03T12:35:29.927Z</time></trkpt><trkpt lat="42.3199934" lon="12.6957571"><ele>437.0</ele><time>2026-05-03T12:35:30.929Z</time></trkpt><trkpt lat="42.3199423" lon="12.6958897"><ele>437.0</ele><time>2026-05-03T12:35:31.931Z</time></trkpt><trkpt lat="42.3198825" lon="12.6960331"><ele>437.0</ele><time>2026-05-03T12:35:32.918Z</time></trkpt><trkpt lat="42.3198162" lon="12.6961889"><ele>437.0</ele><time>2026-05-03T12:35:33.933Z</time></trkpt><trkpt lat="42.3197566" lon="12.6963492"><ele>436.0</ele><time>2026-05-03T12:35:34.922Z</time></trkpt><trkpt lat="42.319691" lon="12.6965153"><ele>435.0</ele><time>2026-05-03T12:35:35.93Z</time></trkpt><trkpt lat="42.3196331" lon="12.6966793"><ele>434.0</ele><time>2026-05-03T12:35:36.924Z</time></trkpt><trkpt lat="42.3195784" lon="12.6968301"><ele>433.0</ele><time>2026-05-03T12:35:37.934Z</time></trkpt><trkpt lat="42.3195266" lon="12.6969661"><ele>433.0</ele><time>2026-05-03T12:35:38.93Z</time></trkpt><trkpt lat="42.3194691" lon="12.6970947"><ele>432.99999999999994</ele><time>2026-05-03T12:35:39.929Z</time></trkpt><trkpt lat="42.3194131" lon="12.6972126"><ele>432.99999999999994</ele><time>2026-05-03T12:35:40.934Z</time></trkpt><trkpt lat="42.319371" lon="12.6973269"><ele>433.0</ele><time>2026-05-03T12:35:41.932Z</time></trkpt><trkpt lat="42.3193524" lon="12.6974378"><ele>433.0</ele><time>2026-05-03T12:35:42.931Z</time></trkpt><trkpt lat="42.3193399" lon="12.6975441"><ele>433.0</ele><time>2026-05-03T12:35:43.928Z</time></trkpt><trkpt lat="42.3193255" lon="12.6976347"><ele>432.99999999999994</ele><time>2026-05-03T12:35:44.927Z</time></trkpt><trkpt lat="42.3192936" lon="12.6977661"><ele>432.99999999999994</ele><time>2026-05-03T12:35:46.924Z</time></trkpt><trkpt lat="42.3192696" lon="12.6978482"><ele>433.0</ele><time>2026-05-03T12:35:48.931Z</time></trkpt><trkpt lat="42.3192371" lon="12.6979921"><ele>433.0</ele><time>2026-05-03T12:35:51.924Z</time></trkpt><trkpt lat="42.3192242" lon="12.698134"><ele>433.83333333333337</ele><time>2026-05-03T12:35:53.938Z</time></trkpt><trkpt lat="42.3192137" lon="12.6982255"><ele>434.6666666666667</ele><time>2026-05-03T12:35:54.929Z</time></trkpt><trkpt lat="42.3192058" lon="12.6983153"><ele>435.5</ele><time>2026-05-03T12:35:55.931Z</time></trkpt><trkpt lat="42.3192013" lon="12.6984051"><ele>436.33333333333337</ele><time>2026-05-03T12:35:56.928Z</time></trkpt><trkpt lat="42.319203" lon="12.6985744"><ele>437.1666666666667</ele><time>2026-05-03T12:35:58.921Z</time></trkpt><trkpt lat="42.3192329" lon="12.6987164"><ele>438.0</ele><time>2026-05-03T12:36:00.922Z</time></trkpt><trkpt lat="42.3192599" lon="12.6988088"><ele>438.0</ele><time>2026-05-03T12:36:02.949Z</time></trkpt><trkpt lat="42.3192886" lon="12.6989225"><ele>437.99999999999994</ele><time>2026-05-03T12:36:04.913Z</time></trkpt><trkpt lat="42.3193347" lon="12.6990754"><ele>437.99999999999994</ele><time>2026-05-03T12:36:06.916Z</time></trkpt><trkpt lat="42.319378" lon="12.6992176"><ele>438.0</ele><time>2026-05-03T12:36:08.925Z</time></trkpt><trkpt lat="42.3193885" lon="12.6993566"><ele>438.0</ele><time>2026-05-03T12:36:10.915Z</time></trkpt><trkpt lat="42.3193975" lon="12.6995042"><ele>439.1666666666667</ele><time>2026-05-03T12:36:12.928Z</time></trkpt><trkpt lat="42.3194193" lon="12.699676"><ele>440.33333333333337</ele><time>2026-05-03T12:36:14.927Z</time></trkpt><trkpt lat="42.3194198" lon="12.699779"><ele>441.5</ele><time>2026-05-03T12:36:15.925Z</time></trkpt><trkpt lat="42.3194265" lon="12.6998772"><ele>442.6666666666667</ele><time>2026-05-03T12:36:16.928Z</time></trkpt><trkpt lat="42.319425" lon="12.6999758"><ele>443.83333333333337</ele><time>2026-05-03T12:36:17.931Z</time></trkpt><trkpt lat="42.3194196" lon="12.7000674"><ele>445.0</ele><time>2026-05-03T12:36:18.931Z</time></trkpt><trkpt lat="42.3194078" lon="12.7001632"><ele>447.33333333333337</ele><time>2026-05-03T12:36:19.929Z</time></trkpt><trkpt lat="42.3193699" lon="12.7003239"><ele>449.6666666666667</ele><time>2026-05-03T12:36:21.929Z</time></trkpt><trkpt lat="42.3193441" lon="12.7004185"><ele>452.0</ele><time>2026-05-03T12:36:22.951Z</time></trkpt><trkpt lat="42.3193193" lon="12.7005091"><ele>454.33333333333337</ele><time>2026-05-03T12:36:23.928Z</time></trkpt><trkpt lat="42.3192886" lon="12.7006016"><ele>456.6666666666667</ele><time>2026-05-03T12:36:24.955Z</time></trkpt><trkpt lat="42.3192684" lon="12.7007066"><ele>459.0</ele><time>2026-05-03T12:36:25.933Z</time></trkpt><trkpt lat="42.3192609" lon="12.7008243"><ele>459.0</ele><time>2026-05-03T12:36:26.937Z</time></trkpt><trkpt lat="42.319252" lon="12.7009282"><ele>459.0</ele><time>2026-05-03T12:36:27.95Z</time></trkpt><trkpt lat="42.319239" lon="12.7010192"><ele>459.0</ele><time>2026-05-03T12:36:28.925Z</time></trkpt><trkpt lat="42.3192203" lon="12.7011058"><ele>459.0</ele><time>2026-05-03T12:36:29.932Z</time></trkpt><trkpt lat="42.3191748" lon="12.7012452"><ele>459.0</ele><time>2026-05-03T12:36:31.928Z</time></trkpt><trkpt lat="42.3191558" lon="12.7013751"><ele>459.0</ele><time>2026-05-03T12:36:33.93Z</time></trkpt><trkpt lat="42.3192139" lon="12.7015122"><ele>459.6666666666667</ele><time>2026-05-03T12:36:35.949Z</time></trkpt><trkpt lat="42.3192681" lon="12.7015999"><ele>460.33333333333337</ele><time>2026-05-03T12:36:36.921Z</time></trkpt><trkpt lat="42.3193195" lon="12.7016967"><ele>461.0</ele><time>2026-05-03T12:36:37.923Z</time></trkpt><trkpt lat="42.3193566" lon="12.7017903"><ele>461.6666666666667</ele><time>2026-05-03T12:36:38.928Z</time></trkpt><trkpt lat="42.3193983" lon="12.7018746"><ele>462.33333333333337</ele><time>2026-05-03T12:36:39.914Z</time></trkpt><trkpt lat="42.319441" lon="12.7019599"><ele>463.0</ele><time>2026-05-03T12:36:40.917Z</time></trkpt><trkpt lat="42.3194867" lon="12.702049"><ele>463.0</ele><time>2026-05-03T12:36:41.93Z</time></trkpt><trkpt lat="42.3195332" lon="12.7021431"><ele>462.99999999999994</ele><time>2026-05-03T12:36:42.917Z</time></trkpt><trkpt lat="42.3195732" lon="12.7022327"><ele>462.99999999999994</ele><time>2026-05-03T12:36:43.917Z</time></trkpt><trkpt lat="42.3196442" lon="12.7023502"><ele>463.0</ele><time>2026-05-03T12:36:45.918Z</time></trkpt><trkpt lat="42.3196932" lon="12.7024947"><ele>463.0</ele><time>2026-05-03T12:36:47.92Z</time></trkpt><trkpt lat="42.319714" lon="12.7026291"><ele>463.00000000000006</ele><time>2026-05-03T12:36:49.908Z</time></trkpt><trkpt lat="42.3197387" lon="12.7027179"><ele>463.0</ele><time>2026-05-03T12:37:01.924Z</time></trkpt><trkpt lat="42.3197052" lon="12.7026265"><ele>463.0</ele><time>2026-05-03T12:37:27.921Z</time></trkpt><trkpt lat="42.3196764" lon="12.7025221"><ele>463.0</ele><time>2026-05-03T12:37:30.921Z</time></trkpt><trkpt lat="42.3196408" lon="12.7024399"><ele>463.00000000000006</ele><time>2026-05-03T12:37:33.923Z</time></trkpt><trkpt lat="42.3195818" lon="12.7023226"><ele>463.0</ele><time>2026-05-03T12:37:35.92Z</time></trkpt><trkpt lat="42.3194998" lon="12.702212"><ele>463.00000000000006</ele><time>2026-05-03T12:37:37.921Z</time></trkpt><trkpt lat="42.3194542" lon="12.702145"><ele>463.0</ele><time>2026-05-03T12:37:38.92Z</time></trkpt><trkpt lat="42.3193681" lon="12.7020193"><ele>463.0</ele><time>2026-05-03T12:37:40.92Z</time></trkpt><trkpt lat="42.3193214" lon="12.7019422"><ele>463.0</ele><time>2026-05-03T12:37:41.919Z</time></trkpt><trkpt lat="42.3192713" lon="12.701859"><ele>463.00000000000006</ele><time>2026-05-03T12:37:42.92Z</time></trkpt><trkpt lat="42.3192272" lon="12.7017905"><ele>463.0</ele><time>2026-05-03T12:37:43.927Z</time></trkpt><trkpt lat="42.3191903" lon="12.7017207"><ele>463.1428571428571</ele><time>2026-05-03T12:37:44.925Z</time></trkpt><trkpt lat="42.3191554" lon="12.7016363"><ele>463.2857142857142</ele><time>2026-05-03T12:37:45.926Z</time></trkpt><trkpt lat="42.3191178" lon="12.7015179"><ele>463.42857142857144</ele><time>2026-05-03T12:37:46.919Z</time></trkpt><trkpt lat="42.3190906" lon="12.701435"><ele>463.57142857142856</ele><time>2026-05-03T12:37:47.944Z</time></trkpt><trkpt lat="42.319076" lon="12.7013509"><ele>463.7142857142857</ele><time>2026-05-03T12:37:48.929Z</time></trkpt><trkpt lat="42.3190768" lon="12.7012633"><ele>463.8571428571429</ele><time>2026-05-03T12:37:49.916Z</time></trkpt><trkpt lat="42.3190985" lon="12.7011664"><ele>464.00000000000006</ele><time>2026-05-03T12:37:50.925Z</time></trkpt><trkpt lat="42.3191282" lon="12.7010626"><ele>463.28571428571433</ele><time>2026-05-03T12:37:51.931Z</time></trkpt><trkpt lat="42.3191486" lon="12.7009645"><ele>462.57142857142856</ele><time>2026-05-03T12:37:52.926Z</time></trkpt><trkpt lat="42.3191838" lon="12.7008819"><ele>461.8571428571429</ele><time>2026-05-03T12:37:53.922Z</time></trkpt><trkpt lat="42.3191958" lon="12.7007844"><ele>461.14285714285717</ele><time>2026-05-03T12:37:54.935Z</time></trkpt><trkpt lat="42.3191999" lon="12.7006939"><ele>460.42857142857144</ele><time>2026-05-03T12:37:55.924Z</time></trkpt><trkpt lat="42.3192231" lon="12.7006002"><ele>459.7142857142857</ele><time>2026-05-03T12:37:56.924Z</time></trkpt><trkpt lat="42.3192384" lon="12.7005013"><ele>459.0</ele><time>2026-05-03T12:37:57.931Z</time></trkpt><trkpt lat="42.3192524" lon="12.7004138"><ele>459.0</ele><time>2026-05-03T12:37:58.919Z</time></trkpt><trkpt lat="42.3192772" lon="12.7003194"><ele>459.0</ele><time>2026-05-03T12:37:59.921Z</time></trkpt><trkpt lat="42.3193037" lon="12.7002275"><ele>459.0</ele><time>2026-05-03T12:38:00.929Z</time></trkpt><trkpt lat="42.3193458" lon="12.700151"><ele>459.0</ele><time>2026-05-03T12:38:01.923Z</time></trkpt><trkpt lat="42.3193798" lon="12.7000747"><ele>459.0</ele><time>2026-05-03T12:38:02.925Z</time></trkpt><trkpt lat="42.3194095" lon="12.6999324"><ele>459.0</ele><time>2026-05-03T12:38:04.921Z</time></trkpt><trkpt lat="42.319419" lon="12.6997976"><ele>456.6666666666667</ele><time>2026-05-03T12:38:06.928Z</time></trkpt><trkpt lat="42.3194365" lon="12.699635"><ele>454.33333333333337</ele><time>2026-05-03T12:38:08.932Z</time></trkpt><trkpt lat="42.3194345" lon="12.6995471"><ele>452.0</ele><time>2026-05-03T12:38:09.93Z</time></trkpt><trkpt lat="42.3194376" lon="12.6994602"><ele>449.6666666666667</ele><time>2026-05-03T12:38:10.932Z</time></trkpt><trkpt lat="42.3194386" lon="12.6993616"><ele>447.33333333333337</ele><time>2026-05-03T12:38:11.93Z</time></trkpt><trkpt lat="42.3194364" lon="12.6992545"><ele>445.0</ele><time>2026-05-03T12:38:12.925Z</time></trkpt><trkpt lat="42.3194338" lon="12.6991487"><ele>444.50000000000006</ele><time>2026-05-03T12:38:13.929Z</time></trkpt><trkpt lat="42.3194309" lon="12.6990547"><ele>444.0</ele><time>2026-05-03T12:38:14.927Z</time></trkpt><trkpt lat="42.3194092" lon="12.6989721"><ele>443.5</ele><time>2026-05-03T12:38:15.933Z</time></trkpt><trkpt lat="42.3193999" lon="12.6988876"><ele>443.0</ele><time>2026-05-03T12:38:16.931Z</time></trkpt><trkpt lat="42.3193677" lon="12.6987371"><ele>442.50000000000006</ele><time>2026-05-03T12:38:18.924Z</time></trkpt><trkpt lat="42.3193176" lon="12.6986019"><ele>442.0</ele><time>2026-05-03T12:38:20.928Z</time></trkpt><trkpt lat="42.3192877" lon="12.698447"><ele>442.0</ele><time>2026-05-03T12:38:22.927Z</time></trkpt><trkpt lat="42.3192609" lon="12.6983093"><ele>442.00000000000006</ele><time>2026-05-03T12:38:24.934Z</time></trkpt><trkpt lat="42.3192636" lon="12.6981514"><ele>442.00000000000006</ele><time>2026-05-03T12:38:26.929Z</time></trkpt><trkpt lat="42.3192743" lon="12.6980597"><ele>442.0</ele><time>2026-05-03T12:38:27.937Z</time></trkpt><trkpt lat="42.3192961" lon="12.697887"><ele>442.0</ele><time>2026-05-03T12:38:29.935Z</time></trkpt><trkpt lat="42.3193065" lon="12.6977648"><ele>440.20000000000005</ele><time>2026-05-03T12:38:31.926Z</time></trkpt><trkpt lat="42.3193423" lon="12.6976287"><ele>438.40000000000003</ele><time>2026-05-03T12:38:34.928Z</time></trkpt><trkpt lat="42.31936" lon="12.6975437"><ele>436.59999999999997</ele><time>2026-05-03T12:38:35.938Z</time></trkpt><trkpt lat="42.3193933" lon="12.6974197"><ele>434.79999999999995</ele><time>2026-05-03T12:38:36.918Z</time></trkpt><trkpt lat="42.3194282" lon="12.6972971"><ele>433.0</ele><time>2026-05-03T12:38:37.938Z</time></trkpt><trkpt lat="42.3194477" lon="12.6971813"><ele>433.00000000000006</ele><time>2026-05-03T12:38:38.914Z</time></trkpt><trkpt lat="42.3194715" lon="12.6970702"><ele>433.0</ele><time>2026-05-03T12:38:40.018Z</time></trkpt><trkpt lat="42.3195046" lon="12.6969538"><ele>433.0</ele><time>2026-05-03T12:38:40.928Z</time></trkpt><trkpt lat="42.3195529" lon="12.6968488"><ele>433.0</ele><time>2026-05-03T12:38:41.923Z</time></trkpt><trkpt lat="42.3195949" lon="12.6967447"><ele>433.00000000000006</ele><time>2026-05-03T12:38:42.931Z</time></trkpt><trkpt lat="42.3196335" lon="12.6966436"><ele>433.0</ele><time>2026-05-03T12:38:43.929Z</time></trkpt><trkpt lat="42.3196774" lon="12.696523"><ele>434.0</ele><time>2026-05-03T12:38:44.917Z</time></trkpt><trkpt lat="42.3197345" lon="12.6963713"><ele>435.0</ele><time>2026-05-03T12:38:45.93Z</time></trkpt><trkpt lat="42.3197998" lon="12.6962286"><ele>436.0</ele><time>2026-05-03T12:38:46.925Z</time></trkpt><trkpt lat="42.3198542" lon="12.696082"><ele>437.0</ele><time>2026-05-03T12:38:47.923Z</time></trkpt><trkpt lat="42.3199029" lon="12.695948"><ele>437.0</ele><time>2026-05-03T12:38:48.92Z</time></trkpt><trkpt lat="42.319954" lon="12.6958221"><ele>437.0</ele><time>2026-05-03T12:38:49.923Z</time></trkpt><trkpt lat="42.3200125" lon="12.6956858"><ele>437.0</ele><time>2026-05-03T12:38:50.926Z</time></trkpt><trkpt lat="42.3200715" lon="12.6955443"><ele>437.0</ele><time>2026-05-03T12:38:51.923Z</time></trkpt><trkpt lat="42.3201344" lon="12.6954155"><ele>436.99999999999994</ele><time>2026-05-03T12:38:52.96Z</time></trkpt><trkpt lat="42.3201931" lon="12.6953091"><ele>437.0</ele><time>2026-05-03T12:38:53.958Z</time></trkpt><trkpt lat="42.320243" lon="12.6952125"><ele>437.0</ele><time>2026-05-03T12:38:54.929Z</time></trkpt><trkpt lat="42.32029" lon="12.6951238"><ele>437.0</ele><time>2026-05-03T12:38:55.932Z</time></trkpt><trkpt lat="42.3203277" lon="12.6950442"><ele>436.99999999999994</ele><time>2026-05-03T12:38:56.925Z</time></trkpt><trkpt lat="42.3203934" lon="12.6949493"><ele>437.0</ele><time>2026-05-03T12:38:58.934Z</time></trkpt><trkpt lat="42.3204595" lon="12.6949506"><ele>437.0</ele><time>2026-05-03T12:39:00.929Z</time></trkpt><trkpt lat="42.3205054" lon="12.6950387"><ele>437.00000000000006</ele><time>2026-05-03T12:39:02.931Z</time></trkpt><trkpt lat="42.3204972" lon="12.6951905"><ele>437.00000000000006</ele><time>2026-05-03T12:39:04.938Z</time></trkpt><trkpt lat="42.3204599" lon="12.6952843"><ele>437.0</ele><time>2026-05-03T12:39:05.936Z</time></trkpt><trkpt lat="42.3204141" lon="12.6953971"><ele>437.0</ele><time>2026-05-03T12:39:06.933Z</time></trkpt><trkpt lat="42.3204012" lon="12.6955582"><ele>437.0</ele><time>2026-05-03T12:39:07.929Z</time></trkpt><trkpt lat="42.3203812" lon="12.6957169"><ele>437.0</ele><time>2026-05-03T12:39:08.93Z</time></trkpt><trkpt lat="42.3203634" lon="12.6958975"><ele>437.0</ele><time>2026-05-03T12:39:09.933Z</time></trkpt><trkpt lat="42.3203442" lon="12.6960511"><ele>437.0</ele><time>2026-05-03T12:39:10.929Z</time></trkpt><trkpt lat="42.3203263" lon="12.696201"><ele>441.20000000000005</ele><time>2026-05-03T12:39:11.931Z</time></trkpt><trkpt lat="42.3202978" lon="12.6963379"><ele>445.40000000000003</ele><time>2026-05-03T12:39:12.932Z</time></trkpt><trkpt lat="42.3202661" lon="12.6964768"><ele>449.59999999999997</ele><time>2026-05-03T12:39:13.927Z</time></trkpt><trkpt lat="42.3202436" lon="12.6966143"><ele>453.79999999999995</ele><time>2026-05-03T12:39:14.929Z</time></trkpt><trkpt lat="42.3202313" lon="12.6967243"><ele>458.0</ele><time>2026-05-03T12:39:15.927Z</time></trkpt><trkpt lat="42.3202258" lon="12.6968432"><ele>459.79999999999995</ele><time>2026-05-03T12:39:16.944Z</time></trkpt><trkpt lat="42.3202149" lon="12.6969885"><ele>461.59999999999997</ele><time>2026-05-03T12:39:17.933Z</time></trkpt><trkpt lat="42.3201991" lon="12.697113"><ele>463.40000000000003</ele><time>2026-05-03T12:39:18.955Z</time></trkpt><trkpt lat="42.3201912" lon="12.6972486"><ele>465.20000000000005</ele><time>2026-05-03T12:39:19.927Z</time></trkpt><trkpt lat="42.3201697" lon="12.6974085"><ele>467.0</ele><time>2026-05-03T12:39:20.935Z</time></trkpt><trkpt lat="42.3201533" lon="12.6975684"><ele>467.0</ele><time>2026-05-03T12:39:21.932Z</time></trkpt><trkpt lat="42.3201254" lon="12.6976985"><ele>467.00000000000006</ele><time>2026-05-03T12:39:22.919Z</time></trkpt><trkpt lat="42.3200953" lon="12.6978496"><ele>467.00000000000006</ele><time>2026-05-03T12:39:23.924Z</time></trkpt><trkpt lat="42.3200575" lon="12.6980039"><ele>467.0</ele><time>2026-05-03T12:39:24.921Z</time></trkpt><trkpt lat="42.3200314" lon="12.6981128"><ele>467.0</ele><time>2026-05-03T12:39:25.933Z</time></trkpt><trkpt lat="42.3200294" lon="12.6982374"><ele>468.40000000000003</ele><time>2026-05-03T12:39:26.931Z</time></trkpt><trkpt lat="42.3200335" lon="12.6983638"><ele>469.80000000000007</ele><time>2026-05-03T12:39:27.921Z</time></trkpt><trkpt lat="42.3200446" lon="12.6985065"><ele>471.2</ele><time>2026-05-03T12:39:28.927Z</time></trkpt><trkpt lat="42.3200568" lon="12.6986384"><ele>472.6</ele><time>2026-05-03T12:39:29.931Z</time></trkpt><trkpt lat="42.3200779" lon="12.6987831"><ele>474.0</ele><time>2026-05-03T12:39:30.925Z</time></trkpt><trkpt lat="42.3200916" lon="12.6989402"><ele>474.5</ele><time>2026-05-03T12:39:31.931Z</time></trkpt><trkpt lat="42.3201022" lon="12.6990945"><ele>475.0</ele><time>2026-05-03T12:39:32.924Z</time></trkpt><trkpt lat="42.3201254" lon="12.6992438"><ele>475.5</ele><time>2026-05-03T12:39:33.935Z</time></trkpt><trkpt lat="42.3201607" lon="12.6993948"><ele>476.0</ele><time>2026-05-03T12:39:34.94Z</time></trkpt><trkpt lat="42.3201959" lon="12.6995363"><ele>478.20000000000005</ele><time>2026-05-03T12:39:35.935Z</time></trkpt><trkpt lat="42.3202284" lon="12.6996644"><ele>480.40000000000003</ele><time>2026-05-03T12:39:36.935Z</time></trkpt><trkpt lat="42.3202723" lon="12.6997762"><ele>482.6</ele><time>2026-05-03T12:39:37.923Z</time></trkpt><trkpt lat="42.3203396" lon="12.6998627"><ele>484.8</ele><time>2026-05-03T12:39:38.93Z</time></trkpt><trkpt lat="42.3204326" lon="12.6999225"><ele>487.0</ele><time>2026-05-03T12:39:39.927Z</time></trkpt><trkpt lat="42.3205381" lon="12.6999794"><ele>489.6</ele><time>2026-05-03T12:39:40.925Z</time></trkpt><trkpt lat="42.3206506" lon="12.700039"><ele>492.20000000000005</ele><time>2026-05-03T12:39:41.921Z</time></trkpt><trkpt lat="42.3207599" lon="12.700098"><ele>494.8</ele><time>2026-05-03T12:39:42.914Z</time></trkpt><trkpt lat="42.3208351" lon="12.700137"><ele>497.4</ele><time>2026-05-03T12:39:43.909Z</time></trkpt><trkpt lat="42.3209171" lon="12.7001634"><ele>500.0</ele><time>2026-05-03T12:39:44.919Z</time></trkpt><trkpt lat="42.3209825" lon="12.7001995"><ele>500.0</ele><time>2026-05-03T12:39:45.922Z</time></trkpt><trkpt lat="42.3210651" lon="12.7002418"><ele>500.0</ele><time>2026-05-03T12:39:46.922Z</time></trkpt><trkpt lat="42.3211543" lon="12.7002913"><ele>500.0</ele><time>2026-05-03T12:39:47.925Z</time></trkpt><trkpt lat="42.3212397" lon="12.7003388"><ele>500.0</ele><time>2026-05-03T12:39:48.949Z</time></trkpt><trkpt lat="42.321325" lon="12.7003838"><ele>500.0</ele><time>2026-05-03T12:39:49.929Z</time></trkpt><trkpt lat="42.3214239" lon="12.7004344"><ele>507.25</ele><time>2026-05-03T12:39:50.934Z</time></trkpt><trkpt lat="42.3215452" lon="12.7004841"><ele>514.5</ele><time>2026-05-03T12:39:51.922Z</time></trkpt><trkpt lat="42.3216601" lon="12.7005274"><ele>521.75</ele><time>2026-05-03T12:39:52.919Z</time></trkpt><trkpt lat="42.3217661" lon="12.700566"><ele>529.0</ele><time>2026-05-03T12:39:53.929Z</time></trkpt><trkpt lat="42.3218691" lon="12.7006197"><ele>529.0</ele><time>2026-05-03T12:39:54.936Z</time></trkpt><trkpt lat="42.3219673" lon="12.7006714"><ele>529.0</ele><time>2026-05-03T12:39:55.916Z</time></trkpt><trkpt lat="42.3220482" lon="12.7007098"><ele>529.0</ele><time>2026-05-03T12:39:56.922Z</time></trkpt><trkpt lat="42.3221399" lon="12.7007407"><ele>529.0</ele><time>2026-05-03T12:39:58.904Z</time></trkpt><trkpt lat="42.3222026" lon="12.7007486"><ele>529.0</ele><time>2026-05-03T12:40:10.916Z</time></trkpt><trkpt lat="42.3222999" lon="12.7007715"><ele>529.0</ele><time>2026-05-03T12:40:22.915Z</time></trkpt><trkpt lat="42.3223761" lon="12.7007694"><ele>530.75</ele><time>2026-05-03T12:40:23.921Z</time></trkpt><trkpt lat="42.3224787" lon="12.7007326"><ele>532.5</ele><time>2026-05-03T12:40:24.914Z</time></trkpt><trkpt lat="42.3225996" lon="12.7006985"><ele>534.25</ele><time>2026-05-03T12:40:25.94Z</time></trkpt><trkpt lat="42.3227276" lon="12.7006529"><ele>536.0</ele><time>2026-05-03T12:40:26.919Z</time></trkpt><trkpt lat="42.3228581" lon="12.7005692"><ele>536.0</ele><time>2026-05-03T12:40:27.928Z</time></trkpt><trkpt lat="42.3229997" lon="12.700453"><ele>536.0</ele><time>2026-05-03T12:40:28.92Z</time></trkpt><trkpt lat="42.3231558" lon="12.7003297"><ele>536.0</ele><time>2026-05-03T12:40:29.924Z</time></trkpt><trkpt lat="42.323297" lon="12.7002168"><ele>535.75</ele><time>2026-05-03T12:40:30.926Z</time></trkpt><trkpt lat="42.3234361" lon="12.7001032"><ele>535.5</ele><time>2026-05-03T12:40:31.923Z</time></trkpt><trkpt lat="42.3235636" lon="12.7000091"><ele>535.25</ele><time>2026-05-03T12:40:32.917Z</time></trkpt><trkpt lat="42.3236827" lon="12.699937"><ele>535.0</ele><time>2026-05-03T12:40:33.92Z</time></trkpt><trkpt lat="42.3238025" lon="12.6998641"><ele>540.2</ele><time>2026-05-03T12:40:34.912Z</time></trkpt><trkpt lat="42.3239246" lon="12.6997913"><ele>545.4</ele><time>2026-05-03T12:40:35.926Z</time></trkpt><trkpt lat="42.3240306" lon="12.6997262"><ele>550.6</ele><time>2026-05-03T12:40:36.912Z</time></trkpt><trkpt lat="42.3241246" lon="12.6996637"><ele>555.8</ele><time>2026-05-03T12:40:37.921Z</time></trkpt><trkpt lat="42.3242004" lon="12.6996079"><ele>561.0</ele><time>2026-05-03T12:40:38.92Z</time></trkpt><trkpt lat="42.3242604" lon="12.6995508"><ele>561.0</ele><time>2026-05-03T12:40:39.922Z</time></trkpt><trkpt lat="42.3243765" lon="12.6995193"><ele>561.0</ele><time>2026-05-03T12:40:41.926Z</time></trkpt><trkpt lat="42.3244516" lon="12.6995048"><ele>561.0</ele><time>2026-05-03T12:40:42.922Z</time></trkpt><trkpt lat="42.3245324" lon="12.6994996"><ele>561.0</ele><time>2026-05-03T12:40:43.919Z</time></trkpt><trkpt lat="42.3246182" lon="12.69951"><ele>561.0</ele><time>2026-05-03T12:40:44.929Z</time></trkpt><trkpt lat="42.3247215" lon="12.6995333"><ele>563.25</ele><time>2026-05-03T12:40:45.921Z</time></trkpt><trkpt lat="42.3248304" lon="12.6995715"><ele>565.5</ele><time>2026-05-03T12:40:46.923Z</time></trkpt><trkpt lat="42.3249467" lon="12.699625"><ele>567.75</ele><time>2026-05-03T12:40:47.923Z</time></trkpt><trkpt lat="42.3250671" lon="12.6996966"><ele>570.0</ele><time>2026-05-03T12:40:48.919Z</time></trkpt><trkpt lat="42.3251827" lon="12.6997818"><ele>570.0</ele><time>2026-05-03T12:40:49.923Z</time></trkpt><trkpt lat="42.3252885" lon="12.6998653"><ele>570.0</ele><time>2026-05-03T12:40:50.926Z</time></trkpt><trkpt lat="42.3254009" lon="12.6999432"><ele>570.0</ele><time>2026-05-03T12:40:51.917Z</time></trkpt><trkpt lat="42.3255113" lon="12.7000178"><ele>570.0</ele><time>2026-05-03T12:40:52.929Z</time></trkpt><trkpt lat="42.325607" lon="12.7000711"><ele>573.8</ele><time>2026-05-03T12:40:53.918Z</time></trkpt><trkpt lat="42.3256923" lon="12.7001154"><ele>577.6</ele><time>2026-05-03T12:40:54.912Z</time></trkpt><trkpt lat="42.3257738" lon="12.7001529"><ele>581.4</ele><time>2026-05-03T12:40:55.922Z</time></trkpt><trkpt lat="42.3258728" lon="12.70019"><ele>585.2</ele><time>2026-05-03T12:40:56.92Z</time></trkpt><trkpt lat="42.3259888" lon="12.7002441"><ele>589.0</ele><time>2026-05-03T12:40:57.926Z</time></trkpt><trkpt lat="42.3260956" lon="12.7003125"><ele>596.3333333333334</ele><time>2026-05-03T12:40:58.918Z</time></trkpt><trkpt lat="42.3262229" lon="12.700394"><ele>603.6666666666666</ele><time>2026-05-03T12:40:59.922Z</time></trkpt><trkpt lat="42.3263669" lon="12.7004734"><ele>611.0</ele><time>2026-05-03T12:41:00.917Z</time></trkpt><trkpt lat="42.3265107" lon="12.7005644"><ele>611.4</ele><time>2026-05-03T12:41:01.921Z</time></trkpt><trkpt lat="42.3266125" lon="12.7006398"><ele>611.8</ele><time>2026-05-03T12:41:02.91Z</time></trkpt><trkpt lat="42.3267134" lon="12.700711"><ele>612.1999999999999</ele><time>2026-05-03T12:41:03.994Z</time></trkpt><trkpt lat="42.3268099" lon="12.7007598"><ele>612.6</ele><time>2026-05-03T12:41:04.929Z</time></trkpt><trkpt lat="42.326899" lon="12.7008349"><ele>613.0</ele><time>2026-05-03T12:41:05.928Z</time></trkpt><trkpt lat="42.3269842" lon="12.7008804"><ele>613.0</ele><time>2026-05-03T12:41:06.914Z</time></trkpt><trkpt lat="42.327059" lon="12.7009293"><ele>613.0</ele><time>2026-05-03T12:41:07.914Z</time></trkpt><trkpt lat="42.327178" lon="12.7009826"><ele>613.0</ele><time>2026-05-03T12:41:09.916Z</time></trkpt><trkpt lat="42.3273144" lon="12.7010392"><ele>613.0</ele><time>2026-05-03T12:41:11.94Z</time></trkpt><trkpt lat="42.327391" lon="12.7010984"><ele>613.0</ele><time>2026-05-03T12:41:12.917Z</time></trkpt><trkpt lat="42.3274407" lon="12.7011565"><ele>616.8333333333334</ele><time>2026-05-03T12:41:13.925Z</time></trkpt><trkpt lat="42.32744" lon="12.7012938"><ele>620.6666666666667</ele><time>2026-05-03T12:41:15.912Z</time></trkpt><trkpt lat="42.3274112" lon="12.7014123"><ele>624.5</ele><time>2026-05-03T12:41:17.919Z</time></trkpt><trkpt lat="42.3273683" lon="12.7014963"><ele>628.3333333333334</ele><time>2026-05-03T12:41:19.925Z</time></trkpt><trkpt lat="42.3274418" lon="12.7015408"><ele>632.1666666666666</ele><time>2026-05-03T12:41:36.925Z</time></trkpt><trkpt lat="42.3274901" lon="12.7014571"><ele>636.0</ele><time>2026-05-03T12:41:38.95Z</time></trkpt><trkpt lat="42.3275105" lon="12.7012705"><ele>636.0</ele><time>2026-05-03T12:41:40.939Z</time></trkpt><trkpt lat="42.3275254" lon="12.7011438"><ele>636.0</ele><time>2026-05-03T12:41:42.082Z</time></trkpt><trkpt lat="42.327572" lon="12.7009043"><ele>636.0</ele><time>2026-05-03T12:41:43.928Z</time></trkpt><trkpt lat="42.327629" lon="12.7007308"><ele>636.0</ele><time>2026-05-03T12:41:45.928Z</time></trkpt><trkpt lat="42.3276951" lon="12.7006789"><ele>635.4</ele><time>2026-05-03T12:41:46.915Z</time></trkpt><trkpt lat="42.3277895" lon="12.7006771"><ele>634.8</ele><time>2026-05-03T12:41:47.923Z</time></trkpt><trkpt lat="42.3278801" lon="12.7006796"><ele>634.1999999999999</ele><time>2026-05-03T12:41:48.918Z</time></trkpt><trkpt lat="42.3279714" lon="12.7006952"><ele>633.6</ele><time>2026-05-03T12:41:49.916Z</time></trkpt><trkpt lat="42.3280796" lon="12.7007354"><ele>633.0</ele><time>2026-05-03T12:41:50.921Z</time></trkpt><trkpt lat="42.3281831" lon="12.7007818"><ele>633.0</ele><time>2026-05-03T12:41:51.911Z</time></trkpt><trkpt lat="42.3282728" lon="12.7008375"><ele>633.0</ele><time>2026-05-03T12:41:52.918Z</time></trkpt><trkpt lat="42.3283533" lon="12.7009139"><ele>633.0</ele><time>2026-05-03T12:41:53.92Z</time></trkpt><trkpt lat="42.3284369" lon="12.7009916"><ele>633.0</ele><time>2026-05-03T12:41:54.918Z</time></trkpt><trkpt lat="42.3285017" lon="12.7010837"><ele>633.0</ele><time>2026-05-03T12:41:55.91Z</time></trkpt><trkpt lat="42.3285705" lon="12.7011888"><ele>634.0</ele><time>2026-05-03T12:41:56.921Z</time></trkpt><trkpt lat="42.3286433" lon="12.7013174"><ele>635.0</ele><time>2026-05-03T12:41:58.005Z</time></trkpt><trkpt lat="42.3286792" lon="12.7014024"><ele>636.0</ele><time>2026-05-03T12:41:58.919Z</time></trkpt><trkpt lat="42.3287437" lon="12.7015035"><ele>637.0</ele><time>2026-05-03T12:41:59.924Z</time></trkpt><trkpt lat="42.3288039" lon="12.7016174"><ele>638.0</ele><time>2026-05-03T12:42:01.077Z</time></trkpt><trkpt lat="42.3289418" lon="12.7017929"><ele>638.0</ele><time>2026-05-03T12:42:02.939Z</time></trkpt><trkpt lat="42.3290037" lon="12.7018677"><ele>638.0</ele><time>2026-05-03T12:42:04.074Z</time></trkpt><trkpt lat="42.3291633" lon="12.7020099"><ele>638.0</ele><time>2026-05-03T12:42:05.918Z</time></trkpt><trkpt lat="42.329214" lon="12.7021038"><ele>638.0</ele><time>2026-05-03T12:42:06.909Z</time></trkpt><trkpt lat="42.3292806" lon="12.7021962"><ele>642.4</ele><time>2026-05-03T12:42:07.914Z</time></trkpt><trkpt lat="42.3293847" lon="12.7023376"><ele>646.8</ele><time>2026-05-03T12:42:09.912Z</time></trkpt><trkpt lat="42.329445" lon="12.7023998"><ele>651.2</ele><time>2026-05-03T12:42:10.911Z</time></trkpt><trkpt lat="42.3295078" lon="12.7024215"><ele>655.6</ele><time>2026-05-03T12:42:11.934Z</time></trkpt><trkpt lat="42.3295675" lon="12.7024493"><ele>660.0</ele><time>2026-05-03T12:42:12.942Z</time></trkpt><trkpt lat="42.3296879" lon="12.7025252"><ele>660.4</ele><time>2026-05-03T12:42:14.922Z</time></trkpt><trkpt lat="42.3297749" lon="12.7025849"><ele>660.8</ele><time>2026-05-03T12:42:16.923Z</time></trkpt><trkpt lat="42.3298434" lon="12.7026523"><ele>661.2</ele><time>2026-05-03T12:42:18.918Z</time></trkpt><trkpt lat="42.3298849" lon="12.7027241"><ele>661.6</ele><time>2026-05-03T12:42:19.918Z</time></trkpt><trkpt lat="42.3299232" lon="12.7028477"><ele>662.0</ele><time>2026-05-03T12:42:20.915Z</time></trkpt><trkpt lat="42.329976" lon="12.7029857"><ele>662.0</ele><time>2026-05-03T12:42:21.915Z</time></trkpt><trkpt lat="42.3300094" lon="12.7031117"><ele>662.0</ele><time>2026-05-03T12:42:22.911Z</time></trkpt><trkpt lat="42.3300389" lon="12.7032413"><ele>662.0</ele><time>2026-05-03T12:42:23.916Z</time></trkpt><trkpt lat="42.3300535" lon="12.703359"><ele>662.0</ele><time>2026-05-03T12:42:24.914Z</time></trkpt><trkpt lat="42.3300661" lon="12.7034724"><ele>662.0</ele><time>2026-05-03T12:42:25.908Z</time></trkpt><trkpt lat="42.3300847" lon="12.7035757"><ele>662.0</ele><time>2026-05-03T12:42:26.915Z</time></trkpt><trkpt lat="42.3301219" lon="12.7036725"><ele>662.0</ele><time>2026-05-03T12:42:27.915Z</time></trkpt><trkpt lat="42.3301721" lon="12.7037405"><ele>662.0</ele><time>2026-05-03T12:42:29.909Z</time></trkpt><trkpt lat="42.330211" lon="12.703588"><ele>662.0</ele><time>2026-05-03T12:42:32.906Z</time></trkpt><trkpt lat="42.3302477" lon="12.7034731"><ele>662.0</ele><time>2026-05-03T12:42:33.914Z</time></trkpt><trkpt lat="42.3302924" lon="12.703354"><ele>662.0</ele><time>2026-05-03T12:42:34.905Z</time></trkpt><trkpt lat="42.3303465" lon="12.7032411"><ele>662.0</ele><time>2026-05-03T12:42:35.988Z</time></trkpt><trkpt lat="42.3303899" lon="12.7031311"><ele>662.0</ele><time>2026-05-03T12:42:36.928Z</time></trkpt><trkpt lat="42.3304722" lon="12.703057"><ele>662.0</ele><time>2026-05-03T12:42:37.912Z</time></trkpt><trkpt lat="42.3305542" lon="12.7030206"><ele>662.0</ele><time>2026-05-03T12:42:38.913Z</time></trkpt><trkpt lat="42.3306145" lon="12.7029853"><ele>662.0</ele><time>2026-05-03T12:42:39.934Z</time></trkpt><trkpt lat="42.3306682" lon="12.7030909"><ele>664.1666666666666</ele><time>2026-05-03T12:42:42.916Z</time></trkpt><trkpt lat="42.3306406" lon="12.7031855"><ele>666.3333333333333</ele><time>2026-05-03T12:42:43.917Z</time></trkpt><trkpt lat="42.3306256" lon="12.7032827"><ele>668.5</ele><time>2026-05-03T12:42:44.917Z</time></trkpt><trkpt lat="42.3306303" lon="12.7033929"><ele>670.6666666666666</ele><time>2026-05-03T12:42:45.925Z</time></trkpt><trkpt lat="42.3306586" lon="12.703516"><ele>672.8333333333334</ele><time>2026-05-03T12:42:46.921Z</time></trkpt><trkpt lat="42.3306961" lon="12.7036674"><ele>675.0</ele><time>2026-05-03T12:42:47.925Z</time></trkpt><trkpt lat="42.3307415" lon="12.7038181"><ele>677.2</ele><time>2026-05-03T12:42:48.924Z</time></trkpt><trkpt lat="42.3307862" lon="12.7039549"><ele>679.4</ele><time>2026-05-03T12:42:49.924Z</time></trkpt><trkpt lat="42.3308266" lon="12.7040867"><ele>681.5999999999999</ele><time>2026-05-03T12:42:50.922Z</time></trkpt><trkpt lat="42.3308681" lon="12.7042176"><ele>683.8</ele><time>2026-05-03T12:42:51.916Z</time></trkpt><trkpt lat="42.3309199" lon="12.7043252"><ele>686.0</ele><time>2026-05-03T12:42:52.935Z</time></trkpt><trkpt lat="42.3309663" lon="12.7044447"><ele>687.75</ele><time>2026-05-03T12:42:53.916Z</time></trkpt><trkpt lat="42.3310475" lon="12.7045524"><ele>689.5</ele><time>2026-05-03T12:42:54.924Z</time></trkpt><trkpt lat="42.3311587" lon="12.704642"><ele>691.25</ele><time>2026-05-03T12:42:55.92Z</time></trkpt><trkpt lat="42.3312768" lon="12.704733"><ele>693.0</ele><time>2026-05-03T12:42:56.927Z</time></trkpt><trkpt lat="42.3313982" lon="12.7048164"><ele>697.0</ele><time>2026-05-03T12:42:57.935Z</time></trkpt><trkpt lat="42.3315336" lon="12.7048939"><ele>701.0</ele><time>2026-05-03T12:42:58.936Z</time></trkpt><trkpt lat="42.3316442" lon="12.7049126"><ele>705.0</ele><time>2026-05-03T12:42:59.937Z</time></trkpt><trkpt lat="42.3317197" lon="12.7048818"><ele>709.0</ele><time>2026-05-03T12:43:00.941Z</time></trkpt><trkpt lat="42.3317862" lon="12.7047659"><ele>713.0</ele><time>2026-05-03T12:43:02.955Z</time></trkpt><trkpt lat="42.3318279" lon="12.7046717"><ele>713.0</ele><time>2026-05-03T12:43:03.923Z</time></trkpt><trkpt lat="42.3318746" lon="12.7045982"><ele>713.0</ele><time>2026-05-03T12:43:04.935Z</time></trkpt><trkpt lat="42.3319042" lon="12.7045059"><ele>713.0</ele><time>2026-05-03T12:43:05.917Z</time></trkpt><trkpt lat="42.3319177" lon="12.7043278"><ele>713.0</ele><time>2026-05-03T12:43:07.93Z</time></trkpt><trkpt lat="42.3319229" lon="12.7042016"><ele>713.0</ele><time>2026-05-03T12:43:08.921Z</time></trkpt><trkpt lat="42.3319262" lon="12.7040823"><ele>712.3333333333333</ele><time>2026-05-03T12:43:09.994Z</time></trkpt><trkpt lat="42.3319368" lon="12.7039532"><ele>711.6666666666666</ele><time>2026-05-03T12:43:10.923Z</time></trkpt><trkpt lat="42.331949" lon="12.7038262"><ele>711.0</ele><time>2026-05-03T12:43:11.933Z</time></trkpt><trkpt lat="42.3319567" lon="12.703708"><ele>710.3333333333334</ele><time>2026-05-03T12:43:12.912Z</time></trkpt><trkpt lat="42.3319599" lon="12.7036082"><ele>709.6666666666667</ele><time>2026-05-03T12:43:13.91Z</time></trkpt><trkpt lat="42.3319595" lon="12.7034963"><ele>709.0</ele><time>2026-05-03T12:43:14.908Z</time></trkpt><trkpt lat="42.3319602" lon="12.7034024"><ele>707.5</ele><time>2026-05-03T12:43:15.913Z</time></trkpt><trkpt lat="42.3319582" lon="12.7032416"><ele>706.0</ele><time>2026-05-03T12:43:17.912Z</time></trkpt><trkpt lat="42.3319508" lon="12.7031494"><ele>704.5</ele><time>2026-05-03T12:43:18.915Z</time></trkpt><trkpt lat="42.3319525" lon="12.7030567"><ele>703.0</ele><time>2026-05-03T12:43:19.925Z</time></trkpt><trkpt lat="42.3319839" lon="12.7029234"><ele>701.5</ele><time>2026-05-03T12:43:21.914Z</time></trkpt><trkpt lat="42.3320249" lon="12.7028344"><ele>700.0</ele><time>2026-05-03T12:43:23.945Z</time></trkpt><trkpt lat="42.3321103" lon="12.7028135"><ele>700.0</ele><time>2026-05-03T12:43:25.924Z</time></trkpt><trkpt lat="42.3322107" lon="12.7028867"><ele>700.0</ele><time>2026-05-03T12:43:27.926Z</time></trkpt><trkpt lat="42.3322665" lon="12.7029397"><ele>700.0</ele><time>2026-05-03T12:43:28.915Z</time></trkpt><trkpt lat="42.3323327" lon="12.7030169"><ele>700.0</ele><time>2026-05-03T12:43:29.941Z</time></trkpt><trkpt lat="42.3324246" lon="12.7031002"><ele>700.0</ele><time>2026-05-03T12:43:30.945Z</time></trkpt><trkpt lat="42.3325045" lon="12.7031958"><ele>700.2</ele><time>2026-05-03T12:43:31.929Z</time></trkpt><trkpt lat="42.3325867" lon="12.7032915"><ele>700.4</ele><time>2026-05-03T12:43:32.921Z</time></trkpt><trkpt lat="42.332676" lon="12.7033726"><ele>700.5999999999999</ele><time>2026-05-03T12:43:33.909Z</time></trkpt><trkpt lat="42.3327688" lon="12.7034453"><ele>700.8</ele><time>2026-05-03T12:43:34.909Z</time></trkpt><trkpt lat="42.332863" lon="12.7035263"><ele>701.0</ele><time>2026-05-03T12:43:35.902Z</time></trkpt><trkpt lat="42.3329615" lon="12.7035936"><ele>702.3333333333333</ele><time>2026-05-03T12:43:36.908Z</time></trkpt><trkpt lat="42.3330587" lon="12.7036588"><ele>703.6666666666666</ele><time>2026-05-03T12:43:37.901Z</time></trkpt><trkpt lat="42.3331373" lon="12.7037167"><ele>705.0</ele><time>2026-05-03T12:43:38.902Z</time></trkpt><trkpt lat="42.3332025" lon="12.7037746"><ele>706.3333333333334</ele><time>2026-05-03T12:43:39.905Z</time></trkpt><trkpt lat="42.3332664" lon="12.703819"><ele>707.6666666666667</ele><time>2026-05-03T12:43:40.909Z</time></trkpt><trkpt lat="42.3333328" lon="12.7038688"><ele>709.0</ele><time>2026-05-03T12:43:41.877Z</time></trkpt><trkpt lat="42.3334425" lon="12.7039391"><ele>709.0</ele><time>2026-05-03T12:43:43.897Z</time></trkpt><trkpt lat="42.3335079" lon="12.7039947"><ele>709.0</ele><time>2026-05-03T12:43:44.905Z</time></trkpt><trkpt lat="42.333573" lon="12.7040484"><ele>709.0</ele><time>2026-05-03T12:43:45.973Z</time></trkpt><trkpt lat="42.3336232" lon="12.7041339"><ele>709.0</ele><time>2026-05-03T12:43:46.913Z</time></trkpt><trkpt lat="42.3336925" lon="12.7042223"><ele>709.0</ele><time>2026-05-03T12:43:48.056Z</time></trkpt><trkpt lat="42.3337528" lon="12.7043075"><ele>709.0</ele><time>2026-05-03T12:43:49.057Z</time></trkpt><trkpt lat="42.3338075" lon="12.704384"><ele>709.3333333333334</ele><time>2026-05-03T12:43:50.052Z</time></trkpt><trkpt lat="42.3338764" lon="12.7044451"><ele>709.6666666666667</ele><time>2026-05-03T12:43:51.06Z</time></trkpt><trkpt lat="42.3339576" lon="12.7044908"><ele>710.0</ele><time>2026-05-03T12:43:52.055Z</time></trkpt><trkpt lat="42.3340309" lon="12.7045301"><ele>710.3333333333334</ele><time>2026-05-03T12:43:53.055Z</time></trkpt><trkpt lat="42.3341105" lon="12.7045706"><ele>710.6666666666666</ele><time>2026-05-03T12:43:54.046Z</time></trkpt><trkpt lat="42.3341908" lon="12.704597"><ele>711.0</ele><time>2026-05-03T12:43:55.065Z</time></trkpt><trkpt lat="42.3342822" lon="12.7046196"><ele>711.0</ele><time>2026-05-03T12:43:56.051Z</time></trkpt><trkpt lat="42.3343581" lon="12.7046224"><ele>711.0</ele><time>2026-05-03T12:43:57.069Z</time></trkpt><trkpt lat="42.3344954" lon="12.7046467"><ele>711.0</ele><time>2026-05-03T12:43:59.061Z</time></trkpt><trkpt lat="42.3345806" lon="12.7046599"><ele>711.0</ele><time>2026-05-03T12:44:00.062Z</time></trkpt><trkpt lat="42.3346628" lon="12.7046539"><ele>711.0</ele><time>2026-05-03T12:44:01.066Z</time></trkpt><trkpt lat="42.3347448" lon="12.7046775"><ele>707.1999999999999</ele><time>2026-05-03T12:44:02.059Z</time></trkpt><trkpt lat="42.3348079" lon="12.7047242"><ele>703.4</ele><time>2026-05-03T12:44:03.062Z</time></trkpt><trkpt lat="42.334871" lon="12.7047636"><ele>699.6</ele><time>2026-05-03T12:44:04.057Z</time></trkpt><trkpt lat="42.3349666" lon="12.7048384"><ele>695.8</ele><time>2026-05-03T12:44:05.065Z</time></trkpt><trkpt lat="42.3350849" lon="12.7049279"><ele>692.0</ele><time>2026-05-03T12:44:06.142Z</time></trkpt><trkpt lat="42.3351803" lon="12.7050155"><ele>692.0</ele><time>2026-05-03T12:44:07.227Z</time></trkpt><trkpt lat="42.3352814" lon="12.7051043"><ele>692.0</ele><time>2026-05-03T12:44:08.225Z</time></trkpt><trkpt lat="42.3353758" lon="12.7051842"><ele>692.0</ele><time>2026-05-03T12:44:09.23Z</time></trkpt><trkpt lat="42.3354832" lon="12.7053357"><ele>692.0</ele><time>2026-05-03T12:44:11.078Z</time></trkpt><trkpt lat="42.3355596" lon="12.7055416"><ele>693.6</ele><time>2026-05-03T12:44:12.934Z</time></trkpt><trkpt lat="42.335595" lon="12.7056629"><ele>695.2</ele><time>2026-05-03T12:44:13.911Z</time></trkpt><trkpt lat="42.3356283" lon="12.7057785"><ele>696.8</ele><time>2026-05-03T12:44:14.904Z</time></trkpt><trkpt lat="42.3356603" lon="12.7058847"><ele>698.4</ele><time>2026-05-03T12:44:15.904Z</time></trkpt><trkpt lat="42.3357041" lon="12.7059573"><ele>700.0</ele><time>2026-05-03T12:44:16.9Z</time></trkpt><trkpt lat="42.3357616" lon="12.7061021"><ele>702.8</ele><time>2026-05-03T12:44:18.91Z</time></trkpt><trkpt lat="42.3358893" lon="12.7062224"><ele>705.6</ele><time>2026-05-03T12:44:20.906Z</time></trkpt><trkpt lat="42.3359652" lon="12.7062954"><ele>708.4000000000001</ele><time>2026-05-03T12:44:22.004Z</time></trkpt><trkpt lat="42.3360438" lon="12.7063772"><ele>711.2</ele><time>2026-05-03T12:44:22.933Z</time></trkpt><trkpt lat="42.3361095" lon="12.7064629"><ele>714.0</ele><time>2026-05-03T12:44:23.927Z</time></trkpt><trkpt lat="42.3361613" lon="12.7065653"><ele>714.0</ele><time>2026-05-03T12:44:24.93Z</time></trkpt><trkpt lat="42.3362079" lon="12.706673"><ele>714.0</ele><time>2026-05-03T12:44:25.908Z</time></trkpt><trkpt lat="42.3362673" lon="12.7068062"><ele>714.0</ele><time>2026-05-03T12:44:26.904Z</time></trkpt><trkpt lat="42.3363292" lon="12.7069457"><ele>714.0</ele><time>2026-05-03T12:44:27.905Z</time></trkpt><trkpt lat="42.3364041" lon="12.7070713"><ele>714.0</ele><time>2026-05-03T12:44:28.904Z</time></trkpt><trkpt lat="42.33648" lon="12.7072047"><ele>718.75</ele><time>2026-05-03T12:44:29.934Z</time></trkpt><trkpt lat="42.3365889" lon="12.7073138"><ele>723.5</ele><time>2026-05-03T12:44:30.903Z</time></trkpt><trkpt lat="42.3367048" lon="12.7074188"><ele>728.25</ele><time>2026-05-03T12:44:31.906Z</time></trkpt><trkpt lat="42.3368111" lon="12.7074808"><ele>733.0</ele><time>2026-05-03T12:44:32.914Z</time></trkpt><trkpt lat="42.3369349" lon="12.7075291"><ele>733.0</ele><time>2026-05-03T12:44:33.94Z</time></trkpt><trkpt lat="42.3370509" lon="12.7075645"><ele>733.0</ele><time>2026-05-03T12:44:34.927Z</time></trkpt><trkpt lat="42.3371672" lon="12.707597"><ele>733.0</ele><time>2026-05-03T12:44:35.91Z</time></trkpt><trkpt lat="42.3372795" lon="12.7076287"><ele>733.0</ele><time>2026-05-03T12:44:36.909Z</time></trkpt><trkpt lat="42.337382" lon="12.7076508"><ele>732.8333333333334</ele><time>2026-05-03T12:44:37.912Z</time></trkpt><trkpt lat="42.3374793" lon="12.7076698"><ele>732.6666666666667</ele><time>2026-05-03T12:44:38.908Z</time></trkpt><trkpt lat="42.3375725" lon="12.7076746"><ele>732.5</ele><time>2026-05-03T12:44:39.999Z</time></trkpt><trkpt lat="42.3376544" lon="12.707684"><ele>732.3333333333334</ele><time>2026-05-03T12:44:40.933Z</time></trkpt><trkpt lat="42.3377286" lon="12.707709"><ele>732.1666666666666</ele><time>2026-05-03T12:44:41.919Z</time></trkpt><trkpt lat="42.3378041" lon="12.7077342"><ele>732.0</ele><time>2026-05-03T12:44:42.904Z</time></trkpt><trkpt lat="42.3378641" lon="12.7077794"><ele>736.8</ele><time>2026-05-03T12:44:43.909Z</time></trkpt><trkpt lat="42.3379207" lon="12.7078891"><ele>741.6</ele><time>2026-05-03T12:44:45.914Z</time></trkpt><trkpt lat="42.3379018" lon="12.7080133"><ele>746.4</ele><time>2026-05-03T12:44:47.912Z</time></trkpt><trkpt lat="42.3378484" lon="12.7081342"><ele>751.1999999999999</ele><time>2026-05-03T12:44:49.913Z</time></trkpt><trkpt lat="42.3378191" lon="12.7082567"><ele>756.0</ele><time>2026-05-03T12:44:51.911Z</time></trkpt><trkpt lat="42.3378212" lon="12.7083444"><ele>756.0</ele><time>2026-05-03T12:44:52.906Z</time></trkpt><trkpt lat="42.3378397" lon="12.7084491"><ele>756.0</ele><time>2026-05-03T12:44:53.908Z</time></trkpt><trkpt lat="42.3378691" lon="12.7085759"><ele>756.0</ele><time>2026-05-03T12:44:54.907Z</time></trkpt><trkpt lat="42.3379153" lon="12.7087274"><ele>756.0</ele><time>2026-05-03T12:44:55.909Z</time></trkpt><trkpt lat="42.3379512" lon="12.7088691"><ele>756.0</ele><time>2026-05-03T12:44:56.927Z</time></trkpt><trkpt lat="42.3379905" lon="12.7090447"><ele>763.75</ele><time>2026-05-03T12:44:57.909Z</time></trkpt><trkpt lat="42.3380175" lon="12.7092101"><ele>771.5</ele><time>2026-05-03T12:44:58.913Z</time></trkpt><trkpt lat="42.3380453" lon="12.7093629"><ele>779.25</ele><time>2026-05-03T12:44:59.944Z</time></trkpt><trkpt lat="42.3380761" lon="12.7095158"><ele>787.0</ele><time>2026-05-03T12:45:00.905Z</time></trkpt><trkpt lat="42.3381124" lon="12.7096304"><ele>787.4999999999999</ele><time>2026-05-03T12:45:01.928Z</time></trkpt><trkpt lat="42.3381678" lon="12.7097067"><ele>788.0</ele><time>2026-05-03T12:45:02.898Z</time></trkpt><trkpt lat="42.3382397" lon="12.7097623"><ele>788.5</ele><time>2026-05-03T12:45:03.911Z</time></trkpt><trkpt lat="42.3383347" lon="12.7098094"><ele>789.0</ele><time>2026-05-03T12:45:04.906Z</time></trkpt><trkpt lat="42.3384259" lon="12.7098499"><ele>789.4999999999999</ele><time>2026-05-03T12:45:05.904Z</time></trkpt><trkpt lat="42.3385066" lon="12.7098936"><ele>790.0</ele><time>2026-05-03T12:45:06.913Z</time></trkpt><trkpt lat="42.3385755" lon="12.7099348"><ele>789.9999999999999</ele><time>2026-05-03T12:45:07.915Z</time></trkpt><trkpt lat="42.3386272" lon="12.7099835"><ele>790.0</ele><time>2026-05-03T12:45:08.916Z</time></trkpt><trkpt lat="42.3386774" lon="12.710137"><ele>790.0</ele><time>2026-05-03T12:45:10.932Z</time></trkpt><trkpt lat="42.3386837" lon="12.7102305"><ele>790.0</ele><time>2026-05-03T12:45:11.912Z</time></trkpt><trkpt lat="42.3386952" lon="12.7103387"><ele>789.9999999999999</ele><time>2026-05-03T12:45:12.914Z</time></trkpt><trkpt lat="42.3387145" lon="12.7104356"><ele>790.0</ele><time>2026-05-03T12:45:13.915Z</time></trkpt><trkpt lat="42.3387454" lon="12.7105374"><ele>791.9999999999999</ele><time>2026-05-03T12:45:14.917Z</time></trkpt><trkpt lat="42.3388389" lon="12.7106658"><ele>794.0</ele><time>2026-05-03T12:45:16.912Z</time></trkpt><trkpt lat="42.3388865" lon="12.7107269"><ele>796.0</ele><time>2026-05-03T12:45:17.938Z</time></trkpt><trkpt lat="42.3389545" lon="12.7107415"><ele>798.0</ele><time>2026-05-03T12:45:18.912Z</time></trkpt><trkpt lat="42.3390259" lon="12.7107667"><ele>799.9999999999999</ele><time>2026-05-03T12:45:19.908Z</time></trkpt><trkpt lat="42.339098" lon="12.7107849"><ele>802.0</ele><time>2026-05-03T12:45:20.921Z</time></trkpt><trkpt lat="42.3391771" lon="12.7108059"><ele>802.0</ele><time>2026-05-03T12:45:21.906Z</time></trkpt><trkpt lat="42.3392597" lon="12.7108465"><ele>802.0</ele><time>2026-05-03T12:45:22.918Z</time></trkpt><trkpt lat="42.3393369" lon="12.7108958"><ele>802.0</ele><time>2026-05-03T12:45:23.916Z</time></trkpt><trkpt lat="42.339401" lon="12.7109307"><ele>802.0</ele><time>2026-05-03T12:45:24.913Z</time></trkpt><trkpt lat="42.3395053" lon="12.7110008"><ele>802.0</ele><time>2026-05-03T12:45:26.919Z</time></trkpt><trkpt lat="42.339602" lon="12.7111408"><ele>802.6</ele><time>2026-05-03T12:45:28.918Z</time></trkpt><trkpt lat="42.3396477" lon="12.7112438"><ele>803.2</ele><time>2026-05-03T12:45:29.917Z</time></trkpt><trkpt lat="42.3397029" lon="12.7113354"><ele>803.8</ele><time>2026-05-03T12:45:30.922Z</time></trkpt><trkpt lat="42.339769" lon="12.7114096"><ele>804.4</ele><time>2026-05-03T12:45:31.922Z</time></trkpt><trkpt lat="42.3398044" lon="12.7114888"><ele>805.0</ele><time>2026-05-03T12:45:32.919Z</time></trkpt><trkpt lat="42.339854" lon="12.7116509"><ele>804.9999999999999</ele><time>2026-05-03T12:45:34.918Z</time></trkpt><trkpt lat="42.3398705" lon="12.7117491"><ele>805.0</ele><time>2026-05-03T12:45:35.945Z</time></trkpt><trkpt lat="42.3398817" lon="12.7118526"><ele>805.0</ele><time>2026-05-03T12:45:36.916Z</time></trkpt><trkpt lat="42.3398411" lon="12.7119986"><ele>805.0</ele><time>2026-05-03T12:45:38.915Z</time></trkpt><trkpt lat="42.3397744" lon="12.7120527"><ele>804.9999999999999</ele><time>2026-05-03T12:45:39.917Z</time></trkpt><trkpt lat="42.3396916" lon="12.7121177"><ele>805.0</ele><time>2026-05-03T12:45:40.909Z</time></trkpt><trkpt lat="42.3395964" lon="12.7122099"><ele>811.2</ele><time>2026-05-03T12:45:41.917Z</time></trkpt><trkpt lat="42.3394611" lon="12.7122618"><ele>817.4</ele><time>2026-05-03T12:45:42.919Z</time></trkpt><trkpt lat="42.3393771" lon="12.7123233"><ele>823.5999999999999</ele><time>2026-05-03T12:45:43.908Z</time></trkpt><trkpt lat="42.3392987" lon="12.7123814"><ele>829.8</ele><time>2026-05-03T12:45:44.939Z</time></trkpt><trkpt lat="42.3392687" lon="12.7124667"><ele>836.0</ele><time>2026-05-03T12:45:45.92Z</time></trkpt><trkpt lat="42.3392684" lon="12.712576"><ele>836.0</ele><time>2026-05-03T12:45:46.916Z</time></trkpt><trkpt lat="42.3392699" lon="12.7127146"><ele>836.0</ele><time>2026-05-03T12:45:47.911Z</time></trkpt><trkpt lat="42.3392587" lon="12.7128519"><ele>836.0</ele><time>2026-05-03T12:45:48.916Z</time></trkpt><trkpt lat="42.3392553" lon="12.7129828"><ele>836.0</ele><time>2026-05-03T12:45:49.912Z</time></trkpt><trkpt lat="42.3392601" lon="12.7130971"><ele>836.0</ele><time>2026-05-03T12:45:50.92Z</time></trkpt><trkpt lat="42.3392578" lon="12.7131936"><ele>836.4</ele><time>2026-05-03T12:45:51.917Z</time></trkpt><trkpt lat="42.339286" lon="12.7133239"><ele>836.8</ele><time>2026-05-03T12:45:53.916Z</time></trkpt><trkpt lat="42.3393666" lon="12.7132495"><ele>837.1999999999999</ele><time>2026-05-03T12:45:59.923Z</time></trkpt><trkpt lat="42.3394475" lon="12.7131399"><ele>837.5999999999999</ele><time>2026-05-03T12:46:01.915Z</time></trkpt><trkpt lat="42.3395533" lon="12.7130492"><ele>838.0</ele><time>2026-05-03T12:46:03.915Z</time></trkpt><trkpt lat="42.3396218" lon="12.7130366"><ele>837.9999999999999</ele><time>2026-05-03T12:46:04.923Z</time></trkpt><trkpt lat="42.3396861" lon="12.7130258"><ele>838.0</ele><time>2026-05-03T12:46:05.922Z</time></trkpt><trkpt lat="42.3397862" lon="12.7130871"><ele>838.0</ele><time>2026-05-03T12:46:07.924Z</time></trkpt><trkpt lat="42.3398536" lon="12.713168"><ele>838.0</ele><time>2026-05-03T12:46:09.917Z</time></trkpt><trkpt lat="42.3399225" lon="12.7132375"><ele>837.9999999999999</ele><time>2026-05-03T12:46:26.913Z</time></trkpt><trkpt lat="42.3399796" lon="12.7132906"><ele>838.0</ele><time>2026-05-03T12:46:29.923Z</time></trkpt><trkpt lat="42.3400412" lon="12.7133267"><ele>837.4285714285713</ele><time>2026-05-03T12:46:31.914Z</time></trkpt><trkpt lat="42.3401058" lon="12.713397"><ele>836.8571428571429</ele><time>2026-05-03T12:46:34.234Z</time></trkpt><trkpt lat="42.3401469" lon="12.7134961"><ele>836.2857142857142</ele><time>2026-05-03T12:46:36.077Z</time></trkpt><trkpt lat="42.3401697" lon="12.7135791"><ele>835.7142857142857</ele><time>2026-05-03T12:46:50.925Z</time></trkpt><trkpt lat="42.3402326" lon="12.7136431"><ele>835.1428571428571</ele><time>2026-05-03T12:46:54.941Z</time></trkpt><trkpt lat="42.3402791" lon="12.7137054"><ele>834.5714285714286</ele><time>2026-05-03T12:46:56.946Z</time></trkpt><trkpt lat="42.3403124" lon="12.7137907"><ele>834.0</ele><time>2026-05-03T12:46:58.926Z</time></trkpt><trkpt lat="42.3403399" lon="12.7138887"><ele>836.6</ele><time>2026-05-03T12:47:00.92Z</time></trkpt><trkpt lat="42.3403785" lon="12.7140031"><ele>839.2</ele><time>2026-05-03T12:47:02.928Z</time></trkpt><trkpt lat="42.3404272" lon="12.7141205"><ele>841.8000000000001</ele><time>2026-05-03T12:47:04.966Z</time></trkpt><trkpt lat="42.3404877" lon="12.7142329"><ele>844.4000000000001</ele><time>2026-05-03T12:47:06.92Z</time></trkpt><trkpt lat="42.340553" lon="12.7143457"><ele>847.0</ele><time>2026-05-03T12:47:08.922Z</time></trkpt><trkpt lat="42.3405899" lon="12.7144178"><ele>849.9999999999999</ele><time>2026-05-03T12:47:09.941Z</time></trkpt><trkpt lat="42.3406616" lon="12.7145542"><ele>853.0</ele><time>2026-05-03T12:47:11.928Z</time></trkpt><trkpt lat="42.3407043" lon="12.7146421"><ele>856.0</ele><time>2026-05-03T12:47:13.921Z</time></trkpt><trkpt lat="42.3407648" lon="12.7147102"><ele>859.0</ele><time>2026-05-03T12:47:15.919Z</time></trkpt><trkpt lat="42.3408246" lon="12.7147671"><ele>861.9999999999999</ele><time>2026-05-03T12:47:17.911Z</time></trkpt><trkpt lat="42.3408741" lon="12.7148373"><ele>865.0</ele><time>2026-05-03T12:47:19.921Z</time></trkpt><trkpt lat="42.3409106" lon="12.7149285"><ele>864.9999999999999</ele><time>2026-05-03T12:47:21.918Z</time></trkpt><trkpt lat="42.3409032" lon="12.7150592"><ele>865.0</ele><time>2026-05-03T12:47:23.913Z</time></trkpt><trkpt lat="42.340908" lon="12.7151674"><ele>865.0</ele><time>2026-05-03T12:47:25.916Z</time></trkpt><trkpt lat="42.3409622" lon="12.7152445"><ele>865.0</ele><time>2026-05-03T12:47:28.914Z</time></trkpt><trkpt lat="42.3409801" lon="12.7153611"><ele>864.9999999999999</ele><time>2026-05-03T12:47:30.908Z</time></trkpt><trkpt lat="42.3410169" lon="12.715437"><ele>865.0</ele><time>2026-05-03T12:47:31.926Z</time></trkpt><trkpt lat="42.341046" lon="12.7155151"><ele>867.6666666666666</ele><time>2026-05-03T12:47:32.936Z</time></trkpt><trkpt lat="42.3411029" lon="12.715656"><ele>870.3333333333333</ele><time>2026-05-03T12:47:34.919Z</time></trkpt><trkpt lat="42.3411279" lon="12.7157453"><ele>873.0</ele><time>2026-05-03T12:47:35.938Z</time></trkpt><trkpt lat="42.3411612" lon="12.7158353"><ele>875.6666666666667</ele><time>2026-05-03T12:47:36.919Z</time></trkpt><trkpt lat="42.3412027" lon="12.7159305"><ele>878.3333333333334</ele><time>2026-05-03T12:47:37.946Z</time></trkpt><trkpt lat="42.341239" lon="12.7160172"><ele>881.0</ele><time>2026-05-03T12:47:38.943Z</time></trkpt><trkpt lat="42.3412797" lon="12.7161005"><ele>880.1666666666667</ele><time>2026-05-03T12:47:39.946Z</time></trkpt><trkpt lat="42.3413231" lon="12.7161741"><ele>879.3333333333334</ele><time>2026-05-03T12:47:40.916Z</time></trkpt><trkpt lat="42.3413639" lon="12.7162444"><ele>878.5</ele><time>2026-05-03T12:47:41.916Z</time></trkpt><trkpt lat="42.3414078" lon="12.7163123"><ele>877.6666666666667</ele><time>2026-05-03T12:47:42.917Z</time></trkpt><trkpt lat="42.3414566" lon="12.7164502"><ele>876.8333333333334</ele><time>2026-05-03T12:47:44.915Z</time></trkpt><trkpt lat="42.3414431" lon="12.7165909"><ele>876.0</ele><time>2026-05-03T12:47:46.925Z</time></trkpt><trkpt lat="42.3414109" lon="12.7166713"><ele>879.5714285714287</ele><time>2026-05-03T12:47:47.913Z</time></trkpt><trkpt lat="42.3413807" lon="12.716755"><ele>883.1428571428571</ele><time>2026-05-03T12:47:48.93Z</time></trkpt><trkpt lat="42.3413497" lon="12.7168507"><ele>886.7142857142858</ele><time>2026-05-03T12:47:49.92Z</time></trkpt><trkpt lat="42.3413217" lon="12.7169397"><ele>890.2857142857143</ele><time>2026-05-03T12:47:50.92Z</time></trkpt><trkpt lat="42.3412901" lon="12.7170267"><ele>893.8571428571429</ele><time>2026-05-03T12:47:51.921Z</time></trkpt><trkpt lat="42.3412544" lon="12.7171112"><ele>897.4285714285714</ele><time>2026-05-03T12:47:52.918Z</time></trkpt><trkpt lat="42.3412196" lon="12.7172002"><ele>901.0</ele><time>2026-05-03T12:47:53.926Z</time></trkpt><trkpt lat="42.3411785" lon="12.7172825"><ele>901.1666666666666</ele><time>2026-05-03T12:47:54.914Z</time></trkpt><trkpt lat="42.341139" lon="12.7173693"><ele>901.3333333333333</ele><time>2026-05-03T12:47:55.917Z</time></trkpt><trkpt lat="42.3411003" lon="12.7174565"><ele>901.5</ele><time>2026-05-03T12:47:56.908Z</time></trkpt><trkpt lat="42.3410563" lon="12.7175559"><ele>901.6666666666667</ele><time>2026-05-03T12:47:57.923Z</time></trkpt><trkpt lat="42.3410104" lon="12.7176551"><ele>901.8333333333334</ele><time>2026-05-03T12:47:58.922Z</time></trkpt><trkpt lat="42.3409703" lon="12.7177631"><ele>902.0</ele><time>2026-05-03T12:47:59.913Z</time></trkpt><trkpt lat="42.3409436" lon="12.7178729"><ele>902.0000000000001</ele><time>2026-05-03T12:48:00.916Z</time></trkpt><trkpt lat="42.3409273" lon="12.7179878"><ele>902.0</ele><time>2026-05-03T12:48:01.92Z</time></trkpt><trkpt lat="42.3409235" lon="12.7180948"><ele>902.0</ele><time>2026-05-03T12:48:02.914Z</time></trkpt><trkpt lat="42.340934" lon="12.7182048"><ele>902.0</ele><time>2026-05-03T12:48:03.913Z</time></trkpt><trkpt lat="42.3409531" lon="12.7183243"><ele>902.0000000000001</ele><time>2026-05-03T12:48:04.92Z</time></trkpt><trkpt lat="42.3409727" lon="12.7184262"><ele>902.0</ele><time>2026-05-03T12:48:05.934Z</time></trkpt><trkpt lat="42.340997" lon="12.7185239"><ele>903.0</ele><time>2026-05-03T12:48:06.938Z</time></trkpt><trkpt lat="42.3410184" lon="12.7186145"><ele>904.0</ele><time>2026-05-03T12:48:07.936Z</time></trkpt><trkpt lat="42.3410367" lon="12.7187044"><ele>905.0</ele><time>2026-05-03T12:48:08.932Z</time></trkpt><trkpt lat="42.3410574" lon="12.718794"><ele>906.0</ele><time>2026-05-03T12:48:09.943Z</time></trkpt><trkpt lat="42.3410856" lon="12.7188768"><ele>907.0</ele><time>2026-05-03T12:48:10.911Z</time></trkpt><trkpt lat="42.3411369" lon="12.718934"><ele>908.0</ele><time>2026-05-03T12:48:11.912Z</time></trkpt><trkpt lat="42.3412022" lon="12.7190049"><ele>909.0</ele><time>2026-05-03T12:48:12.92Z</time></trkpt><trkpt lat="42.3412629" lon="12.7190681"><ele>909.0</ele><time>2026-05-03T12:48:13.913Z</time></trkpt><trkpt lat="42.3413229" lon="12.7191383"><ele>909.0000000000001</ele><time>2026-05-03T12:48:14.918Z</time></trkpt><trkpt lat="42.3413787" lon="12.7192129"><ele>909.0000000000001</ele><time>2026-05-03T12:48:15.92Z</time></trkpt><trkpt lat="42.3414405" lon="12.7192847"><ele>909.0</ele><time>2026-05-03T12:48:16.934Z</time></trkpt><trkpt lat="42.3415018" lon="12.7193602"><ele>909.0</ele><time>2026-05-03T12:48:18.075Z</time></trkpt><trkpt lat="42.3416213" lon="12.7195011"><ele>910.3333333333334</ele><time>2026-05-03T12:48:19.919Z</time></trkpt><trkpt lat="42.3416603" lon="12.7195793"><ele>911.6666666666667</ele><time>2026-05-03T12:48:20.91Z</time></trkpt><trkpt lat="42.3416891" lon="12.7196689"><ele>913.0</ele><time>2026-05-03T12:48:21.918Z</time></trkpt><trkpt lat="42.3417075" lon="12.7197623"><ele>914.3333333333334</ele><time>2026-05-03T12:48:22.904Z</time></trkpt><trkpt lat="42.3417179" lon="12.719867"><ele>915.6666666666667</ele><time>2026-05-03T12:48:23.914Z</time></trkpt><trkpt lat="42.3417162" lon="12.7199815"><ele>917.0</ele><time>2026-05-03T12:48:24.913Z</time></trkpt><trkpt lat="42.341724" lon="12.720093"><ele>917.0000000000001</ele><time>2026-05-03T12:48:25.918Z</time></trkpt><trkpt lat="42.3417471" lon="12.7201797"><ele>917.0</ele><time>2026-05-03T12:48:26.908Z</time></trkpt><trkpt lat="42.3417563" lon="12.7202747"><ele>917.0</ele><time>2026-05-03T12:48:27.917Z</time></trkpt><trkpt lat="42.3417605" lon="12.7203719"><ele>917.0</ele><time>2026-05-03T12:48:28.919Z</time></trkpt><trkpt lat="42.3417605" lon="12.7204677"><ele>917.0000000000001</ele><time>2026-05-03T12:48:29.905Z</time></trkpt><trkpt lat="42.3417482" lon="12.7205785"><ele>917.0</ele><time>2026-05-03T12:48:30.93Z</time></trkpt><trkpt lat="42.3417324" lon="12.7207007"><ele>919.8333333333334</ele><time>2026-05-03T12:48:31.911Z</time></trkpt><trkpt lat="42.3417129" lon="12.7208083"><ele>922.6666666666667</ele><time>2026-05-03T12:48:32.904Z</time></trkpt><trkpt lat="42.3416912" lon="12.7209046"><ele>925.5</ele><time>2026-05-03T12:48:33.909Z</time></trkpt><trkpt lat="42.3416744" lon="12.7210065"><ele>928.3333333333333</ele><time>2026-05-03T12:48:34.91Z</time></trkpt><trkpt lat="42.3416716" lon="12.7211149"><ele>931.1666666666666</ele><time>2026-05-03T12:48:35.911Z</time></trkpt><trkpt lat="42.3416778" lon="12.7212156"><ele>934.0</ele><time>2026-05-03T12:48:36.905Z</time></trkpt><trkpt lat="42.3416848" lon="12.7213165"><ele>934.0</ele><time>2026-05-03T12:48:38.908Z</time></trkpt><trkpt lat="42.3416834" lon="12.7211725"><ele>934.0000000000001</ele><time>2026-05-03T12:49:12.919Z</time></trkpt><trkpt lat="42.3416901" lon="12.7210767"><ele>934.0000000000001</ele><time>2026-05-03T12:49:14.914Z</time></trkpt><trkpt lat="42.3416939" lon="12.7209339"><ele>934.0</ele><time>2026-05-03T12:49:16.923Z</time></trkpt><trkpt lat="42.3416881" lon="12.720781"><ele>934.0</ele><time>2026-05-03T12:49:18.933Z</time></trkpt><trkpt lat="42.3416663" lon="12.7206281"><ele>933.9999999999999</ele><time>2026-05-03T12:49:20.919Z</time></trkpt><trkpt lat="42.3416535" lon="12.7205402"><ele>934.0</ele><time>2026-05-03T12:49:21.932Z</time></trkpt><trkpt lat="42.3416348" lon="12.7204541"><ele>934.0</ele><time>2026-05-03T12:49:22.924Z</time></trkpt><trkpt lat="42.341613" lon="12.7203631"><ele>934.0</ele><time>2026-05-03T12:49:23.921Z</time></trkpt><trkpt lat="42.3415886" lon="12.7202603"><ele>933.9999999999999</ele><time>2026-05-03T12:49:24.932Z</time></trkpt><trkpt lat="42.3415643" lon="12.7201608"><ele>934.0</ele><time>2026-05-03T12:49:25.928Z</time></trkpt><trkpt lat="42.3415414" lon="12.7200413"><ele>930.6</ele><time>2026-05-03T12:49:26.911Z</time></trkpt><trkpt lat="42.3415314" lon="12.7199192"><ele>927.2</ele><time>2026-05-03T12:49:27.951Z</time></trkpt><trkpt lat="42.3415281" lon="12.7198186"><ele>923.8000000000001</ele><time>2026-05-03T12:49:28.92Z</time></trkpt><trkpt lat="42.3415293" lon="12.7196572"><ele>920.4000000000001</ele><time>2026-05-03T12:49:30.92Z</time></trkpt><trkpt lat="42.3415184" lon="12.719505"><ele>917.0</ele><time>2026-05-03T12:49:32.909Z</time></trkpt><trkpt lat="42.3414828" lon="12.7193758"><ele>915.4000000000001</ele><time>2026-05-03T12:49:34.917Z</time></trkpt><trkpt lat="42.3414098" lon="12.7192533"><ele>913.8000000000001</ele><time>2026-05-03T12:49:36.922Z</time></trkpt><trkpt lat="42.3413717" lon="12.7191829"><ele>912.2</ele><time>2026-05-03T12:49:37.925Z</time></trkpt><trkpt lat="42.3413062" lon="12.7190705"><ele>910.6</ele><time>2026-05-03T12:49:39.925Z</time></trkpt><trkpt lat="42.3412472" lon="12.7189649"><ele>909.0</ele><time>2026-05-03T12:49:41.929Z</time></trkpt><trkpt lat="42.3411997" lon="12.7188964"><ele>909.0</ele><time>2026-05-03T12:49:42.915Z</time></trkpt><trkpt lat="42.3411354" lon="12.7188248"><ele>909.0</ele><time>2026-05-03T12:49:43.917Z</time></trkpt><trkpt lat="42.3410661" lon="12.7187476"><ele>909.0</ele><time>2026-05-03T12:49:44.915Z</time></trkpt><trkpt lat="42.3410055" lon="12.7186783"><ele>909.0</ele><time>2026-05-03T12:49:45.914Z</time></trkpt><trkpt lat="42.3409375" lon="12.7185604"><ele>909.0</ele><time>2026-05-03T12:49:47.901Z</time></trkpt><trkpt lat="42.3409229" lon="12.718454"><ele>909.0</ele><time>2026-05-03T12:49:49.911Z</time></trkpt><trkpt lat="42.3408965" lon="12.718338"><ele>908.0</ele><time>2026-05-03T12:49:51.919Z</time></trkpt><trkpt lat="42.3408802" lon="12.7182268"><ele>907.0</ele><time>2026-05-03T12:49:53.916Z</time></trkpt><trkpt lat="42.3408762" lon="12.7181075"><ele>906.0</ele><time>2026-05-03T12:49:55.914Z</time></trkpt><trkpt lat="42.3408794" lon="12.7179955"><ele>905.0</ele><time>2026-05-03T12:49:57.921Z</time></trkpt><trkpt lat="42.340895" lon="12.7178686"><ele>904.0</ele><time>2026-05-03T12:49:59.949Z</time></trkpt><trkpt lat="42.3409104" lon="12.7177359"><ele>903.0</ele><time>2026-05-03T12:50:01.946Z</time></trkpt><trkpt lat="42.3409394" lon="12.7176193"><ele>903.0</ele><time>2026-05-03T12:50:03.951Z</time></trkpt><trkpt lat="42.3409968" lon="12.7174942"><ele>903.0</ele><time>2026-05-03T12:50:05.931Z</time></trkpt><trkpt lat="42.341038" lon="12.7174234"><ele>903.0</ele><time>2026-05-03T12:50:06.921Z</time></trkpt><trkpt lat="42.3410824" lon="12.7173549"><ele>903.0</ele><time>2026-05-03T12:50:07.926Z</time></trkpt><trkpt lat="42.3411589" lon="12.7172327"><ele>903.0</ele><time>2026-05-03T12:50:09.924Z</time></trkpt><trkpt lat="42.3412257" lon="12.7171272"><ele>903.0</ele><time>2026-05-03T12:50:11.915Z</time></trkpt><trkpt lat="42.3412956" lon="12.7170142"><ele>903.0</ele><time>2026-05-03T12:50:13.92Z</time></trkpt><trkpt lat="42.3413529" lon="12.7168914"><ele>903.0</ele><time>2026-05-03T12:50:15.918Z</time></trkpt><trkpt lat="42.3414049" lon="12.7167786"><ele>903.0</ele><time>2026-05-03T12:50:17.916Z</time></trkpt><trkpt lat="42.3414416" lon="12.716698"><ele>903.0</ele><time>2026-05-03T12:50:19.915Z</time></trkpt><trkpt lat="42.3414792" lon="12.7166039"><ele>902.6666666666666</ele><time>2026-05-03T12:50:21.92Z</time></trkpt><trkpt lat="42.341492" lon="12.7165001"><ele>902.3333333333333</ele><time>2026-05-03T12:50:23.948Z</time></trkpt><trkpt lat="42.3414489" lon="12.7164077"><ele>902.0</ele><time>2026-05-03T12:50:25.93Z</time></trkpt><trkpt lat="42.3413954" lon="12.7163452"><ele>901.6666666666666</ele><time>2026-05-03T12:50:27.919Z</time></trkpt><trkpt lat="42.3413444" lon="12.7162393"><ele>901.3333333333333</ele><time>2026-05-03T12:50:29.921Z</time></trkpt><trkpt lat="42.3412876" lon="12.7161426"><ele>901.0</ele><time>2026-05-03T12:50:31.917Z</time></trkpt><trkpt lat="42.3412239" lon="12.7160256"><ele>897.0</ele><time>2026-05-03T12:50:33.912Z</time></trkpt><trkpt lat="42.3411854" lon="12.71595"><ele>892.9999999999999</ele><time>2026-05-03T12:50:34.917Z</time></trkpt><trkpt lat="42.3411211" lon="12.7158299"><ele>888.9999999999999</ele><time>2026-05-03T12:50:36.914Z</time></trkpt><trkpt lat="42.3410746" lon="12.7157036"><ele>885.0</ele><time>2026-05-03T12:50:38.904Z</time></trkpt><trkpt lat="42.3410511" lon="12.7156187"><ele>881.0</ele><time>2026-05-03T12:50:39.931Z</time></trkpt><trkpt lat="42.3409898" lon="12.7154714"><ele>881.0</ele><time>2026-05-03T12:50:41.91Z</time></trkpt><trkpt lat="42.3409487" lon="12.7153105"><ele>881.0</ele><time>2026-05-03T12:50:43.918Z</time></trkpt><trkpt lat="42.3409289" lon="12.7151379"><ele>881.0</ele><time>2026-05-03T12:50:45.918Z</time></trkpt><trkpt lat="42.3408778" lon="12.7149872"><ele>881.0</ele><time>2026-05-03T12:50:47.919Z</time></trkpt><trkpt lat="42.3408094" lon="12.7148885"><ele>878.3333333333334</ele><time>2026-05-03T12:50:49.923Z</time></trkpt><trkpt lat="42.3407307" lon="12.7148028"><ele>875.6666666666667</ele><time>2026-05-03T12:50:51.925Z</time></trkpt><trkpt lat="42.340695" lon="12.714718"><ele>873.0</ele><time>2026-05-03T12:50:52.916Z</time></trkpt><trkpt lat="42.3406567" lon="12.7146293"><ele>870.3333333333333</ele><time>2026-05-03T12:50:53.915Z</time></trkpt><trkpt lat="42.3406317" lon="12.7145423"><ele>867.6666666666666</ele><time>2026-05-03T12:50:54.918Z</time></trkpt><trkpt lat="42.3406137" lon="12.7144568"><ele>865.0</ele><time>2026-05-03T12:50:55.909Z</time></trkpt><trkpt lat="42.3405922" lon="12.7143657"><ele>862.9999999999999</ele><time>2026-05-03T12:50:56.919Z</time></trkpt><trkpt lat="42.3405746" lon="12.7142708"><ele>861.0</ele><time>2026-05-03T12:50:57.92Z</time></trkpt><trkpt lat="42.3405472" lon="12.7141603"><ele>859.0</ele><time>2026-05-03T12:50:58.913Z</time></trkpt><trkpt lat="42.3405124" lon="12.7140488"><ele>857.0</ele><time>2026-05-03T12:50:59.921Z</time></trkpt><trkpt lat="42.3404802" lon="12.7139475"><ele>854.9999999999999</ele><time>2026-05-03T12:51:00.916Z</time></trkpt><trkpt lat="42.3404592" lon="12.713867"><ele>853.0</ele><time>2026-05-03T12:51:01.909Z</time></trkpt><trkpt lat="42.3403985" lon="12.7137514"><ele>853.0</ele><time>2026-05-03T12:51:03.925Z</time></trkpt><trkpt lat="42.34031" lon="12.7136629"><ele>853.0</ele><time>2026-05-03T12:51:05.922Z</time></trkpt><trkpt lat="42.3402341" lon="12.7135479"><ele>853.0</ele><time>2026-05-03T12:51:07.926Z</time></trkpt><trkpt lat="42.3401855" lon="12.7134298"><ele>853.0</ele><time>2026-05-03T12:51:09.915Z</time></trkpt><trkpt lat="42.3401049" lon="12.7133547"><ele>853.0</ele><time>2026-05-03T12:51:11.913Z</time></trkpt><trkpt lat="42.3399924" lon="12.7132839"><ele>850.4999999999999</ele><time>2026-05-03T12:51:13.916Z</time></trkpt><trkpt lat="42.3398947" lon="12.713207"><ele>848.0</ele><time>2026-05-03T12:51:15.931Z</time></trkpt><trkpt lat="42.339822" lon="12.7131262"><ele>845.5</ele><time>2026-05-03T12:51:17.912Z</time></trkpt><trkpt lat="42.3397693" lon="12.7130489"><ele>843.0</ele><time>2026-05-03T12:51:19.916Z</time></trkpt><trkpt lat="42.3397167" lon="12.7129959"><ele>840.4999999999999</ele><time>2026-05-03T12:51:21.921Z</time></trkpt><trkpt lat="42.3396411" lon="12.7129823"><ele>838.0</ele><time>2026-05-03T12:51:23.922Z</time></trkpt><trkpt lat="42.3395719" lon="12.7130341"><ele>837.9999999999999</ele><time>2026-05-03T12:51:26.915Z</time></trkpt><trkpt lat="42.3395151" lon="12.7130759"><ele>838.0</ele><time>2026-05-03T12:51:29.946Z</time></trkpt><trkpt lat="42.3394409" lon="12.7131557"><ele>838.0</ele><time>2026-05-03T12:51:32.918Z</time></trkpt><trkpt lat="42.3393926" lon="12.7132584"><ele>838.0</ele><time>2026-05-03T12:51:35.908Z</time></trkpt><trkpt lat="42.3393847" lon="12.7131593"><ele>837.9999999999999</ele><time>2026-05-03T12:51:42.921Z</time></trkpt><trkpt lat="42.3394147" lon="12.7130391"><ele>838.0</ele><time>2026-05-03T12:51:45.914Z</time></trkpt><trkpt lat="42.3394223" lon="12.7129328"><ele>837.9999999999999</ele><time>2026-05-03T12:51:47.918Z</time></trkpt><trkpt lat="42.3394262" lon="12.7128395"><ele>838.0</ele><time>2026-05-03T12:51:49.923Z</time></trkpt><trkpt lat="42.3394267" lon="12.712736"><ele>838.0</ele><time>2026-05-03T12:51:51.922Z</time></trkpt><trkpt lat="42.3394262" lon="12.7126318"><ele>838.0</ele><time>2026-05-03T12:51:53.915Z</time></trkpt><trkpt lat="42.3394127" lon="12.7125219"><ele>837.9999999999999</ele><time>2026-05-03T12:51:55.916Z</time></trkpt><trkpt lat="42.3394025" lon="12.7124278"><ele>838.0</ele><time>2026-05-03T12:51:58.92Z</time></trkpt><trkpt lat="42.3394256" lon="12.7123251"><ele>837.5999999999999</ele><time>2026-05-03T12:52:00.921Z</time></trkpt><trkpt lat="42.3395048" lon="12.7122354"><ele>837.1999999999999</ele><time>2026-05-03T12:52:02.918Z</time></trkpt><trkpt lat="42.3395924" lon="12.7121548"><ele>836.8</ele><time>2026-05-03T12:52:04.918Z</time></trkpt><trkpt lat="42.3396842" lon="12.7120787"><ele>836.4</ele><time>2026-05-03T12:52:06.92Z</time></trkpt><trkpt lat="42.3397432" lon="12.7120475"><ele>836.0</ele><time>2026-05-03T12:52:07.914Z</time></trkpt><trkpt lat="42.3398254" lon="12.7119743"><ele>829.8</ele><time>2026-05-03T12:52:09.914Z</time></trkpt><trkpt lat="42.3398837" lon="12.7118619"><ele>823.5999999999999</ele><time>2026-05-03T12:52:12.93Z</time></trkpt><trkpt lat="42.3399017" lon="12.7117631"><ele>817.4</ele><time>2026-05-03T12:52:14.931Z</time></trkpt><trkpt lat="42.3398634" lon="12.711634"><ele>811.2</ele><time>2026-05-03T12:52:16.926Z</time></trkpt><trkpt lat="42.339827" lon="12.7115191"><ele>805.0</ele><time>2026-05-03T12:52:18.929Z</time></trkpt><trkpt lat="42.3397899" lon="12.7114139"><ele>804.9999999999999</ele><time>2026-05-03T12:52:20.916Z</time></trkpt><trkpt lat="42.3397197" lon="12.7112829"><ele>805.0</ele><time>2026-05-03T12:52:22.908Z</time></trkpt><trkpt lat="42.3396824" lon="12.7112052"><ele>805.0</ele><time>2026-05-03T12:52:23.907Z</time></trkpt><trkpt lat="42.339653" lon="12.7111215"><ele>805.0</ele><time>2026-05-03T12:52:24.913Z</time></trkpt><trkpt lat="42.339623" lon="12.7110391"><ele>804.9999999999999</ele><time>2026-05-03T12:52:25.917Z</time></trkpt><trkpt lat="42.339582" lon="12.7109724"><ele>805.0</ele><time>2026-05-03T12:52:26.915Z</time></trkpt><trkpt lat="42.3395388" lon="12.7109103"><ele>804.4999999999999</ele><time>2026-05-03T12:52:27.918Z</time></trkpt><trkpt lat="42.3394903" lon="12.7108551"><ele>804.0</ele><time>2026-05-03T12:52:28.914Z</time></trkpt><trkpt lat="42.3393858" lon="12.7107458"><ele>803.5</ele><time>2026-05-03T12:52:30.919Z</time></trkpt><trkpt lat="42.3393258" lon="12.7106979"><ele>803.0</ele><time>2026-05-03T12:52:31.918Z</time></trkpt><trkpt lat="42.3392625" lon="12.7106584"><ele>802.4999999999999</ele><time>2026-05-03T12:52:32.92Z</time></trkpt><trkpt lat="42.3392018" lon="12.710619"><ele>802.0</ele><time>2026-05-03T12:52:33.912Z</time></trkpt><trkpt lat="42.3391302" lon="12.7105951"><ele>801.9999999999999</ele><time>2026-05-03T12:52:34.924Z</time></trkpt><trkpt lat="42.3390619" lon="12.7105795"><ele>802.0</ele><time>2026-05-03T12:52:35.93Z</time></trkpt><trkpt lat="42.3389835" lon="12.7105744"><ele>802.0</ele><time>2026-05-03T12:52:36.917Z</time></trkpt><trkpt lat="42.3388974" lon="12.7105503"><ele>802.0</ele><time>2026-05-03T12:52:37.923Z</time></trkpt><trkpt lat="42.3388266" lon="12.7105109"><ele>801.9999999999999</ele><time>2026-05-03T12:52:38.921Z</time></trkpt><trkpt lat="42.3387465" lon="12.7104653"><ele>802.0</ele><time>2026-05-03T12:52:40.916Z</time></trkpt><trkpt lat="42.3386837" lon="12.7103749"><ele>799.6</ele><time>2026-05-03T12:52:42.921Z</time></trkpt><trkpt lat="42.3386746" lon="12.7102831"><ele>797.2</ele><time>2026-05-03T12:52:44.919Z</time></trkpt><trkpt lat="42.3386595" lon="12.7101454"><ele>794.8</ele><time>2026-05-03T12:52:46.996Z</time></trkpt><trkpt lat="42.3386439" lon="12.7099938"><ele>792.4</ele><time>2026-05-03T12:52:48.946Z</time></trkpt><trkpt lat="42.3386028" lon="12.7098732"><ele>790.0</ele><time>2026-05-03T12:52:50.923Z</time></trkpt><trkpt lat="42.3385307" lon="12.7097984"><ele>789.9999999999999</ele><time>2026-05-03T12:52:52.915Z</time></trkpt><trkpt lat="42.3384378" lon="12.7097269"><ele>790.0</ele><time>2026-05-03T12:52:54.914Z</time></trkpt><trkpt lat="42.3383769" lon="12.7096706"><ele>790.0</ele><time>2026-05-03T12:52:55.917Z</time></trkpt><trkpt lat="42.3383175" lon="12.7096246"><ele>790.0</ele><time>2026-05-03T12:52:56.918Z</time></trkpt><trkpt lat="42.3382589" lon="12.7095693"><ele>789.9999999999999</ele><time>2026-05-03T12:52:57.924Z</time></trkpt><trkpt lat="42.3382032" lon="12.7095269"><ele>790.0</ele><time>2026-05-03T12:52:58.912Z</time></trkpt><trkpt lat="42.3381099" lon="12.7094368"><ele>789.4999999999999</ele><time>2026-05-03T12:53:00.914Z</time></trkpt><trkpt lat="42.3380345" lon="12.7093611"><ele>789.0</ele><time>2026-05-03T12:53:02.917Z</time></trkpt><trkpt lat="42.3379972" lon="12.7092467"><ele>788.5</ele><time>2026-05-03T12:53:04.915Z</time></trkpt><trkpt lat="42.3379785" lon="12.7091426"><ele>788.0</ele><time>2026-05-03T12:53:05.921Z</time></trkpt><trkpt lat="42.3379738" lon="12.7090355"><ele>787.4999999999999</ele><time>2026-05-03T12:53:06.927Z</time></trkpt><trkpt lat="42.3379694" lon="12.7089365"><ele>787.0</ele><time>2026-05-03T12:53:07.93Z</time></trkpt><trkpt lat="42.3379614" lon="12.7088474"><ele>787.0</ele><time>2026-05-03T12:53:08.923Z</time></trkpt><trkpt lat="42.3379479" lon="12.7086794"><ele>787.0</ele><time>2026-05-03T12:53:10.919Z</time></trkpt><trkpt lat="42.3379061" lon="12.7085113"><ele>787.0</ele><time>2026-05-03T12:53:12.932Z</time></trkpt><trkpt lat="42.3378859" lon="12.7084152"><ele>787.0</ele><time>2026-05-03T12:53:13.919Z</time></trkpt><trkpt lat="42.3378551" lon="12.7083135"><ele>787.0</ele><time>2026-05-03T12:53:14.933Z</time></trkpt><trkpt lat="42.3378544" lon="12.7082205"><ele>780.8</ele><time>2026-05-03T12:53:15.92Z</time></trkpt><trkpt lat="42.3378555" lon="12.7081181"><ele>774.6</ele><time>2026-05-03T12:53:16.92Z</time></trkpt><trkpt lat="42.3378774" lon="12.7079682"><ele>768.4</ele><time>2026-05-03T12:53:18.924Z</time></trkpt><trkpt lat="42.337887" lon="12.7078433"><ele>762.1999999999999</ele><time>2026-05-03T12:53:20.933Z</time></trkpt><trkpt lat="42.3378088" lon="12.7077454"><ele>756.0</ele><time>2026-05-03T12:53:22.924Z</time></trkpt><trkpt lat="42.3377476" lon="12.7077008"><ele>751.1999999999999</ele><time>2026-05-03T12:53:23.932Z</time></trkpt><trkpt lat="42.3376502" lon="12.707666"><ele>746.4</ele><time>2026-05-03T12:53:25.924Z</time></trkpt><trkpt lat="42.3375268" lon="12.7076434"><ele>741.6</ele><time>2026-05-03T12:53:27.933Z</time></trkpt><trkpt lat="42.3374628" lon="12.7076389"><ele>736.8</ele><time>2026-05-03T12:53:28.938Z</time></trkpt><trkpt lat="42.3373454" lon="12.7076319"><ele>732.0</ele><time>2026-05-03T12:53:30.926Z</time></trkpt><trkpt lat="42.3372308" lon="12.7076218"><ele>732.1666666666666</ele><time>2026-05-03T12:53:32.924Z</time></trkpt><trkpt lat="42.3371639" lon="12.7076101"><ele>732.3333333333334</ele><time>2026-05-03T12:53:33.925Z</time></trkpt><trkpt lat="42.3370982" lon="12.7076046"><ele>732.5</ele><time>2026-05-03T12:53:34.918Z</time></trkpt><trkpt lat="42.3370348" lon="12.7075651"><ele>732.6666666666667</ele><time>2026-05-03T12:53:35.929Z</time></trkpt><trkpt lat="42.3369603" lon="12.7075399"><ele>732.8333333333334</ele><time>2026-05-03T12:53:36.948Z</time></trkpt><trkpt lat="42.3368812" lon="12.7075166"><ele>733.0</ele><time>2026-05-03T12:53:37.932Z</time></trkpt><trkpt lat="42.3367944" lon="12.7074835"><ele>733.0</ele><time>2026-05-03T12:53:38.928Z</time></trkpt><trkpt lat="42.3367132" lon="12.7074321"><ele>733.0</ele><time>2026-05-03T12:53:39.925Z</time></trkpt><trkpt lat="42.3366415" lon="12.7073849"><ele>733.0</ele><time>2026-05-03T12:53:40.94Z</time></trkpt><trkpt lat="42.3365729" lon="12.7073237"><ele>733.0</ele><time>2026-05-03T12:53:41.92Z</time></trkpt><trkpt lat="42.3365131" lon="12.7072548"><ele>733.0</ele><time>2026-05-03T12:53:42.916Z</time></trkpt><trkpt lat="42.3364549" lon="12.7071633"><ele>733.0</ele><time>2026-05-03T12:53:43.939Z</time></trkpt><trkpt lat="42.3363971" lon="12.7070908"><ele>735.7142857142857</ele><time>2026-05-03T12:53:44.912Z</time></trkpt><trkpt lat="42.3363421" lon="12.7070268"><ele>738.4285714285714</ele><time>2026-05-03T12:53:45.919Z</time></trkpt><trkpt lat="42.3362963" lon="12.7069639"><ele>741.1428571428571</ele><time>2026-05-03T12:53:46.917Z</time></trkpt><trkpt lat="42.3362647" lon="12.7068865"><ele>743.8571428571429</ele><time>2026-05-03T12:53:47.917Z</time></trkpt><trkpt lat="42.3362209" lon="12.7067924"><ele>746.5714285714286</ele><time>2026-05-03T12:53:48.914Z</time></trkpt><trkpt lat="42.3361825" lon="12.7066988"><ele>749.2857142857142</ele><time>2026-05-03T12:53:49.923Z</time></trkpt><trkpt lat="42.3361462" lon="12.7066153"><ele>752.0</ele><time>2026-05-03T12:53:50.921Z</time></trkpt><trkpt lat="42.3361173" lon="12.7065328"><ele>745.6666666666666</ele><time>2026-05-03T12:53:51.921Z</time></trkpt><trkpt lat="42.3360703" lon="12.7064037"><ele>739.3333333333333</ele><time>2026-05-03T12:53:53.93Z</time></trkpt><trkpt lat="42.3360027" lon="12.7063044"><ele>733.0</ele><time>2026-05-03T12:53:55.923Z</time></trkpt><trkpt lat="42.3359496" lon="12.7062496"><ele>726.6666666666666</ele><time>2026-05-03T12:53:56.915Z</time></trkpt><trkpt lat="42.3358848" lon="12.7061836"><ele>720.3333333333334</ele><time>2026-05-03T12:53:57.928Z</time></trkpt><trkpt lat="42.3358194" lon="12.7061304"><ele>714.0</ele><time>2026-05-03T12:53:58.922Z</time></trkpt><trkpt lat="42.3357485" lon="12.7060749"><ele>714.6666666666666</ele><time>2026-05-03T12:53:59.917Z</time></trkpt><trkpt lat="42.3356816" lon="12.7060348"><ele>715.3333333333334</ele><time>2026-05-03T12:54:00.915Z</time></trkpt><trkpt lat="42.3356118" lon="12.706002"><ele>716.0</ele><time>2026-05-03T12:54:01.918Z</time></trkpt><trkpt lat="42.3355352" lon="12.7059644"><ele>716.6666666666667</ele><time>2026-05-03T12:54:02.922Z</time></trkpt><trkpt lat="42.3354638" lon="12.7059197"><ele>717.3333333333334</ele><time>2026-05-03T12:54:03.914Z</time></trkpt><trkpt lat="42.3353983" lon="12.7058578"><ele>718.0</ele><time>2026-05-03T12:54:04.923Z</time></trkpt><trkpt lat="42.3353394" lon="12.7057811"><ele>718.0</ele><time>2026-05-03T12:54:05.92Z</time></trkpt><trkpt lat="42.335295" lon="12.7057054"><ele>718.0</ele><time>2026-05-03T12:54:06.91Z</time></trkpt><trkpt lat="42.3352429" lon="12.7056298"><ele>718.0</ele><time>2026-05-03T12:54:07.931Z</time></trkpt><trkpt lat="42.3352215" lon="12.7055476"><ele>718.0</ele><time>2026-05-03T12:54:08.971Z</time></trkpt><trkpt lat="42.3351918" lon="12.7053798"><ele>718.0</ele><time>2026-05-03T12:54:10.927Z</time></trkpt><trkpt lat="42.3351519" lon="12.7052826"><ele>718.0</ele><time>2026-05-03T12:54:11.921Z</time></trkpt><trkpt lat="42.335084" lon="12.7051445"><ele>712.8</ele><time>2026-05-03T12:54:13.936Z</time></trkpt><trkpt lat="42.334994" lon="12.7050092"><ele>707.5999999999999</ele><time>2026-05-03T12:54:15.926Z</time></trkpt><trkpt lat="42.3349325" lon="12.7049375"><ele>702.4000000000001</ele><time>2026-05-03T12:54:16.918Z</time></trkpt><trkpt lat="42.3348588" lon="12.7048575"><ele>697.2</ele><time>2026-05-03T12:54:17.923Z</time></trkpt><trkpt lat="42.3347811" lon="12.7047723"><ele>692.0</ele><time>2026-05-03T12:54:18.923Z</time></trkpt><trkpt lat="42.3347223" lon="12.7047053"><ele>695.1666666666666</ele><time>2026-05-03T12:54:19.927Z</time></trkpt><trkpt lat="42.3346648" lon="12.7046556"><ele>698.3333333333333</ele><time>2026-05-03T12:54:20.917Z</time></trkpt><trkpt lat="42.3345469" lon="12.7046163"><ele>701.5</ele><time>2026-05-03T12:54:22.924Z</time></trkpt><trkpt lat="42.3344831" lon="12.7046365"><ele>704.6666666666666</ele><time>2026-05-03T12:54:23.93Z</time></trkpt><trkpt lat="42.3343973" lon="12.7046487"><ele>707.8333333333334</ele><time>2026-05-03T12:54:24.92Z</time></trkpt><trkpt lat="42.3343074" lon="12.7046707"><ele>711.0</ele><time>2026-05-03T12:54:25.927Z</time></trkpt><trkpt lat="42.334221" lon="12.7046784"><ele>711.0</ele><time>2026-05-03T12:54:26.916Z</time></trkpt><trkpt lat="42.3341316" lon="12.7046673"><ele>711.0</ele><time>2026-05-03T12:54:27.924Z</time></trkpt><trkpt lat="42.3340551" lon="12.7046411"><ele>711.0</ele><time>2026-05-03T12:54:28.924Z</time></trkpt><trkpt lat="42.3339832" lon="12.7045967"><ele>711.0</ele><time>2026-05-03T12:54:29.924Z</time></trkpt><trkpt lat="42.3339227" lon="12.7045603"><ele>711.0</ele><time>2026-05-03T12:54:30.919Z</time></trkpt><trkpt lat="42.3338633" lon="12.704509"><ele>711.0</ele><time>2026-05-03T12:54:31.917Z</time></trkpt><trkpt lat="42.3338028" lon="12.7044478"><ele>710.5999999999999</ele><time>2026-05-03T12:54:32.918Z</time></trkpt><trkpt lat="42.3337324" lon="12.7043635"><ele>710.2</ele><time>2026-05-03T12:54:33.937Z</time></trkpt><trkpt lat="42.3336603" lon="12.7042673"><ele>709.8</ele><time>2026-05-03T12:54:34.919Z</time></trkpt><trkpt lat="42.333595" lon="12.70417"><ele>709.4000000000001</ele><time>2026-05-03T12:54:35.915Z</time></trkpt><trkpt lat="42.3335243" lon="12.7040638"><ele>709.0</ele><time>2026-05-03T12:54:36.92Z</time></trkpt><trkpt lat="42.3334573" lon="12.7039853"><ele>709.0</ele><time>2026-05-03T12:54:37.922Z</time></trkpt><trkpt lat="42.3333868" lon="12.703907"><ele>709.0</ele><time>2026-05-03T12:54:38.917Z</time></trkpt><trkpt lat="42.3333223" lon="12.7038461"><ele>709.0</ele><time>2026-05-03T12:54:39.911Z</time></trkpt><trkpt lat="42.333258" lon="12.7037821"><ele>709.0</ele><time>2026-05-03T12:54:40.919Z</time></trkpt><trkpt lat="42.3331821" lon="12.7037256"><ele>709.0</ele><time>2026-05-03T12:54:41.914Z</time></trkpt><trkpt lat="42.3331048" lon="12.7036658"><ele>709.0</ele><time>2026-05-03T12:54:42.919Z</time></trkpt><trkpt lat="42.3330468" lon="12.7035861"><ele>707.4000000000001</ele><time>2026-05-03T12:54:43.922Z</time></trkpt><trkpt lat="42.3329748" lon="12.7035149"><ele>705.8</ele><time>2026-05-03T12:54:44.915Z</time></trkpt><trkpt lat="42.3328942" lon="12.7034674"><ele>704.2</ele><time>2026-05-03T12:54:45.914Z</time></trkpt><trkpt lat="42.3327968" lon="12.7034022"><ele>702.5999999999999</ele><time>2026-05-03T12:54:46.9Z</time></trkpt><trkpt lat="42.3327026" lon="12.7033407"><ele>701.0</ele><time>2026-05-03T12:54:47.907Z</time></trkpt><trkpt lat="42.3326168" lon="12.7032739"><ele>701.0</ele><time>2026-05-03T12:54:48.912Z</time></trkpt><trkpt lat="42.3325303" lon="12.7032089"><ele>701.0</ele><time>2026-05-03T12:54:49.922Z</time></trkpt><trkpt lat="42.3324499" lon="12.7031633"><ele>701.0</ele><time>2026-05-03T12:54:50.921Z</time></trkpt><trkpt lat="42.3323728" lon="12.7031193"><ele>701.0</ele><time>2026-05-03T12:54:51.928Z</time></trkpt><trkpt lat="42.3323079" lon="12.7030747"><ele>701.0</ele><time>2026-05-03T12:54:52.916Z</time></trkpt><trkpt lat="42.3322361" lon="12.7030147"><ele>701.0</ele><time>2026-05-03T12:54:53.932Z</time></trkpt><trkpt lat="42.3321708" lon="12.7029478"><ele>700.8333333333333</ele><time>2026-05-03T12:54:54.92Z</time></trkpt><trkpt lat="42.3321076" lon="12.7028894"><ele>700.6666666666666</ele><time>2026-05-03T12:54:55.922Z</time></trkpt><trkpt lat="42.3320376" lon="12.7028473"><ele>700.5</ele><time>2026-05-03T12:54:56.919Z</time></trkpt><trkpt lat="42.3319634" lon="12.7028242"><ele>700.3333333333334</ele><time>2026-05-03T12:54:57.942Z</time></trkpt><trkpt lat="42.3318972" lon="12.7028254"><ele>700.1666666666667</ele><time>2026-05-03T12:54:58.914Z</time></trkpt><trkpt lat="42.3318614" lon="12.7029984"><ele>700.0</ele><time>2026-05-03T12:55:00.919Z</time></trkpt><trkpt lat="42.3318597" lon="12.7031259"><ele>700.0</ele><time>2026-05-03T12:55:01.924Z</time></trkpt><trkpt lat="42.3318472" lon="12.7032323"><ele>700.0</ele><time>2026-05-03T12:55:02.92Z</time></trkpt><trkpt lat="42.331848" lon="12.7033488"><ele>700.0</ele><time>2026-05-03T12:55:03.917Z</time></trkpt><trkpt lat="42.331856" lon="12.7034653"><ele>700.0</ele><time>2026-05-03T12:55:04.918Z</time></trkpt><trkpt lat="42.3318624" lon="12.7035897"><ele>700.0</ele><time>2026-05-03T12:55:05.926Z</time></trkpt><trkpt lat="42.3318582" lon="12.7037207"><ele>700.0</ele><time>2026-05-03T12:55:06.921Z</time></trkpt><trkpt lat="42.3318551" lon="12.7038419"><ele>701.5</ele><time>2026-05-03T12:55:07.928Z</time></trkpt><trkpt lat="42.3318502" lon="12.7039426"><ele>703.0</ele><time>2026-05-03T12:55:08.924Z</time></trkpt><trkpt lat="42.3318403" lon="12.7040446"><ele>704.5</ele><time>2026-05-03T12:55:09.92Z</time></trkpt><trkpt lat="42.331826" lon="12.7041557"><ele>706.0</ele><time>2026-05-03T12:55:10.922Z</time></trkpt><trkpt lat="42.3318198" lon="12.7042738"><ele>707.5</ele><time>2026-05-03T12:55:11.925Z</time></trkpt><trkpt lat="42.3318095" lon="12.7043922"><ele>709.0</ele><time>2026-05-03T12:55:12.922Z</time></trkpt><trkpt lat="42.331814" lon="12.7045153"><ele>709.6666666666667</ele><time>2026-05-03T12:55:13.925Z</time></trkpt><trkpt lat="42.3318122" lon="12.7046279"><ele>710.3333333333334</ele><time>2026-05-03T12:55:14.925Z</time></trkpt><trkpt lat="42.3317917" lon="12.7047316"><ele>711.0</ele><time>2026-05-03T12:55:15.916Z</time></trkpt><trkpt lat="42.3317599" lon="12.7048156"><ele>711.6666666666666</ele><time>2026-05-03T12:55:16.92Z</time></trkpt><trkpt lat="42.3316829" lon="12.7049075"><ele>712.3333333333333</ele><time>2026-05-03T12:55:18.923Z</time></trkpt><trkpt lat="42.331608" lon="12.7048904"><ele>713.0</ele><time>2026-05-03T12:55:20.927Z</time></trkpt><trkpt lat="42.3314985" lon="12.7048343"><ele>713.0</ele><time>2026-05-03T12:55:22.925Z</time></trkpt><trkpt lat="42.3314355" lon="12.7048008"><ele>713.0</ele><time>2026-05-03T12:55:23.922Z</time></trkpt><trkpt lat="42.3313703" lon="12.7047706"><ele>713.0</ele><time>2026-05-03T12:55:24.916Z</time></trkpt><trkpt lat="42.3313073" lon="12.7047422"><ele>713.0</ele><time>2026-05-03T12:55:25.925Z</time></trkpt><trkpt lat="42.3312423" lon="12.7047115"><ele>713.0</ele><time>2026-05-03T12:55:26.926Z</time></trkpt><trkpt lat="42.3311732" lon="12.7046717"><ele>713.0</ele><time>2026-05-03T12:55:27.921Z</time></trkpt><trkpt lat="42.3311142" lon="12.7046283"><ele>713.0</ele><time>2026-05-03T12:55:28.927Z</time></trkpt><trkpt lat="42.3310582" lon="12.704581"><ele>709.0</ele><time>2026-05-03T12:55:29.92Z</time></trkpt><trkpt lat="42.330953" lon="12.7045117"><ele>705.0</ele><time>2026-05-03T12:55:31.922Z</time></trkpt><trkpt lat="42.3308737" lon="12.7044409"><ele>701.0</ele><time>2026-05-03T12:55:33.923Z</time></trkpt><trkpt lat="42.3308047" lon="12.7043541"><ele>697.0</ele><time>2026-05-03T12:55:35.922Z</time></trkpt><trkpt lat="42.3307636" lon="12.7042278"><ele>693.0</ele><time>2026-05-03T12:55:37.918Z</time></trkpt><trkpt lat="42.3307254" lon="12.7040746"><ele>691.25</ele><time>2026-05-03T12:55:39.918Z</time></trkpt><trkpt lat="42.330692" lon="12.7039206"><ele>689.5</ele><time>2026-05-03T12:55:41.92Z</time></trkpt><trkpt lat="42.3306704" lon="12.7037743"><ele>687.75</ele><time>2026-05-03T12:55:43.927Z</time></trkpt><trkpt lat="42.3306648" lon="12.7036174"><ele>686.0</ele><time>2026-05-03T12:55:45.935Z</time></trkpt><trkpt lat="42.3306586" lon="12.7034722"><ele>684.1666666666666</ele><time>2026-05-03T12:55:47.914Z</time></trkpt><trkpt lat="42.330656" lon="12.7033358"><ele>682.3333333333333</ele><time>2026-05-03T12:55:49.922Z</time></trkpt><trkpt lat="42.3306751" lon="12.703205"><ele>680.5</ele><time>2026-05-03T12:55:51.925Z</time></trkpt><trkpt lat="42.3307244" lon="12.7031211"><ele>678.6666666666666</ele><time>2026-05-03T12:55:53.921Z</time></trkpt><trkpt lat="42.330769" lon="12.7030461"><ele>676.8333333333334</ele><time>2026-05-03T12:55:55.927Z</time></trkpt><trkpt lat="42.3307025" lon="12.7029767"><ele>675.0</ele><time>2026-05-03T12:55:58.916Z</time></trkpt><trkpt lat="42.330622" lon="12.703025"><ele>675.1428571428571</ele><time>2026-05-03T12:56:01.92Z</time></trkpt><trkpt lat="42.3305479" lon="12.7031041"><ele>675.2857142857143</ele><time>2026-05-03T12:56:03.924Z</time></trkpt><trkpt lat="42.3304981" lon="12.7031727"><ele>675.4285714285714</ele><time>2026-05-03T12:56:04.918Z</time></trkpt><trkpt lat="42.3304546" lon="12.703246"><ele>675.5714285714286</ele><time>2026-05-03T12:56:05.904Z</time></trkpt><trkpt lat="42.3304194" lon="12.7033254"><ele>675.7142857142857</ele><time>2026-05-03T12:56:06.905Z</time></trkpt><trkpt lat="42.3303751" lon="12.7033872"><ele>675.8571428571429</ele><time>2026-05-03T12:56:07.907Z</time></trkpt><trkpt lat="42.3303257" lon="12.703457"><ele>676.0</ele><time>2026-05-03T12:56:08.901Z</time></trkpt><trkpt lat="42.3302555" lon="12.7035882"><ele>676.0</ele><time>2026-05-03T12:56:10.9Z</time></trkpt><trkpt lat="42.3301889" lon="12.7036696"><ele>676.0</ele><time>2026-05-03T12:56:12.93Z</time></trkpt><trkpt lat="42.3301578" lon="12.7035832"><ele>676.0</ele><time>2026-05-03T12:56:16.934Z</time></trkpt><trkpt lat="42.3301609" lon="12.7034927"><ele>676.0</ele><time>2026-05-03T12:56:17.906Z</time></trkpt><trkpt lat="42.3301554" lon="12.70336"><ele>676.0</ele><time>2026-05-03T12:56:18.91Z</time></trkpt><trkpt lat="42.3301213" lon="12.7032012"><ele>676.0</ele><time>2026-05-03T12:56:19.914Z</time></trkpt><trkpt lat="42.3300849" lon="12.7030746"><ele>673.1999999999999</ele><time>2026-05-03T12:56:20.908Z</time></trkpt><trkpt lat="42.3300517" lon="12.7029324"><ele>670.4</ele><time>2026-05-03T12:56:21.91Z</time></trkpt><trkpt lat="42.3300109" lon="12.7027796"><ele>667.6</ele><time>2026-05-03T12:56:22.907Z</time></trkpt><trkpt lat="42.3299755" lon="12.7026333"><ele>664.8</ele><time>2026-05-03T12:56:23.919Z</time></trkpt><trkpt lat="42.3299408" lon="12.7025069"><ele>662.0</ele><time>2026-05-03T12:56:24.92Z</time></trkpt><trkpt lat="42.3298559" lon="12.7023706"><ele>661.6666666666666</ele><time>2026-05-03T12:56:26.916Z</time></trkpt><trkpt lat="42.329792" lon="12.7023154"><ele>661.3333333333333</ele><time>2026-05-03T12:56:27.913Z</time></trkpt><trkpt lat="42.3297109" lon="12.7022852"><ele>661.0</ele><time>2026-05-03T12:56:28.92Z</time></trkpt><trkpt lat="42.3296313" lon="12.7022551"><ele>660.6666666666666</ele><time>2026-05-03T12:56:29.917Z</time></trkpt><trkpt lat="42.3295561" lon="12.7022437"><ele>660.3333333333334</ele><time>2026-05-03T12:56:30.919Z</time></trkpt><trkpt lat="42.3294716" lon="12.7022329"><ele>660.0</ele><time>2026-05-03T12:56:31.92Z</time></trkpt><trkpt lat="42.3293872" lon="12.7022123"><ele>660.0000000000001</ele><time>2026-05-03T12:56:32.914Z</time></trkpt><trkpt lat="42.3293029" lon="12.7022016"><ele>660.0</ele><time>2026-05-03T12:56:33.909Z</time></trkpt><trkpt lat="42.3292368" lon="12.7021915"><ele>660.0</ele><time>2026-05-03T12:56:34.917Z</time></trkpt><trkpt lat="42.3291804" lon="12.7021461"><ele>660.0</ele><time>2026-05-03T12:56:35.919Z</time></trkpt><trkpt lat="42.3291413" lon="12.7020773"><ele>660.0</ele><time>2026-05-03T12:56:36.908Z</time></trkpt><trkpt lat="42.3290813" lon="12.7020242"><ele>660.0000000000001</ele><time>2026-05-03T12:56:37.916Z</time></trkpt><trkpt lat="42.3290131" lon="12.7019559"><ele>660.0</ele><time>2026-05-03T12:56:38.908Z</time></trkpt><trkpt lat="42.3289313" lon="12.7018924"><ele>658.0</ele><time>2026-05-03T12:56:39.912Z</time></trkpt><trkpt lat="42.3288663" lon="12.7018381"><ele>656.0</ele><time>2026-05-03T12:56:40.909Z</time></trkpt><trkpt lat="42.3287826" lon="12.7017421"><ele>654.0</ele><time>2026-05-03T12:56:41.908Z</time></trkpt><trkpt lat="42.3287257" lon="12.7016423"><ele>652.0</ele><time>2026-05-03T12:56:42.906Z</time></trkpt><trkpt lat="42.3286609" lon="12.7015472"><ele>650.0</ele><time>2026-05-03T12:56:43.907Z</time></trkpt><trkpt lat="42.3286227" lon="12.7014536"><ele>650.0</ele><time>2026-05-03T12:56:44.916Z</time></trkpt><trkpt lat="42.3285664" lon="12.7013467"><ele>650.0</ele><time>2026-05-03T12:56:45.92Z</time></trkpt><trkpt lat="42.3285064" lon="12.7012341"><ele>650.0</ele><time>2026-05-03T12:56:46.939Z</time></trkpt><trkpt lat="42.3284517" lon="12.7011273"><ele>650.0</ele><time>2026-05-03T12:56:47.937Z</time></trkpt><trkpt lat="42.3283746" lon="12.701038"><ele>650.0</ele><time>2026-05-03T12:56:48.946Z</time></trkpt><trkpt lat="42.3283007" lon="12.7009676"><ele>646.6</ele><time>2026-05-03T12:56:49.926Z</time></trkpt><trkpt lat="42.328245" lon="12.7009121"><ele>643.2</ele><time>2026-05-03T12:56:50.927Z</time></trkpt><trkpt lat="42.3281955" lon="12.700859"><ele>639.8</ele><time>2026-05-03T12:56:51.931Z</time></trkpt><trkpt lat="42.3280955" lon="12.7007907"><ele>636.4</ele><time>2026-05-03T12:56:53.917Z</time></trkpt><trkpt lat="42.3279618" lon="12.7007704"><ele>633.0</ele><time>2026-05-03T12:56:55.929Z</time></trkpt><trkpt lat="42.3278838" lon="12.7007517"><ele>631.4</ele><time>2026-05-03T12:56:56.915Z</time></trkpt><trkpt lat="42.327799" lon="12.7007216"><ele>629.8</ele><time>2026-05-03T12:56:58.09Z</time></trkpt><trkpt lat="42.3276937" lon="12.7006725"><ele>628.2</ele><time>2026-05-03T12:56:59.968Z</time></trkpt><trkpt lat="42.3276102" lon="12.7006943"><ele>626.6</ele><time>2026-05-03T12:57:01.919Z</time></trkpt><trkpt lat="42.3275955" lon="12.7008075"><ele>625.0</ele><time>2026-05-03T12:57:03.924Z</time></trkpt><trkpt lat="42.3275775" lon="12.7009563"><ele>626.8333333333334</ele><time>2026-05-03T12:57:05.916Z</time></trkpt><trkpt lat="42.327584" lon="12.7010857"><ele>628.6666666666667</ele><time>2026-05-03T12:57:07.921Z</time></trkpt><trkpt lat="42.327566" lon="12.7011969"><ele>630.5</ele><time>2026-05-03T12:57:09.912Z</time></trkpt><trkpt lat="42.3275197" lon="12.7013017"><ele>632.3333333333334</ele><time>2026-05-03T12:57:11.911Z</time></trkpt><trkpt lat="42.3274645" lon="12.7013713"><ele>634.1666666666666</ele><time>2026-05-03T12:57:13.913Z</time></trkpt><trkpt lat="42.327387" lon="12.7014554"><ele>636.0</ele><time>2026-05-03T12:57:16.916Z</time></trkpt><trkpt lat="42.3272989" lon="12.7014953"><ele>636.0</ele><time>2026-05-03T12:57:18.95Z</time></trkpt><trkpt lat="42.327229" lon="12.701557"><ele>636.0</ele><time>2026-05-03T12:57:20.922Z</time></trkpt><trkpt lat="42.3272883" lon="12.7015012"><ele>636.0</ele><time>2026-05-03T12:57:25.929Z</time></trkpt><trkpt lat="42.327344" lon="12.701399"><ele>636.0</ele><time>2026-05-03T12:57:27.924Z</time></trkpt><trkpt lat="42.3273877" lon="12.7012825"><ele>636.0</ele><time>2026-05-03T12:57:29.919Z</time></trkpt><trkpt lat="42.327348" lon="12.7011899"><ele>636.0</ele><time>2026-05-03T12:57:31.91Z</time></trkpt><trkpt lat="42.3272574" lon="12.7010988"><ele>631.4</ele><time>2026-05-03T12:57:33.917Z</time></trkpt><trkpt lat="42.3271991" lon="12.701058"><ele>626.8</ele><time>2026-05-03T12:57:34.918Z</time></trkpt><trkpt lat="42.3270964" lon="12.7009856"><ele>622.1999999999999</ele><time>2026-05-03T12:57:36.916Z</time></trkpt><trkpt lat="42.3270137" lon="12.7009233"><ele>617.6</ele><time>2026-05-03T12:57:38.914Z</time></trkpt><trkpt lat="42.3269366" lon="12.7008573"><ele>613.0</ele><time>2026-05-03T12:57:40.918Z</time></trkpt><trkpt lat="42.3268494" lon="12.7007819"><ele>613.0</ele><time>2026-05-03T12:57:42.917Z</time></trkpt><trkpt lat="42.3267895" lon="12.7007444"><ele>613.0</ele><time>2026-05-03T12:57:43.917Z</time></trkpt><trkpt lat="42.3267173" lon="12.7007311"><ele>613.0</ele><time>2026-05-03T12:57:44.918Z</time></trkpt><trkpt lat="42.3266517" lon="12.7007169"><ele>613.0</ele><time>2026-05-03T12:57:45.915Z</time></trkpt><trkpt lat="42.3265846" lon="12.700692"><ele>613.0</ele><time>2026-05-03T12:57:46.919Z</time></trkpt><trkpt lat="42.3265227" lon="12.7006493"><ele>613.0</ele><time>2026-05-03T12:57:47.915Z</time></trkpt><trkpt lat="42.3264635" lon="12.7005898"><ele>613.0</ele><time>2026-05-03T12:57:48.915Z</time></trkpt><trkpt lat="42.3263425" lon="12.7004995"><ele>612.6666666666667</ele><time>2026-05-03T12:57:50.909Z</time></trkpt><trkpt lat="42.3262714" lon="12.7004509"><ele>612.3333333333334</ele><time>2026-05-03T12:57:51.935Z</time></trkpt><trkpt lat="42.3261943" lon="12.7004105"><ele>612.0</ele><time>2026-05-03T12:57:52.92Z</time></trkpt><trkpt lat="42.326111" lon="12.7003699"><ele>611.6666666666666</ele><time>2026-05-03T12:57:53.918Z</time></trkpt><trkpt lat="42.3260252" lon="12.7003253"><ele>611.3333333333333</ele><time>2026-05-03T12:57:54.924Z</time></trkpt><trkpt lat="42.3259537" lon="12.7002894"><ele>611.0</ele><time>2026-05-03T12:57:55.93Z</time></trkpt><trkpt lat="42.3258873" lon="12.7002576"><ele>607.3333333333333</ele><time>2026-05-03T12:57:56.93Z</time></trkpt><trkpt lat="42.3258079" lon="12.7002067"><ele>603.6666666666666</ele><time>2026-05-03T12:57:57.928Z</time></trkpt><trkpt lat="42.3257359" lon="12.7001676"><ele>600.0</ele><time>2026-05-03T12:57:58.931Z</time></trkpt><trkpt lat="42.3256564" lon="12.7001248"><ele>596.3333333333334</ele><time>2026-05-03T12:57:59.926Z</time></trkpt><trkpt lat="42.3255785" lon="12.7000889"><ele>592.6666666666667</ele><time>2026-05-03T12:58:00.923Z</time></trkpt><trkpt lat="42.3255045" lon="12.70006"><ele>589.0</ele><time>2026-05-03T12:58:01.925Z</time></trkpt><trkpt lat="42.325427" lon="12.7000359"><ele>585.8333333333334</ele><time>2026-05-03T12:58:02.926Z</time></trkpt><trkpt lat="42.3253514" lon="12.7000162"><ele>582.6666666666667</ele><time>2026-05-03T12:58:03.927Z</time></trkpt><trkpt lat="42.3252818" lon="12.6999911"><ele>579.5</ele><time>2026-05-03T12:58:04.933Z</time></trkpt><trkpt lat="42.3252161" lon="12.6999531"><ele>576.3333333333334</ele><time>2026-05-03T12:58:05.924Z</time></trkpt><trkpt lat="42.3251539" lon="12.6999086"><ele>573.1666666666666</ele><time>2026-05-03T12:58:06.925Z</time></trkpt><trkpt lat="42.3250802" lon="12.6998544"><ele>570.0</ele><time>2026-05-03T12:58:07.925Z</time></trkpt><trkpt lat="42.3249853" lon="12.6998006"><ele>570.0</ele><time>2026-05-03T12:58:08.924Z</time></trkpt><trkpt lat="42.3248931" lon="12.6997458"><ele>570.0</ele><time>2026-05-03T12:58:09.928Z</time></trkpt><trkpt lat="42.3248062" lon="12.6996912"><ele>570.0</ele><time>2026-05-03T12:58:10.929Z</time></trkpt><trkpt lat="42.3247218" lon="12.6996442"><ele>570.0</ele><time>2026-05-03T12:58:11.926Z</time></trkpt><trkpt lat="42.3246426" lon="12.6996101"><ele>570.0</ele><time>2026-05-03T12:58:12.919Z</time></trkpt><trkpt lat="42.3245612" lon="12.6995744"><ele>568.5</ele><time>2026-05-03T12:58:13.928Z</time></trkpt><trkpt lat="42.3244663" lon="12.6995543"><ele>567.0</ele><time>2026-05-03T12:58:14.929Z</time></trkpt><trkpt lat="42.3243684" lon="12.6995473"><ele>565.5</ele><time>2026-05-03T12:58:15.928Z</time></trkpt><trkpt lat="42.324284" lon="12.6995544"><ele>564.0</ele><time>2026-05-03T12:58:16.928Z</time></trkpt><trkpt lat="42.3242081" lon="12.6995663"><ele>562.5</ele><time>2026-05-03T12:58:17.932Z</time></trkpt><trkpt lat="42.3241461" lon="12.6995839"><ele>561.0</ele><time>2026-05-03T12:58:18.937Z</time></trkpt><trkpt lat="42.3240817" lon="12.6996011"><ele>561.0</ele><time>2026-05-03T12:58:19.929Z</time></trkpt><trkpt lat="42.3240198" lon="12.6996286"><ele>561.0</ele><time>2026-05-03T12:58:20.929Z</time></trkpt><trkpt lat="42.3239025" lon="12.6996911"><ele>561.0</ele><time>2026-05-03T12:58:22.916Z</time></trkpt><trkpt lat="42.3238384" lon="12.6997312"><ele>561.0</ele><time>2026-05-03T12:58:23.916Z</time></trkpt><trkpt lat="42.3237674" lon="12.6997762"><ele>561.0</ele><time>2026-05-03T12:58:24.923Z</time></trkpt><trkpt lat="42.3236959" lon="12.6998215"><ele>561.0</ele><time>2026-05-03T12:58:25.915Z</time></trkpt><trkpt lat="42.3236295" lon="12.6998573"><ele>556.6666666666666</ele><time>2026-05-03T12:58:26.916Z</time></trkpt><trkpt lat="42.3235529" lon="12.699899"><ele>552.3333333333334</ele><time>2026-05-03T12:58:27.92Z</time></trkpt><trkpt lat="42.3234694" lon="12.699938"><ele>548.0</ele><time>2026-05-03T12:58:28.92Z</time></trkpt><trkpt lat="42.3233875" lon="12.6999664"><ele>543.6666666666667</ele><time>2026-05-03T12:58:29.922Z</time></trkpt><trkpt lat="42.3233083" lon="12.6999932"><ele>539.3333333333334</ele><time>2026-05-03T12:58:30.918Z</time></trkpt><trkpt lat="42.3232361" lon="12.7000403"><ele>535.0</ele><time>2026-05-03T12:58:31.911Z</time></trkpt><trkpt lat="42.3231733" lon="12.7001017"><ele>535.0</ele><time>2026-05-03T12:58:32.918Z</time></trkpt><trkpt lat="42.3231023" lon="12.7001683"><ele>535.0</ele><time>2026-05-03T12:58:33.92Z</time></trkpt><trkpt lat="42.3230293" lon="12.7002332"><ele>535.0</ele><time>2026-05-03T12:58:34.922Z</time></trkpt><trkpt lat="42.3229721" lon="12.700299"><ele>535.0</ele><time>2026-05-03T12:58:35.927Z</time></trkpt><trkpt lat="42.3229166" lon="12.7003554"><ele>535.0</ele><time>2026-05-03T12:58:36.923Z</time></trkpt><trkpt lat="42.3228625" lon="12.7004181"><ele>535.0</ele><time>2026-05-03T12:58:37.931Z</time></trkpt><trkpt lat="42.3228082" lon="12.7004755"><ele>535.1666666666667</ele><time>2026-05-03T12:58:38.934Z</time></trkpt><trkpt lat="42.3227534" lon="12.7005359"><ele>535.3333333333334</ele><time>2026-05-03T12:58:39.95Z</time></trkpt><trkpt lat="42.3226912" lon="12.7005981"><ele>535.5</ele><time>2026-05-03T12:58:40.931Z</time></trkpt><trkpt lat="42.3226233" lon="12.7006566"><ele>535.6666666666666</ele><time>2026-05-03T12:58:41.933Z</time></trkpt><trkpt lat="42.3225477" lon="12.7007006"><ele>535.8333333333333</ele><time>2026-05-03T12:58:42.93Z</time></trkpt><trkpt lat="42.3224704" lon="12.7007247"><ele>536.0</ele><time>2026-05-03T12:58:43.923Z</time></trkpt><trkpt lat="42.3223955" lon="12.7007323"><ele>536.0</ele><time>2026-05-03T12:58:44.925Z</time></trkpt><trkpt lat="42.3223161" lon="12.7007423"><ele>536.0</ele><time>2026-05-03T12:58:45.929Z</time></trkpt><trkpt lat="42.3222344" lon="12.7007566"><ele>536.0</ele><time>2026-05-03T12:58:46.929Z</time></trkpt><trkpt lat="42.322152" lon="12.7007659"><ele>536.0</ele><time>2026-05-03T12:58:47.924Z</time></trkpt><trkpt lat="42.3220768" lon="12.7007664"><ele>536.0</ele><time>2026-05-03T12:58:48.92Z</time></trkpt><trkpt lat="42.3220062" lon="12.7007604"><ele>536.0</ele><time>2026-05-03T12:58:49.92Z</time></trkpt><trkpt lat="42.3219393" lon="12.7007378"><ele>534.8333333333333</ele><time>2026-05-03T12:58:50.919Z</time></trkpt><trkpt lat="42.3218704" lon="12.7007083"><ele>533.6666666666666</ele><time>2026-05-03T12:58:51.917Z</time></trkpt><trkpt lat="42.3218055" lon="12.7006508"><ele>532.5</ele><time>2026-05-03T12:58:52.939Z</time></trkpt><trkpt lat="42.3217406" lon="12.7005984"><ele>531.3333333333334</ele><time>2026-05-03T12:58:53.921Z</time></trkpt><trkpt lat="42.3216751" lon="12.7005531"><ele>530.1666666666667</ele><time>2026-05-03T12:58:54.922Z</time></trkpt><trkpt lat="42.3216037" lon="12.7004994"><ele>529.0</ele><time>2026-05-03T12:58:55.915Z</time></trkpt><trkpt lat="42.3215297" lon="12.700443"><ele>529.0</ele><time>2026-05-03T12:58:56.924Z</time></trkpt><trkpt lat="42.3214552" lon="12.7003876"><ele>529.0</ele><time>2026-05-03T12:58:57.928Z</time></trkpt><trkpt lat="42.3213843" lon="12.7003459"><ele>529.0</ele><time>2026-05-03T12:58:58.927Z</time></trkpt><trkpt lat="42.3213049" lon="12.7003009"><ele>529.0</ele><time>2026-05-03T12:58:59.918Z</time></trkpt><trkpt lat="42.3212254" lon="12.7002579"><ele>529.0</ele><time>2026-05-03T12:59:00.924Z</time></trkpt><trkpt lat="42.3211271" lon="12.7002054"><ele>529.0</ele><time>2026-05-03T12:59:01.93Z</time></trkpt><trkpt lat="42.3210418" lon="12.7001533"><ele>524.1666666666667</ele><time>2026-05-03T12:59:02.929Z</time></trkpt><trkpt lat="42.3209622" lon="12.7000998"><ele>519.3333333333334</ele><time>2026-05-03T12:59:03.933Z</time></trkpt><trkpt lat="42.3208856" lon="12.7000507"><ele>514.5</ele><time>2026-05-03T12:59:04.934Z</time></trkpt><trkpt lat="42.3208114" lon="12.7000072"><ele>509.66666666666663</ele><time>2026-05-03T12:59:05.935Z</time></trkpt><trkpt lat="42.3207351" lon="12.6999621"><ele>504.8333333333333</ele><time>2026-05-03T12:59:06.939Z</time></trkpt><trkpt lat="42.3206636" lon="12.6999212"><ele>500.0</ele><time>2026-05-03T12:59:07.933Z</time></trkpt><trkpt lat="42.3205909" lon="12.69988"><ele>497.8333333333333</ele><time>2026-05-03T12:59:08.935Z</time></trkpt><trkpt lat="42.3205201" lon="12.6998344"><ele>495.66666666666663</ele><time>2026-05-03T12:59:09.936Z</time></trkpt><trkpt lat="42.3204524" lon="12.6997892"><ele>493.5</ele><time>2026-05-03T12:59:10.931Z</time></trkpt><trkpt lat="42.3203901" lon="12.699748"><ele>491.33333333333337</ele><time>2026-05-03T12:59:11.936Z</time></trkpt><trkpt lat="42.3202862" lon="12.6996705"><ele>489.1666666666667</ele><time>2026-05-03T12:59:13.935Z</time></trkpt><trkpt lat="42.3202038" lon="12.6995879"><ele>487.0</ele><time>2026-05-03T12:59:15.953Z</time></trkpt><trkpt lat="42.3201541" lon="12.6994699"><ele>484.8</ele><time>2026-05-03T12:59:17.93Z</time></trkpt><trkpt lat="42.3201175" lon="12.6993094"><ele>482.6</ele><time>2026-05-03T12:59:19.938Z</time></trkpt><trkpt lat="42.3201011" lon="12.6992121"><ele>480.40000000000003</ele><time>2026-05-03T12:59:20.934Z</time></trkpt><trkpt lat="42.320087" lon="12.6991223"><ele>478.20000000000005</ele><time>2026-05-03T12:59:21.936Z</time></trkpt><trkpt lat="42.3200714" lon="12.6990375"><ele>476.0</ele><time>2026-05-03T12:59:22.937Z</time></trkpt><trkpt lat="42.3200465" lon="12.6988766"><ele>476.0</ele><time>2026-05-03T12:59:24.933Z</time></trkpt><trkpt lat="42.3200335" lon="12.6987882"><ele>476.0</ele><time>2026-05-03T12:59:25.933Z</time></trkpt><trkpt lat="42.3200248" lon="12.6986946"><ele>476.0</ele><time>2026-05-03T12:59:26.937Z</time></trkpt><trkpt lat="42.3200197" lon="12.6986018"><ele>476.0</ele><time>2026-05-03T12:59:27.953Z</time></trkpt><trkpt lat="42.3200176" lon="12.698513"><ele>476.0</ele><time>2026-05-03T12:59:28.964Z</time></trkpt><trkpt lat="42.3200084" lon="12.6984285"><ele>476.0</ele><time>2026-05-03T12:59:29.928Z</time></trkpt><trkpt lat="42.3199965" lon="12.6983446"><ele>476.0</ele><time>2026-05-03T12:59:30.932Z</time></trkpt><trkpt lat="42.3199789" lon="12.6981807"><ele>475.6</ele><time>2026-05-03T12:59:32.934Z</time></trkpt><trkpt lat="42.3199834" lon="12.6980435"><ele>475.20000000000005</ele><time>2026-05-03T12:59:34.931Z</time></trkpt><trkpt lat="42.3200016" lon="12.6978898"><ele>474.79999999999995</ele><time>2026-05-03T12:59:36.935Z</time></trkpt><trkpt lat="42.3200363" lon="12.6977229"><ele>474.4</ele><time>2026-05-03T12:59:38.916Z</time></trkpt><trkpt lat="42.3200585" lon="12.6976053"><ele>474.0</ele><time>2026-05-03T12:59:39.931Z</time></trkpt><trkpt lat="42.3200749" lon="12.6974926"><ele>467.0</ele><time>2026-05-03T12:59:40.934Z</time></trkpt><trkpt lat="42.3200875" lon="12.6973924"><ele>467.0</ele><time>2026-05-03T12:59:41.935Z</time></trkpt><trkpt lat="42.3201062" lon="12.6972957"><ele>467.0</ele><time>2026-05-03T12:59:42.931Z</time></trkpt><trkpt lat="42.3201176" lon="12.6972015"><ele>467.0</ele><time>2026-05-03T12:59:43.927Z</time></trkpt><trkpt lat="42.3201319" lon="12.6971092"><ele>467.0</ele><time>2026-05-03T12:59:44.934Z</time></trkpt><trkpt lat="42.3201413" lon="12.6969729"><ele>467.0</ele><time>2026-05-03T12:59:46.932Z</time></trkpt></trkseg><trkseg><trkpt lat="42.3207383" lon="12.696635"><ele>454.00000000000006</ele><time>2026-05-03T13:28:24.828Z</time></trkpt><trkpt lat="42.3208414" lon="12.696589"><ele>454.0</ele><time>2026-05-03T13:28:29.823Z</time></trkpt><trkpt lat="42.3209235" lon="12.6965555"><ele>454.0</ele><time>2026-05-03T13:28:30.845Z</time></trkpt><trkpt lat="42.3210095" lon="12.6965193"><ele>454.0</ele><time>2026-05-03T13:28:32.844Z</time></trkpt><trkpt lat="42.3210832" lon="12.6964823"><ele>454.00000000000006</ele><time>2026-05-03T13:28:34.845Z</time></trkpt><trkpt lat="42.32116" lon="12.6964417"><ele>454.0</ele><time>2026-05-03T13:28:37.839Z</time></trkpt><trkpt lat="42.3212223" lon="12.6964117"><ele>454.0</ele><time>2026-05-03T13:28:38.851Z</time></trkpt><trkpt lat="42.3212815" lon="12.6963732"><ele>454.0</ele><time>2026-05-03T13:28:40.846Z</time></trkpt><trkpt lat="42.3211997" lon="12.6964461"><ele>454.0</ele><time>2026-05-03T13:28:55.841Z</time></trkpt><trkpt lat="42.3211396" lon="12.6964751"><ele>454.0</ele><time>2026-05-03T13:28:58.854Z</time></trkpt><trkpt lat="42.321018" lon="12.6965387"><ele>454.0</ele><time>2026-05-03T13:29:01.851Z</time></trkpt><trkpt lat="42.3208514" lon="12.6966224"><ele>454.0</ele><time>2026-05-03T13:29:04.872Z</time></trkpt><trkpt lat="42.3207227" lon="12.6966829"><ele>454.0</ele><time>2026-05-03T13:29:05.845Z</time></trkpt><trkpt lat="42.320602" lon="12.6967386"><ele>454.0</ele><time>2026-05-03T13:29:06.853Z</time></trkpt><trkpt lat="42.3204655" lon="12.6967984"><ele>454.0</ele><time>2026-05-03T13:29:07.853Z</time></trkpt><trkpt lat="42.3203284" lon="12.6968552"><ele>454.6666666666667</ele><time>2026-05-03T13:29:08.842Z</time></trkpt><trkpt lat="42.3202205" lon="12.6969013"><ele>455.33333333333337</ele><time>2026-05-03T13:29:09.848Z</time></trkpt><trkpt lat="42.3201562" lon="12.6969253"><ele>456.0</ele><time>2026-05-03T13:29:12.849Z</time></trkpt><trkpt lat="42.3200921" lon="12.6969538"><ele>456.66666666666663</ele><time>2026-05-03T13:29:14.853Z</time></trkpt><trkpt lat="42.3200248" lon="12.6969848"><ele>457.3333333333333</ele><time>2026-05-03T13:29:15.85Z</time></trkpt><trkpt lat="42.3199215" lon="12.6970338"><ele>458.0</ele><time>2026-05-03T13:29:17.848Z</time></trkpt><trkpt lat="42.3198575" lon="12.6970645"><ele>459.49999999999994</ele><time>2026-05-03T13:29:18.849Z</time></trkpt><trkpt lat="42.3197657" lon="12.6971076"><ele>461.0</ele><time>2026-05-03T13:29:20.86Z</time></trkpt><trkpt lat="42.3196986" lon="12.6971096"><ele>462.5</ele><time>2026-05-03T13:29:30.86Z</time></trkpt><trkpt lat="42.3196244" lon="12.6971348"><ele>464.0</ele><time>2026-05-03T13:29:34.851Z</time></trkpt><trkpt lat="42.3195302" lon="12.6971771"><ele>465.49999999999994</ele><time>2026-05-03T13:29:38.862Z</time></trkpt><trkpt lat="42.3194602" lon="12.6972084"><ele>467.0</ele><time>2026-05-03T13:29:40.858Z</time></trkpt><trkpt lat="42.3193717" lon="12.6972518"><ele>467.0</ele><time>2026-05-03T13:29:42.88Z</time></trkpt><trkpt lat="42.3192961" lon="12.6972864"><ele>467.0</ele><time>2026-05-03T13:29:43.853Z</time></trkpt><trkpt lat="42.3190057" lon="12.6974262"><ele>467.0</ele><time>2026-05-03T13:29:46.853Z</time></trkpt><trkpt lat="42.3202267" lon="12.6970558"><ele>467.0</ele><time>2026-05-03T13:30:09.866Z</time></trkpt><trkpt lat="42.3201378" lon="12.6970195"><ele>467.00000000000006</ele><time>2026-05-03T13:40:04.864Z</time></trkpt><trkpt lat="42.3200945" lon="12.6968963"><ele>467.00000000000006</ele><time>2026-05-03T13:40:08.863Z</time></trkpt><trkpt lat="42.3201102" lon="12.6967708"><ele>467.0</ele><time>2026-05-03T13:40:10.86Z</time></trkpt><trkpt lat="42.3201555" lon="12.6966154"><ele>467.0</ele><time>2026-05-03T13:40:12.867Z</time></trkpt><trkpt lat="42.3202178" lon="12.6964585"><ele>465.49999999999994</ele><time>2026-05-03T13:40:14.867Z</time></trkpt><trkpt lat="42.3202463" lon="12.6963776"><ele>464.0</ele><time>2026-05-03T13:40:15.864Z</time></trkpt><trkpt lat="42.3202586" lon="12.6962754"><ele>462.5</ele><time>2026-05-03T13:40:16.861Z</time></trkpt><trkpt lat="42.3202669" lon="12.6961773"><ele>461.0</ele><time>2026-05-03T13:40:17.863Z</time></trkpt><trkpt lat="42.3202699" lon="12.6960575"><ele>459.49999999999994</ele><time>2026-05-03T13:40:18.857Z</time></trkpt><trkpt lat="42.3202797" lon="12.6959437"><ele>458.0</ele><time>2026-05-03T13:40:19.865Z</time></trkpt><trkpt lat="42.3202919" lon="12.6958207"><ele>454.49999999999994</ele><time>2026-05-03T13:40:20.869Z</time></trkpt><trkpt lat="42.3203066" lon="12.6957019"><ele>451.0</ele><time>2026-05-03T13:40:21.868Z</time></trkpt><trkpt lat="42.3203303" lon="12.6955905"><ele>447.5</ele><time>2026-05-03T13:40:22.869Z</time></trkpt><trkpt lat="42.3203667" lon="12.6954978"><ele>444.0</ele><time>2026-05-03T13:40:23.864Z</time></trkpt><trkpt lat="42.320399" lon="12.6954145"><ele>440.49999999999994</ele><time>2026-05-03T13:40:24.871Z</time></trkpt><trkpt lat="42.3204291" lon="12.6953215"><ele>437.0</ele><time>2026-05-03T13:40:25.868Z</time></trkpt><trkpt lat="42.3204564" lon="12.6952285"><ele>437.0</ele><time>2026-05-03T13:40:26.864Z</time></trkpt><trkpt lat="42.32047" lon="12.6951411"><ele>437.00000000000006</ele><time>2026-05-03T13:40:27.874Z</time></trkpt><trkpt lat="42.3204877" lon="12.6950155"><ele>437.00000000000006</ele><time>2026-05-03T13:40:29.864Z</time></trkpt><trkpt lat="42.3205374" lon="12.694919"><ele>437.0</ele><time>2026-05-03T13:40:31.854Z</time></trkpt><trkpt lat="42.3206524" lon="12.6948023"><ele>437.0</ele><time>2026-05-03T13:40:33.862Z</time></trkpt><trkpt lat="42.3207236" lon="12.6947119"><ele>437.0</ele><time>2026-05-03T13:40:34.851Z</time></trkpt><trkpt lat="42.3208031" lon="12.6946058"><ele>437.00000000000006</ele><time>2026-05-03T13:40:35.853Z</time></trkpt><trkpt lat="42.3208744" lon="12.694502"><ele>437.00000000000006</ele><time>2026-05-03T13:40:36.853Z</time></trkpt><trkpt lat="42.3209611" lon="12.6943979"><ele>437.0</ele><time>2026-05-03T13:40:37.848Z</time></trkpt><trkpt lat="42.3210503" lon="12.6943041"><ele>437.0</ele><time>2026-05-03T13:40:38.853Z</time></trkpt><trkpt lat="42.3211346" lon="12.6942258"><ele>438.20000000000005</ele><time>2026-05-03T13:40:39.848Z</time></trkpt><trkpt lat="42.3212305" lon="12.694166"><ele>439.40000000000003</ele><time>2026-05-03T13:40:40.85Z</time></trkpt><trkpt lat="42.3213259" lon="12.694137"><ele>440.59999999999997</ele><time>2026-05-03T13:40:41.853Z</time></trkpt><trkpt lat="42.3214328" lon="12.6941211"><ele>441.79999999999995</ele><time>2026-05-03T13:40:42.852Z</time></trkpt><trkpt lat="42.3215384" lon="12.6941144"><ele>443.0</ele><time>2026-05-03T13:40:43.85Z</time></trkpt><trkpt lat="42.3216236" lon="12.6940945"><ele>438.79999999999995</ele><time>2026-05-03T13:40:44.856Z</time></trkpt><trkpt lat="42.3216977" lon="12.6940552"><ele>434.59999999999997</ele><time>2026-05-03T13:40:45.857Z</time></trkpt><trkpt lat="42.3217706" lon="12.6939997"><ele>430.4</ele><time>2026-05-03T13:40:46.859Z</time></trkpt><trkpt lat="42.321818" lon="12.6939123"><ele>426.20000000000005</ele><time>2026-05-03T13:40:47.862Z</time></trkpt><trkpt lat="42.3218502" lon="12.6937783"><ele>422.0</ele><time>2026-05-03T13:40:48.857Z</time></trkpt><trkpt lat="42.3218786" lon="12.6936395"><ele>421.6</ele><time>2026-05-03T13:40:49.851Z</time></trkpt><trkpt lat="42.3218859" lon="12.6934959"><ele>421.20000000000005</ele><time>2026-05-03T13:40:50.849Z</time></trkpt><trkpt lat="42.3218977" lon="12.6933599"><ele>420.8</ele><time>2026-05-03T13:40:51.85Z</time></trkpt><trkpt lat="42.3218979" lon="12.6932215"><ele>420.4</ele><time>2026-05-03T13:40:52.85Z</time></trkpt><trkpt lat="42.3218637" lon="12.6930654"><ele>420.0</ele><time>2026-05-03T13:40:53.846Z</time></trkpt><trkpt lat="42.3218225" lon="12.6929066"><ele>415.0</ele><time>2026-05-03T13:40:54.846Z</time></trkpt><trkpt lat="42.3217604" lon="12.6927387"><ele>410.0</ele><time>2026-05-03T13:40:55.849Z</time></trkpt><trkpt lat="42.3217041" lon="12.6925704"><ele>405.0</ele><time>2026-05-03T13:40:56.848Z</time></trkpt><trkpt lat="42.3216409" lon="12.6924297"><ele>400.0</ele><time>2026-05-03T13:40:57.849Z</time></trkpt><trkpt lat="42.3215788" lon="12.6922978"><ele>400.0</ele><time>2026-05-03T13:40:58.849Z</time></trkpt><trkpt lat="42.3215155" lon="12.6921782"><ele>400.0</ele><time>2026-05-03T13:40:59.847Z</time></trkpt><trkpt lat="42.3214245" lon="12.6920749"><ele>400.0</ele><time>2026-05-03T13:41:00.85Z</time></trkpt><trkpt lat="42.3213679" lon="12.6919886"><ele>400.0</ele><time>2026-05-03T13:41:01.876Z</time></trkpt><trkpt lat="42.3213193" lon="12.6919157"><ele>400.0</ele><time>2026-05-03T13:41:02.853Z</time></trkpt><trkpt lat="42.3212662" lon="12.6918592"><ele>400.00000000000006</ele><time>2026-05-03T13:41:03.929Z</time></trkpt><trkpt lat="42.3212123" lon="12.6918067"><ele>400.0</ele><time>2026-05-03T13:41:05.166Z</time></trkpt><trkpt lat="42.3211505" lon="12.6917351"><ele>400.0</ele><time>2026-05-03T13:41:06.856Z</time></trkpt><trkpt lat="42.3212275" lon="12.6917369"><ele>400.0</ele><time>2026-05-03T13:41:09.856Z</time></trkpt><trkpt lat="42.3213111" lon="12.6918174"><ele>400.00000000000006</ele><time>2026-05-03T13:41:10.853Z</time></trkpt><trkpt lat="42.3214101" lon="12.6919076"><ele>400.0</ele><time>2026-05-03T13:41:11.854Z</time></trkpt><trkpt lat="42.3215101" lon="12.692026"><ele>400.0</ele><time>2026-05-03T13:41:12.876Z</time></trkpt><trkpt lat="42.3216244" lon="12.6921616"><ele>400.0</ele><time>2026-05-03T13:41:13.868Z</time></trkpt><trkpt lat="42.3217378" lon="12.6922953"><ele>400.0</ele><time>2026-05-03T13:41:14.846Z</time></trkpt><trkpt lat="42.3218341" lon="12.692419"><ele>400.0</ele><time>2026-05-03T13:41:15.851Z</time></trkpt><trkpt lat="42.3219375" lon="12.6925578"><ele>400.0</ele><time>2026-05-03T13:41:16.845Z</time></trkpt><trkpt lat="42.3220277" lon="12.6927166"><ele>400.0</ele><time>2026-05-03T13:41:17.852Z</time></trkpt><trkpt lat="42.3221275" lon="12.6929424"><ele>400.0</ele><time>2026-05-03T13:41:18.848Z</time></trkpt><trkpt lat="42.322192" lon="12.6931313"><ele>401.4</ele><time>2026-05-03T13:41:19.848Z</time></trkpt><trkpt lat="42.3222105" lon="12.693304"><ele>402.8</ele><time>2026-05-03T13:41:20.852Z</time></trkpt><trkpt lat="42.3222395" lon="12.6934288"><ele>404.20000000000005</ele><time>2026-05-03T13:41:21.923Z</time></trkpt><trkpt lat="42.3222487" lon="12.6935461"><ele>405.6</ele><time>2026-05-03T13:41:23.02Z</time></trkpt><trkpt lat="42.3223265" lon="12.6936529"><ele>407.0</ele><time>2026-05-03T13:41:24.846Z</time></trkpt><trkpt lat="42.3224098" lon="12.6936611"><ele>407.0</ele><time>2026-05-03T13:41:25.845Z</time></trkpt><trkpt lat="42.3224779" lon="12.6936424"><ele>407.0</ele><time>2026-05-03T13:41:26.847Z</time></trkpt><trkpt lat="42.3225455" lon="12.6935369"><ele>407.0</ele><time>2026-05-03T13:41:27.858Z</time></trkpt><trkpt lat="42.3225819" lon="12.6933914"><ele>407.0</ele><time>2026-05-03T13:41:28.854Z</time></trkpt><trkpt lat="42.3225928" lon="12.6931752"><ele>407.0</ele><time>2026-05-03T13:41:29.854Z</time></trkpt><trkpt lat="42.3225683" lon="12.69288"><ele>403.3333333333333</ele><time>2026-05-03T13:41:30.857Z</time></trkpt><trkpt lat="42.3225224" lon="12.6926013"><ele>399.66666666666663</ele><time>2026-05-03T13:41:31.854Z</time></trkpt><trkpt lat="42.3224745" lon="12.6923314"><ele>396.0</ele><time>2026-05-03T13:41:32.857Z</time></trkpt><trkpt lat="42.3224391" lon="12.6921017"><ele>395.25</ele><time>2026-05-03T13:41:33.857Z</time></trkpt><trkpt lat="42.3224104" lon="12.6918994"><ele>394.5</ele><time>2026-05-03T13:41:34.859Z</time></trkpt><trkpt lat="42.3223617" lon="12.691729"><ele>393.75</ele><time>2026-05-03T13:41:35.858Z</time></trkpt><trkpt lat="42.3223021" lon="12.6915696"><ele>393.0</ele><time>2026-05-03T13:41:36.858Z</time></trkpt><trkpt lat="42.3222408" lon="12.6913957"><ele>389.0</ele><time>2026-05-03T13:41:37.859Z</time></trkpt><trkpt lat="42.3222031" lon="12.6912278"><ele>385.0</ele><time>2026-05-03T13:41:38.859Z</time></trkpt><trkpt lat="42.3221547" lon="12.6910444"><ele>381.0</ele><time>2026-05-03T13:41:39.867Z</time></trkpt><trkpt lat="42.3221351" lon="12.6908973"><ele>377.0</ele><time>2026-05-03T13:41:40.86Z</time></trkpt><trkpt lat="42.3221337" lon="12.6907441"><ele>373.0</ele><time>2026-05-03T13:41:41.86Z</time></trkpt><trkpt lat="42.3221471" lon="12.6905782"><ele>369.0</ele><time>2026-05-03T13:41:42.865Z</time></trkpt><trkpt lat="42.3221715" lon="12.6904"><ele>365.0</ele><time>2026-05-03T13:41:43.856Z</time></trkpt><trkpt lat="42.3222106" lon="12.690226"><ele>361.0</ele><time>2026-05-03T13:41:44.857Z</time></trkpt><trkpt lat="42.3223087" lon="12.6900987"><ele>361.0</ele><time>2026-05-03T13:41:45.855Z</time></trkpt><trkpt lat="42.3224843" lon="12.6900054"><ele>361.0</ele><time>2026-05-03T13:41:46.858Z</time></trkpt><trkpt lat="42.3226153" lon="12.6898501"><ele>361.0</ele><time>2026-05-03T13:41:47.857Z</time></trkpt><trkpt lat="42.3227182" lon="12.6896979"><ele>361.0</ele><time>2026-05-03T13:41:48.862Z</time></trkpt><trkpt lat="42.3228131" lon="12.68962"><ele>361.0</ele><time>2026-05-03T13:41:49.867Z</time></trkpt><trkpt lat="42.3229096" lon="12.6895852"><ele>361.0</ele><time>2026-05-03T13:41:50.871Z</time></trkpt><trkpt lat="42.3230081" lon="12.6896"><ele>361.0</ele><time>2026-05-03T13:41:51.858Z</time></trkpt><trkpt lat="42.3231129" lon="12.6896465"><ele>361.0</ele><time>2026-05-03T13:41:52.856Z</time></trkpt><trkpt lat="42.3232093" lon="12.6896912"><ele>364.5</ele><time>2026-05-03T13:41:53.85Z</time></trkpt><trkpt lat="42.3233089" lon="12.6897981"><ele>368.0</ele><time>2026-05-03T13:41:54.849Z</time></trkpt><trkpt lat="42.3234078" lon="12.689941"><ele>371.5</ele><time>2026-05-03T13:41:55.846Z</time></trkpt><trkpt lat="42.323512" lon="12.6900347"><ele>375.0</ele><time>2026-05-03T13:41:56.847Z</time></trkpt><trkpt lat="42.3236051" lon="12.6901523"><ele>375.0</ele><time>2026-05-03T13:41:57.843Z</time></trkpt><trkpt lat="42.3237028" lon="12.6902538"><ele>375.0</ele><time>2026-05-03T13:41:58.848Z</time></trkpt><trkpt lat="42.3238067" lon="12.6903255"><ele>375.0</ele><time>2026-05-03T13:41:59.851Z</time></trkpt><trkpt lat="42.323894" lon="12.6903661"><ele>375.0</ele><time>2026-05-03T13:42:00.869Z</time></trkpt><trkpt lat="42.3239772" lon="12.6902927"><ele>375.0</ele><time>2026-05-03T13:42:01.852Z</time></trkpt><trkpt lat="42.3240266" lon="12.6902029"><ele>375.0</ele><time>2026-05-03T13:42:02.849Z</time></trkpt><trkpt lat="42.3240359" lon="12.6901012"><ele>375.0</ele><time>2026-05-03T13:42:03.851Z</time></trkpt><trkpt lat="42.3240247" lon="12.6899971"><ele>375.0</ele><time>2026-05-03T13:42:04.852Z</time></trkpt><trkpt lat="42.3239387" lon="12.6898566"><ele>375.0</ele><time>2026-05-03T13:42:05.855Z</time></trkpt><trkpt lat="42.3238389" lon="12.6897064"><ele>375.0</ele><time>2026-05-03T13:42:06.853Z</time></trkpt><trkpt lat="42.3237331" lon="12.6895313"><ele>371.6666666666667</ele><time>2026-05-03T13:42:07.855Z</time></trkpt><trkpt lat="42.3236352" lon="12.6893664"><ele>368.33333333333337</ele><time>2026-05-03T13:42:08.853Z</time></trkpt><trkpt lat="42.3235442" lon="12.6891525"><ele>365.0</ele><time>2026-05-03T13:42:09.857Z</time></trkpt><trkpt lat="42.3234433" lon="12.6889261"><ele>365.0</ele><time>2026-05-03T13:42:10.856Z</time></trkpt><trkpt lat="42.3232752" lon="12.6887529"><ele>365.0</ele><time>2026-05-03T13:42:11.853Z</time></trkpt><trkpt lat="42.323085" lon="12.6885789"><ele>365.0</ele><time>2026-05-03T13:42:12.856Z</time></trkpt><trkpt lat="42.3229329" lon="12.6884097"><ele>356.33333333333337</ele><time>2026-05-03T13:42:13.856Z</time></trkpt><trkpt lat="42.3227985" lon="12.6882659"><ele>347.6666666666667</ele><time>2026-05-03T13:42:14.86Z</time></trkpt><trkpt lat="42.3227176" lon="12.6880615"><ele>339.0</ele><time>2026-05-03T13:42:15.86Z</time></trkpt><trkpt lat="42.3226432" lon="12.6878812"><ele>341.3333333333333</ele><time>2026-05-03T13:42:16.866Z</time></trkpt><trkpt lat="42.3225703" lon="12.6876774"><ele>343.66666666666663</ele><time>2026-05-03T13:42:17.863Z</time></trkpt><trkpt lat="42.3225158" lon="12.6874971"><ele>346.0</ele><time>2026-05-03T13:42:18.863Z</time></trkpt><trkpt lat="42.3224622" lon="12.6873023"><ele>346.0</ele><time>2026-05-03T13:42:19.871Z</time></trkpt><trkpt lat="42.322422" lon="12.6870886"><ele>346.0</ele><time>2026-05-03T13:42:20.863Z</time></trkpt><trkpt lat="42.3224075" lon="12.6868833"><ele>346.0</ele><time>2026-05-03T13:42:21.858Z</time></trkpt><trkpt lat="42.3224253" lon="12.6867003"><ele>346.25</ele><time>2026-05-03T13:42:22.867Z</time></trkpt><trkpt lat="42.32244" lon="12.6865111"><ele>346.5</ele><time>2026-05-03T13:42:23.861Z</time></trkpt><trkpt lat="42.3224469" lon="12.6863379"><ele>346.75</ele><time>2026-05-03T13:42:24.866Z</time></trkpt><trkpt lat="42.3224608" lon="12.6861992"><ele>347.0</ele><time>2026-05-03T13:42:25.886Z</time></trkpt><trkpt lat="42.3224847" lon="12.6860923"><ele>345.6</ele><time>2026-05-03T13:42:26.868Z</time></trkpt><trkpt lat="42.3224726" lon="12.6859736"><ele>344.20000000000005</ele><time>2026-05-03T13:42:28.864Z</time></trkpt><trkpt lat="42.3224225" lon="12.6858875"><ele>342.8</ele><time>2026-05-03T13:42:30.868Z</time></trkpt><trkpt lat="42.3223097" lon="12.6857939"><ele>341.4</ele><time>2026-05-03T13:42:32.865Z</time></trkpt><trkpt lat="42.3222232" lon="12.6857361"><ele>340.0</ele><time>2026-05-03T13:42:33.871Z</time></trkpt><trkpt lat="42.3220962" lon="12.6856505"><ele>338.0</ele><time>2026-05-03T13:42:34.864Z</time></trkpt><trkpt lat="42.3219718" lon="12.6855682"><ele>336.0</ele><time>2026-05-03T13:42:35.883Z</time></trkpt><trkpt lat="42.321839" lon="12.6854744"><ele>334.0</ele><time>2026-05-03T13:42:36.86Z</time></trkpt><trkpt lat="42.3216741" lon="12.6853648"><ele>334.0</ele><time>2026-05-03T13:42:37.864Z</time></trkpt><trkpt lat="42.3215401" lon="12.6852898"><ele>334.0</ele><time>2026-05-03T13:42:38.869Z</time></trkpt><trkpt lat="42.3214057" lon="12.6852221"><ele>334.0</ele><time>2026-05-03T13:42:39.88Z</time></trkpt><trkpt lat="42.3212795" lon="12.6851509"><ele>334.0</ele><time>2026-05-03T13:42:40.877Z</time></trkpt><trkpt lat="42.321161" lon="12.6850784"><ele>332.0</ele><time>2026-05-03T13:42:41.876Z</time></trkpt><trkpt lat="42.3210465" lon="12.6850127"><ele>330.0</ele><time>2026-05-03T13:42:42.877Z</time></trkpt><trkpt lat="42.3209407" lon="12.6849571"><ele>328.0</ele><time>2026-05-03T13:42:43.868Z</time></trkpt><trkpt lat="42.3208361" lon="12.6849031"><ele>326.0</ele><time>2026-05-03T13:42:44.872Z</time></trkpt><trkpt lat="42.3207416" lon="12.684846"><ele>326.0</ele><time>2026-05-03T13:42:45.874Z</time></trkpt><trkpt lat="42.3206511" lon="12.6847905"><ele>326.0</ele><time>2026-05-03T13:42:46.87Z</time></trkpt><trkpt lat="42.3205638" lon="12.6847235"><ele>326.0</ele><time>2026-05-03T13:42:47.869Z</time></trkpt><trkpt lat="42.320482" lon="12.6846472"><ele>326.0</ele><time>2026-05-03T13:42:48.874Z</time></trkpt><trkpt lat="42.3204066" lon="12.6845496"><ele>326.0</ele><time>2026-05-03T13:42:49.876Z</time></trkpt><trkpt lat="42.3203278" lon="12.6844508"><ele>323.0</ele><time>2026-05-03T13:42:50.876Z</time></trkpt><trkpt lat="42.3202514" lon="12.6843701"><ele>320.0</ele><time>2026-05-03T13:42:51.872Z</time></trkpt><trkpt lat="42.3201788" lon="12.6843066"><ele>317.0</ele><time>2026-05-03T13:42:52.869Z</time></trkpt><trkpt lat="42.3201223" lon="12.6842654"><ele>314.0</ele><time>2026-05-03T13:42:53.871Z</time></trkpt><trkpt lat="42.320018" lon="12.6842737"><ele>311.0</ele><time>2026-05-03T13:42:55.874Z</time></trkpt><trkpt lat="42.3199544" lon="12.6844066"><ele>310.5</ele><time>2026-05-03T13:42:57.871Z</time></trkpt><trkpt lat="42.3199471" lon="12.6845189"><ele>310.0</ele><time>2026-05-03T13:42:58.87Z</time></trkpt><trkpt lat="42.3199514" lon="12.6846179"><ele>309.5</ele><time>2026-05-03T13:42:59.876Z</time></trkpt><trkpt lat="42.3199615" lon="12.6847047"><ele>309.0</ele><time>2026-05-03T13:43:00.874Z</time></trkpt><trkpt lat="42.3199559" lon="12.6848279"><ele>308.5</ele><time>2026-05-03T13:43:02.867Z</time></trkpt><trkpt lat="42.319932" lon="12.6849304"><ele>308.0</ele><time>2026-05-03T13:43:05.874Z</time></trkpt><trkpt lat="42.3198794" lon="12.6849839"><ele>308.0</ele><time>2026-05-03T13:43:08.865Z</time></trkpt><trkpt lat="42.3198117" lon="12.6849056"><ele>308.0</ele><time>2026-05-03T13:43:09.945Z</time></trkpt><trkpt lat="42.3197504" lon="12.6848412"><ele>308.0</ele><time>2026-05-03T13:43:11.016Z</time></trkpt><trkpt lat="42.3196744" lon="12.6846802"><ele>308.0</ele><time>2026-05-03T13:43:12.024Z</time></trkpt><trkpt lat="42.3195683" lon="12.684514"><ele>299.5</ele><time>2026-05-03T13:43:13.03Z</time></trkpt><trkpt lat="42.3194618" lon="12.684331"><ele>291.0</ele><time>2026-05-03T13:43:14.024Z</time></trkpt><trkpt lat="42.3192753" lon="12.684007"><ele>291.0</ele><time>2026-05-03T13:43:15.888Z</time></trkpt><trkpt lat="42.3192031" lon="12.6838757"><ele>291.0</ele><time>2026-05-03T13:43:16.879Z</time></trkpt><trkpt lat="42.3191373" lon="12.6837388"><ele>291.0</ele><time>2026-05-03T13:43:17.866Z</time></trkpt><trkpt lat="42.3190801" lon="12.6836"><ele>291.0</ele><time>2026-05-03T13:43:18.865Z</time></trkpt><trkpt lat="42.3190145" lon="12.6834792"><ele>291.8</ele><time>2026-05-03T13:43:19.869Z</time></trkpt><trkpt lat="42.3189485" lon="12.6833708"><ele>292.6</ele><time>2026-05-03T13:43:20.87Z</time></trkpt><trkpt lat="42.3188806" lon="12.6832672"><ele>293.4</ele><time>2026-05-03T13:43:21.868Z</time></trkpt><trkpt lat="42.3188235" lon="12.6831462"><ele>294.2</ele><time>2026-05-03T13:43:22.869Z</time></trkpt><trkpt lat="42.3187683" lon="12.6830282"><ele>295.0</ele><time>2026-05-03T13:43:23.863Z</time></trkpt><trkpt lat="42.3187192" lon="12.6829085"><ele>292.4</ele><time>2026-05-03T13:43:24.87Z</time></trkpt><trkpt lat="42.3186714" lon="12.6828039"><ele>289.8</ele><time>2026-05-03T13:43:25.87Z</time></trkpt><trkpt lat="42.3186267" lon="12.6827034"><ele>287.2</ele><time>2026-05-03T13:43:26.87Z</time></trkpt><trkpt lat="42.318587" lon="12.6825977"><ele>284.6</ele><time>2026-05-03T13:43:27.949Z</time></trkpt><trkpt lat="42.3185404" lon="12.6825174"><ele>282.0</ele><time>2026-05-03T13:43:29.03Z</time></trkpt><trkpt lat="42.3184425" lon="12.6823265"><ele>282.0</ele><time>2026-05-03T13:43:30.86Z</time></trkpt><trkpt lat="42.3183873" lon="12.6822294"><ele>282.0</ele><time>2026-05-03T13:43:31.866Z</time></trkpt><trkpt lat="42.3183575" lon="12.6821285"><ele>282.0</ele><time>2026-05-03T13:43:32.862Z</time></trkpt><trkpt lat="42.3183589" lon="12.6820243"><ele>282.0</ele><time>2026-05-03T13:43:33.868Z</time></trkpt><trkpt lat="42.3183848" lon="12.6819072"><ele>282.0</ele><time>2026-05-03T13:43:34.865Z</time></trkpt><trkpt lat="42.318421" lon="12.6818084"><ele>282.0</ele><time>2026-05-03T13:43:35.866Z</time></trkpt><trkpt lat="42.3184492" lon="12.6817147"><ele>281.1666666666667</ele><time>2026-05-03T13:43:36.872Z</time></trkpt><trkpt lat="42.3184729" lon="12.6816347"><ele>280.3333333333333</ele><time>2026-05-03T13:43:37.864Z</time></trkpt><trkpt lat="42.3184947" lon="12.6815519"><ele>279.5</ele><time>2026-05-03T13:43:38.859Z</time></trkpt><trkpt lat="42.3185192" lon="12.6814628"><ele>278.66666666666663</ele><time>2026-05-03T13:43:39.865Z</time></trkpt><trkpt lat="42.3185294" lon="12.6813461"><ele>277.8333333333333</ele><time>2026-05-03T13:43:42.934Z</time></trkpt><trkpt lat="42.3184482" lon="12.6813767"><ele>277.0</ele><time>2026-05-03T13:43:44.873Z</time></trkpt><trkpt lat="42.3183596" lon="12.6815255"><ele>277.0</ele><time>2026-05-03T13:43:46.858Z</time></trkpt><trkpt lat="42.3183191" lon="12.6816571"><ele>277.0</ele><time>2026-05-03T13:43:47.854Z</time></trkpt><trkpt lat="42.3182861" lon="12.6818003"><ele>277.0</ele><time>2026-05-03T13:43:48.859Z</time></trkpt><trkpt lat="42.3182644" lon="12.6819633"><ele>277.0</ele><time>2026-05-03T13:43:49.859Z</time></trkpt><trkpt lat="42.3182275" lon="12.6821294"><ele>277.66666666666663</ele><time>2026-05-03T13:43:50.853Z</time></trkpt><trkpt lat="42.3181948" lon="12.6823423"><ele>278.3333333333333</ele><time>2026-05-03T13:43:51.859Z</time></trkpt><trkpt lat="42.3181411" lon="12.6825634"><ele>279.0</ele><time>2026-05-03T13:43:52.879Z</time></trkpt><trkpt lat="42.3180956" lon="12.682846"><ele>273.3333333333333</ele><time>2026-05-03T13:43:53.855Z</time></trkpt><trkpt lat="42.3180544" lon="12.6830795"><ele>267.66666666666663</ele><time>2026-05-03T13:43:54.859Z</time></trkpt><trkpt lat="42.3180404" lon="12.6832613"><ele>262.0</ele><time>2026-05-03T13:43:55.862Z</time></trkpt><trkpt lat="42.3180082" lon="12.6834424"><ele>262.0</ele><time>2026-05-03T13:43:56.858Z</time></trkpt><trkpt lat="42.3179769" lon="12.6835866"><ele>262.0</ele><time>2026-05-03T13:43:57.858Z</time></trkpt><trkpt lat="42.3178731" lon="12.683683"><ele>262.0</ele><time>2026-05-03T13:43:58.854Z</time></trkpt><trkpt lat="42.3177915" lon="12.6837533"><ele>262.0</ele><time>2026-05-03T13:43:59.859Z</time></trkpt><trkpt lat="42.3176764" lon="12.6838428"><ele>261.0</ele><time>2026-05-03T13:44:00.85Z</time></trkpt><trkpt lat="42.3175491" lon="12.6839064"><ele>260.0</ele><time>2026-05-03T13:44:01.859Z</time></trkpt><trkpt lat="42.3173855" lon="12.6839452"><ele>259.0</ele><time>2026-05-03T13:44:02.891Z</time></trkpt><trkpt lat="42.317198" lon="12.6839621"><ele>262.25</ele><time>2026-05-03T13:44:03.878Z</time></trkpt><trkpt lat="42.3170693" lon="12.6839744"><ele>265.5</ele><time>2026-05-03T13:44:04.86Z</time></trkpt><trkpt lat="42.3169295" lon="12.6839999"><ele>268.75</ele><time>2026-05-03T13:44:05.878Z</time></trkpt><trkpt lat="42.3167954" lon="12.6840219"><ele>272.0</ele><time>2026-05-03T13:44:06.863Z</time></trkpt><trkpt lat="42.3166632" lon="12.6840423"><ele>272.0</ele><time>2026-05-03T13:44:07.862Z</time></trkpt><trkpt lat="42.3165374" lon="12.6840264"><ele>272.0</ele><time>2026-05-03T13:44:08.865Z</time></trkpt><trkpt lat="42.3164491" lon="12.6839758"><ele>272.0</ele><time>2026-05-03T13:44:09.867Z</time></trkpt><trkpt lat="42.3163437" lon="12.6839181"><ele>272.0</ele><time>2026-05-03T13:44:10.857Z</time></trkpt><trkpt lat="42.3162432" lon="12.6838304"><ele>274.75</ele><time>2026-05-03T13:44:11.858Z</time></trkpt><trkpt lat="42.3161453" lon="12.6837096"><ele>277.5</ele><time>2026-05-03T13:44:12.857Z</time></trkpt><trkpt lat="42.3160555" lon="12.6835771"><ele>280.25</ele><time>2026-05-03T13:44:13.853Z</time></trkpt><trkpt lat="42.3159758" lon="12.6833705"><ele>283.0</ele><time>2026-05-03T13:44:14.85Z</time></trkpt><trkpt lat="42.3159374" lon="12.6831475"><ele>283.0</ele><time>2026-05-03T13:44:15.858Z</time></trkpt><trkpt lat="42.3158853" lon="12.6828689"><ele>283.0</ele><time>2026-05-03T13:44:16.86Z</time></trkpt><trkpt lat="42.3158609" lon="12.6825531"><ele>283.0</ele><time>2026-05-03T13:44:17.861Z</time></trkpt><trkpt lat="42.3158459" lon="12.6823131"><ele>280.0</ele><time>2026-05-03T13:44:18.857Z</time></trkpt><trkpt lat="42.3158286" lon="12.6820703"><ele>277.0</ele><time>2026-05-03T13:44:19.862Z</time></trkpt><trkpt lat="42.3157942" lon="12.6818387"><ele>274.0</ele><time>2026-05-03T13:44:20.861Z</time></trkpt><trkpt lat="42.3157638" lon="12.6816057"><ele>272.3333333333333</ele><time>2026-05-03T13:44:22.022Z</time></trkpt><trkpt lat="42.3156994" lon="12.6812141"><ele>270.6666666666667</ele><time>2026-05-03T13:44:23.872Z</time></trkpt><trkpt lat="42.3156924" lon="12.6810704"><ele>269.0</ele><time>2026-05-03T13:44:24.88Z</time></trkpt><trkpt lat="42.3156281" lon="12.6809027"><ele>279.6666666666667</ele><time>2026-05-03T13:44:25.855Z</time></trkpt><trkpt lat="42.3155488" lon="12.6807366"><ele>290.3333333333333</ele><time>2026-05-03T13:44:26.861Z</time></trkpt><trkpt lat="42.3154159" lon="12.6805748"><ele>301.0</ele><time>2026-05-03T13:44:27.855Z</time></trkpt><trkpt lat="42.3153068" lon="12.6804156"><ele>298.5</ele><time>2026-05-03T13:44:28.858Z</time></trkpt><trkpt lat="42.3151952" lon="12.6802379"><ele>296.0</ele><time>2026-05-03T13:44:29.852Z</time></trkpt><trkpt lat="42.3151212" lon="12.6800936"><ele>293.5</ele><time>2026-05-03T13:44:30.862Z</time></trkpt><trkpt lat="42.3150567" lon="12.6799472"><ele>291.0</ele><time>2026-05-03T13:44:31.855Z</time></trkpt><trkpt lat="42.3150067" lon="12.6797804"><ele>291.0</ele><time>2026-05-03T13:44:32.855Z</time></trkpt><trkpt lat="42.3149773" lon="12.6796395"><ele>291.0</ele><time>2026-05-03T13:44:33.856Z</time></trkpt><trkpt lat="42.314934" lon="12.6794854"><ele>291.0</ele><time>2026-05-03T13:44:34.86Z</time></trkpt><trkpt lat="42.3149511" lon="12.6793179"><ele>291.0</ele><time>2026-05-03T13:44:35.855Z</time></trkpt><trkpt lat="42.314942" lon="12.6791271"><ele>287.6666666666667</ele><time>2026-05-03T13:44:36.852Z</time></trkpt><trkpt lat="42.3149538" lon="12.6789108"><ele>284.33333333333337</ele><time>2026-05-03T13:44:37.856Z</time></trkpt><trkpt lat="42.3149595" lon="12.6786946"><ele>281.0</ele><time>2026-05-03T13:44:38.858Z</time></trkpt><trkpt lat="42.3149657" lon="12.6784651"><ele>280.5</ele><time>2026-05-03T13:44:39.858Z</time></trkpt><trkpt lat="42.3149909" lon="12.6782684"><ele>280.0</ele><time>2026-05-03T13:44:40.885Z</time></trkpt><trkpt lat="42.3149715" lon="12.6780767"><ele>279.5</ele><time>2026-05-03T13:44:41.882Z</time></trkpt><trkpt lat="42.3149664" lon="12.677908"><ele>279.0</ele><time>2026-05-03T13:44:42.883Z</time></trkpt><trkpt lat="42.3149897" lon="12.6777528"><ele>277.75</ele><time>2026-05-03T13:44:43.857Z</time></trkpt><trkpt lat="42.3149622" lon="12.6776227"><ele>276.5</ele><time>2026-05-03T13:44:44.85Z</time></trkpt><trkpt lat="42.3149133" lon="12.6774477"><ele>275.25</ele><time>2026-05-03T13:44:45.863Z</time></trkpt><trkpt lat="42.3148904" lon="12.6772871"><ele>274.0</ele><time>2026-05-03T13:44:46.862Z</time></trkpt><trkpt lat="42.3148773" lon="12.6771402"><ele>274.0</ele><time>2026-05-03T13:44:47.861Z</time></trkpt><trkpt lat="42.3148466" lon="12.6769994"><ele>274.0</ele><time>2026-05-03T13:44:48.864Z</time></trkpt><trkpt lat="42.3148038" lon="12.6768648"><ele>274.0</ele><time>2026-05-03T13:44:49.856Z</time></trkpt><trkpt lat="42.3147332" lon="12.6767621"><ele>274.0</ele><time>2026-05-03T13:44:50.866Z</time></trkpt><trkpt lat="42.3146476" lon="12.6766812"><ele>274.0</ele><time>2026-05-03T13:44:51.859Z</time></trkpt><trkpt lat="42.3144999" lon="12.6766773"><ele>273.0</ele><time>2026-05-03T13:44:52.863Z</time></trkpt><trkpt lat="42.3143551" lon="12.6766826"><ele>272.0</ele><time>2026-05-03T13:44:53.876Z</time></trkpt><trkpt lat="42.3141943" lon="12.6767228"><ele>271.0</ele><time>2026-05-03T13:44:54.886Z</time></trkpt><trkpt lat="42.3139901" lon="12.6768262"><ele>270.3333333333333</ele><time>2026-05-03T13:44:55.884Z</time></trkpt><trkpt lat="42.3138392" lon="12.6769274"><ele>269.6666666666667</ele><time>2026-05-03T13:44:56.886Z</time></trkpt><trkpt lat="42.3137163" lon="12.6770127"><ele>269.0</ele><time>2026-05-03T13:44:57.857Z</time></trkpt><trkpt lat="42.3135793" lon="12.6771198"><ele>273.33333333333337</ele><time>2026-05-03T13:44:58.854Z</time></trkpt><trkpt lat="42.3134434" lon="12.6772582"><ele>277.6666666666667</ele><time>2026-05-03T13:44:59.856Z</time></trkpt><trkpt lat="42.3132978" lon="12.6774138"><ele>282.0</ele><time>2026-05-03T13:45:00.862Z</time></trkpt><trkpt lat="42.3131489" lon="12.677577"><ele>282.0</ele><time>2026-05-03T13:45:01.852Z</time></trkpt><trkpt lat="42.3130055" lon="12.6777576"><ele>282.0</ele><time>2026-05-03T13:45:02.863Z</time></trkpt><trkpt lat="42.3128703" lon="12.6779065"><ele>282.0</ele><time>2026-05-03T13:45:03.851Z</time></trkpt><trkpt lat="42.312758" lon="12.6780608"><ele>282.0</ele><time>2026-05-03T13:45:04.853Z</time></trkpt><trkpt lat="42.3126602" lon="12.6782122"><ele>282.0</ele><time>2026-05-03T13:45:05.853Z</time></trkpt><trkpt lat="42.3125469" lon="12.6783299"><ele>282.0</ele><time>2026-05-03T13:45:06.849Z</time></trkpt><trkpt lat="42.3124351" lon="12.6784408"><ele>282.0</ele><time>2026-05-03T13:45:07.849Z</time></trkpt><trkpt lat="42.3123192" lon="12.6785449"><ele>278.6666666666667</ele><time>2026-05-03T13:45:08.845Z</time></trkpt><trkpt lat="42.3121814" lon="12.6786006"><ele>275.33333333333337</ele><time>2026-05-03T13:45:09.857Z</time></trkpt><trkpt lat="42.3120162" lon="12.6786177"><ele>272.0</ele><time>2026-05-03T13:45:10.85Z</time></trkpt><trkpt lat="42.3118355" lon="12.6786194"><ele>276.6666666666667</ele><time>2026-05-03T13:45:11.851Z</time></trkpt><trkpt lat="42.3116618" lon="12.6786516"><ele>281.3333333333333</ele><time>2026-05-03T13:45:12.854Z</time></trkpt><trkpt lat="42.3115091" lon="12.6786841"><ele>286.0</ele><time>2026-05-03T13:45:13.86Z</time></trkpt><trkpt lat="42.3113805" lon="12.6787142"><ele>286.0</ele><time>2026-05-03T13:45:14.859Z</time></trkpt><trkpt lat="42.3112229" lon="12.6787348"><ele>286.0</ele><time>2026-05-03T13:45:15.863Z</time></trkpt><trkpt lat="42.3110877" lon="12.6787784"><ele>286.0</ele><time>2026-05-03T13:45:16.854Z</time></trkpt><trkpt lat="42.3109354" lon="12.6788065"><ele>286.0</ele><time>2026-05-03T13:45:17.858Z</time></trkpt><trkpt lat="42.3107827" lon="12.6788814"><ele>286.0</ele><time>2026-05-03T13:45:18.862Z</time></trkpt><trkpt lat="42.3106218" lon="12.6790041"><ele>286.0</ele><time>2026-05-03T13:45:19.857Z</time></trkpt><trkpt lat="42.3104836" lon="12.679168"><ele>284.66666666666663</ele><time>2026-05-03T13:45:20.887Z</time></trkpt><trkpt lat="42.3103263" lon="12.6793389"><ele>283.3333333333333</ele><time>2026-05-03T13:45:21.858Z</time></trkpt><trkpt lat="42.3101745" lon="12.6794974"><ele>282.0</ele><time>2026-05-03T13:45:22.86Z</time></trkpt><trkpt lat="42.3100014" lon="12.6796624"><ele>282.0</ele><time>2026-05-03T13:45:23.853Z</time></trkpt><trkpt lat="42.3098299" lon="12.6798435"><ele>282.0</ele><time>2026-05-03T13:45:24.861Z</time></trkpt><trkpt lat="42.3096751" lon="12.6800292"><ele>282.0</ele><time>2026-05-03T13:45:25.859Z</time></trkpt><trkpt lat="42.3095332" lon="12.68018"><ele>283.6666666666667</ele><time>2026-05-03T13:45:26.862Z</time></trkpt><trkpt lat="42.3093826" lon="12.6803295"><ele>285.33333333333337</ele><time>2026-05-03T13:45:27.858Z</time></trkpt><trkpt lat="42.309248" lon="12.6804633"><ele>287.0</ele><time>2026-05-03T13:45:28.862Z</time></trkpt><trkpt lat="42.3091168" lon="12.6805978"><ele>287.0</ele><time>2026-05-03T13:45:29.863Z</time></trkpt><trkpt lat="42.3090018" lon="12.6807067"><ele>287.0</ele><time>2026-05-03T13:45:30.856Z</time></trkpt><trkpt lat="42.3088678" lon="12.6807704"><ele>287.0</ele><time>2026-05-03T13:45:31.858Z</time></trkpt><trkpt lat="42.3087264" lon="12.6807953"><ele>287.0</ele><time>2026-05-03T13:45:32.873Z</time></trkpt><trkpt lat="42.3085636" lon="12.6807686"><ele>284.5</ele><time>2026-05-03T13:45:33.871Z</time></trkpt><trkpt lat="42.3084109" lon="12.6807292"><ele>282.0</ele><time>2026-05-03T13:45:34.856Z</time></trkpt><trkpt lat="42.3082777" lon="12.6807101"><ele>279.5</ele><time>2026-05-03T13:45:35.87Z</time></trkpt><trkpt lat="42.308145" lon="12.6806952"><ele>277.0</ele><time>2026-05-03T13:45:36.86Z</time></trkpt><trkpt lat="42.3080016" lon="12.6806794"><ele>273.75</ele><time>2026-05-03T13:45:37.858Z</time></trkpt><trkpt lat="42.3078818" lon="12.6807317"><ele>270.5</ele><time>2026-05-03T13:45:38.864Z</time></trkpt><trkpt lat="42.3077587" lon="12.6808346"><ele>267.25</ele><time>2026-05-03T13:45:39.856Z</time></trkpt><trkpt lat="42.307667" lon="12.6809674"><ele>264.0</ele><time>2026-05-03T13:45:40.853Z</time></trkpt><trkpt lat="42.307558" lon="12.6810952"><ele>260.3333333333333</ele><time>2026-05-03T13:45:41.86Z</time></trkpt><trkpt lat="42.3074372" lon="12.6812311"><ele>256.66666666666663</ele><time>2026-05-03T13:45:42.854Z</time></trkpt><trkpt lat="42.3072787" lon="12.6814467"><ele>253.0</ele><time>2026-05-03T13:45:43.86Z</time></trkpt><trkpt lat="42.3071535" lon="12.6816805"><ele>253.0</ele><time>2026-05-03T13:45:44.857Z</time></trkpt><trkpt lat="42.3069969" lon="12.6818955"><ele>253.0</ele><time>2026-05-03T13:45:45.853Z</time></trkpt><trkpt lat="42.306863" lon="12.6820858"><ele>253.0</ele><time>2026-05-03T13:45:46.854Z</time></trkpt><trkpt lat="42.3067337" lon="12.6822578"><ele>259.0</ele><time>2026-05-03T13:45:47.864Z</time></trkpt><trkpt lat="42.3066244" lon="12.6824298"><ele>265.0</ele><time>2026-05-03T13:45:48.855Z</time></trkpt><trkpt lat="42.3065096" lon="12.6826133"><ele>271.0</ele><time>2026-05-03T13:45:49.86Z</time></trkpt><trkpt lat="42.3063872" lon="12.6827688"><ele>272.75</ele><time>2026-05-03T13:45:50.862Z</time></trkpt><trkpt lat="42.3062502" lon="12.6828881"><ele>274.5</ele><time>2026-05-03T13:45:51.854Z</time></trkpt><trkpt lat="42.3061162" lon="12.6829919"><ele>276.25</ele><time>2026-05-03T13:45:52.875Z</time></trkpt><trkpt lat="42.3060111" lon="12.68309"><ele>278.0</ele><time>2026-05-03T13:45:53.882Z</time></trkpt><trkpt lat="42.3059103" lon="12.6831694"><ele>278.0</ele><time>2026-05-03T13:45:54.865Z</time></trkpt><trkpt lat="42.3057807" lon="12.6832059"><ele>278.0</ele><time>2026-05-03T13:45:55.878Z</time></trkpt><trkpt lat="42.3056274" lon="12.6831933"><ele>278.0</ele><time>2026-05-03T13:45:56.87Z</time></trkpt><trkpt lat="42.3054792" lon="12.6831798"><ele>278.0</ele><time>2026-05-03T13:45:57.885Z</time></trkpt><trkpt lat="42.3053197" lon="12.6831657"><ele>274.6666666666667</ele><time>2026-05-03T13:45:58.88Z</time></trkpt><trkpt lat="42.3051452" lon="12.6831884"><ele>271.3333333333333</ele><time>2026-05-03T13:45:59.864Z</time></trkpt><trkpt lat="42.3049988" lon="12.6832697"><ele>268.0</ele><time>2026-05-03T13:46:00.863Z</time></trkpt><trkpt lat="42.3048514" lon="12.6833863"><ele>266.3333333333333</ele><time>2026-05-03T13:46:01.859Z</time></trkpt><trkpt lat="42.3047119" lon="12.6835267"><ele>264.6666666666667</ele><time>2026-05-03T13:46:02.859Z</time></trkpt><trkpt lat="42.3045705" lon="12.6836864"><ele>263.0</ele><time>2026-05-03T13:46:03.864Z</time></trkpt><trkpt lat="42.3044202" lon="12.6838418"><ele>262.33333333333337</ele><time>2026-05-03T13:46:04.862Z</time></trkpt><trkpt lat="42.3042656" lon="12.6840171"><ele>261.6666666666667</ele><time>2026-05-03T13:46:05.855Z</time></trkpt><trkpt lat="42.3040794" lon="12.6842022"><ele>261.0</ele><time>2026-05-03T13:46:06.866Z</time></trkpt><trkpt lat="42.3038795" lon="12.6844102"><ele>264.0</ele><time>2026-05-03T13:46:07.854Z</time></trkpt><trkpt lat="42.3036955" lon="12.6846113"><ele>267.0</ele><time>2026-05-03T13:46:08.862Z</time></trkpt><trkpt lat="42.3035136" lon="12.6848008"><ele>267.0</ele><time>2026-05-03T13:46:09.86Z</time></trkpt><trkpt lat="42.3033445" lon="12.6849379"><ele>267.0</ele><time>2026-05-03T13:46:10.854Z</time></trkpt><trkpt lat="42.3031689" lon="12.6850793"><ele>267.0</ele><time>2026-05-03T13:46:11.878Z</time></trkpt><trkpt lat="42.3030116" lon="12.6852136"><ele>268.3333333333333</ele><time>2026-05-03T13:46:12.878Z</time></trkpt><trkpt lat="42.3028433" lon="12.6853473"><ele>269.66666666666663</ele><time>2026-05-03T13:46:13.859Z</time></trkpt><trkpt lat="42.3026759" lon="12.6854786"><ele>271.0</ele><time>2026-05-03T13:46:14.852Z</time></trkpt><trkpt lat="42.302521" lon="12.6855586"><ele>271.0</ele><time>2026-05-03T13:46:15.869Z</time></trkpt><trkpt lat="42.3023241" lon="12.6856036"><ele>271.0</ele><time>2026-05-03T13:46:16.861Z</time></trkpt><trkpt lat="42.3021274" lon="12.6856882"><ele>271.0</ele><time>2026-05-03T13:46:17.86Z</time></trkpt><trkpt lat="42.3019559" lon="12.6858012"><ele>271.3333333333333</ele><time>2026-05-03T13:46:18.857Z</time></trkpt><trkpt lat="42.3017958" lon="12.6859197"><ele>271.6666666666667</ele><time>2026-05-03T13:46:19.855Z</time></trkpt><trkpt lat="42.3016374" lon="12.686044"><ele>272.0</ele><time>2026-05-03T13:46:20.87Z</time></trkpt><trkpt lat="42.3015039" lon="12.6861771"><ele>271.5</ele><time>2026-05-03T13:46:21.859Z</time></trkpt><trkpt lat="42.3013789" lon="12.6862873"><ele>271.0</ele><time>2026-05-03T13:46:22.86Z</time></trkpt><trkpt lat="42.3012542" lon="12.6863662"><ele>270.5</ele><time>2026-05-03T13:46:23.859Z</time></trkpt><trkpt lat="42.3011388" lon="12.6864412"><ele>270.0</ele><time>2026-05-03T13:46:24.857Z</time></trkpt><trkpt lat="42.301022" lon="12.6864714"><ele>270.0</ele><time>2026-05-03T13:46:25.856Z</time></trkpt><trkpt lat="42.3008589" lon="12.6864476"><ele>270.0</ele><time>2026-05-03T13:46:26.849Z</time></trkpt><trkpt lat="42.3007119" lon="12.6863969"><ele>270.0</ele><time>2026-05-03T13:46:27.859Z</time></trkpt><trkpt lat="42.3005032" lon="12.6863838"><ele>268.0</ele><time>2026-05-03T13:46:28.858Z</time></trkpt><trkpt lat="42.3002865" lon="12.6863917"><ele>266.0</ele><time>2026-05-03T13:46:29.854Z</time></trkpt><trkpt lat="42.3001047" lon="12.6863956"><ele>264.0</ele><time>2026-05-03T13:46:30.858Z</time></trkpt><trkpt lat="42.2999416" lon="12.6864189"><ele>264.0</ele><time>2026-05-03T13:46:31.856Z</time></trkpt><trkpt lat="42.2997858" lon="12.6864664"><ele>264.0</ele><time>2026-05-03T13:46:32.864Z</time></trkpt><trkpt lat="42.2996268" lon="12.6865249"><ele>264.0</ele><time>2026-05-03T13:46:33.861Z</time></trkpt><trkpt lat="42.2994684" lon="12.6865778"><ele>264.6666666666667</ele><time>2026-05-03T13:46:34.859Z</time></trkpt><trkpt lat="42.2993197" lon="12.686628"><ele>265.33333333333337</ele><time>2026-05-03T13:46:35.857Z</time></trkpt><trkpt lat="42.2991536" lon="12.6866042"><ele>266.0</ele><time>2026-05-03T13:46:36.859Z</time></trkpt><trkpt lat="42.2989869" lon="12.686548"><ele>266.33333333333337</ele><time>2026-05-03T13:46:37.862Z</time></trkpt><trkpt lat="42.2988551" lon="12.6864897"><ele>266.6666666666667</ele><time>2026-05-03T13:46:38.857Z</time></trkpt><trkpt lat="42.298714" lon="12.6864311"><ele>267.0</ele><time>2026-05-03T13:46:39.863Z</time></trkpt><trkpt lat="42.2985548" lon="12.6863541"><ele>267.0</ele><time>2026-05-03T13:46:40.861Z</time></trkpt><trkpt lat="42.2984201" lon="12.6862368"><ele>267.0</ele><time>2026-05-03T13:46:41.862Z</time></trkpt><trkpt lat="42.298268" lon="12.6860847"><ele>267.0</ele><time>2026-05-03T13:46:42.864Z</time></trkpt><trkpt lat="42.2981092" lon="12.6859064"><ele>267.3333333333333</ele><time>2026-05-03T13:46:43.863Z</time></trkpt><trkpt lat="42.2979296" lon="12.6857207"><ele>267.66666666666663</ele><time>2026-05-03T13:46:44.873Z</time></trkpt><trkpt lat="42.2977649" lon="12.6855231"><ele>268.0</ele><time>2026-05-03T13:46:45.861Z</time></trkpt><trkpt lat="42.2976056" lon="12.6853482"><ele>268.0</ele><time>2026-05-03T13:46:46.886Z</time></trkpt><trkpt lat="42.2974741" lon="12.6852079"><ele>268.0</ele><time>2026-05-03T13:46:47.891Z</time></trkpt><trkpt lat="42.2973572" lon="12.685079"><ele>268.0</ele><time>2026-05-03T13:46:48.864Z</time></trkpt><trkpt lat="42.297237" lon="12.6849557"><ele>268.0</ele><time>2026-05-03T13:46:49.866Z</time></trkpt><trkpt lat="42.2971191" lon="12.6848451"><ele>268.0</ele><time>2026-05-03T13:46:50.87Z</time></trkpt><trkpt lat="42.2970202" lon="12.6847639"><ele>268.0</ele><time>2026-05-03T13:46:51.864Z</time></trkpt><trkpt lat="42.2969305" lon="12.6847306"><ele>268.0</ele><time>2026-05-03T13:46:52.866Z</time></trkpt><trkpt lat="42.2968131" lon="12.6847417"><ele>268.0</ele><time>2026-05-03T13:46:53.863Z</time></trkpt><trkpt lat="42.2967015" lon="12.6847718"><ele>268.0</ele><time>2026-05-03T13:46:54.861Z</time></trkpt><trkpt lat="42.2965916" lon="12.684864"><ele>268.0</ele><time>2026-05-03T13:46:55.861Z</time></trkpt><trkpt lat="42.2964963" lon="12.6849822"><ele>268.0</ele><time>2026-05-03T13:46:56.853Z</time></trkpt><trkpt lat="42.2963629" lon="12.6851049"><ele>266.3333333333333</ele><time>2026-05-03T13:46:57.849Z</time></trkpt><trkpt lat="42.2962599" lon="12.6853209"><ele>264.6666666666667</ele><time>2026-05-03T13:46:58.849Z</time></trkpt><trkpt lat="42.2961566" lon="12.6855274"><ele>263.0</ele><time>2026-05-03T13:46:59.873Z</time></trkpt><trkpt lat="42.2960344" lon="12.6857887"><ele>263.0</ele><time>2026-05-03T13:47:00.85Z</time></trkpt><trkpt lat="42.2959465" lon="12.6860367"><ele>263.0</ele><time>2026-05-03T13:47:01.873Z</time></trkpt><trkpt lat="42.2958583" lon="12.6862233"><ele>263.0</ele><time>2026-05-03T13:47:02.876Z</time></trkpt><trkpt lat="42.2957644" lon="12.6864254"><ele>263.6666666666667</ele><time>2026-05-03T13:47:03.856Z</time></trkpt><trkpt lat="42.2956601" lon="12.686568"><ele>264.3333333333333</ele><time>2026-05-03T13:47:04.858Z</time></trkpt><trkpt lat="42.295517" lon="12.6866644"><ele>265.0</ele><time>2026-05-03T13:47:05.862Z</time></trkpt><trkpt lat="42.2953455" lon="12.6867807"><ele>265.0</ele><time>2026-05-03T13:47:06.851Z</time></trkpt><trkpt lat="42.2951506" lon="12.6868511"><ele>265.0</ele><time>2026-05-03T13:47:07.859Z</time></trkpt><trkpt lat="42.2949419" lon="12.6868902"><ele>265.0</ele><time>2026-05-03T13:47:08.858Z</time></trkpt><trkpt lat="42.2947193" lon="12.6869578"><ele>268.66666666666663</ele><time>2026-05-03T13:47:09.859Z</time></trkpt><trkpt lat="42.2945206" lon="12.686992"><ele>272.3333333333333</ele><time>2026-05-03T13:47:10.858Z</time></trkpt><trkpt lat="42.2943485" lon="12.6869964"><ele>276.0</ele><time>2026-05-03T13:47:11.863Z</time></trkpt><trkpt lat="42.2941973" lon="12.6870201"><ele>276.0</ele><time>2026-05-03T13:47:12.866Z</time></trkpt><trkpt lat="42.2940676" lon="12.6870654"><ele>276.0</ele><time>2026-05-03T13:47:13.856Z</time></trkpt><trkpt lat="42.293951" lon="12.6871322"><ele>276.0</ele><time>2026-05-03T13:47:14.863Z</time></trkpt><trkpt lat="42.29383" lon="12.6872465"><ele>276.0</ele><time>2026-05-03T13:47:15.865Z</time></trkpt><trkpt lat="42.2936937" lon="12.6873906"><ele>275.3333333333333</ele><time>2026-05-03T13:47:16.857Z</time></trkpt><trkpt lat="42.2935424" lon="12.6875725"><ele>274.66666666666663</ele><time>2026-05-03T13:47:17.856Z</time></trkpt><trkpt lat="42.2933743" lon="12.6877703"><ele>274.0</ele><time>2026-05-03T13:47:18.86Z</time></trkpt><trkpt lat="42.2932003" lon="12.6879803"><ele>269.3333333333333</ele><time>2026-05-03T13:47:19.859Z</time></trkpt><trkpt lat="42.2930347" lon="12.6881673"><ele>264.6666666666667</ele><time>2026-05-03T13:47:20.876Z</time></trkpt><trkpt lat="42.2928701" lon="12.6883258"><ele>260.0</ele><time>2026-05-03T13:47:21.87Z</time></trkpt><trkpt lat="42.2927188" lon="12.6884863"><ele>264.33333333333337</ele><time>2026-05-03T13:47:22.865Z</time></trkpt><trkpt lat="42.2925786" lon="12.6886467"><ele>268.6666666666667</ele><time>2026-05-03T13:47:23.87Z</time></trkpt><trkpt lat="42.2924332" lon="12.6887958"><ele>273.0</ele><time>2026-05-03T13:47:24.866Z</time></trkpt><trkpt lat="42.2922915" lon="12.6889677"><ele>270.6666666666667</ele><time>2026-05-03T13:47:25.87Z</time></trkpt><trkpt lat="42.2921668" lon="12.6891078"><ele>268.33333333333337</ele><time>2026-05-03T13:47:26.863Z</time></trkpt><trkpt lat="42.2920592" lon="12.6892716"><ele>266.0</ele><time>2026-05-03T13:47:27.862Z</time></trkpt><trkpt lat="42.2919524" lon="12.6894665"><ele>266.0</ele><time>2026-05-03T13:47:28.862Z</time></trkpt><trkpt lat="42.2918579" lon="12.6897134"><ele>266.0</ele><time>2026-05-03T13:47:29.865Z</time></trkpt><trkpt lat="42.2917513" lon="12.6899474"><ele>266.0</ele><time>2026-05-03T13:47:30.855Z</time></trkpt><trkpt lat="42.2916594" lon="12.690151"><ele>265.0</ele><time>2026-05-03T13:47:31.865Z</time></trkpt><trkpt lat="42.2915605" lon="12.690341"><ele>264.0</ele><time>2026-05-03T13:47:32.855Z</time></trkpt><trkpt lat="42.2914783" lon="12.6905272"><ele>263.0</ele><time>2026-05-03T13:47:33.86Z</time></trkpt><trkpt lat="42.2913992" lon="12.6906894"><ele>263.0</ele><time>2026-05-03T13:47:34.861Z</time></trkpt><trkpt lat="42.2913203" lon="12.690797"><ele>263.0</ele><time>2026-05-03T13:47:35.858Z</time></trkpt><trkpt lat="42.2912032" lon="12.6909155"><ele>263.0</ele><time>2026-05-03T13:47:36.856Z</time></trkpt><trkpt lat="42.2910452" lon="12.6910489"><ele>263.0</ele><time>2026-05-03T13:47:37.857Z</time></trkpt><trkpt lat="42.2908854" lon="12.6911466"><ele>267.5</ele><time>2026-05-03T13:47:38.87Z</time></trkpt><trkpt lat="42.2907514" lon="12.6912475"><ele>272.0</ele><time>2026-05-03T13:47:39.861Z</time></trkpt><trkpt lat="42.2906393" lon="12.6913238"><ele>276.5</ele><time>2026-05-03T13:47:40.883Z</time></trkpt><trkpt lat="42.2905179" lon="12.691403"><ele>281.0</ele><time>2026-05-03T13:47:41.858Z</time></trkpt><trkpt lat="42.2904235" lon="12.6914637"><ele>281.0</ele><time>2026-05-03T13:47:42.861Z</time></trkpt><trkpt lat="42.2903348" lon="12.6914946"><ele>281.0</ele><time>2026-05-03T13:47:43.879Z</time></trkpt><trkpt lat="42.2902228" lon="12.6915036"><ele>281.0</ele><time>2026-05-03T13:47:44.856Z</time></trkpt><trkpt lat="42.2901088" lon="12.6914489"><ele>281.0</ele><time>2026-05-03T13:47:45.86Z</time></trkpt><trkpt lat="42.2899901" lon="12.6913902"><ele>281.0</ele><time>2026-05-03T13:47:46.868Z</time></trkpt><trkpt lat="42.2899286" lon="12.6913157"><ele>281.0</ele><time>2026-05-03T13:47:47.868Z</time></trkpt><trkpt lat="42.2898896" lon="12.6912191"><ele>281.0</ele><time>2026-05-03T13:47:48.893Z</time></trkpt><trkpt lat="42.2898639" lon="12.6910863"><ele>281.0</ele><time>2026-05-03T13:47:49.874Z</time></trkpt><trkpt lat="42.2898535" lon="12.6909063"><ele>281.0</ele><time>2026-05-03T13:47:50.867Z</time></trkpt><trkpt lat="42.2898366" lon="12.6907006"><ele>278.6666666666667</ele><time>2026-05-03T13:47:51.868Z</time></trkpt><trkpt lat="42.2898343" lon="12.6904147"><ele>276.3333333333333</ele><time>2026-05-03T13:47:52.863Z</time></trkpt><trkpt lat="42.2898211" lon="12.6901389"><ele>274.0</ele><time>2026-05-03T13:47:53.86Z</time></trkpt><trkpt lat="42.2897868" lon="12.6899068"><ele>273.59999999999997</ele><time>2026-05-03T13:47:54.859Z</time></trkpt><trkpt lat="42.2897732" lon="12.6897343"><ele>273.2</ele><time>2026-05-03T13:47:55.864Z</time></trkpt><trkpt lat="42.2897487" lon="12.6896003"><ele>272.79999999999995</ele><time>2026-05-03T13:47:56.89Z</time></trkpt><trkpt lat="42.2897264" lon="12.6894789"><ele>272.4</ele><time>2026-05-03T13:47:57.865Z</time></trkpt><trkpt lat="42.2896982" lon="12.6893473"><ele>272.0</ele><time>2026-05-03T13:47:59.877Z</time></trkpt><trkpt lat="42.2896339" lon="12.6892659"><ele>277.5</ele><time>2026-05-03T13:48:01.874Z</time></trkpt><trkpt lat="42.2895343" lon="12.6893486"><ele>283.0</ele><time>2026-05-03T13:48:03.85Z</time></trkpt><trkpt lat="42.2894894" lon="12.6894619"><ele>288.5</ele><time>2026-05-03T13:48:04.854Z</time></trkpt><trkpt lat="42.2894557" lon="12.689633"><ele>294.0</ele><time>2026-05-03T13:48:05.848Z</time></trkpt><trkpt lat="42.2894048" lon="12.6898202"><ele>295.6666666666667</ele><time>2026-05-03T13:48:06.847Z</time></trkpt><trkpt lat="42.2893716" lon="12.6900199"><ele>297.33333333333337</ele><time>2026-05-03T13:48:07.854Z</time></trkpt><trkpt lat="42.2893285" lon="12.6902277"><ele>299.0</ele><time>2026-05-03T13:48:08.844Z</time></trkpt><trkpt lat="42.2893099" lon="12.6904242"><ele>301.0</ele><time>2026-05-03T13:48:09.847Z</time></trkpt><trkpt lat="42.2893053" lon="12.6906719"><ele>303.0</ele><time>2026-05-03T13:48:10.847Z</time></trkpt><trkpt lat="42.2893964" lon="12.6909496"><ele>305.0</ele><time>2026-05-03T13:48:11.85Z</time></trkpt><trkpt lat="42.2895152" lon="12.6911823"><ele>305.75</ele><time>2026-05-03T13:48:12.85Z</time></trkpt><trkpt lat="42.2895456" lon="12.6914005"><ele>306.5</ele><time>2026-05-03T13:48:13.854Z</time></trkpt><trkpt lat="42.2895603" lon="12.6915595"><ele>307.25</ele><time>2026-05-03T13:48:14.849Z</time></trkpt><trkpt lat="42.2895467" lon="12.6916762"><ele>308.0</ele><time>2026-05-03T13:48:16.012Z</time></trkpt><trkpt lat="42.2894882" lon="12.6918007"><ele>309.75</ele><time>2026-05-03T13:48:17.005Z</time></trkpt><trkpt lat="42.2894017" lon="12.6920373"><ele>311.5</ele><time>2026-05-03T13:48:18.928Z</time></trkpt><trkpt lat="42.2893798" lon="12.6921343"><ele>313.25</ele><time>2026-05-03T13:48:20.323Z</time></trkpt><trkpt lat="42.2893758" lon="12.6922362"><ele>315.0</ele><time>2026-05-03T13:48:21.328Z</time></trkpt><trkpt lat="42.2893495" lon="12.6923739"><ele>315.0</ele><time>2026-05-03T13:48:23.008Z</time></trkpt><trkpt lat="42.2893886" lon="12.6921816"><ele>315.0</ele><time>2026-05-03T13:48:27.854Z</time></trkpt><trkpt lat="42.2894019" lon="12.6920898"><ele>315.0</ele><time>2026-05-03T13:48:28.876Z</time></trkpt><trkpt lat="42.2893991" lon="12.6919767"><ele>315.0</ele><time>2026-05-03T13:48:29.854Z</time></trkpt><trkpt lat="42.2894055" lon="12.691836"><ele>315.0</ele><time>2026-05-03T13:48:30.847Z</time></trkpt><trkpt lat="42.2894171" lon="12.6916969"><ele>313.6</ele><time>2026-05-03T13:48:31.85Z</time></trkpt><trkpt lat="42.2894442" lon="12.6915641"><ele>312.2</ele><time>2026-05-03T13:48:32.856Z</time></trkpt><trkpt lat="42.2894719" lon="12.6914246"><ele>310.8</ele><time>2026-05-03T13:48:33.877Z</time></trkpt><trkpt lat="42.2895114" lon="12.6912842"><ele>309.4</ele><time>2026-05-03T13:48:34.858Z</time></trkpt><trkpt lat="42.2895623" lon="12.691148"><ele>308.0</ele><time>2026-05-03T13:48:35.878Z</time></trkpt><trkpt lat="42.2895752" lon="12.690997"><ele>307.4</ele><time>2026-05-03T13:48:36.85Z</time></trkpt><trkpt lat="42.2895884" lon="12.6908537"><ele>306.8</ele><time>2026-05-03T13:48:37.853Z</time></trkpt><trkpt lat="42.289596" lon="12.6907096"><ele>306.2</ele><time>2026-05-03T13:48:38.854Z</time></trkpt><trkpt lat="42.2895901" lon="12.6905649"><ele>305.6</ele><time>2026-05-03T13:48:39.855Z</time></trkpt><trkpt lat="42.289584" lon="12.690423"><ele>305.0</ele><time>2026-05-03T13:48:40.855Z</time></trkpt><trkpt lat="42.2895859" lon="12.6902821"><ele>303.8</ele><time>2026-05-03T13:48:41.853Z</time></trkpt><trkpt lat="42.2895713" lon="12.690149"><ele>302.6</ele><time>2026-05-03T13:48:42.854Z</time></trkpt><trkpt lat="42.2895652" lon="12.6900156"><ele>301.4</ele><time>2026-05-03T13:48:43.852Z</time></trkpt><trkpt lat="42.2895568" lon="12.6898829"><ele>300.2</ele><time>2026-05-03T13:48:44.852Z</time></trkpt><trkpt lat="42.289556" lon="12.689758"><ele>299.0</ele><time>2026-05-03T13:48:45.859Z</time></trkpt><trkpt lat="42.2895427" lon="12.6896467"><ele>299.0</ele><time>2026-05-03T13:48:46.882Z</time></trkpt><trkpt lat="42.2895446" lon="12.6895598"><ele>299.0</ele><time>2026-05-03T13:48:47.856Z</time></trkpt><trkpt lat="42.2895918" lon="12.6894734"><ele>299.0</ele><time>2026-05-03T13:48:49.855Z</time></trkpt><trkpt lat="42.2897308" lon="12.6894513"><ele>299.0</ele><time>2026-05-03T13:48:53.849Z</time></trkpt><trkpt lat="42.2897887" lon="12.6892846"><ele>299.0</ele><time>2026-05-03T13:48:55.851Z</time></trkpt><trkpt lat="42.2897821" lon="12.6891574"><ele>296.2</ele><time>2026-05-03T13:48:56.858Z</time></trkpt><trkpt lat="42.2897667" lon="12.6890334"><ele>293.4</ele><time>2026-05-03T13:48:57.842Z</time></trkpt><trkpt lat="42.2897615" lon="12.6888999"><ele>290.6</ele><time>2026-05-03T13:48:58.849Z</time></trkpt><trkpt lat="42.2897621" lon="12.6887402"><ele>287.8</ele><time>2026-05-03T13:48:59.842Z</time></trkpt><trkpt lat="42.2897559" lon="12.6885749"><ele>285.0</ele><time>2026-05-03T13:49:00.845Z</time></trkpt><trkpt lat="42.2897359" lon="12.6884184"><ele>285.0</ele><time>2026-05-03T13:49:01.849Z</time></trkpt><trkpt lat="42.2897228" lon="12.6882776"><ele>285.0</ele><time>2026-05-03T13:49:02.853Z</time></trkpt><trkpt lat="42.2896952" lon="12.6881401"><ele>285.0</ele><time>2026-05-03T13:49:03.849Z</time></trkpt><trkpt lat="42.2896574" lon="12.6880101"><ele>285.0</ele><time>2026-05-03T13:49:04.853Z</time></trkpt><trkpt lat="42.2895818" lon="12.6879035"><ele>285.0</ele><time>2026-05-03T13:49:05.853Z</time></trkpt><trkpt lat="42.2894969" lon="12.6878135"><ele>285.0</ele><time>2026-05-03T13:49:06.849Z</time></trkpt><trkpt lat="42.2893974" lon="12.6877623"><ele>285.0</ele><time>2026-05-03T13:49:07.85Z</time></trkpt><trkpt lat="42.2892858" lon="12.6877344"><ele>285.0</ele><time>2026-05-03T13:49:08.854Z</time></trkpt><trkpt lat="42.2891619" lon="12.6877469"><ele>285.0</ele><time>2026-05-03T13:49:09.86Z</time></trkpt><trkpt lat="42.2890189" lon="12.68778"><ele>283.0</ele><time>2026-05-03T13:49:10.857Z</time></trkpt><trkpt lat="42.2888757" lon="12.6878349"><ele>281.0</ele><time>2026-05-03T13:49:11.857Z</time></trkpt><trkpt lat="42.2886798" lon="12.6879223"><ele>279.0</ele><time>2026-05-03T13:49:12.856Z</time></trkpt><trkpt lat="42.2884919" lon="12.6880133"><ele>279.0</ele><time>2026-05-03T13:49:13.859Z</time></trkpt><trkpt lat="42.2882752" lon="12.6880934"><ele>279.0</ele><time>2026-05-03T13:49:14.848Z</time></trkpt><trkpt lat="42.2880621" lon="12.6881527"><ele>279.0</ele><time>2026-05-03T13:49:15.858Z</time></trkpt><trkpt lat="42.287855" lon="12.6881723"><ele>279.3333333333333</ele><time>2026-05-03T13:49:16.848Z</time></trkpt><trkpt lat="42.28767" lon="12.6881956"><ele>279.66666666666663</ele><time>2026-05-03T13:49:17.857Z</time></trkpt><trkpt lat="42.2874896" lon="12.6882265"><ele>280.0</ele><time>2026-05-03T13:49:18.856Z</time></trkpt><trkpt lat="42.2873265" lon="12.6882605"><ele>279.0</ele><time>2026-05-03T13:49:19.858Z</time></trkpt><trkpt lat="42.2871562" lon="12.6882853"><ele>278.0</ele><time>2026-05-03T13:49:20.849Z</time></trkpt><trkpt lat="42.2870006" lon="12.6882997"><ele>277.0</ele><time>2026-05-03T13:49:21.858Z</time></trkpt><trkpt lat="42.2868642" lon="12.6883179"><ele>277.0</ele><time>2026-05-03T13:49:22.857Z</time></trkpt><trkpt lat="42.2867455" lon="12.6883574"><ele>277.0</ele><time>2026-05-03T13:49:23.852Z</time></trkpt><trkpt lat="42.2866339" lon="12.6883853"><ele>277.0</ele><time>2026-05-03T13:49:24.856Z</time></trkpt><trkpt lat="42.2864979" lon="12.6884151"><ele>277.0</ele><time>2026-05-03T13:49:25.865Z</time></trkpt><trkpt lat="42.2863859" lon="12.6884766"><ele>274.25</ele><time>2026-05-03T13:49:26.878Z</time></trkpt><trkpt lat="42.2863143" lon="12.6885832"><ele>271.5</ele><time>2026-05-03T13:49:27.9Z</time></trkpt><trkpt lat="42.2862625" lon="12.6887109"><ele>268.75</ele><time>2026-05-03T13:49:28.884Z</time></trkpt><trkpt lat="42.2862432" lon="12.6888671"><ele>266.0</ele><time>2026-05-03T13:49:29.861Z</time></trkpt><trkpt lat="42.2862592" lon="12.6890463"><ele>266.0</ele><time>2026-05-03T13:49:30.864Z</time></trkpt><trkpt lat="42.2863225" lon="12.6892526"><ele>266.0</ele><time>2026-05-03T13:49:31.86Z</time></trkpt><trkpt lat="42.2864267" lon="12.689479"><ele>266.0</ele><time>2026-05-03T13:49:32.861Z</time></trkpt><trkpt lat="42.286505" lon="12.6897194"><ele>272.0</ele><time>2026-05-03T13:49:33.856Z</time></trkpt><trkpt lat="42.2865525" lon="12.6899777"><ele>278.0</ele><time>2026-05-03T13:49:34.853Z</time></trkpt><trkpt lat="42.28659" lon="12.6901786"><ele>284.0</ele><time>2026-05-03T13:49:35.857Z</time></trkpt><trkpt lat="42.2866451" lon="12.6903749"><ele>284.0</ele><time>2026-05-03T13:49:36.857Z</time></trkpt><trkpt lat="42.2866777" lon="12.6905841"><ele>284.0</ele><time>2026-05-03T13:49:37.849Z</time></trkpt><trkpt lat="42.2866808" lon="12.6908149"><ele>284.0</ele><time>2026-05-03T13:49:38.854Z</time></trkpt><trkpt lat="42.2866864" lon="12.691008"><ele>283.75</ele><time>2026-05-03T13:49:39.854Z</time></trkpt><trkpt lat="42.2866959" lon="12.6912251"><ele>283.5</ele><time>2026-05-03T13:49:40.855Z</time></trkpt><trkpt lat="42.2867086" lon="12.6914325"><ele>283.25</ele><time>2026-05-03T13:49:41.857Z</time></trkpt><trkpt lat="42.2867202" lon="12.6916048"><ele>283.0</ele><time>2026-05-03T13:49:42.86Z</time></trkpt><trkpt lat="42.2867445" lon="12.6917723"><ele>284.3333333333333</ele><time>2026-05-03T13:49:43.854Z</time></trkpt><trkpt lat="42.286743" lon="12.6919674"><ele>285.6666666666667</ele><time>2026-05-03T13:49:44.866Z</time></trkpt><trkpt lat="42.2867356" lon="12.692178"><ele>287.0</ele><time>2026-05-03T13:49:45.855Z</time></trkpt><trkpt lat="42.2866883" lon="12.6923819"><ele>287.0</ele><time>2026-05-03T13:49:46.87Z</time></trkpt><trkpt lat="42.2866054" lon="12.6925715"><ele>287.0</ele><time>2026-05-03T13:49:47.857Z</time></trkpt><trkpt lat="42.286485" lon="12.6927375"><ele>287.0</ele><time>2026-05-03T13:49:48.846Z</time></trkpt><trkpt lat="42.2863924" lon="12.6929081"><ele>286.75</ele><time>2026-05-03T13:49:49.851Z</time></trkpt><trkpt lat="42.2863182" lon="12.6930507"><ele>286.5</ele><time>2026-05-03T13:49:50.85Z</time></trkpt><trkpt lat="42.2862051" lon="12.6932197"><ele>286.25</ele><time>2026-05-03T13:49:51.85Z</time></trkpt><trkpt lat="42.2860773" lon="12.6932919"><ele>286.0</ele><time>2026-05-03T13:49:52.852Z</time></trkpt><trkpt lat="42.2859394" lon="12.69334"><ele>286.0</ele><time>2026-05-03T13:49:53.854Z</time></trkpt><trkpt lat="42.2858044" lon="12.6933751"><ele>286.0</ele><time>2026-05-03T13:49:54.856Z</time></trkpt><trkpt lat="42.2856432" lon="12.6933599"><ele>286.0</ele><time>2026-05-03T13:49:55.857Z</time></trkpt><trkpt lat="42.2854503" lon="12.6933324"><ele>285.3333333333333</ele><time>2026-05-03T13:49:56.86Z</time></trkpt><trkpt lat="42.2852631" lon="12.6933349"><ele>284.6666666666667</ele><time>2026-05-03T13:49:57.866Z</time></trkpt><trkpt lat="42.2850747" lon="12.693332"><ele>284.0</ele><time>2026-05-03T13:49:58.858Z</time></trkpt><trkpt lat="42.2849041" lon="12.6933068"><ele>283.0</ele><time>2026-05-03T13:49:59.853Z</time></trkpt><trkpt lat="42.2847385" lon="12.6932972"><ele>282.0</ele><time>2026-05-03T13:50:00.861Z</time></trkpt><trkpt lat="42.2845836" lon="12.6933131"><ele>281.0</ele><time>2026-05-03T13:50:01.859Z</time></trkpt><trkpt lat="42.2844187" lon="12.6933961"><ele>281.0</ele><time>2026-05-03T13:50:02.865Z</time></trkpt><trkpt lat="42.2842458" lon="12.6935194"><ele>281.0</ele><time>2026-05-03T13:50:03.848Z</time></trkpt><trkpt lat="42.2840634" lon="12.6936505"><ele>281.0</ele><time>2026-05-03T13:50:04.876Z</time></trkpt><trkpt lat="42.2838951" lon="12.6937841"><ele>283.33333333333337</ele><time>2026-05-03T13:50:05.848Z</time></trkpt><trkpt lat="42.2837375" lon="12.6939255"><ele>285.6666666666667</ele><time>2026-05-03T13:50:06.852Z</time></trkpt><trkpt lat="42.2835903" lon="12.6940641"><ele>288.0</ele><time>2026-05-03T13:50:07.854Z</time></trkpt><trkpt lat="42.2834448" lon="12.6941841"><ele>288.0</ele><time>2026-05-03T13:50:08.849Z</time></trkpt><trkpt lat="42.2833086" lon="12.6942768"><ele>288.0</ele><time>2026-05-03T13:50:09.854Z</time></trkpt><trkpt lat="42.2831497" lon="12.6943448"><ele>288.0</ele><time>2026-05-03T13:50:10.849Z</time></trkpt><trkpt lat="42.2829828" lon="12.6944216"><ele>290.6666666666667</ele><time>2026-05-03T13:50:11.848Z</time></trkpt><trkpt lat="42.2828121" lon="12.6944413"><ele>293.33333333333337</ele><time>2026-05-03T13:50:12.853Z</time></trkpt><trkpt lat="42.282632" lon="12.6944634"><ele>296.0</ele><time>2026-05-03T13:50:13.856Z</time></trkpt><trkpt lat="42.2824389" lon="12.6944806"><ele>294.6666666666667</ele><time>2026-05-03T13:50:14.858Z</time></trkpt><trkpt lat="42.2822297" lon="12.6945473"><ele>293.3333333333333</ele><time>2026-05-03T13:50:15.852Z</time></trkpt><trkpt lat="42.2820068" lon="12.6945798"><ele>292.0</ele><time>2026-05-03T13:50:16.858Z</time></trkpt><trkpt lat="42.281808" lon="12.6946029"><ele>292.0</ele><time>2026-05-03T13:50:17.862Z</time></trkpt><trkpt lat="42.2816238" lon="12.694638"><ele>292.0</ele><time>2026-05-03T13:50:18.858Z</time></trkpt><trkpt lat="42.2814557" lon="12.69468"><ele>292.0</ele><time>2026-05-03T13:50:19.862Z</time></trkpt><trkpt lat="42.2812941" lon="12.6947271"><ele>292.0</ele><time>2026-05-03T13:50:20.861Z</time></trkpt><trkpt lat="42.2811401" lon="12.6947467"><ele>292.0</ele><time>2026-05-03T13:50:21.855Z</time></trkpt><trkpt lat="42.2809806" lon="12.6947743"><ele>292.0</ele><time>2026-05-03T13:50:22.852Z</time></trkpt><trkpt lat="42.2808187" lon="12.6947996"><ele>292.0</ele><time>2026-05-03T13:50:23.86Z</time></trkpt><trkpt lat="42.2806607" lon="12.6948102"><ele>292.0</ele><time>2026-05-03T13:50:24.855Z</time></trkpt><trkpt lat="42.2805147" lon="12.6948412"><ele>292.0</ele><time>2026-05-03T13:50:25.881Z</time></trkpt><trkpt lat="42.2803665" lon="12.6948044"><ele>294.0</ele><time>2026-05-03T13:50:26.858Z</time></trkpt><trkpt lat="42.2801917" lon="12.694742"><ele>296.0</ele><time>2026-05-03T13:50:27.881Z</time></trkpt><trkpt lat="42.2800071" lon="12.6946741"><ele>298.0</ele><time>2026-05-03T13:50:28.859Z</time></trkpt><trkpt lat="42.279815" lon="12.6945797"><ele>299.66666666666663</ele><time>2026-05-03T13:50:29.852Z</time></trkpt><trkpt lat="42.2796713" lon="12.6944874"><ele>301.3333333333333</ele><time>2026-05-03T13:50:30.86Z</time></trkpt><trkpt lat="42.2795117" lon="12.6944003"><ele>303.0</ele><time>2026-05-03T13:50:31.858Z</time></trkpt><trkpt lat="42.279342" lon="12.6943562"><ele>302.25</ele><time>2026-05-03T13:50:32.855Z</time></trkpt><trkpt lat="42.2792092" lon="12.6943119"><ele>301.5</ele><time>2026-05-03T13:50:33.854Z</time></trkpt><trkpt lat="42.2790737" lon="12.6942369"><ele>300.75</ele><time>2026-05-03T13:50:34.859Z</time></trkpt><trkpt lat="42.2789771" lon="12.6941953"><ele>300.0</ele><time>2026-05-03T13:50:35.86Z</time></trkpt><trkpt lat="42.2789095" lon="12.6940712"><ele>300.0</ele><time>2026-05-03T13:50:36.855Z</time></trkpt><trkpt lat="42.278821" lon="12.6940146"><ele>300.0</ele><time>2026-05-03T13:50:37.859Z</time></trkpt><trkpt lat="42.2787454" lon="12.6939372"><ele>300.0</ele><time>2026-05-03T13:50:38.867Z</time></trkpt><trkpt lat="42.2787012" lon="12.6938413"><ele>300.0</ele><time>2026-05-03T13:50:39.874Z</time></trkpt><trkpt lat="42.2786498" lon="12.6937216"><ele>300.0</ele><time>2026-05-03T13:50:40.876Z</time></trkpt><trkpt lat="42.2786672" lon="12.6935894"><ele>300.5</ele><time>2026-05-03T13:50:41.861Z</time></trkpt><trkpt lat="42.2786878" lon="12.6934584"><ele>301.0</ele><time>2026-05-03T13:50:42.862Z</time></trkpt><trkpt lat="42.2787455" lon="12.6933007"><ele>301.5</ele><time>2026-05-03T13:50:43.856Z</time></trkpt><trkpt lat="42.278806" lon="12.6931171"><ele>302.0</ele><time>2026-05-03T13:50:44.859Z</time></trkpt><trkpt lat="42.2788761" lon="12.6929307"><ele>296.75</ele><time>2026-05-03T13:50:45.885Z</time></trkpt><trkpt lat="42.2789631" lon="12.6927183"><ele>291.5</ele><time>2026-05-03T13:50:46.861Z</time></trkpt><trkpt lat="42.2790404" lon="12.6925578"><ele>286.25</ele><time>2026-05-03T13:50:47.861Z</time></trkpt><trkpt lat="42.2790359" lon="12.6924198"><ele>281.0</ele><time>2026-05-03T13:50:48.856Z</time></trkpt><trkpt lat="42.2790217" lon="12.6922774"><ele>281.0</ele><time>2026-05-03T13:50:49.858Z</time></trkpt><trkpt lat="42.2789739" lon="12.6921312"><ele>281.0</ele><time>2026-05-03T13:50:50.87Z</time></trkpt><trkpt lat="42.2788654" lon="12.6920211"><ele>281.0</ele><time>2026-05-03T13:50:51.856Z</time></trkpt><trkpt lat="42.2787269" lon="12.691994"><ele>281.0</ele><time>2026-05-03T13:50:52.856Z</time></trkpt><trkpt lat="42.2785624" lon="12.6919941"><ele>286.0</ele><time>2026-05-03T13:50:53.851Z</time></trkpt><trkpt lat="42.2784102" lon="12.6920137"><ele>291.0</ele><time>2026-05-03T13:50:54.845Z</time></trkpt><trkpt lat="42.2782458" lon="12.6920267"><ele>296.0</ele><time>2026-05-03T13:50:55.855Z</time></trkpt><trkpt lat="42.2780425" lon="12.692062"><ele>300.0</ele><time>2026-05-03T13:50:56.861Z</time></trkpt><trkpt lat="42.2778608" lon="12.6920815"><ele>304.0</ele><time>2026-05-03T13:50:57.861Z</time></trkpt><trkpt lat="42.2777159" lon="12.6920541"><ele>308.0</ele><time>2026-05-03T13:50:58.851Z</time></trkpt><trkpt lat="42.277596" lon="12.6919927"><ele>310.0</ele><time>2026-05-03T13:50:59.853Z</time></trkpt><trkpt lat="42.2775145" lon="12.6918713"><ele>312.0</ele><time>2026-05-03T13:51:00.87Z</time></trkpt><trkpt lat="42.2774058" lon="12.6917682"><ele>314.0</ele><time>2026-05-03T13:51:01.877Z</time></trkpt><trkpt lat="42.2773127" lon="12.6915794"><ele>316.0</ele><time>2026-05-03T13:51:02.851Z</time></trkpt><trkpt lat="42.2772339" lon="12.6913973"><ele>316.0</ele><time>2026-05-03T13:51:03.852Z</time></trkpt><trkpt lat="42.2771386" lon="12.6911674"><ele>316.0</ele><time>2026-05-03T13:51:04.858Z</time></trkpt><trkpt lat="42.2770486" lon="12.6909198"><ele>316.0</ele><time>2026-05-03T13:51:05.852Z</time></trkpt><trkpt lat="42.276963" lon="12.6907035"><ele>311.3333333333333</ele><time>2026-05-03T13:51:06.859Z</time></trkpt><trkpt lat="42.2768821" lon="12.6904845"><ele>306.6666666666667</ele><time>2026-05-03T13:51:07.862Z</time></trkpt><trkpt lat="42.2768108" lon="12.6902837"><ele>302.0</ele><time>2026-05-03T13:51:08.854Z</time></trkpt><trkpt lat="42.2767495" lon="12.6900976"><ele>299.0</ele><time>2026-05-03T13:51:09.85Z</time></trkpt><trkpt lat="42.2767137" lon="12.6899035"><ele>296.0</ele><time>2026-05-03T13:51:10.855Z</time></trkpt><trkpt lat="42.2766885" lon="12.689714"><ele>293.0</ele><time>2026-05-03T13:51:11.853Z</time></trkpt><trkpt lat="42.2766836" lon="12.6894921"><ele>292.0</ele><time>2026-05-03T13:51:12.866Z</time></trkpt><trkpt lat="42.2766642" lon="12.6892616"><ele>291.0</ele><time>2026-05-03T13:51:13.881Z</time></trkpt><trkpt lat="42.2766738" lon="12.6890927"><ele>290.0</ele><time>2026-05-03T13:51:14.889Z</time></trkpt><trkpt lat="42.2766854" lon="12.6889197"><ele>289.0</ele><time>2026-05-03T13:51:15.857Z</time></trkpt><trkpt lat="42.2767091" lon="12.6887014"><ele>289.3333333333333</ele><time>2026-05-03T13:51:16.864Z</time></trkpt><trkpt lat="42.2767831" lon="12.688467"><ele>289.6666666666667</ele><time>2026-05-03T13:51:17.86Z</time></trkpt><trkpt lat="42.2768258" lon="12.6882457"><ele>290.0</ele><time>2026-05-03T13:51:18.853Z</time></trkpt><trkpt lat="42.2768944" lon="12.688024"><ele>290.0</ele><time>2026-05-03T13:51:19.861Z</time></trkpt><trkpt lat="42.2769587" lon="12.6877969"><ele>290.0</ele><time>2026-05-03T13:51:20.869Z</time></trkpt><trkpt lat="42.277029" lon="12.6875859"><ele>290.0</ele><time>2026-05-03T13:51:21.865Z</time></trkpt><trkpt lat="42.277077" lon="12.6874117"><ele>290.0</ele><time>2026-05-03T13:51:22.866Z</time></trkpt><trkpt lat="42.2771223" lon="12.6872543"><ele>290.0</ele><time>2026-05-03T13:51:23.863Z</time></trkpt><trkpt lat="42.2771673" lon="12.6870972"><ele>290.0</ele><time>2026-05-03T13:51:24.864Z</time></trkpt><trkpt lat="42.2771511" lon="12.6869169"><ele>290.0</ele><time>2026-05-03T13:51:25.89Z</time></trkpt><trkpt lat="42.277125" lon="12.686726"><ele>288.6666666666667</ele><time>2026-05-03T13:51:26.871Z</time></trkpt><trkpt lat="42.2770069" lon="12.6865703"><ele>287.3333333333333</ele><time>2026-05-03T13:51:27.868Z</time></trkpt><trkpt lat="42.27687" lon="12.6864325"><ele>286.0</ele><time>2026-05-03T13:51:28.867Z</time></trkpt><trkpt lat="42.276718" lon="12.6862698"><ele>286.0</ele><time>2026-05-03T13:51:29.867Z</time></trkpt><trkpt lat="42.276597" lon="12.6861065"><ele>286.0</ele><time>2026-05-03T13:51:30.866Z</time></trkpt><trkpt lat="42.2764796" lon="12.6859641"><ele>286.0</ele><time>2026-05-03T13:51:31.861Z</time></trkpt><trkpt lat="42.2763549" lon="12.6858182"><ele>285.0</ele><time>2026-05-03T13:51:32.862Z</time></trkpt><trkpt lat="42.2762009" lon="12.6857424"><ele>284.0</ele><time>2026-05-03T13:51:33.861Z</time></trkpt><trkpt lat="42.2760186" lon="12.6856754"><ele>283.0</ele><time>2026-05-03T13:51:34.88Z</time></trkpt><trkpt lat="42.2758414" lon="12.6856033"><ele>283.0</ele><time>2026-05-03T13:51:35.856Z</time></trkpt><trkpt lat="42.2756864" lon="12.6855473"><ele>283.0</ele><time>2026-05-03T13:51:36.863Z</time></trkpt><trkpt lat="42.2755473" lon="12.6854993"><ele>283.0</ele><time>2026-05-03T13:51:37.855Z</time></trkpt><trkpt lat="42.2753858" lon="12.685506"><ele>282.3333333333333</ele><time>2026-05-03T13:51:38.884Z</time></trkpt><trkpt lat="42.2752278" lon="12.6855476"><ele>281.6666666666667</ele><time>2026-05-03T13:51:39.862Z</time></trkpt><trkpt lat="42.275097" lon="12.6856616"><ele>281.0</ele><time>2026-05-03T13:51:40.851Z</time></trkpt><trkpt lat="42.2749793" lon="12.6857531"><ele>281.0</ele><time>2026-05-03T13:51:41.845Z</time></trkpt><trkpt lat="42.2748606" lon="12.6858185"><ele>281.0</ele><time>2026-05-03T13:51:42.851Z</time></trkpt><trkpt lat="42.2747413" lon="12.6858248"><ele>281.0</ele><time>2026-05-03T13:51:43.85Z</time></trkpt><trkpt lat="42.274618" lon="12.6857767"><ele>281.0</ele><time>2026-05-03T13:51:44.844Z</time></trkpt><trkpt lat="42.2744853" lon="12.6857085"><ele>280.6666666666667</ele><time>2026-05-03T13:51:45.852Z</time></trkpt><trkpt lat="42.2743227" lon="12.6856301"><ele>280.3333333333333</ele><time>2026-05-03T13:51:46.857Z</time></trkpt><trkpt lat="42.2741919" lon="12.6855439"><ele>280.0</ele><time>2026-05-03T13:51:47.866Z</time></trkpt><trkpt lat="42.2740678" lon="12.6854296"><ele>280.0</ele><time>2026-05-03T13:51:48.851Z</time></trkpt><trkpt lat="42.2739634" lon="12.6853122"><ele>280.0</ele><time>2026-05-03T13:51:49.852Z</time></trkpt><trkpt lat="42.2738613" lon="12.6851427"><ele>280.0</ele><time>2026-05-03T13:51:50.858Z</time></trkpt><trkpt lat="42.2737591" lon="12.6849665"><ele>279.3333333333333</ele><time>2026-05-03T13:51:51.857Z</time></trkpt><trkpt lat="42.273667" lon="12.6847679"><ele>278.6666666666667</ele><time>2026-05-03T13:51:52.855Z</time></trkpt><trkpt lat="42.2735908" lon="12.6845893"><ele>278.0</ele><time>2026-05-03T13:51:53.88Z</time></trkpt><trkpt lat="42.2734926" lon="12.6844248"><ele>276.0</ele><time>2026-05-03T13:51:54.862Z</time></trkpt><trkpt lat="42.2734041" lon="12.6842714"><ele>274.0</ele><time>2026-05-03T13:51:55.855Z</time></trkpt><trkpt lat="42.2733034" lon="12.6841373"><ele>272.0</ele><time>2026-05-03T13:51:56.867Z</time></trkpt><trkpt lat="42.2731845" lon="12.6840385"><ele>270.0</ele><time>2026-05-03T13:51:57.866Z</time></trkpt><trkpt lat="42.2730703" lon="12.6839336"><ele>270.0</ele><time>2026-05-03T13:51:58.868Z</time></trkpt><trkpt lat="42.2729539" lon="12.6838637"><ele>270.0</ele><time>2026-05-03T13:51:59.87Z</time></trkpt><trkpt lat="42.272813" lon="12.6838371"><ele>270.0</ele><time>2026-05-03T13:52:00.86Z</time></trkpt><trkpt lat="42.2726563" lon="12.6838097"><ele>270.0</ele><time>2026-05-03T13:52:01.861Z</time></trkpt><trkpt lat="42.2724688" lon="12.6838119"><ele>268.3333333333333</ele><time>2026-05-03T13:52:02.863Z</time></trkpt><trkpt lat="42.2722638" lon="12.683776"><ele>266.66666666666663</ele><time>2026-05-03T13:52:03.864Z</time></trkpt><trkpt lat="42.2720626" lon="12.6837703"><ele>265.0</ele><time>2026-05-03T13:52:04.865Z</time></trkpt><trkpt lat="42.2719045" lon="12.6838005"><ele>265.0</ele><time>2026-05-03T13:52:05.863Z</time></trkpt><trkpt lat="42.2717499" lon="12.6838324"><ele>265.0</ele><time>2026-05-03T13:52:06.854Z</time></trkpt><trkpt lat="42.2715921" lon="12.6838411"><ele>265.0</ele><time>2026-05-03T13:52:07.854Z</time></trkpt><trkpt lat="42.2714435" lon="12.6838847"><ele>261.5</ele><time>2026-05-03T13:52:08.856Z</time></trkpt><trkpt lat="42.2713191" lon="12.6839292"><ele>258.0</ele><time>2026-05-03T13:52:09.861Z</time></trkpt><trkpt lat="42.2712255" lon="12.6839957"><ele>254.5</ele><time>2026-05-03T13:52:10.884Z</time></trkpt><trkpt lat="42.2711645" lon="12.6841406"><ele>251.0</ele><time>2026-05-03T13:52:11.86Z</time></trkpt><trkpt lat="42.2711605" lon="12.6842974"><ele>250.0</ele><time>2026-05-03T13:52:12.865Z</time></trkpt><trkpt lat="42.2711858" lon="12.684494"><ele>249.0</ele><time>2026-05-03T13:52:13.856Z</time></trkpt><trkpt lat="42.2711958" lon="12.6846761"><ele>248.0</ele><time>2026-05-03T13:52:14.852Z</time></trkpt><trkpt lat="42.2712119" lon="12.6848589"><ele>247.0</ele><time>2026-05-03T13:52:15.858Z</time></trkpt><trkpt lat="42.2712567" lon="12.6850321"><ele>247.0</ele><time>2026-05-03T13:52:16.858Z</time></trkpt><trkpt lat="42.271282" lon="12.6852046"><ele>247.0</ele><time>2026-05-03T13:52:17.854Z</time></trkpt><trkpt lat="42.2712771" lon="12.6853811"><ele>247.0</ele><time>2026-05-03T13:52:18.86Z</time></trkpt><trkpt lat="42.2712647" lon="12.6855528"><ele>247.0</ele><time>2026-05-03T13:52:19.851Z</time></trkpt><trkpt lat="42.2711861" lon="12.6857275"><ele>249.33333333333331</ele><time>2026-05-03T13:52:20.859Z</time></trkpt><trkpt lat="42.2711394" lon="12.6859091"><ele>251.66666666666669</ele><time>2026-05-03T13:52:21.848Z</time></trkpt><trkpt lat="42.2710537" lon="12.6861195"><ele>254.0</ele><time>2026-05-03T13:52:22.851Z</time></trkpt><trkpt lat="42.2709183" lon="12.6863298"><ele>254.66666666666669</ele><time>2026-05-03T13:52:23.875Z</time></trkpt><trkpt lat="42.270816" lon="12.6865106"><ele>255.33333333333331</ele><time>2026-05-03T13:52:24.852Z</time></trkpt><trkpt lat="42.2707147" lon="12.6866906"><ele>256.0</ele><time>2026-05-03T13:52:25.861Z</time></trkpt><trkpt lat="42.2705902" lon="12.686863"><ele>259.25</ele><time>2026-05-03T13:52:26.861Z</time></trkpt><trkpt lat="42.2704758" lon="12.687016"><ele>262.5</ele><time>2026-05-03T13:52:27.857Z</time></trkpt><trkpt lat="42.270381" lon="12.6871252"><ele>265.75</ele><time>2026-05-03T13:52:28.861Z</time></trkpt><trkpt lat="42.2702805" lon="12.6871986"><ele>269.0</ele><time>2026-05-03T13:52:29.86Z</time></trkpt><trkpt lat="42.2701893" lon="12.6872403"><ele>269.0</ele><time>2026-05-03T13:52:30.858Z</time></trkpt><trkpt lat="42.27011" lon="12.6872571"><ele>269.0</ele><time>2026-05-03T13:52:31.854Z</time></trkpt><trkpt lat="42.2700129" lon="12.6872173"><ele>269.0</ele><time>2026-05-03T13:52:32.849Z</time></trkpt><trkpt lat="42.2699156" lon="12.6871425"><ele>269.0</ele><time>2026-05-03T13:52:33.855Z</time></trkpt><trkpt lat="42.2698312" lon="12.6869924"><ele>269.0</ele><time>2026-05-03T13:52:34.855Z</time></trkpt><trkpt lat="42.2697365" lon="12.6868356"><ele>266.0</ele><time>2026-05-03T13:52:35.853Z</time></trkpt><trkpt lat="42.2696332" lon="12.6866807"><ele>263.0</ele><time>2026-05-03T13:52:36.853Z</time></trkpt><trkpt lat="42.2695525" lon="12.686527"><ele>260.0</ele><time>2026-05-03T13:52:37.849Z</time></trkpt><trkpt lat="42.2694788" lon="12.6864208"><ele>257.0</ele><time>2026-05-03T13:52:38.852Z</time></trkpt><trkpt lat="42.2694169" lon="12.6863433"><ele>257.0</ele><time>2026-05-03T13:52:39.855Z</time></trkpt><trkpt lat="42.2692953" lon="12.6862755"><ele>257.0</ele><time>2026-05-03T13:52:40.852Z</time></trkpt><trkpt lat="42.2691855" lon="12.6862718"><ele>257.0</ele><time>2026-05-03T13:52:41.849Z</time></trkpt><trkpt lat="42.2690747" lon="12.6863447"><ele>257.0</ele><time>2026-05-03T13:52:42.856Z</time></trkpt><trkpt lat="42.2689703" lon="12.6864304"><ele>256.5</ele><time>2026-05-03T13:52:43.846Z</time></trkpt><trkpt lat="42.2688604" lon="12.6865494"><ele>256.0</ele><time>2026-05-03T13:52:44.849Z</time></trkpt><trkpt lat="42.2687861" lon="12.6867425"><ele>255.5</ele><time>2026-05-03T13:52:45.923Z</time></trkpt><trkpt lat="42.2687594" lon="12.6869197"><ele>255.0</ele><time>2026-05-03T13:52:46.846Z</time></trkpt><trkpt lat="42.2686774" lon="12.687102"><ele>255.0</ele><time>2026-05-03T13:52:47.847Z</time></trkpt><trkpt lat="42.2685601" lon="12.6872665"><ele>255.0</ele><time>2026-05-03T13:52:48.935Z</time></trkpt><trkpt lat="42.2684947" lon="12.6873783"><ele>255.0</ele><time>2026-05-03T13:52:50.092Z</time></trkpt><trkpt lat="42.2684106" lon="12.6875769"><ele>255.0</ele><time>2026-05-03T13:52:52.01Z</time></trkpt><trkpt lat="42.2683487" lon="12.6876661"><ele>255.0</ele><time>2026-05-03T13:52:53.015Z</time></trkpt><trkpt lat="42.2682688" lon="12.6877455"><ele>255.0</ele><time>2026-05-03T13:52:54.171Z</time></trkpt><trkpt lat="42.2681843" lon="12.6877757"><ele>255.0</ele><time>2026-05-03T13:52:55.177Z</time></trkpt><trkpt lat="42.2680836" lon="12.6877823"><ele>255.0</ele><time>2026-05-03T13:52:56.246Z</time></trkpt><trkpt lat="42.2679693" lon="12.6877651"><ele>255.0</ele><time>2026-05-03T13:52:56.873Z</time></trkpt><trkpt lat="42.2678596" lon="12.6877047"><ele>256.2</ele><time>2026-05-03T13:52:57.856Z</time></trkpt><trkpt lat="42.2677563" lon="12.687641"><ele>257.4</ele><time>2026-05-03T13:52:58.857Z</time></trkpt><trkpt lat="42.2676671" lon="12.6875467"><ele>258.6</ele><time>2026-05-03T13:52:59.892Z</time></trkpt><trkpt lat="42.2676099" lon="12.6874226"><ele>259.8</ele><time>2026-05-03T13:53:00.857Z</time></trkpt><trkpt lat="42.2675609" lon="12.6873091"><ele>261.0</ele><time>2026-05-03T13:53:01.858Z</time></trkpt><trkpt lat="42.2675443" lon="12.6871612"><ele>261.0</ele><time>2026-05-03T13:53:02.873Z</time></trkpt><trkpt lat="42.2675718" lon="12.6869896"><ele>261.0</ele><time>2026-05-03T13:53:03.853Z</time></trkpt><trkpt lat="42.2675884" lon="12.6868127"><ele>261.0</ele><time>2026-05-03T13:53:04.884Z</time></trkpt><trkpt lat="42.2676443" lon="12.6866515"><ele>261.0</ele><time>2026-05-03T13:53:05.88Z</time></trkpt><trkpt lat="42.2676597" lon="12.6865049"><ele>258.0</ele><time>2026-05-03T13:53:06.857Z</time></trkpt><trkpt lat="42.2676614" lon="12.6863481"><ele>255.0</ele><time>2026-05-03T13:53:07.881Z</time></trkpt><trkpt lat="42.2676451" lon="12.6861901"><ele>252.0</ele><time>2026-05-03T13:53:08.877Z</time></trkpt><trkpt lat="42.267626" lon="12.686029"><ele>249.0</ele><time>2026-05-03T13:53:09.86Z</time></trkpt><trkpt lat="42.2675518" lon="12.6858793"><ele>249.5</ele><time>2026-05-03T13:53:10.85Z</time></trkpt><trkpt lat="42.2674641" lon="12.6857427"><ele>250.0</ele><time>2026-05-03T13:53:11.853Z</time></trkpt><trkpt lat="42.2673633" lon="12.6856196"><ele>250.5</ele><time>2026-05-03T13:53:12.862Z</time></trkpt><trkpt lat="42.2672653" lon="12.6855076"><ele>251.0</ele><time>2026-05-03T13:53:13.859Z</time></trkpt><trkpt lat="42.2671618" lon="12.6854185"><ele>251.0</ele><time>2026-05-03T13:53:14.861Z</time></trkpt><trkpt lat="42.2670645" lon="12.6853497"><ele>251.00000000000003</ele><time>2026-05-03T13:53:15.861Z</time></trkpt><trkpt lat="42.266973" lon="12.6852841"><ele>251.00000000000003</ele><time>2026-05-03T13:53:16.856Z</time></trkpt><trkpt lat="42.2668814" lon="12.6852192"><ele>251.0</ele><time>2026-05-03T13:53:17.861Z</time></trkpt><trkpt lat="42.2667835" lon="12.6851671"><ele>251.0</ele><time>2026-05-03T13:53:18.862Z</time></trkpt><trkpt lat="42.2667048" lon="12.6851019"><ele>248.8</ele><time>2026-05-03T13:53:19.865Z</time></trkpt><trkpt lat="42.2666332" lon="12.6850367"><ele>246.60000000000002</ele><time>2026-05-03T13:53:20.875Z</time></trkpt><trkpt lat="42.2665764" lon="12.6849955"><ele>244.4</ele><time>2026-05-03T13:53:21.855Z</time></trkpt><trkpt lat="42.266482" lon="12.6849054"><ele>242.2</ele><time>2026-05-03T13:53:23.857Z</time></trkpt><trkpt lat="42.2663972" lon="12.6847811"><ele>240.0</ele><time>2026-05-03T13:53:25.851Z</time></trkpt><trkpt lat="42.2662456" lon="12.6847266"><ele>240.0</ele><time>2026-05-03T13:53:27.856Z</time></trkpt><trkpt lat="42.2661419" lon="12.6847785"><ele>240.0</ele><time>2026-05-03T13:53:28.851Z</time></trkpt><trkpt lat="42.266034" lon="12.6848265"><ele>240.0</ele><time>2026-05-03T13:53:29.845Z</time></trkpt><trkpt lat="42.2659255" lon="12.6849212"><ele>240.0</ele><time>2026-05-03T13:53:30.85Z</time></trkpt><trkpt lat="42.2658093" lon="12.6850292"><ele>240.0</ele><time>2026-05-03T13:53:31.851Z</time></trkpt><trkpt lat="42.2656781" lon="12.685134"><ele>240.0</ele><time>2026-05-03T13:53:32.842Z</time></trkpt><trkpt lat="42.2655485" lon="12.6852143"><ele>240.0</ele><time>2026-05-03T13:53:33.847Z</time></trkpt><trkpt lat="42.2654186" lon="12.6853552"><ele>241.2</ele><time>2026-05-03T13:53:34.847Z</time></trkpt><trkpt lat="42.2653102" lon="12.685495"><ele>242.4</ele><time>2026-05-03T13:53:35.843Z</time></trkpt><trkpt lat="42.2652408" lon="12.6855983"><ele>243.60000000000002</ele><time>2026-05-03T13:53:36.842Z</time></trkpt><trkpt lat="42.2652083" lon="12.6856754"><ele>244.8</ele><time>2026-05-03T13:53:37.852Z</time></trkpt><trkpt lat="42.265179" lon="12.685774"><ele>246.0</ele><time>2026-05-03T13:53:39.848Z</time></trkpt><trkpt lat="42.2651292" lon="12.685836"><ele>246.0</ele><time>2026-05-03T13:53:41.856Z</time></trkpt><trkpt lat="42.2650954" lon="12.6859418"><ele>246.0</ele><time>2026-05-03T13:53:43.853Z</time></trkpt><trkpt lat="42.2650574" lon="12.6860372"><ele>246.0</ele><time>2026-05-03T13:53:45.85Z</time></trkpt><trkpt lat="42.265061" lon="12.6861491"><ele>246.0</ele><time>2026-05-03T13:53:47.857Z</time></trkpt><trkpt lat="42.2650577" lon="12.6862574"><ele>246.0</ele><time>2026-05-03T13:53:48.854Z</time></trkpt><trkpt lat="42.2650486" lon="12.6863993"><ele>246.0</ele><time>2026-05-03T13:53:49.855Z</time></trkpt><trkpt lat="42.265035" lon="12.6865343"><ele>245.5</ele><time>2026-05-03T13:53:50.848Z</time></trkpt><trkpt lat="42.2650072" lon="12.6866802"><ele>245.0</ele><time>2026-05-03T13:53:51.841Z</time></trkpt><trkpt lat="42.2649692" lon="12.6868408"><ele>244.5</ele><time>2026-05-03T13:53:52.842Z</time></trkpt><trkpt lat="42.2649311" lon="12.6870698"><ele>244.0</ele><time>2026-05-03T13:53:53.85Z</time></trkpt><trkpt lat="42.2649024" lon="12.68724"><ele>243.5</ele><time>2026-05-03T13:53:54.846Z</time></trkpt><trkpt lat="42.2648666" lon="12.6874208"><ele>243.0</ele><time>2026-05-03T13:53:55.85Z</time></trkpt><trkpt lat="42.264828" lon="12.6875981"><ele>242.5</ele><time>2026-05-03T13:53:56.853Z</time></trkpt><trkpt lat="42.2647911" lon="12.6877562"><ele>242.0</ele><time>2026-05-03T13:53:57.85Z</time></trkpt><trkpt lat="42.2647346" lon="12.6878948"><ele>242.0</ele><time>2026-05-03T13:53:58.847Z</time></trkpt><trkpt lat="42.2646713" lon="12.6880006"><ele>242.0</ele><time>2026-05-03T13:53:59.867Z</time></trkpt><trkpt lat="42.2645953" lon="12.6881067"><ele>242.0</ele><time>2026-05-03T13:54:00.845Z</time></trkpt><trkpt lat="42.2644896" lon="12.6881822"><ele>242.0</ele><time>2026-05-03T13:54:01.846Z</time></trkpt><trkpt lat="42.2643806" lon="12.6882017"><ele>242.0</ele><time>2026-05-03T13:54:02.85Z</time></trkpt><trkpt lat="42.2642403" lon="12.6881943"><ele>242.0</ele><time>2026-05-03T13:54:03.849Z</time></trkpt><trkpt lat="42.2640741" lon="12.6881631"><ele>242.0</ele><time>2026-05-03T13:54:04.849Z</time></trkpt><trkpt lat="42.2639248" lon="12.6881091"><ele>242.0</ele><time>2026-05-03T13:54:05.851Z</time></trkpt><trkpt lat="42.2638168" lon="12.6879815"><ele>242.8</ele><time>2026-05-03T13:54:06.848Z</time></trkpt><trkpt lat="42.2637502" lon="12.6878677"><ele>243.6</ele><time>2026-05-03T13:54:07.859Z</time></trkpt><trkpt lat="42.2636932" lon="12.6878116"><ele>244.40000000000003</ele><time>2026-05-03T13:54:08.851Z</time></trkpt><trkpt lat="42.2636243" lon="12.6877079"><ele>245.20000000000002</ele><time>2026-05-03T13:54:11.847Z</time></trkpt><trkpt lat="42.2636073" lon="12.6875385"><ele>246.0</ele><time>2026-05-03T13:54:13.854Z</time></trkpt><trkpt lat="42.2636087" lon="12.6874035"><ele>246.0</ele><time>2026-05-03T13:54:14.848Z</time></trkpt><trkpt lat="42.2636163" lon="12.6872646"><ele>246.0</ele><time>2026-05-03T13:54:15.86Z</time></trkpt><trkpt lat="42.2636093" lon="12.6871459"><ele>246.0</ele><time>2026-05-03T13:54:16.854Z</time></trkpt><trkpt lat="42.2635891" lon="12.6870289"><ele>246.0</ele><time>2026-05-03T13:54:17.854Z</time></trkpt><trkpt lat="42.2635427" lon="12.6869388"><ele>246.0</ele><time>2026-05-03T13:54:18.871Z</time></trkpt><trkpt lat="42.2634812" lon="12.6868652"><ele>246.0</ele><time>2026-05-03T13:54:19.842Z</time></trkpt><trkpt lat="42.2634218" lon="12.6867874"><ele>244.5</ele><time>2026-05-03T13:54:20.841Z</time></trkpt><trkpt lat="42.2633662" lon="12.6867143"><ele>243.0</ele><time>2026-05-03T13:54:21.84Z</time></trkpt><trkpt lat="42.2632516" lon="12.6866701"><ele>241.5</ele><time>2026-05-03T13:54:22.846Z</time></trkpt><trkpt lat="42.2631288" lon="12.6866045"><ele>240.0</ele><time>2026-05-03T13:54:23.848Z</time></trkpt><trkpt lat="42.2630116" lon="12.6865208"><ele>244.75</ele><time>2026-05-03T13:54:24.846Z</time></trkpt><trkpt lat="42.2628976" lon="12.6864348"><ele>249.5</ele><time>2026-05-03T13:54:25.845Z</time></trkpt><trkpt lat="42.2627873" lon="12.6863538"><ele>254.25</ele><time>2026-05-03T13:54:26.847Z</time></trkpt><trkpt lat="42.2626848" lon="12.6862139"><ele>259.0</ele><time>2026-05-03T13:54:27.841Z</time></trkpt><trkpt lat="42.2625675" lon="12.6861114"><ele>255.5</ele><time>2026-05-03T13:54:28.851Z</time></trkpt><trkpt lat="42.2624594" lon="12.686028"><ele>252.0</ele><time>2026-05-03T13:54:29.851Z</time></trkpt><trkpt lat="42.2623355" lon="12.6859641"><ele>248.5</ele><time>2026-05-03T13:54:30.858Z</time></trkpt><trkpt lat="42.2621733" lon="12.6859476"><ele>245.0</ele><time>2026-05-03T13:54:31.856Z</time></trkpt><trkpt lat="42.2620456" lon="12.6859202"><ele>245.0</ele><time>2026-05-03T13:54:32.859Z</time></trkpt><trkpt lat="42.2618977" lon="12.6859093"><ele>245.0</ele><time>2026-05-03T13:54:33.856Z</time></trkpt><trkpt lat="42.2617771" lon="12.685889"><ele>245.0</ele><time>2026-05-03T13:54:34.87Z</time></trkpt><trkpt lat="42.261656" lon="12.6858524"><ele>245.0</ele><time>2026-05-03T13:54:35.86Z</time></trkpt><trkpt lat="42.2615427" lon="12.6858249"><ele>245.8</ele><time>2026-05-03T13:54:36.862Z</time></trkpt><trkpt lat="42.2614487" lon="12.6858335"><ele>246.6</ele><time>2026-05-03T13:54:37.862Z</time></trkpt><trkpt lat="42.2613556" lon="12.6858847"><ele>247.39999999999998</ele><time>2026-05-03T13:54:38.883Z</time></trkpt><trkpt lat="42.261281" lon="12.6859571"><ele>248.2</ele><time>2026-05-03T13:54:39.859Z</time></trkpt><trkpt lat="42.2612143" lon="12.6860537"><ele>249.0</ele><time>2026-05-03T13:54:40.86Z</time></trkpt><trkpt lat="42.2611442" lon="12.6861706"><ele>249.0</ele><time>2026-05-03T13:54:41.857Z</time></trkpt><trkpt lat="42.2610736" lon="12.6863084"><ele>249.0</ele><time>2026-05-03T13:54:42.856Z</time></trkpt><trkpt lat="42.2610034" lon="12.6864578"><ele>249.0</ele><time>2026-05-03T13:54:43.855Z</time></trkpt><trkpt lat="42.2609144" lon="12.6866808"><ele>249.0</ele><time>2026-05-03T13:54:44.857Z</time></trkpt><trkpt lat="42.2608566" lon="12.6869322"><ele>251.0</ele><time>2026-05-03T13:54:45.862Z</time></trkpt><trkpt lat="42.2607969" lon="12.6871623"><ele>253.0</ele><time>2026-05-03T13:54:46.861Z</time></trkpt><trkpt lat="42.260699" lon="12.6873561"><ele>255.0</ele><time>2026-05-03T13:54:47.858Z</time></trkpt><trkpt lat="42.260586" lon="12.6874759"><ele>255.0</ele><time>2026-05-03T13:54:48.852Z</time></trkpt><trkpt lat="42.2604621" lon="12.687553"><ele>255.0</ele><time>2026-05-03T13:54:49.859Z</time></trkpt><trkpt lat="42.2603406" lon="12.6875729"><ele>255.0</ele><time>2026-05-03T13:54:50.864Z</time></trkpt><trkpt lat="42.2602043" lon="12.6875854"><ele>255.0</ele><time>2026-05-03T13:54:51.863Z</time></trkpt><trkpt lat="42.2600474" lon="12.6875128"><ele>255.0</ele><time>2026-05-03T13:54:52.857Z</time></trkpt><trkpt lat="42.2599001" lon="12.6874524"><ele>255.0</ele><time>2026-05-03T13:54:53.86Z</time></trkpt><trkpt lat="42.2597501" lon="12.6873255"><ele>255.0</ele><time>2026-05-03T13:54:54.852Z</time></trkpt><trkpt lat="42.2596159" lon="12.6871632"><ele>253.66666666666669</ele><time>2026-05-03T13:54:55.857Z</time></trkpt><trkpt lat="42.2594808" lon="12.6870187"><ele>252.33333333333334</ele><time>2026-05-03T13:54:56.861Z</time></trkpt><trkpt lat="42.2593702" lon="12.6869052"><ele>251.0</ele><time>2026-05-03T13:54:57.854Z</time></trkpt><trkpt lat="42.259192" lon="12.6868065"><ele>251.0</ele><time>2026-05-03T13:54:58.857Z</time></trkpt><trkpt lat="42.25905" lon="12.6866996"><ele>251.0</ele><time>2026-05-03T13:54:59.854Z</time></trkpt><trkpt lat="42.25892" lon="12.6866232"><ele>251.0</ele><time>2026-05-03T13:55:00.857Z</time></trkpt><trkpt lat="42.2587974" lon="12.6864583"><ele>251.0</ele><time>2026-05-03T13:55:01.86Z</time></trkpt><trkpt lat="42.2586981" lon="12.6863681"><ele>251.0</ele><time>2026-05-03T13:55:02.864Z</time></trkpt><trkpt lat="42.2586099" lon="12.6862063"><ele>251.0</ele><time>2026-05-03T13:55:03.865Z</time></trkpt><trkpt lat="42.2585289" lon="12.6860097"><ele>251.0</ele><time>2026-05-03T13:55:04.856Z</time></trkpt><trkpt lat="42.2584581" lon="12.685736"><ele>251.33333333333334</ele><time>2026-05-03T13:55:05.862Z</time></trkpt><trkpt lat="42.2583501" lon="12.6854635"><ele>251.66666666666669</ele><time>2026-05-03T13:55:06.863Z</time></trkpt><trkpt lat="42.2582732" lon="12.6852515"><ele>252.0</ele><time>2026-05-03T13:55:07.863Z</time></trkpt><trkpt lat="42.2582006" lon="12.6850525"><ele>252.5</ele><time>2026-05-03T13:55:08.871Z</time></trkpt><trkpt lat="42.2581316" lon="12.6848959"><ele>253.0</ele><time>2026-05-03T13:55:09.863Z</time></trkpt><trkpt lat="42.2580535" lon="12.6847486"><ele>253.5</ele><time>2026-05-03T13:55:10.86Z</time></trkpt><trkpt lat="42.2579566" lon="12.6846059"><ele>254.0</ele><time>2026-05-03T13:55:11.859Z</time></trkpt><trkpt lat="42.2578544" lon="12.6844999"><ele>252.0</ele><time>2026-05-03T13:55:12.859Z</time></trkpt><trkpt lat="42.2577221" lon="12.684382"><ele>250.0</ele><time>2026-05-03T13:55:13.866Z</time></trkpt><trkpt lat="42.2575788" lon="12.6842669"><ele>248.0</ele><time>2026-05-03T13:55:14.862Z</time></trkpt><trkpt lat="42.2574675" lon="12.6841502"><ele>248.0</ele><time>2026-05-03T13:55:15.865Z</time></trkpt><trkpt lat="42.2573325" lon="12.6840114"><ele>248.0</ele><time>2026-05-03T13:55:16.862Z</time></trkpt><trkpt lat="42.2572033" lon="12.6839072"><ele>248.0</ele><time>2026-05-03T13:55:17.878Z</time></trkpt><trkpt lat="42.2570411" lon="12.683819"><ele>248.75</ele><time>2026-05-03T13:55:18.862Z</time></trkpt><trkpt lat="42.2569001" lon="12.6837677"><ele>249.5</ele><time>2026-05-03T13:55:19.863Z</time></trkpt><trkpt lat="42.256764" lon="12.6837164"><ele>250.25</ele><time>2026-05-03T13:55:20.873Z</time></trkpt><trkpt lat="42.2566119" lon="12.6836639"><ele>251.0</ele><time>2026-05-03T13:55:21.863Z</time></trkpt><trkpt lat="42.2564309" lon="12.6836327"><ele>249.0</ele><time>2026-05-03T13:55:22.859Z</time></trkpt><trkpt lat="42.256247" lon="12.6835939"><ele>247.0</ele><time>2026-05-03T13:55:23.867Z</time></trkpt><trkpt lat="42.256095" lon="12.6835451"><ele>245.0</ele><time>2026-05-03T13:55:24.855Z</time></trkpt><trkpt lat="42.2559449" lon="12.6835608"><ele>245.0</ele><time>2026-05-03T13:55:25.861Z</time></trkpt><trkpt lat="42.255838" lon="12.6835446"><ele>245.0</ele><time>2026-05-03T13:55:26.859Z</time></trkpt><trkpt lat="42.2557144" lon="12.6835431"><ele>245.0</ele><time>2026-05-03T13:55:27.854Z</time></trkpt><trkpt lat="42.2556272" lon="12.6835161"><ele>245.0</ele><time>2026-05-03T13:55:28.865Z</time></trkpt><trkpt lat="42.2555168" lon="12.6835482"><ele>245.0</ele><time>2026-05-03T13:55:29.865Z</time></trkpt><trkpt lat="42.2554072" lon="12.6835665"><ele>247.66666666666669</ele><time>2026-05-03T13:55:30.862Z</time></trkpt><trkpt lat="42.2552659" lon="12.6835884"><ele>250.33333333333331</ele><time>2026-05-03T13:55:31.861Z</time></trkpt><trkpt lat="42.2551164" lon="12.6836237"><ele>253.0</ele><time>2026-05-03T13:55:32.855Z</time></trkpt><trkpt lat="42.2549511" lon="12.683644"><ele>259.66666666666663</ele><time>2026-05-03T13:55:33.859Z</time></trkpt><trkpt lat="42.2547704" lon="12.6836808"><ele>266.3333333333333</ele><time>2026-05-03T13:55:34.859Z</time></trkpt><trkpt lat="42.2546196" lon="12.6836918"><ele>273.0</ele><time>2026-05-03T13:55:35.853Z</time></trkpt><trkpt lat="42.254503" lon="12.6836739"><ele>273.0</ele><time>2026-05-03T13:55:36.852Z</time></trkpt><trkpt lat="42.254441" lon="12.6836927"><ele>273.0</ele><time>2026-05-03T13:55:37.857Z</time></trkpt><trkpt lat="42.2543599" lon="12.6838277"><ele>273.0</ele><time>2026-05-03T13:55:39.848Z</time></trkpt><trkpt lat="42.254365" lon="12.6840024"><ele>273.0</ele><time>2026-05-03T13:55:40.853Z</time></trkpt><trkpt lat="42.2544266" lon="12.6841787"><ele>273.0</ele><time>2026-05-03T13:55:41.854Z</time></trkpt><trkpt lat="42.2545394" lon="12.6844503"><ele>273.0</ele><time>2026-05-03T13:55:42.852Z</time></trkpt><trkpt lat="42.2546494" lon="12.6846953"><ele>273.0</ele><time>2026-05-03T13:55:43.846Z</time></trkpt><trkpt lat="42.2546689" lon="12.6848924"><ele>273.0</ele><time>2026-05-03T13:55:44.847Z</time></trkpt><trkpt lat="42.2547044" lon="12.6850823"><ele>273.0</ele><time>2026-05-03T13:55:45.934Z</time></trkpt><trkpt lat="42.2547373" lon="12.6852176"><ele>273.0</ele><time>2026-05-03T13:55:46.871Z</time></trkpt><trkpt lat="42.2547525" lon="12.6853229"><ele>273.0</ele><time>2026-05-03T13:55:47.856Z</time></trkpt><trkpt lat="42.2548481" lon="12.6855032"><ele>268.75</ele><time>2026-05-03T13:55:48.885Z</time></trkpt><trkpt lat="42.2547783" lon="12.6855369"><ele>264.5</ele><time>2026-05-03T13:55:49.853Z</time></trkpt><trkpt lat="42.2546247" lon="12.6855444"><ele>260.25</ele><time>2026-05-03T13:55:50.889Z</time></trkpt><trkpt lat="42.2544734" lon="12.6855586"><ele>256.0</ele><time>2026-05-03T13:55:51.86Z</time></trkpt><trkpt lat="42.2542607" lon="12.6855976"><ele>256.0</ele><time>2026-05-03T13:55:52.875Z</time></trkpt><trkpt lat="42.2540362" lon="12.685675"><ele>256.0</ele><time>2026-05-03T13:55:53.852Z</time></trkpt><trkpt lat="42.2537393" lon="12.685726"><ele>264.0</ele><time>2026-05-03T13:55:54.857Z</time></trkpt><trkpt lat="42.2534218" lon="12.685827"><ele>272.0</ele><time>2026-05-03T13:55:55.875Z</time></trkpt><trkpt lat="42.2531552" lon="12.6858854"><ele>275.6666666666667</ele><time>2026-05-03T13:55:56.878Z</time></trkpt><trkpt lat="42.2529651" lon="12.6859174"><ele>279.3333333333333</ele><time>2026-05-03T13:55:57.851Z</time></trkpt><trkpt lat="42.2527994" lon="12.685977"><ele>283.0</ele><time>2026-05-03T13:55:58.857Z</time></trkpt><trkpt lat="42.2526553" lon="12.6861014"><ele>283.0</ele><time>2026-05-03T13:55:59.858Z</time></trkpt><trkpt lat="42.2525632" lon="12.6862501"><ele>283.0</ele><time>2026-05-03T13:56:00.845Z</time></trkpt><trkpt lat="42.2524713" lon="12.6863908"><ele>283.0</ele><time>2026-05-03T13:56:01.847Z</time></trkpt><trkpt lat="42.2524244" lon="12.6865187"><ele>283.0</ele><time>2026-05-03T13:56:02.852Z</time></trkpt><trkpt lat="42.2523851" lon="12.6867116"><ele>283.0</ele><time>2026-05-03T13:56:03.931Z</time></trkpt><trkpt lat="42.2524198" lon="12.6869393"><ele>283.0</ele><time>2026-05-03T13:56:04.865Z</time></trkpt><trkpt lat="42.252377" lon="12.6871486"><ele>283.0</ele><time>2026-05-03T13:56:05.854Z</time></trkpt><trkpt lat="42.2523386" lon="12.6873333"><ele>283.0</ele><time>2026-05-03T13:56:06.856Z</time></trkpt><trkpt lat="42.2522901" lon="12.6874784"><ele>283.0</ele><time>2026-05-03T13:56:07.879Z</time></trkpt><trkpt lat="42.2522278" lon="12.6875775"><ele>283.0</ele><time>2026-05-03T13:56:08.847Z</time></trkpt><trkpt lat="42.2520851" lon="12.6875991"><ele>283.0</ele><time>2026-05-03T13:56:09.847Z</time></trkpt><trkpt lat="42.2519446" lon="12.6875932"><ele>283.75</ele><time>2026-05-03T13:56:10.849Z</time></trkpt><trkpt lat="42.2518287" lon="12.687606"><ele>284.5</ele><time>2026-05-03T13:56:11.849Z</time></trkpt><trkpt lat="42.2516949" lon="12.687594"><ele>285.25</ele><time>2026-05-03T13:56:12.849Z</time></trkpt><trkpt lat="42.2515265" lon="12.6875885"><ele>286.0</ele><time>2026-05-03T13:56:13.845Z</time></trkpt><trkpt lat="42.2513499" lon="12.6876445"><ele>286.0</ele><time>2026-05-03T13:56:14.85Z</time></trkpt><trkpt lat="42.2512165" lon="12.6877266"><ele>286.0</ele><time>2026-05-03T13:56:15.853Z</time></trkpt><trkpt lat="42.2510876" lon="12.687766"><ele>286.0</ele><time>2026-05-03T13:56:16.851Z</time></trkpt><trkpt lat="42.2509743" lon="12.6877932"><ele>286.0</ele><time>2026-05-03T13:56:17.852Z</time></trkpt><trkpt lat="42.2508369" lon="12.6878087"><ele>287.0</ele><time>2026-05-03T13:56:18.857Z</time></trkpt><trkpt lat="42.2506716" lon="12.6877719"><ele>288.0</ele><time>2026-05-03T13:56:19.859Z</time></trkpt><trkpt lat="42.2505405" lon="12.6877802"><ele>289.0</ele><time>2026-05-03T13:56:20.861Z</time></trkpt><trkpt lat="42.2504151" lon="12.6878169"><ele>290.0</ele><time>2026-05-03T13:56:21.853Z</time></trkpt><trkpt lat="42.2503053" lon="12.6879041"><ele>286.0</ele><time>2026-05-03T13:56:22.855Z</time></trkpt><trkpt lat="42.2502019" lon="12.6880312"><ele>282.0</ele><time>2026-05-03T13:56:23.855Z</time></trkpt><trkpt lat="42.250112" lon="12.6882133"><ele>278.0</ele><time>2026-05-03T13:56:24.856Z</time></trkpt><trkpt lat="42.2500292" lon="12.6885088"><ele>280.5</ele><time>2026-05-03T13:56:25.862Z</time></trkpt><trkpt lat="42.2499536" lon="12.6888145"><ele>283.0</ele><time>2026-05-03T13:56:26.855Z</time></trkpt><trkpt lat="42.2498549" lon="12.6890781"><ele>281.0</ele><time>2026-05-03T13:56:27.88Z</time></trkpt><trkpt lat="42.2497669" lon="12.6893402"><ele>279.0</ele><time>2026-05-03T13:56:28.85Z</time></trkpt><trkpt lat="42.2496834" lon="12.6895931"><ele>277.0</ele><time>2026-05-03T13:56:29.857Z</time></trkpt><trkpt lat="42.249609" lon="12.6897684"><ele>277.0</ele><time>2026-05-03T13:56:30.857Z</time></trkpt><trkpt lat="42.2495153" lon="12.689966"><ele>277.0</ele><time>2026-05-03T13:56:31.86Z</time></trkpt><trkpt lat="42.2494499" lon="12.6901203"><ele>277.0</ele><time>2026-05-03T13:56:32.855Z</time></trkpt><trkpt lat="42.2493612" lon="12.6902798"><ele>282.0</ele><time>2026-05-03T13:56:33.858Z</time></trkpt><trkpt lat="42.2492773" lon="12.6904209"><ele>287.0</ele><time>2026-05-03T13:56:34.851Z</time></trkpt><trkpt lat="42.2491549" lon="12.690568"><ele>292.0</ele><time>2026-05-03T13:56:35.855Z</time></trkpt><trkpt lat="42.2490065" lon="12.6907128"><ele>289.0</ele><time>2026-05-03T13:56:36.85Z</time></trkpt><trkpt lat="42.2488464" lon="12.6908305"><ele>286.0</ele><time>2026-05-03T13:56:37.855Z</time></trkpt><trkpt lat="42.2487187" lon="12.6909416"><ele>283.0</ele><time>2026-05-03T13:56:38.859Z</time></trkpt><trkpt lat="42.2485717" lon="12.6910616"><ele>286.66666666666663</ele><time>2026-05-03T13:56:39.856Z</time></trkpt><trkpt lat="42.2484206" lon="12.6911964"><ele>290.3333333333333</ele><time>2026-05-03T13:56:40.877Z</time></trkpt><trkpt lat="42.248278" lon="12.6913386"><ele>294.0</ele><time>2026-05-03T13:56:41.875Z</time></trkpt><trkpt lat="42.2481471" lon="12.6914485"><ele>295.75</ele><time>2026-05-03T13:56:42.859Z</time></trkpt><trkpt lat="42.2480417" lon="12.6915381"><ele>297.5</ele><time>2026-05-03T13:56:43.856Z</time></trkpt><trkpt lat="42.2479226" lon="12.6916355"><ele>299.25</ele><time>2026-05-03T13:56:44.861Z</time></trkpt><trkpt lat="42.2478317" lon="12.6917205"><ele>301.0</ele><time>2026-05-03T13:56:45.856Z</time></trkpt><trkpt lat="42.24773" lon="12.69181"><ele>301.0</ele><time>2026-05-03T13:56:46.856Z</time></trkpt><trkpt lat="42.2476204" lon="12.6918579"><ele>301.0</ele><time>2026-05-03T13:56:47.851Z</time></trkpt><trkpt lat="42.2475132" lon="12.6918464"><ele>301.0</ele><time>2026-05-03T13:56:48.858Z</time></trkpt><trkpt lat="42.24742" lon="12.6917401"><ele>301.0</ele><time>2026-05-03T13:56:49.853Z</time></trkpt><trkpt lat="42.2473184" lon="12.691682"><ele>303.25</ele><time>2026-05-03T13:56:50.875Z</time></trkpt><trkpt lat="42.2472604" lon="12.6915144"><ele>305.5</ele><time>2026-05-03T13:56:51.855Z</time></trkpt><trkpt lat="42.247177" lon="12.6913451"><ele>307.75</ele><time>2026-05-03T13:56:52.856Z</time></trkpt><trkpt lat="42.2471131" lon="12.6912292"><ele>310.0</ele><time>2026-05-03T13:56:53.856Z</time></trkpt><trkpt lat="42.2470431" lon="12.6911722"><ele>310.0</ele><time>2026-05-03T13:56:54.858Z</time></trkpt><trkpt lat="42.2469549" lon="12.6911329"><ele>310.0</ele><time>2026-05-03T13:56:55.853Z</time></trkpt><trkpt lat="42.2468554" lon="12.6911149"><ele>310.0</ele><time>2026-05-03T13:56:56.86Z</time></trkpt><trkpt lat="42.2468005" lon="12.6911964"><ele>310.0</ele><time>2026-05-03T13:56:57.857Z</time></trkpt><trkpt lat="42.2467428" lon="12.6912865"><ele>310.0</ele><time>2026-05-03T13:56:58.853Z</time></trkpt><trkpt lat="42.2466918" lon="12.6913816"><ele>310.0</ele><time>2026-05-03T13:56:59.853Z</time></trkpt><trkpt lat="42.2466308" lon="12.6914645"><ele>310.0</ele><time>2026-05-03T13:57:00.849Z</time></trkpt><trkpt lat="42.2465868" lon="12.6915666"><ele>310.0</ele><time>2026-05-03T13:57:01.851Z</time></trkpt><trkpt lat="42.2465249" lon="12.691645"><ele>310.0</ele><time>2026-05-03T13:57:02.853Z</time></trkpt><trkpt lat="42.2464502" lon="12.6917178"><ele>310.0</ele><time>2026-05-03T13:57:03.861Z</time></trkpt><trkpt lat="42.2463542" lon="12.6917569"><ele>312.0</ele><time>2026-05-03T13:57:04.855Z</time></trkpt><trkpt lat="42.2462621" lon="12.691758"><ele>314.0</ele><time>2026-05-03T13:57:05.847Z</time></trkpt><trkpt lat="42.2461761" lon="12.6917415"><ele>316.0</ele><time>2026-05-03T13:57:06.863Z</time></trkpt><trkpt lat="42.2460865" lon="12.6917232"><ele>318.0</ele><time>2026-05-03T13:57:07.856Z</time></trkpt><trkpt lat="42.245996" lon="12.6916924"><ele>320.0</ele><time>2026-05-03T13:57:08.873Z</time></trkpt><trkpt lat="42.2459015" lon="12.6916604"><ele>320.0</ele><time>2026-05-03T13:57:09.883Z</time></trkpt><trkpt lat="42.2457955" lon="12.691635"><ele>320.0</ele><time>2026-05-03T13:57:10.856Z</time></trkpt><trkpt lat="42.2456826" lon="12.691611"><ele>320.0</ele><time>2026-05-03T13:57:11.847Z</time></trkpt><trkpt lat="42.2455641" lon="12.6915768"><ele>320.0</ele><time>2026-05-03T13:57:12.86Z</time></trkpt><trkpt lat="42.2454498" lon="12.6915424"><ele>320.4</ele><time>2026-05-03T13:57:13.857Z</time></trkpt><trkpt lat="42.2453441" lon="12.6915126"><ele>320.8</ele><time>2026-05-03T13:57:14.857Z</time></trkpt><trkpt lat="42.2452522" lon="12.6914722"><ele>321.20000000000005</ele><time>2026-05-03T13:57:15.855Z</time></trkpt><trkpt lat="42.2451525" lon="12.6914228"><ele>321.6</ele><time>2026-05-03T13:57:16.875Z</time></trkpt><trkpt lat="42.2450552" lon="12.6913823"><ele>322.0</ele><time>2026-05-03T13:57:17.87Z</time></trkpt><trkpt lat="42.2449604" lon="12.6913321"><ele>322.0</ele><time>2026-05-03T13:57:18.876Z</time></trkpt><trkpt lat="42.2448599" lon="12.6912668"><ele>322.0</ele><time>2026-05-03T13:57:19.857Z</time></trkpt><trkpt lat="42.2447563" lon="12.6911833"><ele>322.0</ele><time>2026-05-03T13:57:20.863Z</time></trkpt><trkpt lat="42.2446524" lon="12.6911218"><ele>322.0</ele><time>2026-05-03T13:57:21.86Z</time></trkpt><trkpt lat="42.244562" lon="12.6910679"><ele>322.0</ele><time>2026-05-03T13:57:22.857Z</time></trkpt><trkpt lat="42.2444732" lon="12.6910132"><ele>318.5</ele><time>2026-05-03T13:57:23.854Z</time></trkpt><trkpt lat="42.2443816" lon="12.6909277"><ele>315.0</ele><time>2026-05-03T13:57:24.848Z</time></trkpt><trkpt lat="42.2442648" lon="12.6908682"><ele>311.5</ele><time>2026-05-03T13:57:25.851Z</time></trkpt><trkpt lat="42.2441311" lon="12.6907942"><ele>308.0</ele><time>2026-05-03T13:57:26.849Z</time></trkpt><trkpt lat="42.2439892" lon="12.690723"><ele>303.25</ele><time>2026-05-03T13:57:27.852Z</time></trkpt><trkpt lat="42.2438532" lon="12.6906574"><ele>298.5</ele><time>2026-05-03T13:57:28.849Z</time></trkpt><trkpt lat="42.2437211" lon="12.6906091"><ele>293.75</ele><time>2026-05-03T13:57:29.851Z</time></trkpt><trkpt lat="42.2435863" lon="12.6905654"><ele>289.0</ele><time>2026-05-03T13:57:30.851Z</time></trkpt><trkpt lat="42.2434504" lon="12.6905073"><ele>289.0</ele><time>2026-05-03T13:57:31.851Z</time></trkpt><trkpt lat="42.2432942" lon="12.6903927"><ele>289.0</ele><time>2026-05-03T13:57:32.862Z</time></trkpt><trkpt lat="42.2431559" lon="12.6902501"><ele>289.0</ele><time>2026-05-03T13:57:33.86Z</time></trkpt><trkpt lat="42.2430423" lon="12.6901513"><ele>290.3333333333333</ele><time>2026-05-03T13:57:34.88Z</time></trkpt><trkpt lat="42.2428973" lon="12.6900815"><ele>291.6666666666667</ele><time>2026-05-03T13:57:35.884Z</time></trkpt><trkpt lat="42.242777" lon="12.6899768"><ele>293.0</ele><time>2026-05-03T13:57:36.853Z</time></trkpt><trkpt lat="42.2426647" lon="12.6898006"><ele>293.0</ele><time>2026-05-03T13:57:37.868Z</time></trkpt><trkpt lat="42.2425441" lon="12.6896501"><ele>293.0</ele><time>2026-05-03T13:57:38.862Z</time></trkpt><trkpt lat="42.2424263" lon="12.6895384"><ele>293.0</ele><time>2026-05-03T13:57:39.86Z</time></trkpt><trkpt lat="42.2423385" lon="12.68941"><ele>293.0</ele><time>2026-05-03T13:57:40.862Z</time></trkpt><trkpt lat="42.24224" lon="12.6893055"><ele>292.83333333333337</ele><time>2026-05-03T13:57:41.851Z</time></trkpt><trkpt lat="42.2421559" lon="12.6891934"><ele>292.6666666666667</ele><time>2026-05-03T13:57:42.855Z</time></trkpt><trkpt lat="42.2421094" lon="12.6891352"><ele>292.5</ele><time>2026-05-03T13:57:43.853Z</time></trkpt><trkpt lat="42.2420704" lon="12.6890504"><ele>292.3333333333333</ele><time>2026-05-03T13:57:45.848Z</time></trkpt><trkpt lat="42.2420229" lon="12.6889583"><ele>292.16666666666663</ele><time>2026-05-03T13:57:48.856Z</time></trkpt><trkpt lat="42.2419637" lon="12.6889206"><ele>292.0</ele><time>2026-05-03T13:57:55.864Z</time></trkpt><trkpt lat="42.2420241" lon="12.6889926"><ele>292.0</ele><time>2026-05-03T13:58:04.863Z</time></trkpt><trkpt lat="42.242189" lon="12.6891725"><ele>292.0</ele><time>2026-05-03T13:58:06.849Z</time></trkpt><trkpt lat="42.2423239" lon="12.6892721"><ele>292.0</ele><time>2026-05-03T13:58:07.855Z</time></trkpt><trkpt lat="42.2424516" lon="12.6893841"><ele>292.25</ele><time>2026-05-03T13:58:08.865Z</time></trkpt><trkpt lat="42.2425587" lon="12.6895053"><ele>292.5</ele><time>2026-05-03T13:58:09.858Z</time></trkpt><trkpt lat="42.2426508" lon="12.6895958"><ele>292.75</ele><time>2026-05-03T13:58:10.846Z</time></trkpt><trkpt lat="42.2427766" lon="12.689703"><ele>293.0</ele><time>2026-05-03T13:58:11.864Z</time></trkpt><trkpt lat="42.2429352" lon="12.6898443"><ele>293.0</ele><time>2026-05-03T13:58:12.859Z</time></trkpt><trkpt lat="42.2430988" lon="12.6899582"><ele>293.0</ele><time>2026-05-03T13:58:13.875Z</time></trkpt><trkpt lat="42.243304" lon="12.6901198"><ele>293.0</ele><time>2026-05-03T13:58:14.861Z</time></trkpt><trkpt lat="42.2435183" lon="12.690278"><ele>291.6666666666667</ele><time>2026-05-03T13:58:15.863Z</time></trkpt><trkpt lat="42.2437304" lon="12.6904302"><ele>290.3333333333333</ele><time>2026-05-03T13:58:16.858Z</time></trkpt><trkpt lat="42.2438734" lon="12.6905812"><ele>289.0</ele><time>2026-05-03T13:58:17.854Z</time></trkpt><trkpt lat="42.2439191" lon="12.690693"><ele>289.0</ele><time>2026-05-03T13:58:18.852Z</time></trkpt><trkpt lat="42.243815" lon="12.6906627"><ele>289.0</ele><time>2026-05-03T13:58:21.848Z</time></trkpt><trkpt lat="42.2436887" lon="12.6905836"><ele>289.0</ele><time>2026-05-03T13:58:23.846Z</time></trkpt><trkpt lat="42.2436238" lon="12.6905512"><ele>289.0</ele><time>2026-05-03T13:58:24.841Z</time></trkpt><trkpt lat="42.2435581" lon="12.6905354"><ele>289.0</ele><time>2026-05-03T13:58:25.849Z</time></trkpt><trkpt lat="42.243471" lon="12.690555"><ele>289.0</ele><time>2026-05-03T13:58:27.846Z</time></trkpt><trkpt lat="42.2433994" lon="12.6905548"><ele>289.0</ele><time>2026-05-03T13:58:29.843Z</time></trkpt><trkpt lat="42.243278" lon="12.6904889"><ele>289.0</ele><time>2026-05-03T13:58:31.849Z</time></trkpt><trkpt lat="42.2431954" lon="12.690443"><ele>289.0</ele><time>2026-05-03T13:58:32.851Z</time></trkpt><trkpt lat="42.2431167" lon="12.6903963"><ele>289.0</ele><time>2026-05-03T13:58:33.843Z</time></trkpt><trkpt lat="42.243048" lon="12.6903626"><ele>287.0</ele><time>2026-05-03T13:58:34.849Z</time></trkpt><trkpt lat="42.2429784" lon="12.6903404"><ele>285.0</ele><time>2026-05-03T13:58:35.843Z</time></trkpt><trkpt lat="42.2429141" lon="12.6903508"><ele>283.0</ele><time>2026-05-03T13:58:36.842Z</time></trkpt><trkpt lat="42.2428512" lon="12.6903661"><ele>281.0</ele><time>2026-05-03T13:58:37.851Z</time></trkpt><trkpt lat="42.2427876" lon="12.6903933"><ele>279.0</ele><time>2026-05-03T13:58:38.851Z</time></trkpt><trkpt lat="42.2427154" lon="12.6904337"><ele>277.0</ele><time>2026-05-03T13:58:39.847Z</time></trkpt><trkpt lat="42.2426491" lon="12.6904729"><ele>275.0</ele><time>2026-05-03T13:58:40.849Z</time></trkpt><trkpt lat="42.2425776" lon="12.6905083"><ele>275.0</ele><time>2026-05-03T13:58:41.852Z</time></trkpt><trkpt lat="42.2424987" lon="12.6905467"><ele>275.0</ele><time>2026-05-03T13:58:42.849Z</time></trkpt><trkpt lat="42.2424095" lon="12.6905893"><ele>275.0</ele><time>2026-05-03T13:58:43.849Z</time></trkpt><trkpt lat="42.2423411" lon="12.690596"><ele>275.0</ele><time>2026-05-03T13:58:44.859Z</time></trkpt><trkpt lat="42.24222" lon="12.6905931"><ele>275.0</ele><time>2026-05-03T13:58:46.851Z</time></trkpt><trkpt lat="42.2421559" lon="12.690581"><ele>275.0</ele><time>2026-05-03T13:58:47.853Z</time></trkpt><trkpt lat="42.2420874" lon="12.6905813"><ele>273.0</ele><time>2026-05-03T13:58:48.85Z</time></trkpt><trkpt lat="42.2420168" lon="12.6905632"><ele>271.0</ele><time>2026-05-03T13:58:49.854Z</time></trkpt><trkpt lat="42.2419511" lon="12.6905413"><ele>269.0</ele><time>2026-05-03T13:58:50.878Z</time></trkpt><trkpt lat="42.2418873" lon="12.6905073"><ele>267.0</ele><time>2026-05-03T13:58:51.878Z</time></trkpt><trkpt lat="42.2418238" lon="12.6904853"><ele>265.0</ele><time>2026-05-03T13:58:52.851Z</time></trkpt><trkpt lat="42.2417644" lon="12.6904424"><ele>263.0</ele><time>2026-05-03T13:58:53.851Z</time></trkpt><trkpt lat="42.2417089" lon="12.6904015"><ele>261.0</ele><time>2026-05-03T13:58:54.851Z</time></trkpt><trkpt lat="42.2416483" lon="12.6903668"><ele>261.0</ele><time>2026-05-03T13:58:55.85Z</time></trkpt><trkpt lat="42.241584" lon="12.6903358"><ele>261.0</ele><time>2026-05-03T13:58:56.877Z</time></trkpt><trkpt lat="42.241513" lon="12.6903221"><ele>261.0</ele><time>2026-05-03T13:58:57.877Z</time></trkpt><trkpt lat="42.2414284" lon="12.6903159"><ele>261.0</ele><time>2026-05-03T13:58:58.877Z</time></trkpt><trkpt lat="42.2413512" lon="12.6903316"><ele>261.0</ele><time>2026-05-03T13:58:59.855Z</time></trkpt><trkpt lat="42.2412662" lon="12.690352"><ele>261.0</ele><time>2026-05-03T13:59:00.851Z</time></trkpt><trkpt lat="42.2411747" lon="12.6903814"><ele>258.8</ele><time>2026-05-03T13:59:01.854Z</time></trkpt><trkpt lat="42.241079" lon="12.690403"><ele>256.6</ele><time>2026-05-03T13:59:02.849Z</time></trkpt><trkpt lat="42.2409909" lon="12.6904258"><ele>254.4</ele><time>2026-05-03T13:59:03.859Z</time></trkpt><trkpt lat="42.2409072" lon="12.6904338"><ele>252.2</ele><time>2026-05-03T13:59:04.857Z</time></trkpt><trkpt lat="42.2408409" lon="12.6904459"><ele>250.0</ele><time>2026-05-03T13:59:05.869Z</time></trkpt><trkpt lat="42.2406994" lon="12.6904501"><ele>249.16666666666666</ele><time>2026-05-03T13:59:07.875Z</time></trkpt><trkpt lat="42.2406136" lon="12.6904711"><ele>248.33333333333331</ele><time>2026-05-03T13:59:08.871Z</time></trkpt><trkpt lat="42.2405362" lon="12.6904961"><ele>247.5</ele><time>2026-05-03T13:59:09.849Z</time></trkpt><trkpt lat="42.240446" lon="12.6905131"><ele>246.66666666666669</ele><time>2026-05-03T13:59:10.85Z</time></trkpt><trkpt lat="42.2403639" lon="12.6905587"><ele>245.83333333333334</ele><time>2026-05-03T13:59:11.851Z</time></trkpt><trkpt lat="42.2402726" lon="12.690617"><ele>245.0</ele><time>2026-05-03T13:59:12.851Z</time></trkpt><trkpt lat="42.2401829" lon="12.6906698"><ele>245.0</ele><time>2026-05-03T13:59:13.877Z</time></trkpt><trkpt lat="42.2400911" lon="12.6907362"><ele>245.0</ele><time>2026-05-03T13:59:14.881Z</time></trkpt><trkpt lat="42.2400111" lon="12.6907997"><ele>245.0</ele><time>2026-05-03T13:59:15.879Z</time></trkpt><trkpt lat="42.2399343" lon="12.690846"><ele>245.0</ele><time>2026-05-03T13:59:16.884Z</time></trkpt><trkpt lat="42.2398483" lon="12.6908958"><ele>245.0</ele><time>2026-05-03T13:59:17.854Z</time></trkpt><trkpt lat="42.2397653" lon="12.6909472"><ele>242.6</ele><time>2026-05-03T13:59:18.861Z</time></trkpt><trkpt lat="42.2396837" lon="12.691014"><ele>240.2</ele><time>2026-05-03T13:59:19.855Z</time></trkpt><trkpt lat="42.2396133" lon="12.6910669"><ele>237.8</ele><time>2026-05-03T13:59:20.879Z</time></trkpt><trkpt lat="42.2395243" lon="12.6911553"><ele>235.4</ele><time>2026-05-03T13:59:22.858Z</time></trkpt><trkpt lat="42.2394456" lon="12.6912962"><ele>233.0</ele><time>2026-05-03T13:59:24.847Z</time></trkpt><trkpt lat="42.2394015" lon="12.6913888"><ele>231.83333333333334</ele><time>2026-05-03T13:59:25.869Z</time></trkpt><trkpt lat="42.2393449" lon="12.6914841"><ele>230.66666666666669</ele><time>2026-05-03T13:59:26.852Z</time></trkpt><trkpt lat="42.2392918" lon="12.6915714"><ele>229.5</ele><time>2026-05-03T13:59:27.879Z</time></trkpt><trkpt lat="42.2392445" lon="12.6916609"><ele>228.33333333333331</ele><time>2026-05-03T13:59:28.872Z</time></trkpt><trkpt lat="42.2392047" lon="12.6917334"><ele>227.16666666666666</ele><time>2026-05-03T13:59:29.851Z</time></trkpt><trkpt lat="42.2391531" lon="12.6918541"><ele>226.0</ele><time>2026-05-03T13:59:31.878Z</time></trkpt><trkpt lat="42.2390724" lon="12.6918842"><ele>226.0</ele><time>2026-05-03T13:59:33.852Z</time></trkpt><trkpt lat="42.239002" lon="12.6918595"><ele>226.00000000000003</ele><time>2026-05-03T13:59:34.856Z</time></trkpt><trkpt lat="42.2389361" lon="12.6918326"><ele>226.00000000000003</ele><time>2026-05-03T13:59:35.844Z</time></trkpt><trkpt lat="42.2388287" lon="12.6918697"><ele>226.0</ele><time>2026-05-03T13:59:37.846Z</time></trkpt><trkpt lat="42.2387346" lon="12.6919608"><ele>226.0</ele><time>2026-05-03T13:59:39.845Z</time></trkpt><trkpt lat="42.2386446" lon="12.6919973"><ele>221.16666666666666</ele><time>2026-05-03T13:59:41.861Z</time></trkpt><trkpt lat="42.2385825" lon="12.6919801"><ele>216.33333333333331</ele><time>2026-05-03T13:59:42.852Z</time></trkpt><trkpt lat="42.238498" lon="12.6919582"><ele>211.5</ele><time>2026-05-03T13:59:43.847Z</time></trkpt><trkpt lat="42.2384219" lon="12.6919537"><ele>206.66666666666669</ele><time>2026-05-03T13:59:44.844Z</time></trkpt><trkpt lat="42.2383182" lon="12.691951"><ele>201.83333333333334</ele><time>2026-05-03T13:59:45.855Z</time></trkpt><trkpt lat="42.238218" lon="12.6919564"><ele>197.0</ele><time>2026-05-03T13:59:46.849Z</time></trkpt><trkpt lat="42.2381361" lon="12.6919609"><ele>196.16666666666669</ele><time>2026-05-03T13:59:47.85Z</time></trkpt><trkpt lat="42.2380537" lon="12.6919799"><ele>195.33333333333334</ele><time>2026-05-03T13:59:48.849Z</time></trkpt><trkpt lat="42.2379604" lon="12.6919922"><ele>194.5</ele><time>2026-05-03T13:59:49.848Z</time></trkpt><trkpt lat="42.2378762" lon="12.6919815"><ele>193.66666666666669</ele><time>2026-05-03T13:59:50.855Z</time></trkpt><trkpt lat="42.2377884" lon="12.6919476"><ele>192.83333333333334</ele><time>2026-05-03T13:59:51.85Z</time></trkpt><trkpt lat="42.2377005" lon="12.6918974"><ele>192.0</ele><time>2026-05-03T13:59:52.878Z</time></trkpt><trkpt lat="42.237617" lon="12.6918376"><ele>192.33333333333334</ele><time>2026-05-03T13:59:53.848Z</time></trkpt><trkpt lat="42.2375306" lon="12.6917745"><ele>192.66666666666669</ele><time>2026-05-03T13:59:54.85Z</time></trkpt><trkpt lat="42.2374579" lon="12.6917134"><ele>193.0</ele><time>2026-05-03T13:59:55.876Z</time></trkpt><trkpt lat="42.2373963" lon="12.6916457"><ele>193.33333333333334</ele><time>2026-05-03T13:59:56.854Z</time></trkpt><trkpt lat="42.2373416" lon="12.6915716"><ele>193.66666666666669</ele><time>2026-05-03T13:59:57.933Z</time></trkpt><trkpt lat="42.2372971" lon="12.6914728"><ele>194.0</ele><time>2026-05-03T13:59:58.855Z</time></trkpt><trkpt lat="42.2372434" lon="12.691388"><ele>194.00000000000003</ele><time>2026-05-03T13:59:59.929Z</time></trkpt><trkpt lat="42.2371856" lon="12.6913178"><ele>194.0</ele><time>2026-05-03T14:00:00.854Z</time></trkpt><trkpt lat="42.2371262" lon="12.6912496"><ele>194.0</ele><time>2026-05-03T14:00:01.935Z</time></trkpt><trkpt lat="42.2370648" lon="12.6911732"><ele>194.0</ele><time>2026-05-03T14:00:03.016Z</time></trkpt><trkpt lat="42.2370054" lon="12.6911438"><ele>194.00000000000003</ele><time>2026-05-03T14:00:04.009Z</time></trkpt><trkpt lat="42.2369352" lon="12.691134"><ele>194.0</ele><time>2026-05-03T14:00:05.325Z</time></trkpt><trkpt lat="42.2367735" lon="12.6911395"><ele>194.0</ele><time>2026-05-03T14:00:06.953Z</time></trkpt><trkpt lat="42.2366303" lon="12.6911485"><ele>194.0</ele><time>2026-05-03T14:00:08.844Z</time></trkpt><trkpt lat="42.236544" lon="12.6911339"><ele>194.0</ele><time>2026-05-03T14:00:09.847Z</time></trkpt><trkpt lat="42.2364512" lon="12.691115"><ele>194.0</ele><time>2026-05-03T14:00:10.92Z</time></trkpt><trkpt lat="42.2363637" lon="12.6911074"><ele>194.0</ele><time>2026-05-03T14:00:11.92Z</time></trkpt><trkpt lat="42.2363026" lon="12.6911323"><ele>193.83333333333334</ele><time>2026-05-03T14:00:12.923Z</time></trkpt><trkpt lat="42.2361936" lon="12.6912303"><ele>193.66666666666669</ele><time>2026-05-03T14:00:14.896Z</time></trkpt><trkpt lat="42.2361404" lon="12.6912997"><ele>193.5</ele><time>2026-05-03T14:00:15.851Z</time></trkpt><trkpt lat="42.2360988" lon="12.6913768"><ele>193.33333333333331</ele><time>2026-05-03T14:00:16.872Z</time></trkpt><trkpt lat="42.23607" lon="12.6914648"><ele>193.16666666666666</ele><time>2026-05-03T14:00:17.858Z</time></trkpt><trkpt lat="42.2360122" lon="12.6915753"><ele>193.0</ele><time>2026-05-03T14:00:19.939Z</time></trkpt><trkpt lat="42.2359054" lon="12.6916814"><ele>193.0</ele><time>2026-05-03T14:00:22.175Z</time></trkpt><trkpt lat="42.2358158" lon="12.6917101"><ele>193.0</ele><time>2026-05-03T14:00:23.172Z</time></trkpt><trkpt lat="42.2357301" lon="12.6917206"><ele>193.0</ele><time>2026-05-03T14:00:24.179Z</time></trkpt><trkpt lat="42.235663" lon="12.6917293"><ele>193.0</ele><time>2026-05-03T14:00:25.179Z</time></trkpt><trkpt lat="42.235542" lon="12.6917402"><ele>193.0</ele><time>2026-05-03T14:00:27.017Z</time></trkpt><trkpt lat="42.2354195" lon="12.6917635"><ele>192.5</ele><time>2026-05-03T14:00:29.171Z</time></trkpt><trkpt lat="42.2352563" lon="12.6918343"><ele>192.0</ele><time>2026-05-03T14:00:31.018Z</time></trkpt><trkpt lat="42.2351604" lon="12.6918805"><ele>191.5</ele><time>2026-05-03T14:00:32.021Z</time></trkpt><trkpt lat="42.235068" lon="12.6919299"><ele>191.0</ele><time>2026-05-03T14:00:33.014Z</time></trkpt><trkpt lat="42.23498" lon="12.6919813"><ele>186.8</ele><time>2026-05-03T14:00:34.027Z</time></trkpt><trkpt lat="42.2348917" lon="12.6920218"><ele>182.60000000000002</ele><time>2026-05-03T14:00:35.176Z</time></trkpt><trkpt lat="42.2348015" lon="12.6920645"><ele>178.4</ele><time>2026-05-03T14:00:36.335Z</time></trkpt><trkpt lat="42.2347278" lon="12.6921025"><ele>174.2</ele><time>2026-05-03T14:00:37.34Z</time></trkpt><trkpt lat="42.2345719" lon="12.6921739"><ele>170.0</ele><time>2026-05-03T14:00:39.333Z</time></trkpt><trkpt lat="42.2343969" lon="12.6922201"><ele>168.0</ele><time>2026-05-03T14:00:41.174Z</time></trkpt><trkpt lat="42.2343014" lon="12.69223"><ele>166.0</ele><time>2026-05-03T14:00:42.334Z</time></trkpt><trkpt lat="42.2342107" lon="12.6922382"><ele>164.0</ele><time>2026-05-03T14:00:43.34Z</time></trkpt><trkpt lat="42.234002" lon="12.6922305"><ele>162.0</ele><time>2026-05-03T14:00:46.024Z</time></trkpt><trkpt lat="42.233925" lon="12.6922094"><ele>158.2</ele><time>2026-05-03T14:00:47.026Z</time></trkpt><trkpt lat="42.2337724" lon="12.6921563"><ele>154.39999999999998</ele><time>2026-05-03T14:00:48.875Z</time></trkpt><trkpt lat="42.2337002" lon="12.6921138"><ele>150.60000000000002</ele><time>2026-05-03T14:00:49.868Z</time></trkpt><trkpt lat="42.2336326" lon="12.6920726"><ele>146.8</ele><time>2026-05-03T14:00:50.873Z</time></trkpt><trkpt lat="42.2335731" lon="12.6920376"><ele>143.0</ele><time>2026-05-03T14:00:52.193Z</time></trkpt><trkpt lat="42.2334727" lon="12.6919924"><ele>143.0</ele><time>2026-05-03T14:00:53.869Z</time></trkpt><trkpt lat="42.2334127" lon="12.6919587"><ele>143.0</ele><time>2026-05-03T14:00:55.867Z</time></trkpt><trkpt lat="42.2335045" lon="12.6922308"><ele>143.0</ele><time>2026-05-03T14:01:03.876Z</time></trkpt><trkpt lat="42.2335555" lon="12.6923341"><ele>143.0</ele><time>2026-05-03T14:01:04.897Z</time></trkpt><trkpt lat="42.2336574" lon="12.6924432"><ele>143.0</ele><time>2026-05-03T14:01:05.888Z</time></trkpt><trkpt lat="42.2337782" lon="12.6925555"><ele>143.0</ele><time>2026-05-03T14:01:06.889Z</time></trkpt><trkpt lat="42.2339208" lon="12.6926449"><ele>143.0</ele><time>2026-05-03T14:01:07.897Z</time></trkpt><trkpt lat="42.2340208" lon="12.6927608"><ele>143.0</ele><time>2026-05-03T14:01:08.891Z</time></trkpt><trkpt lat="42.2343931" lon="12.6931126"><ele>143.5</ele><time>2026-05-03T14:01:10.896Z</time></trkpt><trkpt lat="42.2345855" lon="12.6934416"><ele>144.0</ele><time>2026-05-03T14:01:12.566Z</time></trkpt><trkpt lat="42.2346804" lon="12.6936164"><ele>145.0</ele><time>2026-05-03T14:01:13.733Z</time></trkpt><trkpt lat="42.2347521" lon="12.6937546"><ele>146.0</ele><time>2026-05-03T14:01:14.729Z</time></trkpt><trkpt lat="42.2348787" lon="12.6940691"><ele>147.0</ele><time>2026-05-03T14:01:16.733Z</time></trkpt><trkpt lat="42.2349834" lon="12.6941543"><ele>147.0</ele><time>2026-05-03T14:01:17.896Z</time></trkpt><trkpt lat="42.2350812" lon="12.6942343"><ele>147.0</ele><time>2026-05-03T14:01:18.895Z</time></trkpt><trkpt lat="42.2351727" lon="12.6943256"><ele>147.0</ele><time>2026-05-03T14:01:19.893Z</time></trkpt><trkpt lat="42.2352825" lon="12.6943842"><ele>147.0</ele><time>2026-05-03T14:01:20.887Z</time></trkpt><trkpt lat="42.2353583" lon="12.694472"><ele>147.0</ele><time>2026-05-03T14:01:21.883Z</time></trkpt><trkpt lat="42.2353957" lon="12.6947068"><ele>145.0</ele><time>2026-05-03T14:01:23.41Z</time></trkpt><trkpt lat="42.2353733" lon="12.6948707"><ele>143.0</ele><time>2026-05-03T14:01:24.407Z</time></trkpt><trkpt lat="42.2353425" lon="12.6950232"><ele>141.0</ele><time>2026-05-03T14:01:25.415Z</time></trkpt><trkpt lat="42.2353078" lon="12.6951742"><ele>139.0</ele><time>2026-05-03T14:01:26.568Z</time></trkpt><trkpt lat="42.2352825" lon="12.6953181"><ele>137.33333333333334</ele><time>2026-05-03T14:01:27.567Z</time></trkpt><trkpt lat="42.2352414" lon="12.6954537"><ele>135.66666666666666</ele><time>2026-05-03T14:01:28.899Z</time></trkpt><trkpt lat="42.2353316" lon="12.6957658"><ele>134.0</ele><time>2026-05-03T14:01:30.573Z</time></trkpt><trkpt lat="42.2353883" lon="12.6959052"><ele>133.66666666666666</ele><time>2026-05-03T14:01:31.632Z</time></trkpt><trkpt lat="42.2355027" lon="12.6961407"><ele>133.33333333333334</ele><time>2026-05-03T14:01:33.585Z</time></trkpt><trkpt lat="42.2355781" lon="12.6962196"><ele>133.0</ele><time>2026-05-03T14:01:34.495Z</time></trkpt><trkpt lat="42.235794" lon="12.6963792"><ele>133.0</ele><time>2026-05-03T14:01:36.181Z</time></trkpt><trkpt lat="42.2359266" lon="12.6964287"><ele>133.0</ele><time>2026-05-03T14:01:37.187Z</time></trkpt><trkpt lat="42.2362034" lon="12.6964336"><ele>133.0</ele><time>2026-05-03T14:01:39.346Z</time></trkpt><trkpt lat="42.2363252" lon="12.696398"><ele>133.0</ele><time>2026-05-03T14:01:40.342Z</time></trkpt><trkpt lat="42.2364203" lon="12.6963762"><ele>133.0</ele><time>2026-05-03T14:01:41.34Z</time></trkpt><trkpt lat="42.2365085" lon="12.6963612"><ele>133.0</ele><time>2026-05-03T14:01:42.489Z</time></trkpt><trkpt lat="42.2365613" lon="12.696305"><ele>133.0</ele><time>2026-05-03T14:01:46.342Z</time></trkpt><trkpt lat="42.236512" lon="12.6962477"><ele>133.0</ele><time>2026-05-03T14:01:48.498Z</time></trkpt><trkpt lat="42.236419" lon="12.6962519"><ele>133.0</ele><time>2026-05-03T14:01:50.345Z</time></trkpt><trkpt lat="42.2362996" lon="12.6962868"><ele>133.0</ele><time>2026-05-03T14:01:52.337Z</time></trkpt><trkpt lat="42.2363421" lon="12.6961757"><ele>133.0</ele><time>2026-05-03T14:02:18.178Z</time></trkpt><trkpt lat="42.2364053" lon="12.6961778"><ele>133.0</ele><time>2026-05-03T14:02:19.493Z</time></trkpt><trkpt lat="42.2365943" lon="12.6961854"><ele>133.0</ele><time>2026-05-03T14:02:21.513Z</time></trkpt><trkpt lat="42.2368098" lon="12.6961096"><ele>136.66666666666669</ele><time>2026-05-03T14:02:23.175Z</time></trkpt><trkpt lat="42.236924" lon="12.6960564"><ele>140.33333333333334</ele><time>2026-05-03T14:02:24.338Z</time></trkpt><trkpt lat="42.2371392" lon="12.6959639"><ele>144.0</ele><time>2026-05-03T14:02:26.179Z</time></trkpt><trkpt lat="42.2372428" lon="12.6959492"><ele>143.0</ele><time>2026-05-03T14:02:27.344Z</time></trkpt><trkpt lat="42.2374371" lon="12.6960654"><ele>142.0</ele><time>2026-05-03T14:02:29.333Z</time></trkpt><trkpt lat="42.2375344" lon="12.6961823"><ele>141.0</ele><time>2026-05-03T14:02:30.325Z</time></trkpt><trkpt lat="42.2376236" lon="12.6963061"><ele>138.25</ele><time>2026-05-03T14:02:31.489Z</time></trkpt><trkpt lat="42.2377066" lon="12.6964405"><ele>135.5</ele><time>2026-05-03T14:02:32.49Z</time></trkpt><trkpt lat="42.2377957" lon="12.6965708"><ele>132.75</ele><time>2026-05-03T14:02:33.491Z</time></trkpt><trkpt lat="42.2378891" lon="12.6966532"><ele>130.0</ele><time>2026-05-03T14:02:34.493Z</time></trkpt><trkpt lat="42.2379841" lon="12.6967209"><ele>131.33333333333334</ele><time>2026-05-03T14:02:35.494Z</time></trkpt><trkpt lat="42.238179" lon="12.6968424"><ele>132.66666666666666</ele><time>2026-05-03T14:02:37.474Z</time></trkpt><trkpt lat="42.2383307" lon="12.6969714"><ele>134.0</ele><time>2026-05-03T14:02:39.342Z</time></trkpt><trkpt lat="42.238404" lon="12.6971442"><ele>134.0</ele><time>2026-05-03T14:02:41.173Z</time></trkpt><trkpt lat="42.2383717" lon="12.6972775"><ele>134.0</ele><time>2026-05-03T14:02:42.337Z</time></trkpt><trkpt lat="42.2382251" lon="12.6975802"><ele>134.0</ele><time>2026-05-03T14:02:44.174Z</time></trkpt><trkpt lat="42.2381124" lon="12.6978087"><ele>121.0</ele><time>2026-05-03T14:02:45.338Z</time></trkpt><trkpt lat="42.23784" lon="12.6984115"><ele>121.33333333333334</ele><time>2026-05-03T14:02:47.018Z</time></trkpt><trkpt lat="42.2377292" lon="12.698643"><ele>121.66666666666666</ele><time>2026-05-03T14:02:47.947Z</time></trkpt><trkpt lat="42.2376403" lon="12.6988335"><ele>122.0</ele><time>2026-05-03T14:02:49.344Z</time></trkpt><trkpt lat="42.2375112" lon="12.699179"><ele>122.0</ele><time>2026-05-03T14:02:51.497Z</time></trkpt><trkpt lat="42.2374825" lon="12.6993269"><ele>122.0</ele><time>2026-05-03T14:02:52.661Z</time></trkpt><trkpt lat="42.2375306" lon="12.6997173"><ele>122.0</ele><time>2026-05-03T14:02:53.931Z</time></trkpt><trkpt lat="42.237627" lon="12.6998906"><ele>121.0</ele><time>2026-05-03T14:02:54.888Z</time></trkpt><trkpt lat="42.2377399" lon="12.7000258"><ele>120.0</ele><time>2026-05-03T14:02:55.86Z</time></trkpt><trkpt lat="42.2378492" lon="12.7001233"><ele>119.0</ele><time>2026-05-03T14:02:56.895Z</time></trkpt><trkpt lat="42.2379393" lon="12.7002314"><ele>118.0</ele><time>2026-05-03T14:02:57.86Z</time></trkpt><trkpt lat="42.2379984" lon="12.7003555"><ele>116.33333333333334</ele><time>2026-05-03T14:02:58.861Z</time></trkpt><trkpt lat="42.2379888" lon="12.7005079"><ele>114.66666666666666</ele><time>2026-05-03T14:02:59.885Z</time></trkpt><trkpt lat="42.2378181" lon="12.7008889"><ele>113.0</ele><time>2026-05-03T14:03:01.86Z</time></trkpt><trkpt lat="42.2376893" lon="12.7011345"><ele>112.0</ele><time>2026-05-03T14:03:02.858Z</time></trkpt><trkpt lat="42.237587" lon="12.7013604"><ele>111.0</ele><time>2026-05-03T14:03:03.855Z</time></trkpt><trkpt lat="42.2374907" lon="12.7015748"><ele>110.0</ele><time>2026-05-03T14:03:04.861Z</time></trkpt><trkpt lat="42.2374119" lon="12.7017742"><ele>109.0</ele><time>2026-05-03T14:03:05.854Z</time></trkpt><trkpt lat="42.2373174" lon="12.7019669"><ele>108.0</ele><time>2026-05-03T14:03:06.847Z</time></trkpt><trkpt lat="42.2371935" lon="12.7021542"><ele>107.0</ele><time>2026-05-03T14:03:07.851Z</time></trkpt><trkpt lat="42.2370496" lon="12.7022961"><ele>106.0</ele><time>2026-05-03T14:03:08.85Z</time></trkpt><trkpt lat="42.2369092" lon="12.7023803"><ele>105.0</ele><time>2026-05-03T14:03:09.857Z</time></trkpt><trkpt lat="42.2367579" lon="12.702491"><ele>104.0</ele><time>2026-05-03T14:03:10.863Z</time></trkpt><trkpt lat="42.2366012" lon="12.7026358"><ele>102.66666666666666</ele><time>2026-05-03T14:03:11.861Z</time></trkpt><trkpt lat="42.2364455" lon="12.7027738"><ele>101.33333333333334</ele><time>2026-05-03T14:03:12.861Z</time></trkpt><trkpt lat="42.2362864" lon="12.7029334"><ele>100.0</ele><time>2026-05-03T14:03:13.864Z</time></trkpt><trkpt lat="42.2360993" lon="12.7030849"><ele>100.0</ele><time>2026-05-03T14:03:14.864Z</time></trkpt><trkpt lat="42.2359019" lon="12.703267"><ele>100.0</ele><time>2026-05-03T14:03:15.861Z</time></trkpt><trkpt lat="42.2357353" lon="12.7034516"><ele>99.33333333333334</ele><time>2026-05-03T14:03:16.886Z</time></trkpt><trkpt lat="42.2355689" lon="12.7036333"><ele>98.66666666666666</ele><time>2026-05-03T14:03:17.886Z</time></trkpt><trkpt lat="42.235382" lon="12.7038228"><ele>98.0</ele><time>2026-05-03T14:03:18.886Z</time></trkpt><trkpt lat="42.2351888" lon="12.7040209"><ele>98.0</ele><time>2026-05-03T14:03:19.886Z</time></trkpt><trkpt lat="42.2350118" lon="12.7042129"><ele>98.0</ele><time>2026-05-03T14:03:20.884Z</time></trkpt><trkpt lat="42.2348507" lon="12.7043761"><ele>98.0</ele><time>2026-05-03T14:03:21.888Z</time></trkpt><trkpt lat="42.2346957" lon="12.7045415"><ele>98.0</ele><time>2026-05-03T14:03:22.858Z</time></trkpt><trkpt lat="42.2345539" lon="12.704684"><ele>98.0</ele><time>2026-05-03T14:03:23.862Z</time></trkpt><trkpt lat="42.2344098" lon="12.7048133"><ele>98.0</ele><time>2026-05-03T14:03:24.859Z</time></trkpt><trkpt lat="42.2342385" lon="12.7049725"><ele>98.0</ele><time>2026-05-03T14:03:25.862Z</time></trkpt><trkpt lat="42.2340768" lon="12.7051276"><ele>98.0</ele><time>2026-05-03T14:03:26.865Z</time></trkpt><trkpt lat="42.2339281" lon="12.7052707"><ele>98.0</ele><time>2026-05-03T14:03:27.864Z</time></trkpt><trkpt lat="42.2337793" lon="12.7054328"><ele>99.66666666666666</ele><time>2026-05-03T14:03:28.867Z</time></trkpt><trkpt lat="42.2336419" lon="12.7055803"><ele>101.33333333333334</ele><time>2026-05-03T14:03:29.867Z</time></trkpt><trkpt lat="42.2335085" lon="12.7057198"><ele>103.0</ele><time>2026-05-03T14:03:30.881Z</time></trkpt><trkpt lat="42.2333816" lon="12.7058509"><ele>103.0</ele><time>2026-05-03T14:03:31.89Z</time></trkpt><trkpt lat="42.2332413" lon="12.7059679"><ele>103.0</ele><time>2026-05-03T14:03:32.878Z</time></trkpt><trkpt lat="42.2330737" lon="12.7060449"><ele>103.0</ele><time>2026-05-03T14:03:33.87Z</time></trkpt><trkpt lat="42.2329065" lon="12.7060571"><ele>102.0</ele><time>2026-05-03T14:03:34.891Z</time></trkpt><trkpt lat="42.23274" lon="12.7060575"><ele>101.0</ele><time>2026-05-03T14:03:35.863Z</time></trkpt><trkpt lat="42.2326002" lon="12.7060933"><ele>100.0</ele><time>2026-05-03T14:03:36.894Z</time></trkpt><trkpt lat="42.2324625" lon="12.706167"><ele>101.33333333333334</ele><time>2026-05-03T14:03:37.86Z</time></trkpt><trkpt lat="42.2322971" lon="12.7063486"><ele>102.66666666666666</ele><time>2026-05-03T14:03:38.852Z</time></trkpt><trkpt lat="42.2321343" lon="12.7065588"><ele>104.0</ele><time>2026-05-03T14:03:39.857Z</time></trkpt><trkpt lat="42.2319542" lon="12.7068136"><ele>107.0</ele><time>2026-05-03T14:03:40.857Z</time></trkpt><trkpt lat="42.2317761" lon="12.7070327"><ele>110.0</ele><time>2026-05-03T14:03:41.85Z</time></trkpt><trkpt lat="42.2316106" lon="12.7072233"><ele>108.33333333333333</ele><time>2026-05-03T14:03:42.849Z</time></trkpt><trkpt lat="42.2314584" lon="12.7074114"><ele>106.66666666666666</ele><time>2026-05-03T14:03:43.85Z</time></trkpt><trkpt lat="42.2313406" lon="12.7075721"><ele>105.0</ele><time>2026-05-03T14:03:44.852Z</time></trkpt><trkpt lat="42.2312286" lon="12.7077246"><ele>106.75</ele><time>2026-05-03T14:03:45.852Z</time></trkpt><trkpt lat="42.2311186" lon="12.7078349"><ele>108.5</ele><time>2026-05-03T14:03:46.858Z</time></trkpt><trkpt lat="42.2310339" lon="12.7078862"><ele>110.25</ele><time>2026-05-03T14:03:47.862Z</time></trkpt><trkpt lat="42.2309238" lon="12.7079249"><ele>112.0</ele><time>2026-05-03T14:03:48.865Z</time></trkpt><trkpt lat="42.2308055" lon="12.707888"><ele>110.33333333333334</ele><time>2026-05-03T14:03:49.855Z</time></trkpt><trkpt lat="42.2306175" lon="12.7078374"><ele>108.66666666666666</ele><time>2026-05-03T14:03:50.863Z</time></trkpt><trkpt lat="42.2304368" lon="12.7077731"><ele>107.0</ele><time>2026-05-03T14:03:51.86Z</time></trkpt><trkpt lat="42.2302359" lon="12.7077413"><ele>105.33333333333333</ele><time>2026-05-03T14:03:52.857Z</time></trkpt><trkpt lat="42.2300544" lon="12.7077037"><ele>103.66666666666666</ele><time>2026-05-03T14:03:53.865Z</time></trkpt><trkpt lat="42.2298789" lon="12.7077259"><ele>102.0</ele><time>2026-05-03T14:03:54.857Z</time></trkpt><trkpt lat="42.2297072" lon="12.7077283"><ele>101.5</ele><time>2026-05-03T14:03:55.883Z</time></trkpt><trkpt lat="42.2295734" lon="12.7077024"><ele>101.0</ele><time>2026-05-03T14:03:56.871Z</time></trkpt><trkpt lat="42.2294473" lon="12.7076514"><ele>100.5</ele><time>2026-05-03T14:03:57.879Z</time></trkpt><trkpt lat="42.2293149" lon="12.707549"><ele>100.0</ele><time>2026-05-03T14:03:58.852Z</time></trkpt><trkpt lat="42.2291953" lon="12.7074456"><ele>100.0</ele><time>2026-05-03T14:03:59.857Z</time></trkpt><trkpt lat="42.2290801" lon="12.707301"><ele>100.0</ele><time>2026-05-03T14:04:00.85Z</time></trkpt><trkpt lat="42.2289283" lon="12.7071265"><ele>100.0</ele><time>2026-05-03T14:04:01.858Z</time></trkpt><trkpt lat="42.2287893" lon="12.7069425"><ele>99.0</ele><time>2026-05-03T14:04:02.854Z</time></trkpt><trkpt lat="42.2286414" lon="12.7067494"><ele>98.0</ele><time>2026-05-03T14:04:03.849Z</time></trkpt><trkpt lat="42.2284896" lon="12.7065657"><ele>97.0</ele><time>2026-05-03T14:04:04.859Z</time></trkpt><trkpt lat="42.2283401" lon="12.7063707"><ele>97.0</ele><time>2026-05-03T14:04:05.852Z</time></trkpt><trkpt lat="42.2282026" lon="12.7061901"><ele>97.0</ele><time>2026-05-03T14:04:06.85Z</time></trkpt><trkpt lat="42.2280779" lon="12.7060425"><ele>97.0</ele><time>2026-05-03T14:04:07.852Z</time></trkpt><trkpt lat="42.2279533" lon="12.7059068"><ele>97.25</ele><time>2026-05-03T14:04:08.866Z</time></trkpt><trkpt lat="42.2278312" lon="12.7057726"><ele>97.5</ele><time>2026-05-03T14:04:09.861Z</time></trkpt><trkpt lat="42.2277065" lon="12.7056593"><ele>97.75</ele><time>2026-05-03T14:04:10.888Z</time></trkpt><trkpt lat="42.2275995" lon="12.7055354"><ele>98.0</ele><time>2026-05-03T14:04:11.878Z</time></trkpt><trkpt lat="42.2274932" lon="12.7054159"><ele>98.0</ele><time>2026-05-03T14:04:12.86Z</time></trkpt><trkpt lat="42.2274087" lon="12.7053096"><ele>98.0</ele><time>2026-05-03T14:04:13.877Z</time></trkpt><trkpt lat="42.2273193" lon="12.7051751"><ele>98.0</ele><time>2026-05-03T14:04:14.858Z</time></trkpt><trkpt lat="42.2272165" lon="12.7050415"><ele>98.0</ele><time>2026-05-03T14:04:15.875Z</time></trkpt><trkpt lat="42.227144" lon="12.7049107"><ele>98.75</ele><time>2026-05-03T14:04:16.91Z</time></trkpt><trkpt lat="42.2270464" lon="12.7047868"><ele>99.5</ele><time>2026-05-03T14:04:17.881Z</time></trkpt><trkpt lat="42.2269432" lon="12.7046769"><ele>100.25</ele><time>2026-05-03T14:04:18.859Z</time></trkpt><trkpt lat="42.2268558" lon="12.7045702"><ele>101.0</ele><time>2026-05-03T14:04:19.867Z</time></trkpt><trkpt lat="42.226784" lon="12.7044796"><ele>101.6</ele><time>2026-05-03T14:04:20.863Z</time></trkpt><trkpt lat="42.226728" lon="12.7043984"><ele>102.19999999999999</ele><time>2026-05-03T14:04:21.873Z</time></trkpt><trkpt lat="42.2266648" lon="12.7042738"><ele>102.80000000000001</ele><time>2026-05-03T14:04:23.857Z</time></trkpt><trkpt lat="42.2266857" lon="12.7041305"><ele>103.4</ele><time>2026-05-03T14:04:25.86Z</time></trkpt><trkpt lat="42.2267323" lon="12.7040462"><ele>104.0</ele><time>2026-05-03T14:04:26.851Z</time></trkpt><trkpt lat="42.2267787" lon="12.7039566"><ele>104.0</ele><time>2026-05-03T14:04:27.857Z</time></trkpt><trkpt lat="42.2268221" lon="12.703847"><ele>104.0</ele><time>2026-05-03T14:04:28.858Z</time></trkpt><trkpt lat="42.2268463" lon="12.7037367"><ele>104.0</ele><time>2026-05-03T14:04:29.86Z</time></trkpt><trkpt lat="42.2268311" lon="12.7036097"><ele>104.0</ele><time>2026-05-03T14:04:30.857Z</time></trkpt><trkpt lat="42.2268002" lon="12.7034851"><ele>104.0</ele><time>2026-05-03T14:04:31.856Z</time></trkpt><trkpt lat="42.226758" lon="12.7033675"><ele>105.6</ele><time>2026-05-03T14:04:32.857Z</time></trkpt><trkpt lat="42.2267151" lon="12.7032343"><ele>107.2</ele><time>2026-05-03T14:04:33.862Z</time></trkpt><trkpt lat="42.2266912" lon="12.7031296"><ele>108.79999999999998</ele><time>2026-05-03T14:04:34.858Z</time></trkpt><trkpt lat="42.2266826" lon="12.703017"><ele>110.39999999999999</ele><time>2026-05-03T14:04:35.857Z</time></trkpt><trkpt lat="42.2266945" lon="12.702902"><ele>112.0</ele><time>2026-05-03T14:04:36.848Z</time></trkpt><trkpt lat="42.226712" lon="12.7027663"><ele>112.8</ele><time>2026-05-03T14:04:37.859Z</time></trkpt><trkpt lat="42.2267506" lon="12.7026248"><ele>113.6</ele><time>2026-05-03T14:04:38.857Z</time></trkpt><trkpt lat="42.2268009" lon="12.7024908"><ele>114.39999999999999</ele><time>2026-05-03T14:04:39.859Z</time></trkpt><trkpt lat="42.2268509" lon="12.7023681"><ele>115.19999999999999</ele><time>2026-05-03T14:04:40.858Z</time></trkpt><trkpt lat="42.2269047" lon="12.7022199"><ele>116.0</ele><time>2026-05-03T14:04:41.873Z</time></trkpt><trkpt lat="42.2269137" lon="12.7021127"><ele>116.0</ele><time>2026-05-03T14:04:42.873Z</time></trkpt><trkpt lat="42.2268519" lon="12.702078"><ele>116.0</ele><time>2026-05-03T14:04:43.866Z</time></trkpt><trkpt lat="42.2267709" lon="12.7020808"><ele>116.0</ele><time>2026-05-03T14:04:44.88Z</time></trkpt><trkpt lat="42.2266903" lon="12.7021365"><ele>116.0</ele><time>2026-05-03T14:04:45.869Z</time></trkpt><trkpt lat="42.2266102" lon="12.7022493"><ele>116.0</ele><time>2026-05-03T14:04:46.865Z</time></trkpt><trkpt lat="42.2265348" lon="12.7024275"><ele>118.0</ele><time>2026-05-03T14:04:47.859Z</time></trkpt><trkpt lat="42.2264453" lon="12.7026372"><ele>120.0</ele><time>2026-05-03T14:04:48.855Z</time></trkpt><trkpt lat="42.226334" lon="12.7028617"><ele>122.0</ele><time>2026-05-03T14:04:49.88Z</time></trkpt><trkpt lat="42.2261984" lon="12.7031409"><ele>122.0</ele><time>2026-05-03T14:04:50.889Z</time></trkpt><trkpt lat="42.2260313" lon="12.7034031"><ele>122.0</ele><time>2026-05-03T14:04:51.88Z</time></trkpt><trkpt lat="42.2258784" lon="12.7036102"><ele>119.33333333333333</ele><time>2026-05-03T14:04:52.853Z</time></trkpt><trkpt lat="42.2257179" lon="12.7037012"><ele>116.66666666666666</ele><time>2026-05-03T14:04:53.852Z</time></trkpt><trkpt lat="42.2255424" lon="12.7037489"><ele>114.0</ele><time>2026-05-03T14:04:54.851Z</time></trkpt><trkpt lat="42.22537" lon="12.7037988"><ele>121.5</ele><time>2026-05-03T14:04:55.848Z</time></trkpt><trkpt lat="42.2252436" lon="12.7038329"><ele>129.0</ele><time>2026-05-03T14:04:56.85Z</time></trkpt><trkpt lat="42.225105" lon="12.7038547"><ele>136.5</ele><time>2026-05-03T14:04:57.848Z</time></trkpt><trkpt lat="42.225005" lon="12.703888"><ele>144.0</ele><time>2026-05-03T14:04:58.85Z</time></trkpt><trkpt lat="42.2249308" lon="12.7039494"><ele>144.0</ele><time>2026-05-03T14:04:59.852Z</time></trkpt><trkpt lat="42.2248747" lon="12.7040494"><ele>144.0</ele><time>2026-05-03T14:05:00.853Z</time></trkpt><trkpt lat="42.2249201" lon="12.7041977"><ele>144.0</ele><time>2026-05-03T14:05:01.849Z</time></trkpt><trkpt lat="42.224901" lon="12.704311"><ele>144.0</ele><time>2026-05-03T14:05:02.875Z</time></trkpt><trkpt lat="42.2250134" lon="12.7044891"><ele>146.66666666666666</ele><time>2026-05-03T14:05:04.177Z</time></trkpt><trkpt lat="42.2251177" lon="12.7048615"><ele>149.33333333333331</ele><time>2026-05-03T14:05:05.853Z</time></trkpt><trkpt lat="42.2251326" lon="12.7050546"><ele>152.0</ele><time>2026-05-03T14:05:06.848Z</time></trkpt><trkpt lat="42.2251173" lon="12.7052477"><ele>153.0</ele><time>2026-05-03T14:05:07.85Z</time></trkpt><trkpt lat="42.2250535" lon="12.7054598"><ele>154.0</ele><time>2026-05-03T14:05:09.019Z</time></trkpt><trkpt lat="42.2250183" lon="12.7056532"><ele>155.0</ele><time>2026-05-03T14:05:10.172Z</time></trkpt><trkpt lat="42.2249863" lon="12.7060241"><ele>159.66666666666666</ele><time>2026-05-03T14:05:12.167Z</time></trkpt><trkpt lat="42.2249755" lon="12.7062073"><ele>164.33333333333334</ele><time>2026-05-03T14:05:13.251Z</time></trkpt><trkpt lat="42.2250002" lon="12.7063902"><ele>169.0</ele><time>2026-05-03T14:05:14.169Z</time></trkpt><trkpt lat="42.2250755" lon="12.7066065"><ele>169.0</ele><time>2026-05-03T14:05:15.171Z</time></trkpt><trkpt lat="42.2251579" lon="12.7068652"><ele>169.0</ele><time>2026-05-03T14:05:16.332Z</time></trkpt><trkpt lat="42.2252289" lon="12.7070982"><ele>169.0</ele><time>2026-05-03T14:05:17.329Z</time></trkpt><trkpt lat="42.2253808" lon="12.7077015"><ele>186.5</ele><time>2026-05-03T14:05:19.173Z</time></trkpt><trkpt lat="42.2254504" lon="12.7079409"><ele>204.0</ele><time>2026-05-03T14:05:20.169Z</time></trkpt><trkpt lat="42.2255571" lon="12.7083083"><ele>204.0</ele><time>2026-05-03T14:05:22.009Z</time></trkpt><trkpt lat="42.2256217" lon="12.7084463"><ele>204.0</ele><time>2026-05-03T14:05:23.009Z</time></trkpt><trkpt lat="42.2256942" lon="12.708577"><ele>204.0</ele><time>2026-05-03T14:05:24.176Z</time></trkpt><trkpt lat="42.225753" lon="12.7088703"><ele>190.5</ele><time>2026-05-03T14:05:25.855Z</time></trkpt><trkpt lat="42.2257774" lon="12.7090219"><ele>177.0</ele><time>2026-05-03T14:05:26.855Z</time></trkpt><trkpt lat="42.2257876" lon="12.7091776"><ele>163.5</ele><time>2026-05-03T14:05:27.851Z</time></trkpt><trkpt lat="42.2257776" lon="12.7093682"><ele>150.0</ele><time>2026-05-03T14:05:28.851Z</time></trkpt><trkpt lat="42.2257504" lon="12.7095697"><ele>148.5</ele><time>2026-05-03T14:05:29.852Z</time></trkpt><trkpt lat="42.2257148" lon="12.7098041"><ele>147.0</ele><time>2026-05-03T14:05:31.166Z</time></trkpt><trkpt lat="42.2255998" lon="12.7104113"><ele>155.66666666666666</ele><time>2026-05-03T14:05:33.014Z</time></trkpt><trkpt lat="42.2255311" lon="12.710685"><ele>164.33333333333331</ele><time>2026-05-03T14:05:34.01Z</time></trkpt><trkpt lat="42.2254629" lon="12.7109335"><ele>173.0</ele><time>2026-05-03T14:05:35.078Z</time></trkpt><trkpt lat="42.2252672" lon="12.7113885"><ele>173.0</ele><time>2026-05-03T14:05:36.856Z</time></trkpt><trkpt lat="42.2251361" lon="12.7116549"><ele>173.0</ele><time>2026-05-03T14:05:37.857Z</time></trkpt><trkpt lat="42.2250102" lon="12.7119072"><ele>165.0</ele><time>2026-05-03T14:05:38.859Z</time></trkpt><trkpt lat="42.2248682" lon="12.7121823"><ele>157.0</ele><time>2026-05-03T14:05:40.026Z</time></trkpt><trkpt lat="42.2247481" lon="12.7124729"><ele>167.33333333333334</ele><time>2026-05-03T14:05:40.882Z</time></trkpt><trkpt lat="42.2246582" lon="12.7126592"><ele>177.66666666666666</ele><time>2026-05-03T14:05:41.852Z</time></trkpt><trkpt lat="42.224588" lon="12.7128892"><ele>188.0</ele><time>2026-05-03T14:05:42.877Z</time></trkpt><trkpt lat="42.2245082" lon="12.7131328"><ele>188.0</ele><time>2026-05-03T14:05:43.872Z</time></trkpt><trkpt lat="42.2244366" lon="12.7133955"><ele>188.0</ele><time>2026-05-03T14:05:44.856Z</time></trkpt><trkpt lat="42.2243531" lon="12.7136055"><ele>188.0</ele><time>2026-05-03T14:05:45.856Z</time></trkpt><trkpt lat="42.2242481" lon="12.7138089"><ele>189.33333333333331</ele><time>2026-05-03T14:05:46.862Z</time></trkpt><trkpt lat="42.2241183" lon="12.7139836"><ele>190.66666666666666</ele><time>2026-05-03T14:05:47.86Z</time></trkpt><trkpt lat="42.2239646" lon="12.7142002"><ele>192.0</ele><time>2026-05-03T14:05:48.88Z</time></trkpt><trkpt lat="42.2238199" lon="12.7144167"><ele>192.0</ele><time>2026-05-03T14:05:49.876Z</time></trkpt><trkpt lat="42.2237585" lon="12.7146155"><ele>192.0</ele><time>2026-05-03T14:05:50.865Z</time></trkpt><trkpt lat="42.2236966" lon="12.7148008"><ele>192.0</ele><time>2026-05-03T14:05:51.86Z</time></trkpt><trkpt lat="42.2236485" lon="12.7149355"><ele>192.0</ele><time>2026-05-03T14:05:52.861Z</time></trkpt><trkpt lat="42.2235773" lon="12.7150808"><ele>192.0</ele><time>2026-05-03T14:05:53.859Z</time></trkpt><trkpt lat="42.223488" lon="12.7151795"><ele>192.0</ele><time>2026-05-03T14:05:54.858Z</time></trkpt><trkpt lat="42.2233169" lon="12.7153301"><ele>192.0</ele><time>2026-05-03T14:05:55.877Z</time></trkpt><trkpt lat="42.2231826" lon="12.7154573"><ele>193.33333333333331</ele><time>2026-05-03T14:05:56.878Z</time></trkpt><trkpt lat="42.2230241" lon="12.7155816"><ele>194.66666666666666</ele><time>2026-05-03T14:05:57.864Z</time></trkpt><trkpt lat="42.222863" lon="12.7156822"><ele>196.0</ele><time>2026-05-03T14:05:58.855Z</time></trkpt><trkpt lat="42.2226894" lon="12.7158103"><ele>196.0</ele><time>2026-05-03T14:05:59.855Z</time></trkpt><trkpt lat="42.2225492" lon="12.7159528"><ele>196.0</ele><time>2026-05-03T14:06:00.86Z</time></trkpt><trkpt lat="42.2224086" lon="12.7160961"><ele>196.0</ele><time>2026-05-03T14:06:01.888Z</time></trkpt><trkpt lat="42.2222829" lon="12.7162223"><ele>197.8</ele><time>2026-05-03T14:06:02.863Z</time></trkpt><trkpt lat="42.2221635" lon="12.716303"><ele>199.60000000000002</ele><time>2026-05-03T14:06:03.871Z</time></trkpt><trkpt lat="42.2220475" lon="12.7163404"><ele>201.4</ele><time>2026-05-03T14:06:04.864Z</time></trkpt><trkpt lat="42.2219395" lon="12.7163434"><ele>203.2</ele><time>2026-05-03T14:06:05.87Z</time></trkpt><trkpt lat="42.2218689" lon="12.7163454"><ele>205.0</ele><time>2026-05-03T14:06:06.862Z</time></trkpt><trkpt lat="42.2217386" lon="12.7163445"><ele>205.0</ele><time>2026-05-03T14:06:08.867Z</time></trkpt><trkpt lat="42.2216292" lon="12.7163047"><ele>205.0</ele><time>2026-05-03T14:06:09.859Z</time></trkpt><trkpt lat="42.2215091" lon="12.7162753"><ele>205.0</ele><time>2026-05-03T14:06:10.87Z</time></trkpt><trkpt lat="42.2213667" lon="12.7162843"><ele>205.0</ele><time>2026-05-03T14:06:11.859Z</time></trkpt><trkpt lat="42.2212427" lon="12.7163393"><ele>214.66666666666666</ele><time>2026-05-03T14:06:12.861Z</time></trkpt><trkpt lat="42.2211331" lon="12.7164538"><ele>224.33333333333331</ele><time>2026-05-03T14:06:13.861Z</time></trkpt><trkpt lat="42.2210287" lon="12.7166143"><ele>234.0</ele><time>2026-05-03T14:06:14.862Z</time></trkpt><trkpt lat="42.220902" lon="12.7168644"><ele>226.5</ele><time>2026-05-03T14:06:15.935Z</time></trkpt><trkpt lat="42.2207672" lon="12.7171162"><ele>219.0</ele><time>2026-05-03T14:06:16.857Z</time></trkpt><trkpt lat="42.2206286" lon="12.7173809"><ele>225.66666666666669</ele><time>2026-05-03T14:06:17.855Z</time></trkpt><trkpt lat="42.2205072" lon="12.7176071"><ele>232.33333333333334</ele><time>2026-05-03T14:06:18.855Z</time></trkpt><trkpt lat="42.2203967" lon="12.7178063"><ele>239.0</ele><time>2026-05-03T14:06:19.855Z</time></trkpt><trkpt lat="42.2202742" lon="12.7180023"><ele>239.0</ele><time>2026-05-03T14:06:21.005Z</time></trkpt><trkpt lat="42.2202122" lon="12.718173"><ele>239.0</ele><time>2026-05-03T14:06:22.005Z</time></trkpt><trkpt lat="42.2201713" lon="12.7183399"><ele>239.0</ele><time>2026-05-03T14:06:22.999Z</time></trkpt><trkpt lat="42.2201245" lon="12.7185025"><ele>239.0</ele><time>2026-05-03T14:06:23.924Z</time></trkpt><trkpt lat="42.2200874" lon="12.7186877"><ele>238.0</ele><time>2026-05-03T14:06:24.853Z</time></trkpt><trkpt lat="42.2200843" lon="12.7188983"><ele>237.0</ele><time>2026-05-03T14:06:25.849Z</time></trkpt><trkpt lat="42.2200715" lon="12.7191141"><ele>236.0</ele><time>2026-05-03T14:06:26.877Z</time></trkpt><trkpt lat="42.2200786" lon="12.7193185"><ele>236.5</ele><time>2026-05-03T14:06:27.859Z</time></trkpt><trkpt lat="42.2201255" lon="12.7194974"><ele>237.0</ele><time>2026-05-03T14:06:28.86Z</time></trkpt><trkpt lat="42.2201609" lon="12.7196628"><ele>237.5</ele><time>2026-05-03T14:06:29.861Z</time></trkpt><trkpt lat="42.220182" lon="12.7198447"><ele>238.0</ele><time>2026-05-03T14:06:30.859Z</time></trkpt><trkpt lat="42.2201476" lon="12.7200681"><ele>237.33333333333331</ele><time>2026-05-03T14:06:31.857Z</time></trkpt><trkpt lat="42.2200758" lon="12.7203433"><ele>236.66666666666669</ele><time>2026-05-03T14:06:32.855Z</time></trkpt><trkpt lat="42.220047" lon="12.7205391"><ele>236.0</ele><time>2026-05-03T14:06:33.862Z</time></trkpt><trkpt lat="42.2200079" lon="12.7207772"><ele>236.0</ele><time>2026-05-03T14:06:34.854Z</time></trkpt><trkpt lat="42.219991" lon="12.7209967"><ele>236.0</ele><time>2026-05-03T14:06:35.854Z</time></trkpt><trkpt lat="42.2200096" lon="12.7212118"><ele>236.0</ele><time>2026-05-03T14:06:36.856Z</time></trkpt><trkpt lat="42.2200127" lon="12.7214199"><ele>236.4</ele><time>2026-05-03T14:06:37.854Z</time></trkpt><trkpt lat="42.2200007" lon="12.7215928"><ele>236.8</ele><time>2026-05-03T14:06:38.862Z</time></trkpt><trkpt lat="42.2199744" lon="12.7217051"><ele>237.20000000000002</ele><time>2026-05-03T14:06:39.858Z</time></trkpt><trkpt lat="42.2199279" lon="12.7217999"><ele>237.60000000000002</ele><time>2026-05-03T14:06:40.857Z</time></trkpt><trkpt lat="42.2198809" lon="12.721869"><ele>238.0</ele><time>2026-05-03T14:06:41.867Z</time></trkpt><trkpt lat="42.2198078" lon="12.7219556"><ele>237.99999999999997</ele><time>2026-05-03T14:06:42.854Z</time></trkpt><trkpt lat="42.2197328" lon="12.7220336"><ele>238.0</ele><time>2026-05-03T14:06:43.858Z</time></trkpt><trkpt lat="42.2196701" lon="12.7220755"><ele>238.0</ele><time>2026-05-03T14:06:44.849Z</time></trkpt><trkpt lat="42.2196263" lon="12.7221417"><ele>238.0</ele><time>2026-05-03T14:06:45.86Z</time></trkpt><trkpt lat="42.219648" lon="12.7222536"><ele>237.99999999999997</ele><time>2026-05-03T14:06:47.861Z</time></trkpt><trkpt lat="42.2197021" lon="12.7223102"><ele>238.0</ele><time>2026-05-03T14:06:48.855Z</time></trkpt><trkpt lat="42.2197826" lon="12.7223589"><ele>233.0</ele><time>2026-05-03T14:06:49.869Z</time></trkpt><trkpt lat="42.2198788" lon="12.722384"><ele>228.0</ele><time>2026-05-03T14:06:50.87Z</time></trkpt><trkpt lat="42.2200043" lon="12.7223611"><ele>223.0</ele><time>2026-05-03T14:06:51.867Z</time></trkpt><trkpt lat="42.2201183" lon="12.7222786"><ele>218.0</ele><time>2026-05-03T14:06:52.867Z</time></trkpt><trkpt lat="42.2202079" lon="12.7221528"><ele>218.0</ele><time>2026-05-03T14:06:53.863Z</time></trkpt><trkpt lat="42.2202695" lon="12.7219939"><ele>218.0</ele><time>2026-05-03T14:06:54.858Z</time></trkpt><trkpt lat="42.2203039" lon="12.7217868"><ele>218.0</ele><time>2026-05-03T14:06:55.87Z</time></trkpt><trkpt lat="42.2203575" lon="12.7215584"><ele>222.66666666666669</ele><time>2026-05-03T14:06:56.861Z</time></trkpt><trkpt lat="42.2204124" lon="12.7213423"><ele>227.33333333333331</ele><time>2026-05-03T14:06:57.859Z</time></trkpt><trkpt lat="42.2204732" lon="12.7210975"><ele>232.0</ele><time>2026-05-03T14:06:58.886Z</time></trkpt><trkpt lat="42.2205044" lon="12.7208636"><ele>233.33333333333331</ele><time>2026-05-03T14:06:59.856Z</time></trkpt><trkpt lat="42.2205467" lon="12.7206313"><ele>234.66666666666669</ele><time>2026-05-03T14:07:00.859Z</time></trkpt><trkpt lat="42.2205633" lon="12.7204135"><ele>236.0</ele><time>2026-05-03T14:07:01.856Z</time></trkpt><trkpt lat="42.2205967" lon="12.7201758"><ele>236.5</ele><time>2026-05-03T14:07:02.863Z</time></trkpt><trkpt lat="42.2206257" lon="12.719978"><ele>237.0</ele><time>2026-05-03T14:07:03.859Z</time></trkpt><trkpt lat="42.2206585" lon="12.7197887"><ele>237.5</ele><time>2026-05-03T14:07:04.859Z</time></trkpt><trkpt lat="42.2206629" lon="12.7196018"><ele>238.0</ele><time>2026-05-03T14:07:05.858Z</time></trkpt><trkpt lat="42.2206689" lon="12.7194604"><ele>232.60000000000002</ele><time>2026-05-03T14:07:06.863Z</time></trkpt><trkpt lat="42.2206522" lon="12.7193102"><ele>227.20000000000002</ele><time>2026-05-03T14:07:07.862Z</time></trkpt><trkpt lat="42.2207031" lon="12.7192155"><ele>221.8</ele><time>2026-05-03T14:07:08.863Z</time></trkpt><trkpt lat="42.2206913" lon="12.7190707"><ele>216.4</ele><time>2026-05-03T14:07:10.875Z</time></trkpt><trkpt lat="42.2207079" lon="12.719207"><ele>211.0</ele><time>2026-05-03T14:07:31.854Z</time></trkpt><trkpt lat="42.2207244" lon="12.7193271"><ele>210.33333333333331</ele><time>2026-05-03T14:07:33.87Z</time></trkpt><trkpt lat="42.2207355" lon="12.7194197"><ele>209.66666666666666</ele><time>2026-05-03T14:07:34.856Z</time></trkpt><trkpt lat="42.2207699" lon="12.7195975"><ele>209.0</ele><time>2026-05-03T14:07:36.855Z</time></trkpt><trkpt lat="42.2207872" lon="12.7196885"><ele>208.33333333333331</ele><time>2026-05-03T14:07:37.86Z</time></trkpt><trkpt lat="42.2207956" lon="12.719793"><ele>207.66666666666666</ele><time>2026-05-03T14:07:38.858Z</time></trkpt><trkpt lat="42.2208083" lon="12.7199136"><ele>207.0</ele><time>2026-05-03T14:07:39.858Z</time></trkpt><trkpt lat="42.2208182" lon="12.7200543"><ele>207.0</ele><time>2026-05-03T14:07:40.851Z</time></trkpt><trkpt lat="42.22085" lon="12.7201884"><ele>207.0</ele><time>2026-05-03T14:07:41.856Z</time></trkpt><trkpt lat="42.2208737" lon="12.7203415"><ele>207.0</ele><time>2026-05-03T14:07:42.845Z</time></trkpt><trkpt lat="42.2208981" lon="12.7204916"><ele>207.0</ele><time>2026-05-03T14:07:43.851Z</time></trkpt><trkpt lat="42.2209109" lon="12.7206218"><ele>207.0</ele><time>2026-05-03T14:07:44.853Z</time></trkpt><trkpt lat="42.2209288" lon="12.7207097"><ele>206.5</ele><time>2026-05-03T14:07:45.922Z</time></trkpt><trkpt lat="42.2209553" lon="12.720818"><ele>206.0</ele><time>2026-05-03T14:07:47.087Z</time></trkpt><trkpt lat="42.2209625" lon="12.7209337"><ele>205.5</ele><time>2026-05-03T14:07:48.936Z</time></trkpt><trkpt lat="42.2209835" lon="12.7210307"><ele>205.0</ele><time>2026-05-03T14:07:52.863Z</time></trkpt><trkpt lat="42.2210027" lon="12.7211189"><ele>204.5</ele><time>2026-05-03T14:07:56.859Z</time></trkpt><trkpt lat="42.2209901" lon="12.7209876"><ele>204.0</ele><time>2026-05-03T14:07:59.855Z</time></trkpt><trkpt lat="42.2209529" lon="12.7207929"><ele>204.0</ele><time>2026-05-03T14:08:01.858Z</time></trkpt><trkpt lat="42.2209155" lon="12.7206654"><ele>204.0</ele><time>2026-05-03T14:08:02.87Z</time></trkpt><trkpt lat="42.2208688" lon="12.7204975"><ele>204.0</ele><time>2026-05-03T14:08:04.875Z</time></trkpt><trkpt lat="42.2209076" lon="12.7204162"><ele>204.0</ele><time>2026-05-03T14:08:06.874Z</time></trkpt><trkpt lat="42.2209679" lon="12.7203511"><ele>204.0</ele><time>2026-05-03T14:08:08.859Z</time></trkpt><trkpt lat="42.2210368" lon="12.7203156"><ele>204.0</ele><time>2026-05-03T14:08:10.887Z</time></trkpt><trkpt lat="42.2211108" lon="12.7203886"><ele>204.0</ele><time>2026-05-03T14:08:15.849Z</time></trkpt><trkpt lat="42.2211605" lon="12.7204948"><ele>204.0</ele><time>2026-05-03T14:08:17.856Z</time></trkpt><trkpt lat="42.2212005" lon="12.7205714"><ele>204.0</ele><time>2026-05-03T14:08:18.847Z</time></trkpt><trkpt lat="42.2212469" lon="12.7206658"><ele>204.0</ele><time>2026-05-03T14:08:19.844Z</time></trkpt><trkpt lat="42.2212894" lon="12.7207652"><ele>204.0</ele><time>2026-05-03T14:08:20.852Z</time></trkpt><trkpt lat="42.2213387" lon="12.720838"><ele>204.0</ele><time>2026-05-03T14:08:21.85Z</time></trkpt><trkpt lat="42.221376" lon="12.7209209"><ele>204.0</ele><time>2026-05-03T14:08:22.847Z</time></trkpt><trkpt lat="42.2214162" lon="12.7209873"><ele>204.0</ele><time>2026-05-03T14:08:23.847Z</time></trkpt><trkpt lat="42.2214891" lon="12.7210911"><ele>204.0</ele><time>2026-05-03T14:08:25.896Z</time></trkpt><trkpt lat="42.221525" lon="12.7212297"><ele>204.0</ele><time>2026-05-03T14:08:27.87Z</time></trkpt><trkpt lat="42.2215213" lon="12.7213312"><ele>204.0</ele><time>2026-05-03T14:08:28.859Z</time></trkpt><trkpt lat="42.2215179" lon="12.7214544"><ele>202.39999999999998</ele><time>2026-05-03T14:08:29.852Z</time></trkpt><trkpt lat="42.2215165" lon="12.7215897"><ele>200.8</ele><time>2026-05-03T14:08:30.883Z</time></trkpt><trkpt lat="42.2215019" lon="12.7217386"><ele>199.2</ele><time>2026-05-03T14:08:31.882Z</time></trkpt><trkpt lat="42.2214859" lon="12.7218809"><ele>197.60000000000002</ele><time>2026-05-03T14:08:32.858Z</time></trkpt><trkpt lat="42.2214713" lon="12.7220188"><ele>196.0</ele><time>2026-05-03T14:08:33.86Z</time></trkpt><trkpt lat="42.221465" lon="12.722147"><ele>195.99999999999997</ele><time>2026-05-03T14:08:34.852Z</time></trkpt><trkpt lat="42.2214694" lon="12.722247"><ele>196.0</ele><time>2026-05-03T14:08:35.853Z</time></trkpt><trkpt lat="42.221478" lon="12.7223438"><ele>196.0</ele><time>2026-05-03T14:08:58.867Z</time></trkpt><trkpt lat="42.2214797" lon="12.7224412"><ele>196.0</ele><time>2026-05-03T14:12:50.875Z</time></trkpt><trkpt lat="42.2214615" lon="12.7225544"><ele>195.99999999999997</ele><time>2026-05-03T14:12:54.872Z</time></trkpt><trkpt lat="42.2214652" lon="12.7226546"><ele>196.0</ele><time>2026-05-03T14:12:56.875Z</time></trkpt><trkpt lat="42.2214706" lon="12.7227617"><ele>194.83333333333331</ele><time>2026-05-03T14:12:58.864Z</time></trkpt><trkpt lat="42.2214729" lon="12.7228722"><ele>193.66666666666666</ele><time>2026-05-03T14:13:00.87Z</time></trkpt><trkpt lat="42.2214752" lon="12.723019"><ele>192.5</ele><time>2026-05-03T14:13:02.874Z</time></trkpt><trkpt lat="42.2214857" lon="12.7231702"><ele>191.33333333333331</ele><time>2026-05-03T14:13:04.879Z</time></trkpt><trkpt lat="42.2214777" lon="12.7232555"><ele>190.16666666666666</ele><time>2026-05-03T14:13:05.878Z</time></trkpt><trkpt lat="42.2214763" lon="12.7233443"><ele>189.0</ele><time>2026-05-03T14:13:06.875Z</time></trkpt><trkpt lat="42.2214719" lon="12.7234385"><ele>189.0</ele><time>2026-05-03T14:13:07.862Z</time></trkpt><trkpt lat="42.2214645" lon="12.7235288"><ele>189.0</ele><time>2026-05-03T14:13:08.866Z</time></trkpt><trkpt lat="42.2214516" lon="12.7236148"><ele>189.0</ele><time>2026-05-03T14:13:09.949Z</time></trkpt><trkpt lat="42.22141" lon="12.7237711"><ele>189.0</ele><time>2026-05-03T14:13:11.887Z</time></trkpt><trkpt lat="42.2213777" lon="12.7238857"><ele>189.0</ele><time>2026-05-03T14:13:13.883Z</time></trkpt><trkpt lat="42.2214004" lon="12.7240003"><ele>189.0</ele><time>2026-05-03T14:13:15.887Z</time></trkpt><trkpt lat="42.2214612" lon="12.724136"><ele>183.16666666666666</ele><time>2026-05-03T14:13:17.872Z</time></trkpt><trkpt lat="42.2215137" lon="12.7242811"><ele>177.33333333333334</ele><time>2026-05-03T14:13:19.87Z</time></trkpt><trkpt lat="42.221517" lon="12.7244399"><ele>171.5</ele><time>2026-05-03T14:13:21.866Z</time></trkpt><trkpt lat="42.2214959" lon="12.7245349"><ele>165.66666666666669</ele><time>2026-05-03T14:13:22.872Z</time></trkpt><trkpt lat="42.2214682" lon="12.7246191"><ele>159.83333333333334</ele><time>2026-05-03T14:13:23.871Z</time></trkpt><trkpt lat="42.2214413" lon="12.7246968"><ele>154.0</ele><time>2026-05-03T14:13:24.88Z</time></trkpt><trkpt lat="42.2213861" lon="12.7248346"><ele>154.0</ele><time>2026-05-03T14:13:26.879Z</time></trkpt><trkpt lat="42.221335" lon="12.7249881"><ele>154.0</ele><time>2026-05-03T14:13:28.878Z</time></trkpt><trkpt lat="42.2213218" lon="12.7250737"><ele>154.0</ele><time>2026-05-03T14:13:29.867Z</time></trkpt><trkpt lat="42.2213066" lon="12.7251713"><ele>154.0</ele><time>2026-05-03T14:13:30.87Z</time></trkpt><trkpt lat="42.2212801" lon="12.7252658"><ele>154.0</ele><time>2026-05-03T14:13:31.869Z</time></trkpt><trkpt lat="42.2212441" lon="12.7253477"><ele>154.0</ele><time>2026-05-03T14:13:32.864Z</time></trkpt><trkpt lat="42.2212182" lon="12.7254359"><ele>151.0</ele><time>2026-05-03T14:13:33.868Z</time></trkpt><trkpt lat="42.2212031" lon="12.7255281"><ele>148.0</ele><time>2026-05-03T14:13:34.867Z</time></trkpt><trkpt lat="42.2211927" lon="12.7256828"><ele>145.0</ele><time>2026-05-03T14:13:36.89Z</time></trkpt><trkpt lat="42.2212077" lon="12.7258402"><ele>142.0</ele><time>2026-05-03T14:13:38.889Z</time></trkpt><trkpt lat="42.2212135" lon="12.7259332"><ele>139.0</ele><time>2026-05-03T14:13:39.89Z</time></trkpt><trkpt lat="42.2212457" lon="12.7260916"><ele>136.4</ele><time>2026-05-03T14:13:41.895Z</time></trkpt><trkpt lat="42.2212233" lon="12.7262484"><ele>133.8</ele><time>2026-05-03T14:13:43.868Z</time></trkpt><trkpt lat="42.2212571" lon="12.726351"><ele>131.2</ele><time>2026-05-03T14:13:45.89Z</time></trkpt><trkpt lat="42.2213331" lon="12.7264582"><ele>128.6</ele><time>2026-05-03T14:13:47.867Z</time></trkpt><trkpt lat="42.2213616" lon="12.7265755"><ele>126.0</ele><time>2026-05-03T14:13:49.868Z</time></trkpt><trkpt lat="42.2213616" lon="12.7266861"><ele>126.0</ele><time>2026-05-03T14:13:54.872Z</time></trkpt><trkpt lat="42.2213316" lon="12.7267853"><ele>126.0</ele><time>2026-05-03T14:13:57.878Z</time></trkpt><trkpt lat="42.2213054" lon="12.7268758"><ele>126.0</ele><time>2026-05-03T14:14:05.876Z</time></trkpt><trkpt lat="42.2212984" lon="12.7269934"><ele>126.0</ele><time>2026-05-03T14:14:09.871Z</time></trkpt><trkpt lat="42.2211975" lon="12.7271487"><ele>126.0</ele><time>2026-05-03T14:14:11.877Z</time></trkpt><trkpt lat="42.2211272" lon="12.7272724"><ele>125.66666666666666</ele><time>2026-05-03T14:14:12.873Z</time></trkpt><trkpt lat="42.2210392" lon="12.7274261"><ele>125.33333333333333</ele><time>2026-05-03T14:14:13.873Z</time></trkpt><trkpt lat="42.2209436" lon="12.727587"><ele>125.0</ele><time>2026-05-03T14:14:14.873Z</time></trkpt><trkpt lat="42.2208111" lon="12.727767"><ele>125.75</ele><time>2026-05-03T14:14:15.864Z</time></trkpt><trkpt lat="42.2207039" lon="12.7278878"><ele>126.5</ele><time>2026-05-03T14:14:16.866Z</time></trkpt><trkpt lat="42.2206054" lon="12.7280027"><ele>127.25</ele><time>2026-05-03T14:14:17.859Z</time></trkpt><trkpt lat="42.2205562" lon="12.7281305"><ele>128.0</ele><time>2026-05-03T14:14:18.867Z</time></trkpt><trkpt lat="42.2205392" lon="12.7282544"><ele>128.0</ele><time>2026-05-03T14:14:19.862Z</time></trkpt><trkpt lat="42.2205286" lon="12.7284"><ele>128.0</ele><time>2026-05-03T14:14:20.866Z</time></trkpt><trkpt lat="42.2205028" lon="12.7285353"><ele>128.0</ele><time>2026-05-03T14:14:21.86Z</time></trkpt><trkpt lat="42.2204627" lon="12.7286509"><ele>128.0</ele><time>2026-05-03T14:14:22.856Z</time></trkpt><trkpt lat="42.2204104" lon="12.7287879"><ele>128.0</ele><time>2026-05-03T14:14:23.858Z</time></trkpt><trkpt lat="42.2203552" lon="12.728902"><ele>129.20000000000002</ele><time>2026-05-03T14:14:24.854Z</time></trkpt><trkpt lat="42.2202709" lon="12.7290274"><ele>130.4</ele><time>2026-05-03T14:14:25.859Z</time></trkpt><trkpt lat="42.2202005" lon="12.7291355"><ele>131.60000000000002</ele><time>2026-05-03T14:14:26.881Z</time></trkpt><trkpt lat="42.220132" lon="12.7292314"><ele>132.8</ele><time>2026-05-03T14:14:27.851Z</time></trkpt><trkpt lat="42.2200541" lon="12.7293355"><ele>134.0</ele><time>2026-05-03T14:14:28.85Z</time></trkpt><trkpt lat="42.219969" lon="12.729425"><ele>135.0</ele><time>2026-05-03T14:14:29.872Z</time></trkpt><trkpt lat="42.2198739" lon="12.7294953"><ele>136.0</ele><time>2026-05-03T14:14:30.848Z</time></trkpt><trkpt lat="42.2197755" lon="12.7295446"><ele>137.0</ele><time>2026-05-03T14:14:31.854Z</time></trkpt><trkpt lat="42.219674" lon="12.7295823"><ele>138.0</ele><time>2026-05-03T14:14:32.848Z</time></trkpt><trkpt lat="42.2195778" lon="12.7296096"><ele>139.0</ele><time>2026-05-03T14:14:33.869Z</time></trkpt><trkpt lat="42.2194949" lon="12.7296254"><ele>139.0</ele><time>2026-05-03T14:14:34.846Z</time></trkpt><trkpt lat="42.2194122" lon="12.7296358"><ele>139.0</ele><time>2026-05-03T14:14:35.846Z</time></trkpt><trkpt lat="42.2193455" lon="12.7296614"><ele>139.0</ele><time>2026-05-03T14:14:36.844Z</time></trkpt><trkpt lat="42.2193037" lon="12.7297315"><ele>139.0</ele><time>2026-05-03T14:14:37.853Z</time></trkpt><trkpt lat="42.2192663" lon="12.729843"><ele>139.0</ele><time>2026-05-03T14:14:38.852Z</time></trkpt><trkpt lat="42.2192446" lon="12.7299508"><ele>139.0</ele><time>2026-05-03T14:14:39.853Z</time></trkpt><trkpt lat="42.2192169" lon="12.7300569"><ele>139.0</ele><time>2026-05-03T14:14:40.88Z</time></trkpt><trkpt lat="42.2191749" lon="12.7301709"><ele>139.0</ele><time>2026-05-03T14:14:41.895Z</time></trkpt><trkpt lat="42.2191436" lon="12.73028"><ele>139.0</ele><time>2026-05-03T14:14:42.892Z</time></trkpt><trkpt lat="42.2191298" lon="12.7303781"><ele>139.0</ele><time>2026-05-03T14:14:43.845Z</time></trkpt><trkpt lat="42.2191066" lon="12.7304913"><ele>139.0</ele><time>2026-05-03T14:14:44.844Z</time></trkpt><trkpt lat="42.2191145" lon="12.7306353"><ele>139.0</ele><time>2026-05-03T14:14:45.849Z</time></trkpt><trkpt lat="42.2191196" lon="12.7307546"><ele>138.83333333333334</ele><time>2026-05-03T14:14:46.849Z</time></trkpt><trkpt lat="42.219132" lon="12.7308736"><ele>138.66666666666669</ele><time>2026-05-03T14:14:47.848Z</time></trkpt><trkpt lat="42.21912" lon="12.7309825"><ele>138.5</ele><time>2026-05-03T14:14:48.849Z</time></trkpt><trkpt lat="42.2191027" lon="12.7310815"><ele>138.33333333333334</ele><time>2026-05-03T14:14:49.849Z</time></trkpt><trkpt lat="42.2190734" lon="12.7311877"><ele>138.16666666666666</ele><time>2026-05-03T14:14:50.844Z</time></trkpt><trkpt lat="42.2190316" lon="12.7312848"><ele>138.0</ele><time>2026-05-03T14:14:51.853Z</time></trkpt><trkpt lat="42.2189985" lon="12.7313637"><ele>138.83333333333334</ele><time>2026-05-03T14:14:52.846Z</time></trkpt><trkpt lat="42.2189784" lon="12.7314811"><ele>139.66666666666666</ele><time>2026-05-03T14:14:54.88Z</time></trkpt><trkpt lat="42.2190178" lon="12.7315813"><ele>140.5</ele><time>2026-05-03T14:14:56.848Z</time></trkpt><trkpt lat="42.2190673" lon="12.7317129"><ele>141.33333333333331</ele><time>2026-05-03T14:14:58.845Z</time></trkpt><trkpt lat="42.2190917" lon="12.731812"><ele>142.16666666666666</ele><time>2026-05-03T14:14:59.846Z</time></trkpt><trkpt lat="42.219115" lon="12.7319208"><ele>143.0</ele><time>2026-05-03T14:15:00.845Z</time></trkpt><trkpt lat="42.2191409" lon="12.732048"><ele>143.16666666666666</ele><time>2026-05-03T14:15:01.843Z</time></trkpt><trkpt lat="42.2191534" lon="12.7321706"><ele>143.33333333333331</ele><time>2026-05-03T14:15:02.863Z</time></trkpt><trkpt lat="42.2191715" lon="12.7322904"><ele>143.5</ele><time>2026-05-03T14:15:03.869Z</time></trkpt><trkpt lat="42.2191826" lon="12.7323835"><ele>143.66666666666666</ele><time>2026-05-03T14:15:04.844Z</time></trkpt><trkpt lat="42.2191483" lon="12.7325129"><ele>143.83333333333334</ele><time>2026-05-03T14:15:06.853Z</time></trkpt><trkpt lat="42.2190717" lon="12.7325474"><ele>144.0</ele><time>2026-05-03T14:15:07.848Z</time></trkpt><trkpt lat="42.2190011" lon="12.7326128"><ele>143.6</ele><time>2026-05-03T14:15:08.85Z</time></trkpt><trkpt lat="42.2189148" lon="12.7326779"><ele>143.2</ele><time>2026-05-03T14:15:09.868Z</time></trkpt><trkpt lat="42.218806" lon="12.7327752"><ele>142.79999999999998</ele><time>2026-05-03T14:15:11.845Z</time></trkpt><trkpt lat="42.2187371" lon="12.732833"><ele>142.4</ele><time>2026-05-03T14:15:15.845Z</time></trkpt><trkpt lat="42.2186714" lon="12.732883"><ele>142.0</ele><time>2026-05-03T14:15:19.848Z</time></trkpt><trkpt lat="42.2186136" lon="12.7329338"><ele>141.2</ele><time>2026-05-03T14:15:21.845Z</time></trkpt><trkpt lat="42.2185723" lon="12.7330705"><ele>140.39999999999998</ele><time>2026-05-03T14:15:23.868Z</time></trkpt><trkpt lat="42.2185484" lon="12.7331575"><ele>139.60000000000002</ele><time>2026-05-03T14:15:24.847Z</time></trkpt><trkpt lat="42.218522" lon="12.7332714"><ele>138.8</ele><time>2026-05-03T14:15:25.849Z</time></trkpt><trkpt lat="42.2184925" lon="12.7333955"><ele>138.0</ele><time>2026-05-03T14:15:26.846Z</time></trkpt><trkpt lat="42.2184457" lon="12.7335405"><ele>139.25</ele><time>2026-05-03T14:15:27.853Z</time></trkpt><trkpt lat="42.2184115" lon="12.7337462"><ele>140.5</ele><time>2026-05-03T14:15:28.855Z</time></trkpt><trkpt lat="42.2183625" lon="12.7339056"><ele>141.75</ele><time>2026-05-03T14:15:29.849Z</time></trkpt><trkpt lat="42.2183093" lon="12.7340821"><ele>143.0</ele><time>2026-05-03T14:15:30.849Z</time></trkpt><trkpt lat="42.2182535" lon="12.7342862"><ele>145.33333333333331</ele><time>2026-05-03T14:15:31.842Z</time></trkpt><trkpt lat="42.2182085" lon="12.7344995"><ele>147.66666666666666</ele><time>2026-05-03T14:15:32.864Z</time></trkpt><trkpt lat="42.2181363" lon="12.7347138"><ele>150.0</ele><time>2026-05-03T14:15:33.935Z</time></trkpt><trkpt lat="42.2180815" lon="12.7349141"><ele>150.33333333333334</ele><time>2026-05-03T14:15:34.877Z</time></trkpt><trkpt lat="42.2180277" lon="12.7351339"><ele>150.66666666666669</ele><time>2026-05-03T14:15:35.894Z</time></trkpt><trkpt lat="42.2179498" lon="12.7353264"><ele>151.0</ele><time>2026-05-03T14:15:36.881Z</time></trkpt><trkpt lat="42.2178884" lon="12.7355298"><ele>152.33333333333334</ele><time>2026-05-03T14:15:37.854Z</time></trkpt><trkpt lat="42.2178193" lon="12.7356706"><ele>153.66666666666666</ele><time>2026-05-03T14:15:38.848Z</time></trkpt><trkpt lat="42.217731" lon="12.7358716"><ele>155.0</ele><time>2026-05-03T14:15:39.843Z</time></trkpt><trkpt lat="42.2176345" lon="12.7360543"><ele>155.0</ele><time>2026-05-03T14:15:40.872Z</time></trkpt><trkpt lat="42.2175362" lon="12.7361966"><ele>155.0</ele><time>2026-05-03T14:15:41.869Z</time></trkpt><trkpt lat="42.2174469" lon="12.7363308"><ele>155.0</ele><time>2026-05-03T14:15:42.872Z</time></trkpt><trkpt lat="42.2173761" lon="12.7364304"><ele>155.0</ele><time>2026-05-03T14:15:43.876Z</time></trkpt><trkpt lat="42.2173228" lon="12.736513"><ele>154.42857142857144</ele><time>2026-05-03T14:15:44.849Z</time></trkpt><trkpt lat="42.2172784" lon="12.7365901"><ele>153.85714285714286</ele><time>2026-05-03T14:15:45.848Z</time></trkpt><trkpt lat="42.2172389" lon="12.7366772"><ele>153.28571428571428</ele><time>2026-05-03T14:15:46.853Z</time></trkpt><trkpt lat="42.2172121" lon="12.7367651"><ele>152.71428571428572</ele><time>2026-05-03T14:15:47.846Z</time></trkpt><trkpt lat="42.217197" lon="12.7368479"><ele>152.14285714285714</ele><time>2026-05-03T14:15:48.854Z</time></trkpt><trkpt lat="42.2171822" lon="12.7369425"><ele>151.57142857142858</ele><time>2026-05-03T14:15:49.864Z</time></trkpt><trkpt lat="42.2171673" lon="12.7370444"><ele>151.0</ele><time>2026-05-03T14:15:50.855Z</time></trkpt><trkpt lat="42.2171702" lon="12.7371432"><ele>151.0</ele><time>2026-05-03T14:15:52.014Z</time></trkpt><trkpt lat="42.2171148" lon="12.7373933"><ele>151.0</ele><time>2026-05-03T14:15:53.857Z</time></trkpt><trkpt lat="42.2170558" lon="12.7375257"><ele>151.0</ele><time>2026-05-03T14:15:55.163Z</time></trkpt><trkpt lat="42.2169982" lon="12.7376313"><ele>151.0</ele><time>2026-05-03T14:15:56.244Z</time></trkpt><trkpt lat="42.2169253" lon="12.7377489"><ele>152.0</ele><time>2026-05-03T14:15:57.159Z</time></trkpt><trkpt lat="42.2168514" lon="12.7378704"><ele>153.0</ele><time>2026-05-03T14:15:58.168Z</time></trkpt><trkpt lat="42.2166462" lon="12.7381588"><ele>154.0</ele><time>2026-05-03T14:16:00.322Z</time></trkpt><trkpt lat="42.2165232" lon="12.7383132"><ele>154.0</ele><time>2026-05-03T14:16:01.326Z</time></trkpt><trkpt lat="42.2162536" lon="12.7386824"><ele>154.0</ele><time>2026-05-03T14:16:03.005Z</time></trkpt><trkpt lat="42.2161496" lon="12.7388411"><ele>154.0</ele><time>2026-05-03T14:16:04.006Z</time></trkpt><trkpt lat="42.2160566" lon="12.7389751"><ele>154.0</ele><time>2026-05-03T14:16:05.331Z</time></trkpt><trkpt lat="42.2159774" lon="12.739086"><ele>154.0</ele><time>2026-05-03T14:16:06.325Z</time></trkpt><trkpt lat="42.2158095" lon="12.7393039"><ele>155.4</ele><time>2026-05-03T14:16:08.172Z</time></trkpt><trkpt lat="42.2157514" lon="12.7394273"><ele>156.8</ele><time>2026-05-03T14:16:09.329Z</time></trkpt><trkpt lat="42.2157033" lon="12.7395542"><ele>158.20000000000002</ele><time>2026-05-03T14:16:10.325Z</time></trkpt><trkpt lat="42.2156123" lon="12.7396928"><ele>159.60000000000002</ele><time>2026-05-03T14:16:12.004Z</time></trkpt><trkpt lat="42.2155626" lon="12.7397603"><ele>161.0</ele><time>2026-05-03T14:16:13.015Z</time></trkpt><trkpt lat="42.2154965" lon="12.7398407"><ele>161.0</ele><time>2026-05-03T14:16:15.327Z</time></trkpt><trkpt lat="42.2155339" lon="12.7399815"><ele>161.0</ele><time>2026-05-03T14:16:20.496Z</time></trkpt><trkpt lat="42.2156637" lon="12.7400947"><ele>161.0</ele><time>2026-05-03T14:16:22.333Z</time></trkpt><trkpt lat="42.2157714" lon="12.7401716"><ele>161.0</ele><time>2026-05-03T14:16:23.319Z</time></trkpt><trkpt lat="42.2158834" lon="12.7402534"><ele>163.66666666666666</ele><time>2026-05-03T14:16:24.33Z</time></trkpt><trkpt lat="42.2160381" lon="12.7404266"><ele>166.33333333333334</ele><time>2026-05-03T14:16:26.169Z</time></trkpt><trkpt lat="42.2160977" lon="12.7405191"><ele>169.0</ele><time>2026-05-03T14:16:27.165Z</time></trkpt><trkpt lat="42.2161371" lon="12.7407703"><ele>169.0</ele><time>2026-05-03T14:16:29.168Z</time></trkpt><trkpt lat="42.2160829" lon="12.7409527"><ele>169.0</ele><time>2026-05-03T14:16:30.16Z</time></trkpt><trkpt lat="42.2160123" lon="12.7411423"><ele>169.0</ele><time>2026-05-03T14:16:31.163Z</time></trkpt><trkpt lat="42.215953" lon="12.7413032"><ele>169.0</ele><time>2026-05-03T14:16:32.318Z</time></trkpt><trkpt lat="42.2157972" lon="12.7415843"><ele>167.66666666666669</ele><time>2026-05-03T14:16:34.324Z</time></trkpt><trkpt lat="42.2156377" lon="12.7419008"><ele>166.33333333333334</ele><time>2026-05-03T14:16:36.324Z</time></trkpt><trkpt lat="42.2155751" lon="12.742049"><ele>165.0</ele><time>2026-05-03T14:16:37.338Z</time></trkpt><trkpt lat="42.2155238" lon="12.7421999"><ele>165.0</ele><time>2026-05-03T14:16:38.326Z</time></trkpt><trkpt lat="42.2154762" lon="12.742354"><ele>165.0</ele><time>2026-05-03T14:16:39.341Z</time></trkpt><trkpt lat="42.2154401" lon="12.7424925"><ele>165.0</ele><time>2026-05-03T14:16:40.338Z</time></trkpt><trkpt lat="42.2154181" lon="12.7426202"><ele>165.0</ele><time>2026-05-03T14:16:41.325Z</time></trkpt><trkpt lat="42.215357" lon="12.7428652"><ele>167.5</ele><time>2026-05-03T14:16:43.163Z</time></trkpt><trkpt lat="42.2153227" lon="12.7429539"><ele>170.0</ele><time>2026-05-03T14:16:44.164Z</time></trkpt><trkpt lat="42.2152567" lon="12.7429857"><ele>172.5</ele><time>2026-05-03T14:16:45.169Z</time></trkpt><trkpt lat="42.2151851" lon="12.7430129"><ele>175.0</ele><time>2026-05-03T14:16:46.325Z</time></trkpt><trkpt lat="42.2151239" lon="12.7430483"><ele>177.5</ele><time>2026-05-03T14:16:47.331Z</time></trkpt><trkpt lat="42.2150151" lon="12.7431371"><ele>180.0</ele><time>2026-05-03T14:16:49.331Z</time></trkpt><trkpt lat="42.2149497" lon="12.7431719"><ele>180.0</ele><time>2026-05-03T14:16:50.333Z</time></trkpt><trkpt lat="42.2148898" lon="12.7432195"><ele>180.0</ele><time>2026-05-03T14:16:51.324Z</time></trkpt><trkpt lat="42.2147691" lon="12.7433216"><ele>180.0</ele><time>2026-05-03T14:16:53.334Z</time></trkpt><trkpt lat="42.2146528" lon="12.7433989"><ele>180.0</ele><time>2026-05-03T14:16:55.179Z</time></trkpt><trkpt lat="42.2144972" lon="12.7435194"><ele>178.0</ele><time>2026-05-03T14:16:58.34Z</time></trkpt><trkpt lat="42.2144221" lon="12.7436428"><ele>176.0</ele><time>2026-05-03T14:17:00.173Z</time></trkpt><trkpt lat="42.2143973" lon="12.7437212"><ele>174.0</ele><time>2026-05-03T14:17:55.338Z</time></trkpt><trkpt lat="42.2143005" lon="12.7439702"><ele>172.0</ele><time>2026-05-03T14:17:59.019Z</time></trkpt><trkpt lat="42.2142459" lon="12.7441104"><ele>173.0</ele><time>2026-05-03T14:18:00.182Z</time></trkpt><trkpt lat="42.214109" lon="12.7443953"><ele>174.0</ele><time>2026-05-03T14:18:02.18Z</time></trkpt><trkpt lat="42.21406" lon="12.744523"><ele>175.0</ele><time>2026-05-03T14:18:03.491Z</time></trkpt><trkpt lat="42.2139805" lon="12.7447689"><ele>175.5</ele><time>2026-05-03T14:18:05.33Z</time></trkpt><trkpt lat="42.2139609" lon="12.7448947"><ele>176.0</ele><time>2026-05-03T14:18:06.331Z</time></trkpt><trkpt lat="42.213971" lon="12.7451402"><ele>176.5</ele><time>2026-05-03T14:18:08.172Z</time></trkpt><trkpt lat="42.2140023" lon="12.7452488"><ele>177.0</ele><time>2026-05-03T14:18:09.178Z</time></trkpt><trkpt lat="42.2140358" lon="12.7454254"><ele>177.0</ele><time>2026-05-03T14:18:11.018Z</time></trkpt><trkpt lat="42.2140297" lon="12.7455466"><ele>177.0</ele><time>2026-05-03T14:18:13.334Z</time></trkpt><trkpt lat="42.2139234" lon="12.7455776"><ele>177.0</ele><time>2026-05-03T14:18:16.338Z</time></trkpt><trkpt lat="42.2138583" lon="12.745612"><ele>177.0</ele><time>2026-05-03T14:18:17.499Z</time></trkpt><trkpt lat="42.213715" lon="12.7458163"><ele>193.0</ele><time>2026-05-03T14:18:19.336Z</time></trkpt><trkpt lat="42.2136668" lon="12.7462194"><ele>209.0</ele><time>2026-05-03T14:18:21.011Z</time></trkpt><trkpt lat="42.2136673" lon="12.7465018"><ele>209.0</ele><time>2026-05-03T14:18:22.176Z</time></trkpt><trkpt lat="42.2136505" lon="12.7467826"><ele>209.0</ele><time>2026-05-03T14:18:23.171Z</time></trkpt><trkpt lat="42.2136507" lon="12.7470854"><ele>209.0</ele><time>2026-05-03T14:18:24.171Z</time></trkpt><trkpt lat="42.2136634" lon="12.7473758"><ele>215.5</ele><time>2026-05-03T14:18:25.165Z</time></trkpt><trkpt lat="42.2137305" lon="12.7479051"><ele>222.0</ele><time>2026-05-03T14:18:26.855Z</time></trkpt><trkpt lat="42.2137149" lon="12.748112"><ele>222.0</ele><time>2026-05-03T14:18:27.861Z</time></trkpt><trkpt lat="42.2136912" lon="12.7482953"><ele>222.0</ele><time>2026-05-03T14:18:28.853Z</time></trkpt><trkpt lat="42.2136507" lon="12.7484853"><ele>222.0</ele><time>2026-05-03T14:18:29.852Z</time></trkpt><trkpt lat="42.2136163" lon="12.7486879"><ele>222.0</ele><time>2026-05-03T14:18:31.015Z</time></trkpt><trkpt lat="42.2135958" lon="12.7488541"><ele>222.0</ele><time>2026-05-03T14:18:32.019Z</time></trkpt><trkpt lat="42.2135619" lon="12.7490174"><ele>222.0</ele><time>2026-05-03T14:18:33.17Z</time></trkpt><trkpt lat="42.2135319" lon="12.7491577"><ele>222.0</ele><time>2026-05-03T14:18:34.333Z</time></trkpt><trkpt lat="42.2134754" lon="12.7494647"><ele>223.33333333333331</ele><time>2026-05-03T14:18:36.331Z</time></trkpt><trkpt lat="42.2134506" lon="12.7496173"><ele>224.66666666666666</ele><time>2026-05-03T14:18:37.334Z</time></trkpt><trkpt lat="42.2134225" lon="12.7500082"><ele>226.0</ele><time>2026-05-03T14:18:39.179Z</time></trkpt><trkpt lat="42.2134014" lon="12.7502102"><ele>228.5</ele><time>2026-05-03T14:18:40.178Z</time></trkpt><trkpt lat="42.2133866" lon="12.7504152"><ele>231.0</ele><time>2026-05-03T14:18:41.181Z</time></trkpt><trkpt lat="42.2133676" lon="12.7506152"><ele>233.5</ele><time>2026-05-03T14:18:42.178Z</time></trkpt><trkpt lat="42.2133448" lon="12.7508025"><ele>236.0</ele><time>2026-05-03T14:18:43.339Z</time></trkpt><trkpt lat="42.2133279" lon="12.7512031"><ele>237.5</ele><time>2026-05-03T14:18:45.498Z</time></trkpt><trkpt lat="42.2133594" lon="12.7516795"><ele>239.0</ele><time>2026-05-03T14:18:47.177Z</time></trkpt><trkpt lat="42.2133734" lon="12.7519146"><ele>241.0</ele><time>2026-05-03T14:18:48.175Z</time></trkpt><trkpt lat="42.2133996" lon="12.7521256"><ele>243.0</ele><time>2026-05-03T14:18:49.177Z</time></trkpt><trkpt lat="42.2133679" lon="12.7526011"><ele>245.66666666666669</ele><time>2026-05-03T14:18:51.011Z</time></trkpt><trkpt lat="42.2133326" lon="12.7528448"><ele>248.33333333333334</ele><time>2026-05-03T14:18:52.178Z</time></trkpt><trkpt lat="42.2133089" lon="12.7530851"><ele>251.0</ele><time>2026-05-03T14:18:53.175Z</time></trkpt><trkpt lat="42.2132725" lon="12.7533045"><ele>251.0</ele><time>2026-05-03T14:18:54.173Z</time></trkpt><trkpt lat="42.2132321" lon="12.7534983"><ele>251.0</ele><time>2026-05-03T14:18:55.494Z</time></trkpt><trkpt lat="42.2132649" lon="12.7538652"><ele>251.0</ele><time>2026-05-03T14:18:57.335Z</time></trkpt><trkpt lat="42.2133606" lon="12.754093"><ele>252.4</ele><time>2026-05-03T14:18:59.172Z</time></trkpt><trkpt lat="42.2134223" lon="12.7541948"><ele>253.8</ele><time>2026-05-03T14:19:00.167Z</time></trkpt><trkpt lat="42.2134591" lon="12.7542709"><ele>255.20000000000002</ele><time>2026-05-03T14:19:01.336Z</time></trkpt><trkpt lat="42.2133946" lon="12.7541316"><ele>256.6</ele><time>2026-05-03T14:19:07.175Z</time></trkpt><trkpt lat="42.2133233" lon="12.7539548"><ele>258.0</ele><time>2026-05-03T14:19:10.336Z</time></trkpt><trkpt lat="42.2131849" lon="12.7539025"><ele>263.6</ele><time>2026-05-03T14:19:18.336Z</time></trkpt><trkpt lat="42.2131161" lon="12.7539269"><ele>269.20000000000005</ele><time>2026-05-03T14:19:19.337Z</time></trkpt><trkpt lat="42.2130513" lon="12.7539889"><ele>274.8</ele><time>2026-05-03T14:19:20.334Z</time></trkpt><trkpt lat="42.2129261" lon="12.7541525"><ele>280.40000000000003</ele><time>2026-05-03T14:19:22.181Z</time></trkpt><trkpt lat="42.2128643" lon="12.7541962"><ele>286.0</ele><time>2026-05-03T14:19:23.328Z</time></trkpt><trkpt lat="42.2127598" lon="12.7541959"><ele>286.0</ele><time>2026-05-03T14:19:25.335Z</time></trkpt><trkpt lat="42.2127144" lon="12.7541369"><ele>286.0</ele><time>2026-05-03T14:19:26.325Z</time></trkpt><trkpt lat="42.2126952" lon="12.754031"><ele>286.0</ele><time>2026-05-03T14:19:27.328Z</time></trkpt><trkpt lat="42.2126422" lon="12.7538792"><ele>286.0</ele><time>2026-05-03T14:19:28.496Z</time></trkpt><trkpt lat="42.2125515" lon="12.7535739"><ele>286.25</ele><time>2026-05-03T14:19:30.02Z</time></trkpt><trkpt lat="42.2125081" lon="12.7534528"><ele>286.5</ele><time>2026-05-03T14:19:31.021Z</time></trkpt><trkpt lat="42.2124322" lon="12.7532905"><ele>286.75</ele><time>2026-05-03T14:19:33.332Z</time></trkpt><trkpt lat="42.2124306" lon="12.7531046"><ele>287.0</ele><time>2026-05-03T14:19:36.177Z</time></trkpt><trkpt lat="42.2123691" lon="12.753045"><ele>287.0</ele><time>2026-05-03T14:19:40.168Z</time></trkpt><trkpt lat="42.2123127" lon="12.7532472"><ele>287.0</ele><time>2026-05-03T14:19:43.173Z</time></trkpt><trkpt lat="42.2123286" lon="12.753351"><ele>287.0</ele><time>2026-05-03T14:19:44.174Z</time></trkpt><trkpt lat="42.2123266" lon="12.7534561"><ele>287.0</ele><time>2026-05-03T14:19:45.337Z</time></trkpt><trkpt lat="42.2123318" lon="12.7535831"><ele>287.0</ele><time>2026-05-03T14:19:46.334Z</time></trkpt><trkpt lat="42.2123514" lon="12.7538584"><ele>286.8</ele><time>2026-05-03T14:19:48.016Z</time></trkpt><trkpt lat="42.21236" lon="12.7539809"><ele>286.6</ele><time>2026-05-03T14:19:49.176Z</time></trkpt><trkpt lat="42.2123627" lon="12.7540854"><ele>286.40000000000003</ele><time>2026-05-03T14:19:50.33Z</time></trkpt><trkpt lat="42.2123783" lon="12.7542955"><ele>286.2</ele><time>2026-05-03T14:19:52.338Z</time></trkpt><trkpt lat="42.2123804" lon="12.7543842"><ele>286.0</ele><time>2026-05-03T14:19:53.501Z</time></trkpt><trkpt lat="42.2123513" lon="12.7546156"><ele>286.5</ele><time>2026-05-03T14:19:55.336Z</time></trkpt><trkpt lat="42.2123395" lon="12.7547942"><ele>287.0</ele><time>2026-05-03T14:19:56.334Z</time></trkpt><trkpt lat="42.2123297" lon="12.7549577"><ele>287.5</ele><time>2026-05-03T14:19:57.33Z</time></trkpt><trkpt lat="42.212324" lon="12.7551144"><ele>288.0</ele><time>2026-05-03T14:19:58.34Z</time></trkpt><trkpt lat="42.2123138" lon="12.7552634"><ele>290.0</ele><time>2026-05-03T14:19:59.339Z</time></trkpt><trkpt lat="42.2123087" lon="12.7553914"><ele>292.0</ele><time>2026-05-03T14:20:00.334Z</time></trkpt><trkpt lat="42.2123045" lon="12.7554961"><ele>294.0</ele><time>2026-05-03T14:20:01.329Z</time></trkpt><trkpt lat="42.2123764" lon="12.7554357"><ele>296.0</ele><time>2026-05-03T14:20:05.016Z</time></trkpt><trkpt lat="42.2123308" lon="12.7552686"><ele>298.0</ele><time>2026-05-03T14:20:08.349Z</time></trkpt><trkpt lat="42.2122986" lon="12.7551018"><ele>298.0</ele><time>2026-05-03T14:20:10.35Z</time></trkpt><trkpt lat="42.2123049" lon="12.7550001"><ele>298.0</ele><time>2026-05-03T14:20:11.342Z</time></trkpt><trkpt lat="42.2123172" lon="12.7548905"><ele>298.0</ele><time>2026-05-03T14:20:12.335Z</time></trkpt><trkpt lat="42.2123237" lon="12.7547731"><ele>298.0</ele><time>2026-05-03T14:20:13.35Z</time></trkpt><trkpt lat="42.2123334" lon="12.7546531"><ele>298.0</ele><time>2026-05-03T14:20:14.337Z</time></trkpt><trkpt lat="42.2123467" lon="12.7545309"><ele>298.0</ele><time>2026-05-03T14:20:15.334Z</time></trkpt><trkpt lat="42.212382" lon="12.7544037"><ele>295.6</ele><time>2026-05-03T14:20:16.343Z</time></trkpt><trkpt lat="42.2124008" lon="12.7542983"><ele>293.20000000000005</ele><time>2026-05-03T14:20:17.35Z</time></trkpt><trkpt lat="42.2124099" lon="12.7541914"><ele>290.8</ele><time>2026-05-03T14:20:18.338Z</time></trkpt><trkpt lat="42.2124218" lon="12.7539626"><ele>288.40000000000003</ele><time>2026-05-03T14:20:20.172Z</time></trkpt><trkpt lat="42.2124336" lon="12.7538552"><ele>286.0</ele><time>2026-05-03T14:20:21.339Z</time></trkpt><trkpt lat="42.2124416" lon="12.7537525"><ele>286.0</ele><time>2026-05-03T14:20:22.498Z</time></trkpt><trkpt lat="42.2124394" lon="12.7536589"><ele>286.0</ele><time>2026-05-03T14:20:23.494Z</time></trkpt><trkpt lat="42.2123923" lon="12.7535161"><ele>286.0</ele><time>2026-05-03T14:20:25.494Z</time></trkpt><trkpt lat="42.2121983" lon="12.7534657"><ele>286.0</ele><time>2026-05-03T14:20:28.168Z</time></trkpt><trkpt lat="42.2120901" lon="12.7534954"><ele>286.25</ele><time>2026-05-03T14:20:29.17Z</time></trkpt><trkpt lat="42.2119761" lon="12.7535662"><ele>286.5</ele><time>2026-05-03T14:20:30.325Z</time></trkpt><trkpt lat="42.2118821" lon="12.7536478"><ele>286.75</ele><time>2026-05-03T14:20:31.318Z</time></trkpt><trkpt lat="42.2117781" lon="12.7537623"><ele>287.0</ele><time>2026-05-03T14:20:32.494Z</time></trkpt><trkpt lat="42.2116139" lon="12.7539768"><ele>287.0</ele><time>2026-05-03T14:20:34.337Z</time></trkpt><trkpt lat="42.211511" lon="12.7540675"><ele>287.0</ele><time>2026-05-03T14:20:35.338Z</time></trkpt><trkpt lat="42.2112141" lon="12.7542027"><ele>287.0</ele><time>2026-05-03T14:20:37.343Z</time></trkpt><trkpt lat="42.2110586" lon="12.7542987"><ele>288.0</ele><time>2026-05-03T14:20:38.501Z</time></trkpt><trkpt lat="42.2107671" lon="12.754622"><ele>289.0</ele><time>2026-05-03T14:20:40.336Z</time></trkpt><trkpt lat="42.2106405" lon="12.7547188"><ele>287.66666666666663</ele><time>2026-05-03T14:20:41.336Z</time></trkpt><trkpt lat="42.210387" lon="12.7547289"><ele>286.3333333333333</ele><time>2026-05-03T14:20:43.339Z</time></trkpt><trkpt lat="42.2102366" lon="12.7546899"><ele>285.0</ele><time>2026-05-03T14:20:44.336Z</time></trkpt><trkpt lat="42.2100864" lon="12.7546051"><ele>285.0</ele><time>2026-05-03T14:20:45.497Z</time></trkpt><trkpt lat="42.2099392" lon="12.7545408"><ele>285.0</ele><time>2026-05-03T14:20:46.494Z</time></trkpt><trkpt lat="42.209793" lon="12.7545141"><ele>285.0</ele><time>2026-05-03T14:20:47.498Z</time></trkpt><trkpt lat="42.2096427" lon="12.7544611"><ele>282.0</ele><time>2026-05-03T14:20:48.5Z</time></trkpt><trkpt lat="42.2095066" lon="12.7544152"><ele>279.0</ele><time>2026-05-03T14:20:49.5Z</time></trkpt><trkpt lat="42.2093775" lon="12.7543865"><ele>276.0</ele><time>2026-05-03T14:20:50.45Z</time></trkpt><trkpt lat="42.2090021" lon="12.7543673"><ele>275.75</ele><time>2026-05-03T14:20:52.168Z</time></trkpt><trkpt lat="42.2089358" lon="12.7545064"><ele>275.5</ele><time>2026-05-03T14:20:53.326Z</time></trkpt><trkpt lat="42.2088605" lon="12.7546287"><ele>275.25</ele><time>2026-05-03T14:20:54.336Z</time></trkpt><trkpt lat="42.2087834" lon="12.7547528"><ele>275.0</ele><time>2026-05-03T14:20:55.497Z</time></trkpt><trkpt lat="42.2086151" lon="12.7548487"><ele>275.0</ele><time>2026-05-03T14:20:57.495Z</time></trkpt><trkpt lat="42.2085305" lon="12.7548253"><ele>275.0</ele><time>2026-05-03T14:20:58.499Z</time></trkpt><trkpt lat="42.2084646" lon="12.7547482"><ele>275.0</ele><time>2026-05-03T14:20:59.488Z</time></trkpt><trkpt lat="42.2083779" lon="12.7545335"><ele>275.0</ele><time>2026-05-03T14:21:01.165Z</time></trkpt><trkpt lat="42.2083776" lon="12.7544277"><ele>275.0</ele><time>2026-05-03T14:21:02.494Z</time></trkpt><trkpt lat="42.2084792" lon="12.7541999"><ele>278.33333333333337</ele><time>2026-05-03T14:21:04.172Z</time></trkpt><trkpt lat="42.2085204" lon="12.7540868"><ele>281.6666666666667</ele><time>2026-05-03T14:21:05.334Z</time></trkpt><trkpt lat="42.2085798" lon="12.7539802"><ele>285.0</ele><time>2026-05-03T14:21:06.333Z</time></trkpt><trkpt lat="42.2088182" lon="12.7538376"><ele>278.5</ele><time>2026-05-03T14:21:08.328Z</time></trkpt><trkpt lat="42.2091379" lon="12.7538182"><ele>272.0</ele><time>2026-05-03T14:21:10.007Z</time></trkpt><trkpt lat="42.2093135" lon="12.7538288"><ele>272.0</ele><time>2026-05-03T14:21:11.488Z</time></trkpt><trkpt lat="42.2095316" lon="12.7537785"><ele>272.0</ele><time>2026-05-03T14:21:12.486Z</time></trkpt><trkpt lat="42.2098717" lon="12.7535836"><ele>272.25</ele><time>2026-05-03T14:21:14.328Z</time></trkpt><trkpt lat="42.2100449" lon="12.7534687"><ele>272.5</ele><time>2026-05-03T14:21:15.328Z</time></trkpt><trkpt lat="42.2101647" lon="12.7533551"><ele>272.75</ele><time>2026-05-03T14:21:16.333Z</time></trkpt><trkpt lat="42.2102358" lon="12.7532507"><ele>273.0</ele><time>2026-05-03T14:21:17.497Z</time></trkpt><trkpt lat="42.2103365" lon="12.7530613"><ele>273.0</ele><time>2026-05-03T14:21:19.346Z</time></trkpt><trkpt lat="42.2103801" lon="12.7529847"><ele>273.0</ele><time>2026-05-03T14:21:20.337Z</time></trkpt><trkpt lat="42.2104858" lon="12.7528458"><ele>273.0</ele><time>2026-05-03T14:21:23.336Z</time></trkpt><trkpt lat="42.2105188" lon="12.7527637"><ele>273.0</ele><time>2026-05-03T14:21:26.342Z</time></trkpt><trkpt lat="42.2103886" lon="12.7529784"><ele>273.0</ele><time>2026-05-03T14:21:32.169Z</time></trkpt><trkpt lat="42.2103291" lon="12.7530901"><ele>273.0</ele><time>2026-05-03T14:21:33.321Z</time></trkpt><trkpt lat="42.2101375" lon="12.7533392"><ele>273.0</ele><time>2026-05-03T14:21:35.321Z</time></trkpt><trkpt lat="42.2100009" lon="12.7534495"><ele>272.5</ele><time>2026-05-03T14:21:36.328Z</time></trkpt><trkpt lat="42.2096538" lon="12.7537251"><ele>272.0</ele><time>2026-05-03T14:21:38.016Z</time></trkpt><trkpt lat="42.2094888" lon="12.7537765"><ele>272.0</ele><time>2026-05-03T14:21:39.176Z</time></trkpt><trkpt lat="42.2093344" lon="12.7537884"><ele>272.0</ele><time>2026-05-03T14:21:40.171Z</time></trkpt><trkpt lat="42.2090585" lon="12.75375"><ele>272.0</ele><time>2026-05-03T14:21:42.495Z</time></trkpt><trkpt lat="42.2089202" lon="12.7537897"><ele>275.25</ele><time>2026-05-03T14:21:43.492Z</time></trkpt><trkpt lat="42.2087811" lon="12.7538389"><ele>278.5</ele><time>2026-05-03T14:21:44.489Z</time></trkpt><trkpt lat="42.2086393" lon="12.7538957"><ele>281.75</ele><time>2026-05-03T14:21:45.497Z</time></trkpt><trkpt lat="42.2084968" lon="12.7539597"><ele>285.0</ele><time>2026-05-03T14:21:46.496Z</time></trkpt><trkpt lat="42.208242" lon="12.7541472"><ele>294.5</ele><time>2026-05-03T14:21:48.127Z</time></trkpt><trkpt lat="42.2080928" lon="12.7543986"><ele>304.0</ele><time>2026-05-03T14:21:49.469Z</time></trkpt><trkpt lat="42.2078646" lon="12.7547471"><ele>304.0</ele><time>2026-05-03T14:21:50.485Z</time></trkpt><trkpt lat="42.2077737" lon="12.7548484"><ele>304.0</ele><time>2026-05-03T14:21:51.489Z</time></trkpt><trkpt lat="42.2076982" lon="12.7550427"><ele>304.0</ele><time>2026-05-03T14:21:53.485Z</time></trkpt><trkpt lat="42.2076629" lon="12.7553512"><ele>304.0</ele><time>2026-05-03T14:21:56.328Z</time></trkpt><trkpt lat="42.2076425" lon="12.7554493"><ele>304.0</ele><time>2026-05-03T14:21:57.333Z</time></trkpt><trkpt lat="42.2075983" lon="12.7555434"><ele>304.0</ele><time>2026-05-03T14:21:59.338Z</time></trkpt><trkpt lat="42.2075321" lon="12.755465"><ele>304.0</ele><time>2026-05-03T14:22:01.497Z</time></trkpt><trkpt lat="42.207464" lon="12.7552798"><ele>304.0</ele><time>2026-05-03T14:22:03.02Z</time></trkpt><trkpt lat="42.2074559" lon="12.7551313"><ele>304.0</ele><time>2026-05-03T14:22:04.176Z</time></trkpt><trkpt lat="42.2074297" lon="12.7549555"><ele>304.0</ele><time>2026-05-03T14:22:05.178Z</time></trkpt><trkpt lat="42.2074181" lon="12.7547796"><ele>304.0</ele><time>2026-05-03T14:22:06.34Z</time></trkpt><trkpt lat="42.207417" lon="12.7546291"><ele>304.0</ele><time>2026-05-03T14:22:07.499Z</time></trkpt><trkpt lat="42.207435" lon="12.7543645"><ele>305.2</ele><time>2026-05-03T14:22:09.187Z</time></trkpt><trkpt lat="42.2074586" lon="12.7542333"><ele>306.4</ele><time>2026-05-03T14:22:10.342Z</time></trkpt><trkpt lat="42.2075054" lon="12.7541088"><ele>307.6</ele><time>2026-05-03T14:22:11.346Z</time></trkpt><trkpt lat="42.2075666" lon="12.7539789"><ele>308.8</ele><time>2026-05-03T14:22:12.338Z</time></trkpt><trkpt lat="42.2076568" lon="12.7538567"><ele>310.0</ele><time>2026-05-03T14:22:13.344Z</time></trkpt><trkpt lat="42.2077453" lon="12.7537322"><ele>310.0</ele><time>2026-05-03T14:22:14.345Z</time></trkpt><trkpt lat="42.2078315" lon="12.7536126"><ele>310.0</ele><time>2026-05-03T14:22:15.336Z</time></trkpt><trkpt lat="42.2079088" lon="12.7535049"><ele>310.0</ele><time>2026-05-03T14:22:16.348Z</time></trkpt><trkpt lat="42.2079777" lon="12.7533923"><ele>310.0</ele><time>2026-05-03T14:22:17.355Z</time></trkpt><trkpt lat="42.2080375" lon="12.7532869"><ele>310.0</ele><time>2026-05-03T14:22:18.345Z</time></trkpt><trkpt lat="42.2080855" lon="12.7532011"><ele>312.8</ele><time>2026-05-03T14:22:19.351Z</time></trkpt><trkpt lat="42.2081262" lon="12.7530444"><ele>315.6</ele><time>2026-05-03T14:22:21.188Z</time></trkpt><trkpt lat="42.2080674" lon="12.7529327"><ele>318.4</ele><time>2026-05-03T14:22:23.503Z</time></trkpt><trkpt lat="42.2080038" lon="12.752918"><ele>321.2</ele><time>2026-05-03T14:22:24.502Z</time></trkpt><trkpt lat="42.2079455" lon="12.752957"><ele>324.0</ele><time>2026-05-03T14:22:25.499Z</time></trkpt><trkpt lat="42.2078469" lon="12.7531495"><ele>324.0</ele><time>2026-05-03T14:22:27.34Z</time></trkpt><trkpt lat="42.2077936" lon="12.7532562"><ele>324.0</ele><time>2026-05-03T14:22:28.501Z</time></trkpt><trkpt lat="42.207727" lon="12.7533353"><ele>324.0</ele><time>2026-05-03T14:22:29.509Z</time></trkpt><trkpt lat="42.207568" lon="12.7534637"><ele>324.0</ele><time>2026-05-03T14:22:31.022Z</time></trkpt><trkpt lat="42.207451" lon="12.753489"><ele>324.0</ele><time>2026-05-03T14:22:32.017Z</time></trkpt><trkpt lat="42.2073345" lon="12.753486"><ele>324.0</ele><time>2026-05-03T14:22:33.498Z</time></trkpt><trkpt lat="42.2072546" lon="12.753437"><ele>324.0</ele><time>2026-05-03T14:22:34.504Z</time></trkpt><trkpt lat="42.2071928" lon="12.7533622"><ele>324.0</ele><time>2026-05-03T14:22:35.499Z</time></trkpt><trkpt lat="42.2070964" lon="12.7531027"><ele>328.25</ele><time>2026-05-03T14:22:37.192Z</time></trkpt><trkpt lat="42.2070497" lon="12.7529346"><ele>332.5</ele><time>2026-05-03T14:22:38.026Z</time></trkpt><trkpt lat="42.2070047" lon="12.7527761"><ele>336.75</ele><time>2026-05-03T14:22:39.342Z</time></trkpt><trkpt lat="42.2069638" lon="12.7526197"><ele>341.0</ele><time>2026-05-03T14:22:40.504Z</time></trkpt><trkpt lat="42.2069227" lon="12.752479"><ele>341.0</ele><time>2026-05-03T14:22:41.501Z</time></trkpt><trkpt lat="42.20684" lon="12.7521922"><ele>341.0</ele><time>2026-05-03T14:22:43.177Z</time></trkpt><trkpt lat="42.2067953" lon="12.7520658"><ele>341.0</ele><time>2026-05-03T14:22:44.334Z</time></trkpt><trkpt lat="42.2067495" lon="12.7519605"><ele>341.0</ele><time>2026-05-03T14:22:45.337Z</time></trkpt><trkpt lat="42.2066955" lon="12.7518665"><ele>340.0</ele><time>2026-05-03T14:22:46.343Z</time></trkpt><trkpt lat="42.2066445" lon="12.7517847"><ele>339.0</ele><time>2026-05-03T14:22:47.502Z</time></trkpt><trkpt lat="42.2065646" lon="12.7516682"><ele>338.0</ele><time>2026-05-03T14:22:49.343Z</time></trkpt><trkpt lat="42.2064784" lon="12.7516101"><ele>337.0</ele><time>2026-05-03T14:22:51.504Z</time></trkpt><trkpt lat="42.2064111" lon="12.7515759"><ele>336.0</ele><time>2026-05-03T14:22:53.506Z</time></trkpt><trkpt lat="42.2062919" lon="12.7515518"><ele>338.0</ele><time>2026-05-03T14:22:55.344Z</time></trkpt><trkpt lat="42.2062131" lon="12.7515629"><ele>340.0</ele><time>2026-05-03T14:22:56.347Z</time></trkpt><trkpt lat="42.2061298" lon="12.7515815"><ele>342.0</ele><time>2026-05-03T14:22:57.34Z</time></trkpt><trkpt lat="42.2060527" lon="12.7516145"><ele>344.0</ele><time>2026-05-03T14:22:58.34Z</time></trkpt><trkpt lat="42.2059764" lon="12.7516652"><ele>346.0</ele><time>2026-05-03T14:22:59.499Z</time></trkpt><trkpt lat="42.2059027" lon="12.7517153"><ele>348.0</ele><time>2026-05-03T14:23:00.502Z</time></trkpt><trkpt lat="42.2058598" lon="12.751793"><ele>351.25</ele><time>2026-05-03T14:23:01.499Z</time></trkpt><trkpt lat="42.2058685" lon="12.75196"><ele>354.5</ele><time>2026-05-03T14:23:03.499Z</time></trkpt><trkpt lat="42.2059004" lon="12.752065"><ele>357.75</ele><time>2026-05-03T14:23:04.501Z</time></trkpt><trkpt lat="42.2059596" lon="12.7523004"><ele>361.0</ele><time>2026-05-03T14:23:06.033Z</time></trkpt><trkpt lat="42.2059807" lon="12.7524331"><ele>361.0</ele><time>2026-05-03T14:23:07.178Z</time></trkpt><trkpt lat="42.2059751" lon="12.752589"><ele>361.0</ele><time>2026-05-03T14:23:08.178Z</time></trkpt><trkpt lat="42.2059676" lon="12.7527367"><ele>361.0</ele><time>2026-05-03T14:23:09.341Z</time></trkpt><trkpt lat="42.2059374" lon="12.7530058"><ele>361.0</ele><time>2026-05-03T14:23:11.182Z</time></trkpt><trkpt lat="42.2059203" lon="12.7531198"><ele>362.0</ele><time>2026-05-03T14:23:12.334Z</time></trkpt><trkpt lat="42.2058852" lon="12.7532244"><ele>363.0</ele><time>2026-05-03T14:23:13.343Z</time></trkpt><trkpt lat="42.2058445" lon="12.7533342"><ele>364.0</ele><time>2026-05-03T14:23:14.335Z</time></trkpt><trkpt lat="42.2058108" lon="12.7534621"><ele>365.0</ele><time>2026-05-03T14:23:15.341Z</time></trkpt><trkpt lat="42.2058068" lon="12.7536088"><ele>366.0</ele><time>2026-05-03T14:23:16.342Z</time></trkpt><trkpt lat="42.2058113" lon="12.7537675"><ele>366.3333333333333</ele><time>2026-05-03T14:23:17.346Z</time></trkpt><trkpt lat="42.2058071" lon="12.753929"><ele>366.66666666666663</ele><time>2026-05-03T14:23:18.339Z</time></trkpt><trkpt lat="42.2057688" lon="12.7542685"><ele>367.0</ele><time>2026-05-03T14:23:20.339Z</time></trkpt><trkpt lat="42.2057667" lon="12.7544266"><ele>367.5</ele><time>2026-05-03T14:23:21.346Z</time></trkpt><trkpt lat="42.2057722" lon="12.75467"><ele>368.0</ele><time>2026-05-03T14:23:23.176Z</time></trkpt><trkpt lat="42.2058041" lon="12.7547473"><ele>368.5</ele><time>2026-05-03T14:23:39.34Z</time></trkpt><trkpt lat="42.2058259" lon="12.7549269"><ele>369.0</ele><time>2026-05-03T14:23:43.182Z</time></trkpt><trkpt lat="42.2058519" lon="12.7550636"><ele>369.0</ele><time>2026-05-03T14:23:46.185Z</time></trkpt><trkpt lat="42.2058692" lon="12.7551527"><ele>369.0</ele><time>2026-05-03T14:23:48.192Z</time></trkpt><trkpt lat="42.2058851" lon="12.7552474"><ele>369.0</ele><time>2026-05-03T14:23:50.184Z</time></trkpt><trkpt lat="42.2059035" lon="12.7553755"><ele>369.0</ele><time>2026-05-03T14:23:53.187Z</time></trkpt><trkpt lat="42.2059002" lon="12.755464"><ele>369.0</ele><time>2026-05-03T14:23:55.344Z</time></trkpt><trkpt lat="42.2058819" lon="12.7555691"><ele>369.0</ele><time>2026-05-03T14:23:58.184Z</time></trkpt><trkpt lat="42.2058452" lon="12.755686"><ele>368.3333333333333</ele><time>2026-05-03T14:24:02.178Z</time></trkpt><trkpt lat="42.2057982" lon="12.7557724"><ele>367.6666666666667</ele><time>2026-05-03T14:24:04.179Z</time></trkpt><trkpt lat="42.2057356" lon="12.7558669"><ele>367.0</ele><time>2026-05-03T14:24:06.343Z</time></trkpt><trkpt lat="42.2056913" lon="12.7559312"><ele>366.33333333333337</ele><time>2026-05-03T14:24:07.343Z</time></trkpt><trkpt lat="42.2056401" lon="12.756002"><ele>365.6666666666667</ele><time>2026-05-03T14:24:08.506Z</time></trkpt><trkpt lat="42.2055796" lon="12.756079"><ele>365.0</ele><time>2026-05-03T14:24:09.339Z</time></trkpt><trkpt lat="42.2055104" lon="12.7561582"><ele>367.2</ele><time>2026-05-03T14:24:10.504Z</time></trkpt><trkpt lat="42.2054406" lon="12.7562382"><ele>369.4</ele><time>2026-05-03T14:24:11.503Z</time></trkpt><trkpt lat="42.2053193" lon="12.7563974"><ele>371.6</ele><time>2026-05-03T14:24:13.499Z</time></trkpt><trkpt lat="42.2052666" lon="12.7564546"><ele>373.8</ele><time>2026-05-03T14:24:14.503Z</time></trkpt><trkpt lat="42.2051732" lon="12.7565477"><ele>376.0</ele><time>2026-05-03T14:24:16.508Z</time></trkpt><trkpt lat="42.2051138" lon="12.7566065"><ele>376.0</ele><time>2026-05-03T14:24:17.454Z</time></trkpt><trkpt lat="42.204971" lon="12.7567092"><ele>376.0</ele><time>2026-05-03T14:24:19.328Z</time></trkpt><trkpt lat="42.204885" lon="12.7567526"><ele>376.0</ele><time>2026-05-03T14:24:20.346Z</time></trkpt><trkpt lat="42.2048114" lon="12.7568059"><ele>376.0</ele><time>2026-05-03T14:24:21.501Z</time></trkpt><trkpt lat="42.2046952" lon="12.7569301"><ele>378.4</ele><time>2026-05-03T14:24:23.334Z</time></trkpt><trkpt lat="42.2046413" lon="12.7570119"><ele>380.8</ele><time>2026-05-03T14:24:24.498Z</time></trkpt><trkpt lat="42.2045906" lon="12.7571003"><ele>383.2</ele><time>2026-05-03T14:24:25.502Z</time></trkpt><trkpt lat="42.204501" lon="12.7573117"><ele>385.59999999999997</ele><time>2026-05-03T14:24:27.02Z</time></trkpt><trkpt lat="42.2044609" lon="12.7574238"><ele>388.0</ele><time>2026-05-03T14:24:28.342Z</time></trkpt><trkpt lat="42.2044224" lon="12.7575234"><ele>388.0</ele><time>2026-05-03T14:24:29.336Z</time></trkpt><trkpt lat="42.2043869" lon="12.7576005"><ele>388.0</ele><time>2026-05-03T14:24:30.337Z</time></trkpt><trkpt lat="42.2043095" lon="12.757732"><ele>388.0</ele><time>2026-05-03T14:24:32.343Z</time></trkpt><trkpt lat="42.2042213" lon="12.757778"><ele>388.0</ele><time>2026-05-03T14:24:33.346Z</time></trkpt><trkpt lat="42.2041263" lon="12.7578178"><ele>388.0</ele><time>2026-05-03T14:24:34.35Z</time></trkpt><trkpt lat="42.2040434" lon="12.7578641"><ele>389.5</ele><time>2026-05-03T14:24:35.353Z</time></trkpt><trkpt lat="42.2039765" lon="12.7579132"><ele>391.0</ele><time>2026-05-03T14:24:36.346Z</time></trkpt><trkpt lat="42.2038147" lon="12.7580452"><ele>392.5</ele><time>2026-05-03T14:24:38.352Z</time></trkpt><trkpt lat="42.2037168" lon="12.7581213"><ele>394.0</ele><time>2026-05-03T14:24:39.347Z</time></trkpt><trkpt lat="42.2036028" lon="12.758158"><ele>394.0</ele><time>2026-05-03T14:24:40.344Z</time></trkpt><trkpt lat="42.203471" lon="12.7581792"><ele>394.0</ele><time>2026-05-03T14:24:41.347Z</time></trkpt><trkpt lat="42.2032087" lon="12.7582196"><ele>394.0</ele><time>2026-05-03T14:24:43.512Z</time></trkpt><trkpt lat="42.203094" lon="12.7582524"><ele>396.5</ele><time>2026-05-03T14:24:44.505Z</time></trkpt><trkpt lat="42.2029885" lon="12.7582923"><ele>399.0</ele><time>2026-05-03T14:24:45.68Z</time></trkpt><trkpt lat="42.2028082" lon="12.7583811"><ele>401.5</ele><time>2026-05-03T14:24:47.077Z</time></trkpt><trkpt lat="42.2026737" lon="12.7584201"><ele>404.0</ele><time>2026-05-03T14:24:48.863Z</time></trkpt><trkpt lat="42.2026104" lon="12.7584171"><ele>403.99999999999994</ele><time>2026-05-03T14:24:49.863Z</time></trkpt><trkpt lat="42.2025458" lon="12.7583914"><ele>404.0</ele><time>2026-05-03T14:24:50.874Z</time></trkpt><trkpt lat="42.2024608" lon="12.7583432"><ele>404.0</ele><time>2026-05-03T14:24:51.871Z</time></trkpt><trkpt lat="42.2023684" lon="12.7582865"><ele>404.0</ele><time>2026-05-03T14:24:52.866Z</time></trkpt><trkpt lat="42.2022805" lon="12.7582351"><ele>403.99999999999994</ele><time>2026-05-03T14:24:53.869Z</time></trkpt><trkpt lat="42.2021944" lon="12.7582034"><ele>404.0</ele><time>2026-05-03T14:24:54.869Z</time></trkpt><trkpt lat="42.2021184" lon="12.7581814"><ele>406.4</ele><time>2026-05-03T14:24:55.869Z</time></trkpt><trkpt lat="42.2020459" lon="12.7581782"><ele>408.79999999999995</ele><time>2026-05-03T14:24:56.872Z</time></trkpt><trkpt lat="42.2019722" lon="12.7581981"><ele>411.20000000000005</ele><time>2026-05-03T14:24:57.872Z</time></trkpt><trkpt lat="42.2018842" lon="12.7582366"><ele>413.6</ele><time>2026-05-03T14:24:58.871Z</time></trkpt><trkpt lat="42.2017774" lon="12.7582971"><ele>416.0</ele><time>2026-05-03T14:24:59.871Z</time></trkpt><trkpt lat="42.2016791" lon="12.7583931"><ele>416.0</ele><time>2026-05-03T14:25:00.873Z</time></trkpt><trkpt lat="42.2015776" lon="12.7584885"><ele>416.0</ele><time>2026-05-03T14:25:01.874Z</time></trkpt><trkpt lat="42.2014926" lon="12.7585799"><ele>416.0</ele><time>2026-05-03T14:25:02.866Z</time></trkpt><trkpt lat="42.201417" lon="12.7586897"><ele>416.0</ele><time>2026-05-03T14:25:03.887Z</time></trkpt><trkpt lat="42.2013611" lon="12.758836"><ele>418.20000000000005</ele><time>2026-05-03T14:25:04.87Z</time></trkpt><trkpt lat="42.2013121" lon="12.7589977"><ele>420.40000000000003</ele><time>2026-05-03T14:25:05.866Z</time></trkpt><trkpt lat="42.2012668" lon="12.7591345"><ele>422.6</ele><time>2026-05-03T14:25:06.872Z</time></trkpt><trkpt lat="42.2012278" lon="12.7592411"><ele>424.8</ele><time>2026-05-03T14:25:07.871Z</time></trkpt><trkpt lat="42.201191" lon="12.7593161"><ele>427.0</ele><time>2026-05-03T14:25:08.863Z</time></trkpt><trkpt lat="42.201152" lon="12.7593834"><ele>427.00000000000006</ele><time>2026-05-03T14:25:09.875Z</time></trkpt><trkpt lat="42.2011124" lon="12.7594515"><ele>427.0</ele><time>2026-05-03T14:25:10.869Z</time></trkpt><trkpt lat="42.2010542" lon="12.7595129"><ele>427.0</ele><time>2026-05-03T14:25:11.874Z</time></trkpt><trkpt lat="42.2009777" lon="12.7595843"><ele>427.0</ele><time>2026-05-03T14:25:12.9Z</time></trkpt><trkpt lat="42.2008952" lon="12.7596448"><ele>427.00000000000006</ele><time>2026-05-03T14:25:13.872Z</time></trkpt><trkpt lat="42.2008076" lon="12.7596904"><ele>427.0</ele><time>2026-05-03T14:25:14.868Z</time></trkpt><trkpt lat="42.2007066" lon="12.7597378"><ele>436.5</ele><time>2026-05-03T14:25:15.875Z</time></trkpt><trkpt lat="42.2005948" lon="12.7597906"><ele>446.0</ele><time>2026-05-03T14:25:16.864Z</time></trkpt><trkpt lat="42.200487" lon="12.7598663"><ele>455.5</ele><time>2026-05-03T14:25:17.862Z</time></trkpt><trkpt lat="42.2003923" lon="12.7599418"><ele>465.0</ele><time>2026-05-03T14:25:18.888Z</time></trkpt><trkpt lat="42.2003008" lon="12.7600122"><ele>465.0</ele><time>2026-05-03T14:25:19.879Z</time></trkpt><trkpt lat="42.2002097" lon="12.7601139"><ele>465.0</ele><time>2026-05-03T14:25:20.861Z</time></trkpt><trkpt lat="42.2001462" lon="12.760244"><ele>465.0</ele><time>2026-05-03T14:25:21.855Z</time></trkpt><trkpt lat="42.2000659" lon="12.7603693"><ele>465.0</ele><time>2026-05-03T14:25:22.858Z</time></trkpt><trkpt lat="42.1999871" lon="12.7604592"><ele>462.3333333333333</ele><time>2026-05-03T14:25:23.852Z</time></trkpt><trkpt lat="42.1999298" lon="12.7605335"><ele>459.66666666666663</ele><time>2026-05-03T14:25:24.856Z</time></trkpt><trkpt lat="42.199863" lon="12.7606066"><ele>457.0</ele><time>2026-05-03T14:25:25.86Z</time></trkpt><trkpt lat="42.1997958" lon="12.7606727"><ele>454.3333333333333</ele><time>2026-05-03T14:25:26.857Z</time></trkpt><trkpt lat="42.1997207" lon="12.7607571"><ele>451.66666666666663</ele><time>2026-05-03T14:25:28.853Z</time></trkpt><trkpt lat="42.1996574" lon="12.7608034"><ele>449.0</ele><time>2026-05-03T14:25:38.867Z</time></trkpt><trkpt lat="42.199526" lon="12.7609134"><ele>453.79999999999995</ele><time>2026-05-03T14:26:34.86Z</time></trkpt><trkpt lat="42.1994487" lon="12.7610062"><ele>458.59999999999997</ele><time>2026-05-03T14:26:36.862Z</time></trkpt><trkpt lat="42.1993522" lon="12.7611046"><ele>463.4</ele><time>2026-05-03T14:26:38.866Z</time></trkpt><trkpt lat="42.1992966" lon="12.7612054"><ele>468.2</ele><time>2026-05-03T14:26:40.878Z</time></trkpt><trkpt lat="42.1992356" lon="12.7612826"><ele>473.0</ele><time>2026-05-03T14:26:42.857Z</time></trkpt><trkpt lat="42.1991495" lon="12.7614079"><ele>472.99999999999994</ele><time>2026-05-03T14:26:44.853Z</time></trkpt><trkpt lat="42.199096" lon="12.7614757"><ele>473.0</ele><time>2026-05-03T14:26:45.861Z</time></trkpt><trkpt lat="42.1990535" lon="12.7615546"><ele>473.0</ele><time>2026-05-03T14:26:46.853Z</time></trkpt><trkpt lat="42.1989922" lon="12.76164"><ele>473.0</ele><time>2026-05-03T14:26:47.853Z</time></trkpt><trkpt lat="42.1989275" lon="12.7617219"><ele>472.99999999999994</ele><time>2026-05-03T14:26:48.859Z</time></trkpt><trkpt lat="42.1988543" lon="12.7617887"><ele>473.0</ele><time>2026-05-03T14:26:49.86Z</time></trkpt><trkpt lat="42.1987971" lon="12.7618355"><ele>473.49999999999994</ele><time>2026-05-03T14:26:50.862Z</time></trkpt><trkpt lat="42.1987084" lon="12.7619135"><ele>474.0</ele><time>2026-05-03T14:26:52.859Z</time></trkpt><trkpt lat="42.1986459" lon="12.7619602"><ele>474.5</ele><time>2026-05-03T14:27:01.863Z</time></trkpt><trkpt lat="42.1985835" lon="12.762013"><ele>475.0</ele><time>2026-05-03T14:27:18.887Z</time></trkpt><trkpt lat="42.1985283" lon="12.7620602"><ele>475.49999999999994</ele><time>2026-05-03T14:27:22.857Z</time></trkpt><trkpt lat="42.198553" lon="12.7619541"><ele>476.0</ele><time>2026-05-03T14:27:27.852Z</time></trkpt><trkpt lat="42.1985921" lon="12.7618641"><ele>482.4</ele><time>2026-05-03T14:27:28.863Z</time></trkpt><trkpt lat="42.1986805" lon="12.7617157"><ele>488.8</ele><time>2026-05-03T14:27:30.857Z</time></trkpt><trkpt lat="42.1987273" lon="12.7616462"><ele>495.19999999999993</ele><time>2026-05-03T14:27:31.86Z</time></trkpt><trkpt lat="42.1987751" lon="12.7615654"><ele>501.59999999999997</ele><time>2026-05-03T14:27:32.857Z</time></trkpt><trkpt lat="42.1988459" lon="12.7614738"><ele>508.0</ele><time>2026-05-03T14:27:33.944Z</time></trkpt><trkpt lat="42.1989176" lon="12.761379"><ele>508.00000000000006</ele><time>2026-05-03T14:27:34.88Z</time></trkpt><trkpt lat="42.1989716" lon="12.7612889"><ele>508.0</ele><time>2026-05-03T14:27:35.874Z</time></trkpt><trkpt lat="42.1990099" lon="12.7611896"><ele>508.0</ele><time>2026-05-03T14:27:36.879Z</time></trkpt><trkpt lat="42.1990749" lon="12.7611223"><ele>508.0</ele><time>2026-05-03T14:27:37.862Z</time></trkpt><trkpt lat="42.1991342" lon="12.7610501"><ele>508.00000000000006</ele><time>2026-05-03T14:27:38.853Z</time></trkpt><trkpt lat="42.1991833" lon="12.7609634"><ele>508.0</ele><time>2026-05-03T14:27:39.853Z</time></trkpt><trkpt lat="42.1992241" lon="12.7608605"><ele>505.6666666666667</ele><time>2026-05-03T14:27:40.879Z</time></trkpt><trkpt lat="42.1992625" lon="12.7607443"><ele>503.33333333333337</ele><time>2026-05-03T14:27:41.854Z</time></trkpt><trkpt lat="42.1992883" lon="12.7606422"><ele>501.0</ele><time>2026-05-03T14:27:42.846Z</time></trkpt><trkpt lat="42.1993254" lon="12.7605461"><ele>498.66666666666663</ele><time>2026-05-03T14:27:43.858Z</time></trkpt><trkpt lat="42.1993803" lon="12.760462"><ele>496.3333333333333</ele><time>2026-05-03T14:27:44.849Z</time></trkpt><trkpt lat="42.1994436" lon="12.760387"><ele>494.0</ele><time>2026-05-03T14:27:45.88Z</time></trkpt><trkpt lat="42.1995164" lon="12.7603316"><ele>494.0</ele><time>2026-05-03T14:27:46.855Z</time></trkpt><trkpt lat="42.1995994" lon="12.7602869"><ele>494.0</ele><time>2026-05-03T14:27:47.859Z</time></trkpt><trkpt lat="42.199684" lon="12.76025"><ele>494.0</ele><time>2026-05-03T14:27:48.86Z</time></trkpt><trkpt lat="42.1997707" lon="12.7602134"><ele>494.0</ele><time>2026-05-03T14:27:49.858Z</time></trkpt><trkpt lat="42.1998595" lon="12.7601725"><ele>494.0</ele><time>2026-05-03T14:27:50.861Z</time></trkpt><trkpt lat="42.1999445" lon="12.7601105"><ele>489.16666666666663</ele><time>2026-05-03T14:27:51.858Z</time></trkpt><trkpt lat="42.2000284" lon="12.760036"><ele>484.3333333333333</ele><time>2026-05-03T14:27:52.885Z</time></trkpt><trkpt lat="42.2001048" lon="12.7599634"><ele>479.5</ele><time>2026-05-03T14:27:53.875Z</time></trkpt><trkpt lat="42.2001718" lon="12.75989"><ele>474.66666666666663</ele><time>2026-05-03T14:27:54.857Z</time></trkpt><trkpt lat="42.200228" lon="12.7598124"><ele>469.8333333333333</ele><time>2026-05-03T14:27:55.86Z</time></trkpt><trkpt lat="42.2002773" lon="12.7597212"><ele>465.0</ele><time>2026-05-03T14:27:56.884Z</time></trkpt><trkpt lat="42.2003249" lon="12.7596171"><ele>465.0</ele><time>2026-05-03T14:27:57.88Z</time></trkpt><trkpt lat="42.2003708" lon="12.7595002"><ele>465.0</ele><time>2026-05-03T14:27:58.856Z</time></trkpt><trkpt lat="42.2004112" lon="12.7593753"><ele>465.0</ele><time>2026-05-03T14:27:59.854Z</time></trkpt><trkpt lat="42.2004459" lon="12.759257"><ele>465.0</ele><time>2026-05-03T14:28:00.855Z</time></trkpt><trkpt lat="42.2004843" lon="12.7591435"><ele>465.0</ele><time>2026-05-03T14:28:01.858Z</time></trkpt><trkpt lat="42.2005354" lon="12.7590441"><ele>468.0</ele><time>2026-05-03T14:28:02.846Z</time></trkpt><trkpt lat="42.2006154" lon="12.7589376"><ele>471.0</ele><time>2026-05-03T14:28:03.859Z</time></trkpt><trkpt lat="42.2007063" lon="12.7588537"><ele>474.0</ele><time>2026-05-03T14:28:04.85Z</time></trkpt><trkpt lat="42.2008015" lon="12.7587892"><ele>477.0</ele><time>2026-05-03T14:28:05.848Z</time></trkpt><trkpt lat="42.2008696" lon="12.7586994"><ele>480.0</ele><time>2026-05-03T14:28:06.847Z</time></trkpt><trkpt lat="42.2009653" lon="12.758627"><ele>474.1666666666667</ele><time>2026-05-03T14:28:07.856Z</time></trkpt><trkpt lat="42.2010343" lon="12.7585766"><ele>468.33333333333337</ele><time>2026-05-03T14:28:08.856Z</time></trkpt><trkpt lat="42.2010966" lon="12.7585346"><ele>462.5</ele><time>2026-05-03T14:28:09.856Z</time></trkpt><trkpt lat="42.2011933" lon="12.7584522"><ele>456.6666666666667</ele><time>2026-05-03T14:28:11.854Z</time></trkpt><trkpt lat="42.2012772" lon="12.7583961"><ele>450.83333333333337</ele><time>2026-05-03T14:28:13.842Z</time></trkpt><trkpt lat="42.2013447" lon="12.7583775"><ele>445.0</ele><time>2026-05-03T14:28:15.843Z</time></trkpt><trkpt lat="42.2014155" lon="12.7584019"><ele>445.00000000000006</ele><time>2026-05-03T14:28:17.847Z</time></trkpt><trkpt lat="42.2014894" lon="12.7584026"><ele>445.0</ele><time>2026-05-03T14:28:18.864Z</time></trkpt><trkpt lat="42.2016106" lon="12.7583647"><ele>445.0</ele><time>2026-05-03T14:28:20.845Z</time></trkpt><trkpt lat="42.2016729" lon="12.7583335"><ele>445.0</ele><time>2026-05-03T14:28:21.848Z</time></trkpt><trkpt lat="42.201745" lon="12.7582909"><ele>445.00000000000006</ele><time>2026-05-03T14:28:22.848Z</time></trkpt><trkpt lat="42.2018443" lon="12.7582606"><ele>445.0</ele><time>2026-05-03T14:28:23.856Z</time></trkpt><trkpt lat="42.201932" lon="12.7582409"><ele>439.2</ele><time>2026-05-03T14:28:24.847Z</time></trkpt><trkpt lat="42.2020291" lon="12.7582378"><ele>433.4</ele><time>2026-05-03T14:28:25.855Z</time></trkpt><trkpt lat="42.2021172" lon="12.7582215"><ele>427.6</ele><time>2026-05-03T14:28:26.857Z</time></trkpt><trkpt lat="42.2022098" lon="12.7582057"><ele>421.8</ele><time>2026-05-03T14:28:27.85Z</time></trkpt><trkpt lat="42.2023061" lon="12.7581984"><ele>416.0</ele><time>2026-05-03T14:28:28.879Z</time></trkpt><trkpt lat="42.2023931" lon="12.7581924"><ele>413.6</ele><time>2026-05-03T14:28:29.874Z</time></trkpt><trkpt lat="42.2024732" lon="12.7581741"><ele>411.20000000000005</ele><time>2026-05-03T14:28:30.876Z</time></trkpt><trkpt lat="42.2025493" lon="12.7581431"><ele>408.79999999999995</ele><time>2026-05-03T14:28:31.855Z</time></trkpt><trkpt lat="42.2026225" lon="12.7580946"><ele>406.4</ele><time>2026-05-03T14:28:32.868Z</time></trkpt><trkpt lat="42.2027087" lon="12.7580166"><ele>404.0</ele><time>2026-05-03T14:28:33.872Z</time></trkpt><trkpt lat="42.2028" lon="12.7579465"><ele>403.99999999999994</ele><time>2026-05-03T14:28:34.892Z</time></trkpt><trkpt lat="42.2028856" lon="12.7579053"><ele>404.0</ele><time>2026-05-03T14:28:35.853Z</time></trkpt><trkpt lat="42.2029686" lon="12.7578764"><ele>404.0</ele><time>2026-05-03T14:28:36.844Z</time></trkpt><trkpt lat="42.2030358" lon="12.7578417"><ele>404.0</ele><time>2026-05-03T14:28:37.853Z</time></trkpt><trkpt lat="42.2031047" lon="12.7577952"><ele>403.99999999999994</ele><time>2026-05-03T14:28:38.844Z</time></trkpt><trkpt lat="42.2031864" lon="12.7577595"><ele>404.0</ele><time>2026-05-03T14:28:39.856Z</time></trkpt><trkpt lat="42.2032405" lon="12.7576792"><ele>402.99999999999994</ele><time>2026-05-03T14:28:40.849Z</time></trkpt><trkpt lat="42.2032828" lon="12.7575878"><ele>402.0</ele><time>2026-05-03T14:28:41.853Z</time></trkpt><trkpt lat="42.203307" lon="12.7574936"><ele>401.0</ele><time>2026-05-03T14:28:42.847Z</time></trkpt><trkpt lat="42.2033392" lon="12.7573927"><ele>400.0</ele><time>2026-05-03T14:28:43.846Z</time></trkpt><trkpt lat="42.2033779" lon="12.7572984"><ele>398.99999999999994</ele><time>2026-05-03T14:28:44.854Z</time></trkpt><trkpt lat="42.2034286" lon="12.7572207"><ele>398.0</ele><time>2026-05-03T14:28:45.839Z</time></trkpt><trkpt lat="42.2034816" lon="12.757159"><ele>397.99999999999994</ele><time>2026-05-03T14:28:46.846Z</time></trkpt><trkpt lat="42.2035617" lon="12.7570766"><ele>398.0</ele><time>2026-05-03T14:28:48.851Z</time></trkpt><trkpt lat="42.2036294" lon="12.7570372"><ele>398.0</ele><time>2026-05-03T14:28:50.843Z</time></trkpt><trkpt lat="42.203696" lon="12.7569862"><ele>398.0</ele><time>2026-05-03T14:28:52.84Z</time></trkpt><trkpt lat="42.2037547" lon="12.7569553"><ele>397.99999999999994</ele><time>2026-05-03T14:28:54.838Z</time></trkpt><trkpt lat="42.2038162" lon="12.7569324"><ele>398.0</ele><time>2026-05-03T14:28:56.853Z</time></trkpt><trkpt lat="42.2038937" lon="12.7568866"><ele>397.2</ele><time>2026-05-03T14:28:58.85Z</time></trkpt><trkpt lat="42.2039458" lon="12.7568294"><ele>396.4</ele><time>2026-05-03T14:28:59.847Z</time></trkpt><trkpt lat="42.2040076" lon="12.7567544"><ele>395.59999999999997</ele><time>2026-05-03T14:29:00.848Z</time></trkpt><trkpt lat="42.2040865" lon="12.7566642"><ele>394.79999999999995</ele><time>2026-05-03T14:29:01.832Z</time></trkpt><trkpt lat="42.2041663" lon="12.7565514"><ele>394.0</ele><time>2026-05-03T14:29:02.843Z</time></trkpt><trkpt lat="42.2042442" lon="12.7564325"><ele>394.0</ele><time>2026-05-03T14:29:03.845Z</time></trkpt><trkpt lat="42.2043423" lon="12.7563163"><ele>394.0</ele><time>2026-05-03T14:29:04.854Z</time></trkpt><trkpt lat="42.2044185" lon="12.7562196"><ele>394.0</ele><time>2026-05-03T14:29:05.848Z</time></trkpt><trkpt lat="42.2044906" lon="12.7561225"><ele>394.0</ele><time>2026-05-03T14:29:06.848Z</time></trkpt><trkpt lat="42.2045459" lon="12.7560148"><ele>394.0</ele><time>2026-05-03T14:29:07.85Z</time></trkpt><trkpt lat="42.2045935" lon="12.7558939"><ele>395.79999999999995</ele><time>2026-05-03T14:29:08.846Z</time></trkpt><trkpt lat="42.2046252" lon="12.755771"><ele>397.59999999999997</ele><time>2026-05-03T14:29:09.851Z</time></trkpt><trkpt lat="42.2046498" lon="12.7556557"><ele>399.4</ele><time>2026-05-03T14:29:10.852Z</time></trkpt><trkpt lat="42.2046539" lon="12.7555322"><ele>401.2</ele><time>2026-05-03T14:29:11.846Z</time></trkpt><trkpt lat="42.2046609" lon="12.7553964"><ele>403.0</ele><time>2026-05-03T14:29:12.847Z</time></trkpt><trkpt lat="42.20466" lon="12.7552355"><ele>405.75</ele><time>2026-05-03T14:29:13.85Z</time></trkpt><trkpt lat="42.2046539" lon="12.7550625"><ele>408.5</ele><time>2026-05-03T14:29:14.853Z</time></trkpt><trkpt lat="42.2046501" lon="12.7548962"><ele>411.25</ele><time>2026-05-03T14:29:15.851Z</time></trkpt><trkpt lat="42.2046576" lon="12.7547373"><ele>414.0</ele><time>2026-05-03T14:29:16.848Z</time></trkpt><trkpt lat="42.2046764" lon="12.7545719"><ele>414.0</ele><time>2026-05-03T14:29:17.852Z</time></trkpt><trkpt lat="42.2047027" lon="12.754406"><ele>414.0</ele><time>2026-05-03T14:29:18.854Z</time></trkpt><trkpt lat="42.2047204" lon="12.7542439"><ele>414.0</ele><time>2026-05-03T14:29:19.854Z</time></trkpt><trkpt lat="42.2047206" lon="12.7540926"><ele>414.0</ele><time>2026-05-03T14:29:20.855Z</time></trkpt><trkpt lat="42.204711" lon="12.7539584"><ele>414.3333333333333</ele><time>2026-05-03T14:29:21.856Z</time></trkpt><trkpt lat="42.2047106" lon="12.7538351"><ele>414.66666666666663</ele><time>2026-05-03T14:29:22.848Z</time></trkpt><trkpt lat="42.2047314" lon="12.7537216"><ele>415.0</ele><time>2026-05-03T14:29:23.845Z</time></trkpt><trkpt lat="42.20476" lon="12.7536143"><ele>415.3333333333333</ele><time>2026-05-03T14:29:24.851Z</time></trkpt><trkpt lat="42.204803" lon="12.7535118"><ele>415.66666666666663</ele><time>2026-05-03T14:29:25.848Z</time></trkpt><trkpt lat="42.2048201" lon="12.7534065"><ele>416.0</ele><time>2026-05-03T14:29:26.853Z</time></trkpt><trkpt lat="42.2048187" lon="12.753276"><ele>412.0</ele><time>2026-05-03T14:29:27.852Z</time></trkpt><trkpt lat="42.20481" lon="12.7531373"><ele>408.0</ele><time>2026-05-03T14:29:28.848Z</time></trkpt><trkpt lat="42.2048114" lon="12.7530053"><ele>404.0</ele><time>2026-05-03T14:29:29.85Z</time></trkpt><trkpt lat="42.2048154" lon="12.752887"><ele>400.0</ele><time>2026-05-03T14:29:30.853Z</time></trkpt><trkpt lat="42.204814" lon="12.7527715"><ele>396.0</ele><time>2026-05-03T14:29:31.851Z</time></trkpt><trkpt lat="42.2047988" lon="12.7526484"><ele>394.3333333333333</ele><time>2026-05-03T14:29:32.855Z</time></trkpt><trkpt lat="42.2047749" lon="12.7525328"><ele>392.66666666666663</ele><time>2026-05-03T14:29:33.851Z</time></trkpt><trkpt lat="42.204738" lon="12.7524213"><ele>391.0</ele><time>2026-05-03T14:29:34.852Z</time></trkpt><trkpt lat="42.2047074" lon="12.7523149"><ele>389.3333333333333</ele><time>2026-05-03T14:29:35.852Z</time></trkpt><trkpt lat="42.2046943" lon="12.7522101"><ele>387.66666666666663</ele><time>2026-05-03T14:29:36.85Z</time></trkpt><trkpt lat="42.2046864" lon="12.7520994"><ele>386.0</ele><time>2026-05-03T14:29:37.85Z</time></trkpt><trkpt lat="42.204701" lon="12.7519985"><ele>386.00000000000006</ele><time>2026-05-03T14:29:38.852Z</time></trkpt><trkpt lat="42.2047353" lon="12.7519223"><ele>386.0</ele><time>2026-05-03T14:29:39.848Z</time></trkpt><trkpt lat="42.2048081" lon="12.7518917"><ele>386.0</ele><time>2026-05-03T14:29:40.868Z</time></trkpt><trkpt lat="42.2048843" lon="12.751882"><ele>386.0</ele><time>2026-05-03T14:29:41.852Z</time></trkpt><trkpt lat="42.2049602" lon="12.7518811"><ele>386.0</ele><time>2026-05-03T14:29:42.847Z</time></trkpt><trkpt lat="42.2050344" lon="12.7519023"><ele>386.00000000000006</ele><time>2026-05-03T14:29:43.851Z</time></trkpt><trkpt lat="42.2051" lon="12.7519452"><ele>386.0</ele><time>2026-05-03T14:29:44.853Z</time></trkpt><trkpt lat="42.2051686" lon="12.7519925"><ele>383.49999999999994</ele><time>2026-05-03T14:29:45.847Z</time></trkpt><trkpt lat="42.2052326" lon="12.7520585"><ele>381.0</ele><time>2026-05-03T14:29:46.848Z</time></trkpt><trkpt lat="42.2052895" lon="12.7521589"><ele>378.5</ele><time>2026-05-03T14:29:47.86Z</time></trkpt><trkpt lat="42.2053484" lon="12.7522669"><ele>376.0</ele><time>2026-05-03T14:29:48.854Z</time></trkpt><trkpt lat="42.2053951" lon="12.7523641"><ele>373.5</ele><time>2026-05-03T14:29:49.852Z</time></trkpt><trkpt lat="42.2054407" lon="12.7524493"><ele>371.0</ele><time>2026-05-03T14:29:50.857Z</time></trkpt><trkpt lat="42.2054761" lon="12.752527"><ele>371.0</ele><time>2026-05-03T14:29:51.851Z</time></trkpt><trkpt lat="42.2055021" lon="12.7526128"><ele>371.0</ele><time>2026-05-03T14:29:52.839Z</time></trkpt><trkpt lat="42.2055252" lon="12.7526994"><ele>371.0</ele><time>2026-05-03T14:29:53.851Z</time></trkpt><trkpt lat="42.2055452" lon="12.7527922"><ele>371.0</ele><time>2026-05-03T14:29:54.85Z</time></trkpt><trkpt lat="42.2055691" lon="12.7529086"><ele>371.0</ele><time>2026-05-03T14:29:55.849Z</time></trkpt><trkpt lat="42.2056075" lon="12.7530281"><ele>371.0</ele><time>2026-05-03T14:29:56.865Z</time></trkpt><trkpt lat="42.2056431" lon="12.7531487"><ele>370.20000000000005</ele><time>2026-05-03T14:29:57.849Z</time></trkpt><trkpt lat="42.2056827" lon="12.7532656"><ele>369.40000000000003</ele><time>2026-05-03T14:29:58.851Z</time></trkpt><trkpt lat="42.2057221" lon="12.753369"><ele>368.6</ele><time>2026-05-03T14:29:59.866Z</time></trkpt><trkpt lat="42.205755" lon="12.7534806"><ele>367.8</ele><time>2026-05-03T14:30:00.848Z</time></trkpt><trkpt lat="42.2058055" lon="12.7536318"><ele>367.0</ele><time>2026-05-03T14:30:02.849Z</time></trkpt><trkpt lat="42.2058904" lon="12.7537041"><ele>367.0</ele><time>2026-05-03T14:30:04.845Z</time></trkpt><trkpt lat="42.2060225" lon="12.7536939"><ele>367.0</ele><time>2026-05-03T14:30:06.849Z</time></trkpt><trkpt lat="42.2061028" lon="12.7536667"><ele>367.0</ele><time>2026-05-03T14:30:07.862Z</time></trkpt><trkpt lat="42.2061838" lon="12.7536433"><ele>367.0</ele><time>2026-05-03T14:30:08.877Z</time></trkpt><trkpt lat="42.2062464" lon="12.7536141"><ele>367.0</ele><time>2026-05-03T14:30:09.867Z</time></trkpt><trkpt lat="42.2063427" lon="12.7534873"><ele>367.0</ele><time>2026-05-03T14:30:11.856Z</time></trkpt><trkpt lat="42.2063748" lon="12.7534015"><ele>367.0</ele><time>2026-05-03T14:30:12.853Z</time></trkpt><trkpt lat="42.2064326" lon="12.7532799"><ele>367.0</ele><time>2026-05-03T14:30:14.85Z</time></trkpt><trkpt lat="42.206516" lon="12.7533418"><ele>367.0</ele><time>2026-05-03T14:30:17.879Z</time></trkpt><trkpt lat="42.2065236" lon="12.7534617"><ele>367.0</ele><time>2026-05-03T14:30:19.849Z</time></trkpt><trkpt lat="42.2064941" lon="12.7535898"><ele>367.0</ele><time>2026-05-03T14:30:21.852Z</time></trkpt><trkpt lat="42.2064239" lon="12.7537393"><ele>367.0</ele><time>2026-05-03T14:30:23.848Z</time></trkpt><trkpt lat="42.2063722" lon="12.7538068"><ele>367.0</ele><time>2026-05-03T14:30:24.846Z</time></trkpt><trkpt lat="42.2063116" lon="12.7538774"><ele>367.0</ele><time>2026-05-03T14:30:25.859Z</time></trkpt><trkpt lat="42.2062604" lon="12.7539532"><ele>367.0</ele><time>2026-05-03T14:30:26.842Z</time></trkpt><trkpt lat="42.2062065" lon="12.7540428"><ele>367.0</ele><time>2026-05-03T14:30:27.853Z</time></trkpt><trkpt lat="42.2061351" lon="12.7541324"><ele>367.0</ele><time>2026-05-03T14:30:28.846Z</time></trkpt><trkpt lat="42.2060767" lon="12.7542228"><ele>367.0</ele><time>2026-05-03T14:30:29.849Z</time></trkpt><trkpt lat="42.2060349" lon="12.7543157"><ele>367.0</ele><time>2026-05-03T14:30:30.854Z</time></trkpt><trkpt lat="42.2059982" lon="12.7544208"><ele>367.0</ele><time>2026-05-03T14:30:31.844Z</time></trkpt><trkpt lat="42.2059744" lon="12.7545276"><ele>367.0</ele><time>2026-05-03T14:30:32.857Z</time></trkpt><trkpt lat="42.2059518" lon="12.7546495"><ele>367.0</ele><time>2026-05-03T14:30:33.868Z</time></trkpt><trkpt lat="42.2059389" lon="12.7547731"><ele>367.5</ele><time>2026-05-03T14:30:34.897Z</time></trkpt><trkpt lat="42.2059524" lon="12.7549453"><ele>368.0</ele><time>2026-05-03T14:30:35.862Z</time></trkpt><trkpt lat="42.2059735" lon="12.7551125"><ele>368.5</ele><time>2026-05-03T14:30:36.864Z</time></trkpt><trkpt lat="42.205997" lon="12.7552627"><ele>369.0</ele><time>2026-05-03T14:30:37.847Z</time></trkpt><trkpt lat="42.2060143" lon="12.7553945"><ele>368.2</ele><time>2026-05-03T14:30:38.84Z</time></trkpt><trkpt lat="42.2060304" lon="12.75551"><ele>367.4</ele><time>2026-05-03T14:30:39.871Z</time></trkpt><trkpt lat="42.2060521" lon="12.7556246"><ele>366.6</ele><time>2026-05-03T14:30:40.84Z</time></trkpt><trkpt lat="42.206093" lon="12.7557107"><ele>365.8</ele><time>2026-05-03T14:30:41.85Z</time></trkpt><trkpt lat="42.2061721" lon="12.7557498"><ele>365.0</ele><time>2026-05-03T14:30:43.853Z</time></trkpt><trkpt lat="42.2062588" lon="12.755583"><ele>365.0</ele><time>2026-05-03T14:30:45.878Z</time></trkpt><trkpt lat="42.2062918" lon="12.7554377"><ele>365.0</ele><time>2026-05-03T14:30:46.858Z</time></trkpt><trkpt lat="42.206332" lon="12.7552938"><ele>365.0</ele><time>2026-05-03T14:30:47.852Z</time></trkpt><trkpt lat="42.2063784" lon="12.7551488"><ele>365.0</ele><time>2026-05-03T14:30:48.857Z</time></trkpt><trkpt lat="42.2064282" lon="12.7550343"><ele>365.0</ele><time>2026-05-03T14:30:49.84Z</time></trkpt><trkpt lat="42.2064747" lon="12.7549043"><ele>361.0</ele><time>2026-05-03T14:30:50.855Z</time></trkpt><trkpt lat="42.2065275" lon="12.7548023"><ele>357.0</ele><time>2026-05-03T14:30:51.855Z</time></trkpt><trkpt lat="42.2065799" lon="12.7547166"><ele>353.0</ele><time>2026-05-03T14:30:52.851Z</time></trkpt><trkpt lat="42.2066439" lon="12.7546396"><ele>349.0</ele><time>2026-05-03T14:30:53.868Z</time></trkpt><trkpt lat="42.2067101" lon="12.7545685"><ele>345.0</ele><time>2026-05-03T14:30:54.849Z</time></trkpt><trkpt lat="42.2067877" lon="12.7544992"><ele>341.0</ele><time>2026-05-03T14:30:55.851Z</time></trkpt><trkpt lat="42.2068433" lon="12.7544327"><ele>341.33333333333337</ele><time>2026-05-03T14:30:56.848Z</time></trkpt><trkpt lat="42.2069186" lon="12.7543635"><ele>341.6666666666667</ele><time>2026-05-03T14:30:57.85Z</time></trkpt><trkpt lat="42.2069757" lon="12.7543054"><ele>342.0</ele><time>2026-05-03T14:30:58.867Z</time></trkpt><trkpt lat="42.207052" lon="12.7542524"><ele>342.3333333333333</ele><time>2026-05-03T14:30:59.873Z</time></trkpt><trkpt lat="42.2071179" lon="12.7542047"><ele>342.66666666666663</ele><time>2026-05-03T14:31:00.891Z</time></trkpt><trkpt lat="42.2072132" lon="12.7541499"><ele>343.0</ele><time>2026-05-03T14:31:01.847Z</time></trkpt><trkpt lat="42.2073184" lon="12.7541045"><ele>336.4</ele><time>2026-05-03T14:31:02.846Z</time></trkpt><trkpt lat="42.2074324" lon="12.7540677"><ele>329.79999999999995</ele><time>2026-05-03T14:31:03.846Z</time></trkpt><trkpt lat="42.2075367" lon="12.7540376"><ele>323.2</ele><time>2026-05-03T14:31:04.847Z</time></trkpt><trkpt lat="42.2076159" lon="12.7540064"><ele>316.6</ele><time>2026-05-03T14:31:05.838Z</time></trkpt><trkpt lat="42.2076906" lon="12.7539847"><ele>310.0</ele><time>2026-05-03T14:31:06.842Z</time></trkpt><trkpt lat="42.2077877" lon="12.7540004"><ele>310.0</ele><time>2026-05-03T14:31:32.853Z</time></trkpt><trkpt lat="42.207642" lon="12.7541251"><ele>310.0</ele><time>2026-05-03T14:31:49.847Z</time></trkpt><trkpt lat="42.207638" lon="12.7542156"><ele>310.0</ele><time>2026-05-03T14:32:01.842Z</time></trkpt><trkpt lat="42.2077608" lon="12.7542612"><ele>310.0</ele><time>2026-05-03T14:33:08.854Z</time></trkpt><trkpt lat="42.2078283" lon="12.7541931"><ele>310.0</ele><time>2026-05-03T14:33:29.875Z</time></trkpt><trkpt lat="42.2077669" lon="12.7542956"><ele>310.0</ele><time>2026-05-03T14:33:31.862Z</time></trkpt><trkpt lat="42.20771" lon="12.7544172"><ele>310.0</ele><time>2026-05-03T14:33:33.872Z</time></trkpt><trkpt lat="42.2076776" lon="12.7545411"><ele>310.0</ele><time>2026-05-03T14:33:35.877Z</time></trkpt><trkpt lat="42.2076377" lon="12.7546224"><ele>310.0</ele><time>2026-05-03T14:33:36.85Z</time></trkpt><trkpt lat="42.2076185" lon="12.7547249"><ele>309.14285714285717</ele><time>2026-05-03T14:33:37.863Z</time></trkpt><trkpt lat="42.2076104" lon="12.7548118"><ele>308.2857142857143</ele><time>2026-05-03T14:33:38.84Z</time></trkpt><trkpt lat="42.20764" lon="12.7549207"><ele>307.42857142857144</ele><time>2026-05-03T14:33:39.844Z</time></trkpt><trkpt lat="42.2076805" lon="12.7550008"><ele>306.57142857142856</ele><time>2026-05-03T14:33:40.855Z</time></trkpt><trkpt lat="42.2077296" lon="12.7550675"><ele>305.7142857142857</ele><time>2026-05-03T14:33:41.856Z</time></trkpt><trkpt lat="42.2077829" lon="12.7551212"><ele>304.85714285714283</ele><time>2026-05-03T14:33:42.86Z</time></trkpt><trkpt lat="42.2078466" lon="12.7551488"><ele>304.0</ele><time>2026-05-03T14:33:43.854Z</time></trkpt><trkpt lat="42.2079637" lon="12.7551351"><ele>304.0</ele><time>2026-05-03T14:33:45.858Z</time></trkpt><trkpt lat="42.2080161" lon="12.7550681"><ele>304.0</ele><time>2026-05-03T14:33:46.86Z</time></trkpt><trkpt lat="42.2080719" lon="12.755001"><ele>304.0</ele><time>2026-05-03T14:33:47.859Z</time></trkpt><trkpt lat="42.2081277" lon="12.7549447"><ele>304.0</ele><time>2026-05-03T14:33:48.857Z</time></trkpt><trkpt lat="42.208185" lon="12.7548872"><ele>304.0</ele><time>2026-05-03T14:33:49.857Z</time></trkpt><trkpt lat="42.208269" lon="12.7548071"><ele>304.0</ele><time>2026-05-03T14:33:50.871Z</time></trkpt><trkpt lat="42.2083391" lon="12.7547598"><ele>299.16666666666663</ele><time>2026-05-03T14:33:51.852Z</time></trkpt><trkpt lat="42.20841" lon="12.7547354"><ele>294.3333333333333</ele><time>2026-05-03T14:33:52.878Z</time></trkpt><trkpt lat="42.2084988" lon="12.7547137"><ele>289.5</ele><time>2026-05-03T14:33:53.881Z</time></trkpt><trkpt lat="42.2085728" lon="12.7547201"><ele>284.6666666666667</ele><time>2026-05-03T14:33:54.878Z</time></trkpt><trkpt lat="42.2086531" lon="12.7547274"><ele>279.83333333333337</ele><time>2026-05-03T14:33:55.855Z</time></trkpt><trkpt lat="42.2087324" lon="12.7547453"><ele>275.0</ele><time>2026-05-03T14:33:56.853Z</time></trkpt><trkpt lat="42.2088113" lon="12.7547564"><ele>275.0</ele><time>2026-05-03T14:33:57.853Z</time></trkpt><trkpt lat="42.2088984" lon="12.7547683"><ele>275.0</ele><time>2026-05-03T14:33:58.861Z</time></trkpt><trkpt lat="42.2089897" lon="12.754792"><ele>275.0</ele><time>2026-05-03T14:33:59.853Z</time></trkpt><trkpt lat="42.2090736" lon="12.7548174"><ele>275.0</ele><time>2026-05-03T14:34:00.851Z</time></trkpt><trkpt lat="42.2091575" lon="12.7548461"><ele>275.0</ele><time>2026-05-03T14:34:01.857Z</time></trkpt><trkpt lat="42.209242" lon="12.75488"><ele>275.0</ele><time>2026-05-03T14:34:02.857Z</time></trkpt><trkpt lat="42.2093266" lon="12.7548896"><ele>275.1666666666667</ele><time>2026-05-03T14:34:03.863Z</time></trkpt><trkpt lat="42.2093965" lon="12.7548964"><ele>275.33333333333337</ele><time>2026-05-03T14:34:04.858Z</time></trkpt><trkpt lat="42.209468" lon="12.7548996"><ele>275.5</ele><time>2026-05-03T14:34:05.85Z</time></trkpt><trkpt lat="42.2095451" lon="12.7548979"><ele>275.6666666666667</ele><time>2026-05-03T14:34:06.853Z</time></trkpt><trkpt lat="42.209628" lon="12.7548815"><ele>275.8333333333333</ele><time>2026-05-03T14:34:07.86Z</time></trkpt><trkpt lat="42.2097101" lon="12.7548454"><ele>276.0</ele><time>2026-05-03T14:34:08.88Z</time></trkpt><trkpt lat="42.2097892" lon="12.7547938"><ele>277.8</ele><time>2026-05-03T14:34:09.88Z</time></trkpt><trkpt lat="42.2098775" lon="12.7547411"><ele>279.6</ele><time>2026-05-03T14:34:10.855Z</time></trkpt><trkpt lat="42.2099408" lon="12.7546991"><ele>281.4</ele><time>2026-05-03T14:34:11.853Z</time></trkpt><trkpt lat="42.2100379" lon="12.7546281"><ele>283.2</ele><time>2026-05-03T14:34:13.862Z</time></trkpt><trkpt lat="42.2101159" lon="12.7545794"><ele>285.0</ele><time>2026-05-03T14:34:15.879Z</time></trkpt><trkpt lat="42.210017" lon="12.7547271"><ele>285.0</ele><time>2026-05-03T14:34:24.859Z</time></trkpt><trkpt lat="42.2099456" lon="12.7547736"><ele>285.0</ele><time>2026-05-03T14:34:25.856Z</time></trkpt><trkpt lat="42.2098736" lon="12.7548174"><ele>285.0</ele><time>2026-05-03T14:34:26.855Z</time></trkpt><trkpt lat="42.2097991" lon="12.7548638"><ele>285.0</ele><time>2026-05-03T14:34:27.867Z</time></trkpt><trkpt lat="42.2097161" lon="12.7548968"><ele>285.0</ele><time>2026-05-03T14:34:28.852Z</time></trkpt><trkpt lat="42.2096445" lon="12.7549125"><ele>285.0</ele><time>2026-05-03T14:34:29.857Z</time></trkpt><trkpt lat="42.2095759" lon="12.7549176"><ele>283.2</ele><time>2026-05-03T14:34:30.855Z</time></trkpt><trkpt lat="42.2094709" lon="12.7548686"><ele>281.4</ele><time>2026-05-03T14:34:32.861Z</time></trkpt><trkpt lat="42.2093849" lon="12.75479"><ele>279.6</ele><time>2026-05-03T14:34:34.858Z</time></trkpt><trkpt lat="42.2092797" lon="12.7547297"><ele>277.8</ele><time>2026-05-03T14:34:36.858Z</time></trkpt><trkpt lat="42.2092051" lon="12.7546549"><ele>276.0</ele><time>2026-05-03T14:34:38.863Z</time></trkpt><trkpt lat="42.2091226" lon="12.7545903"><ele>276.0</ele><time>2026-05-03T14:34:40.862Z</time></trkpt><trkpt lat="42.2090343" lon="12.7545364"><ele>276.0</ele><time>2026-05-03T14:34:42.854Z</time></trkpt><trkpt lat="42.2089425" lon="12.7544936"><ele>276.0</ele><time>2026-05-03T14:34:44.862Z</time></trkpt><trkpt lat="42.2088712" lon="12.7544656"><ele>276.0</ele><time>2026-05-03T14:34:46.857Z</time></trkpt><trkpt lat="42.2087664" lon="12.7544449"><ele>276.0</ele><time>2026-05-03T14:34:48.889Z</time></trkpt><trkpt lat="42.2086986" lon="12.7544388"><ele>276.0</ele><time>2026-05-03T14:34:49.863Z</time></trkpt><trkpt lat="42.208622" lon="12.7544417"><ele>275.8333333333333</ele><time>2026-05-03T14:34:50.885Z</time></trkpt><trkpt lat="42.2085418" lon="12.7544592"><ele>275.6666666666667</ele><time>2026-05-03T14:34:51.863Z</time></trkpt><trkpt lat="42.2084568" lon="12.7544866"><ele>275.5</ele><time>2026-05-03T14:34:52.863Z</time></trkpt><trkpt lat="42.208384" lon="12.7545263"><ele>275.33333333333337</ele><time>2026-05-03T14:34:53.858Z</time></trkpt><trkpt lat="42.2083098" lon="12.7545733"><ele>275.1666666666667</ele><time>2026-05-03T14:34:54.859Z</time></trkpt><trkpt lat="42.2082423" lon="12.7546305"><ele>275.0</ele><time>2026-05-03T14:34:55.859Z</time></trkpt><trkpt lat="42.2081853" lon="12.7546908"><ele>279.83333333333337</ele><time>2026-05-03T14:34:56.867Z</time></trkpt><trkpt lat="42.2081301" lon="12.7547429"><ele>284.6666666666667</ele><time>2026-05-03T14:34:57.857Z</time></trkpt><trkpt lat="42.2080739" lon="12.7547973"><ele>289.5</ele><time>2026-05-03T14:34:58.857Z</time></trkpt><trkpt lat="42.2080163" lon="12.7548529"><ele>294.3333333333333</ele><time>2026-05-03T14:34:59.87Z</time></trkpt><trkpt lat="42.2079582" lon="12.7549009"><ele>299.16666666666663</ele><time>2026-05-03T14:35:00.862Z</time></trkpt><trkpt lat="42.207898" lon="12.7549488"><ele>304.0</ele><time>2026-05-03T14:35:01.863Z</time></trkpt><trkpt lat="42.2077955" lon="12.7550423"><ele>304.0</ele><time>2026-05-03T14:35:03.86Z</time></trkpt><trkpt lat="42.2077415" lon="12.755131"><ele>304.0</ele><time>2026-05-03T14:35:05.855Z</time></trkpt><trkpt lat="42.2077275" lon="12.7552514"><ele>304.0</ele><time>2026-05-03T14:35:07.861Z</time></trkpt><trkpt lat="42.207726" lon="12.7554238"><ele>304.0</ele><time>2026-05-03T14:35:09.848Z</time></trkpt><trkpt lat="42.2077691" lon="12.7555344"><ele>304.0</ele><time>2026-05-03T14:35:10.865Z</time></trkpt><trkpt lat="42.2077797" lon="12.755672"><ele>304.5</ele><time>2026-05-03T14:35:11.847Z</time></trkpt><trkpt lat="42.2077918" lon="12.7558347"><ele>305.0</ele><time>2026-05-03T14:35:12.851Z</time></trkpt><trkpt lat="42.2077899" lon="12.7560021"><ele>305.5</ele><time>2026-05-03T14:35:13.857Z</time></trkpt><trkpt lat="42.2077773" lon="12.7561614"><ele>306.0</ele><time>2026-05-03T14:35:14.858Z</time></trkpt><trkpt lat="42.2077819" lon="12.7562893"><ele>304.40000000000003</ele><time>2026-05-03T14:35:15.86Z</time></trkpt><trkpt lat="42.207763" lon="12.7564232"><ele>302.8</ele><time>2026-05-03T14:35:16.859Z</time></trkpt><trkpt lat="42.2077211" lon="12.7565849"><ele>301.20000000000005</ele><time>2026-05-03T14:35:17.85Z</time></trkpt><trkpt lat="42.2076847" lon="12.7567385"><ele>299.6</ele><time>2026-05-03T14:35:18.852Z</time></trkpt><trkpt lat="42.2076654" lon="12.7568726"><ele>298.0</ele><time>2026-05-03T14:35:19.857Z</time></trkpt><trkpt lat="42.2076426" lon="12.7570279"><ele>296.4</ele><time>2026-05-03T14:35:20.859Z</time></trkpt><trkpt lat="42.2075989" lon="12.7571885"><ele>294.8</ele><time>2026-05-03T14:35:21.858Z</time></trkpt><trkpt lat="42.2076312" lon="12.7573226"><ele>293.2</ele><time>2026-05-03T14:35:22.862Z</time></trkpt><trkpt lat="42.2076358" lon="12.7574328"><ele>291.6</ele><time>2026-05-03T14:35:23.859Z</time></trkpt><trkpt lat="42.2076114" lon="12.7575585"><ele>290.0</ele><time>2026-05-03T14:35:24.878Z</time></trkpt><trkpt lat="42.2075829" lon="12.7577022"><ele>290.0</ele><time>2026-05-03T14:35:25.882Z</time></trkpt><trkpt lat="42.2075709" lon="12.7578582"><ele>290.0</ele><time>2026-05-03T14:35:26.854Z</time></trkpt><trkpt lat="42.2075621" lon="12.7580614"><ele>290.0</ele><time>2026-05-03T14:35:27.86Z</time></trkpt><trkpt lat="42.2075752" lon="12.7583019"><ele>290.0</ele><time>2026-05-03T14:35:28.861Z</time></trkpt><trkpt lat="42.2075371" lon="12.7584942"><ele>290.33333333333337</ele><time>2026-05-03T14:35:29.855Z</time></trkpt><trkpt lat="42.2075031" lon="12.758704"><ele>290.6666666666667</ele><time>2026-05-03T14:35:30.859Z</time></trkpt><trkpt lat="42.2074425" lon="12.7588925"><ele>291.0</ele><time>2026-05-03T14:35:31.855Z</time></trkpt><trkpt lat="42.2073665" lon="12.759054"><ele>294.0</ele><time>2026-05-03T14:35:32.858Z</time></trkpt><trkpt lat="42.2072814" lon="12.7592336"><ele>297.0</ele><time>2026-05-03T14:35:33.862Z</time></trkpt><trkpt lat="42.2071456" lon="12.7593937"><ele>300.0</ele><time>2026-05-03T14:35:34.856Z</time></trkpt><trkpt lat="42.2069582" lon="12.7595639"><ele>300.0</ele><time>2026-05-03T14:35:35.861Z</time></trkpt><trkpt lat="42.2068446" lon="12.7597297"><ele>300.0</ele><time>2026-05-03T14:35:36.857Z</time></trkpt><trkpt lat="42.2067554" lon="12.7599056"><ele>300.0</ele><time>2026-05-03T14:35:37.863Z</time></trkpt><trkpt lat="42.2066855" lon="12.7600482"><ele>301.25</ele><time>2026-05-03T14:35:38.873Z</time></trkpt><trkpt lat="42.2066333" lon="12.7602396"><ele>302.5</ele><time>2026-05-03T14:35:39.86Z</time></trkpt><trkpt lat="42.2065475" lon="12.7604369"><ele>303.75</ele><time>2026-05-03T14:35:40.868Z</time></trkpt><trkpt lat="42.2064754" lon="12.7605714"><ele>305.0</ele><time>2026-05-03T14:35:41.882Z</time></trkpt><trkpt lat="42.2064088" lon="12.7607549"><ele>305.0</ele><time>2026-05-03T14:35:42.898Z</time></trkpt><trkpt lat="42.206308" lon="12.7609234"><ele>305.0</ele><time>2026-05-03T14:35:43.861Z</time></trkpt><trkpt lat="42.2062005" lon="12.761084"><ele>305.0</ele><time>2026-05-03T14:35:44.859Z</time></trkpt><trkpt lat="42.2060949" lon="12.7612107"><ele>303.33333333333337</ele><time>2026-05-03T14:35:45.854Z</time></trkpt><trkpt lat="42.2059531" lon="12.7613906"><ele>301.6666666666667</ele><time>2026-05-03T14:35:46.854Z</time></trkpt><trkpt lat="42.2057687" lon="12.7615497"><ele>300.0</ele><time>2026-05-03T14:35:47.867Z</time></trkpt><trkpt lat="42.2056136" lon="12.7616799"><ele>300.0</ele><time>2026-05-03T14:35:48.866Z</time></trkpt><trkpt lat="42.205479" lon="12.7618164"><ele>300.0</ele><time>2026-05-03T14:35:49.851Z</time></trkpt><trkpt lat="42.20532" lon="12.7619292"><ele>300.0</ele><time>2026-05-03T14:35:50.859Z</time></trkpt><trkpt lat="42.205197" lon="12.7620449"><ele>301.25</ele><time>2026-05-03T14:35:51.851Z</time></trkpt><trkpt lat="42.2050921" lon="12.7621481"><ele>302.5</ele><time>2026-05-03T14:35:52.85Z</time></trkpt><trkpt lat="42.2050151" lon="12.7622764"><ele>303.75</ele><time>2026-05-03T14:35:53.855Z</time></trkpt><trkpt lat="42.2049328" lon="12.7624187"><ele>305.0</ele><time>2026-05-03T14:35:54.852Z</time></trkpt><trkpt lat="42.2048266" lon="12.7625402"><ele>305.0</ele><time>2026-05-03T14:35:55.85Z</time></trkpt><trkpt lat="42.2046976" lon="12.7626762"><ele>305.0</ele><time>2026-05-03T14:35:56.858Z</time></trkpt><trkpt lat="42.2045882" lon="12.7628113"><ele>305.0</ele><time>2026-05-03T14:35:57.847Z</time></trkpt><trkpt lat="42.204468" lon="12.762913"><ele>306.0</ele><time>2026-05-03T14:35:58.861Z</time></trkpt><trkpt lat="42.2043226" lon="12.7629676"><ele>307.0</ele><time>2026-05-03T14:35:59.86Z</time></trkpt><trkpt lat="42.2041949" lon="12.7630492"><ele>308.0</ele><time>2026-05-03T14:36:00.859Z</time></trkpt><trkpt lat="42.2040466" lon="12.7631181"><ele>309.0</ele><time>2026-05-03T14:36:01.853Z</time></trkpt><trkpt lat="42.2039225" lon="12.7631937"><ele>309.0</ele><time>2026-05-03T14:36:02.853Z</time></trkpt><trkpt lat="42.2037859" lon="12.7632779"><ele>309.0</ele><time>2026-05-03T14:36:03.857Z</time></trkpt><trkpt lat="42.2036613" lon="12.7632635"><ele>309.0</ele><time>2026-05-03T14:36:04.858Z</time></trkpt><trkpt lat="42.2035567" lon="12.7633338"><ele>309.0</ele><time>2026-05-03T14:36:05.862Z</time></trkpt><trkpt lat="42.2034498" lon="12.7634151"><ele>309.0</ele><time>2026-05-03T14:36:06.861Z</time></trkpt><trkpt lat="42.2033673" lon="12.7634905"><ele>309.0</ele><time>2026-05-03T14:36:07.858Z</time></trkpt><trkpt lat="42.2032922" lon="12.7635681"><ele>309.0</ele><time>2026-05-03T14:36:08.865Z</time></trkpt><trkpt lat="42.2032276" lon="12.7636566"><ele>309.0</ele><time>2026-05-03T14:36:09.857Z</time></trkpt><trkpt lat="42.2031822" lon="12.7637603"><ele>309.0</ele><time>2026-05-03T14:36:10.862Z</time></trkpt><trkpt lat="42.2031625" lon="12.763885"><ele>306.25</ele><time>2026-05-03T14:36:11.857Z</time></trkpt><trkpt lat="42.2031783" lon="12.7640295"><ele>303.5</ele><time>2026-05-03T14:36:12.861Z</time></trkpt><trkpt lat="42.2032278" lon="12.7641971"><ele>300.75</ele><time>2026-05-03T14:36:13.855Z</time></trkpt><trkpt lat="42.2033058" lon="12.7643869"><ele>298.0</ele><time>2026-05-03T14:36:14.856Z</time></trkpt><trkpt lat="42.2033551" lon="12.7645664"><ele>297.66666666666663</ele><time>2026-05-03T14:36:15.851Z</time></trkpt><trkpt lat="42.2034715" lon="12.7647937"><ele>297.3333333333333</ele><time>2026-05-03T14:36:16.881Z</time></trkpt><trkpt lat="42.2035798" lon="12.7649948"><ele>297.0</ele><time>2026-05-03T14:36:17.882Z</time></trkpt><trkpt lat="42.2036448" lon="12.7651464"><ele>297.25</ele><time>2026-05-03T14:36:18.883Z</time></trkpt><trkpt lat="42.2037049" lon="12.7653169"><ele>297.5</ele><time>2026-05-03T14:36:19.858Z</time></trkpt><trkpt lat="42.203738" lon="12.7654832"><ele>297.75</ele><time>2026-05-03T14:36:20.87Z</time></trkpt><trkpt lat="42.2037351" lon="12.7656678"><ele>298.0</ele><time>2026-05-03T14:36:21.878Z</time></trkpt><trkpt lat="42.2037067" lon="12.7658951"><ele>300.0</ele><time>2026-05-03T14:36:22.856Z</time></trkpt><trkpt lat="42.203622" lon="12.7661532"><ele>302.0</ele><time>2026-05-03T14:36:23.86Z</time></trkpt><trkpt lat="42.2034754" lon="12.7663517"><ele>304.0</ele><time>2026-05-03T14:36:24.859Z</time></trkpt><trkpt lat="42.2033261" lon="12.7665295"><ele>304.0</ele><time>2026-05-03T14:36:25.866Z</time></trkpt><trkpt lat="42.2032151" lon="12.7666957"><ele>304.0</ele><time>2026-05-03T14:36:26.864Z</time></trkpt><trkpt lat="42.2030871" lon="12.7668466"><ele>304.0</ele><time>2026-05-03T14:36:27.865Z</time></trkpt><trkpt lat="42.2029783" lon="12.7669815"><ele>304.0</ele><time>2026-05-03T14:36:28.859Z</time></trkpt><trkpt lat="42.2028935" lon="12.7671782"><ele>304.0</ele><time>2026-05-03T14:36:29.858Z</time></trkpt><trkpt lat="42.2028221" lon="12.7673728"><ele>304.0</ele><time>2026-05-03T14:36:30.858Z</time></trkpt><trkpt lat="42.2027468" lon="12.7675644"><ele>306.25</ele><time>2026-05-03T14:36:31.86Z</time></trkpt><trkpt lat="42.2026856" lon="12.7677173"><ele>308.5</ele><time>2026-05-03T14:36:32.861Z</time></trkpt><trkpt lat="42.2026187" lon="12.7678381"><ele>310.75</ele><time>2026-05-03T14:36:33.865Z</time></trkpt><trkpt lat="42.2025193" lon="12.7679566"><ele>313.0</ele><time>2026-05-03T14:36:34.854Z</time></trkpt><trkpt lat="42.2024201" lon="12.7680802"><ele>311.25</ele><time>2026-05-03T14:36:35.854Z</time></trkpt><trkpt lat="42.202331" lon="12.7682061"><ele>309.5</ele><time>2026-05-03T14:36:36.861Z</time></trkpt><trkpt lat="42.202235" lon="12.7683329"><ele>307.75</ele><time>2026-05-03T14:36:37.861Z</time></trkpt><trkpt lat="42.2021667" lon="12.7684891"><ele>306.0</ele><time>2026-05-03T14:36:38.863Z</time></trkpt><trkpt lat="42.2021044" lon="12.7686388"><ele>306.0</ele><time>2026-05-03T14:36:39.855Z</time></trkpt><trkpt lat="42.20204" lon="12.7687799"><ele>306.0</ele><time>2026-05-03T14:36:40.865Z</time></trkpt><trkpt lat="42.2019852" lon="12.7689226"><ele>306.0</ele><time>2026-05-03T14:36:41.856Z</time></trkpt><trkpt lat="42.201952" lon="12.7690718"><ele>306.0</ele><time>2026-05-03T14:36:42.861Z</time></trkpt><trkpt lat="42.2019325" lon="12.7692217"><ele>305.8</ele><time>2026-05-03T14:36:43.857Z</time></trkpt><trkpt lat="42.201915" lon="12.7693746"><ele>305.6</ele><time>2026-05-03T14:36:44.858Z</time></trkpt><trkpt lat="42.2019219" lon="12.7695228"><ele>305.4</ele><time>2026-05-03T14:36:45.859Z</time></trkpt><trkpt lat="42.2019345" lon="12.7696649"><ele>305.2</ele><time>2026-05-03T14:36:46.851Z</time></trkpt><trkpt lat="42.2019285" lon="12.7698057"><ele>305.0</ele><time>2026-05-03T14:36:47.865Z</time></trkpt><trkpt lat="42.2018996" lon="12.7699402"><ele>305.0</ele><time>2026-05-03T14:36:48.857Z</time></trkpt><trkpt lat="42.2018643" lon="12.7700599"><ele>305.0</ele><time>2026-05-03T14:36:49.858Z</time></trkpt><trkpt lat="42.2018031" lon="12.7702143"><ele>305.0</ele><time>2026-05-03T14:36:50.863Z</time></trkpt><trkpt lat="42.2016907" lon="12.770396"><ele>305.0</ele><time>2026-05-03T14:36:51.856Z</time></trkpt><trkpt lat="42.2015589" lon="12.7706136"><ele>305.6666666666667</ele><time>2026-05-03T14:36:52.858Z</time></trkpt><trkpt lat="42.2014544" lon="12.7707666"><ele>306.3333333333333</ele><time>2026-05-03T14:36:53.88Z</time></trkpt><trkpt lat="42.2013844" lon="12.7709241"><ele>307.0</ele><time>2026-05-03T14:36:54.858Z</time></trkpt><trkpt lat="42.2013069" lon="12.7711142"><ele>307.66666666666663</ele><time>2026-05-03T14:36:55.851Z</time></trkpt><trkpt lat="42.2012494" lon="12.7713237"><ele>308.3333333333333</ele><time>2026-05-03T14:36:56.857Z</time></trkpt><trkpt lat="42.2011813" lon="12.7715513"><ele>309.0</ele><time>2026-05-03T14:36:57.852Z</time></trkpt><trkpt lat="42.201075" lon="12.7717945"><ele>312.0</ele><time>2026-05-03T14:36:58.859Z</time></trkpt><trkpt lat="42.2010095" lon="12.7720277"><ele>315.0</ele><time>2026-05-03T14:36:59.861Z</time></trkpt><trkpt lat="42.2009086" lon="12.7722361"><ele>318.0</ele><time>2026-05-03T14:37:00.862Z</time></trkpt><trkpt lat="42.2008212" lon="12.7724047"><ele>318.0</ele><time>2026-05-03T14:37:01.855Z</time></trkpt><trkpt lat="42.200704" lon="12.7725778"><ele>318.0</ele><time>2026-05-03T14:37:02.858Z</time></trkpt><trkpt lat="42.2005809" lon="12.7727938"><ele>318.0</ele><time>2026-05-03T14:37:03.86Z</time></trkpt><trkpt lat="42.2004703" lon="12.7729859"><ele>317.25</ele><time>2026-05-03T14:37:04.857Z</time></trkpt><trkpt lat="42.2003915" lon="12.7731305"><ele>316.5</ele><time>2026-05-03T14:37:05.858Z</time></trkpt><trkpt lat="42.2003305" lon="12.773317"><ele>315.75</ele><time>2026-05-03T14:37:06.861Z</time></trkpt><trkpt lat="42.2002846" lon="12.7735021"><ele>315.0</ele><time>2026-05-03T14:37:07.859Z</time></trkpt><trkpt lat="42.2002737" lon="12.7736772"><ele>315.0</ele><time>2026-05-03T14:37:08.865Z</time></trkpt><trkpt lat="42.2002445" lon="12.773855"><ele>315.0</ele><time>2026-05-03T14:37:09.853Z</time></trkpt><trkpt lat="42.2002446" lon="12.7740262"><ele>315.0</ele><time>2026-05-03T14:37:10.857Z</time></trkpt><trkpt lat="42.2002284" lon="12.7741955"><ele>315.0</ele><time>2026-05-03T14:37:11.862Z</time></trkpt><trkpt lat="42.2002295" lon="12.7744219"><ele>315.75</ele><time>2026-05-03T14:37:12.869Z</time></trkpt><trkpt lat="42.2002398" lon="12.7746258"><ele>316.5</ele><time>2026-05-03T14:37:13.863Z</time></trkpt><trkpt lat="42.2002657" lon="12.7748019"><ele>317.25</ele><time>2026-05-03T14:37:14.878Z</time></trkpt><trkpt lat="42.200277" lon="12.7749396"><ele>318.0</ele><time>2026-05-03T14:37:15.888Z</time></trkpt><trkpt lat="42.2002833" lon="12.7750955"><ele>319.25</ele><time>2026-05-03T14:37:16.864Z</time></trkpt><trkpt lat="42.2002488" lon="12.775242"><ele>320.5</ele><time>2026-05-03T14:37:17.864Z</time></trkpt><trkpt lat="42.2001843" lon="12.7753642"><ele>321.75</ele><time>2026-05-03T14:37:18.866Z</time></trkpt><trkpt lat="42.2001276" lon="12.7755135"><ele>323.0</ele><time>2026-05-03T14:37:19.858Z</time></trkpt><trkpt lat="42.2000358" lon="12.7756554"><ele>323.0</ele><time>2026-05-03T14:37:20.88Z</time></trkpt><trkpt lat="42.1999563" lon="12.7757834"><ele>323.0</ele><time>2026-05-03T14:37:21.893Z</time></trkpt><trkpt lat="42.1998447" lon="12.7758972"><ele>323.0</ele><time>2026-05-03T14:37:22.863Z</time></trkpt><trkpt lat="42.1997681" lon="12.7760147"><ele>323.0</ele><time>2026-05-03T14:37:23.862Z</time></trkpt><trkpt lat="42.1996684" lon="12.7761216"><ele>323.33333333333337</ele><time>2026-05-03T14:37:24.87Z</time></trkpt><trkpt lat="42.1995761" lon="12.7762607"><ele>323.6666666666667</ele><time>2026-05-03T14:37:25.865Z</time></trkpt><trkpt lat="42.1994866" lon="12.7764214"><ele>324.0</ele><time>2026-05-03T14:37:26.874Z</time></trkpt><trkpt lat="42.1994022" lon="12.7766302"><ele>325.0</ele><time>2026-05-03T14:37:27.87Z</time></trkpt><trkpt lat="42.1993225" lon="12.7768599"><ele>326.0</ele><time>2026-05-03T14:37:28.884Z</time></trkpt><trkpt lat="42.1992576" lon="12.7770535"><ele>327.0</ele><time>2026-05-03T14:37:29.89Z</time></trkpt><trkpt lat="42.1992537" lon="12.7772733"><ele>327.0</ele><time>2026-05-03T14:37:30.852Z</time></trkpt><trkpt lat="42.1992231" lon="12.7775141"><ele>327.0</ele><time>2026-05-03T14:37:31.858Z</time></trkpt><trkpt lat="42.199205" lon="12.7777514"><ele>327.0</ele><time>2026-05-03T14:37:32.862Z</time></trkpt><trkpt lat="42.1992277" lon="12.7779662"><ele>329.0</ele><time>2026-05-03T14:37:33.851Z</time></trkpt><trkpt lat="42.1992211" lon="12.7781763"><ele>331.0</ele><time>2026-05-03T14:37:34.858Z</time></trkpt><trkpt lat="42.1991897" lon="12.7783901"><ele>333.0</ele><time>2026-05-03T14:37:35.858Z</time></trkpt><trkpt lat="42.1991426" lon="12.7786116"><ele>331.6666666666667</ele><time>2026-05-03T14:37:36.855Z</time></trkpt><trkpt lat="42.1990677" lon="12.7788389"><ele>330.33333333333337</ele><time>2026-05-03T14:37:37.857Z</time></trkpt><trkpt lat="42.1989717" lon="12.7790142"><ele>329.0</ele><time>2026-05-03T14:37:38.858Z</time></trkpt><trkpt lat="42.1988584" lon="12.7791678"><ele>330.0</ele><time>2026-05-03T14:37:39.858Z</time></trkpt><trkpt lat="42.1987706" lon="12.7793849"><ele>331.0</ele><time>2026-05-03T14:37:40.857Z</time></trkpt><trkpt lat="42.1987095" lon="12.7795928"><ele>332.0</ele><time>2026-05-03T14:37:41.86Z</time></trkpt><trkpt lat="42.1986615" lon="12.7798233"><ele>332.0</ele><time>2026-05-03T14:37:42.854Z</time></trkpt><trkpt lat="42.1986552" lon="12.7800158"><ele>332.0</ele><time>2026-05-03T14:37:43.856Z</time></trkpt><trkpt lat="42.1986679" lon="12.7802243"><ele>332.0</ele><time>2026-05-03T14:37:44.86Z</time></trkpt><trkpt lat="42.1986554" lon="12.7804538"><ele>333.0</ele><time>2026-05-03T14:37:45.864Z</time></trkpt><trkpt lat="42.1986155" lon="12.7806893"><ele>334.0</ele><time>2026-05-03T14:37:46.867Z</time></trkpt><trkpt lat="42.1985941" lon="12.780924"><ele>335.0</ele><time>2026-05-03T14:37:47.861Z</time></trkpt><trkpt lat="42.1985641" lon="12.7811278"><ele>335.5</ele><time>2026-05-03T14:37:48.86Z</time></trkpt><trkpt lat="42.1985531" lon="12.7813227"><ele>336.0</ele><time>2026-05-03T14:37:49.86Z</time></trkpt><trkpt lat="42.1984943" lon="12.7815184"><ele>336.5</ele><time>2026-05-03T14:37:50.861Z</time></trkpt><trkpt lat="42.1984447" lon="12.7816926"><ele>337.0</ele><time>2026-05-03T14:37:51.865Z</time></trkpt><trkpt lat="42.1984367" lon="12.7818499"><ele>337.66666666666663</ele><time>2026-05-03T14:37:52.861Z</time></trkpt><trkpt lat="42.1984034" lon="12.781987"><ele>338.3333333333333</ele><time>2026-05-03T14:37:53.86Z</time></trkpt><trkpt lat="42.1983638" lon="12.7820863"><ele>339.0</ele><time>2026-05-03T14:37:54.866Z</time></trkpt><trkpt lat="42.1983102" lon="12.7821424"><ele>339.6666666666667</ele><time>2026-05-03T14:37:55.862Z</time></trkpt><trkpt lat="42.1982564" lon="12.7822201"><ele>340.33333333333337</ele><time>2026-05-03T14:37:57.861Z</time></trkpt><trkpt lat="42.1981943" lon="12.7822993"><ele>341.0</ele><time>2026-05-03T14:37:59.87Z</time></trkpt><trkpt lat="42.1981125" lon="12.7824036"><ele>342.6</ele><time>2026-05-03T14:38:01.866Z</time></trkpt><trkpt lat="42.1980387" lon="12.7825163"><ele>344.20000000000005</ele><time>2026-05-03T14:38:03.87Z</time></trkpt><trkpt lat="42.1979967" lon="12.7825996"><ele>345.79999999999995</ele><time>2026-05-03T14:38:06.859Z</time></trkpt><trkpt lat="42.1979617" lon="12.7826757"><ele>347.4</ele><time>2026-05-03T14:38:11.856Z</time></trkpt><trkpt lat="42.197927" lon="12.7828149"><ele>349.0</ele><time>2026-05-03T14:39:18.886Z</time></trkpt><trkpt lat="42.1978682" lon="12.7829788"><ele>349.6</ele><time>2026-05-03T14:39:20.859Z</time></trkpt><trkpt lat="42.1978026" lon="12.7830643"><ele>350.2</ele><time>2026-05-03T14:39:21.852Z</time></trkpt><trkpt lat="42.1977368" lon="12.7831811"><ele>350.8</ele><time>2026-05-03T14:39:22.852Z</time></trkpt><trkpt lat="42.1976763" lon="12.7833105"><ele>351.40000000000003</ele><time>2026-05-03T14:39:23.854Z</time></trkpt><trkpt lat="42.1976257" lon="12.7834529"><ele>352.0</ele><time>2026-05-03T14:39:24.858Z</time></trkpt><trkpt lat="42.1975932" lon="12.7835916"><ele>352.0</ele><time>2026-05-03T14:39:25.856Z</time></trkpt><trkpt lat="42.1975707" lon="12.7837521"><ele>352.0</ele><time>2026-05-03T14:39:26.862Z</time></trkpt><trkpt lat="42.1975443" lon="12.7839133"><ele>352.0</ele><time>2026-05-03T14:39:27.861Z</time></trkpt><trkpt lat="42.197529" lon="12.7840652"><ele>352.0</ele><time>2026-05-03T14:39:28.866Z</time></trkpt><trkpt lat="42.1975233" lon="12.7842162"><ele>352.0</ele><time>2026-05-03T14:39:29.86Z</time></trkpt><trkpt lat="42.1975194" lon="12.7843634"><ele>352.0</ele><time>2026-05-03T14:39:30.862Z</time></trkpt><trkpt lat="42.1975041" lon="12.7845133"><ele>352.0</ele><time>2026-05-03T14:39:31.858Z</time></trkpt><trkpt lat="42.1974757" lon="12.7846636"><ele>352.0</ele><time>2026-05-03T14:39:32.858Z</time></trkpt><trkpt lat="42.1974489" lon="12.7848269"><ele>352.0</ele><time>2026-05-03T14:39:33.872Z</time></trkpt><trkpt lat="42.1974184" lon="12.784999"><ele>352.0</ele><time>2026-05-03T14:39:34.889Z</time></trkpt><trkpt lat="42.1973943" lon="12.785175"><ele>352.0</ele><time>2026-05-03T14:39:35.86Z</time></trkpt><trkpt lat="42.1973705" lon="12.7853469"><ele>352.0</ele><time>2026-05-03T14:39:36.865Z</time></trkpt><trkpt lat="42.1973466" lon="12.7855026"><ele>353.5</ele><time>2026-05-03T14:39:37.882Z</time></trkpt><trkpt lat="42.1973306" lon="12.7856385"><ele>355.0</ele><time>2026-05-03T14:39:38.858Z</time></trkpt><trkpt lat="42.1973163" lon="12.7857604"><ele>356.5</ele><time>2026-05-03T14:39:39.85Z</time></trkpt><trkpt lat="42.1973038" lon="12.7858708"><ele>358.0</ele><time>2026-05-03T14:39:40.86Z</time></trkpt><trkpt lat="42.1972679" lon="12.7859507"><ele>359.5</ele><time>2026-05-03T14:39:41.858Z</time></trkpt><trkpt lat="42.1972033" lon="12.7860124"><ele>361.0</ele><time>2026-05-03T14:39:42.854Z</time></trkpt><trkpt lat="42.197137" lon="12.7860595"><ele>361.0</ele><time>2026-05-03T14:39:43.857Z</time></trkpt><trkpt lat="42.1970759" lon="12.7861065"><ele>361.0</ele><time>2026-05-03T14:39:44.855Z</time></trkpt><trkpt lat="42.1970143" lon="12.7861564"><ele>361.0</ele><time>2026-05-03T14:39:45.859Z</time></trkpt><trkpt lat="42.1969682" lon="12.7862326"><ele>361.0</ele><time>2026-05-03T14:39:46.863Z</time></trkpt><trkpt lat="42.1969372" lon="12.7863365"><ele>361.0</ele><time>2026-05-03T14:39:47.858Z</time></trkpt><trkpt lat="42.1969075" lon="12.7864371"><ele>361.0</ele><time>2026-05-03T14:39:48.858Z</time></trkpt><trkpt lat="42.1968722" lon="12.7865678"><ele>361.0</ele><time>2026-05-03T14:39:49.864Z</time></trkpt><trkpt lat="42.1968408" lon="12.7867206"><ele>361.0</ele><time>2026-05-03T14:39:50.853Z</time></trkpt><trkpt lat="42.196804" lon="12.7868736"><ele>361.0</ele><time>2026-05-03T14:39:51.869Z</time></trkpt><trkpt lat="42.1967582" lon="12.7870069"><ele>361.0</ele><time>2026-05-03T14:39:52.864Z</time></trkpt><trkpt lat="42.1967137" lon="12.7871443"><ele>361.5</ele><time>2026-05-03T14:39:53.859Z</time></trkpt><trkpt lat="42.1966816" lon="12.7872616"><ele>362.0</ele><time>2026-05-03T14:39:54.886Z</time></trkpt><trkpt lat="42.1966614" lon="12.7873504"><ele>362.5</ele><time>2026-05-03T14:39:55.862Z</time></trkpt><trkpt lat="42.196628" lon="12.7874456"><ele>363.0</ele><time>2026-05-03T14:39:56.874Z</time></trkpt><trkpt lat="42.1965836" lon="12.7875446"><ele>363.5</ele><time>2026-05-03T14:39:57.86Z</time></trkpt><trkpt lat="42.1965274" lon="12.7876384"><ele>364.0</ele><time>2026-05-03T14:39:58.863Z</time></trkpt><trkpt lat="42.1964583" lon="12.7877349"><ele>364.0</ele><time>2026-05-03T14:39:59.862Z</time></trkpt><trkpt lat="42.1963703" lon="12.7878295"><ele>364.0</ele><time>2026-05-03T14:40:00.864Z</time></trkpt><trkpt lat="42.1962753" lon="12.7879309"><ele>364.0</ele><time>2026-05-03T14:40:01.867Z</time></trkpt><trkpt lat="42.1961662" lon="12.7880575"><ele>364.0</ele><time>2026-05-03T14:40:02.865Z</time></trkpt><trkpt lat="42.1960651" lon="12.7881832"><ele>364.0</ele><time>2026-05-03T14:40:03.865Z</time></trkpt><trkpt lat="42.1959768" lon="12.7883161"><ele>364.0</ele><time>2026-05-03T14:40:04.862Z</time></trkpt><trkpt lat="42.1958679" lon="12.788421"><ele>364.0</ele><time>2026-05-03T14:40:05.862Z</time></trkpt><trkpt lat="42.1957704" lon="12.788499"><ele>364.0</ele><time>2026-05-03T14:40:06.863Z</time></trkpt><trkpt lat="42.1956988" lon="12.7886114"><ele>365.25</ele><time>2026-05-03T14:40:07.851Z</time></trkpt><trkpt lat="42.1956003" lon="12.7887167"><ele>366.5</ele><time>2026-05-03T14:40:08.863Z</time></trkpt><trkpt lat="42.1955317" lon="12.7888483"><ele>367.75</ele><time>2026-05-03T14:40:09.855Z</time></trkpt><trkpt lat="42.1954298" lon="12.788988"><ele>369.0</ele><time>2026-05-03T14:40:10.865Z</time></trkpt><trkpt lat="42.1953643" lon="12.789124"><ele>369.0</ele><time>2026-05-03T14:40:11.864Z</time></trkpt><trkpt lat="42.1953011" lon="12.7892569"><ele>369.0</ele><time>2026-05-03T14:40:12.862Z</time></trkpt><trkpt lat="42.1952273" lon="12.789362"><ele>369.0</ele><time>2026-05-03T14:40:13.865Z</time></trkpt><trkpt lat="42.1951415" lon="12.7894582"><ele>369.0</ele><time>2026-05-03T14:40:14.863Z</time></trkpt><trkpt lat="42.1950502" lon="12.789535"><ele>369.0</ele><time>2026-05-03T14:40:15.86Z</time></trkpt><trkpt lat="42.1949589" lon="12.7895997"><ele>369.4</ele><time>2026-05-03T14:40:16.874Z</time></trkpt><trkpt lat="42.1948656" lon="12.7896661"><ele>369.79999999999995</ele><time>2026-05-03T14:40:17.873Z</time></trkpt><trkpt lat="42.1947813" lon="12.78973"><ele>370.20000000000005</ele><time>2026-05-03T14:40:18.866Z</time></trkpt><trkpt lat="42.1947147" lon="12.7898102"><ele>370.6</ele><time>2026-05-03T14:40:19.87Z</time></trkpt><trkpt lat="42.1946588" lon="12.7899058"><ele>371.0</ele><time>2026-05-03T14:40:20.861Z</time></trkpt><trkpt lat="42.1946098" lon="12.7900247"><ele>371.0</ele><time>2026-05-03T14:40:21.854Z</time></trkpt><trkpt lat="42.1945592" lon="12.7901376"><ele>371.0</ele><time>2026-05-03T14:40:22.863Z</time></trkpt><trkpt lat="42.1944961" lon="12.7902697"><ele>371.0</ele><time>2026-05-03T14:40:23.866Z</time></trkpt><trkpt lat="42.1944313" lon="12.7904164"><ele>371.0</ele><time>2026-05-03T14:40:24.859Z</time></trkpt><trkpt lat="42.1943561" lon="12.7905679"><ele>372.20000000000005</ele><time>2026-05-03T14:40:25.873Z</time></trkpt><trkpt lat="42.1942937" lon="12.7907184"><ele>373.40000000000003</ele><time>2026-05-03T14:40:26.868Z</time></trkpt><trkpt lat="42.1942465" lon="12.7908373"><ele>374.6</ele><time>2026-05-03T14:40:27.86Z</time></trkpt><trkpt lat="42.1942158" lon="12.7909458"><ele>375.8</ele><time>2026-05-03T14:40:28.862Z</time></trkpt><trkpt lat="42.1942054" lon="12.7910362"><ele>377.0</ele><time>2026-05-03T14:40:29.875Z</time></trkpt><trkpt lat="42.1942082" lon="12.7911466"><ele>377.6</ele><time>2026-05-03T14:40:30.904Z</time></trkpt><trkpt lat="42.1942216" lon="12.7912548"><ele>378.20000000000005</ele><time>2026-05-03T14:40:31.881Z</time></trkpt><trkpt lat="42.1942422" lon="12.7913681"><ele>378.8</ele><time>2026-05-03T14:40:32.907Z</time></trkpt><trkpt lat="42.194275" lon="12.7915165"><ele>379.4</ele><time>2026-05-03T14:40:33.907Z</time></trkpt><trkpt lat="42.1942985" lon="12.7916725"><ele>380.0</ele><time>2026-05-03T14:40:34.886Z</time></trkpt><trkpt lat="42.19432" lon="12.791838"><ele>379.75</ele><time>2026-05-03T14:40:35.866Z</time></trkpt><trkpt lat="42.1943389" lon="12.7920076"><ele>379.5</ele><time>2026-05-03T14:40:36.857Z</time></trkpt><trkpt lat="42.1943614" lon="12.7922128"><ele>379.25</ele><time>2026-05-03T14:40:37.891Z</time></trkpt><trkpt lat="42.1943818" lon="12.7924093"><ele>379.0</ele><time>2026-05-03T14:40:38.885Z</time></trkpt><trkpt lat="42.1944081" lon="12.7925957"><ele>381.0</ele><time>2026-05-03T14:40:39.901Z</time></trkpt><trkpt lat="42.1944436" lon="12.7928478"><ele>383.0</ele><time>2026-05-03T14:40:40.86Z</time></trkpt><trkpt lat="42.1944777" lon="12.7931294"><ele>385.0</ele><time>2026-05-03T14:40:41.859Z</time></trkpt><trkpt lat="42.194515" lon="12.7934044"><ele>387.33333333333337</ele><time>2026-05-03T14:40:42.856Z</time></trkpt><trkpt lat="42.1945285" lon="12.7936858"><ele>389.66666666666663</ele><time>2026-05-03T14:40:43.857Z</time></trkpt><trkpt lat="42.1945579" lon="12.793947"><ele>392.0</ele><time>2026-05-03T14:40:44.858Z</time></trkpt><trkpt lat="42.1946107" lon="12.7941702"><ele>393.5</ele><time>2026-05-03T14:40:45.856Z</time></trkpt><trkpt lat="42.1946448" lon="12.7943613"><ele>395.0</ele><time>2026-05-03T14:40:46.863Z</time></trkpt><trkpt lat="42.1946799" lon="12.7945241"><ele>396.5</ele><time>2026-05-03T14:40:47.859Z</time></trkpt><trkpt lat="42.1947109" lon="12.794702"><ele>398.0</ele><time>2026-05-03T14:40:48.881Z</time></trkpt><trkpt lat="42.194739" lon="12.7948811"><ele>398.0</ele><time>2026-05-03T14:40:49.854Z</time></trkpt><trkpt lat="42.1947876" lon="12.7949979"><ele>398.0</ele><time>2026-05-03T14:40:50.854Z</time></trkpt><trkpt lat="42.194834" lon="12.7951111"><ele>398.0</ele><time>2026-05-03T14:40:51.855Z</time></trkpt><trkpt lat="42.1948647" lon="12.7951956"><ele>398.0</ele><time>2026-05-03T14:40:52.85Z</time></trkpt><trkpt lat="42.1948758" lon="12.7953576"><ele>398.0</ele><time>2026-05-03T14:40:54.852Z</time></trkpt><trkpt lat="42.1947927" lon="12.7954425"><ele>398.99999999999994</ele><time>2026-05-03T14:40:56.883Z</time></trkpt><trkpt lat="42.1947012" lon="12.7954424"><ele>400.0</ele><time>2026-05-03T14:40:58.859Z</time></trkpt><trkpt lat="42.1946026" lon="12.795367"><ele>401.0</ele><time>2026-05-03T14:41:00.859Z</time></trkpt><trkpt lat="42.1945364" lon="12.7954231"><ele>402.0</ele><time>2026-05-03T14:41:03.859Z</time></trkpt><trkpt lat="42.1945398" lon="12.7955237"><ele>402.99999999999994</ele><time>2026-05-03T14:41:04.854Z</time></trkpt><trkpt lat="42.1945515" lon="12.7956459"><ele>404.0</ele><time>2026-05-03T14:41:05.848Z</time></trkpt><trkpt lat="42.1945419" lon="12.7957573"><ele>403.99999999999994</ele><time>2026-05-03T14:41:06.851Z</time></trkpt><trkpt lat="42.1945125" lon="12.7958516"><ele>404.0</ele><time>2026-05-03T14:41:07.842Z</time></trkpt><trkpt lat="42.194471" lon="12.7959322"><ele>404.0</ele><time>2026-05-03T14:41:08.85Z</time></trkpt><trkpt lat="42.1944032" lon="12.7959484"><ele>404.0</ele><time>2026-05-03T14:41:09.852Z</time></trkpt><trkpt lat="42.1943135" lon="12.7959001"><ele>403.99999999999994</ele><time>2026-05-03T14:41:10.871Z</time></trkpt><trkpt lat="42.1942277" lon="12.7957869"><ele>404.0</ele><time>2026-05-03T14:41:11.846Z</time></trkpt><trkpt lat="42.194129" lon="12.7956375"><ele>404.0</ele><time>2026-05-03T14:41:12.842Z</time></trkpt><trkpt lat="42.1940179" lon="12.7954768"><ele>404.0</ele><time>2026-05-03T14:41:13.848Z</time></trkpt><trkpt lat="42.1938919" lon="12.7953022"><ele>404.0</ele><time>2026-05-03T14:41:14.856Z</time></trkpt><trkpt lat="42.1936943" lon="12.7950619"><ele>401.0</ele><time>2026-05-03T14:41:15.851Z</time></trkpt><trkpt lat="42.1934567" lon="12.794804"><ele>398.0</ele><time>2026-05-03T14:41:16.845Z</time></trkpt><trkpt lat="42.1931938" lon="12.7945932"><ele>399.0</ele><time>2026-05-03T14:41:17.847Z</time></trkpt><trkpt lat="42.1929281" lon="12.7944123"><ele>400.0</ele><time>2026-05-03T14:41:18.848Z</time></trkpt><trkpt lat="42.1926818" lon="12.7942741"><ele>400.0</ele><time>2026-05-03T14:41:19.846Z</time></trkpt><trkpt lat="42.1924726" lon="12.7941927"><ele>400.0</ele><time>2026-05-03T14:41:20.856Z</time></trkpt><trkpt lat="42.192276" lon="12.7941517"><ele>400.0</ele><time>2026-05-03T14:41:21.851Z</time></trkpt><trkpt lat="42.1920612" lon="12.7940904"><ele>401.5</ele><time>2026-05-03T14:41:22.854Z</time></trkpt><trkpt lat="42.1918433" lon="12.7940415"><ele>403.0</ele><time>2026-05-03T14:41:23.847Z</time></trkpt><trkpt lat="42.1916042" lon="12.7939603"><ele>404.5</ele><time>2026-05-03T14:41:24.848Z</time></trkpt><trkpt lat="42.1913523" lon="12.7938605"><ele>406.0</ele><time>2026-05-03T14:41:25.858Z</time></trkpt><trkpt lat="42.1911146" lon="12.7938005"><ele>406.0</ele><time>2026-05-03T14:41:26.858Z</time></trkpt><trkpt lat="42.1908805" lon="12.7937259"><ele>406.0</ele><time>2026-05-03T14:41:27.855Z</time></trkpt><trkpt lat="42.1906226" lon="12.7936257"><ele>402.0</ele><time>2026-05-03T14:41:28.855Z</time></trkpt><trkpt lat="42.1903632" lon="12.7935687"><ele>398.0</ele><time>2026-05-03T14:41:29.842Z</time></trkpt><trkpt lat="42.1901133" lon="12.79351"><ele>400.66666666666663</ele><time>2026-05-03T14:41:30.845Z</time></trkpt><trkpt lat="42.1898928" lon="12.7934449"><ele>403.33333333333337</ele><time>2026-05-03T14:41:31.844Z</time></trkpt><trkpt lat="42.189685" lon="12.7933749"><ele>406.0</ele><time>2026-05-03T14:41:32.846Z</time></trkpt><trkpt lat="42.1894837" lon="12.7933182"><ele>406.0</ele><time>2026-05-03T14:41:33.845Z</time></trkpt><trkpt lat="42.189274" lon="12.7932617"><ele>406.0</ele><time>2026-05-03T14:41:34.858Z</time></trkpt><trkpt lat="42.1890615" lon="12.7931907"><ele>406.0</ele><time>2026-05-03T14:41:35.854Z</time></trkpt><trkpt lat="42.1888555" lon="12.7931362"><ele>405.0</ele><time>2026-05-03T14:41:36.852Z</time></trkpt><trkpt lat="42.188653" lon="12.7930526"><ele>404.0</ele><time>2026-05-03T14:41:37.857Z</time></trkpt><trkpt lat="42.1884425" lon="12.7929856"><ele>403.0</ele><time>2026-05-03T14:41:38.851Z</time></trkpt><trkpt lat="42.1882285" lon="12.7929135"><ele>402.0</ele><time>2026-05-03T14:41:39.876Z</time></trkpt><trkpt lat="42.188003" lon="12.7928013"><ele>401.0</ele><time>2026-05-03T14:41:40.873Z</time></trkpt><trkpt lat="42.1877915" lon="12.7926694"><ele>406.0</ele><time>2026-05-03T14:41:41.875Z</time></trkpt><trkpt lat="42.1875815" lon="12.7925461"><ele>411.0</ele><time>2026-05-03T14:41:42.849Z</time></trkpt><trkpt lat="42.187382" lon="12.7924074"><ele>402.5</ele><time>2026-05-03T14:41:43.852Z</time></trkpt><trkpt lat="42.1871604" lon="12.7922536"><ele>394.0</ele><time>2026-05-03T14:41:44.852Z</time></trkpt><trkpt lat="42.1869177" lon="12.7920873"><ele>394.0</ele><time>2026-05-03T14:41:45.848Z</time></trkpt><trkpt lat="42.1867074" lon="12.7919034"><ele>394.0</ele><time>2026-05-03T14:41:46.853Z</time></trkpt><trkpt lat="42.186496" lon="12.7917649"><ele>394.5</ele><time>2026-05-03T14:41:47.853Z</time></trkpt><trkpt lat="42.1862756" lon="12.7916103"><ele>395.0</ele><time>2026-05-03T14:41:48.852Z</time></trkpt><trkpt lat="42.1860391" lon="12.7914358"><ele>395.0</ele><time>2026-05-03T14:41:49.852Z</time></trkpt><trkpt lat="42.1858299" lon="12.7912777"><ele>395.0</ele><time>2026-05-03T14:41:50.853Z</time></trkpt><trkpt lat="42.1856266" lon="12.7911427"><ele>397.3333333333333</ele><time>2026-05-03T14:41:51.869Z</time></trkpt><trkpt lat="42.1854227" lon="12.7910195"><ele>399.66666666666663</ele><time>2026-05-03T14:41:52.853Z</time></trkpt><trkpt lat="42.1852345" lon="12.7908514"><ele>402.0</ele><time>2026-05-03T14:41:53.848Z</time></trkpt><trkpt lat="42.1850566" lon="12.7906764"><ele>402.0</ele><time>2026-05-03T14:41:54.875Z</time></trkpt><trkpt lat="42.1848868" lon="12.7905092"><ele>402.0</ele><time>2026-05-03T14:41:55.87Z</time></trkpt><trkpt lat="42.1847046" lon="12.7902609"><ele>395.5</ele><time>2026-05-03T14:41:56.879Z</time></trkpt><trkpt lat="42.1845599" lon="12.7900191"><ele>389.0</ele><time>2026-05-03T14:41:57.871Z</time></trkpt><trkpt lat="42.1844303" lon="12.7897308"><ele>389.0</ele><time>2026-05-03T14:41:58.865Z</time></trkpt><trkpt lat="42.184258" lon="12.7894828"><ele>389.0</ele><time>2026-05-03T14:41:59.846Z</time></trkpt><trkpt lat="42.184094" lon="12.7891886"><ele>381.5</ele><time>2026-05-03T14:42:00.845Z</time></trkpt><trkpt lat="42.1839252" lon="12.7889065"><ele>374.0</ele><time>2026-05-03T14:42:01.852Z</time></trkpt><trkpt lat="42.1837331" lon="12.7886505"><ele>381.5</ele><time>2026-05-03T14:42:02.844Z</time></trkpt><trkpt lat="42.1835229" lon="12.7883584"><ele>389.0</ele><time>2026-05-03T14:42:03.868Z</time></trkpt><trkpt lat="42.1833201" lon="12.788149"><ele>382.0</ele><time>2026-05-03T14:42:04.866Z</time></trkpt><trkpt lat="42.1831129" lon="12.7879575"><ele>375.0</ele><time>2026-05-03T14:42:05.846Z</time></trkpt><trkpt lat="42.1828928" lon="12.7877744"><ele>382.0</ele><time>2026-05-03T14:42:06.846Z</time></trkpt><trkpt lat="42.1826636" lon="12.7875721"><ele>389.0</ele><time>2026-05-03T14:42:07.848Z</time></trkpt><trkpt lat="42.1824381" lon="12.7874239"><ele>383.0</ele><time>2026-05-03T14:42:08.855Z</time></trkpt><trkpt lat="42.1822259" lon="12.7872302"><ele>377.0</ele><time>2026-05-03T14:42:09.851Z</time></trkpt><trkpt lat="42.1819909" lon="12.7870743"><ele>377.0</ele><time>2026-05-03T14:42:10.848Z</time></trkpt><trkpt lat="42.1817575" lon="12.786892"><ele>377.0</ele><time>2026-05-03T14:42:11.851Z</time></trkpt><trkpt lat="42.181525" lon="12.7867031"><ele>375.0</ele><time>2026-05-03T14:42:12.849Z</time></trkpt><trkpt lat="42.1813142" lon="12.7865447"><ele>373.0</ele><time>2026-05-03T14:42:13.855Z</time></trkpt><trkpt lat="42.1811138" lon="12.7863724"><ele>373.0</ele><time>2026-05-03T14:42:14.853Z</time></trkpt><trkpt lat="42.1809197" lon="12.7862061"><ele>373.0</ele><time>2026-05-03T14:42:15.859Z</time></trkpt><trkpt lat="42.1807266" lon="12.7860279"><ele>369.0</ele><time>2026-05-03T14:42:16.897Z</time></trkpt><trkpt lat="42.1805431" lon="12.7858005"><ele>365.0</ele><time>2026-05-03T14:42:17.874Z</time></trkpt><trkpt lat="42.1803805" lon="12.7855856"><ele>365.0</ele><time>2026-05-03T14:42:18.852Z</time></trkpt><trkpt lat="42.1802236" lon="12.7853607"><ele>365.0</ele><time>2026-05-03T14:42:19.848Z</time></trkpt><trkpt lat="42.1800657" lon="12.7851254"><ele>361.5</ele><time>2026-05-03T14:42:20.856Z</time></trkpt><trkpt lat="42.1798929" lon="12.784858"><ele>358.0</ele><time>2026-05-03T14:42:21.855Z</time></trkpt><trkpt lat="42.1797264" lon="12.7846281"><ele>358.0</ele><time>2026-05-03T14:42:22.852Z</time></trkpt><trkpt lat="42.1795754" lon="12.7844163"><ele>358.0</ele><time>2026-05-03T14:42:23.858Z</time></trkpt><trkpt lat="42.1794181" lon="12.7842117"><ele>358.0</ele><time>2026-05-03T14:42:24.847Z</time></trkpt><trkpt lat="42.1792671" lon="12.7840289"><ele>358.3333333333333</ele><time>2026-05-03T14:42:25.881Z</time></trkpt><trkpt lat="42.1791126" lon="12.783841"><ele>358.6666666666667</ele><time>2026-05-03T14:42:26.886Z</time></trkpt><trkpt lat="42.1789656" lon="12.7836311"><ele>359.0</ele><time>2026-05-03T14:42:27.88Z</time></trkpt><trkpt lat="42.1788192" lon="12.7834178"><ele>359.0</ele><time>2026-05-03T14:42:28.854Z</time></trkpt><trkpt lat="42.1786951" lon="12.7831953"><ele>359.0</ele><time>2026-05-03T14:42:29.862Z</time></trkpt><trkpt lat="42.1785761" lon="12.7829587"><ele>359.0</ele><time>2026-05-03T14:42:30.851Z</time></trkpt><trkpt lat="42.1784509" lon="12.7826967"><ele>363.0</ele><time>2026-05-03T14:42:31.854Z</time></trkpt><trkpt lat="42.178356" lon="12.7824133"><ele>367.0</ele><time>2026-05-03T14:42:32.865Z</time></trkpt><trkpt lat="42.1783043" lon="12.7821244"><ele>368.66666666666663</ele><time>2026-05-03T14:42:33.857Z</time></trkpt><trkpt lat="42.1782654" lon="12.7818255"><ele>370.3333333333333</ele><time>2026-05-03T14:42:34.884Z</time></trkpt><trkpt lat="42.1782548" lon="12.7815527"><ele>372.0</ele><time>2026-05-03T14:42:35.859Z</time></trkpt><trkpt lat="42.1782614" lon="12.7812413"><ele>371.5</ele><time>2026-05-03T14:42:36.86Z</time></trkpt><trkpt lat="42.1782896" lon="12.7809069"><ele>371.0</ele><time>2026-05-03T14:42:37.859Z</time></trkpt><trkpt lat="42.1783332" lon="12.780605"><ele>371.0</ele><time>2026-05-03T14:42:38.862Z</time></trkpt><trkpt lat="42.1784059" lon="12.780307"><ele>371.0</ele><time>2026-05-03T14:42:39.862Z</time></trkpt><trkpt lat="42.1784521" lon="12.7799772"><ele>365.0</ele><time>2026-05-03T14:42:40.862Z</time></trkpt><trkpt lat="42.178561" lon="12.7796801"><ele>359.0</ele><time>2026-05-03T14:42:41.866Z</time></trkpt><trkpt lat="42.1787024" lon="12.7793864"><ele>353.0</ele><time>2026-05-03T14:42:42.856Z</time></trkpt><trkpt lat="42.17881" lon="12.7790689"><ele>347.0</ele><time>2026-05-03T14:42:43.856Z</time></trkpt><trkpt lat="42.1789287" lon="12.7787645"><ele>358.0</ele><time>2026-05-03T14:42:44.862Z</time></trkpt><trkpt lat="42.1790342" lon="12.7784648"><ele>369.0</ele><time>2026-05-03T14:42:45.859Z</time></trkpt><trkpt lat="42.1791432" lon="12.7781637"><ele>369.0</ele><time>2026-05-03T14:42:46.857Z</time></trkpt><trkpt lat="42.1792359" lon="12.7778741"><ele>369.0</ele><time>2026-05-03T14:42:47.856Z</time></trkpt><trkpt lat="42.1793268" lon="12.7775746"><ele>363.0</ele><time>2026-05-03T14:42:48.853Z</time></trkpt><trkpt lat="42.1793727" lon="12.77726"><ele>357.0</ele><time>2026-05-03T14:42:49.854Z</time></trkpt><trkpt lat="42.1794028" lon="12.7769527"><ele>353.0</ele><time>2026-05-03T14:42:50.859Z</time></trkpt><trkpt lat="42.1794258" lon="12.7766429"><ele>349.0</ele><time>2026-05-03T14:42:51.85Z</time></trkpt><trkpt lat="42.1794416" lon="12.7763093"><ele>343.5</ele><time>2026-05-03T14:42:52.858Z</time></trkpt><trkpt lat="42.1793993" lon="12.7759901"><ele>338.0</ele><time>2026-05-03T14:42:53.88Z</time></trkpt><trkpt lat="42.1793406" lon="12.775646"><ele>338.0</ele><time>2026-05-03T14:42:54.875Z</time></trkpt><trkpt lat="42.1792718" lon="12.7752787"><ele>338.0</ele><time>2026-05-03T14:42:55.86Z</time></trkpt><trkpt lat="42.1791803" lon="12.7749082"><ele>338.5</ele><time>2026-05-03T14:42:56.861Z</time></trkpt><trkpt lat="42.1790599" lon="12.7745713"><ele>339.0</ele><time>2026-05-03T14:42:57.86Z</time></trkpt><trkpt lat="42.1789472" lon="12.7742473"><ele>339.0</ele><time>2026-05-03T14:42:58.858Z</time></trkpt><trkpt lat="42.1788449" lon="12.7739202"><ele>339.0</ele><time>2026-05-03T14:42:59.858Z</time></trkpt><trkpt lat="42.1787461" lon="12.7736151"><ele>345.5</ele><time>2026-05-03T14:43:00.852Z</time></trkpt><trkpt lat="42.1786652" lon="12.7733074"><ele>352.0</ele><time>2026-05-03T14:43:01.847Z</time></trkpt><trkpt lat="42.1785597" lon="12.7729766"><ele>355.0</ele><time>2026-05-03T14:43:02.843Z</time></trkpt><trkpt lat="42.1784529" lon="12.7726821"><ele>358.0</ele><time>2026-05-03T14:43:03.846Z</time></trkpt><trkpt lat="42.1783583" lon="12.7723633"><ele>358.0</ele><time>2026-05-03T14:43:04.85Z</time></trkpt><trkpt lat="42.178268" lon="12.772052"><ele>358.0</ele><time>2026-05-03T14:43:05.847Z</time></trkpt><trkpt lat="42.1781615" lon="12.7717605"><ele>348.0</ele><time>2026-05-03T14:43:06.854Z</time></trkpt><trkpt lat="42.1780654" lon="12.7714685"><ele>338.0</ele><time>2026-05-03T14:43:07.849Z</time></trkpt><trkpt lat="42.1779595" lon="12.7711641"><ele>335.5</ele><time>2026-05-03T14:43:08.855Z</time></trkpt><trkpt lat="42.1778643" lon="12.7708054"><ele>333.0</ele><time>2026-05-03T14:43:09.851Z</time></trkpt><trkpt lat="42.1777883" lon="12.7704269"><ele>335.0</ele><time>2026-05-03T14:43:10.86Z</time></trkpt><trkpt lat="42.1777224" lon="12.7700611"><ele>337.0</ele><time>2026-05-03T14:43:11.852Z</time></trkpt><trkpt lat="42.1776432" lon="12.7697451"><ele>337.0</ele><time>2026-05-03T14:43:12.852Z</time></trkpt><trkpt lat="42.1775389" lon="12.7694223"><ele>337.0</ele><time>2026-05-03T14:43:13.873Z</time></trkpt><trkpt lat="42.1774598" lon="12.7691201"><ele>341.5</ele><time>2026-05-03T14:43:14.88Z</time></trkpt><trkpt lat="42.1773627" lon="12.7688135"><ele>346.0</ele><time>2026-05-03T14:43:15.865Z</time></trkpt><trkpt lat="42.1772815" lon="12.7684919"><ele>332.5</ele><time>2026-05-03T14:43:16.863Z</time></trkpt><trkpt lat="42.1772026" lon="12.7681529"><ele>319.0</ele><time>2026-05-03T14:43:17.868Z</time></trkpt><trkpt lat="42.177123" lon="12.7677761"><ele>322.5</ele><time>2026-05-03T14:43:18.859Z</time></trkpt><trkpt lat="42.1770416" lon="12.7674595"><ele>326.0</ele><time>2026-05-03T14:43:19.871Z</time></trkpt><trkpt lat="42.1769685" lon="12.7671608"><ele>329.0</ele><time>2026-05-03T14:43:20.868Z</time></trkpt><trkpt lat="42.1768808" lon="12.766822"><ele>332.0</ele><time>2026-05-03T14:43:21.867Z</time></trkpt><trkpt lat="42.1767784" lon="12.7664996"><ele>332.0</ele><time>2026-05-03T14:43:22.866Z</time></trkpt><trkpt lat="42.1767211" lon="12.7661689"><ele>332.0</ele><time>2026-05-03T14:43:23.863Z</time></trkpt><trkpt lat="42.1766599" lon="12.7658391"><ele>332.5</ele><time>2026-05-03T14:43:24.865Z</time></trkpt><trkpt lat="42.1765925" lon="12.7655401"><ele>333.0</ele><time>2026-05-03T14:43:25.869Z</time></trkpt><trkpt lat="42.1765321" lon="12.7652571"><ele>323.0</ele><time>2026-05-03T14:43:26.871Z</time></trkpt><trkpt lat="42.1764834" lon="12.7649986"><ele>313.0</ele><time>2026-05-03T14:43:27.867Z</time></trkpt><trkpt lat="42.1764331" lon="12.7647321"><ele>303.0</ele><time>2026-05-03T14:43:28.89Z</time></trkpt><trkpt lat="42.1763733" lon="12.7644132"><ele>301.0</ele><time>2026-05-03T14:43:29.89Z</time></trkpt><trkpt lat="42.1762946" lon="12.7641323"><ele>299.0</ele><time>2026-05-03T14:43:30.898Z</time></trkpt><trkpt lat="42.1761906" lon="12.7638088"><ele>299.0</ele><time>2026-05-03T14:43:31.908Z</time></trkpt><trkpt lat="42.176132" lon="12.7635534"><ele>299.0</ele><time>2026-05-03T14:43:32.869Z</time></trkpt><trkpt lat="42.176084" lon="12.7633096"><ele>299.0</ele><time>2026-05-03T14:43:33.88Z</time></trkpt><trkpt lat="42.1760406" lon="12.7630671"><ele>300.0</ele><time>2026-05-03T14:43:34.871Z</time></trkpt><trkpt lat="42.1759994" lon="12.7627959"><ele>301.0</ele><time>2026-05-03T14:43:35.872Z</time></trkpt><trkpt lat="42.1759417" lon="12.7625483"><ele>302.0</ele><time>2026-05-03T14:43:36.871Z</time></trkpt><trkpt lat="42.1759104" lon="12.7622774"><ele>306.0</ele><time>2026-05-03T14:43:37.87Z</time></trkpt><trkpt lat="42.1759094" lon="12.7619886"><ele>310.0</ele><time>2026-05-03T14:43:38.877Z</time></trkpt><trkpt lat="42.1759202" lon="12.7616633"><ele>309.66666666666663</ele><time>2026-05-03T14:43:39.866Z</time></trkpt><trkpt lat="42.175956" lon="12.7613473"><ele>309.3333333333333</ele><time>2026-05-03T14:43:40.863Z</time></trkpt><trkpt lat="42.175987" lon="12.7610727"><ele>309.0</ele><time>2026-05-03T14:43:41.865Z</time></trkpt><trkpt lat="42.1760416" lon="12.7608143"><ele>309.0</ele><time>2026-05-03T14:43:42.87Z</time></trkpt><trkpt lat="42.1761042" lon="12.7605406"><ele>309.0</ele><time>2026-05-03T14:43:43.869Z</time></trkpt><trkpt lat="42.1761801" lon="12.7602787"><ele>309.0</ele><time>2026-05-03T14:43:44.867Z</time></trkpt><trkpt lat="42.1762818" lon="12.760083"><ele>308.5</ele><time>2026-05-03T14:43:46.029Z</time></trkpt><trkpt lat="42.1764993" lon="12.7597383"><ele>308.0</ele><time>2026-05-03T14:43:47.908Z</time></trkpt><trkpt lat="42.1766173" lon="12.7595831"><ele>308.0</ele><time>2026-05-03T14:43:48.887Z</time></trkpt><trkpt lat="42.1767407" lon="12.7594663"><ele>308.0</ele><time>2026-05-03T14:43:49.881Z</time></trkpt><trkpt lat="42.1768562" lon="12.7593332"><ele>308.0</ele><time>2026-05-03T14:43:50.876Z</time></trkpt><trkpt lat="42.1769655" lon="12.7591953"><ele>308.33333333333337</ele><time>2026-05-03T14:43:51.864Z</time></trkpt><trkpt lat="42.1770784" lon="12.7590449"><ele>308.6666666666667</ele><time>2026-05-03T14:43:52.864Z</time></trkpt><trkpt lat="42.1772038" lon="12.7588669"><ele>309.0</ele><time>2026-05-03T14:43:53.864Z</time></trkpt><trkpt lat="42.1773903" lon="12.758737"><ele>309.0</ele><time>2026-05-03T14:43:54.865Z</time></trkpt><trkpt lat="42.1775237" lon="12.758597"><ele>309.0</ele><time>2026-05-03T14:43:55.864Z</time></trkpt><trkpt lat="42.1776653" lon="12.7584321"><ele>309.0</ele><time>2026-05-03T14:43:56.869Z</time></trkpt><trkpt lat="42.1778305" lon="12.7582369"><ele>299.5</ele><time>2026-05-03T14:43:57.859Z</time></trkpt><trkpt lat="42.1780063" lon="12.7579922"><ele>290.0</ele><time>2026-05-03T14:43:58.869Z</time></trkpt><trkpt lat="42.1781651" lon="12.7577529"><ele>290.5</ele><time>2026-05-03T14:43:59.864Z</time></trkpt><trkpt lat="42.1783643" lon="12.7575476"><ele>291.0</ele><time>2026-05-03T14:44:00.858Z</time></trkpt><trkpt lat="42.1785649" lon="12.7573436"><ele>291.0</ele><time>2026-05-03T14:44:01.857Z</time></trkpt><trkpt lat="42.1787711" lon="12.7571688"><ele>291.0</ele><time>2026-05-03T14:44:02.868Z</time></trkpt><trkpt lat="42.1789623" lon="12.7569507"><ele>291.0</ele><time>2026-05-03T14:44:03.86Z</time></trkpt><trkpt lat="42.1791029" lon="12.7567181"><ele>291.0</ele><time>2026-05-03T14:44:04.905Z</time></trkpt><trkpt lat="42.1792325" lon="12.7564477"><ele>291.0</ele><time>2026-05-03T14:44:05.901Z</time></trkpt><trkpt lat="42.1793502" lon="12.756202"><ele>291.0</ele><time>2026-05-03T14:44:06.905Z</time></trkpt><trkpt lat="42.179453" lon="12.7559763"><ele>291.0</ele><time>2026-05-03T14:44:07.901Z</time></trkpt><trkpt lat="42.1795111" lon="12.755764"><ele>285.6666666666667</ele><time>2026-05-03T14:44:08.864Z</time></trkpt><trkpt lat="42.1795595" lon="12.755547"><ele>280.33333333333337</ele><time>2026-05-03T14:44:09.861Z</time></trkpt><trkpt lat="42.1796112" lon="12.7553238"><ele>275.0</ele><time>2026-05-03T14:44:10.858Z</time></trkpt><trkpt lat="42.1796474" lon="12.7551092"><ele>272.33333333333337</ele><time>2026-05-03T14:44:11.867Z</time></trkpt><trkpt lat="42.1796847" lon="12.7548618"><ele>269.6666666666667</ele><time>2026-05-03T14:44:12.866Z</time></trkpt><trkpt lat="42.1797351" lon="12.7546127"><ele>267.0</ele><time>2026-05-03T14:44:13.87Z</time></trkpt><trkpt lat="42.1797948" lon="12.7543598"><ele>271.0</ele><time>2026-05-03T14:44:14.87Z</time></trkpt><trkpt lat="42.1798543" lon="12.7541075"><ele>275.0</ele><time>2026-05-03T14:44:15.866Z</time></trkpt><trkpt lat="42.1799387" lon="12.7538461"><ele>279.0</ele><time>2026-05-03T14:44:16.876Z</time></trkpt><trkpt lat="42.1800227" lon="12.7535965"><ele>276.6666666666667</ele><time>2026-05-03T14:44:17.866Z</time></trkpt><trkpt lat="42.1801097" lon="12.7533485"><ele>274.33333333333337</ele><time>2026-05-03T14:44:18.867Z</time></trkpt><trkpt lat="42.1801931" lon="12.7530787"><ele>272.0</ele><time>2026-05-03T14:44:19.871Z</time></trkpt><trkpt lat="42.1802592" lon="12.7528102"><ele>268.33333333333337</ele><time>2026-05-03T14:44:20.876Z</time></trkpt><trkpt lat="42.1803513" lon="12.7525448"><ele>264.6666666666667</ele><time>2026-05-03T14:44:21.866Z</time></trkpt><trkpt lat="42.1804087" lon="12.7522766"><ele>261.0</ele><time>2026-05-03T14:44:22.878Z</time></trkpt><trkpt lat="42.1804684" lon="12.7519999"><ele>260.0</ele><time>2026-05-03T14:44:23.87Z</time></trkpt><trkpt lat="42.1805542" lon="12.751731"><ele>259.0</ele><time>2026-05-03T14:44:24.871Z</time></trkpt><trkpt lat="42.1806024" lon="12.7514512"><ele>258.0</ele><time>2026-05-03T14:44:25.862Z</time></trkpt><trkpt lat="42.1806815" lon="12.7511902"><ele>261.6666666666667</ele><time>2026-05-03T14:44:26.868Z</time></trkpt><trkpt lat="42.1807692" lon="12.7509177"><ele>265.33333333333337</ele><time>2026-05-03T14:44:27.868Z</time></trkpt><trkpt lat="42.1808187" lon="12.7506564"><ele>269.0</ele><time>2026-05-03T14:44:28.87Z</time></trkpt><trkpt lat="42.1808732" lon="12.7503595"><ele>266.33333333333337</ele><time>2026-05-03T14:44:29.871Z</time></trkpt><trkpt lat="42.180906" lon="12.7500954"><ele>263.6666666666667</ele><time>2026-05-03T14:44:30.866Z</time></trkpt><trkpt lat="42.1809532" lon="12.74983"><ele>261.0</ele><time>2026-05-03T14:44:31.874Z</time></trkpt><trkpt lat="42.1809956" lon="12.7495925"><ele>256.3333333333333</ele><time>2026-05-03T14:44:32.873Z</time></trkpt><trkpt lat="42.1810429" lon="12.7493036"><ele>251.66666666666666</ele><time>2026-05-03T14:44:33.893Z</time></trkpt><trkpt lat="42.1811099" lon="12.7490856"><ele>247.0</ele><time>2026-05-03T14:44:34.893Z</time></trkpt><trkpt lat="42.1811652" lon="12.7488501"><ele>247.0</ele><time>2026-05-03T14:44:35.869Z</time></trkpt><trkpt lat="42.1812123" lon="12.748653"><ele>247.0</ele><time>2026-05-03T14:44:36.869Z</time></trkpt><trkpt lat="42.1812481" lon="12.7484379"><ele>247.0</ele><time>2026-05-03T14:44:37.895Z</time></trkpt><trkpt lat="42.1812638" lon="12.7482174"><ele>245.33333333333331</ele><time>2026-05-03T14:44:38.881Z</time></trkpt><trkpt lat="42.1812596" lon="12.7479756"><ele>243.66666666666669</ele><time>2026-05-03T14:44:39.874Z</time></trkpt><trkpt lat="42.181245" lon="12.7477215"><ele>242.0</ele><time>2026-05-03T14:44:40.872Z</time></trkpt><trkpt lat="42.1812036" lon="12.7474588"><ele>241.0</ele><time>2026-05-03T14:44:41.875Z</time></trkpt><trkpt lat="42.1811531" lon="12.7472068"><ele>240.0</ele><time>2026-05-03T14:44:42.873Z</time></trkpt><trkpt lat="42.1810784" lon="12.7469218"><ele>239.0</ele><time>2026-05-03T14:44:43.871Z</time></trkpt><trkpt lat="42.1810095" lon="12.7466195"><ele>239.0</ele><time>2026-05-03T14:44:44.865Z</time></trkpt><trkpt lat="42.1809321" lon="12.7463557"><ele>239.0</ele><time>2026-05-03T14:44:45.876Z</time></trkpt><trkpt lat="42.1808394" lon="12.7461126"><ele>239.0</ele><time>2026-05-03T14:44:46.87Z</time></trkpt><trkpt lat="42.1807293" lon="12.7458676"><ele>237.0</ele><time>2026-05-03T14:44:47.867Z</time></trkpt><trkpt lat="42.1805982" lon="12.7456402"><ele>235.0</ele><time>2026-05-03T14:44:48.868Z</time></trkpt><trkpt lat="42.1804705" lon="12.7454263"><ele>233.0</ele><time>2026-05-03T14:44:49.874Z</time></trkpt><trkpt lat="42.1803112" lon="12.7452182"><ele>235.5</ele><time>2026-05-03T14:44:50.864Z</time></trkpt><trkpt lat="42.1801343" lon="12.7450012"><ele>238.0</ele><time>2026-05-03T14:44:51.87Z</time></trkpt><trkpt lat="42.1799509" lon="12.7447821"><ele>235.66666666666666</ele><time>2026-05-03T14:44:52.865Z</time></trkpt><trkpt lat="42.1797801" lon="12.7446107"><ele>233.33333333333331</ele><time>2026-05-03T14:44:53.865Z</time></trkpt><trkpt lat="42.179609" lon="12.744449"><ele>231.0</ele><time>2026-05-03T14:44:54.868Z</time></trkpt><trkpt lat="42.1794672" lon="12.7442654"><ele>231.0</ele><time>2026-05-03T14:44:55.867Z</time></trkpt><trkpt lat="42.1793248" lon="12.7441233"><ele>231.0</ele><time>2026-05-03T14:44:56.867Z</time></trkpt><trkpt lat="42.179205" lon="12.7439923"><ele>231.0</ele><time>2026-05-03T14:44:57.861Z</time></trkpt><trkpt lat="42.1790839" lon="12.7438425"><ele>229.0</ele><time>2026-05-03T14:44:58.888Z</time></trkpt><trkpt lat="42.1789728" lon="12.7437005"><ele>227.0</ele><time>2026-05-03T14:44:59.857Z</time></trkpt><trkpt lat="42.1788453" lon="12.7435662"><ele>225.0</ele><time>2026-05-03T14:45:00.857Z</time></trkpt><trkpt lat="42.1787464" lon="12.7434317"><ele>225.0</ele><time>2026-05-03T14:45:01.855Z</time></trkpt><trkpt lat="42.1786368" lon="12.7432999"><ele>225.0</ele><time>2026-05-03T14:45:02.861Z</time></trkpt><trkpt lat="42.1785343" lon="12.7432059"><ele>225.0</ele><time>2026-05-03T14:45:03.858Z</time></trkpt><trkpt lat="42.1784858" lon="12.7431449"><ele>225.0</ele><time>2026-05-03T14:45:04.863Z</time></trkpt><trkpt lat="42.1783929" lon="12.7431205"><ele>225.0</ele><time>2026-05-03T14:45:05.861Z</time></trkpt><trkpt lat="42.1783136" lon="12.7430808"><ele>225.0</ele><time>2026-05-03T14:45:06.863Z</time></trkpt><trkpt lat="42.1782485" lon="12.7432013"><ele>225.0</ele><time>2026-05-03T14:45:08.886Z</time></trkpt><trkpt lat="42.1782081" lon="12.743283"><ele>225.0</ele><time>2026-05-03T14:45:10.856Z</time></trkpt><trkpt lat="42.1781768" lon="12.7433972"><ele>225.0</ele><time>2026-05-03T14:45:38.859Z</time></trkpt><trkpt lat="42.1781141" lon="12.7434804"><ele>225.0</ele><time>2026-05-03T14:45:39.849Z</time></trkpt><trkpt lat="42.1780495" lon="12.7436088"><ele>222.6</ele><time>2026-05-03T14:45:40.863Z</time></trkpt><trkpt lat="42.1779613" lon="12.7437086"><ele>220.2</ele><time>2026-05-03T14:45:41.857Z</time></trkpt><trkpt lat="42.1778907" lon="12.743761"><ele>217.8</ele><time>2026-05-03T14:45:42.857Z</time></trkpt><trkpt lat="42.1777984" lon="12.743765"><ele>215.4</ele><time>2026-05-03T14:45:43.862Z</time></trkpt><trkpt lat="42.1776804" lon="12.7437484"><ele>213.0</ele><time>2026-05-03T14:45:44.859Z</time></trkpt><trkpt lat="42.1775694" lon="12.7437302"><ele>213.0</ele><time>2026-05-03T14:45:45.86Z</time></trkpt><trkpt lat="42.1774674" lon="12.7436876"><ele>213.0</ele><time>2026-05-03T14:45:46.857Z</time></trkpt><trkpt lat="42.1773621" lon="12.7436205"><ele>213.0</ele><time>2026-05-03T14:45:47.853Z</time></trkpt><trkpt lat="42.1772794" lon="12.7435638"><ele>213.0</ele><time>2026-05-03T14:45:48.858Z</time></trkpt><trkpt lat="42.1772088" lon="12.7435139"><ele>213.0</ele><time>2026-05-03T14:45:49.855Z</time></trkpt><trkpt lat="42.1771239" lon="12.743468"><ele>213.0</ele><time>2026-05-03T14:45:50.856Z</time></trkpt><trkpt lat="42.1770467" lon="12.7434266"><ele>213.0</ele><time>2026-05-03T14:45:51.941Z</time></trkpt><trkpt lat="42.1769604" lon="12.7434194"><ele>213.0</ele><time>2026-05-03T14:45:52.879Z</time></trkpt><trkpt lat="42.1768411" lon="12.7434138"><ele>213.0</ele><time>2026-05-03T14:45:53.855Z</time></trkpt><trkpt lat="42.1767133" lon="12.7434652"><ele>213.0</ele><time>2026-05-03T14:45:54.858Z</time></trkpt><trkpt lat="42.1765822" lon="12.7435326"><ele>210.33333333333331</ele><time>2026-05-03T14:45:55.85Z</time></trkpt><trkpt lat="42.1764436" lon="12.7436026"><ele>207.66666666666666</ele><time>2026-05-03T14:45:56.855Z</time></trkpt><trkpt lat="42.1762797" lon="12.7436895"><ele>205.0</ele><time>2026-05-03T14:45:57.893Z</time></trkpt><trkpt lat="42.1760815" lon="12.7437928"><ele>205.0</ele><time>2026-05-03T14:45:58.861Z</time></trkpt><trkpt lat="42.175893" lon="12.7439135"><ele>205.0</ele><time>2026-05-03T14:45:59.854Z</time></trkpt><trkpt lat="42.1757195" lon="12.7440365"><ele>205.0</ele><time>2026-05-03T14:46:00.862Z</time></trkpt><trkpt lat="42.1755835" lon="12.744114"><ele>205.75</ele><time>2026-05-03T14:46:01.865Z</time></trkpt><trkpt lat="42.1754593" lon="12.7442236"><ele>206.5</ele><time>2026-05-03T14:46:02.855Z</time></trkpt><trkpt lat="42.1753353" lon="12.7443149"><ele>207.25</ele><time>2026-05-03T14:46:03.856Z</time></trkpt><trkpt lat="42.1752147" lon="12.7443789"><ele>208.0</ele><time>2026-05-03T14:46:04.858Z</time></trkpt><trkpt lat="42.1751235" lon="12.7444214"><ele>204.0</ele><time>2026-05-03T14:46:05.858Z</time></trkpt><trkpt lat="42.1750352" lon="12.7444472"><ele>200.0</ele><time>2026-05-03T14:46:06.855Z</time></trkpt><trkpt lat="42.1749156" lon="12.7444242"><ele>196.0</ele><time>2026-05-03T14:46:07.855Z</time></trkpt><trkpt lat="42.174799" lon="12.7443911"><ele>192.0</ele><time>2026-05-03T14:46:08.861Z</time></trkpt><trkpt lat="42.1746756" lon="12.7443991"><ele>192.0</ele><time>2026-05-03T14:46:09.858Z</time></trkpt><trkpt lat="42.1745693" lon="12.7443971"><ele>192.0</ele><time>2026-05-03T14:46:10.877Z</time></trkpt><trkpt lat="42.1744533" lon="12.7444122"><ele>192.0</ele><time>2026-05-03T14:46:11.858Z</time></trkpt><trkpt lat="42.1743386" lon="12.7444262"><ele>192.0</ele><time>2026-05-03T14:46:12.875Z</time></trkpt><trkpt lat="42.1742357" lon="12.7444491"><ele>192.0</ele><time>2026-05-03T14:46:13.875Z</time></trkpt><trkpt lat="42.1741487" lon="12.7444916"><ele>192.0</ele><time>2026-05-03T14:46:14.855Z</time></trkpt><trkpt lat="42.174071" lon="12.7445516"><ele>192.0</ele><time>2026-05-03T14:46:15.858Z</time></trkpt><trkpt lat="42.1740107" lon="12.7446418"><ele>192.0</ele><time>2026-05-03T14:46:16.884Z</time></trkpt><trkpt lat="42.1739451" lon="12.7447297"><ele>192.0</ele><time>2026-05-03T14:46:17.854Z</time></trkpt><trkpt lat="42.1738815" lon="12.7448419"><ele>192.0</ele><time>2026-05-03T14:46:18.879Z</time></trkpt><trkpt lat="42.173808" lon="12.7449338"><ele>191.16666666666666</ele><time>2026-05-03T14:46:19.857Z</time></trkpt><trkpt lat="42.1737323" lon="12.7449996"><ele>190.33333333333334</ele><time>2026-05-03T14:46:20.855Z</time></trkpt><trkpt lat="42.1736657" lon="12.7450587"><ele>189.5</ele><time>2026-05-03T14:46:21.874Z</time></trkpt><trkpt lat="42.1735944" lon="12.7450997"><ele>188.66666666666669</ele><time>2026-05-03T14:46:22.873Z</time></trkpt><trkpt lat="42.1735257" lon="12.7451307"><ele>187.83333333333334</ele><time>2026-05-03T14:46:23.859Z</time></trkpt><trkpt lat="42.1734598" lon="12.7450625"><ele>187.0</ele><time>2026-05-03T14:46:24.846Z</time></trkpt><trkpt lat="42.1734055" lon="12.7449671"><ele>187.0</ele><time>2026-05-03T14:46:25.87Z</time></trkpt><trkpt lat="42.1733469" lon="12.7448665"><ele>187.0</ele><time>2026-05-03T14:46:26.855Z</time></trkpt><trkpt lat="42.1732806" lon="12.744755"><ele>187.0</ele><time>2026-05-03T14:46:27.855Z</time></trkpt><trkpt lat="42.1732142" lon="12.7446427"><ele>187.0</ele><time>2026-05-03T14:46:28.852Z</time></trkpt><trkpt lat="42.173138" lon="12.7445177"><ele>187.0</ele><time>2026-05-03T14:46:29.879Z</time></trkpt><trkpt lat="42.1730517" lon="12.7443527"><ele>184.66666666666669</ele><time>2026-05-03T14:46:30.878Z</time></trkpt><trkpt lat="42.1729573" lon="12.7441674"><ele>182.33333333333334</ele><time>2026-05-03T14:46:31.85Z</time></trkpt><trkpt lat="42.1728494" lon="12.7439027"><ele>180.0</ele><time>2026-05-03T14:46:32.853Z</time></trkpt><trkpt lat="42.1727485" lon="12.7436576"><ele>181.66666666666666</ele><time>2026-05-03T14:46:33.852Z</time></trkpt><trkpt lat="42.1726565" lon="12.7434765"><ele>183.33333333333331</ele><time>2026-05-03T14:46:34.849Z</time></trkpt><trkpt lat="42.1725356" lon="12.7432878"><ele>185.0</ele><time>2026-05-03T14:46:35.856Z</time></trkpt><trkpt lat="42.1724319" lon="12.7431385"><ele>183.0</ele><time>2026-05-03T14:46:36.856Z</time></trkpt><trkpt lat="42.1723365" lon="12.7430014"><ele>181.0</ele><time>2026-05-03T14:46:37.854Z</time></trkpt><trkpt lat="42.1722466" lon="12.7428817"><ele>179.0</ele><time>2026-05-03T14:46:38.859Z</time></trkpt><trkpt lat="42.1721819" lon="12.7427412"><ele>177.0</ele><time>2026-05-03T14:46:39.852Z</time></trkpt><trkpt lat="42.1720959" lon="12.7426158"><ele>177.0</ele><time>2026-05-03T14:46:40.852Z</time></trkpt><trkpt lat="42.1720188" lon="12.7424715"><ele>177.0</ele><time>2026-05-03T14:46:41.854Z</time></trkpt><trkpt lat="42.1719479" lon="12.7423502"><ele>177.0</ele><time>2026-05-03T14:46:42.857Z</time></trkpt><trkpt lat="42.1718824" lon="12.7422582"><ele>177.0</ele><time>2026-05-03T14:46:43.857Z</time></trkpt><trkpt lat="42.1718204" lon="12.7421712"><ele>177.0</ele><time>2026-05-03T14:46:44.86Z</time></trkpt><trkpt lat="42.1717663" lon="12.7421026"><ele>177.0</ele><time>2026-05-03T14:46:45.847Z</time></trkpt><trkpt lat="42.1717195" lon="12.7420453"><ele>177.0</ele><time>2026-05-03T14:46:46.863Z</time></trkpt><trkpt lat="42.1716354" lon="12.7419521"><ele>177.0</ele><time>2026-05-03T14:46:48.849Z</time></trkpt><trkpt lat="42.1715322" lon="12.7419784"><ele>177.0</ele><time>2026-05-03T14:46:51.881Z</time></trkpt><trkpt lat="42.1714731" lon="12.742017"><ele>177.0</ele><time>2026-05-03T14:46:52.878Z</time></trkpt><trkpt lat="42.1714141" lon="12.742052"><ele>177.0</ele><time>2026-05-03T14:46:53.876Z</time></trkpt><trkpt lat="42.1713282" lon="12.7422078"><ele>176.0</ele><time>2026-05-03T14:46:54.85Z</time></trkpt><trkpt lat="42.1712282" lon="12.7423264"><ele>175.0</ele><time>2026-05-03T14:46:55.874Z</time></trkpt><trkpt lat="42.1710912" lon="12.7424192"><ele>174.0</ele><time>2026-05-03T14:46:56.853Z</time></trkpt><trkpt lat="42.1709755" lon="12.7424485"><ele>173.0</ele><time>2026-05-03T14:46:57.86Z</time></trkpt><trkpt lat="42.1708507" lon="12.7425802"><ele>173.0</ele><time>2026-05-03T14:46:58.863Z</time></trkpt><trkpt lat="42.1707331" lon="12.7426482"><ele>173.0</ele><time>2026-05-03T14:46:59.861Z</time></trkpt><trkpt lat="42.1706048" lon="12.7427371"><ele>173.0</ele><time>2026-05-03T14:47:00.852Z</time></trkpt><trkpt lat="42.1705193" lon="12.7427842"><ele>173.0</ele><time>2026-05-03T14:47:01.863Z</time></trkpt><trkpt lat="42.1704383" lon="12.7428255"><ele>172.33333333333331</ele><time>2026-05-03T14:47:02.867Z</time></trkpt><trkpt lat="42.1703535" lon="12.7428699"><ele>171.66666666666666</ele><time>2026-05-03T14:47:03.858Z</time></trkpt><trkpt lat="42.1702833" lon="12.7429005"><ele>171.0</ele><time>2026-05-03T14:47:04.864Z</time></trkpt><trkpt lat="42.1702162" lon="12.7429327"><ele>170.33333333333334</ele><time>2026-05-03T14:47:05.898Z</time></trkpt><trkpt lat="42.1701514" lon="12.7429642"><ele>169.66666666666669</ele><time>2026-05-03T14:47:06.863Z</time></trkpt><trkpt lat="42.1700912" lon="12.7430309"><ele>169.0</ele><time>2026-05-03T14:47:08.855Z</time></trkpt><trkpt lat="42.1701777" lon="12.7430164"><ele>169.0</ele><time>2026-05-03T14:47:14.88Z</time></trkpt><trkpt lat="42.1702147" lon="12.74292"><ele>169.0</ele><time>2026-05-03T14:47:16.862Z</time></trkpt><trkpt lat="42.1702866" lon="12.7428025"><ele>169.0</ele><time>2026-05-03T14:47:18.864Z</time></trkpt><trkpt lat="42.1704024" lon="12.7427508"><ele>169.0</ele><time>2026-05-03T14:47:19.853Z</time></trkpt><trkpt lat="42.1705303" lon="12.742682"><ele>169.0</ele><time>2026-05-03T14:47:20.864Z</time></trkpt><trkpt lat="42.1706641" lon="12.7425849"><ele>169.0</ele><time>2026-05-03T14:47:21.858Z</time></trkpt><trkpt lat="42.1707969" lon="12.7425173"><ele>169.0</ele><time>2026-05-03T14:47:22.876Z</time></trkpt><trkpt lat="42.1709133" lon="12.7424395"><ele>169.0</ele><time>2026-05-03T14:47:23.861Z</time></trkpt><trkpt lat="42.1710258" lon="12.7423712"><ele>170.0</ele><time>2026-05-03T14:47:24.858Z</time></trkpt><trkpt lat="42.1711498" lon="12.7423094"><ele>171.0</ele><time>2026-05-03T14:47:25.878Z</time></trkpt><trkpt lat="42.1712599" lon="12.7422392"><ele>172.0</ele><time>2026-05-03T14:47:26.873Z</time></trkpt><trkpt lat="42.1713566" lon="12.7421767"><ele>173.0</ele><time>2026-05-03T14:47:27.86Z</time></trkpt><trkpt lat="42.1714505" lon="12.7421203"><ele>173.66666666666666</ele><time>2026-05-03T14:47:28.878Z</time></trkpt><trkpt lat="42.1715373" lon="12.7420607"><ele>174.33333333333331</ele><time>2026-05-03T14:47:29.853Z</time></trkpt><trkpt lat="42.1716066" lon="12.7420065"><ele>175.0</ele><time>2026-05-03T14:47:30.851Z</time></trkpt><trkpt lat="42.1716849" lon="12.7419558"><ele>175.66666666666666</ele><time>2026-05-03T14:47:31.873Z</time></trkpt><trkpt lat="42.1717656" lon="12.7419109"><ele>176.33333333333334</ele><time>2026-05-03T14:47:32.872Z</time></trkpt><trkpt lat="42.1718341" lon="12.7418986"><ele>177.0</ele><time>2026-05-03T14:47:33.878Z</time></trkpt><trkpt lat="42.1718838" lon="12.7419702"><ele>177.0</ele><time>2026-05-03T14:47:34.855Z</time></trkpt><trkpt lat="42.171942" lon="12.7421025"><ele>177.0</ele><time>2026-05-03T14:47:35.859Z</time></trkpt><trkpt lat="42.172032" lon="12.7422705"><ele>177.0</ele><time>2026-05-03T14:47:36.851Z</time></trkpt><trkpt lat="42.1721229" lon="12.7424993"><ele>177.0</ele><time>2026-05-03T14:47:37.849Z</time></trkpt><trkpt lat="42.1722188" lon="12.7427103"><ele>177.0</ele><time>2026-05-03T14:47:38.873Z</time></trkpt><trkpt lat="42.1723136" lon="12.7429228"><ele>177.0</ele><time>2026-05-03T14:47:39.866Z</time></trkpt><trkpt lat="42.1724108" lon="12.7431313"><ele>178.0</ele><time>2026-05-03T14:47:40.851Z</time></trkpt><trkpt lat="42.1724991" lon="12.743309"><ele>179.0</ele><time>2026-05-03T14:47:41.852Z</time></trkpt><trkpt lat="42.1726007" lon="12.7435015"><ele>180.0</ele><time>2026-05-03T14:47:42.854Z</time></trkpt><trkpt lat="42.1726867" lon="12.7436743"><ele>180.0</ele><time>2026-05-03T14:47:43.85Z</time></trkpt><trkpt lat="42.172808" lon="12.7438441"><ele>180.0</ele><time>2026-05-03T14:47:44.874Z</time></trkpt><trkpt lat="42.1729322" lon="12.7440232"><ele>180.0</ele><time>2026-05-03T14:47:45.854Z</time></trkpt><trkpt lat="42.1730448" lon="12.7442088"><ele>180.0</ele><time>2026-05-03T14:47:46.874Z</time></trkpt><trkpt lat="42.1731481" lon="12.7443706"><ele>180.0</ele><time>2026-05-03T14:47:47.852Z</time></trkpt><trkpt lat="42.173228" lon="12.7445256"><ele>180.0</ele><time>2026-05-03T14:47:48.86Z</time></trkpt><trkpt lat="42.1733179" lon="12.744637"><ele>180.0</ele><time>2026-05-03T14:47:49.851Z</time></trkpt><trkpt lat="42.1734013" lon="12.7447496"><ele>181.4</ele><time>2026-05-03T14:47:50.857Z</time></trkpt><trkpt lat="42.1734832" lon="12.7448595"><ele>182.8</ele><time>2026-05-03T14:47:51.849Z</time></trkpt><trkpt lat="42.1735535" lon="12.7449851"><ele>184.2</ele><time>2026-05-03T14:47:52.881Z</time></trkpt><trkpt lat="42.1736258" lon="12.745094"><ele>185.6</ele><time>2026-05-03T14:47:53.877Z</time></trkpt><trkpt lat="42.1736971" lon="12.7451543"><ele>187.0</ele><time>2026-05-03T14:47:54.85Z</time></trkpt><trkpt lat="42.1737852" lon="12.7451834"><ele>187.0</ele><time>2026-05-03T14:47:55.85Z</time></trkpt><trkpt lat="42.1738628" lon="12.745219"><ele>187.0</ele><time>2026-05-03T14:47:56.851Z</time></trkpt><trkpt lat="42.1739452" lon="12.7451907"><ele>187.0</ele><time>2026-05-03T14:47:57.932Z</time></trkpt><trkpt lat="42.1740167" lon="12.7451768"><ele>187.0</ele><time>2026-05-03T14:47:58.9Z</time></trkpt><trkpt lat="42.1740954" lon="12.7450855"><ele>187.0</ele><time>2026-05-03T14:47:59.889Z</time></trkpt><trkpt lat="42.1741694" lon="12.7449476"><ele>188.0</ele><time>2026-05-03T14:48:00.899Z</time></trkpt><trkpt lat="42.1742431" lon="12.74484"><ele>189.0</ele><time>2026-05-03T14:48:01.854Z</time></trkpt><trkpt lat="42.1743316" lon="12.7447524"><ele>190.0</ele><time>2026-05-03T14:48:02.846Z</time></trkpt><trkpt lat="42.1744324" lon="12.7446904"><ele>191.0</ele><time>2026-05-03T14:48:03.856Z</time></trkpt><trkpt lat="42.1745288" lon="12.7446059"><ele>192.0</ele><time>2026-05-03T14:48:04.851Z</time></trkpt><trkpt lat="42.1746334" lon="12.7445474"><ele>192.0</ele><time>2026-05-03T14:48:05.85Z</time></trkpt><trkpt lat="42.1747379" lon="12.7445014"><ele>192.0</ele><time>2026-05-03T14:48:06.847Z</time></trkpt><trkpt lat="42.1748408" lon="12.7444586"><ele>192.0</ele><time>2026-05-03T14:48:07.852Z</time></trkpt><trkpt lat="42.1749508" lon="12.7444042"><ele>192.0</ele><time>2026-05-03T14:48:08.855Z</time></trkpt><trkpt lat="42.1750465" lon="12.7443632"><ele>192.0</ele><time>2026-05-03T14:48:09.855Z</time></trkpt><trkpt lat="42.1751547" lon="12.7443186"><ele>196.0</ele><time>2026-05-03T14:48:10.854Z</time></trkpt><trkpt lat="42.1752566" lon="12.7442631"><ele>200.0</ele><time>2026-05-03T14:48:11.848Z</time></trkpt><trkpt lat="42.1753661" lon="12.7442074"><ele>204.0</ele><time>2026-05-03T14:48:12.853Z</time></trkpt><trkpt lat="42.1754821" lon="12.7441401"><ele>208.0</ele><time>2026-05-03T14:48:13.854Z</time></trkpt><trkpt lat="42.1756032" lon="12.7440571"><ele>207.0</ele><time>2026-05-03T14:48:14.851Z</time></trkpt><trkpt lat="42.1757368" lon="12.7439648"><ele>206.0</ele><time>2026-05-03T14:48:15.861Z</time></trkpt><trkpt lat="42.175894" lon="12.7438932"><ele>205.0</ele><time>2026-05-03T14:48:16.879Z</time></trkpt><trkpt lat="42.1761056" lon="12.7437871"><ele>205.0</ele><time>2026-05-03T14:48:17.848Z</time></trkpt><trkpt lat="42.1763125" lon="12.7436698"><ele>205.0</ele><time>2026-05-03T14:48:18.871Z</time></trkpt><trkpt lat="42.1764799" lon="12.7435725"><ele>205.0</ele><time>2026-05-03T14:48:19.849Z</time></trkpt><trkpt lat="42.1766217" lon="12.7435098"><ele>206.6</ele><time>2026-05-03T14:48:20.847Z</time></trkpt><trkpt lat="42.1767287" lon="12.7434755"><ele>208.2</ele><time>2026-05-03T14:48:21.848Z</time></trkpt><trkpt lat="42.1768185" lon="12.7434465"><ele>209.8</ele><time>2026-05-03T14:48:22.843Z</time></trkpt><trkpt lat="42.1769032" lon="12.7434479"><ele>211.4</ele><time>2026-05-03T14:48:23.866Z</time></trkpt><trkpt lat="42.1770216" lon="12.7434131"><ele>213.0</ele><time>2026-05-03T14:48:24.868Z</time></trkpt><trkpt lat="42.1771456" lon="12.7434"><ele>213.0</ele><time>2026-05-03T14:48:25.845Z</time></trkpt><trkpt lat="42.1772488" lon="12.7434714"><ele>213.0</ele><time>2026-05-03T14:48:26.847Z</time></trkpt><trkpt lat="42.1773725" lon="12.7435658"><ele>213.0</ele><time>2026-05-03T14:48:27.853Z</time></trkpt><trkpt lat="42.1774881" lon="12.743653"><ele>213.0</ele><time>2026-05-03T14:48:28.843Z</time></trkpt><trkpt lat="42.1775821" lon="12.7437407"><ele>213.0</ele><time>2026-05-03T14:48:29.855Z</time></trkpt><trkpt lat="42.1776864" lon="12.7438109"><ele>213.0</ele><time>2026-05-03T14:48:30.857Z</time></trkpt><trkpt lat="42.1777917" lon="12.7438862"><ele>213.0</ele><time>2026-05-03T14:48:31.86Z</time></trkpt><trkpt lat="42.1779031" lon="12.7439111"><ele>213.0</ele><time>2026-05-03T14:48:32.86Z</time></trkpt><trkpt lat="42.1779987" lon="12.7439393"><ele>213.0</ele><time>2026-05-03T14:48:33.859Z</time></trkpt><trkpt lat="42.1780947" lon="12.743942"><ele>213.0</ele><time>2026-05-03T14:48:34.881Z</time></trkpt><trkpt lat="42.1781787" lon="12.7438989"><ele>213.0</ele><time>2026-05-03T14:48:35.881Z</time></trkpt><trkpt lat="42.1782414" lon="12.7437934"><ele>213.0</ele><time>2026-05-03T14:48:36.898Z</time></trkpt><trkpt lat="42.1782854" lon="12.7436712"><ele>213.0</ele><time>2026-05-03T14:48:37.853Z</time></trkpt><trkpt lat="42.178319" lon="12.7435578"><ele>213.0</ele><time>2026-05-03T14:48:38.853Z</time></trkpt><trkpt lat="42.1783533" lon="12.7434534"><ele>215.4</ele><time>2026-05-03T14:48:39.875Z</time></trkpt><trkpt lat="42.1783911" lon="12.7433464"><ele>217.8</ele><time>2026-05-03T14:48:40.849Z</time></trkpt><trkpt lat="42.178421" lon="12.7432075"><ele>220.2</ele><time>2026-05-03T14:48:42.853Z</time></trkpt><trkpt lat="42.1784334" lon="12.7430839"><ele>222.6</ele><time>2026-05-03T14:48:44.85Z</time></trkpt><trkpt lat="42.1783714" lon="12.7430307"><ele>225.0</ele><time>2026-05-03T14:48:46.846Z</time></trkpt><trkpt lat="42.178288" lon="12.7429182"><ele>225.0</ele><time>2026-05-03T14:48:48.85Z</time></trkpt><trkpt lat="42.1781943" lon="12.7428429"><ele>225.0</ele><time>2026-05-03T14:48:49.871Z</time></trkpt><trkpt lat="42.1780685" lon="12.7427366"><ele>225.0</ele><time>2026-05-03T14:48:50.853Z</time></trkpt><trkpt lat="42.1778907" lon="12.7425907"><ele>221.5</ele><time>2026-05-03T14:48:51.848Z</time></trkpt><trkpt lat="42.1776716" lon="12.7423864"><ele>218.0</ele><time>2026-05-03T14:48:52.894Z</time></trkpt><trkpt lat="42.1774406" lon="12.7421801"><ele>214.5</ele><time>2026-05-03T14:48:53.852Z</time></trkpt><trkpt lat="42.1772098" lon="12.7419606"><ele>211.0</ele><time>2026-05-03T14:48:54.849Z</time></trkpt><trkpt lat="42.1770047" lon="12.7417698"><ele>211.0</ele><time>2026-05-03T14:48:55.848Z</time></trkpt><trkpt lat="42.1768088" lon="12.7415775"><ele>211.0</ele><time>2026-05-03T14:48:56.876Z</time></trkpt><trkpt lat="42.1766405" lon="12.7414063"><ele>210.66666666666666</ele><time>2026-05-03T14:48:57.871Z</time></trkpt><trkpt lat="42.1764736" lon="12.7412272"><ele>210.33333333333331</ele><time>2026-05-03T14:48:58.878Z</time></trkpt><trkpt lat="42.1763331" lon="12.7410311"><ele>210.0</ele><time>2026-05-03T14:48:59.852Z</time></trkpt><trkpt lat="42.1761889" lon="12.7408859"><ele>210.0</ele><time>2026-05-03T14:49:00.855Z</time></trkpt><trkpt lat="42.1760316" lon="12.7407055"><ele>210.0</ele><time>2026-05-03T14:49:01.857Z</time></trkpt><trkpt lat="42.1758899" lon="12.7405283"><ele>210.0</ele><time>2026-05-03T14:49:02.853Z</time></trkpt><trkpt lat="42.1757435" lon="12.7403308"><ele>206.66666666666669</ele><time>2026-05-03T14:49:03.852Z</time></trkpt><trkpt lat="42.1756173" lon="12.7401564"><ele>203.33333333333334</ele><time>2026-05-03T14:49:04.851Z</time></trkpt><trkpt lat="42.175488" lon="12.7399374"><ele>200.0</ele><time>2026-05-03T14:49:05.851Z</time></trkpt><trkpt lat="42.1753673" lon="12.7397192"><ele>200.0</ele><time>2026-05-03T14:49:06.851Z</time></trkpt><trkpt lat="42.1752479" lon="12.7395171"><ele>200.0</ele><time>2026-05-03T14:49:07.853Z</time></trkpt><trkpt lat="42.1751562" lon="12.7393092"><ele>200.0</ele><time>2026-05-03T14:49:08.857Z</time></trkpt><trkpt lat="42.1750643" lon="12.7390909"><ele>201.33333333333334</ele><time>2026-05-03T14:49:09.859Z</time></trkpt><trkpt lat="42.1749651" lon="12.7388737"><ele>202.66666666666669</ele><time>2026-05-03T14:49:10.895Z</time></trkpt><trkpt lat="42.1748776" lon="12.738636"><ele>204.0</ele><time>2026-05-03T14:49:11.853Z</time></trkpt><trkpt lat="42.1748038" lon="12.7383845"><ele>200.66666666666669</ele><time>2026-05-03T14:49:12.854Z</time></trkpt><trkpt lat="42.174747" lon="12.7381879"><ele>197.33333333333334</ele><time>2026-05-03T14:49:13.873Z</time></trkpt><trkpt lat="42.1746945" lon="12.7379227"><ele>194.0</ele><time>2026-05-03T14:49:14.897Z</time></trkpt><trkpt lat="42.1746471" lon="12.7376586"><ele>192.66666666666669</ele><time>2026-05-03T14:49:15.875Z</time></trkpt><trkpt lat="42.1745945" lon="12.7374145"><ele>191.33333333333334</ele><time>2026-05-03T14:49:16.851Z</time></trkpt><trkpt lat="42.1745427" lon="12.7371243"><ele>190.0</ele><time>2026-05-03T14:49:17.854Z</time></trkpt><trkpt lat="42.1744995" lon="12.7368558"><ele>190.0</ele><time>2026-05-03T14:49:18.854Z</time></trkpt><trkpt lat="42.174482" lon="12.7365625"><ele>190.0</ele><time>2026-05-03T14:49:19.856Z</time></trkpt><trkpt lat="42.1744633" lon="12.7362963"><ele>190.0</ele><time>2026-05-03T14:49:20.853Z</time></trkpt><trkpt lat="42.1744235" lon="12.7360443"><ele>189.66666666666669</ele><time>2026-05-03T14:49:21.851Z</time></trkpt><trkpt lat="42.1744294" lon="12.7357672"><ele>189.33333333333334</ele><time>2026-05-03T14:49:22.852Z</time></trkpt><trkpt lat="42.17441" lon="12.7355443"><ele>189.0</ele><time>2026-05-03T14:49:23.859Z</time></trkpt><trkpt lat="42.1743929" lon="12.735301"><ele>188.66666666666666</ele><time>2026-05-03T14:49:24.854Z</time></trkpt><trkpt lat="42.1743648" lon="12.7350749"><ele>188.33333333333331</ele><time>2026-05-03T14:49:25.852Z</time></trkpt><trkpt lat="42.1743096" lon="12.7348792"><ele>188.0</ele><time>2026-05-03T14:49:26.853Z</time></trkpt><trkpt lat="42.1742511" lon="12.7346985"><ele>188.0</ele><time>2026-05-03T14:49:27.855Z</time></trkpt><trkpt lat="42.1742151" lon="12.7344975"><ele>188.0</ele><time>2026-05-03T14:49:28.857Z</time></trkpt><trkpt lat="42.1741784" lon="12.7343454"><ele>188.0</ele><time>2026-05-03T14:49:29.857Z</time></trkpt><trkpt lat="42.1741453" lon="12.7341689"><ele>188.0</ele><time>2026-05-03T14:49:30.862Z</time></trkpt><trkpt lat="42.1741178" lon="12.7339723"><ele>187.25</ele><time>2026-05-03T14:49:31.865Z</time></trkpt><trkpt lat="42.1741183" lon="12.733808"><ele>186.5</ele><time>2026-05-03T14:49:32.865Z</time></trkpt><trkpt lat="42.1740862" lon="12.7336391"><ele>185.75</ele><time>2026-05-03T14:49:33.864Z</time></trkpt><trkpt lat="42.174058" lon="12.7334764"><ele>185.0</ele><time>2026-05-03T14:49:34.865Z</time></trkpt><trkpt lat="42.1740313" lon="12.7333213"><ele>181.0</ele><time>2026-05-03T14:49:35.856Z</time></trkpt><trkpt lat="42.1739884" lon="12.7331263"><ele>177.0</ele><time>2026-05-03T14:49:36.857Z</time></trkpt><trkpt lat="42.1739395" lon="12.7329098"><ele>173.0</ele><time>2026-05-03T14:49:37.882Z</time></trkpt><trkpt lat="42.1738722" lon="12.7327022"><ele>172.66666666666666</ele><time>2026-05-03T14:49:38.858Z</time></trkpt><trkpt lat="42.1738632" lon="12.7324757"><ele>172.33333333333334</ele><time>2026-05-03T14:49:39.86Z</time></trkpt><trkpt lat="42.1738323" lon="12.7322594"><ele>172.0</ele><time>2026-05-03T14:49:40.85Z</time></trkpt><trkpt lat="42.1737457" lon="12.7320701"><ele>173.0</ele><time>2026-05-03T14:49:41.854Z</time></trkpt><trkpt lat="42.1736608" lon="12.7318737"><ele>174.0</ele><time>2026-05-03T14:49:42.853Z</time></trkpt><trkpt lat="42.1735903" lon="12.7316948"><ele>175.0</ele><time>2026-05-03T14:49:43.858Z</time></trkpt><trkpt lat="42.1735137" lon="12.731551"><ele>175.0</ele><time>2026-05-03T14:49:44.877Z</time></trkpt><trkpt lat="42.1734349" lon="12.731425"><ele>175.0</ele><time>2026-05-03T14:49:45.851Z</time></trkpt><trkpt lat="42.173345" lon="12.7313104"><ele>175.0</ele><time>2026-05-03T14:49:46.875Z</time></trkpt><trkpt lat="42.1732282" lon="12.7311954"><ele>175.0</ele><time>2026-05-03T14:49:47.877Z</time></trkpt><trkpt lat="42.1731198" lon="12.7311022"><ele>173.25</ele><time>2026-05-03T14:49:48.877Z</time></trkpt><trkpt lat="42.1730163" lon="12.7310021"><ele>171.5</ele><time>2026-05-03T14:49:49.872Z</time></trkpt><trkpt lat="42.1729146" lon="12.7308855"><ele>169.75</ele><time>2026-05-03T14:49:50.873Z</time></trkpt><trkpt lat="42.172801" lon="12.7307903"><ele>168.0</ele><time>2026-05-03T14:49:51.85Z</time></trkpt><trkpt lat="42.1726686" lon="12.7306817"><ele>168.0</ele><time>2026-05-03T14:49:52.853Z</time></trkpt><trkpt lat="42.172531" lon="12.7305572"><ele>168.0</ele><time>2026-05-03T14:49:53.853Z</time></trkpt><trkpt lat="42.1723844" lon="12.7304388"><ele>168.0</ele><time>2026-05-03T14:49:54.853Z</time></trkpt><trkpt lat="42.1722187" lon="12.7303488"><ele>168.5</ele><time>2026-05-03T14:49:55.849Z</time></trkpt><trkpt lat="42.1720851" lon="12.7302623"><ele>169.0</ele><time>2026-05-03T14:49:56.859Z</time></trkpt><trkpt lat="42.1719826" lon="12.7301906"><ele>169.5</ele><time>2026-05-03T14:49:57.858Z</time></trkpt><trkpt lat="42.1718859" lon="12.7300854"><ele>170.0</ele><time>2026-05-03T14:49:58.856Z</time></trkpt><trkpt lat="42.1717992" lon="12.7299598"><ele>168.75</ele><time>2026-05-03T14:49:59.853Z</time></trkpt><trkpt lat="42.171696" lon="12.7298571"><ele>167.5</ele><time>2026-05-03T14:50:00.853Z</time></trkpt><trkpt lat="42.1715808" lon="12.7297895"><ele>166.25</ele><time>2026-05-03T14:50:01.858Z</time></trkpt><trkpt lat="42.1714387" lon="12.7296722"><ele>165.0</ele><time>2026-05-03T14:50:02.846Z</time></trkpt><trkpt lat="42.1712749" lon="12.7295077"><ele>163.66666666666666</ele><time>2026-05-03T14:50:03.847Z</time></trkpt><trkpt lat="42.1710854" lon="12.7293554"><ele>162.33333333333331</ele><time>2026-05-03T14:50:04.846Z</time></trkpt><trkpt lat="42.1709049" lon="12.7292002"><ele>161.0</ele><time>2026-05-03T14:50:05.844Z</time></trkpt><trkpt lat="42.1707253" lon="12.729045"><ele>160.0</ele><time>2026-05-03T14:50:06.847Z</time></trkpt><trkpt lat="42.1705379" lon="12.7288981"><ele>159.0</ele><time>2026-05-03T14:50:07.842Z</time></trkpt><trkpt lat="42.170354" lon="12.7287688"><ele>158.0</ele><time>2026-05-03T14:50:08.843Z</time></trkpt><trkpt lat="42.1701974" lon="12.7286413"><ele>158.33333333333331</ele><time>2026-05-03T14:50:09.85Z</time></trkpt><trkpt lat="42.1700412" lon="12.7284639"><ele>158.66666666666666</ele><time>2026-05-03T14:50:10.847Z</time></trkpt><trkpt lat="42.1698522" lon="12.7283138"><ele>159.0</ele><time>2026-05-03T14:50:11.852Z</time></trkpt><trkpt lat="42.1696364" lon="12.7281535"><ele>155.0</ele><time>2026-05-03T14:50:12.847Z</time></trkpt><trkpt lat="42.1694407" lon="12.7280242"><ele>151.0</ele><time>2026-05-03T14:50:13.847Z</time></trkpt><trkpt lat="42.169279" lon="12.7278974"><ele>147.0</ele><time>2026-05-03T14:50:14.852Z</time></trkpt><trkpt lat="42.1691149" lon="12.7277525"><ele>143.5</ele><time>2026-05-03T14:50:15.849Z</time></trkpt><trkpt lat="42.1689337" lon="12.7276229"><ele>140.0</ele><time>2026-05-03T14:50:16.85Z</time></trkpt><trkpt lat="42.1687106" lon="12.7274575"><ele>140.0</ele><time>2026-05-03T14:50:17.849Z</time></trkpt><trkpt lat="42.1684944" lon="12.7273034"><ele>140.0</ele><time>2026-05-03T14:50:18.852Z</time></trkpt><trkpt lat="42.1683078" lon="12.7271832"><ele>139.33333333333331</ele><time>2026-05-03T14:50:19.854Z</time></trkpt><trkpt lat="42.1681276" lon="12.727048"><ele>138.66666666666666</ele><time>2026-05-03T14:50:20.862Z</time></trkpt><trkpt lat="42.1679133" lon="12.7269268"><ele>138.0</ele><time>2026-05-03T14:50:21.849Z</time></trkpt><trkpt lat="42.1677028" lon="12.7267813"><ele>138.0</ele><time>2026-05-03T14:50:22.879Z</time></trkpt><trkpt lat="42.1675245" lon="12.7266176"><ele>138.0</ele><time>2026-05-03T14:50:23.873Z</time></trkpt><trkpt lat="42.1673468" lon="12.7264947"><ele>138.0</ele><time>2026-05-03T14:50:24.854Z</time></trkpt><trkpt lat="42.1671571" lon="12.726351"><ele>136.66666666666666</ele><time>2026-05-03T14:50:25.874Z</time></trkpt><trkpt lat="42.166977" lon="12.7262017"><ele>135.33333333333331</ele><time>2026-05-03T14:50:26.854Z</time></trkpt><trkpt lat="42.1668073" lon="12.7260756"><ele>134.0</ele><time>2026-05-03T14:50:27.849Z</time></trkpt><trkpt lat="42.1666311" lon="12.725933"><ele>134.33333333333331</ele><time>2026-05-03T14:50:28.856Z</time></trkpt><trkpt lat="42.1664696" lon="12.7258057"><ele>134.66666666666666</ele><time>2026-05-03T14:50:29.854Z</time></trkpt><trkpt lat="42.1663027" lon="12.7256615"><ele>135.0</ele><time>2026-05-03T14:50:30.852Z</time></trkpt><trkpt lat="42.166146" lon="12.7255408"><ele>135.0</ele><time>2026-05-03T14:50:31.854Z</time></trkpt><trkpt lat="42.166004" lon="12.7253826"><ele>135.0</ele><time>2026-05-03T14:50:32.85Z</time></trkpt><trkpt lat="42.1658615" lon="12.7251586"><ele>135.0</ele><time>2026-05-03T14:50:33.849Z</time></trkpt><trkpt lat="42.1657322" lon="12.7248984"><ele>142.66666666666666</ele><time>2026-05-03T14:50:34.85Z</time></trkpt><trkpt lat="42.1656391" lon="12.7246572"><ele>150.33333333333331</ele><time>2026-05-03T14:50:35.851Z</time></trkpt><trkpt lat="42.1655606" lon="12.7244393"><ele>158.0</ele><time>2026-05-03T14:50:36.849Z</time></trkpt><trkpt lat="42.1655233" lon="12.7242377"><ele>159.75</ele><time>2026-05-03T14:50:37.851Z</time></trkpt><trkpt lat="42.1654832" lon="12.724045"><ele>161.5</ele><time>2026-05-03T14:50:38.849Z</time></trkpt><trkpt lat="42.1654537" lon="12.7238636"><ele>163.25</ele><time>2026-05-03T14:50:39.851Z</time></trkpt><trkpt lat="42.1654463" lon="12.7237198"><ele>165.0</ele><time>2026-05-03T14:50:40.868Z</time></trkpt><trkpt lat="42.1654407" lon="12.7236076"><ele>164.5</ele><time>2026-05-03T14:50:41.847Z</time></trkpt><trkpt lat="42.1654467" lon="12.72349"><ele>164.0</ele><time>2026-05-03T14:50:42.845Z</time></trkpt><trkpt lat="42.1654585" lon="12.7234014"><ele>163.5</ele><time>2026-05-03T14:50:43.851Z</time></trkpt><trkpt lat="42.1654687" lon="12.7232982"><ele>163.0</ele><time>2026-05-03T14:50:44.845Z</time></trkpt><trkpt lat="42.1654897" lon="12.7231835"><ele>162.5</ele><time>2026-05-03T14:50:45.846Z</time></trkpt><trkpt lat="42.1655324" lon="12.7230576"><ele>162.0</ele><time>2026-05-03T14:50:46.859Z</time></trkpt><trkpt lat="42.1655715" lon="12.7229159"><ele>162.0</ele><time>2026-05-03T14:50:47.853Z</time></trkpt><trkpt lat="42.1655711" lon="12.7227919"><ele>162.0</ele><time>2026-05-03T14:50:48.853Z</time></trkpt><trkpt lat="42.165575" lon="12.7226708"><ele>162.0</ele><time>2026-05-03T14:50:49.857Z</time></trkpt><trkpt lat="42.1655845" lon="12.722563"><ele>162.0</ele><time>2026-05-03T14:50:50.85Z</time></trkpt><trkpt lat="42.1655936" lon="12.7224582"><ele>162.0</ele><time>2026-05-03T14:50:51.856Z</time></trkpt><trkpt lat="42.1656042" lon="12.7223626"><ele>162.0</ele><time>2026-05-03T14:50:52.854Z</time></trkpt><trkpt lat="42.165562" lon="12.7222668"><ele>161.0</ele><time>2026-05-03T14:50:54.854Z</time></trkpt><trkpt lat="42.165467" lon="12.7223435"><ele>160.0</ele><time>2026-05-03T14:50:56.853Z</time></trkpt><trkpt lat="42.1653732" lon="12.7223992"><ele>159.0</ele><time>2026-05-03T14:50:57.843Z</time></trkpt><trkpt lat="42.1652789" lon="12.7224559"><ele>158.0</ele><time>2026-05-03T14:50:58.855Z</time></trkpt><trkpt lat="42.1651677" lon="12.7224807"><ele>157.0</ele><time>2026-05-03T14:50:59.843Z</time></trkpt><trkpt lat="42.165041" lon="12.7224959"><ele>157.0</ele><time>2026-05-03T14:51:00.869Z</time></trkpt><trkpt lat="42.1649309" lon="12.7225238"><ele>157.0</ele><time>2026-05-03T14:51:01.853Z</time></trkpt><trkpt lat="42.1648368" lon="12.7225375"><ele>157.0</ele><time>2026-05-03T14:51:04.854Z</time></trkpt><trkpt lat="42.1647826" lon="12.7225838"><ele>157.0</ele><time>2026-05-03T14:51:05.852Z</time></trkpt><trkpt lat="42.1647351" lon="12.7226872"><ele>157.0</ele><time>2026-05-03T14:51:06.852Z</time></trkpt><trkpt lat="42.1647219" lon="12.7228116"><ele>164.0</ele><time>2026-05-03T14:51:07.852Z</time></trkpt><trkpt lat="42.1647307" lon="12.722984"><ele>171.0</ele><time>2026-05-03T14:51:08.849Z</time></trkpt><trkpt lat="42.1647764" lon="12.7232172"><ele>178.0</ele><time>2026-05-03T14:51:09.851Z</time></trkpt><trkpt lat="42.1648402" lon="12.7234623"><ele>173.66666666666669</ele><time>2026-05-03T14:51:10.847Z</time></trkpt><trkpt lat="42.1649404" lon="12.7237271"><ele>169.33333333333334</ele><time>2026-05-03T14:51:11.847Z</time></trkpt><trkpt lat="42.1650228" lon="12.7239768"><ele>165.0</ele><time>2026-05-03T14:51:12.841Z</time></trkpt><trkpt lat="42.1650791" lon="12.7242119"><ele>163.25</ele><time>2026-05-03T14:51:13.843Z</time></trkpt><trkpt lat="42.1651002" lon="12.7244163"><ele>161.5</ele><time>2026-05-03T14:51:14.842Z</time></trkpt><trkpt lat="42.1650952" lon="12.7246075"><ele>159.75</ele><time>2026-05-03T14:51:15.848Z</time></trkpt><trkpt lat="42.1650467" lon="12.7247569"><ele>158.0</ele><time>2026-05-03T14:51:16.838Z</time></trkpt><trkpt lat="42.164961" lon="12.724938"><ele>158.0</ele><time>2026-05-03T14:51:17.842Z</time></trkpt><trkpt lat="42.1648637" lon="12.7251243"><ele>158.0</ele><time>2026-05-03T14:51:18.836Z</time></trkpt><trkpt lat="42.1647574" lon="12.7252584"><ele>158.0</ele><time>2026-05-03T14:51:19.86Z</time></trkpt><trkpt lat="42.1646021" lon="12.7253541"><ele>159.0</ele><time>2026-05-03T14:51:20.836Z</time></trkpt><trkpt lat="42.1643593" lon="12.7252875"><ele>160.0</ele><time>2026-05-03T14:51:21.838Z</time></trkpt><trkpt lat="42.1641159" lon="12.725193"><ele>163.0</ele><time>2026-05-03T14:51:22.844Z</time></trkpt><trkpt lat="42.1639746" lon="12.7251001"><ele>166.0</ele><time>2026-05-03T14:51:23.844Z</time></trkpt><trkpt lat="42.1638036" lon="12.7249913"><ele>169.0</ele><time>2026-05-03T14:51:24.843Z</time></trkpt><trkpt lat="42.1637001" lon="12.7248949"><ele>169.0</ele><time>2026-05-03T14:51:25.866Z</time></trkpt><trkpt lat="42.1636456" lon="12.7248193"><ele>169.0</ele><time>2026-05-03T14:51:26.853Z</time></trkpt><trkpt lat="42.1635395" lon="12.724827"><ele>169.0</ele><time>2026-05-03T14:51:27.852Z</time></trkpt><trkpt lat="42.1634324" lon="12.7248769"><ele>169.0</ele><time>2026-05-03T14:51:28.853Z</time></trkpt><trkpt lat="42.1633707" lon="12.7248992"><ele>169.0</ele><time>2026-05-03T14:51:29.848Z</time></trkpt><trkpt lat="42.1633063" lon="12.7249034"><ele>169.0</ele><time>2026-05-03T14:51:30.852Z</time></trkpt><trkpt lat="42.1632349" lon="12.7249303"><ele>169.0</ele><time>2026-05-03T14:51:32.85Z</time></trkpt><trkpt lat="42.1632046" lon="12.725015"><ele>169.0</ele><time>2026-05-03T14:52:04.859Z</time></trkpt><trkpt lat="42.1631289" lon="12.7250344"><ele>169.0</ele><time>2026-05-03T14:52:11.89Z</time></trkpt><trkpt lat="42.1630655" lon="12.7250467"><ele>169.0</ele><time>2026-05-03T14:52:56.855Z</time></trkpt><trkpt lat="42.1629985" lon="12.7250639"><ele>169.0</ele><time>2026-05-03T14:53:07.858Z</time></trkpt><trkpt lat="42.1629304" lon="12.7250815"><ele>169.0</ele><time>2026-05-03T14:53:10.854Z</time></trkpt><trkpt lat="42.1628658" lon="12.7251779"><ele>169.0</ele><time>2026-05-03T14:53:12.856Z</time></trkpt><trkpt lat="42.1628409" lon="12.7252827"><ele>169.0</ele><time>2026-05-03T14:53:13.853Z</time></trkpt><trkpt lat="42.1628272" lon="12.7254061"><ele>169.0</ele><time>2026-05-03T14:53:14.849Z</time></trkpt><trkpt lat="42.1628765" lon="12.7256104"><ele>169.0</ele><time>2026-05-03T14:53:15.857Z</time></trkpt><trkpt lat="42.1629133" lon="12.7258146"><ele>169.0</ele><time>2026-05-03T14:53:16.851Z</time></trkpt><trkpt lat="42.1630014" lon="12.7261151"><ele>172.0</ele><time>2026-05-03T14:53:17.855Z</time></trkpt><trkpt lat="42.1630823" lon="12.7263938"><ele>175.0</ele><time>2026-05-03T14:53:18.843Z</time></trkpt><trkpt lat="42.1631606" lon="12.7266807"><ele>178.0</ele><time>2026-05-03T14:53:19.852Z</time></trkpt><trkpt lat="42.1632554" lon="12.7269605"><ele>184.5</ele><time>2026-05-03T14:53:20.846Z</time></trkpt><trkpt lat="42.1633384" lon="12.7272314"><ele>191.0</ele><time>2026-05-03T14:53:21.84Z</time></trkpt><trkpt lat="42.1634354" lon="12.727524"><ele>190.0</ele><time>2026-05-03T14:53:22.867Z</time></trkpt><trkpt lat="42.1634937" lon="12.727853"><ele>189.0</ele><time>2026-05-03T14:53:23.851Z</time></trkpt><trkpt lat="42.1635308" lon="12.7281894"><ele>189.0</ele><time>2026-05-03T14:53:24.872Z</time></trkpt><trkpt lat="42.1635415" lon="12.7285055"><ele>189.0</ele><time>2026-05-03T14:53:25.868Z</time></trkpt><trkpt lat="42.1635171" lon="12.7287725"><ele>189.0</ele><time>2026-05-03T14:53:26.85Z</time></trkpt><trkpt lat="42.1634905" lon="12.7290438"><ele>188.66666666666666</ele><time>2026-05-03T14:53:27.85Z</time></trkpt><trkpt lat="42.1634695" lon="12.7293374"><ele>188.33333333333331</ele><time>2026-05-03T14:53:28.849Z</time></trkpt><trkpt lat="42.1634443" lon="12.7296143"><ele>188.0</ele><time>2026-05-03T14:53:29.85Z</time></trkpt><trkpt lat="42.163405" lon="12.7299"><ele>186.5</ele><time>2026-05-03T14:53:30.849Z</time></trkpt><trkpt lat="42.1633654" lon="12.730214"><ele>185.0</ele><time>2026-05-03T14:53:31.847Z</time></trkpt><trkpt lat="42.1633275" lon="12.730508"><ele>185.0</ele><time>2026-05-03T14:53:32.841Z</time></trkpt><trkpt lat="42.1632888" lon="12.7307467"><ele>185.0</ele><time>2026-05-03T14:53:33.839Z</time></trkpt><trkpt lat="42.1632191" lon="12.7309151"><ele>185.0</ele><time>2026-05-03T14:53:34.854Z</time></trkpt><trkpt lat="42.1630962" lon="12.7311154"><ele>185.0</ele><time>2026-05-03T14:53:35.856Z</time></trkpt><trkpt lat="42.1629818" lon="12.7313367"><ele>185.0</ele><time>2026-05-03T14:53:36.854Z</time></trkpt><trkpt lat="42.1628755" lon="12.731558"><ele>185.0</ele><time>2026-05-03T14:53:37.865Z</time></trkpt><trkpt lat="42.1627818" lon="12.7318165"><ele>187.33333333333331</ele><time>2026-05-03T14:53:38.864Z</time></trkpt><trkpt lat="42.1626833" lon="12.7320117"><ele>189.66666666666666</ele><time>2026-05-03T14:53:39.854Z</time></trkpt><trkpt lat="42.1626155" lon="12.7321984"><ele>192.0</ele><time>2026-05-03T14:53:40.859Z</time></trkpt><trkpt lat="42.1625571" lon="12.7323723"><ele>192.0</ele><time>2026-05-03T14:53:41.856Z</time></trkpt><trkpt lat="42.1624928" lon="12.7325663"><ele>192.0</ele><time>2026-05-03T14:53:42.86Z</time></trkpt><trkpt lat="42.1624687" lon="12.732776"><ele>192.0</ele><time>2026-05-03T14:53:43.852Z</time></trkpt><trkpt lat="42.162473" lon="12.7329875"><ele>192.33333333333331</ele><time>2026-05-03T14:53:44.858Z</time></trkpt><trkpt lat="42.1625" lon="12.7332094"><ele>192.66666666666666</ele><time>2026-05-03T14:53:45.864Z</time></trkpt><trkpt lat="42.1625117" lon="12.7334439"><ele>193.0</ele><time>2026-05-03T14:53:46.858Z</time></trkpt><trkpt lat="42.1625091" lon="12.7336818"><ele>193.0</ele><time>2026-05-03T14:53:47.856Z</time></trkpt><trkpt lat="42.1625212" lon="12.7339447"><ele>193.0</ele><time>2026-05-03T14:53:48.858Z</time></trkpt><trkpt lat="42.1625266" lon="12.734224"><ele>193.0</ele><time>2026-05-03T14:53:49.856Z</time></trkpt><trkpt lat="42.1625438" lon="12.7344812"><ele>193.33333333333331</ele><time>2026-05-03T14:53:50.859Z</time></trkpt><trkpt lat="42.1625652" lon="12.7347126"><ele>193.66666666666669</ele><time>2026-05-03T14:53:51.856Z</time></trkpt><trkpt lat="42.1625867" lon="12.734949"><ele>194.0</ele><time>2026-05-03T14:53:52.859Z</time></trkpt><trkpt lat="42.1625986" lon="12.7352143"><ele>195.0</ele><time>2026-05-03T14:53:53.863Z</time></trkpt><trkpt lat="42.1626018" lon="12.7355078"><ele>196.0</ele><time>2026-05-03T14:53:54.864Z</time></trkpt><trkpt lat="42.1626242" lon="12.7357281"><ele>197.0</ele><time>2026-05-03T14:53:55.862Z</time></trkpt><trkpt lat="42.1626421" lon="12.7359416"><ele>198.33333333333334</ele><time>2026-05-03T14:53:56.867Z</time></trkpt><trkpt lat="42.162648" lon="12.7361859"><ele>199.66666666666669</ele><time>2026-05-03T14:53:57.866Z</time></trkpt><trkpt lat="42.1626579" lon="12.7364401"><ele>201.0</ele><time>2026-05-03T14:53:58.861Z</time></trkpt><trkpt lat="42.1626698" lon="12.7367105"><ele>203.66666666666669</ele><time>2026-05-03T14:53:59.861Z</time></trkpt><trkpt lat="42.1626969" lon="12.7369872"><ele>206.33333333333334</ele><time>2026-05-03T14:54:00.861Z</time></trkpt><trkpt lat="42.1627236" lon="12.7372831"><ele>209.0</ele><time>2026-05-03T14:54:01.858Z</time></trkpt><trkpt lat="42.1627462" lon="12.737559"><ele>211.0</ele><time>2026-05-03T14:54:02.849Z</time></trkpt><trkpt lat="42.1627539" lon="12.737808"><ele>213.0</ele><time>2026-05-03T14:54:03.862Z</time></trkpt><trkpt lat="42.1627593" lon="12.7380528"><ele>215.0</ele><time>2026-05-03T14:54:04.857Z</time></trkpt><trkpt lat="42.1627782" lon="12.7382901"><ele>215.0</ele><time>2026-05-03T14:54:05.862Z</time></trkpt><trkpt lat="42.1627864" lon="12.738539"><ele>215.0</ele><time>2026-05-03T14:54:06.861Z</time></trkpt><trkpt lat="42.1627933" lon="12.7387727"><ele>215.0</ele><time>2026-05-03T14:54:07.869Z</time></trkpt><trkpt lat="42.1627962" lon="12.7389895"><ele>216.66666666666669</ele><time>2026-05-03T14:54:08.866Z</time></trkpt><trkpt lat="42.1627946" lon="12.7392023"><ele>218.33333333333331</ele><time>2026-05-03T14:54:09.866Z</time></trkpt><trkpt lat="42.1628019" lon="12.7394091"><ele>220.0</ele><time>2026-05-03T14:54:10.864Z</time></trkpt><trkpt lat="42.162817" lon="12.7396099"><ele>220.0</ele><time>2026-05-03T14:54:11.868Z</time></trkpt><trkpt lat="42.1628325" lon="12.7398097"><ele>220.0</ele><time>2026-05-03T14:54:12.855Z</time></trkpt><trkpt lat="42.1628827" lon="12.739991"><ele>220.0</ele><time>2026-05-03T14:54:13.862Z</time></trkpt><trkpt lat="42.162937" lon="12.7401655"><ele>220.0</ele><time>2026-05-03T14:54:14.867Z</time></trkpt><trkpt lat="42.1629883" lon="12.7403516"><ele>220.0</ele><time>2026-05-03T14:54:15.859Z</time></trkpt><trkpt lat="42.1630399" lon="12.7405276"><ele>220.0</ele><time>2026-05-03T14:54:16.867Z</time></trkpt><trkpt lat="42.1631019" lon="12.7407002"><ele>220.0</ele><time>2026-05-03T14:54:17.883Z</time></trkpt><trkpt lat="42.1631635" lon="12.7408614"><ele>220.0</ele><time>2026-05-03T14:54:18.859Z</time></trkpt><trkpt lat="42.1632091" lon="12.7409745"><ele>219.99999999999997</ele><time>2026-05-03T14:54:19.854Z</time></trkpt><trkpt lat="42.1630869" lon="12.7408818"><ele>220.0</ele><time>2026-05-03T14:54:25.864Z</time></trkpt><trkpt lat="42.1630193" lon="12.7408053"><ele>220.0</ele><time>2026-05-03T14:54:26.859Z</time></trkpt><trkpt lat="42.1629588" lon="12.7407535"><ele>220.0</ele><time>2026-05-03T14:54:27.864Z</time></trkpt><trkpt lat="42.1628907" lon="12.740724"><ele>219.99999999999997</ele><time>2026-05-03T14:54:28.863Z</time></trkpt><trkpt lat="42.1628256" lon="12.7406937"><ele>220.0</ele><time>2026-05-03T14:54:29.853Z</time></trkpt><trkpt lat="42.16276" lon="12.7406338"><ele>220.0</ele><time>2026-05-03T14:54:30.86Z</time></trkpt><trkpt lat="42.1627021" lon="12.7405491"><ele>220.0</ele><time>2026-05-03T14:54:31.855Z</time></trkpt><trkpt lat="42.162636" lon="12.7404225"><ele>220.0</ele><time>2026-05-03T14:54:32.863Z</time></trkpt><trkpt lat="42.1625693" lon="12.7402973"><ele>220.0</ele><time>2026-05-03T14:54:33.852Z</time></trkpt><trkpt lat="42.1625081" lon="12.7401729"><ele>220.0</ele><time>2026-05-03T14:54:34.857Z</time></trkpt><trkpt lat="42.1624516" lon="12.7400505"><ele>220.25</ele><time>2026-05-03T14:54:35.865Z</time></trkpt><trkpt lat="42.1623894" lon="12.7399258"><ele>220.5</ele><time>2026-05-03T14:54:36.86Z</time></trkpt><trkpt lat="42.1623193" lon="12.7397897"><ele>220.75</ele><time>2026-05-03T14:54:37.901Z</time></trkpt><trkpt lat="42.1622457" lon="12.7396519"><ele>221.0</ele><time>2026-05-03T14:54:38.879Z</time></trkpt><trkpt lat="42.1621759" lon="12.7395035"><ele>220.0</ele><time>2026-05-03T14:54:39.864Z</time></trkpt><trkpt lat="42.1620975" lon="12.7393457"><ele>219.0</ele><time>2026-05-03T14:54:40.857Z</time></trkpt><trkpt lat="42.1620207" lon="12.7392049"><ele>218.0</ele><time>2026-05-03T14:54:41.863Z</time></trkpt><trkpt lat="42.1619478" lon="12.7390635"><ele>217.0</ele><time>2026-05-03T14:54:42.883Z</time></trkpt><trkpt lat="42.1618698" lon="12.7389075"><ele>217.0</ele><time>2026-05-03T14:54:43.86Z</time></trkpt><trkpt lat="42.1617958" lon="12.7387484"><ele>217.0</ele><time>2026-05-03T14:54:44.853Z</time></trkpt><trkpt lat="42.1617253" lon="12.7386075"><ele>217.0</ele><time>2026-05-03T14:54:45.854Z</time></trkpt><trkpt lat="42.1616552" lon="12.738476"><ele>217.0</ele><time>2026-05-03T14:54:46.863Z</time></trkpt><trkpt lat="42.1615839" lon="12.7383509"><ele>216.25</ele><time>2026-05-03T14:54:47.858Z</time></trkpt><trkpt lat="42.1615148" lon="12.7382274"><ele>215.5</ele><time>2026-05-03T14:54:48.857Z</time></trkpt><trkpt lat="42.1614454" lon="12.7380811"><ele>214.75</ele><time>2026-05-03T14:54:49.852Z</time></trkpt><trkpt lat="42.1613736" lon="12.7379277"><ele>214.0</ele><time>2026-05-03T14:54:50.852Z</time></trkpt><trkpt lat="42.1613035" lon="12.7377839"><ele>213.75</ele><time>2026-05-03T14:54:51.941Z</time></trkpt><trkpt lat="42.1612298" lon="12.7376446"><ele>213.5</ele><time>2026-05-03T14:54:52.884Z</time></trkpt><trkpt lat="42.1611545" lon="12.7375108"><ele>213.25</ele><time>2026-05-03T14:54:53.879Z</time></trkpt><trkpt lat="42.1610804" lon="12.7373687"><ele>213.0</ele><time>2026-05-03T14:54:54.861Z</time></trkpt><trkpt lat="42.1610039" lon="12.7372003"><ele>213.0</ele><time>2026-05-03T14:54:55.856Z</time></trkpt><trkpt lat="42.160926" lon="12.7369829"><ele>213.0</ele><time>2026-05-03T14:54:56.861Z</time></trkpt><trkpt lat="42.1608543" lon="12.7367938"><ele>213.0</ele><time>2026-05-03T14:54:57.863Z</time></trkpt><trkpt lat="42.1607826" lon="12.7366238"><ele>211.0</ele><time>2026-05-03T14:54:58.858Z</time></trkpt><trkpt lat="42.1607192" lon="12.7364222"><ele>209.0</ele><time>2026-05-03T14:54:59.856Z</time></trkpt><trkpt lat="42.1606814" lon="12.7362141"><ele>207.0</ele><time>2026-05-03T14:55:00.857Z</time></trkpt><trkpt lat="42.1606201" lon="12.7360405"><ele>206.5</ele><time>2026-05-03T14:55:01.855Z</time></trkpt><trkpt lat="42.1605683" lon="12.7358798"><ele>206.0</ele><time>2026-05-03T14:55:02.85Z</time></trkpt><trkpt lat="42.160529" lon="12.7357244"><ele>205.5</ele><time>2026-05-03T14:55:03.852Z</time></trkpt><trkpt lat="42.1604643" lon="12.7355648"><ele>205.0</ele><time>2026-05-03T14:55:04.857Z</time></trkpt><trkpt lat="42.1604098" lon="12.7354183"><ele>205.0</ele><time>2026-05-03T14:55:05.862Z</time></trkpt><trkpt lat="42.1603396" lon="12.7352815"><ele>205.0</ele><time>2026-05-03T14:55:06.862Z</time></trkpt><trkpt lat="42.1602665" lon="12.7351364"><ele>205.0</ele><time>2026-05-03T14:55:07.859Z</time></trkpt><trkpt lat="42.1601847" lon="12.7349689"><ele>205.0</ele><time>2026-05-03T14:55:08.888Z</time></trkpt><trkpt lat="42.1601109" lon="12.734831"><ele>205.33333333333331</ele><time>2026-05-03T14:55:09.875Z</time></trkpt><trkpt lat="42.1600271" lon="12.734665"><ele>205.66666666666669</ele><time>2026-05-03T14:55:10.865Z</time></trkpt><trkpt lat="42.1599441" lon="12.734488"><ele>206.0</ele><time>2026-05-03T14:55:11.863Z</time></trkpt><trkpt lat="42.1598624" lon="12.7343164"><ele>207.25</ele><time>2026-05-03T14:55:12.867Z</time></trkpt><trkpt lat="42.1597999" lon="12.734146"><ele>208.5</ele><time>2026-05-03T14:55:13.864Z</time></trkpt><trkpt lat="42.1597231" lon="12.7339769"><ele>209.75</ele><time>2026-05-03T14:55:14.874Z</time></trkpt><trkpt lat="42.1596327" lon="12.7338379"><ele>211.0</ele><time>2026-05-03T14:55:15.874Z</time></trkpt><trkpt lat="42.1595637" lon="12.7336927"><ele>211.0</ele><time>2026-05-03T14:55:16.873Z</time></trkpt><trkpt lat="42.1594808" lon="12.7335662"><ele>211.0</ele><time>2026-05-03T14:55:17.864Z</time></trkpt><trkpt lat="42.1594037" lon="12.7333906"><ele>211.0</ele><time>2026-05-03T14:55:18.877Z</time></trkpt><trkpt lat="42.1593401" lon="12.7332408"><ele>211.0</ele><time>2026-05-03T14:55:19.865Z</time></trkpt><trkpt lat="42.1593142" lon="12.733096"><ele>211.25</ele><time>2026-05-03T14:55:20.874Z</time></trkpt><trkpt lat="42.1592668" lon="12.7329228"><ele>211.5</ele><time>2026-05-03T14:55:21.872Z</time></trkpt><trkpt lat="42.1592418" lon="12.7327336"><ele>211.75</ele><time>2026-05-03T14:55:22.876Z</time></trkpt><trkpt lat="42.1591767" lon="12.7325658"><ele>212.0</ele><time>2026-05-03T14:55:23.873Z</time></trkpt><trkpt lat="42.159137" lon="12.7324235"><ele>212.75</ele><time>2026-05-03T14:55:24.873Z</time></trkpt><trkpt lat="42.1590915" lon="12.7322571"><ele>213.5</ele><time>2026-05-03T14:55:25.876Z</time></trkpt><trkpt lat="42.1590518" lon="12.7321118"><ele>214.25</ele><time>2026-05-03T14:55:26.876Z</time></trkpt><trkpt lat="42.1590145" lon="12.7319643"><ele>215.0</ele><time>2026-05-03T14:55:27.869Z</time></trkpt><trkpt lat="42.1589713" lon="12.7318118"><ele>215.0</ele><time>2026-05-03T14:55:28.894Z</time></trkpt><trkpt lat="42.1589333" lon="12.7316767"><ele>215.0</ele><time>2026-05-03T14:55:29.879Z</time></trkpt><trkpt lat="42.1588929" lon="12.7315391"><ele>215.0</ele><time>2026-05-03T14:55:30.88Z</time></trkpt><trkpt lat="42.1588578" lon="12.7314071"><ele>215.0</ele><time>2026-05-03T14:55:31.878Z</time></trkpt><trkpt lat="42.1588354" lon="12.7312845"><ele>215.0</ele><time>2026-05-03T14:55:32.882Z</time></trkpt><trkpt lat="42.1588163" lon="12.7311588"><ele>214.6</ele><time>2026-05-03T14:55:33.878Z</time></trkpt><trkpt lat="42.158796" lon="12.7310226"><ele>214.2</ele><time>2026-05-03T14:55:34.877Z</time></trkpt><trkpt lat="42.158777" lon="12.7308846"><ele>213.8</ele><time>2026-05-03T14:55:35.875Z</time></trkpt><trkpt lat="42.1587616" lon="12.7307665"><ele>213.4</ele><time>2026-05-03T14:55:36.872Z</time></trkpt><trkpt lat="42.158752" lon="12.7306504"><ele>213.0</ele><time>2026-05-03T14:55:37.876Z</time></trkpt><trkpt lat="42.158748" lon="12.7305308"><ele>213.0</ele><time>2026-05-03T14:55:38.883Z</time></trkpt><trkpt lat="42.1587497" lon="12.7304162"><ele>213.0</ele><time>2026-05-03T14:55:39.88Z</time></trkpt><trkpt lat="42.1587509" lon="12.7302978"><ele>213.0</ele><time>2026-05-03T14:55:40.875Z</time></trkpt><trkpt lat="42.1587517" lon="12.7301704"><ele>213.0</ele><time>2026-05-03T14:55:41.879Z</time></trkpt><trkpt lat="42.1587609" lon="12.7300287"><ele>213.0</ele><time>2026-05-03T14:55:42.871Z</time></trkpt><trkpt lat="42.158778" lon="12.7298876"><ele>212.33333333333334</ele><time>2026-05-03T14:55:43.881Z</time></trkpt><trkpt lat="42.1587895" lon="12.7297729"><ele>211.66666666666669</ele><time>2026-05-03T14:55:44.878Z</time></trkpt><trkpt lat="42.1588055" lon="12.7296713"><ele>211.0</ele><time>2026-05-03T14:55:45.871Z</time></trkpt><trkpt lat="42.1588283" lon="12.7295582"><ele>210.33333333333334</ele><time>2026-05-03T14:55:46.894Z</time></trkpt><trkpt lat="42.1588543" lon="12.7294367"><ele>209.66666666666669</ele><time>2026-05-03T14:55:47.87Z</time></trkpt><trkpt lat="42.158886" lon="12.7293308"><ele>209.0</ele><time>2026-05-03T14:55:48.878Z</time></trkpt><trkpt lat="42.1589197" lon="12.729239"><ele>208.71428571428572</ele><time>2026-05-03T14:55:49.909Z</time></trkpt><trkpt lat="42.1589651" lon="12.7291584"><ele>208.42857142857142</ele><time>2026-05-03T14:55:50.864Z</time></trkpt><trkpt lat="42.1590117" lon="12.7290919"><ele>208.14285714285717</ele><time>2026-05-03T14:55:51.865Z</time></trkpt><trkpt lat="42.1590609" lon="12.7290097"><ele>207.85714285714286</ele><time>2026-05-03T14:55:52.864Z</time></trkpt><trkpt lat="42.1591028" lon="12.7289267"><ele>207.57142857142858</ele><time>2026-05-03T14:55:53.871Z</time></trkpt><trkpt lat="42.1591228" lon="12.7288325"><ele>207.2857142857143</ele><time>2026-05-03T14:55:54.863Z</time></trkpt><trkpt lat="42.1591406" lon="12.7287407"><ele>207.0</ele><time>2026-05-03T14:55:55.866Z</time></trkpt><trkpt lat="42.1591586" lon="12.7286513"><ele>205.0</ele><time>2026-05-03T14:55:56.863Z</time></trkpt><trkpt lat="42.1591662" lon="12.7285508"><ele>203.0</ele><time>2026-05-03T14:55:57.862Z</time></trkpt><trkpt lat="42.1591623" lon="12.7284261"><ele>201.0</ele><time>2026-05-03T14:55:58.869Z</time></trkpt><trkpt lat="42.1591533" lon="12.7282999"><ele>199.0</ele><time>2026-05-03T14:55:59.874Z</time></trkpt><trkpt lat="42.1591409" lon="12.7281774"><ele>197.0</ele><time>2026-05-03T14:56:00.867Z</time></trkpt><trkpt lat="42.1591181" lon="12.7280561"><ele>195.0</ele><time>2026-05-03T14:56:01.87Z</time></trkpt><trkpt lat="42.1590769" lon="12.7279554"><ele>196.2</ele><time>2026-05-03T14:56:02.877Z</time></trkpt><trkpt lat="42.159027" lon="12.7278526"><ele>197.4</ele><time>2026-05-03T14:56:03.874Z</time></trkpt><trkpt lat="42.1589835" lon="12.7277484"><ele>198.60000000000002</ele><time>2026-05-03T14:56:04.87Z</time></trkpt><trkpt lat="42.1589376" lon="12.7276465"><ele>199.8</ele><time>2026-05-03T14:56:05.867Z</time></trkpt><trkpt lat="42.1588765" lon="12.7275482"><ele>201.0</ele><time>2026-05-03T14:56:06.874Z</time></trkpt><trkpt lat="42.1587999" lon="12.7274449"><ele>198.0</ele><time>2026-05-03T14:56:07.877Z</time></trkpt><trkpt lat="42.1587084" lon="12.7273247"><ele>195.0</ele><time>2026-05-03T14:56:08.869Z</time></trkpt><trkpt lat="42.1586219" lon="12.7272005"><ele>192.0</ele><time>2026-05-03T14:56:09.867Z</time></trkpt><trkpt lat="42.1585283" lon="12.7270496"><ele>189.0</ele><time>2026-05-03T14:56:10.873Z</time></trkpt><trkpt lat="42.1584165" lon="12.7268598"><ele>188.39999999999998</ele><time>2026-05-03T14:56:11.863Z</time></trkpt><trkpt lat="42.1583301" lon="12.7267064"><ele>187.8</ele><time>2026-05-03T14:56:12.869Z</time></trkpt><trkpt lat="42.1582682" lon="12.7266302"><ele>187.2</ele><time>2026-05-03T14:56:13.861Z</time></trkpt><trkpt lat="42.1581881" lon="12.7265807"><ele>186.60000000000002</ele><time>2026-05-03T14:56:14.861Z</time></trkpt><trkpt lat="42.1581018" lon="12.7265502"><ele>186.0</ele><time>2026-05-03T14:56:15.867Z</time></trkpt><trkpt lat="42.1580222" lon="12.7265627"><ele>184.66666666666666</ele><time>2026-05-03T14:56:16.872Z</time></trkpt><trkpt lat="42.1579316" lon="12.7265674"><ele>183.33333333333334</ele><time>2026-05-03T14:56:17.868Z</time></trkpt><trkpt lat="42.1578546" lon="12.7265808"><ele>182.0</ele><time>2026-05-03T14:56:18.864Z</time></trkpt><trkpt lat="42.1577772" lon="12.726609"><ele>180.66666666666669</ele><time>2026-05-03T14:56:19.863Z</time></trkpt><trkpt lat="42.1577102" lon="12.7266741"><ele>179.33333333333334</ele><time>2026-05-03T14:56:20.873Z</time></trkpt><trkpt lat="42.1576413" lon="12.7267556"><ele>178.0</ele><time>2026-05-03T14:56:21.869Z</time></trkpt><trkpt lat="42.1575666" lon="12.7268494"><ele>178.60000000000002</ele><time>2026-05-03T14:56:22.862Z</time></trkpt><trkpt lat="42.1574863" lon="12.7269405"><ele>179.20000000000002</ele><time>2026-05-03T14:56:23.861Z</time></trkpt><trkpt lat="42.1573942" lon="12.727019"><ele>179.8</ele><time>2026-05-03T14:56:24.891Z</time></trkpt><trkpt lat="42.1572815" lon="12.7270763"><ele>180.4</ele><time>2026-05-03T14:56:25.871Z</time></trkpt><trkpt lat="42.1571705" lon="12.7271103"><ele>181.0</ele><time>2026-05-03T14:56:26.867Z</time></trkpt><trkpt lat="42.1570726" lon="12.7271299"><ele>181.0</ele><time>2026-05-03T14:56:27.871Z</time></trkpt><trkpt lat="42.1569788" lon="12.7271428"><ele>181.0</ele><time>2026-05-03T14:56:28.875Z</time></trkpt><trkpt lat="42.1569105" lon="12.7271507"><ele>181.0</ele><time>2026-05-03T14:56:29.861Z</time></trkpt><trkpt lat="42.1568415" lon="12.7271361"><ele>181.0</ele><time>2026-05-03T14:56:31.869Z</time></trkpt><trkpt lat="42.1567657" lon="12.7271504"><ele>181.0</ele><time>2026-05-03T14:57:12.872Z</time></trkpt><trkpt lat="42.1566685" lon="12.7271639"><ele>181.0</ele><time>2026-05-03T14:57:14.874Z</time></trkpt><trkpt lat="42.1565846" lon="12.7271508"><ele>178.8</ele><time>2026-05-03T14:57:15.868Z</time></trkpt><trkpt lat="42.1565098" lon="12.7271223"><ele>176.60000000000002</ele><time>2026-05-03T14:57:16.878Z</time></trkpt><trkpt lat="42.1563805" lon="12.7270606"><ele>174.4</ele><time>2026-05-03T14:57:18.869Z</time></trkpt><trkpt lat="42.1563024" lon="12.727044"><ele>172.2</ele><time>2026-05-03T14:57:19.874Z</time></trkpt><trkpt lat="42.1562166" lon="12.7270494"><ele>170.0</ele><time>2026-05-03T14:57:20.873Z</time></trkpt><trkpt lat="42.1561299" lon="12.7270702"><ele>170.0</ele><time>2026-05-03T14:57:21.868Z</time></trkpt><trkpt lat="42.1560454" lon="12.7270947"><ele>170.0</ele><time>2026-05-03T14:57:22.899Z</time></trkpt><trkpt lat="42.1559651" lon="12.7271136"><ele>170.0</ele><time>2026-05-03T14:57:23.876Z</time></trkpt><trkpt lat="42.1558932" lon="12.7271204"><ele>170.0</ele><time>2026-05-03T14:57:24.867Z</time></trkpt><trkpt lat="42.155821" lon="12.7271478"><ele>170.0</ele><time>2026-05-03T14:57:25.894Z</time></trkpt><trkpt lat="42.1557531" lon="12.7271854"><ele>170.0</ele><time>2026-05-03T14:57:26.872Z</time></trkpt><trkpt lat="42.1556999" lon="12.7272409"><ele>168.83333333333331</ele><time>2026-05-03T14:57:27.874Z</time></trkpt><trkpt lat="42.1555825" lon="12.7273138"><ele>167.66666666666666</ele><time>2026-05-03T14:57:29.868Z</time></trkpt><trkpt lat="42.1555101" lon="12.7273256"><ele>166.5</ele><time>2026-05-03T14:57:30.867Z</time></trkpt><trkpt lat="42.1554331" lon="12.7273304"><ele>165.33333333333334</ele><time>2026-05-03T14:57:31.878Z</time></trkpt><trkpt lat="42.1553529" lon="12.7273236"><ele>164.16666666666669</ele><time>2026-05-03T14:57:32.877Z</time></trkpt><trkpt lat="42.1552733" lon="12.7273309"><ele>163.0</ele><time>2026-05-03T14:57:33.869Z</time></trkpt><trkpt lat="42.1551982" lon="12.7273613"><ele>163.0</ele><time>2026-05-03T14:57:34.86Z</time></trkpt><trkpt lat="42.1551265" lon="12.7274018"><ele>163.0</ele><time>2026-05-03T14:57:35.864Z</time></trkpt><trkpt lat="42.1550557" lon="12.72744"><ele>163.0</ele><time>2026-05-03T14:57:36.865Z</time></trkpt><trkpt lat="42.1549853" lon="12.7274846"><ele>163.0</ele><time>2026-05-03T14:57:37.869Z</time></trkpt><trkpt lat="42.154916" lon="12.7275446"><ele>163.0</ele><time>2026-05-03T14:57:38.886Z</time></trkpt><trkpt lat="42.1548587" lon="12.7276416"><ele>163.0</ele><time>2026-05-03T14:57:39.9Z</time></trkpt><trkpt lat="42.1548013" lon="12.7277001"><ele>163.83333333333334</ele><time>2026-05-03T14:57:40.899Z</time></trkpt><trkpt lat="42.1547391" lon="12.7277537"><ele>164.66666666666669</ele><time>2026-05-03T14:57:41.898Z</time></trkpt><trkpt lat="42.1546684" lon="12.7277887"><ele>165.5</ele><time>2026-05-03T14:57:42.882Z</time></trkpt><trkpt lat="42.1545864" lon="12.7277987"><ele>166.33333333333334</ele><time>2026-05-03T14:57:43.906Z</time></trkpt><trkpt lat="42.1544979" lon="12.7278"><ele>167.16666666666666</ele><time>2026-05-03T14:57:44.873Z</time></trkpt><trkpt lat="42.1544018" lon="12.7278058"><ele>168.0</ele><time>2026-05-03T14:57:45.881Z</time></trkpt><trkpt lat="42.1542912" lon="12.727811"><ele>168.0</ele><time>2026-05-03T14:57:46.884Z</time></trkpt><trkpt lat="42.1541681" lon="12.7278062"><ele>168.0</ele><time>2026-05-03T14:57:47.877Z</time></trkpt><trkpt lat="42.1540467" lon="12.7278002"><ele>168.0</ele><time>2026-05-03T14:57:48.878Z</time></trkpt><trkpt lat="42.1539228" lon="12.7277833"><ele>168.0</ele><time>2026-05-03T14:57:49.883Z</time></trkpt><trkpt lat="42.1538012" lon="12.7277576"><ele>166.60000000000002</ele><time>2026-05-03T14:57:50.891Z</time></trkpt><trkpt lat="42.1536825" lon="12.7277295"><ele>165.20000000000002</ele><time>2026-05-03T14:57:51.872Z</time></trkpt><trkpt lat="42.1535748" lon="12.7277091"><ele>163.8</ele><time>2026-05-03T14:57:52.875Z</time></trkpt><trkpt lat="42.1534715" lon="12.727697"><ele>162.4</ele><time>2026-05-03T14:57:53.881Z</time></trkpt><trkpt lat="42.1533678" lon="12.7277001"><ele>161.0</ele><time>2026-05-03T14:57:54.876Z</time></trkpt><trkpt lat="42.1532673" lon="12.7277098"><ele>158.0</ele><time>2026-05-03T14:57:55.881Z</time></trkpt><trkpt lat="42.1531772" lon="12.7277347"><ele>155.0</ele><time>2026-05-03T14:57:56.882Z</time></trkpt><trkpt lat="42.1531045" lon="12.7277834"><ele>152.0</ele><time>2026-05-03T14:57:57.881Z</time></trkpt><trkpt lat="42.1530276" lon="12.7278411"><ele>149.0</ele><time>2026-05-03T14:57:58.882Z</time></trkpt><trkpt lat="42.1529403" lon="12.7278925"><ele>146.0</ele><time>2026-05-03T14:57:59.88Z</time></trkpt><trkpt lat="42.1528468" lon="12.72793"><ele>146.0</ele><time>2026-05-03T14:58:00.873Z</time></trkpt><trkpt lat="42.1527464" lon="12.7279515"><ele>146.0</ele><time>2026-05-03T14:58:01.866Z</time></trkpt><trkpt lat="42.1526324" lon="12.7279581"><ele>146.0</ele><time>2026-05-03T14:58:02.877Z</time></trkpt><trkpt lat="42.1525104" lon="12.7279547"><ele>146.0</ele><time>2026-05-03T14:58:03.896Z</time></trkpt><trkpt lat="42.1523747" lon="12.7279531"><ele>142.66666666666666</ele><time>2026-05-03T14:58:04.893Z</time></trkpt><trkpt lat="42.152162" lon="12.7279823"><ele>139.33333333333334</ele><time>2026-05-03T14:58:05.885Z</time></trkpt><trkpt lat="42.151974" lon="12.727974"><ele>136.0</ele><time>2026-05-03T14:58:06.878Z</time></trkpt><trkpt lat="42.1518032" lon="12.7279812"><ele>136.0</ele><time>2026-05-03T14:58:07.875Z</time></trkpt><trkpt lat="42.1516616" lon="12.7280045"><ele>136.0</ele><time>2026-05-03T14:58:08.891Z</time></trkpt><trkpt lat="42.1514826" lon="12.728081"><ele>136.0</ele><time>2026-05-03T14:58:09.88Z</time></trkpt><trkpt lat="42.1513299" lon="12.7280976"><ele>132.0</ele><time>2026-05-03T14:58:10.881Z</time></trkpt><trkpt lat="42.1511785" lon="12.7281014"><ele>128.0</ele><time>2026-05-03T14:58:11.891Z</time></trkpt><trkpt lat="42.1510236" lon="12.7281166"><ele>124.0</ele><time>2026-05-03T14:58:12.903Z</time></trkpt><trkpt lat="42.1508673" lon="12.7281293"><ele>124.0</ele><time>2026-05-03T14:58:13.88Z</time></trkpt><trkpt lat="42.150721" lon="12.7281471"><ele>124.0</ele><time>2026-05-03T14:58:14.886Z</time></trkpt><trkpt lat="42.1505641" lon="12.728178"><ele>124.0</ele><time>2026-05-03T14:58:15.879Z</time></trkpt><trkpt lat="42.1504148" lon="12.728232"><ele>120.75</ele><time>2026-05-03T14:58:16.878Z</time></trkpt><trkpt lat="42.1502948" lon="12.7282794"><ele>117.5</ele><time>2026-05-03T14:58:17.877Z</time></trkpt><trkpt lat="42.150184" lon="12.7283143"><ele>114.25</ele><time>2026-05-03T14:58:18.878Z</time></trkpt><trkpt lat="42.1500691" lon="12.7283523"><ele>111.0</ele><time>2026-05-03T14:58:19.882Z</time></trkpt><trkpt lat="42.149955" lon="12.7283663"><ele>109.0</ele><time>2026-05-03T14:58:20.876Z</time></trkpt><trkpt lat="42.1498297" lon="12.7283927"><ele>107.0</ele><time>2026-05-03T14:58:21.87Z</time></trkpt><trkpt lat="42.1497201" lon="12.7283963"><ele>105.0</ele><time>2026-05-03T14:58:22.87Z</time></trkpt><trkpt lat="42.1496179" lon="12.7283564"><ele>103.0</ele><time>2026-05-03T14:58:23.876Z</time></trkpt><trkpt lat="42.1495155" lon="12.7283259"><ele>101.0</ele><time>2026-05-03T14:58:24.866Z</time></trkpt><trkpt lat="42.149412" lon="12.7282943"><ele>101.0</ele><time>2026-05-03T14:58:25.87Z</time></trkpt><trkpt lat="42.1493121" lon="12.7282602"><ele>101.0</ele><time>2026-05-03T14:58:26.865Z</time></trkpt><trkpt lat="42.1492172" lon="12.7282282"><ele>101.0</ele><time>2026-05-03T14:58:27.87Z</time></trkpt><trkpt lat="42.1491226" lon="12.7281942"><ele>101.0</ele><time>2026-05-03T14:58:28.882Z</time></trkpt><trkpt lat="42.1490321" lon="12.7281564"><ele>101.0</ele><time>2026-05-03T14:58:29.878Z</time></trkpt><trkpt lat="42.1489475" lon="12.7281146"><ele>100.16666666666666</ele><time>2026-05-03T14:58:30.902Z</time></trkpt><trkpt lat="42.1488728" lon="12.7280725"><ele>99.33333333333333</ele><time>2026-05-03T14:58:31.879Z</time></trkpt><trkpt lat="42.1488054" lon="12.7280333"><ele>98.5</ele><time>2026-05-03T14:58:32.872Z</time></trkpt><trkpt lat="42.1487163" lon="12.7279885"><ele>97.66666666666666</ele><time>2026-05-03T14:58:34.893Z</time></trkpt><trkpt lat="42.1486539" lon="12.7280849"><ele>96.83333333333333</ele><time>2026-05-03T14:58:37.897Z</time></trkpt><trkpt lat="42.1486349" lon="12.7281674"><ele>96.0</ele><time>2026-05-03T14:58:38.888Z</time></trkpt><trkpt lat="42.14861" lon="12.72828"><ele>96.0</ele><time>2026-05-03T14:58:39.885Z</time></trkpt><trkpt lat="42.1485585" lon="12.7283982"><ele>96.0</ele><time>2026-05-03T14:58:40.872Z</time></trkpt><trkpt lat="42.1484984" lon="12.7285406"><ele>96.0</ele><time>2026-05-03T14:58:41.872Z</time></trkpt><trkpt lat="42.148429" lon="12.7286939"><ele>96.0</ele><time>2026-05-03T14:58:42.865Z</time></trkpt><trkpt lat="42.1483424" lon="12.7288293"><ele>96.66666666666666</ele><time>2026-05-03T14:58:43.874Z</time></trkpt><trkpt lat="42.1482442" lon="12.7289414"><ele>97.33333333333333</ele><time>2026-05-03T14:58:44.876Z</time></trkpt><trkpt lat="42.1481242" lon="12.7290586"><ele>98.0</ele><time>2026-05-03T14:58:45.871Z</time></trkpt><trkpt lat="42.1479806" lon="12.7292084"><ele>99.0</ele><time>2026-05-03T14:58:46.878Z</time></trkpt><trkpt lat="42.1478292" lon="12.7294043"><ele>100.0</ele><time>2026-05-03T14:58:47.868Z</time></trkpt><trkpt lat="42.147671" lon="12.7295594"><ele>101.0</ele><time>2026-05-03T14:58:48.868Z</time></trkpt><trkpt lat="42.147551" lon="12.7296449"><ele>101.0</ele><time>2026-05-03T14:58:49.872Z</time></trkpt><trkpt lat="42.1474215" lon="12.7296858"><ele>101.0</ele><time>2026-05-03T14:58:50.867Z</time></trkpt><trkpt lat="42.1472401" lon="12.7297182"><ele>101.0</ele><time>2026-05-03T14:58:51.866Z</time></trkpt><trkpt lat="42.1470744" lon="12.729756"><ele>104.25</ele><time>2026-05-03T14:58:52.863Z</time></trkpt><trkpt lat="42.1469308" lon="12.7298344"><ele>107.5</ele><time>2026-05-03T14:58:53.855Z</time></trkpt><trkpt lat="42.1468398" lon="12.7299465"><ele>110.75</ele><time>2026-05-03T14:58:54.861Z</time></trkpt><trkpt lat="42.1467557" lon="12.7300203"><ele>114.0</ele><time>2026-05-03T14:58:55.867Z</time></trkpt><trkpt lat="42.1466448" lon="12.7300709"><ele>114.0</ele><time>2026-05-03T14:58:56.859Z</time></trkpt><trkpt lat="42.146578" lon="12.7301635"><ele>114.0</ele><time>2026-05-03T14:58:57.859Z</time></trkpt><trkpt lat="42.1465021" lon="12.7302822"><ele>114.0</ele><time>2026-05-03T14:58:58.858Z</time></trkpt><trkpt lat="42.1464281" lon="12.7303711"><ele>114.0</ele><time>2026-05-03T14:58:59.868Z</time></trkpt><trkpt lat="42.1463412" lon="12.7304534"><ele>114.0</ele><time>2026-05-03T14:59:00.859Z</time></trkpt><trkpt lat="42.1462167" lon="12.7305149"><ele>118.66666666666666</ele><time>2026-05-03T14:59:01.861Z</time></trkpt><trkpt lat="42.1460593" lon="12.7305904"><ele>123.33333333333333</ele><time>2026-05-03T14:59:02.864Z</time></trkpt><trkpt lat="42.1458906" lon="12.7307032"><ele>128.0</ele><time>2026-05-03T14:59:03.858Z</time></trkpt><trkpt lat="42.1457553" lon="12.7308346"><ele>132.33333333333331</ele><time>2026-05-03T14:59:04.855Z</time></trkpt><trkpt lat="42.1456241" lon="12.7310069"><ele>136.66666666666666</ele><time>2026-05-03T14:59:05.874Z</time></trkpt><trkpt lat="42.1454978" lon="12.7311974"><ele>141.0</ele><time>2026-05-03T14:59:06.845Z</time></trkpt><trkpt lat="42.1453999" lon="12.731397"><ele>141.0</ele><time>2026-05-03T14:59:07.877Z</time></trkpt><trkpt lat="42.1453102" lon="12.7315256"><ele>141.0</ele><time>2026-05-03T14:59:08.867Z</time></trkpt><trkpt lat="42.1452135" lon="12.7316444"><ele>141.0</ele><time>2026-05-03T14:59:09.857Z</time></trkpt><trkpt lat="42.1451172" lon="12.7317517"><ele>141.0</ele><time>2026-05-03T14:59:10.857Z</time></trkpt><trkpt lat="42.145036" lon="12.7318101"><ele>141.0</ele><time>2026-05-03T14:59:11.863Z</time></trkpt><trkpt lat="42.144939" lon="12.7318329"><ele>141.0</ele><time>2026-05-03T14:59:12.856Z</time></trkpt><trkpt lat="42.1448415" lon="12.7317907"><ele>141.0</ele><time>2026-05-03T14:59:13.858Z</time></trkpt><trkpt lat="42.1447178" lon="12.7317546"><ele>141.0</ele><time>2026-05-03T14:59:14.862Z</time></trkpt><trkpt lat="42.1446226" lon="12.7317006"><ele>141.0</ele><time>2026-05-03T14:59:15.874Z</time></trkpt><trkpt lat="42.1445744" lon="12.7316197"><ele>142.0</ele><time>2026-05-03T14:59:17.861Z</time></trkpt><trkpt lat="42.1445419" lon="12.7315326"><ele>143.0</ele><time>2026-05-03T14:59:18.868Z</time></trkpt><trkpt lat="42.1444838" lon="12.7314329"><ele>144.0</ele><time>2026-05-03T14:59:19.862Z</time></trkpt><trkpt lat="42.1444363" lon="12.7313459"><ele>145.0</ele><time>2026-05-03T14:59:20.864Z</time></trkpt><trkpt lat="42.1444041" lon="12.7312442"><ele>146.0</ele><time>2026-05-03T14:59:21.865Z</time></trkpt><trkpt lat="42.144371" lon="12.7311306"><ele>147.0</ele><time>2026-05-03T14:59:22.866Z</time></trkpt><trkpt lat="42.1443058" lon="12.7309887"><ele>147.0</ele><time>2026-05-03T14:59:23.867Z</time></trkpt><trkpt lat="42.1442329" lon="12.7308823"><ele>147.0</ele><time>2026-05-03T14:59:24.867Z</time></trkpt><trkpt lat="42.14415" lon="12.7308157"><ele>147.0</ele><time>2026-05-03T14:59:25.868Z</time></trkpt><trkpt lat="42.1440589" lon="12.7308368"><ele>147.0</ele><time>2026-05-03T14:59:26.895Z</time></trkpt><trkpt lat="42.1439746" lon="12.7309229"><ele>147.0</ele><time>2026-05-03T14:59:27.886Z</time></trkpt><trkpt lat="42.1438946" lon="12.7310642"><ele>148.33333333333334</ele><time>2026-05-03T14:59:28.864Z</time></trkpt><trkpt lat="42.1438056" lon="12.7312502"><ele>149.66666666666669</ele><time>2026-05-03T14:59:29.868Z</time></trkpt><trkpt lat="42.1436848" lon="12.7314846"><ele>151.0</ele><time>2026-05-03T14:59:30.866Z</time></trkpt><trkpt lat="42.1435308" lon="12.7316708"><ele>151.0</ele><time>2026-05-03T14:59:31.864Z</time></trkpt><trkpt lat="42.1433831" lon="12.7318032"><ele>151.0</ele><time>2026-05-03T14:59:32.86Z</time></trkpt><trkpt lat="42.143261" lon="12.7319208"><ele>151.0</ele><time>2026-05-03T14:59:33.869Z</time></trkpt><trkpt lat="42.1431419" lon="12.7320176"><ele>156.33333333333334</ele><time>2026-05-03T14:59:34.872Z</time></trkpt><trkpt lat="42.1429985" lon="12.7321164"><ele>161.66666666666666</ele><time>2026-05-03T14:59:35.871Z</time></trkpt><trkpt lat="42.142846" lon="12.7322038"><ele>167.0</ele><time>2026-05-03T14:59:36.869Z</time></trkpt><trkpt lat="42.1426822" lon="12.7322826"><ele>167.0</ele><time>2026-05-03T14:59:37.874Z</time></trkpt><trkpt lat="42.1425118" lon="12.7323917"><ele>167.0</ele><time>2026-05-03T14:59:38.875Z</time></trkpt><trkpt lat="42.1423433" lon="12.7325099"><ele>167.0</ele><time>2026-05-03T14:59:39.873Z</time></trkpt><trkpt lat="42.1421855" lon="12.7326316"><ele>171.0</ele><time>2026-05-03T14:59:40.874Z</time></trkpt><trkpt lat="42.1420712" lon="12.7327229"><ele>175.0</ele><time>2026-05-03T14:59:41.87Z</time></trkpt><trkpt lat="42.1419593" lon="12.7328048"><ele>179.0</ele><time>2026-05-03T14:59:42.871Z</time></trkpt><trkpt lat="42.1418542" lon="12.7329214"><ele>183.0</ele><time>2026-05-03T14:59:43.867Z</time></trkpt><trkpt lat="42.1417415" lon="12.7330614"><ele>183.0</ele><time>2026-05-03T14:59:44.871Z</time></trkpt><trkpt lat="42.1416306" lon="12.7331842"><ele>183.0</ele><time>2026-05-03T14:59:45.868Z</time></trkpt><trkpt lat="42.1414983" lon="12.7332608"><ele>183.0</ele><time>2026-05-03T14:59:46.875Z</time></trkpt><trkpt lat="42.141368" lon="12.7332692"><ele>183.0</ele><time>2026-05-03T14:59:47.87Z</time></trkpt><trkpt lat="42.1412452" lon="12.7332759"><ele>184.4</ele><time>2026-05-03T14:59:48.869Z</time></trkpt><trkpt lat="42.1411494" lon="12.7332584"><ele>185.8</ele><time>2026-05-03T14:59:49.87Z</time></trkpt><trkpt lat="42.1410499" lon="12.7332384"><ele>187.2</ele><time>2026-05-03T14:59:51.864Z</time></trkpt><trkpt lat="42.1410149" lon="12.7333379"><ele>188.6</ele><time>2026-05-03T14:59:54.862Z</time></trkpt><trkpt lat="42.1410974" lon="12.7334675"><ele>190.0</ele><time>2026-05-03T14:59:56.85Z</time></trkpt><trkpt lat="42.1411601" lon="12.7335302"><ele>190.0</ele><time>2026-05-03T14:59:57.859Z</time></trkpt><trkpt lat="42.1412708" lon="12.7335685"><ele>190.0</ele><time>2026-05-03T14:59:59.856Z</time></trkpt><trkpt lat="42.1413398" lon="12.733559"><ele>190.0</ele><time>2026-05-03T15:00:00.857Z</time></trkpt><trkpt lat="42.1414565" lon="12.7335007"><ele>190.0</ele><time>2026-05-03T15:00:02.855Z</time></trkpt><trkpt lat="42.1415265" lon="12.7334562"><ele>190.0</ele><time>2026-05-03T15:00:03.86Z</time></trkpt><trkpt lat="42.1415789" lon="12.7334058"><ele>188.6</ele><time>2026-05-03T15:00:04.867Z</time></trkpt><trkpt lat="42.1416823" lon="12.7333115"><ele>187.2</ele><time>2026-05-03T15:00:06.855Z</time></trkpt><trkpt lat="42.1417424" lon="12.7332564"><ele>185.8</ele><time>2026-05-03T15:00:07.865Z</time></trkpt><trkpt lat="42.1418108" lon="12.7331986"><ele>184.4</ele><time>2026-05-03T15:00:08.866Z</time></trkpt><trkpt lat="42.1419026" lon="12.7331395"><ele>183.0</ele><time>2026-05-03T15:00:09.866Z</time></trkpt><trkpt lat="42.1419951" lon="12.7330669"><ele>183.0</ele><time>2026-05-03T15:00:10.868Z</time></trkpt><trkpt lat="42.1420852" lon="12.7330036"><ele>183.0</ele><time>2026-05-03T15:00:11.855Z</time></trkpt><trkpt lat="42.1421742" lon="12.7329477"><ele>183.0</ele><time>2026-05-03T15:00:12.859Z</time></trkpt><trkpt lat="42.1422556" lon="12.7329175"><ele>183.0</ele><time>2026-05-03T15:00:13.86Z</time></trkpt><trkpt lat="42.1423197" lon="12.7329084"><ele>183.0</ele><time>2026-05-03T15:00:14.863Z</time></trkpt><trkpt lat="42.1424002" lon="12.7328893"><ele>183.0</ele><time>2026-05-03T15:00:19.857Z</time></trkpt><trkpt lat="42.1424715" lon="12.7328271"><ele>185.66666666666666</ele><time>2026-05-03T15:00:21.863Z</time></trkpt><trkpt lat="42.1425686" lon="12.7327523"><ele>188.33333333333331</ele><time>2026-05-03T15:00:23.859Z</time></trkpt><trkpt lat="42.142676" lon="12.7326837"><ele>191.0</ele><time>2026-05-03T15:00:25.865Z</time></trkpt><trkpt lat="42.1427413" lon="12.7326596"><ele>193.66666666666666</ele><time>2026-05-03T15:00:26.867Z</time></trkpt><trkpt lat="42.1428086" lon="12.7326268"><ele>196.33333333333331</ele><time>2026-05-03T15:00:27.861Z</time></trkpt><trkpt lat="42.1428781" lon="12.732579"><ele>199.0</ele><time>2026-05-03T15:00:28.867Z</time></trkpt><trkpt lat="42.1429487" lon="12.732531"><ele>194.99999999999997</ele><time>2026-05-03T15:00:29.86Z</time></trkpt><trkpt lat="42.1430214" lon="12.7324867"><ele>191.0</ele><time>2026-05-03T15:00:30.861Z</time></trkpt><trkpt lat="42.1430975" lon="12.732432"><ele>187.0</ele><time>2026-05-03T15:00:31.856Z</time></trkpt><trkpt lat="42.143177" lon="12.7323701"><ele>183.0</ele><time>2026-05-03T15:00:32.854Z</time></trkpt><trkpt lat="42.1432602" lon="12.732308"><ele>179.0</ele><time>2026-05-03T15:00:33.861Z</time></trkpt><trkpt lat="42.1433407" lon="12.7322414"><ele>175.0</ele><time>2026-05-03T15:00:34.877Z</time></trkpt><trkpt lat="42.1434168" lon="12.7321878"><ele>175.0</ele><time>2026-05-03T15:00:35.858Z</time></trkpt><trkpt lat="42.1434862" lon="12.7321281"><ele>175.0</ele><time>2026-05-03T15:00:36.854Z</time></trkpt><trkpt lat="42.1435581" lon="12.7320841"><ele>175.0</ele><time>2026-05-03T15:00:37.882Z</time></trkpt><trkpt lat="42.1436302" lon="12.7320424"><ele>175.0</ele><time>2026-05-03T15:00:38.86Z</time></trkpt><trkpt lat="42.1436991" lon="12.7319902"><ele>175.0</ele><time>2026-05-03T15:00:39.867Z</time></trkpt><trkpt lat="42.1437694" lon="12.7319253"><ele>175.0</ele><time>2026-05-03T15:00:40.86Z</time></trkpt><trkpt lat="42.1438402" lon="12.7318625"><ele>171.16666666666669</ele><time>2026-05-03T15:00:41.859Z</time></trkpt><trkpt lat="42.1439155" lon="12.7318043"><ele>167.33333333333334</ele><time>2026-05-03T15:00:42.86Z</time></trkpt><trkpt lat="42.1439815" lon="12.7317355"><ele>163.5</ele><time>2026-05-03T15:00:43.884Z</time></trkpt><trkpt lat="42.14404" lon="12.7316529"><ele>159.66666666666666</ele><time>2026-05-03T15:00:44.861Z</time></trkpt><trkpt lat="42.1440883" lon="12.7315733"><ele>155.83333333333331</ele><time>2026-05-03T15:00:45.866Z</time></trkpt><trkpt lat="42.14414" lon="12.7315033"><ele>152.0</ele><time>2026-05-03T15:00:46.865Z</time></trkpt><trkpt lat="42.1442272" lon="12.7314239"><ele>152.0</ele><time>2026-05-03T15:00:48.852Z</time></trkpt><trkpt lat="42.1443149" lon="12.7313938"><ele>152.0</ele><time>2026-05-03T15:00:51.859Z</time></trkpt><trkpt lat="42.1443894" lon="12.7313768"><ele>152.0</ele><time>2026-05-03T15:00:53.856Z</time></trkpt><trkpt lat="42.144461" lon="12.7313437"><ele>152.0</ele><time>2026-05-03T15:00:58.866Z</time></trkpt><trkpt lat="42.1445115" lon="12.7312664"><ele>152.0</ele><time>2026-05-03T15:01:01.859Z</time></trkpt><trkpt lat="42.1445127" lon="12.7311784"><ele>152.0</ele><time>2026-05-03T15:01:02.861Z</time></trkpt><trkpt lat="42.144491" lon="12.7310809"><ele>151.16666666666666</ele><time>2026-05-03T15:01:03.865Z</time></trkpt><trkpt lat="42.1444608" lon="12.7309821"><ele>150.33333333333331</ele><time>2026-05-03T15:01:04.867Z</time></trkpt><trkpt lat="42.1444131" lon="12.7308845"><ele>149.5</ele><time>2026-05-03T15:01:05.856Z</time></trkpt><trkpt lat="42.14435" lon="12.7307986"><ele>148.66666666666666</ele><time>2026-05-03T15:01:06.865Z</time></trkpt><trkpt lat="42.1442775" lon="12.7307291"><ele>147.83333333333334</ele><time>2026-05-03T15:01:07.862Z</time></trkpt><trkpt lat="42.1441989" lon="12.7306722"><ele>147.0</ele><time>2026-05-03T15:01:08.867Z</time></trkpt><trkpt lat="42.1441177" lon="12.7306381"><ele>147.6</ele><time>2026-05-03T15:01:09.867Z</time></trkpt><trkpt lat="42.1440324" lon="12.730608"><ele>148.2</ele><time>2026-05-03T15:01:10.868Z</time></trkpt><trkpt lat="42.1439403" lon="12.7305516"><ele>148.8</ele><time>2026-05-03T15:01:11.861Z</time></trkpt><trkpt lat="42.1438432" lon="12.7304708"><ele>149.4</ele><time>2026-05-03T15:01:12.889Z</time></trkpt><trkpt lat="42.1437761" lon="12.7303548"><ele>150.0</ele><time>2026-05-03T15:01:13.894Z</time></trkpt><trkpt lat="42.1437283" lon="12.7301974"><ele>153.33333333333334</ele><time>2026-05-03T15:01:14.858Z</time></trkpt><trkpt lat="42.1436885" lon="12.7300084"><ele>156.66666666666669</ele><time>2026-05-03T15:01:15.863Z</time></trkpt><trkpt lat="42.1436685" lon="12.7297706"><ele>160.0</ele><time>2026-05-03T15:01:16.854Z</time></trkpt><trkpt lat="42.1436708" lon="12.7294801"><ele>159.66666666666669</ele><time>2026-05-03T15:01:17.874Z</time></trkpt><trkpt lat="42.1436719" lon="12.7292255"><ele>159.33333333333334</ele><time>2026-05-03T15:01:18.854Z</time></trkpt><trkpt lat="42.1436539" lon="12.7289979"><ele>159.0</ele><time>2026-05-03T15:01:19.859Z</time></trkpt><trkpt lat="42.1436293" lon="12.7288196"><ele>159.0</ele><time>2026-05-03T15:01:20.854Z</time></trkpt><trkpt lat="42.1435932" lon="12.728698"><ele>159.0</ele><time>2026-05-03T15:01:21.858Z</time></trkpt><trkpt lat="42.1435283" lon="12.7285972"><ele>159.0</ele><time>2026-05-03T15:01:22.858Z</time></trkpt><trkpt lat="42.1434037" lon="12.7284919"><ele>159.0</ele><time>2026-05-03T15:01:23.864Z</time></trkpt><trkpt lat="42.1432443" lon="12.7284259"><ele>156.66666666666666</ele><time>2026-05-03T15:01:24.867Z</time></trkpt><trkpt lat="42.1430795" lon="12.7283571"><ele>154.33333333333331</ele><time>2026-05-03T15:01:25.865Z</time></trkpt><trkpt lat="42.1429128" lon="12.7282901"><ele>152.0</ele><time>2026-05-03T15:01:26.866Z</time></trkpt><trkpt lat="42.1427364" lon="12.728216"><ele>152.0</ele><time>2026-05-03T15:01:27.863Z</time></trkpt><trkpt lat="42.1425437" lon="12.7281388"><ele>152.0</ele><time>2026-05-03T15:01:28.891Z</time></trkpt><trkpt lat="42.1423828" lon="12.7280396"><ele>152.0</ele><time>2026-05-03T15:01:29.889Z</time></trkpt><trkpt lat="42.1422382" lon="12.7279123"><ele>154.0</ele><time>2026-05-03T15:01:30.893Z</time></trkpt><trkpt lat="42.1421255" lon="12.7277843"><ele>156.0</ele><time>2026-05-03T15:01:31.863Z</time></trkpt><trkpt lat="42.1420249" lon="12.7276658"><ele>158.0</ele><time>2026-05-03T15:01:32.868Z</time></trkpt><trkpt lat="42.1419256" lon="12.7275888"><ele>160.0</ele><time>2026-05-03T15:01:33.864Z</time></trkpt><trkpt lat="42.141785" lon="12.727502"><ele>154.75</ele><time>2026-05-03T15:01:34.862Z</time></trkpt><trkpt lat="42.1416504" lon="12.7274389"><ele>149.5</ele><time>2026-05-03T15:01:35.86Z</time></trkpt><trkpt lat="42.1415213" lon="12.7273613"><ele>144.25</ele><time>2026-05-03T15:01:36.866Z</time></trkpt><trkpt lat="42.1414189" lon="12.7273275"><ele>139.0</ele><time>2026-05-03T15:01:37.859Z</time></trkpt><trkpt lat="42.1413038" lon="12.7272881"><ele>138.66666666666669</ele><time>2026-05-03T15:01:38.86Z</time></trkpt><trkpt lat="42.1411561" lon="12.7272771"><ele>138.33333333333334</ele><time>2026-05-03T15:01:39.861Z</time></trkpt><trkpt lat="42.140991" lon="12.7272427"><ele>138.0</ele><time>2026-05-03T15:01:40.856Z</time></trkpt><trkpt lat="42.1408185" lon="12.7272095"><ele>137.75</ele><time>2026-05-03T15:01:41.858Z</time></trkpt><trkpt lat="42.1406889" lon="12.7272003"><ele>137.5</ele><time>2026-05-03T15:01:42.872Z</time></trkpt><trkpt lat="42.140567" lon="12.7271909"><ele>137.25</ele><time>2026-05-03T15:01:43.862Z</time></trkpt><trkpt lat="42.1404658" lon="12.7271577"><ele>137.0</ele><time>2026-05-03T15:01:44.871Z</time></trkpt><trkpt lat="42.1403695" lon="12.7271132"><ele>137.0</ele><time>2026-05-03T15:01:45.869Z</time></trkpt><trkpt lat="42.1402772" lon="12.7270711"><ele>137.0</ele><time>2026-05-03T15:01:46.887Z</time></trkpt><trkpt lat="42.140186" lon="12.7269919"><ele>137.0</ele><time>2026-05-03T15:01:47.868Z</time></trkpt><trkpt lat="42.1400945" lon="12.7268556"><ele>137.0</ele><time>2026-05-03T15:01:48.897Z</time></trkpt><trkpt lat="42.1399835" lon="12.7267114"><ele>137.33333333333331</ele><time>2026-05-03T15:01:49.867Z</time></trkpt><trkpt lat="42.1398765" lon="12.7265803"><ele>137.66666666666666</ele><time>2026-05-03T15:01:50.865Z</time></trkpt><trkpt lat="42.1397267" lon="12.7264427"><ele>138.0</ele><time>2026-05-03T15:01:51.893Z</time></trkpt><trkpt lat="42.1395441" lon="12.7262993"><ele>138.0</ele><time>2026-05-03T15:01:52.865Z</time></trkpt><trkpt lat="42.1393713" lon="12.7261944"><ele>138.0</ele><time>2026-05-03T15:01:53.864Z</time></trkpt><trkpt lat="42.1392196" lon="12.7260516"><ele>138.0</ele><time>2026-05-03T15:01:54.889Z</time></trkpt><trkpt lat="42.1390704" lon="12.7259285"><ele>141.0</ele><time>2026-05-03T15:01:55.867Z</time></trkpt><trkpt lat="42.1389233" lon="12.7258348"><ele>144.0</ele><time>2026-05-03T15:01:56.862Z</time></trkpt><trkpt lat="42.1387606" lon="12.7257553"><ele>147.0</ele><time>2026-05-03T15:01:57.866Z</time></trkpt><trkpt lat="42.1385774" lon="12.7256752"><ele>147.0</ele><time>2026-05-03T15:01:58.856Z</time></trkpt><trkpt lat="42.1384002" lon="12.7256378"><ele>147.0</ele><time>2026-05-03T15:01:59.861Z</time></trkpt><trkpt lat="42.1382051" lon="12.7255804"><ele>147.0</ele><time>2026-05-03T15:02:00.857Z</time></trkpt><trkpt lat="42.1380379" lon="12.725566"><ele>150.33333333333334</ele><time>2026-05-03T15:02:01.877Z</time></trkpt><trkpt lat="42.1378545" lon="12.7255852"><ele>153.66666666666669</ele><time>2026-05-03T15:02:02.886Z</time></trkpt><trkpt lat="42.1376553" lon="12.7256193"><ele>157.0</ele><time>2026-05-03T15:02:03.855Z</time></trkpt><trkpt lat="42.1374497" lon="12.7256855"><ele>158.33333333333334</ele><time>2026-05-03T15:02:04.846Z</time></trkpt><trkpt lat="42.1372584" lon="12.7257198"><ele>159.66666666666666</ele><time>2026-05-03T15:02:05.853Z</time></trkpt><trkpt lat="42.1370707" lon="12.7257603"><ele>161.0</ele><time>2026-05-03T15:02:06.877Z</time></trkpt><trkpt lat="42.13692" lon="12.7258069"><ele>161.0</ele><time>2026-05-03T15:02:07.847Z</time></trkpt><trkpt lat="42.1367615" lon="12.7258323"><ele>161.0</ele><time>2026-05-03T15:02:08.856Z</time></trkpt><trkpt lat="42.1365948" lon="12.725888"><ele>161.0</ele><time>2026-05-03T15:02:09.844Z</time></trkpt><trkpt lat="42.1364323" lon="12.7259416"><ele>162.33333333333331</ele><time>2026-05-03T15:02:10.847Z</time></trkpt><trkpt lat="42.1362688" lon="12.726049"><ele>163.66666666666666</ele><time>2026-05-03T15:02:11.846Z</time></trkpt><trkpt lat="42.1361061" lon="12.7261715"><ele>165.0</ele><time>2026-05-03T15:02:12.856Z</time></trkpt><trkpt lat="42.1359483" lon="12.7263048"><ele>166.5</ele><time>2026-05-03T15:02:13.876Z</time></trkpt><trkpt lat="42.1358113" lon="12.7264119"><ele>168.0</ele><time>2026-05-03T15:02:14.85Z</time></trkpt><trkpt lat="42.1356972" lon="12.7264732"><ele>169.5</ele><time>2026-05-03T15:02:15.856Z</time></trkpt><trkpt lat="42.1356021" lon="12.7265213"><ele>171.0</ele><time>2026-05-03T15:02:16.852Z</time></trkpt><trkpt lat="42.1355287" lon="12.7265879"><ele>172.20000000000002</ele><time>2026-05-03T15:02:17.854Z</time></trkpt><trkpt lat="42.1354598" lon="12.7266418"><ele>173.4</ele><time>2026-05-03T15:02:18.865Z</time></trkpt><trkpt lat="42.1353759" lon="12.7267138"><ele>174.6</ele><time>2026-05-03T15:02:19.866Z</time></trkpt><trkpt lat="42.1352873" lon="12.7267777"><ele>175.8</ele><time>2026-05-03T15:02:20.877Z</time></trkpt><trkpt lat="42.1351839" lon="12.7268216"><ele>177.0</ele><time>2026-05-03T15:02:21.858Z</time></trkpt><trkpt lat="42.1350676" lon="12.726871"><ele>179.25</ele><time>2026-05-03T15:02:22.854Z</time></trkpt><trkpt lat="42.1349444" lon="12.7269268"><ele>181.5</ele><time>2026-05-03T15:02:23.864Z</time></trkpt><trkpt lat="42.1348133" lon="12.7269669"><ele>183.75</ele><time>2026-05-03T15:02:24.857Z</time></trkpt><trkpt lat="42.1346765" lon="12.7269978"><ele>186.0</ele><time>2026-05-03T15:02:25.863Z</time></trkpt><trkpt lat="42.1345345" lon="12.7270223"><ele>186.33333333333334</ele><time>2026-05-03T15:02:26.871Z</time></trkpt><trkpt lat="42.1343681" lon="12.7270275"><ele>186.66666666666669</ele><time>2026-05-03T15:02:27.851Z</time></trkpt><trkpt lat="42.1341794" lon="12.7269906"><ele>187.0</ele><time>2026-05-03T15:02:28.863Z</time></trkpt><trkpt lat="42.1339628" lon="12.7269275"><ele>187.0</ele><time>2026-05-03T15:02:29.852Z</time></trkpt><trkpt lat="42.1338146" lon="12.72691"><ele>187.0</ele><time>2026-05-03T15:02:30.847Z</time></trkpt><trkpt lat="42.1336979" lon="12.7269113"><ele>187.0</ele><time>2026-05-03T15:02:31.848Z</time></trkpt><trkpt lat="42.1336274" lon="12.7269047"><ele>187.0</ele><time>2026-05-03T15:02:32.839Z</time></trkpt><trkpt lat="42.1335612" lon="12.7269381"><ele>187.0</ele><time>2026-05-03T15:02:35.848Z</time></trkpt><trkpt lat="42.1335091" lon="12.7268788"><ele>186.39999999999998</ele><time>2026-05-03T15:02:36.855Z</time></trkpt><trkpt lat="42.1334174" lon="12.7268107"><ele>185.79999999999998</ele><time>2026-05-03T15:02:37.854Z</time></trkpt><trkpt lat="42.1333357" lon="12.7267777"><ele>185.2</ele><time>2026-05-03T15:02:38.846Z</time></trkpt><trkpt lat="42.1332169" lon="12.7267573"><ele>184.6</ele><time>2026-05-03T15:02:40.867Z</time></trkpt><trkpt lat="42.1331049" lon="12.7267127"><ele>184.0</ele><time>2026-05-03T15:02:42.855Z</time></trkpt><trkpt lat="42.1330284" lon="12.7266088"><ele>182.6</ele><time>2026-05-03T15:02:44.851Z</time></trkpt><trkpt lat="42.1329944" lon="12.7264955"><ele>181.2</ele><time>2026-05-03T15:02:45.848Z</time></trkpt><trkpt lat="42.1330013" lon="12.7263613"><ele>179.79999999999998</ele><time>2026-05-03T15:02:46.856Z</time></trkpt><trkpt lat="42.132966" lon="12.726203"><ele>178.39999999999998</ele><time>2026-05-03T15:02:47.882Z</time></trkpt><trkpt lat="42.1329517" lon="12.726069"><ele>177.0</ele><time>2026-05-03T15:02:48.859Z</time></trkpt><trkpt lat="42.1329425" lon="12.7259574"><ele>175.0</ele><time>2026-05-03T15:02:49.868Z</time></trkpt><trkpt lat="42.1329228" lon="12.7258514"><ele>173.0</ele><time>2026-05-03T15:02:50.874Z</time></trkpt><trkpt lat="42.1329053" lon="12.7257574"><ele>171.0</ele><time>2026-05-03T15:02:51.873Z</time></trkpt><trkpt lat="42.1328901" lon="12.725644"><ele>169.0</ele><time>2026-05-03T15:02:52.894Z</time></trkpt><trkpt lat="42.1328829" lon="12.7254878"><ele>167.0</ele><time>2026-05-03T15:02:53.898Z</time></trkpt><trkpt lat="42.1328842" lon="12.7252819"><ele>165.0</ele><time>2026-05-03T15:02:54.878Z</time></trkpt><trkpt lat="42.1328795" lon="12.7250386"><ele>163.0</ele><time>2026-05-03T15:02:55.874Z</time></trkpt><trkpt lat="42.1328681" lon="12.7247155"><ele>161.0</ele><time>2026-05-03T15:02:56.876Z</time></trkpt><trkpt lat="42.1328528" lon="12.72446"><ele>161.66666666666666</ele><time>2026-05-03T15:02:57.889Z</time></trkpt><trkpt lat="42.1328273" lon="12.7242482"><ele>162.33333333333334</ele><time>2026-05-03T15:02:58.871Z</time></trkpt><trkpt lat="42.1328144" lon="12.7240359"><ele>163.0</ele><time>2026-05-03T15:02:59.871Z</time></trkpt><trkpt lat="42.1327978" lon="12.7238245"><ele>163.0</ele><time>2026-05-03T15:03:00.868Z</time></trkpt><trkpt lat="42.1327883" lon="12.7236542"><ele>163.0</ele><time>2026-05-03T15:03:01.864Z</time></trkpt><trkpt lat="42.1328019" lon="12.7234724"><ele>163.0</ele><time>2026-05-03T15:03:02.862Z</time></trkpt><trkpt lat="42.1327984" lon="12.7232989"><ele>163.0</ele><time>2026-05-03T15:03:03.868Z</time></trkpt><trkpt lat="42.132778" lon="12.7231219"><ele>164.25</ele><time>2026-05-03T15:03:04.864Z</time></trkpt><trkpt lat="42.1327883" lon="12.7229478"><ele>165.5</ele><time>2026-05-03T15:03:05.862Z</time></trkpt><trkpt lat="42.132786" lon="12.7227883"><ele>166.75</ele><time>2026-05-03T15:03:06.86Z</time></trkpt><trkpt lat="42.1327888" lon="12.7226288"><ele>168.0</ele><time>2026-05-03T15:03:07.863Z</time></trkpt><trkpt lat="42.1328059" lon="12.7224869"><ele>168.33333333333334</ele><time>2026-05-03T15:03:08.866Z</time></trkpt><trkpt lat="42.1328314" lon="12.7223621"><ele>168.66666666666666</ele><time>2026-05-03T15:03:09.862Z</time></trkpt><trkpt lat="42.1328535" lon="12.7222582"><ele>169.0</ele><time>2026-05-03T15:03:10.864Z</time></trkpt><trkpt lat="42.1328516" lon="12.7221612"><ele>169.33333333333331</ele><time>2026-05-03T15:03:11.868Z</time></trkpt><trkpt lat="42.1328266" lon="12.7220604"><ele>169.66666666666666</ele><time>2026-05-03T15:03:12.862Z</time></trkpt><trkpt lat="42.1327696" lon="12.7219468"><ele>170.0</ele><time>2026-05-03T15:03:13.865Z</time></trkpt><trkpt lat="42.1327023" lon="12.7218259"><ele>170.0</ele><time>2026-05-03T15:03:14.86Z</time></trkpt><trkpt lat="42.1326266" lon="12.7217013"><ele>170.0</ele><time>2026-05-03T15:03:15.864Z</time></trkpt><trkpt lat="42.13254" lon="12.7215882"><ele>170.0</ele><time>2026-05-03T15:03:16.883Z</time></trkpt><trkpt lat="42.1324376" lon="12.7214913"><ele>170.0</ele><time>2026-05-03T15:03:17.855Z</time></trkpt><trkpt lat="42.1323303" lon="12.7214076"><ele>169.5</ele><time>2026-05-03T15:03:18.861Z</time></trkpt><trkpt lat="42.1322156" lon="12.7213486"><ele>169.0</ele><time>2026-05-03T15:03:19.845Z</time></trkpt><trkpt lat="42.1320912" lon="12.7213148"><ele>168.5</ele><time>2026-05-03T15:03:20.861Z</time></trkpt><trkpt lat="42.1319744" lon="12.7212712"><ele>168.0</ele><time>2026-05-03T15:03:21.854Z</time></trkpt><trkpt lat="42.1318481" lon="12.7212164"><ele>168.0</ele><time>2026-05-03T15:03:22.85Z</time></trkpt><trkpt lat="42.1317243" lon="12.7211408"><ele>168.0</ele><time>2026-05-03T15:03:23.857Z</time></trkpt><trkpt lat="42.1316132" lon="12.7210423"><ele>168.0</ele><time>2026-05-03T15:03:24.869Z</time></trkpt><trkpt lat="42.1315255" lon="12.7209159"><ele>168.0</ele><time>2026-05-03T15:03:25.857Z</time></trkpt><trkpt lat="42.1314336" lon="12.7207565"><ele>161.0</ele><time>2026-05-03T15:03:26.865Z</time></trkpt><trkpt lat="42.1313091" lon="12.7205434"><ele>154.0</ele><time>2026-05-03T15:03:27.859Z</time></trkpt><trkpt lat="42.1311755" lon="12.7203399"><ele>147.0</ele><time>2026-05-03T15:03:28.858Z</time></trkpt><trkpt lat="42.1310698" lon="12.7201693"><ele>145.0</ele><time>2026-05-03T15:03:29.869Z</time></trkpt><trkpt lat="42.1309765" lon="12.7200131"><ele>143.0</ele><time>2026-05-03T15:03:30.865Z</time></trkpt><trkpt lat="42.1308988" lon="12.7198732"><ele>141.0</ele><time>2026-05-03T15:03:31.86Z</time></trkpt><trkpt lat="42.1308131" lon="12.7197308"><ele>139.0</ele><time>2026-05-03T15:03:32.866Z</time></trkpt><trkpt lat="42.1307307" lon="12.7195789"><ele>133.66666666666669</ele><time>2026-05-03T15:03:33.86Z</time></trkpt><trkpt lat="42.1306507" lon="12.7193843"><ele>128.33333333333334</ele><time>2026-05-03T15:03:34.857Z</time></trkpt><trkpt lat="42.1305733" lon="12.7192161"><ele>123.0</ele><time>2026-05-03T15:03:35.865Z</time></trkpt><trkpt lat="42.1304674" lon="12.7190408"><ele>123.0</ele><time>2026-05-03T15:03:36.863Z</time></trkpt><trkpt lat="42.130371" lon="12.7188382"><ele>123.0</ele><time>2026-05-03T15:03:37.888Z</time></trkpt><trkpt lat="42.1302604" lon="12.7185985"><ele>123.0</ele><time>2026-05-03T15:03:38.879Z</time></trkpt><trkpt lat="42.1301579" lon="12.7183471"><ele>120.0</ele><time>2026-05-03T15:03:39.886Z</time></trkpt><trkpt lat="42.1300536" lon="12.7180183"><ele>117.0</ele><time>2026-05-03T15:03:40.892Z</time></trkpt><trkpt lat="42.1299552" lon="12.7176928"><ele>112.0</ele><time>2026-05-03T15:03:41.862Z</time></trkpt><trkpt lat="42.1298559" lon="12.7173705"><ele>107.0</ele><time>2026-05-03T15:03:42.87Z</time></trkpt><trkpt lat="42.1297407" lon="12.7170806"><ele>105.5</ele><time>2026-05-03T15:03:43.865Z</time></trkpt><trkpt lat="42.1296286" lon="12.716805"><ele>104.0</ele><time>2026-05-03T15:03:44.868Z</time></trkpt><trkpt lat="42.1295138" lon="12.7165299"><ele>104.0</ele><time>2026-05-03T15:03:45.869Z</time></trkpt><trkpt lat="42.129409" lon="12.7162929"><ele>104.0</ele><time>2026-05-03T15:03:46.875Z</time></trkpt><trkpt lat="42.1293213" lon="12.7160593"><ele>104.0</ele><time>2026-05-03T15:03:47.867Z</time></trkpt><trkpt lat="42.1292256" lon="12.7158297"><ele>103.0</ele><time>2026-05-03T15:03:48.896Z</time></trkpt><trkpt lat="42.1291363" lon="12.7156378"><ele>102.0</ele><time>2026-05-03T15:03:49.877Z</time></trkpt><trkpt lat="42.1290729" lon="12.7154508"><ele>101.0</ele><time>2026-05-03T15:03:50.881Z</time></trkpt><trkpt lat="42.1289771" lon="12.7152456"><ele>99.33333333333333</ele><time>2026-05-03T15:03:51.871Z</time></trkpt><trkpt lat="42.1288283" lon="12.7150291"><ele>97.66666666666666</ele><time>2026-05-03T15:03:52.867Z</time></trkpt><trkpt lat="42.1286726" lon="12.7148108"><ele>96.0</ele><time>2026-05-03T15:03:53.862Z</time></trkpt><trkpt lat="42.1285387" lon="12.7145623"><ele>95.66666666666667</ele><time>2026-05-03T15:03:54.878Z</time></trkpt><trkpt lat="42.1284087" lon="12.714303"><ele>95.33333333333334</ele><time>2026-05-03T15:03:55.875Z</time></trkpt><trkpt lat="42.1282697" lon="12.7140842"><ele>95.0</ele><time>2026-05-03T15:03:56.876Z</time></trkpt><trkpt lat="42.1281311" lon="12.7138997"><ele>95.0</ele><time>2026-05-03T15:03:57.87Z</time></trkpt><trkpt lat="42.1279728" lon="12.7136914"><ele>95.0</ele><time>2026-05-03T15:03:58.902Z</time></trkpt><trkpt lat="42.1278343" lon="12.7135159"><ele>95.0</ele><time>2026-05-03T15:03:59.892Z</time></trkpt><trkpt lat="42.1277062" lon="12.7133487"><ele>96.0</ele><time>2026-05-03T15:04:00.869Z</time></trkpt><trkpt lat="42.1276058" lon="12.7132226"><ele>97.0</ele><time>2026-05-03T15:04:01.868Z</time></trkpt><trkpt lat="42.127523" lon="12.7131197"><ele>98.0</ele><time>2026-05-03T15:04:02.87Z</time></trkpt><trkpt lat="42.1274379" lon="12.7130129"><ele>99.0</ele><time>2026-05-03T15:04:03.869Z</time></trkpt><trkpt lat="42.1273661" lon="12.7128901"><ele>100.5</ele><time>2026-05-03T15:04:04.867Z</time></trkpt><trkpt lat="42.1273209" lon="12.7127296"><ele>102.0</ele><time>2026-05-03T15:04:05.861Z</time></trkpt><trkpt lat="42.1272891" lon="12.7126061"><ele>103.5</ele><time>2026-05-03T15:04:06.861Z</time></trkpt><trkpt lat="42.1272848" lon="12.7124468"><ele>105.0</ele><time>2026-05-03T15:04:07.885Z</time></trkpt><trkpt lat="42.1272791" lon="12.7122714"><ele>105.0</ele><time>2026-05-03T15:04:08.877Z</time></trkpt><trkpt lat="42.12733" lon="12.7121083"><ele>105.0</ele><time>2026-05-03T15:04:09.937Z</time></trkpt><trkpt lat="42.1273914" lon="12.7119511"><ele>105.0</ele><time>2026-05-03T15:04:11.025Z</time></trkpt><trkpt lat="42.1274772" lon="12.7116465"><ele>106.75</ele><time>2026-05-03T15:04:12.892Z</time></trkpt><trkpt lat="42.1275011" lon="12.7115042"><ele>108.5</ele><time>2026-05-03T15:04:13.88Z</time></trkpt><trkpt lat="42.1275034" lon="12.7113284"><ele>110.25</ele><time>2026-05-03T15:04:14.859Z</time></trkpt><trkpt lat="42.1274839" lon="12.7111257"><ele>112.0</ele><time>2026-05-03T15:04:15.867Z</time></trkpt><trkpt lat="42.1274536" lon="12.7109078"><ele>115.66666666666667</ele><time>2026-05-03T15:04:16.866Z</time></trkpt><trkpt lat="42.1273738" lon="12.710659"><ele>119.33333333333334</ele><time>2026-05-03T15:04:17.864Z</time></trkpt><trkpt lat="42.1273281" lon="12.7104609"><ele>123.0</ele><time>2026-05-03T15:04:18.868Z</time></trkpt><trkpt lat="42.1273058" lon="12.7102614"><ele>123.25</ele><time>2026-05-03T15:04:19.862Z</time></trkpt><trkpt lat="42.1272571" lon="12.7101101"><ele>123.5</ele><time>2026-05-03T15:04:20.862Z</time></trkpt><trkpt lat="42.1272166" lon="12.7099624"><ele>123.75</ele><time>2026-05-03T15:04:21.894Z</time></trkpt><trkpt lat="42.1271826" lon="12.7098219"><ele>124.0</ele><time>2026-05-03T15:04:22.871Z</time></trkpt><trkpt lat="42.1271174" lon="12.709696"><ele>124.0</ele><time>2026-05-03T15:04:23.866Z</time></trkpt><trkpt lat="42.1270374" lon="12.7095576"><ele>124.0</ele><time>2026-05-03T15:04:24.861Z</time></trkpt><trkpt lat="42.1269447" lon="12.7094201"><ele>124.0</ele><time>2026-05-03T15:04:25.867Z</time></trkpt><trkpt lat="42.1268475" lon="12.7092799"><ele>124.0</ele><time>2026-05-03T15:04:26.868Z</time></trkpt><trkpt lat="42.1267382" lon="12.7091353"><ele>122.33333333333334</ele><time>2026-05-03T15:04:27.865Z</time></trkpt><trkpt lat="42.1265772" lon="12.7089797"><ele>120.66666666666666</ele><time>2026-05-03T15:04:28.866Z</time></trkpt><trkpt lat="42.1263719" lon="12.7088395"><ele>119.0</ele><time>2026-05-03T15:04:29.858Z</time></trkpt><trkpt lat="42.1261686" lon="12.7086764"><ele>116.0</ele><time>2026-05-03T15:04:30.879Z</time></trkpt><trkpt lat="42.125977" lon="12.7085263"><ele>113.0</ele><time>2026-05-03T15:04:31.858Z</time></trkpt><trkpt lat="42.1257729" lon="12.7083738"><ele>111.33333333333333</ele><time>2026-05-03T15:04:32.857Z</time></trkpt><trkpt lat="42.1255783" lon="12.7082233"><ele>109.66666666666666</ele><time>2026-05-03T15:04:33.859Z</time></trkpt><trkpt lat="42.1254064" lon="12.7081079"><ele>108.0</ele><time>2026-05-03T15:04:34.859Z</time></trkpt><trkpt lat="42.1252298" lon="12.7079868"><ele>108.0</ele><time>2026-05-03T15:04:35.859Z</time></trkpt><trkpt lat="42.1250597" lon="12.7078487"><ele>108.0</ele><time>2026-05-03T15:04:36.856Z</time></trkpt><trkpt lat="42.1248794" lon="12.707725"><ele>108.0</ele><time>2026-05-03T15:04:37.858Z</time></trkpt><trkpt lat="42.1247116" lon="12.7075891"><ele>103.0</ele><time>2026-05-03T15:04:38.857Z</time></trkpt><trkpt lat="42.1245352" lon="12.7074449"><ele>98.0</ele><time>2026-05-03T15:04:39.858Z</time></trkpt><trkpt lat="42.1243182" lon="12.7072781"><ele>98.0</ele><time>2026-05-03T15:04:40.856Z</time></trkpt><trkpt lat="42.124152" lon="12.7071425"><ele>98.0</ele><time>2026-05-03T15:04:41.859Z</time></trkpt><trkpt lat="42.1239802" lon="12.7069977"><ele>98.0</ele><time>2026-05-03T15:04:42.858Z</time></trkpt><trkpt lat="42.1238285" lon="12.7068554"><ele>95.66666666666666</ele><time>2026-05-03T15:04:43.863Z</time></trkpt><trkpt lat="42.1236673" lon="12.7067047"><ele>93.33333333333333</ele><time>2026-05-03T15:04:44.873Z</time></trkpt><trkpt lat="42.1235243" lon="12.7065408"><ele>91.0</ele><time>2026-05-03T15:04:45.862Z</time></trkpt><trkpt lat="42.1233541" lon="12.7063808"><ele>90.33333333333333</ele><time>2026-05-03T15:04:46.862Z</time></trkpt><trkpt lat="42.1231841" lon="12.7062517"><ele>89.66666666666667</ele><time>2026-05-03T15:04:47.858Z</time></trkpt><trkpt lat="42.1230147" lon="12.7061064"><ele>89.0</ele><time>2026-05-03T15:04:48.859Z</time></trkpt><trkpt lat="42.1228767" lon="12.7060137"><ele>89.0</ele><time>2026-05-03T15:04:49.865Z</time></trkpt><trkpt lat="42.1227334" lon="12.7059086"><ele>89.0</ele><time>2026-05-03T15:04:50.862Z</time></trkpt><trkpt lat="42.122579" lon="12.705809"><ele>89.0</ele><time>2026-05-03T15:04:51.857Z</time></trkpt><trkpt lat="42.122428" lon="12.7057564"><ele>86.0</ele><time>2026-05-03T15:04:52.86Z</time></trkpt><trkpt lat="42.1222784" lon="12.705697"><ele>83.0</ele><time>2026-05-03T15:04:53.862Z</time></trkpt><trkpt lat="42.1221282" lon="12.7056176"><ele>80.0</ele><time>2026-05-03T15:04:54.858Z</time></trkpt><trkpt lat="42.1219854" lon="12.7055317"><ele>80.0</ele><time>2026-05-03T15:04:55.859Z</time></trkpt><trkpt lat="42.1218441" lon="12.7054252"><ele>80.0</ele><time>2026-05-03T15:04:56.854Z</time></trkpt><trkpt lat="42.1217272" lon="12.7053273"><ele>80.0</ele><time>2026-05-03T15:04:57.859Z</time></trkpt><trkpt lat="42.1216235" lon="12.7052216"><ele>80.0</ele><time>2026-05-03T15:04:58.864Z</time></trkpt><trkpt lat="42.1215474" lon="12.7051046"><ele>79.0</ele><time>2026-05-03T15:04:59.875Z</time></trkpt><trkpt lat="42.1214652" lon="12.7050128"><ele>78.0</ele><time>2026-05-03T15:05:00.854Z</time></trkpt><trkpt lat="42.1214015" lon="12.7048885"><ele>77.0</ele><time>2026-05-03T15:05:01.856Z</time></trkpt><trkpt lat="42.1213521" lon="12.7047545"><ele>76.0</ele><time>2026-05-03T15:05:02.857Z</time></trkpt><trkpt lat="42.1212979" lon="12.7046365"><ele>75.0</ele><time>2026-05-03T15:05:03.943Z</time></trkpt><trkpt lat="42.1212311" lon="12.7045095"><ele>75.0</ele><time>2026-05-03T15:05:04.891Z</time></trkpt><trkpt lat="42.1211501" lon="12.7044047"><ele>75.0</ele><time>2026-05-03T15:05:05.883Z</time></trkpt><trkpt lat="42.1210493" lon="12.7043286"><ele>75.0</ele><time>2026-05-03T15:05:06.881Z</time></trkpt><trkpt lat="42.1209573" lon="12.704261"><ele>75.0</ele><time>2026-05-03T15:05:07.862Z</time></trkpt><trkpt lat="42.1208877" lon="12.7041852"><ele>75.0</ele><time>2026-05-03T15:05:08.865Z</time></trkpt><trkpt lat="42.1208318" lon="12.7040572"><ele>75.0</ele><time>2026-05-03T15:05:09.862Z</time></trkpt><trkpt lat="42.1207932" lon="12.7039089"><ele>75.0</ele><time>2026-05-03T15:05:10.859Z</time></trkpt><trkpt lat="42.1207417" lon="12.7037778"><ele>75.0</ele><time>2026-05-03T15:05:11.856Z</time></trkpt><trkpt lat="42.1206999" lon="12.7036558"><ele>75.0</ele><time>2026-05-03T15:05:12.86Z</time></trkpt><trkpt lat="42.1206131" lon="12.70355"><ele>75.0</ele><time>2026-05-03T15:05:13.862Z</time></trkpt><trkpt lat="42.120491" lon="12.7034344"><ele>74.0</ele><time>2026-05-03T15:05:14.858Z</time></trkpt><trkpt lat="42.1203774" lon="12.7033239"><ele>73.0</ele><time>2026-05-03T15:05:15.863Z</time></trkpt><trkpt lat="42.1202725" lon="12.7031911"><ele>72.0</ele><time>2026-05-03T15:05:16.857Z</time></trkpt><trkpt lat="42.12016" lon="12.703072"><ele>71.0</ele><time>2026-05-03T15:05:17.859Z</time></trkpt><trkpt lat="42.1200406" lon="12.7029865"><ele>71.0</ele><time>2026-05-03T15:05:18.867Z</time></trkpt><trkpt lat="42.1199069" lon="12.7029191"><ele>71.0</ele><time>2026-05-03T15:05:19.88Z</time></trkpt><trkpt lat="42.119765" lon="12.7028727"><ele>71.0</ele><time>2026-05-03T15:05:20.869Z</time></trkpt><trkpt lat="42.1195862" lon="12.7028463"><ele>72.0</ele><time>2026-05-03T15:05:21.856Z</time></trkpt><trkpt lat="42.1193578" lon="12.7027638"><ele>73.0</ele><time>2026-05-03T15:05:22.889Z</time></trkpt><trkpt lat="42.1191446" lon="12.7026573"><ele>75.66666666666666</ele><time>2026-05-03T15:05:23.882Z</time></trkpt><trkpt lat="42.118957" lon="12.7025648"><ele>78.33333333333333</ele><time>2026-05-03T15:05:24.854Z</time></trkpt><trkpt lat="42.118766" lon="12.7024659"><ele>81.0</ele><time>2026-05-03T15:05:25.88Z</time></trkpt><trkpt lat="42.118582" lon="12.702424"><ele>81.0</ele><time>2026-05-03T15:05:26.881Z</time></trkpt><trkpt lat="42.1184148" lon="12.7023705"><ele>81.0</ele><time>2026-05-03T15:05:27.862Z</time></trkpt><trkpt lat="42.1183057" lon="12.7023041"><ele>81.0</ele><time>2026-05-03T15:05:28.86Z</time></trkpt><trkpt lat="42.1182122" lon="12.7022237"><ele>81.0</ele><time>2026-05-03T15:05:29.859Z</time></trkpt><trkpt lat="42.1181112" lon="12.7020964"><ele>83.5</ele><time>2026-05-03T15:05:30.861Z</time></trkpt><trkpt lat="42.1180343" lon="12.7019112"><ele>86.0</ele><time>2026-05-03T15:05:31.854Z</time></trkpt><trkpt lat="42.1179609" lon="12.7017504"><ele>88.5</ele><time>2026-05-03T15:05:32.858Z</time></trkpt><trkpt lat="42.1179093" lon="12.7015931"><ele>91.0</ele><time>2026-05-03T15:05:33.864Z</time></trkpt><trkpt lat="42.1178598" lon="12.7014165"><ele>91.0</ele><time>2026-05-03T15:05:34.866Z</time></trkpt><trkpt lat="42.117827" lon="12.7011955"><ele>91.0</ele><time>2026-05-03T15:05:35.865Z</time></trkpt><trkpt lat="42.117817" lon="12.70096"><ele>91.0</ele><time>2026-05-03T15:05:36.86Z</time></trkpt><trkpt lat="42.117808" lon="12.7007268"><ele>93.0</ele><time>2026-05-03T15:05:37.865Z</time></trkpt><trkpt lat="42.1177545" lon="12.700527"><ele>95.0</ele><time>2026-05-03T15:05:38.863Z</time></trkpt><trkpt lat="42.1176681" lon="12.7003327"><ele>97.0</ele><time>2026-05-03T15:05:39.863Z</time></trkpt><trkpt lat="42.117544" lon="12.7001433"><ele>101.0</ele><time>2026-05-03T15:05:40.884Z</time></trkpt><trkpt lat="42.1173868" lon="12.6999551"><ele>105.0</ele><time>2026-05-03T15:05:41.908Z</time></trkpt><trkpt lat="42.1172222" lon="12.6997645"><ele>109.0</ele><time>2026-05-03T15:05:42.86Z</time></trkpt><trkpt lat="42.1170522" lon="12.6995716"><ele>113.0</ele><time>2026-05-03T15:05:43.862Z</time></trkpt><trkpt lat="42.1169002" lon="12.6994"><ele>117.0</ele><time>2026-05-03T15:05:44.861Z</time></trkpt><trkpt lat="42.1167397" lon="12.6992606"><ele>121.0</ele><time>2026-05-03T15:05:45.858Z</time></trkpt><trkpt lat="42.1165923" lon="12.6991635"><ele>124.0</ele><time>2026-05-03T15:05:46.866Z</time></trkpt><trkpt lat="42.1164578" lon="12.6990679"><ele>127.0</ele><time>2026-05-03T15:05:47.863Z</time></trkpt><trkpt lat="42.1163299" lon="12.6989776"><ele>130.0</ele><time>2026-05-03T15:05:48.861Z</time></trkpt><trkpt lat="42.1161856" lon="12.6988923"><ele>130.0</ele><time>2026-05-03T15:05:49.863Z</time></trkpt><trkpt lat="42.1160456" lon="12.6988487"><ele>130.0</ele><time>2026-05-03T15:05:50.868Z</time></trkpt><trkpt lat="42.1159181" lon="12.6988187"><ele>130.0</ele><time>2026-05-03T15:05:51.866Z</time></trkpt><trkpt lat="42.1157856" lon="12.6988114"><ele>130.0</ele><time>2026-05-03T15:05:52.858Z</time></trkpt><trkpt lat="42.1156316" lon="12.6988121"><ele>130.75</ele><time>2026-05-03T15:05:53.864Z</time></trkpt><trkpt lat="42.1154972" lon="12.6988047"><ele>131.5</ele><time>2026-05-03T15:05:54.859Z</time></trkpt><trkpt lat="42.1153475" lon="12.6987951"><ele>132.25</ele><time>2026-05-03T15:05:55.861Z</time></trkpt><trkpt lat="42.1152281" lon="12.6988387"><ele>133.0</ele><time>2026-05-03T15:05:56.878Z</time></trkpt><trkpt lat="42.1150715" lon="12.6989115"><ele>135.66666666666669</ele><time>2026-05-03T15:05:57.863Z</time></trkpt><trkpt lat="42.1148667" lon="12.6989768"><ele>138.33333333333334</ele><time>2026-05-03T15:05:58.862Z</time></trkpt><trkpt lat="42.1146815" lon="12.6990049"><ele>141.0</ele><time>2026-05-03T15:05:59.864Z</time></trkpt><trkpt lat="42.1144947" lon="12.6990159"><ele>141.0</ele><time>2026-05-03T15:06:00.866Z</time></trkpt><trkpt lat="42.1143187" lon="12.6989526"><ele>141.0</ele><time>2026-05-03T15:06:01.865Z</time></trkpt><trkpt lat="42.1141327" lon="12.6989066"><ele>141.0</ele><time>2026-05-03T15:06:02.869Z</time></trkpt><trkpt lat="42.1139605" lon="12.6988313"><ele>140.0</ele><time>2026-05-03T15:06:03.861Z</time></trkpt><trkpt lat="42.1137708" lon="12.698775"><ele>139.0</ele><time>2026-05-03T15:06:04.859Z</time></trkpt><trkpt lat="42.1136008" lon="12.6987516"><ele>138.0</ele><time>2026-05-03T15:06:05.853Z</time></trkpt><trkpt lat="42.113477" lon="12.6987251"><ele>138.0</ele><time>2026-05-03T15:06:06.861Z</time></trkpt><trkpt lat="42.1133614" lon="12.6986968"><ele>138.0</ele><time>2026-05-03T15:06:07.853Z</time></trkpt><trkpt lat="42.1132272" lon="12.6986886"><ele>138.0</ele><time>2026-05-03T15:06:08.859Z</time></trkpt><trkpt lat="42.1130892" lon="12.698634"><ele>138.0</ele><time>2026-05-03T15:06:09.859Z</time></trkpt><trkpt lat="42.1129973" lon="12.6985773"><ele>136.0</ele><time>2026-05-03T15:06:10.863Z</time></trkpt><trkpt lat="42.1128876" lon="12.6984933"><ele>134.0</ele><time>2026-05-03T15:06:11.848Z</time></trkpt><trkpt lat="42.1127798" lon="12.6984311"><ele>132.0</ele><time>2026-05-03T15:06:12.86Z</time></trkpt><trkpt lat="42.1126892" lon="12.6982819"><ele>130.0</ele><time>2026-05-03T15:06:13.86Z</time></trkpt><trkpt lat="42.1125901" lon="12.6981787"><ele>130.0</ele><time>2026-05-03T15:06:14.869Z</time></trkpt><trkpt lat="42.1125218" lon="12.6980379"><ele>130.0</ele><time>2026-05-03T15:06:15.866Z</time></trkpt><trkpt lat="42.1124408" lon="12.6978723"><ele>130.0</ele><time>2026-05-03T15:06:16.884Z</time></trkpt><trkpt lat="42.1123553" lon="12.697662"><ele>127.33333333333334</ele><time>2026-05-03T15:06:17.859Z</time></trkpt><trkpt lat="42.1122653" lon="12.6974186"><ele>124.66666666666666</ele><time>2026-05-03T15:06:18.886Z</time></trkpt><trkpt lat="42.1121658" lon="12.6971944"><ele>122.0</ele><time>2026-05-03T15:06:19.87Z</time></trkpt><trkpt lat="42.1120829" lon="12.696966"><ele>122.0</ele><time>2026-05-03T15:06:20.866Z</time></trkpt><trkpt lat="42.1119965" lon="12.6967684"><ele>122.0</ele><time>2026-05-03T15:06:21.865Z</time></trkpt><trkpt lat="42.1119007" lon="12.696559"><ele>122.0</ele><time>2026-05-03T15:06:22.868Z</time></trkpt><trkpt lat="42.1117933" lon="12.6963636"><ele>122.0</ele><time>2026-05-03T15:06:23.858Z</time></trkpt><trkpt lat="42.1116829" lon="12.696186"><ele>122.0</ele><time>2026-05-03T15:06:24.869Z</time></trkpt><trkpt lat="42.1115754" lon="12.6960527"><ele>122.0</ele><time>2026-05-03T15:06:25.866Z</time></trkpt><trkpt lat="42.1114465" lon="12.695918"><ele>121.66666666666666</ele><time>2026-05-03T15:06:26.865Z</time></trkpt><trkpt lat="42.1113107" lon="12.6957456"><ele>121.33333333333334</ele><time>2026-05-03T15:06:27.865Z</time></trkpt><trkpt lat="42.1111685" lon="12.6956261"><ele>121.0</ele><time>2026-05-03T15:06:28.872Z</time></trkpt><trkpt lat="42.1110209" lon="12.6955208"><ele>121.0</ele><time>2026-05-03T15:06:29.869Z</time></trkpt><trkpt lat="42.1108711" lon="12.695386"><ele>121.0</ele><time>2026-05-03T15:06:30.869Z</time></trkpt><trkpt lat="42.1107136" lon="12.695249"><ele>121.0</ele><time>2026-05-03T15:06:31.871Z</time></trkpt><trkpt lat="42.110564" lon="12.695151"><ele>120.5</ele><time>2026-05-03T15:06:32.871Z</time></trkpt><trkpt lat="42.1104339" lon="12.6950606"><ele>120.0</ele><time>2026-05-03T15:06:33.869Z</time></trkpt><trkpt lat="42.1103012" lon="12.6949602"><ele>119.5</ele><time>2026-05-03T15:06:34.884Z</time></trkpt><trkpt lat="42.1101816" lon="12.6948372"><ele>119.0</ele><time>2026-05-03T15:06:35.858Z</time></trkpt><trkpt lat="42.1100608" lon="12.6946807"><ele>119.0</ele><time>2026-05-03T15:06:36.868Z</time></trkpt><trkpt lat="42.1099525" lon="12.6945405"><ele>119.0</ele><time>2026-05-03T15:06:37.863Z</time></trkpt><trkpt lat="42.1098481" lon="12.6944079"><ele>119.0</ele><time>2026-05-03T15:06:38.859Z</time></trkpt><trkpt lat="42.1097457" lon="12.6942369"><ele>118.33333333333333</ele><time>2026-05-03T15:06:39.867Z</time></trkpt><trkpt lat="42.1096499" lon="12.6940241"><ele>117.66666666666666</ele><time>2026-05-03T15:06:40.866Z</time></trkpt><trkpt lat="42.1095816" lon="12.6938446"><ele>117.0</ele><time>2026-05-03T15:06:41.868Z</time></trkpt><trkpt lat="42.1095194" lon="12.6937002"><ele>117.0</ele><time>2026-05-03T15:06:42.872Z</time></trkpt><trkpt lat="42.1094684" lon="12.6935636"><ele>116.99999999999999</ele><time>2026-05-03T15:06:43.872Z</time></trkpt><trkpt lat="42.1094477" lon="12.6934211"><ele>116.99999999999999</ele><time>2026-05-03T15:06:44.875Z</time></trkpt><trkpt lat="42.1094292" lon="12.6932692"><ele>117.0</ele><time>2026-05-03T15:06:45.882Z</time></trkpt><trkpt lat="42.1094053" lon="12.6931574"><ele>117.0</ele><time>2026-05-03T15:06:46.879Z</time></trkpt><trkpt lat="42.109391" lon="12.6930594"><ele>117.0</ele><time>2026-05-03T15:06:47.878Z</time></trkpt><trkpt lat="42.1094097" lon="12.6929053"><ele>117.0</ele><time>2026-05-03T15:06:49.883Z</time></trkpt><trkpt lat="42.1094254" lon="12.6927962"><ele>117.0</ele><time>2026-05-03T15:06:50.876Z</time></trkpt><trkpt lat="42.1094448" lon="12.6926322"><ele>117.0</ele><time>2026-05-03T15:06:51.879Z</time></trkpt><trkpt lat="42.1094716" lon="12.6924427"><ele>117.0</ele><time>2026-05-03T15:06:52.897Z</time></trkpt><trkpt lat="42.1095101" lon="12.6921942"><ele>117.0</ele><time>2026-05-03T15:06:53.905Z</time></trkpt><trkpt lat="42.1095072" lon="12.6919424"><ele>117.0</ele><time>2026-05-03T15:06:54.883Z</time></trkpt><trkpt lat="42.109498" lon="12.6917448"><ele>117.0</ele><time>2026-05-03T15:06:55.883Z</time></trkpt><trkpt lat="42.1094775" lon="12.691534"><ele>117.0</ele><time>2026-05-03T15:06:56.877Z</time></trkpt><trkpt lat="42.109421" lon="12.6913113"><ele>117.0</ele><time>2026-05-03T15:06:57.878Z</time></trkpt><trkpt lat="42.1093396" lon="12.691048"><ele>117.0</ele><time>2026-05-03T15:06:58.878Z</time></trkpt><trkpt lat="42.109263" lon="12.6907667"><ele>117.0</ele><time>2026-05-03T15:06:59.878Z</time></trkpt><trkpt lat="42.1091791" lon="12.6904997"><ele>117.0</ele><time>2026-05-03T15:07:00.871Z</time></trkpt><trkpt lat="42.1090629" lon="12.6902126"><ele>117.0</ele><time>2026-05-03T15:07:01.873Z</time></trkpt><trkpt lat="42.1089501" lon="12.6898914"><ele>117.0</ele><time>2026-05-03T15:07:02.874Z</time></trkpt><trkpt lat="42.1088201" lon="12.6895756"><ele>116.0</ele><time>2026-05-03T15:07:03.878Z</time></trkpt><trkpt lat="42.1087101" lon="12.6893054"><ele>115.0</ele><time>2026-05-03T15:07:04.874Z</time></trkpt><trkpt lat="42.1086169" lon="12.6890507"><ele>114.0</ele><time>2026-05-03T15:07:05.877Z</time></trkpt><trkpt lat="42.1085195" lon="12.6888098"><ele>114.0</ele><time>2026-05-03T15:07:06.886Z</time></trkpt><trkpt lat="42.1084312" lon="12.6886025"><ele>114.0</ele><time>2026-05-03T15:07:07.879Z</time></trkpt><trkpt lat="42.1083392" lon="12.6884066"><ele>114.0</ele><time>2026-05-03T15:07:08.873Z</time></trkpt><trkpt lat="42.1082638" lon="12.6882512"><ele>113.66666666666666</ele><time>2026-05-03T15:07:09.883Z</time></trkpt><trkpt lat="42.108179" lon="12.6880689"><ele>113.33333333333333</ele><time>2026-05-03T15:07:10.87Z</time></trkpt><trkpt lat="42.108066" lon="12.6878739"><ele>113.0</ele><time>2026-05-03T15:07:11.872Z</time></trkpt><trkpt lat="42.1079257" lon="12.6877029"><ele>113.0</ele><time>2026-05-03T15:07:12.87Z</time></trkpt><trkpt lat="42.1077792" lon="12.6875797"><ele>113.0</ele><time>2026-05-03T15:07:13.875Z</time></trkpt><trkpt lat="42.1076405" lon="12.6874157"><ele>113.0</ele><time>2026-05-03T15:07:14.877Z</time></trkpt><trkpt lat="42.1074913" lon="12.6872449"><ele>111.33333333333333</ele><time>2026-05-03T15:07:15.885Z</time></trkpt><trkpt lat="42.1073273" lon="12.6871014"><ele>109.66666666666666</ele><time>2026-05-03T15:07:16.883Z</time></trkpt><trkpt lat="42.1071641" lon="12.686946"><ele>108.0</ele><time>2026-05-03T15:07:17.899Z</time></trkpt><trkpt lat="42.1070378" lon="12.686827"><ele>108.0</ele><time>2026-05-03T15:07:18.884Z</time></trkpt><trkpt lat="42.1069049" lon="12.6867076"><ele>108.0</ele><time>2026-05-03T15:07:19.884Z</time></trkpt><trkpt lat="42.1067757" lon="12.6865978"><ele>108.0</ele><time>2026-05-03T15:07:20.881Z</time></trkpt><trkpt lat="42.1066576" lon="12.6864703"><ele>107.0</ele><time>2026-05-03T15:07:21.881Z</time></trkpt><trkpt lat="42.1065711" lon="12.6862979"><ele>106.0</ele><time>2026-05-03T15:07:22.88Z</time></trkpt><trkpt lat="42.1064921" lon="12.6860791"><ele>105.0</ele><time>2026-05-03T15:07:23.877Z</time></trkpt><trkpt lat="42.1064256" lon="12.6858421"><ele>103.0</ele><time>2026-05-03T15:07:24.883Z</time></trkpt><trkpt lat="42.1063645" lon="12.6855899"><ele>101.0</ele><time>2026-05-03T15:07:25.874Z</time></trkpt><trkpt lat="42.1062998" lon="12.6853013"><ele>99.0</ele><time>2026-05-03T15:07:26.89Z</time></trkpt><trkpt lat="42.1062386" lon="12.6850267"><ele>98.33333333333334</ele><time>2026-05-03T15:07:27.882Z</time></trkpt><trkpt lat="42.1061551" lon="12.6847677"><ele>97.66666666666667</ele><time>2026-05-03T15:07:28.892Z</time></trkpt><trkpt lat="42.1060936" lon="12.6845237"><ele>97.0</ele><time>2026-05-03T15:07:29.876Z</time></trkpt><trkpt lat="42.1060338" lon="12.6843009"><ele>96.33333333333334</ele><time>2026-05-03T15:07:30.876Z</time></trkpt><trkpt lat="42.1059818" lon="12.684093"><ele>95.66666666666667</ele><time>2026-05-03T15:07:31.875Z</time></trkpt><trkpt lat="42.1059271" lon="12.6838981"><ele>95.0</ele><time>2026-05-03T15:07:32.882Z</time></trkpt><trkpt lat="42.1058795" lon="12.6837075"><ele>95.66666666666667</ele><time>2026-05-03T15:07:33.879Z</time></trkpt><trkpt lat="42.1058116" lon="12.6835451"><ele>96.33333333333334</ele><time>2026-05-03T15:07:34.871Z</time></trkpt><trkpt lat="42.1057012" lon="12.6833725"><ele>97.0</ele><time>2026-05-03T15:07:35.878Z</time></trkpt><trkpt lat="42.1055513" lon="12.683228"><ele>97.33333333333334</ele><time>2026-05-03T15:07:36.87Z</time></trkpt><trkpt lat="42.1054031" lon="12.6830807"><ele>97.66666666666666</ele><time>2026-05-03T15:07:37.881Z</time></trkpt><trkpt lat="42.1052408" lon="12.6829156"><ele>98.0</ele><time>2026-05-03T15:07:38.878Z</time></trkpt><trkpt lat="42.1050541" lon="12.6827289"><ele>95.5</ele><time>2026-05-03T15:07:39.868Z</time></trkpt><trkpt lat="42.1048621" lon="12.6825359"><ele>93.0</ele><time>2026-05-03T15:07:40.871Z</time></trkpt><trkpt lat="42.1046889" lon="12.6823581"><ele>93.0</ele><time>2026-05-03T15:07:41.874Z</time></trkpt><trkpt lat="42.1045253" lon="12.68219"><ele>93.0</ele><time>2026-05-03T15:07:42.871Z</time></trkpt><trkpt lat="42.1043647" lon="12.6820182"><ele>93.0</ele><time>2026-05-03T15:07:43.868Z</time></trkpt><trkpt lat="42.1042146" lon="12.6818687"><ele>92.0</ele><time>2026-05-03T15:07:44.883Z</time></trkpt><trkpt lat="42.1040796" lon="12.6817213"><ele>91.0</ele><time>2026-05-03T15:07:45.873Z</time></trkpt><trkpt lat="42.1039428" lon="12.6815707"><ele>90.0</ele><time>2026-05-03T15:07:46.878Z</time></trkpt><trkpt lat="42.1037926" lon="12.6813988"><ele>90.0</ele><time>2026-05-03T15:07:47.878Z</time></trkpt><trkpt lat="42.1036399" lon="12.6812543"><ele>90.0</ele><time>2026-05-03T15:07:48.871Z</time></trkpt><trkpt lat="42.1034585" lon="12.6811419"><ele>90.0</ele><time>2026-05-03T15:07:49.875Z</time></trkpt><trkpt lat="42.1032703" lon="12.681018"><ele>89.33333333333333</ele><time>2026-05-03T15:07:50.876Z</time></trkpt><trkpt lat="42.1030586" lon="12.6809255"><ele>88.66666666666666</ele><time>2026-05-03T15:07:51.874Z</time></trkpt><trkpt lat="42.1028565" lon="12.6808201"><ele>88.0</ele><time>2026-05-03T15:07:52.899Z</time></trkpt><trkpt lat="42.1026746" lon="12.6807097"><ele>88.0</ele><time>2026-05-03T15:07:53.874Z</time></trkpt><trkpt lat="42.1025046" lon="12.6805977"><ele>88.0</ele><time>2026-05-03T15:07:54.875Z</time></trkpt><trkpt lat="42.102339" lon="12.6805193"><ele>88.0</ele><time>2026-05-03T15:07:55.877Z</time></trkpt><trkpt lat="42.1021654" lon="12.6804568"><ele>87.66666666666666</ele><time>2026-05-03T15:07:56.873Z</time></trkpt><trkpt lat="42.1019833" lon="12.6804075"><ele>87.33333333333333</ele><time>2026-05-03T15:07:57.873Z</time></trkpt><trkpt lat="42.1017944" lon="12.6803479"><ele>87.0</ele><time>2026-05-03T15:07:58.87Z</time></trkpt><trkpt lat="42.1016249" lon="12.680309"><ele>88.0</ele><time>2026-05-03T15:07:59.866Z</time></trkpt><trkpt lat="42.1014529" lon="12.6802627"><ele>89.0</ele><time>2026-05-03T15:08:00.863Z</time></trkpt><trkpt lat="42.1012954" lon="12.6801946"><ele>90.0</ele><time>2026-05-03T15:08:01.869Z</time></trkpt><trkpt lat="42.1011071" lon="12.6801274"><ele>90.0</ele><time>2026-05-03T15:08:02.874Z</time></trkpt><trkpt lat="42.1009058" lon="12.6799943"><ele>90.0</ele><time>2026-05-03T15:08:03.865Z</time></trkpt><trkpt lat="42.1006879" lon="12.6798635"><ele>88.0</ele><time>2026-05-03T15:08:04.889Z</time></trkpt><trkpt lat="42.100493" lon="12.6797548"><ele>86.0</ele><time>2026-05-03T15:08:05.881Z</time></trkpt><trkpt lat="42.1003168" lon="12.6796301"><ele>84.0</ele><time>2026-05-03T15:08:06.904Z</time></trkpt><trkpt lat="42.1001694" lon="12.6795268"><ele>84.0</ele><time>2026-05-03T15:08:07.869Z</time></trkpt><trkpt lat="42.0999979" lon="12.6794253"><ele>84.0</ele><time>2026-05-03T15:08:08.865Z</time></trkpt><trkpt lat="42.0998346" lon="12.6793291"><ele>84.0</ele><time>2026-05-03T15:08:09.866Z</time></trkpt><trkpt lat="42.0996867" lon="12.6792465"><ele>84.0</ele><time>2026-05-03T15:08:10.86Z</time></trkpt><trkpt lat="42.0995533" lon="12.6791592"><ele>84.0</ele><time>2026-05-03T15:08:11.867Z</time></trkpt><trkpt lat="42.0994377" lon="12.6790326"><ele>84.0</ele><time>2026-05-03T15:08:12.865Z</time></trkpt><trkpt lat="42.0992988" lon="12.6789024"><ele>84.0</ele><time>2026-05-03T15:08:13.858Z</time></trkpt><trkpt lat="42.0991389" lon="12.6787244"><ele>84.0</ele><time>2026-05-03T15:08:14.863Z</time></trkpt><trkpt lat="42.0989654" lon="12.6785602"><ele>84.0</ele><time>2026-05-03T15:08:15.869Z</time></trkpt><trkpt lat="42.0987847" lon="12.6784249"><ele>83.5</ele><time>2026-05-03T15:08:16.899Z</time></trkpt><trkpt lat="42.09858" lon="12.6782859"><ele>83.0</ele><time>2026-05-03T15:08:17.894Z</time></trkpt><trkpt lat="42.0983501" lon="12.6781283"><ele>82.66666666666667</ele><time>2026-05-03T15:08:18.871Z</time></trkpt><trkpt lat="42.0981499" lon="12.6779786"><ele>82.33333333333333</ele><time>2026-05-03T15:08:19.874Z</time></trkpt><trkpt lat="42.097969" lon="12.6778464"><ele>82.0</ele><time>2026-05-03T15:08:20.877Z</time></trkpt><trkpt lat="42.0978035" lon="12.6777203"><ele>82.0</ele><time>2026-05-03T15:08:21.874Z</time></trkpt><trkpt lat="42.0976271" lon="12.6775897"><ele>82.0</ele><time>2026-05-03T15:08:22.867Z</time></trkpt><trkpt lat="42.097452" lon="12.6774713"><ele>82.0</ele><time>2026-05-03T15:08:23.876Z</time></trkpt><trkpt lat="42.0972659" lon="12.6773545"><ele>84.0</ele><time>2026-05-03T15:08:24.872Z</time></trkpt><trkpt lat="42.0970775" lon="12.6772234"><ele>86.0</ele><time>2026-05-03T15:08:25.891Z</time></trkpt><trkpt lat="42.0968874" lon="12.6770848"><ele>88.0</ele><time>2026-05-03T15:08:26.879Z</time></trkpt><trkpt lat="42.0966843" lon="12.6769291"><ele>89.0</ele><time>2026-05-03T15:08:27.871Z</time></trkpt><trkpt lat="42.0964852" lon="12.676766"><ele>90.0</ele><time>2026-05-03T15:08:28.878Z</time></trkpt><trkpt lat="42.0962812" lon="12.676605"><ele>90.0</ele><time>2026-05-03T15:08:29.874Z</time></trkpt><trkpt lat="42.096107" lon="12.6764855"><ele>90.0</ele><time>2026-05-03T15:08:30.866Z</time></trkpt><trkpt lat="42.0959343" lon="12.6763598"><ele>90.0</ele><time>2026-05-03T15:08:31.862Z</time></trkpt><trkpt lat="42.0957821" lon="12.676256"><ele>90.5</ele><time>2026-05-03T15:08:32.866Z</time></trkpt><trkpt lat="42.0956467" lon="12.6761657"><ele>91.0</ele><time>2026-05-03T15:08:33.865Z</time></trkpt><trkpt lat="42.0955302" lon="12.6760894"><ele>91.5</ele><time>2026-05-03T15:08:34.862Z</time></trkpt><trkpt lat="42.0954425" lon="12.6760323"><ele>92.0</ele><time>2026-05-03T15:08:35.869Z</time></trkpt><trkpt lat="42.0953665" lon="12.6759631"><ele>92.0</ele><time>2026-05-03T15:08:36.875Z</time></trkpt><trkpt lat="42.0952886" lon="12.6759003"><ele>92.0</ele><time>2026-05-03T15:08:37.869Z</time></trkpt><trkpt lat="42.0952337" lon="12.6758423"><ele>92.0</ele><time>2026-05-03T15:08:38.885Z</time></trkpt><trkpt lat="42.0951785" lon="12.6757861"><ele>92.0</ele><time>2026-05-03T15:08:40.87Z</time></trkpt><trkpt lat="42.0951207" lon="12.6757462"><ele>92.0</ele><time>2026-05-03T15:09:08.88Z</time></trkpt><trkpt lat="42.0950439" lon="12.6757289"><ele>92.0</ele><time>2026-05-03T15:09:40.9Z</time></trkpt><trkpt lat="42.0949702" lon="12.6757017"><ele>92.0</ele><time>2026-05-03T15:09:41.89Z</time></trkpt><trkpt lat="42.0948598" lon="12.6756283"><ele>93.33333333333334</ele><time>2026-05-03T15:09:42.86Z</time></trkpt><trkpt lat="42.0947049" lon="12.6755558"><ele>94.66666666666667</ele><time>2026-05-03T15:09:43.869Z</time></trkpt><trkpt lat="42.0945514" lon="12.6754817"><ele>96.0</ele><time>2026-05-03T15:09:44.89Z</time></trkpt><trkpt lat="42.094408" lon="12.6754135"><ele>96.0</ele><time>2026-05-03T15:09:45.897Z</time></trkpt><trkpt lat="42.0942755" lon="12.6753421"><ele>96.0</ele><time>2026-05-03T15:09:46.893Z</time></trkpt><trkpt lat="42.0941467" lon="12.6752538"><ele>96.0</ele><time>2026-05-03T15:09:47.872Z</time></trkpt><trkpt lat="42.0940244" lon="12.6751735"><ele>96.0</ele><time>2026-05-03T15:09:48.877Z</time></trkpt><trkpt lat="42.0939079" lon="12.6751005"><ele>95.0</ele><time>2026-05-03T15:09:49.871Z</time></trkpt><trkpt lat="42.0937921" lon="12.675018"><ele>94.0</ele><time>2026-05-03T15:09:50.884Z</time></trkpt><trkpt lat="42.0936743" lon="12.674912"><ele>93.0</ele><time>2026-05-03T15:09:51.869Z</time></trkpt><trkpt lat="42.0935436" lon="12.674774"><ele>92.0</ele><time>2026-05-03T15:09:52.938Z</time></trkpt><trkpt lat="42.093397" lon="12.6746139"><ele>92.33333333333334</ele><time>2026-05-03T15:09:53.916Z</time></trkpt><trkpt lat="42.0932511" lon="12.674449"><ele>92.66666666666667</ele><time>2026-05-03T15:09:54.9Z</time></trkpt><trkpt lat="42.0931004" lon="12.6743113"><ele>93.0</ele><time>2026-05-03T15:09:55.902Z</time></trkpt><trkpt lat="42.0929482" lon="12.6741787"><ele>92.33333333333333</ele><time>2026-05-03T15:09:56.901Z</time></trkpt><trkpt lat="42.0928091" lon="12.674026"><ele>91.66666666666666</ele><time>2026-05-03T15:09:57.878Z</time></trkpt><trkpt lat="42.0926755" lon="12.6738921"><ele>91.0</ele><time>2026-05-03T15:09:58.874Z</time></trkpt><trkpt lat="42.0925411" lon="12.6737822"><ele>90.66666666666666</ele><time>2026-05-03T15:09:59.874Z</time></trkpt><trkpt lat="42.0924108" lon="12.6736485"><ele>90.33333333333333</ele><time>2026-05-03T15:10:00.871Z</time></trkpt><trkpt lat="42.0922881" lon="12.6735023"><ele>90.0</ele><time>2026-05-03T15:10:01.867Z</time></trkpt><trkpt lat="42.0921758" lon="12.6733644"><ele>90.75</ele><time>2026-05-03T15:10:02.866Z</time></trkpt><trkpt lat="42.0920774" lon="12.6732515"><ele>91.5</ele><time>2026-05-03T15:10:03.87Z</time></trkpt><trkpt lat="42.0919614" lon="12.6731492"><ele>92.25</ele><time>2026-05-03T15:10:04.873Z</time></trkpt><trkpt lat="42.0918566" lon="12.6730189"><ele>93.0</ele><time>2026-05-03T15:10:05.864Z</time></trkpt><trkpt lat="42.0917224" lon="12.6729151"><ele>93.0</ele><time>2026-05-03T15:10:06.865Z</time></trkpt><trkpt lat="42.0915791" lon="12.6727695"><ele>93.0</ele><time>2026-05-03T15:10:07.875Z</time></trkpt><trkpt lat="42.0914502" lon="12.6726232"><ele>93.0</ele><time>2026-05-03T15:10:08.897Z</time></trkpt><trkpt lat="42.0913097" lon="12.6724932"><ele>93.0</ele><time>2026-05-03T15:10:09.895Z</time></trkpt><trkpt lat="42.0911758" lon="12.6723955"><ele>93.0</ele><time>2026-05-03T15:10:10.875Z</time></trkpt><trkpt lat="42.0910546" lon="12.6723015"><ele>93.0</ele><time>2026-05-03T15:10:11.889Z</time></trkpt><trkpt lat="42.0909658" lon="12.6722122"><ele>93.0</ele><time>2026-05-03T15:10:12.889Z</time></trkpt><trkpt lat="42.0908959" lon="12.6721579"><ele>93.0</ele><time>2026-05-03T15:10:13.868Z</time></trkpt><trkpt lat="42.0908031" lon="12.6720951"><ele>93.0</ele><time>2026-05-03T15:10:14.871Z</time></trkpt><trkpt lat="42.0906677" lon="12.6720098"><ele>93.0</ele><time>2026-05-03T15:10:15.867Z</time></trkpt><trkpt lat="42.090534" lon="12.6719005"><ele>93.0</ele><time>2026-05-03T15:10:16.871Z</time></trkpt><trkpt lat="42.0904043" lon="12.6718436"><ele>93.25</ele><time>2026-05-03T15:10:17.869Z</time></trkpt><trkpt lat="42.0903025" lon="12.6717849"><ele>93.5</ele><time>2026-05-03T15:10:18.869Z</time></trkpt><trkpt lat="42.0902158" lon="12.671731"><ele>93.75</ele><time>2026-05-03T15:10:19.867Z</time></trkpt><trkpt lat="42.090106" lon="12.6716693"><ele>94.0</ele><time>2026-05-03T15:10:20.87Z</time></trkpt><trkpt lat="42.0899857" lon="12.6716221"><ele>93.33333333333333</ele><time>2026-05-03T15:10:21.87Z</time></trkpt><trkpt lat="42.0898244" lon="12.6715636"><ele>92.66666666666667</ele><time>2026-05-03T15:10:22.866Z</time></trkpt><trkpt lat="42.0896579" lon="12.6714967"><ele>92.0</ele><time>2026-05-03T15:10:23.873Z</time></trkpt><trkpt lat="42.0895191" lon="12.6714345"><ele>92.0</ele><time>2026-05-03T15:10:24.873Z</time></trkpt><trkpt lat="42.0893846" lon="12.671383"><ele>92.0</ele><time>2026-05-03T15:10:25.875Z</time></trkpt><trkpt lat="42.0892614" lon="12.6713371"><ele>92.0</ele><time>2026-05-03T15:10:26.876Z</time></trkpt><trkpt lat="42.089151" lon="12.6713059"><ele>92.0</ele><time>2026-05-03T15:10:27.877Z</time></trkpt><trkpt lat="42.0890562" lon="12.6712735"><ele>89.39999999999999</ele><time>2026-05-03T15:10:28.899Z</time></trkpt><trkpt lat="42.0889714" lon="12.6712384"><ele>86.8</ele><time>2026-05-03T15:10:29.868Z</time></trkpt><trkpt lat="42.0888922" lon="12.6712032"><ele>84.2</ele><time>2026-05-03T15:10:30.874Z</time></trkpt><trkpt lat="42.0887987" lon="12.671175"><ele>81.6</ele><time>2026-05-03T15:10:31.876Z</time></trkpt><trkpt lat="42.0886971" lon="12.6711475"><ele>79.0</ele><time>2026-05-03T15:10:32.869Z</time></trkpt><trkpt lat="42.0885753" lon="12.6711209"><ele>79.0</ele><time>2026-05-03T15:10:33.876Z</time></trkpt><trkpt lat="42.0884434" lon="12.6710929"><ele>79.0</ele><time>2026-05-03T15:10:34.865Z</time></trkpt><trkpt lat="42.0883249" lon="12.6710413"><ele>79.0</ele><time>2026-05-03T15:10:35.87Z</time></trkpt><trkpt lat="42.0881913" lon="12.6709958"><ele>79.0</ele><time>2026-05-03T15:10:36.865Z</time></trkpt><trkpt lat="42.088069" lon="12.6709197"><ele>74.5</ele><time>2026-05-03T15:10:37.857Z</time></trkpt><trkpt lat="42.0879483" lon="12.6708424"><ele>70.0</ele><time>2026-05-03T15:10:38.861Z</time></trkpt><trkpt lat="42.0878418" lon="12.6707666"><ele>65.5</ele><time>2026-05-03T15:10:39.862Z</time></trkpt><trkpt lat="42.0877528" lon="12.6706748"><ele>61.0</ele><time>2026-05-03T15:10:40.858Z</time></trkpt><trkpt lat="42.0876596" lon="12.6705836"><ele>61.0</ele><time>2026-05-03T15:10:41.852Z</time></trkpt><trkpt lat="42.0875671" lon="12.6705085"><ele>60.99999999999999</ele><time>2026-05-03T15:10:42.859Z</time></trkpt><trkpt lat="42.0874737" lon="12.6704359"><ele>60.99999999999999</ele><time>2026-05-03T15:10:43.854Z</time></trkpt><trkpt lat="42.0874156" lon="12.6703881"><ele>61.0</ele><time>2026-05-03T15:10:44.86Z</time></trkpt><trkpt lat="42.0873249" lon="12.6704632"><ele>61.0</ele><time>2026-05-03T15:10:47.883Z</time></trkpt><trkpt lat="42.0872977" lon="12.6705573"><ele>59.199999999999996</ele><time>2026-05-03T15:10:48.892Z</time></trkpt><trkpt lat="42.0872735" lon="12.6706925"><ele>57.39999999999999</ele><time>2026-05-03T15:10:49.865Z</time></trkpt><trkpt lat="42.0872494" lon="12.670834"><ele>55.6</ele><time>2026-05-03T15:10:50.86Z</time></trkpt><trkpt lat="42.0872177" lon="12.6709784"><ele>53.8</ele><time>2026-05-03T15:10:51.866Z</time></trkpt><trkpt lat="42.0871759" lon="12.6711003"><ele>52.0</ele><time>2026-05-03T15:10:52.858Z</time></trkpt><trkpt lat="42.0871322" lon="12.671224"><ele>51.83333333333333</ele><time>2026-05-03T15:10:53.857Z</time></trkpt><trkpt lat="42.0870518" lon="12.6713067"><ele>51.666666666666664</ele><time>2026-05-03T15:10:54.863Z</time></trkpt><trkpt lat="42.0869667" lon="12.6713648"><ele>51.5</ele><time>2026-05-03T15:10:55.905Z</time></trkpt><trkpt lat="42.0868879" lon="12.6714237"><ele>51.33333333333333</ele><time>2026-05-03T15:10:56.862Z</time></trkpt><trkpt lat="42.0868181" lon="12.6714489"><ele>51.166666666666664</ele><time>2026-05-03T15:10:57.871Z</time></trkpt><trkpt lat="42.0867291" lon="12.6714704"><ele>51.0</ele><time>2026-05-03T15:10:58.873Z</time></trkpt><trkpt lat="42.0866479" lon="12.6714782"><ele>51.5</ele><time>2026-05-03T15:10:59.874Z</time></trkpt><trkpt lat="42.0865664" lon="12.6714859"><ele>52.0</ele><time>2026-05-03T15:11:00.873Z</time></trkpt><trkpt lat="42.0864909" lon="12.6714918"><ele>52.5</ele><time>2026-05-03T15:11:01.871Z</time></trkpt><trkpt lat="42.0863898" lon="12.6714526"><ele>53.0</ele><time>2026-05-03T15:11:03.868Z</time></trkpt><trkpt lat="42.0863626" lon="12.6713743"><ele>53.5</ele><time>2026-05-03T15:11:04.886Z</time></trkpt><trkpt lat="42.0863212" lon="12.6712707"><ele>54.0</ele><time>2026-05-03T15:11:05.864Z</time></trkpt><trkpt lat="42.0862931" lon="12.6710845"><ele>54.0</ele><time>2026-05-03T15:11:06.871Z</time></trkpt><trkpt lat="42.086251" lon="12.670934"><ele>54.0</ele><time>2026-05-03T15:11:07.86Z</time></trkpt><trkpt lat="42.0862344" lon="12.6707101"><ele>54.0</ele><time>2026-05-03T15:11:08.865Z</time></trkpt><trkpt lat="42.086223" lon="12.670461"><ele>53.0</ele><time>2026-05-03T15:11:09.864Z</time></trkpt><trkpt lat="42.0862049" lon="12.6701029"><ele>52.0</ele><time>2026-05-03T15:11:10.867Z</time></trkpt><trkpt lat="42.0862322" lon="12.6697681"><ele>52.0</ele><time>2026-05-03T15:11:11.87Z</time></trkpt><trkpt lat="42.0862341" lon="12.6694716"><ele>52.0</ele><time>2026-05-03T15:11:12.892Z</time></trkpt><trkpt lat="42.0862254" lon="12.6691623"><ele>51.0</ele><time>2026-05-03T15:11:13.863Z</time></trkpt><trkpt lat="42.0862058" lon="12.6689013"><ele>50.0</ele><time>2026-05-03T15:11:14.87Z</time></trkpt><trkpt lat="42.0861806" lon="12.6686459"><ele>49.0</ele><time>2026-05-03T15:11:15.882Z</time></trkpt><trkpt lat="42.0861614" lon="12.6684143"><ele>49.0</ele><time>2026-05-03T15:11:16.865Z</time></trkpt><trkpt lat="42.0861451" lon="12.6681757"><ele>49.0</ele><time>2026-05-03T15:11:17.874Z</time></trkpt><trkpt lat="42.0861172" lon="12.6679482"><ele>49.0</ele><time>2026-05-03T15:11:18.867Z</time></trkpt><trkpt lat="42.0860829" lon="12.6677008"><ele>49.33333333333333</ele><time>2026-05-03T15:11:19.867Z</time></trkpt><trkpt lat="42.0860559" lon="12.6675238"><ele>49.66666666666667</ele><time>2026-05-03T15:11:20.866Z</time></trkpt><trkpt lat="42.0860189" lon="12.6673017"><ele>50.0</ele><time>2026-05-03T15:11:21.868Z</time></trkpt><trkpt lat="42.0859904" lon="12.6670983"><ele>49.75</ele><time>2026-05-03T15:11:22.865Z</time></trkpt><trkpt lat="42.0859708" lon="12.6668909"><ele>49.5</ele><time>2026-05-03T15:11:23.864Z</time></trkpt><trkpt lat="42.0859606" lon="12.6667333"><ele>49.25</ele><time>2026-05-03T15:11:24.862Z</time></trkpt><trkpt lat="42.0859373" lon="12.6665822"><ele>49.0</ele><time>2026-05-03T15:11:25.863Z</time></trkpt><trkpt lat="42.0858845" lon="12.6663649"><ele>49.0</ele><time>2026-05-03T15:11:26.866Z</time></trkpt><trkpt lat="42.0858864" lon="12.6661816"><ele>49.0</ele><time>2026-05-03T15:11:27.866Z</time></trkpt><trkpt lat="42.0858876" lon="12.6660078"><ele>49.0</ele><time>2026-05-03T15:11:28.867Z</time></trkpt><trkpt lat="42.0858765" lon="12.6658344"><ele>49.0</ele><time>2026-05-03T15:11:29.892Z</time></trkpt><trkpt lat="42.0858133" lon="12.6656688"><ele>48.75</ele><time>2026-05-03T15:11:30.864Z</time></trkpt><trkpt lat="42.0857743" lon="12.66551"><ele>48.5</ele><time>2026-05-03T15:11:31.871Z</time></trkpt><trkpt lat="42.0857616" lon="12.6653454"><ele>48.25</ele><time>2026-05-03T15:11:32.865Z</time></trkpt><trkpt lat="42.0857786" lon="12.6651688"><ele>48.0</ele><time>2026-05-03T15:11:33.867Z</time></trkpt><trkpt lat="42.0857779" lon="12.6649524"><ele>50.5</ele><time>2026-05-03T15:11:34.863Z</time></trkpt><trkpt lat="42.0857446" lon="12.6648091"><ele>53.0</ele><time>2026-05-03T15:11:35.868Z</time></trkpt><trkpt lat="42.0857237" lon="12.6646478"><ele>55.5</ele><time>2026-05-03T15:11:36.864Z</time></trkpt><trkpt lat="42.0857013" lon="12.6644947"><ele>58.0</ele><time>2026-05-03T15:11:37.873Z</time></trkpt><trkpt lat="42.0856791" lon="12.6643478"><ele>57.99999999999999</ele><time>2026-05-03T15:11:38.864Z</time></trkpt><trkpt lat="42.0856585" lon="12.664238"><ele>58.0</ele><time>2026-05-03T15:11:39.871Z</time></trkpt><trkpt lat="42.0855813" lon="12.6642191"><ele>58.0</ele><time>2026-05-03T15:12:09.873Z</time></trkpt><trkpt lat="42.0854984" lon="12.6642143"><ele>58.0</ele><time>2026-05-03T15:12:11.868Z</time></trkpt><trkpt lat="42.0854373" lon="12.6642381"><ele>57.99999999999999</ele><time>2026-05-03T15:12:25.871Z</time></trkpt><trkpt lat="42.0853765" lon="12.6641475"><ele>58.0</ele><time>2026-05-03T15:12:29.869Z</time></trkpt><trkpt lat="42.0853511" lon="12.6640604"><ele>58.0</ele><time>2026-05-03T15:12:30.864Z</time></trkpt><trkpt lat="42.0853283" lon="12.6639509"><ele>58.0</ele><time>2026-05-03T15:12:31.866Z</time></trkpt><trkpt lat="42.085289" lon="12.6638542"><ele>58.0</ele><time>2026-05-03T15:12:32.866Z</time></trkpt><trkpt lat="42.0852473" lon="12.663777"><ele>58.0</ele><time>2026-05-03T15:12:33.864Z</time></trkpt><trkpt lat="42.0851272" lon="12.6637804"><ele>58.0</ele><time>2026-05-03T15:12:35.912Z</time></trkpt><trkpt lat="42.0850352" lon="12.6638555"><ele>58.0</ele><time>2026-05-03T15:12:36.888Z</time></trkpt><trkpt lat="42.0849376" lon="12.6639398"><ele>58.0</ele><time>2026-05-03T15:12:37.888Z</time></trkpt><trkpt lat="42.0848481" lon="12.6640026"><ele>58.0</ele><time>2026-05-03T15:12:38.873Z</time></trkpt><trkpt lat="42.0847561" lon="12.664051"><ele>58.0</ele><time>2026-05-03T15:12:39.865Z</time></trkpt><trkpt lat="42.0846614" lon="12.6640338"><ele>58.0</ele><time>2026-05-03T15:12:40.865Z</time></trkpt><trkpt lat="42.0845461" lon="12.6640052"><ele>61.666666666666664</ele><time>2026-05-03T15:12:41.865Z</time></trkpt><trkpt lat="42.0844009" lon="12.6639515"><ele>65.33333333333333</ele><time>2026-05-03T15:12:42.869Z</time></trkpt><trkpt lat="42.0842262" lon="12.6638838"><ele>69.0</ele><time>2026-05-03T15:12:43.865Z</time></trkpt><trkpt lat="42.0840961" lon="12.6638362"><ele>69.0</ele><time>2026-05-03T15:12:44.865Z</time></trkpt><trkpt lat="42.0840017" lon="12.6637689"><ele>69.0</ele><time>2026-05-03T15:12:45.866Z</time></trkpt><trkpt lat="42.0838925" lon="12.6637281"><ele>69.0</ele><time>2026-05-03T15:12:46.869Z</time></trkpt><trkpt lat="42.0838092" lon="12.66367"><ele>69.0</ele><time>2026-05-03T15:12:47.867Z</time></trkpt><trkpt lat="42.0836898" lon="12.6636285"><ele>69.0</ele><time>2026-05-03T15:12:48.87Z</time></trkpt><trkpt lat="42.083559" lon="12.6636381"><ele>69.0</ele><time>2026-05-03T15:12:49.869Z</time></trkpt><trkpt lat="42.083434" lon="12.6636365"><ele>69.0</ele><time>2026-05-03T15:12:50.872Z</time></trkpt><trkpt lat="42.0833183" lon="12.6636699"><ele>69.0</ele><time>2026-05-03T15:12:51.957Z</time></trkpt><trkpt lat="42.0832337" lon="12.6636703"><ele>69.0</ele><time>2026-05-03T15:12:52.916Z</time></trkpt><trkpt lat="42.0831443" lon="12.6636744"><ele>69.0</ele><time>2026-05-03T15:12:53.892Z</time></trkpt><trkpt lat="42.0830721" lon="12.6637078"><ele>67.5</ele><time>2026-05-03T15:12:54.86Z</time></trkpt><trkpt lat="42.082978" lon="12.6637298"><ele>66.0</ele><time>2026-05-03T15:12:55.868Z</time></trkpt><trkpt lat="42.0828795" lon="12.6637263"><ele>64.5</ele><time>2026-05-03T15:12:56.87Z</time></trkpt><trkpt lat="42.0828012" lon="12.6637235"><ele>63.0</ele><time>2026-05-03T15:12:57.863Z</time></trkpt><trkpt lat="42.0827165" lon="12.6637168"><ele>61.5</ele><time>2026-05-03T15:12:58.866Z</time></trkpt><trkpt lat="42.0826484" lon="12.6637272"><ele>60.0</ele><time>2026-05-03T15:12:59.866Z</time></trkpt><trkpt lat="42.0825277" lon="12.6637874"><ele>60.0</ele><time>2026-05-03T15:13:01.869Z</time></trkpt><trkpt lat="42.0824721" lon="12.6638299"><ele>60.0</ele><time>2026-05-03T15:13:02.864Z</time></trkpt><trkpt lat="42.0824024" lon="12.6638876"><ele>60.0</ele><time>2026-05-03T15:13:03.865Z</time></trkpt><trkpt lat="42.082325" lon="12.6639407"><ele>60.0</ele><time>2026-05-03T15:13:04.865Z</time></trkpt><trkpt lat="42.0822448" lon="12.6640157"><ele>60.0</ele><time>2026-05-03T15:13:05.869Z</time></trkpt><trkpt lat="42.082146" lon="12.664088"><ele>60.0</ele><time>2026-05-03T15:13:06.865Z</time></trkpt><trkpt lat="42.0820547" lon="12.6641587"><ele>57.0</ele><time>2026-05-03T15:13:07.861Z</time></trkpt><trkpt lat="42.0819501" lon="12.664236"><ele>54.0</ele><time>2026-05-03T15:13:08.872Z</time></trkpt><trkpt lat="42.0818301" lon="12.6643034"><ele>51.0</ele><time>2026-05-03T15:13:09.862Z</time></trkpt><trkpt lat="42.0817179" lon="12.6644056"><ele>48.0</ele><time>2026-05-03T15:13:10.915Z</time></trkpt><trkpt lat="42.0815886" lon="12.664491"><ele>47.25</ele><time>2026-05-03T15:13:11.883Z</time></trkpt><trkpt lat="42.0814337" lon="12.6645748"><ele>46.5</ele><time>2026-05-03T15:13:12.889Z</time></trkpt><trkpt lat="42.0813114" lon="12.6646536"><ele>45.75</ele><time>2026-05-03T15:13:13.859Z</time></trkpt><trkpt lat="42.0812082" lon="12.6647183"><ele>45.0</ele><time>2026-05-03T15:13:14.866Z</time></trkpt><trkpt lat="42.0811159" lon="12.6647635"><ele>45.0</ele><time>2026-05-03T15:13:15.856Z</time></trkpt><trkpt lat="42.0810528" lon="12.6647921"><ele>45.0</ele><time>2026-05-03T15:13:16.869Z</time></trkpt><trkpt lat="42.0809685" lon="12.6647341"><ele>45.0</ele><time>2026-05-03T15:13:18.86Z</time></trkpt><trkpt lat="42.0809167" lon="12.6646358"><ele>45.0</ele><time>2026-05-03T15:13:19.87Z</time></trkpt><trkpt lat="42.0808496" lon="12.6645313"><ele>45.0</ele><time>2026-05-03T15:13:20.868Z</time></trkpt><trkpt lat="42.080793" lon="12.6644533"><ele>45.0</ele><time>2026-05-03T15:13:21.871Z</time></trkpt><trkpt lat="42.0807431" lon="12.664382"><ele>44.8</ele><time>2026-05-03T15:13:22.87Z</time></trkpt><trkpt lat="42.080689" lon="12.6643153"><ele>44.6</ele><time>2026-05-03T15:13:23.869Z</time></trkpt><trkpt lat="42.0806147" lon="12.6642312"><ele>44.400000000000006</ele><time>2026-05-03T15:13:24.864Z</time></trkpt><trkpt lat="42.0805525" lon="12.6641425"><ele>44.2</ele><time>2026-05-03T15:13:25.865Z</time></trkpt><trkpt lat="42.0804907" lon="12.6640446"><ele>44.0</ele><time>2026-05-03T15:13:26.867Z</time></trkpt><trkpt lat="42.0804219" lon="12.663937"><ele>44.0</ele><time>2026-05-03T15:13:27.866Z</time></trkpt><trkpt lat="42.080353" lon="12.6638235"><ele>44.0</ele><time>2026-05-03T15:13:28.868Z</time></trkpt><trkpt lat="42.0802709" lon="12.6637003"><ele>44.0</ele><time>2026-05-03T15:13:29.862Z</time></trkpt><trkpt lat="42.0801822" lon="12.6635847"><ele>44.0</ele><time>2026-05-03T15:13:30.864Z</time></trkpt><trkpt lat="42.0800936" lon="12.6634806"><ele>45.6</ele><time>2026-05-03T15:13:31.863Z</time></trkpt><trkpt lat="42.0800094" lon="12.6634015"><ele>47.2</ele><time>2026-05-03T15:13:32.865Z</time></trkpt><trkpt lat="42.0799268" lon="12.6633352"><ele>48.800000000000004</ele><time>2026-05-03T15:13:33.861Z</time></trkpt><trkpt lat="42.0798397" lon="12.6632594"><ele>50.400000000000006</ele><time>2026-05-03T15:13:34.859Z</time></trkpt><trkpt lat="42.0797513" lon="12.6631729"><ele>52.0</ele><time>2026-05-03T15:13:35.864Z</time></trkpt><trkpt lat="42.0796639" lon="12.6630791"><ele>53.2</ele><time>2026-05-03T15:13:36.858Z</time></trkpt><trkpt lat="42.0795735" lon="12.6630067"><ele>54.400000000000006</ele><time>2026-05-03T15:13:37.856Z</time></trkpt><trkpt lat="42.0794793" lon="12.6629464"><ele>55.599999999999994</ele><time>2026-05-03T15:13:38.859Z</time></trkpt><trkpt lat="42.079385" lon="12.6628817"><ele>56.8</ele><time>2026-05-03T15:13:39.866Z</time></trkpt><trkpt lat="42.0792861" lon="12.6628147"><ele>58.0</ele><time>2026-05-03T15:13:40.855Z</time></trkpt><trkpt lat="42.0791888" lon="12.6627551"><ele>59.8</ele><time>2026-05-03T15:13:41.863Z</time></trkpt><trkpt lat="42.0790868" lon="12.6627127"><ele>61.599999999999994</ele><time>2026-05-03T15:13:42.859Z</time></trkpt><trkpt lat="42.0789756" lon="12.6626807"><ele>63.400000000000006</ele><time>2026-05-03T15:13:43.858Z</time></trkpt><trkpt lat="42.07887" lon="12.662651"><ele>65.2</ele><time>2026-05-03T15:13:44.86Z</time></trkpt><trkpt lat="42.0787706" lon="12.6626147"><ele>67.0</ele><time>2026-05-03T15:13:45.853Z</time></trkpt><trkpt lat="42.0786874" lon="12.6625649"><ele>67.0</ele><time>2026-05-03T15:13:46.881Z</time></trkpt><trkpt lat="42.0786095" lon="12.6625028"><ele>67.0</ele><time>2026-05-03T15:13:47.85Z</time></trkpt><trkpt lat="42.078529" lon="12.6624414"><ele>67.0</ele><time>2026-05-03T15:13:48.862Z</time></trkpt><trkpt lat="42.0784411" lon="12.6623729"><ele>67.0</ele><time>2026-05-03T15:13:49.819Z</time></trkpt><trkpt lat="42.0783553" lon="12.6622968"><ele>67.0</ele><time>2026-05-03T15:13:50.841Z</time></trkpt><trkpt lat="42.0782678" lon="12.6622255"><ele>67.6</ele><time>2026-05-03T15:13:51.826Z</time></trkpt><trkpt lat="42.0781816" lon="12.6621502"><ele>68.2</ele><time>2026-05-03T15:13:52.828Z</time></trkpt><trkpt lat="42.0781085" lon="12.6620622"><ele>68.8</ele><time>2026-05-03T15:13:53.824Z</time></trkpt><trkpt lat="42.0780616" lon="12.6619725"><ele>69.4</ele><time>2026-05-03T15:13:54.835Z</time></trkpt><trkpt lat="42.0780236" lon="12.6618452"><ele>70.0</ele><time>2026-05-03T15:13:57.846Z</time></trkpt><trkpt lat="42.0780591" lon="12.6617544"><ele>70.85714285714286</ele><time>2026-05-03T15:14:26.865Z</time></trkpt><trkpt lat="42.0780177" lon="12.6616707"><ele>71.71428571428572</ele><time>2026-05-03T15:15:08.858Z</time></trkpt><trkpt lat="42.0780354" lon="12.6615882"><ele>72.57142857142857</ele><time>2026-05-03T15:15:26.854Z</time></trkpt><trkpt lat="42.0781057" lon="12.6615172"><ele>73.42857142857143</ele><time>2026-05-03T15:15:42.859Z</time></trkpt><trkpt lat="42.0780725" lon="12.6614439"><ele>74.28571428571429</ele><time>2026-05-03T15:15:59.844Z</time></trkpt><trkpt lat="42.0780662" lon="12.661547"><ele>75.14285714285714</ele><time>2026-05-03T15:16:35.856Z</time></trkpt><trkpt lat="42.0781297" lon="12.6616174"><ele>76.0</ele><time>2026-05-03T15:17:14.851Z</time></trkpt><trkpt lat="42.0782038" lon="12.661672"><ele>76.0</ele><time>2026-05-03T15:19:21.009Z</time></trkpt><trkpt lat="42.0782495" lon="12.6617374"><ele>76.0</ele><time>2026-05-03T15:19:39.014Z</time></trkpt><trkpt lat="42.0782872" lon="12.6618063"><ele>76.0</ele><time>2026-05-03T15:19:45.007Z</time></trkpt><trkpt lat="42.0783494" lon="12.6618554"><ele>76.0</ele><time>2026-05-03T15:19:49.02Z</time></trkpt><trkpt lat="42.0784017" lon="12.6619148"><ele>76.0</ele><time>2026-05-03T15:19:58.012Z</time></trkpt><trkpt lat="42.0784373" lon="12.662013"><ele>76.0</ele><time>2026-05-03T15:20:14.021Z</time></trkpt><trkpt lat="42.0784829" lon="12.6621091"><ele>76.0</ele><time>2026-05-03T15:20:20.018Z</time></trkpt><trkpt lat="42.0785056" lon="12.6622089"><ele>74.5</ele><time>2026-05-03T15:20:23.014Z</time></trkpt><trkpt lat="42.0785351" lon="12.6623131"><ele>73.0</ele><time>2026-05-03T15:20:27.015Z</time></trkpt><trkpt lat="42.0785362" lon="12.6624178"><ele>71.5</ele><time>2026-05-03T15:20:31.012Z</time></trkpt><trkpt lat="42.0785534" lon="12.6625003"><ele>70.0</ele><time>2026-05-03T15:20:37.011Z</time></trkpt><trkpt lat="42.0786634" lon="12.6625362"><ele>68.5</ele><time>2026-05-03T15:21:11.853Z</time></trkpt><trkpt lat="42.0787246" lon="12.6625716"><ele>67.0</ele><time>2026-05-03T15:21:31.867Z</time></trkpt><trkpt lat="42.0788015" lon="12.6626145"><ele>67.0</ele><time>2026-05-03T15:21:33.868Z</time></trkpt><trkpt lat="42.0789069" lon="12.6626601"><ele>67.0</ele><time>2026-05-03T15:21:35.871Z</time></trkpt><trkpt lat="42.0790284" lon="12.6626781"><ele>67.0</ele><time>2026-05-03T15:21:37.864Z</time></trkpt><trkpt lat="42.0791319" lon="12.6627155"><ele>67.0</ele><time>2026-05-03T15:21:39.854Z</time></trkpt><trkpt lat="42.0791948" lon="12.6627362"><ele>67.0</ele><time>2026-05-03T15:21:40.86Z</time></trkpt><trkpt lat="42.0793048" lon="12.6627885"><ele>65.2</ele><time>2026-05-03T15:21:42.865Z</time></trkpt><trkpt lat="42.0793949" lon="12.6628477"><ele>63.400000000000006</ele><time>2026-05-03T15:21:44.857Z</time></trkpt><trkpt lat="42.0794747" lon="12.6629051"><ele>61.599999999999994</ele><time>2026-05-03T15:21:46.868Z</time></trkpt><trkpt lat="42.0795427" lon="12.6629553"><ele>59.8</ele><time>2026-05-03T15:21:48.866Z</time></trkpt><trkpt lat="42.0796302" lon="12.6630342"><ele>58.0</ele><time>2026-05-03T15:21:50.872Z</time></trkpt><trkpt lat="42.0797096" lon="12.6631282"><ele>58.0</ele><time>2026-05-03T15:21:52.868Z</time></trkpt><trkpt lat="42.0797835" lon="12.6632037"><ele>58.0</ele><time>2026-05-03T15:21:54.864Z</time></trkpt><trkpt lat="42.0798557" lon="12.6632899"><ele>58.0</ele><time>2026-05-03T15:21:56.868Z</time></trkpt><trkpt lat="42.079942" lon="12.6633588"><ele>58.0</ele><time>2026-05-03T15:21:58.864Z</time></trkpt><trkpt lat="42.0800181" lon="12.6634396"><ele>58.0</ele><time>2026-05-03T15:22:00.868Z</time></trkpt><trkpt lat="42.0800871" lon="12.6634986"><ele>56.99999999999999</ele><time>2026-05-03T15:22:02.869Z</time></trkpt><trkpt lat="42.0801527" lon="12.6635711"><ele>56.0</ele><time>2026-05-03T15:22:04.864Z</time></trkpt><trkpt lat="42.0802199" lon="12.6636349"><ele>55.0</ele><time>2026-05-03T15:22:06.874Z</time></trkpt><trkpt lat="42.080288" lon="12.6637104"><ele>54.0</ele><time>2026-05-03T15:22:09.856Z</time></trkpt><trkpt lat="42.080331" lon="12.6637757"><ele>52.99999999999999</ele><time>2026-05-03T15:22:15.868Z</time></trkpt><trkpt lat="42.0802645" lon="12.663761"><ele>52.0</ele><time>2026-05-03T15:22:22.871Z</time></trkpt><trkpt lat="42.0802313" lon="12.663686"><ele>52.0</ele><time>2026-05-03T15:22:54.883Z</time></trkpt><trkpt lat="42.0801702" lon="12.6635725"><ele>52.0</ele><time>2026-05-03T15:22:56.876Z</time></trkpt><trkpt lat="42.0801028" lon="12.6634977"><ele>52.0</ele><time>2026-05-03T15:22:57.884Z</time></trkpt><trkpt lat="42.0800275" lon="12.6634199"><ele>52.0</ele><time>2026-05-03T15:22:58.873Z</time></trkpt><trkpt lat="42.0799464" lon="12.6633578"><ele>52.0</ele><time>2026-05-03T15:22:59.886Z</time></trkpt><trkpt lat="42.0798551" lon="12.6632902"><ele>53.2</ele><time>2026-05-03T15:23:00.883Z</time></trkpt><trkpt lat="42.0797662" lon="12.6632184"><ele>54.400000000000006</ele><time>2026-05-03T15:23:01.879Z</time></trkpt><trkpt lat="42.0796721" lon="12.6631211"><ele>55.599999999999994</ele><time>2026-05-03T15:23:02.884Z</time></trkpt><trkpt lat="42.0795855" lon="12.6630563"><ele>56.8</ele><time>2026-05-03T15:23:03.881Z</time></trkpt><trkpt lat="42.0794928" lon="12.6629872"><ele>58.0</ele><time>2026-05-03T15:23:04.922Z</time></trkpt><trkpt lat="42.0793917" lon="12.6629168"><ele>58.0</ele><time>2026-05-03T15:23:05.924Z</time></trkpt><trkpt lat="42.0792856" lon="12.662853"><ele>58.0</ele><time>2026-05-03T15:23:06.924Z</time></trkpt><trkpt lat="42.0791737" lon="12.6627948"><ele>58.0</ele><time>2026-05-03T15:23:07.927Z</time></trkpt><trkpt lat="42.0790659" lon="12.6627505"><ele>58.0</ele><time>2026-05-03T15:23:08.906Z</time></trkpt><trkpt lat="42.0789523" lon="12.6627192"><ele>59.8</ele><time>2026-05-03T15:23:09.9Z</time></trkpt><trkpt lat="42.0788487" lon="12.6626872"><ele>61.599999999999994</ele><time>2026-05-03T15:23:10.902Z</time></trkpt><trkpt lat="42.0787586" lon="12.6626352"><ele>63.400000000000006</ele><time>2026-05-03T15:23:11.902Z</time></trkpt><trkpt lat="42.0786705" lon="12.6625733"><ele>65.2</ele><time>2026-05-03T15:23:12.903Z</time></trkpt><trkpt lat="42.0785921" lon="12.6625046"><ele>67.0</ele><time>2026-05-03T15:23:13.928Z</time></trkpt><trkpt lat="42.0785172" lon="12.6624242"><ele>67.0</ele><time>2026-05-03T15:23:14.904Z</time></trkpt><trkpt lat="42.0784362" lon="12.6623282"><ele>67.0</ele><time>2026-05-03T15:23:15.906Z</time></trkpt><trkpt lat="42.0783468" lon="12.6622369"><ele>67.0</ele><time>2026-05-03T15:23:16.899Z</time></trkpt><trkpt lat="42.0782448" lon="12.6621601"><ele>67.0</ele><time>2026-05-03T15:23:17.894Z</time></trkpt><trkpt lat="42.0781377" lon="12.6621025"><ele>67.6</ele><time>2026-05-03T15:23:18.889Z</time></trkpt><trkpt lat="42.0780395" lon="12.6620425"><ele>68.2</ele><time>2026-05-03T15:23:19.903Z</time></trkpt><trkpt lat="42.0779544" lon="12.6619571"><ele>68.8</ele><time>2026-05-03T15:23:20.906Z</time></trkpt><trkpt lat="42.0778784" lon="12.6618617"><ele>69.4</ele><time>2026-05-03T15:23:21.889Z</time></trkpt><trkpt lat="42.0778132" lon="12.6617858"><ele>70.0</ele><time>2026-05-03T15:23:22.885Z</time></trkpt><trkpt lat="42.0777381" lon="12.6617286"><ele>70.2</ele><time>2026-05-03T15:23:23.884Z</time></trkpt><trkpt lat="42.0776466" lon="12.6616744"><ele>70.4</ele><time>2026-05-03T15:23:24.879Z</time></trkpt><trkpt lat="42.0775373" lon="12.6616114"><ele>70.6</ele><time>2026-05-03T15:23:25.892Z</time></trkpt><trkpt lat="42.0774346" lon="12.6615372"><ele>70.8</ele><time>2026-05-03T15:23:26.88Z</time></trkpt><trkpt lat="42.0773418" lon="12.6614547"><ele>71.0</ele><time>2026-05-03T15:23:27.886Z</time></trkpt><trkpt lat="42.077249" lon="12.6613894"><ele>71.0</ele><time>2026-05-03T15:23:28.886Z</time></trkpt><trkpt lat="42.0771505" lon="12.6613339"><ele>71.0</ele><time>2026-05-03T15:23:29.89Z</time></trkpt><trkpt lat="42.0770428" lon="12.6612765"><ele>71.0</ele><time>2026-05-03T15:23:30.888Z</time></trkpt><trkpt lat="42.0769434" lon="12.6612316"><ele>71.0</ele><time>2026-05-03T15:23:31.894Z</time></trkpt><trkpt lat="42.0768408" lon="12.6611818"><ele>71.0</ele><time>2026-05-03T15:23:32.877Z</time></trkpt><trkpt lat="42.076726" lon="12.6611416"><ele>73.0</ele><time>2026-05-03T15:23:33.894Z</time></trkpt><trkpt lat="42.0766047" lon="12.6610952"><ele>75.0</ele><time>2026-05-03T15:23:34.888Z</time></trkpt><trkpt lat="42.0764778" lon="12.6610643"><ele>77.0</ele><time>2026-05-03T15:23:35.891Z</time></trkpt><trkpt lat="42.0763477" lon="12.6610461"><ele>79.0</ele><time>2026-05-03T15:23:36.884Z</time></trkpt><trkpt lat="42.0762289" lon="12.661029"><ele>80.6</ele><time>2026-05-03T15:23:37.888Z</time></trkpt><trkpt lat="42.0761297" lon="12.6610225"><ele>82.2</ele><time>2026-05-03T15:23:38.885Z</time></trkpt><trkpt lat="42.0760378" lon="12.6610235"><ele>83.8</ele><time>2026-05-03T15:23:39.88Z</time></trkpt><trkpt lat="42.0759483" lon="12.6610333"><ele>85.39999999999999</ele><time>2026-05-03T15:23:40.886Z</time></trkpt><trkpt lat="42.0758615" lon="12.6610185"><ele>87.0</ele><time>2026-05-03T15:23:41.877Z</time></trkpt><trkpt lat="42.0757592" lon="12.6609926"><ele>87.0</ele><time>2026-05-03T15:23:42.877Z</time></trkpt><trkpt lat="42.0756422" lon="12.6609656"><ele>87.0</ele><time>2026-05-03T15:23:43.872Z</time></trkpt><trkpt lat="42.0755334" lon="12.6609272"><ele>87.0</ele><time>2026-05-03T15:23:44.875Z</time></trkpt><trkpt lat="42.0754523" lon="12.6609"><ele>87.0</ele><time>2026-05-03T15:23:45.874Z</time></trkpt><trkpt lat="42.0753882" lon="12.6608688"><ele>87.0</ele><time>2026-05-03T15:23:46.876Z</time></trkpt><trkpt lat="42.0753224" lon="12.6608348"><ele>87.0</ele><time>2026-05-03T15:23:47.88Z</time></trkpt><trkpt lat="42.0752468" lon="12.6607741"><ele>87.0</ele><time>2026-05-03T15:23:49.883Z</time></trkpt><trkpt lat="42.0751727" lon="12.6607153"><ele>87.0</ele><time>2026-05-03T15:23:51.888Z</time></trkpt><trkpt lat="42.0750508" lon="12.6606299"><ele>87.0</ele><time>2026-05-03T15:23:53.884Z</time></trkpt><trkpt lat="42.0749703" lon="12.6605742"><ele>87.0</ele><time>2026-05-03T15:23:54.878Z</time></trkpt><trkpt lat="42.0749089" lon="12.6605337"><ele>86.33333333333333</ele><time>2026-05-03T15:23:55.88Z</time></trkpt><trkpt lat="42.074862" lon="12.6604716"><ele>85.66666666666667</ele><time>2026-05-03T15:23:56.882Z</time></trkpt><trkpt lat="42.0747847" lon="12.6603493"><ele>85.0</ele><time>2026-05-03T15:23:58.906Z</time></trkpt><trkpt lat="42.0747194" lon="12.6602674"><ele>84.33333333333334</ele><time>2026-05-03T15:24:00.907Z</time></trkpt><trkpt lat="42.0746699" lon="12.6602111"><ele>83.66666666666667</ele><time>2026-05-03T15:24:02.927Z</time></trkpt><trkpt lat="42.0746231" lon="12.6601388"><ele>83.0</ele><time>2026-05-03T15:24:03.927Z</time></trkpt><trkpt lat="42.0745621" lon="12.6600409"><ele>85.80000000000001</ele><time>2026-05-03T15:24:04.901Z</time></trkpt><trkpt lat="42.0744943" lon="12.6599379"><ele>88.6</ele><time>2026-05-03T15:24:05.91Z</time></trkpt><trkpt lat="42.0744223" lon="12.6598222"><ele>91.4</ele><time>2026-05-03T15:24:06.917Z</time></trkpt><trkpt lat="42.0743459" lon="12.6596995"><ele>94.19999999999999</ele><time>2026-05-03T15:24:07.929Z</time></trkpt><trkpt lat="42.074266" lon="12.6595972"><ele>97.0</ele><time>2026-05-03T15:24:08.922Z</time></trkpt><trkpt lat="42.0741818" lon="12.6595144"><ele>99.75</ele><time>2026-05-03T15:24:09.9Z</time></trkpt><trkpt lat="42.0740831" lon="12.6594374"><ele>102.5</ele><time>2026-05-03T15:24:10.895Z</time></trkpt><trkpt lat="42.0739674" lon="12.6593638"><ele>105.25</ele><time>2026-05-03T15:24:11.919Z</time></trkpt><trkpt lat="42.0738487" lon="12.6592834"><ele>108.0</ele><time>2026-05-03T15:24:12.918Z</time></trkpt><trkpt lat="42.0737447" lon="12.6592119"><ele>108.0</ele><time>2026-05-03T15:24:13.924Z</time></trkpt><trkpt lat="42.0736465" lon="12.6591334"><ele>108.0</ele><time>2026-05-03T15:24:14.89Z</time></trkpt><trkpt lat="42.0735403" lon="12.6590699"><ele>108.0</ele><time>2026-05-03T15:24:15.874Z</time></trkpt><trkpt lat="42.0734345" lon="12.6590113"><ele>108.0</ele><time>2026-05-03T15:24:16.928Z</time></trkpt><trkpt lat="42.073324" lon="12.658959"><ele>108.60000000000001</ele><time>2026-05-03T15:24:17.905Z</time></trkpt><trkpt lat="42.0732213" lon="12.6589108"><ele>109.20000000000002</ele><time>2026-05-03T15:24:18.878Z</time></trkpt><trkpt lat="42.0731308" lon="12.6588508"><ele>109.8</ele><time>2026-05-03T15:24:19.88Z</time></trkpt><trkpt lat="42.0730671" lon="12.658798"><ele>110.4</ele><time>2026-05-03T15:24:20.909Z</time></trkpt><trkpt lat="42.0729852" lon="12.6587361"><ele>111.0</ele><time>2026-05-03T15:24:21.882Z</time></trkpt><trkpt lat="42.0728861" lon="12.6586757"><ele>111.0</ele><time>2026-05-03T15:24:22.894Z</time></trkpt><trkpt lat="42.0727629" lon="12.6586243"><ele>111.0</ele><time>2026-05-03T15:24:23.888Z</time></trkpt><trkpt lat="42.0726389" lon="12.6585857"><ele>111.0</ele><time>2026-05-03T15:24:24.881Z</time></trkpt><trkpt lat="42.0725076" lon="12.6585435"><ele>111.0</ele><time>2026-05-03T15:24:25.883Z</time></trkpt><trkpt lat="42.0723849" lon="12.6584969"><ele>109.25</ele><time>2026-05-03T15:24:26.892Z</time></trkpt><trkpt lat="42.0722596" lon="12.6584513"><ele>107.5</ele><time>2026-05-03T15:24:27.876Z</time></trkpt><trkpt lat="42.0721423" lon="12.6584083"><ele>105.75</ele><time>2026-05-03T15:24:28.892Z</time></trkpt><trkpt lat="42.0720224" lon="12.6583657"><ele>104.0</ele><time>2026-05-03T15:24:29.883Z</time></trkpt><trkpt lat="42.0719048" lon="12.6583189"><ele>104.0</ele><time>2026-05-03T15:24:30.888Z</time></trkpt><trkpt lat="42.0717943" lon="12.6582673"><ele>104.0</ele><time>2026-05-03T15:24:31.896Z</time></trkpt><trkpt lat="42.0716919" lon="12.6582115"><ele>104.0</ele><time>2026-05-03T15:24:32.884Z</time></trkpt><trkpt lat="42.0715756" lon="12.6581531"><ele>104.0</ele><time>2026-05-03T15:24:33.887Z</time></trkpt><trkpt lat="42.0714503" lon="12.6580969"><ele>103.75</ele><time>2026-05-03T15:24:34.939Z</time></trkpt><trkpt lat="42.071333" lon="12.6580434"><ele>103.5</ele><time>2026-05-03T15:24:35.93Z</time></trkpt><trkpt lat="42.0712217" lon="12.6579961"><ele>103.25</ele><time>2026-05-03T15:24:36.916Z</time></trkpt><trkpt lat="42.0711082" lon="12.6579551"><ele>103.0</ele><time>2026-05-03T15:24:37.896Z</time></trkpt><trkpt lat="42.071005" lon="12.6579182"><ele>103.00000000000001</ele><time>2026-05-03T15:24:38.885Z</time></trkpt><trkpt lat="42.0709313" lon="12.6578898"><ele>103.0</ele><time>2026-05-03T15:24:39.888Z</time></trkpt><trkpt lat="42.0708625" lon="12.6578718"><ele>103.0</ele><time>2026-05-03T15:24:40.887Z</time></trkpt><trkpt lat="42.0707971" lon="12.65785"><ele>103.0</ele><time>2026-05-03T15:24:41.886Z</time></trkpt><trkpt lat="42.0706878" lon="12.657833"><ele>103.00000000000001</ele><time>2026-05-03T15:24:43.908Z</time></trkpt><trkpt lat="42.0706191" lon="12.6578163"><ele>103.0</ele><time>2026-05-03T15:24:45.881Z</time></trkpt><trkpt lat="42.0705621" lon="12.6577694"><ele>102.42857142857142</ele><time>2026-05-03T15:25:09.877Z</time></trkpt><trkpt lat="42.0704892" lon="12.6577533"><ele>101.85714285714286</ele><time>2026-05-03T15:25:27.871Z</time></trkpt><trkpt lat="42.0704239" lon="12.6577315"><ele>101.28571428571428</ele><time>2026-05-03T15:25:43.872Z</time></trkpt><trkpt lat="42.0703683" lon="12.6576912"><ele>100.71428571428571</ele><time>2026-05-03T15:25:45.88Z</time></trkpt><trkpt lat="42.0703251" lon="12.6575935"><ele>100.14285714285714</ele><time>2026-05-03T15:25:47.869Z</time></trkpt><trkpt lat="42.0702591" lon="12.6575504"><ele>99.57142857142857</ele><time>2026-05-03T15:25:49.873Z</time></trkpt><trkpt lat="42.0701955" lon="12.6575089"><ele>99.0</ele><time>2026-05-03T15:25:59.88Z</time></trkpt><trkpt lat="42.0701045" lon="12.6574486"><ele>99.0</ele><time>2026-05-03T15:26:01.878Z</time></trkpt><trkpt lat="42.0700028" lon="12.6573858"><ele>99.0</ele><time>2026-05-03T15:26:02.876Z</time></trkpt><trkpt lat="42.0699279" lon="12.65733"><ele>99.0</ele><time>2026-05-03T15:26:03.879Z</time></trkpt><trkpt lat="42.0698473" lon="12.6572341"><ele>99.0</ele><time>2026-05-03T15:26:04.872Z</time></trkpt><trkpt lat="42.0697522" lon="12.6571611"><ele>99.0</ele><time>2026-05-03T15:26:05.872Z</time></trkpt><trkpt lat="42.0696497" lon="12.6570864"><ele>99.5</ele><time>2026-05-03T15:26:06.872Z</time></trkpt><trkpt lat="42.0695453" lon="12.6570325"><ele>100.0</ele><time>2026-05-03T15:26:07.872Z</time></trkpt><trkpt lat="42.0694309" lon="12.6569646"><ele>100.5</ele><time>2026-05-03T15:26:08.868Z</time></trkpt><trkpt lat="42.0693094" lon="12.6569154"><ele>101.0</ele><time>2026-05-03T15:26:09.869Z</time></trkpt><trkpt lat="42.0691816" lon="12.6568849"><ele>102.33333333333333</ele><time>2026-05-03T15:26:10.868Z</time></trkpt><trkpt lat="42.0690449" lon="12.6568388"><ele>103.66666666666666</ele><time>2026-05-03T15:26:11.87Z</time></trkpt><trkpt lat="42.0688659" lon="12.6567739"><ele>105.0</ele><time>2026-05-03T15:26:12.875Z</time></trkpt><trkpt lat="42.0686962" lon="12.6567175"><ele>105.0</ele><time>2026-05-03T15:26:13.873Z</time></trkpt><trkpt lat="42.0685159" lon="12.6566776"><ele>105.0</ele><time>2026-05-03T15:26:14.895Z</time></trkpt><trkpt lat="42.0683432" lon="12.6566444"><ele>105.0</ele><time>2026-05-03T15:26:15.869Z</time></trkpt><trkpt lat="42.0681475" lon="12.6565705"><ele>106.0</ele><time>2026-05-03T15:26:16.873Z</time></trkpt><trkpt lat="42.0679391" lon="12.6565147"><ele>107.0</ele><time>2026-05-03T15:26:17.873Z</time></trkpt><trkpt lat="42.0677397" lon="12.6564538"><ele>108.0</ele><time>2026-05-03T15:26:18.864Z</time></trkpt><trkpt lat="42.0675554" lon="12.6563631"><ele>107.0</ele><time>2026-05-03T15:26:19.866Z</time></trkpt><trkpt lat="42.0673797" lon="12.6562955"><ele>106.0</ele><time>2026-05-03T15:26:20.872Z</time></trkpt><trkpt lat="42.0671855" lon="12.6562195"><ele>105.0</ele><time>2026-05-03T15:26:21.872Z</time></trkpt><trkpt lat="42.0670228" lon="12.6561253"><ele>105.33333333333334</ele><time>2026-05-03T15:26:22.899Z</time></trkpt><trkpt lat="42.0668522" lon="12.6560422"><ele>105.66666666666667</ele><time>2026-05-03T15:26:23.887Z</time></trkpt><trkpt lat="42.0666629" lon="12.6559575"><ele>106.0</ele><time>2026-05-03T15:26:24.892Z</time></trkpt><trkpt lat="42.0664595" lon="12.6558303"><ele>106.0</ele><time>2026-05-03T15:26:25.87Z</time></trkpt><trkpt lat="42.0662501" lon="12.6557106"><ele>106.0</ele><time>2026-05-03T15:26:26.891Z</time></trkpt><trkpt lat="42.0660499" lon="12.6556081"><ele>106.0</ele><time>2026-05-03T15:26:27.868Z</time></trkpt><trkpt lat="42.065846" lon="12.6555225"><ele>106.33333333333334</ele><time>2026-05-03T15:26:28.864Z</time></trkpt><trkpt lat="42.0656516" lon="12.655431"><ele>106.66666666666666</ele><time>2026-05-03T15:26:29.865Z</time></trkpt><trkpt lat="42.0654696" lon="12.6553412"><ele>107.0</ele><time>2026-05-03T15:26:30.862Z</time></trkpt><trkpt lat="42.0652928" lon="12.6552596"><ele>107.0</ele><time>2026-05-03T15:26:31.866Z</time></trkpt><trkpt lat="42.0651254" lon="12.6551719"><ele>107.0</ele><time>2026-05-03T15:26:32.862Z</time></trkpt><trkpt lat="42.0649213" lon="12.6550696"><ele>107.0</ele><time>2026-05-03T15:26:33.87Z</time></trkpt><trkpt lat="42.0646912" lon="12.6549727"><ele>106.33333333333333</ele><time>2026-05-03T15:26:34.875Z</time></trkpt><trkpt lat="42.0644931" lon="12.6548599"><ele>105.66666666666666</ele><time>2026-05-03T15:26:35.877Z</time></trkpt><trkpt lat="42.064285" lon="12.6547346"><ele>105.0</ele><time>2026-05-03T15:26:36.897Z</time></trkpt><trkpt lat="42.0640692" lon="12.654648"><ele>104.66666666666666</ele><time>2026-05-03T15:26:37.872Z</time></trkpt><trkpt lat="42.063873" lon="12.6545536"><ele>104.33333333333333</ele><time>2026-05-03T15:26:38.912Z</time></trkpt><trkpt lat="42.063657" lon="12.6544671"><ele>104.0</ele><time>2026-05-03T15:26:39.9Z</time></trkpt><trkpt lat="42.0634269" lon="12.6543886"><ele>104.5</ele><time>2026-05-03T15:26:40.875Z</time></trkpt><trkpt lat="42.0632069" lon="12.6542753"><ele>105.0</ele><time>2026-05-03T15:26:41.878Z</time></trkpt><trkpt lat="42.0630045" lon="12.6541694"><ele>105.0</ele><time>2026-05-03T15:26:42.876Z</time></trkpt><trkpt lat="42.0628074" lon="12.6541061"><ele>105.0</ele><time>2026-05-03T15:26:43.882Z</time></trkpt><trkpt lat="42.0626104" lon="12.654018"><ele>105.0</ele><time>2026-05-03T15:26:44.879Z</time></trkpt><trkpt lat="42.0624052" lon="12.653938"><ele>105.66666666666666</ele><time>2026-05-03T15:26:45.881Z</time></trkpt><trkpt lat="42.062198" lon="12.6538536"><ele>106.33333333333333</ele><time>2026-05-03T15:26:46.882Z</time></trkpt><trkpt lat="42.0620071" lon="12.6537805"><ele>107.0</ele><time>2026-05-03T15:26:47.88Z</time></trkpt><trkpt lat="42.0618102" lon="12.6536949"><ele>108.33333333333333</ele><time>2026-05-03T15:26:48.878Z</time></trkpt><trkpt lat="42.0616103" lon="12.6536142"><ele>109.66666666666666</ele><time>2026-05-03T15:26:49.882Z</time></trkpt><trkpt lat="42.0614024" lon="12.6535423"><ele>111.0</ele><time>2026-05-03T15:26:50.88Z</time></trkpt><trkpt lat="42.0611769" lon="12.6534653"><ele>111.0</ele><time>2026-05-03T15:26:51.881Z</time></trkpt><trkpt lat="42.0609478" lon="12.6533828"><ele>111.0</ele><time>2026-05-03T15:26:52.883Z</time></trkpt><trkpt lat="42.0607317" lon="12.6533068"><ele>112.0</ele><time>2026-05-03T15:26:53.878Z</time></trkpt><trkpt lat="42.0605284" lon="12.6532516"><ele>113.0</ele><time>2026-05-03T15:26:54.873Z</time></trkpt><trkpt lat="42.0603242" lon="12.6531702"><ele>114.0</ele><time>2026-05-03T15:26:55.878Z</time></trkpt><trkpt lat="42.060142" lon="12.65311"><ele>114.0</ele><time>2026-05-03T15:26:56.872Z</time></trkpt><trkpt lat="42.0599583" lon="12.6530509"><ele>114.0</ele><time>2026-05-03T15:26:57.877Z</time></trkpt><trkpt lat="42.0597646" lon="12.6529814"><ele>114.0</ele><time>2026-05-03T15:26:58.877Z</time></trkpt><trkpt lat="42.0595904" lon="12.6528969"><ele>116.33333333333334</ele><time>2026-05-03T15:26:59.876Z</time></trkpt><trkpt lat="42.0594487" lon="12.6528358"><ele>118.66666666666667</ele><time>2026-05-03T15:27:00.875Z</time></trkpt><trkpt lat="42.0593024" lon="12.6527912"><ele>121.0</ele><time>2026-05-03T15:27:01.873Z</time></trkpt><trkpt lat="42.059125" lon="12.6527253"><ele>121.66666666666667</ele><time>2026-05-03T15:27:02.868Z</time></trkpt><trkpt lat="42.0589548" lon="12.6526628"><ele>122.33333333333334</ele><time>2026-05-03T15:27:03.873Z</time></trkpt><trkpt lat="42.058784" lon="12.6526073"><ele>123.0</ele><time>2026-05-03T15:27:04.868Z</time></trkpt><trkpt lat="42.0586255" lon="12.6525352"><ele>123.0</ele><time>2026-05-03T15:27:05.86Z</time></trkpt><trkpt lat="42.05849" lon="12.6524499"><ele>123.0</ele><time>2026-05-03T15:27:06.868Z</time></trkpt><trkpt lat="42.0583547" lon="12.6523483"><ele>123.0</ele><time>2026-05-03T15:27:07.868Z</time></trkpt><trkpt lat="42.0582266" lon="12.6522508"><ele>122.5</ele><time>2026-05-03T15:27:08.876Z</time></trkpt><trkpt lat="42.0580886" lon="12.6521297"><ele>122.0</ele><time>2026-05-03T15:27:09.868Z</time></trkpt><trkpt lat="42.0579592" lon="12.6520387"><ele>121.5</ele><time>2026-05-03T15:27:10.866Z</time></trkpt><trkpt lat="42.0578421" lon="12.6519579"><ele>121.0</ele><time>2026-05-03T15:27:11.865Z</time></trkpt><trkpt lat="42.0577326" lon="12.6518964"><ele>121.0</ele><time>2026-05-03T15:27:12.879Z</time></trkpt><trkpt lat="42.0576064" lon="12.6517986"><ele>121.0</ele><time>2026-05-03T15:27:13.87Z</time></trkpt><trkpt lat="42.0574979" lon="12.6517297"><ele>121.0</ele><time>2026-05-03T15:27:14.873Z</time></trkpt><trkpt lat="42.0573846" lon="12.6516604"><ele>121.0</ele><time>2026-05-03T15:27:15.871Z</time></trkpt><trkpt lat="42.057306" lon="12.6515743"><ele>120.4</ele><time>2026-05-03T15:27:16.877Z</time></trkpt><trkpt lat="42.0572151" lon="12.6515152"><ele>119.8</ele><time>2026-05-03T15:27:17.877Z</time></trkpt><trkpt lat="42.0571529" lon="12.6514708"><ele>119.20000000000002</ele><time>2026-05-03T15:27:18.88Z</time></trkpt><trkpt lat="42.0570614" lon="12.6513958"><ele>118.60000000000001</ele><time>2026-05-03T15:27:21.879Z</time></trkpt><trkpt lat="42.0569835" lon="12.6513275"><ele>118.0</ele><time>2026-05-03T15:27:57.879Z</time></trkpt><trkpt lat="42.0568467" lon="12.651268"><ele>118.0</ele><time>2026-05-03T15:27:59.901Z</time></trkpt><trkpt lat="42.0567124" lon="12.6512115"><ele>118.0</ele><time>2026-05-03T15:28:00.87Z</time></trkpt><trkpt lat="42.0565467" lon="12.6511379"><ele>118.0</ele><time>2026-05-03T15:28:01.88Z</time></trkpt><trkpt lat="42.0563657" lon="12.6510247"><ele>116.0</ele><time>2026-05-03T15:28:02.878Z</time></trkpt><trkpt lat="42.0561914" lon="12.6509243"><ele>114.0</ele><time>2026-05-03T15:28:03.878Z</time></trkpt><trkpt lat="42.0559913" lon="12.6508081"><ele>112.0</ele><time>2026-05-03T15:28:04.879Z</time></trkpt><trkpt lat="42.0557922" lon="12.6506895"><ele>110.66666666666667</ele><time>2026-05-03T15:28:05.877Z</time></trkpt><trkpt lat="42.0556261" lon="12.6505923"><ele>109.33333333333334</ele><time>2026-05-03T15:28:06.881Z</time></trkpt><trkpt lat="42.0554621" lon="12.6504956"><ele>108.0</ele><time>2026-05-03T15:28:07.884Z</time></trkpt><trkpt lat="42.0552987" lon="12.6503932"><ele>108.0</ele><time>2026-05-03T15:28:08.887Z</time></trkpt><trkpt lat="42.0551566" lon="12.6503078"><ele>108.0</ele><time>2026-05-03T15:28:09.885Z</time></trkpt><trkpt lat="42.0550118" lon="12.6502182"><ele>108.0</ele><time>2026-05-03T15:28:10.887Z</time></trkpt><trkpt lat="42.0548744" lon="12.6501371"><ele>108.25</ele><time>2026-05-03T15:28:11.884Z</time></trkpt><trkpt lat="42.0547499" lon="12.6500689"><ele>108.5</ele><time>2026-05-03T15:28:12.886Z</time></trkpt><trkpt lat="42.0546371" lon="12.6500009"><ele>108.75</ele><time>2026-05-03T15:28:13.89Z</time></trkpt><trkpt lat="42.0545029" lon="12.6499109"><ele>109.0</ele><time>2026-05-03T15:28:14.884Z</time></trkpt><trkpt lat="42.0543295" lon="12.6498224"><ele>109.0</ele><time>2026-05-03T15:28:15.89Z</time></trkpt><trkpt lat="42.0541349" lon="12.6497309"><ele>109.0</ele><time>2026-05-03T15:28:16.889Z</time></trkpt><trkpt lat="42.0539665" lon="12.6496545"><ele>109.0</ele><time>2026-05-03T15:28:17.896Z</time></trkpt><trkpt lat="42.0538129" lon="12.6495807"><ele>109.0</ele><time>2026-05-03T15:28:18.888Z</time></trkpt><trkpt lat="42.053665" lon="12.649511"><ele>109.0</ele><time>2026-05-03T15:28:19.886Z</time></trkpt><trkpt lat="42.0535254" lon="12.6494455"><ele>109.0</ele><time>2026-05-03T15:28:20.885Z</time></trkpt><trkpt lat="42.053394" lon="12.6493897"><ele>109.0</ele><time>2026-05-03T15:28:21.884Z</time></trkpt><trkpt lat="42.0532637" lon="12.6493373"><ele>108.5</ele><time>2026-05-03T15:28:22.873Z</time></trkpt><trkpt lat="42.0531738" lon="12.6492896"><ele>108.0</ele><time>2026-05-03T15:28:23.867Z</time></trkpt><trkpt lat="42.0530481" lon="12.6491967"><ele>107.5</ele><time>2026-05-03T15:28:24.874Z</time></trkpt><trkpt lat="42.0529374" lon="12.6491526"><ele>107.0</ele><time>2026-05-03T15:28:25.882Z</time></trkpt><trkpt lat="42.052787" lon="12.649042"><ele>107.0</ele><time>2026-05-03T15:28:26.893Z</time></trkpt><trkpt lat="42.0526886" lon="12.6489637"><ele>107.0</ele><time>2026-05-03T15:28:27.881Z</time></trkpt><trkpt lat="42.0525777" lon="12.6488443"><ele>107.0</ele><time>2026-05-03T15:28:28.892Z</time></trkpt><trkpt lat="42.0524132" lon="12.6487153"><ele>107.0</ele><time>2026-05-03T15:28:29.899Z</time></trkpt><trkpt lat="42.0522551" lon="12.6486076"><ele>107.25</ele><time>2026-05-03T15:28:30.876Z</time></trkpt><trkpt lat="42.052108" lon="12.6485103"><ele>107.5</ele><time>2026-05-03T15:28:31.875Z</time></trkpt><trkpt lat="42.0519843" lon="12.6484343"><ele>107.75</ele><time>2026-05-03T15:28:32.874Z</time></trkpt><trkpt lat="42.0518711" lon="12.6483779"><ele>108.0</ele><time>2026-05-03T15:28:33.878Z</time></trkpt><trkpt lat="42.0517594" lon="12.6483234"><ele>108.0</ele><time>2026-05-03T15:28:34.875Z</time></trkpt><trkpt lat="42.0516528" lon="12.6482743"><ele>108.0</ele><time>2026-05-03T15:28:35.885Z</time></trkpt><trkpt lat="42.051567" lon="12.6482458"><ele>108.0</ele><time>2026-05-03T15:28:36.874Z</time></trkpt><trkpt lat="42.0514992" lon="12.6482207"><ele>108.0</ele><time>2026-05-03T15:28:37.877Z</time></trkpt><trkpt lat="42.0514126" lon="12.6481899"><ele>108.0</ele><time>2026-05-03T15:28:39.876Z</time></trkpt><trkpt lat="42.0513579" lon="12.6481239"><ele>108.0</ele><time>2026-05-03T15:28:44.882Z</time></trkpt><trkpt lat="42.0513532" lon="12.6480183"><ele>108.5</ele><time>2026-05-03T15:38:03.888Z</time></trkpt><trkpt lat="42.0512494" lon="12.6479537"><ele>109.0</ele><time>2026-05-03T15:38:08.896Z</time></trkpt><trkpt lat="42.0511616" lon="12.6478365"><ele>109.5</ele><time>2026-05-03T15:38:10.876Z</time></trkpt><trkpt lat="42.0510895" lon="12.647745"><ele>110.0</ele><time>2026-05-03T15:38:11.897Z</time></trkpt><trkpt lat="42.0509785" lon="12.6476541"><ele>110.75</ele><time>2026-05-03T15:38:12.892Z</time></trkpt><trkpt lat="42.0508448" lon="12.6475637"><ele>111.5</ele><time>2026-05-03T15:38:13.887Z</time></trkpt><trkpt lat="42.0507015" lon="12.6474895"><ele>112.25</ele><time>2026-05-03T15:38:14.897Z</time></trkpt><trkpt lat="42.0505865" lon="12.6474109"><ele>113.0</ele><time>2026-05-03T15:38:15.898Z</time></trkpt><trkpt lat="42.0504904" lon="12.6473539"><ele>113.33333333333333</ele><time>2026-05-03T15:38:16.885Z</time></trkpt><trkpt lat="42.0504062" lon="12.6473039"><ele>113.66666666666666</ele><time>2026-05-03T15:38:17.899Z</time></trkpt><trkpt lat="42.0503451" lon="12.6472521"><ele>114.0</ele><time>2026-05-03T15:38:18.899Z</time></trkpt><trkpt lat="42.0502876" lon="12.6471933"><ele>114.33333333333334</ele><time>2026-05-03T15:38:19.887Z</time></trkpt><trkpt lat="42.0502224" lon="12.6471489"><ele>114.66666666666667</ele><time>2026-05-03T15:38:20.903Z</time></trkpt><trkpt lat="42.0501541" lon="12.6470992"><ele>115.0</ele><time>2026-05-03T15:38:21.92Z</time></trkpt><trkpt lat="42.0500711" lon="12.6470476"><ele>115.0</ele><time>2026-05-03T15:38:22.893Z</time></trkpt><trkpt lat="42.049965" lon="12.6469919"><ele>115.0</ele><time>2026-05-03T15:38:23.903Z</time></trkpt><trkpt lat="42.0498523" lon="12.6469277"><ele>115.0</ele><time>2026-05-03T15:38:24.91Z</time></trkpt><trkpt lat="42.0497434" lon="12.6468504"><ele>115.0</ele><time>2026-05-03T15:38:25.89Z</time></trkpt><trkpt lat="42.0496288" lon="12.6467755"><ele>116.25</ele><time>2026-05-03T15:38:26.905Z</time></trkpt><trkpt lat="42.0495094" lon="12.6467044"><ele>117.5</ele><time>2026-05-03T15:38:27.904Z</time></trkpt><trkpt lat="42.0493887" lon="12.6466212"><ele>118.75</ele><time>2026-05-03T15:38:28.893Z</time></trkpt><trkpt lat="42.0492634" lon="12.6465378"><ele>120.0</ele><time>2026-05-03T15:38:29.904Z</time></trkpt><trkpt lat="42.0491344" lon="12.6464585"><ele>120.66666666666666</ele><time>2026-05-03T15:38:30.9Z</time></trkpt><trkpt lat="42.0489999" lon="12.6463683"><ele>121.33333333333333</ele><time>2026-05-03T15:38:31.897Z</time></trkpt><trkpt lat="42.0488399" lon="12.6462762"><ele>122.0</ele><time>2026-05-03T15:38:32.9Z</time></trkpt><trkpt lat="42.0486565" lon="12.6461734"><ele>122.33333333333333</ele><time>2026-05-03T15:38:33.894Z</time></trkpt><trkpt lat="42.0484833" lon="12.6460913"><ele>122.66666666666666</ele><time>2026-05-03T15:38:34.896Z</time></trkpt><trkpt lat="42.0483456" lon="12.6460275"><ele>123.0</ele><time>2026-05-03T15:38:35.902Z</time></trkpt><trkpt lat="42.0481992" lon="12.645948"><ele>124.5</ele><time>2026-05-03T15:38:36.901Z</time></trkpt><trkpt lat="42.0480695" lon="12.6458634"><ele>126.0</ele><time>2026-05-03T15:38:37.893Z</time></trkpt><trkpt lat="42.0479332" lon="12.6458111"><ele>127.5</ele><time>2026-05-03T15:38:38.904Z</time></trkpt><trkpt lat="42.0477867" lon="12.6457535"><ele>129.0</ele><time>2026-05-03T15:38:39.9Z</time></trkpt><trkpt lat="42.0476488" lon="12.6456869"><ele>129.0</ele><time>2026-05-03T15:38:40.895Z</time></trkpt><trkpt lat="42.0475009" lon="12.6456274"><ele>129.0</ele><time>2026-05-03T15:38:41.903Z</time></trkpt><trkpt lat="42.0473372" lon="12.6455761"><ele>129.0</ele><time>2026-05-03T15:38:42.907Z</time></trkpt><trkpt lat="42.0471751" lon="12.6455154"><ele>130.75</ele><time>2026-05-03T15:38:43.895Z</time></trkpt><trkpt lat="42.0470201" lon="12.6454433"><ele>132.5</ele><time>2026-05-03T15:38:44.902Z</time></trkpt><trkpt lat="42.0469005" lon="12.6453867"><ele>134.25</ele><time>2026-05-03T15:38:45.901Z</time></trkpt><trkpt lat="42.0467736" lon="12.6453469"><ele>136.0</ele><time>2026-05-03T15:38:46.896Z</time></trkpt><trkpt lat="42.046626" lon="12.6452815"><ele>137.66666666666669</ele><time>2026-05-03T15:38:47.903Z</time></trkpt><trkpt lat="42.0464763" lon="12.6452092"><ele>139.33333333333334</ele><time>2026-05-03T15:38:48.906Z</time></trkpt><trkpt lat="42.0463311" lon="12.6451537"><ele>141.0</ele><time>2026-05-03T15:38:49.896Z</time></trkpt><trkpt lat="42.04619" lon="12.6451078"><ele>141.0</ele><time>2026-05-03T15:38:50.904Z</time></trkpt><trkpt lat="42.046051" lon="12.6450536"><ele>141.0</ele><time>2026-05-03T15:38:51.92Z</time></trkpt><trkpt lat="42.045907" lon="12.6449993"><ele>141.0</ele><time>2026-05-03T15:38:52.899Z</time></trkpt><trkpt lat="42.045775" lon="12.6449508"><ele>141.0</ele><time>2026-05-03T15:38:53.9Z</time></trkpt><trkpt lat="42.0456451" lon="12.6449121"><ele>140.75</ele><time>2026-05-03T15:38:54.906Z</time></trkpt><trkpt lat="42.0455133" lon="12.6448713"><ele>140.5</ele><time>2026-05-03T15:38:55.902Z</time></trkpt><trkpt lat="42.045382" lon="12.6448347"><ele>140.25</ele><time>2026-05-03T15:38:56.902Z</time></trkpt><trkpt lat="42.0452381" lon="12.6448015"><ele>140.0</ele><time>2026-05-03T15:38:57.894Z</time></trkpt><trkpt lat="42.0450938" lon="12.6447303"><ele>140.0</ele><time>2026-05-03T15:38:58.891Z</time></trkpt><trkpt lat="42.044962" lon="12.6446455"><ele>140.0</ele><time>2026-05-03T15:38:59.9Z</time></trkpt><trkpt lat="42.04484" lon="12.6445805"><ele>140.0</ele><time>2026-05-03T15:39:00.894Z</time></trkpt><trkpt lat="42.0447175" lon="12.6445126"><ele>140.0</ele><time>2026-05-03T15:39:01.888Z</time></trkpt><trkpt lat="42.0445816" lon="12.6444261"><ele>140.0</ele><time>2026-05-03T15:39:02.901Z</time></trkpt><trkpt lat="42.0444704" lon="12.6443599"><ele>140.0</ele><time>2026-05-03T15:39:03.888Z</time></trkpt><trkpt lat="42.044366" lon="12.644304"><ele>140.0</ele><time>2026-05-03T15:39:04.901Z</time></trkpt><trkpt lat="42.0442514" lon="12.6442588"><ele>140.0</ele><time>2026-05-03T15:39:05.9Z</time></trkpt><trkpt lat="42.0441401" lon="12.6442007"><ele>139.75</ele><time>2026-05-03T15:39:06.896Z</time></trkpt><trkpt lat="42.0440212" lon="12.6441362"><ele>139.5</ele><time>2026-05-03T15:39:07.894Z</time></trkpt><trkpt lat="42.0439038" lon="12.6440724"><ele>139.25</ele><time>2026-05-03T15:39:08.901Z</time></trkpt><trkpt lat="42.0437759" lon="12.6440056"><ele>139.0</ele><time>2026-05-03T15:39:09.889Z</time></trkpt><trkpt lat="42.0436112" lon="12.6438933"><ele>139.0</ele><time>2026-05-03T15:39:10.897Z</time></trkpt><trkpt lat="42.0434396" lon="12.6437733"><ele>139.0</ele><time>2026-05-03T15:39:11.903Z</time></trkpt><trkpt lat="42.0432866" lon="12.6436517"><ele>139.0</ele><time>2026-05-03T15:39:12.886Z</time></trkpt><trkpt lat="42.0431431" lon="12.643548"><ele>139.5</ele><time>2026-05-03T15:39:13.888Z</time></trkpt><trkpt lat="42.0430085" lon="12.6434517"><ele>140.0</ele><time>2026-05-03T15:39:14.891Z</time></trkpt><trkpt lat="42.0429025" lon="12.6433748"><ele>140.5</ele><time>2026-05-03T15:39:15.891Z</time></trkpt><trkpt lat="42.0428075" lon="12.6433047"><ele>141.0</ele><time>2026-05-03T15:39:16.891Z</time></trkpt><trkpt lat="42.0427051" lon="12.6432219"><ele>141.0</ele><time>2026-05-03T15:39:17.899Z</time></trkpt><trkpt lat="42.0425877" lon="12.6431323"><ele>141.0</ele><time>2026-05-03T15:39:18.89Z</time></trkpt><trkpt lat="42.0424642" lon="12.6430279"><ele>141.0</ele><time>2026-05-03T15:39:19.89Z</time></trkpt><trkpt lat="42.0423548" lon="12.6429131"><ele>141.0</ele><time>2026-05-03T15:39:20.887Z</time></trkpt><trkpt lat="42.0422458" lon="12.6427734"><ele>142.0</ele><time>2026-05-03T15:39:21.909Z</time></trkpt><trkpt lat="42.0421513" lon="12.6426169"><ele>143.0</ele><time>2026-05-03T15:39:22.889Z</time></trkpt><trkpt lat="42.0420545" lon="12.6424975"><ele>144.0</ele><time>2026-05-03T15:39:23.897Z</time></trkpt><trkpt lat="42.0419724" lon="12.6423879"><ele>145.0</ele><time>2026-05-03T15:39:24.892Z</time></trkpt><trkpt lat="42.0418878" lon="12.6422728"><ele>145.0</ele><time>2026-05-03T15:39:25.891Z</time></trkpt><trkpt lat="42.0418063" lon="12.6421472"><ele>145.0</ele><time>2026-05-03T15:39:26.906Z</time></trkpt><trkpt lat="42.0417334" lon="12.6420548"><ele>145.0</ele><time>2026-05-03T15:39:27.897Z</time></trkpt><trkpt lat="42.0416521" lon="12.6419525"><ele>145.0</ele><time>2026-05-03T15:39:28.901Z</time></trkpt><trkpt lat="42.0415664" lon="12.6418425"><ele>147.0</ele><time>2026-05-03T15:39:29.896Z</time></trkpt><trkpt lat="42.041477" lon="12.6417139"><ele>149.0</ele><time>2026-05-03T15:39:30.901Z</time></trkpt><trkpt lat="42.0413734" lon="12.6415789"><ele>151.0</ele><time>2026-05-03T15:39:31.892Z</time></trkpt><trkpt lat="42.0412652" lon="12.6414364"><ele>153.0</ele><time>2026-05-03T15:39:32.89Z</time></trkpt><trkpt lat="42.0411644" lon="12.6413073"><ele>153.0</ele><time>2026-05-03T15:39:33.969Z</time></trkpt><trkpt lat="42.0410679" lon="12.6411859"><ele>153.0</ele><time>2026-05-03T15:39:34.895Z</time></trkpt><trkpt lat="42.0409865" lon="12.6410742"><ele>153.0</ele><time>2026-05-03T15:39:35.887Z</time></trkpt><trkpt lat="42.0409053" lon="12.6409667"><ele>153.0</ele><time>2026-05-03T15:39:36.892Z</time></trkpt><trkpt lat="42.0408219" lon="12.6408665"><ele>153.5</ele><time>2026-05-03T15:39:37.887Z</time></trkpt><trkpt lat="42.040745" lon="12.6408096"><ele>154.0</ele><time>2026-05-03T15:39:38.885Z</time></trkpt><trkpt lat="42.0406698" lon="12.6407543"><ele>154.5</ele><time>2026-05-03T15:39:39.894Z</time></trkpt><trkpt lat="42.040613" lon="12.6407056"><ele>155.0</ele><time>2026-05-03T15:39:40.895Z</time></trkpt><trkpt lat="42.0405286" lon="12.6406634"><ele>155.5</ele><time>2026-05-03T15:39:41.893Z</time></trkpt><trkpt lat="42.0404544" lon="12.6406349"><ele>156.0</ele><time>2026-05-03T15:39:42.893Z</time></trkpt><trkpt lat="42.0403666" lon="12.6405951"><ele>156.0</ele><time>2026-05-03T15:39:43.894Z</time></trkpt><trkpt lat="42.0403075" lon="12.6405641"><ele>156.0</ele><time>2026-05-03T15:39:44.896Z</time></trkpt><trkpt lat="42.0402262" lon="12.6405153"><ele>156.0</ele><time>2026-05-03T15:39:46.905Z</time></trkpt><trkpt lat="42.0401078" lon="12.6404816"><ele>156.0</ele><time>2026-05-03T15:39:48.903Z</time></trkpt><trkpt lat="42.0400137" lon="12.6404507"><ele>156.0</ele><time>2026-05-03T15:39:49.9Z</time></trkpt><trkpt lat="42.0399192" lon="12.6404138"><ele>156.75</ele><time>2026-05-03T15:39:50.893Z</time></trkpt><trkpt lat="42.0398157" lon="12.640356"><ele>157.5</ele><time>2026-05-03T15:39:51.907Z</time></trkpt><trkpt lat="42.0397139" lon="12.6402942"><ele>158.25</ele><time>2026-05-03T15:39:52.878Z</time></trkpt><trkpt lat="42.0396142" lon="12.6401995"><ele>159.0</ele><time>2026-05-03T15:39:53.876Z</time></trkpt><trkpt lat="42.0395048" lon="12.6401088"><ele>156.5</ele><time>2026-05-03T15:39:54.886Z</time></trkpt><trkpt lat="42.0393984" lon="12.6400156"><ele>154.0</ele><time>2026-05-03T15:39:55.885Z</time></trkpt><trkpt lat="42.0392846" lon="12.6399151"><ele>151.5</ele><time>2026-05-03T15:39:56.887Z</time></trkpt><trkpt lat="42.0391693" lon="12.639821"><ele>149.0</ele><time>2026-05-03T15:39:57.9Z</time></trkpt><trkpt lat="42.0390615" lon="12.6397394"><ele>148.4</ele><time>2026-05-03T15:39:58.881Z</time></trkpt><trkpt lat="42.0389624" lon="12.6396645"><ele>147.8</ele><time>2026-05-03T15:39:59.901Z</time></trkpt><trkpt lat="42.0388742" lon="12.6395935"><ele>147.2</ele><time>2026-05-03T15:40:00.889Z</time></trkpt><trkpt lat="42.0387886" lon="12.6395304"><ele>146.6</ele><time>2026-05-03T15:40:01.881Z</time></trkpt><trkpt lat="42.0386948" lon="12.6394737"><ele>146.0</ele><time>2026-05-03T15:40:02.888Z</time></trkpt><trkpt lat="42.0386157" lon="12.6394019"><ele>146.16666666666666</ele><time>2026-05-03T15:40:03.896Z</time></trkpt><trkpt lat="42.0385465" lon="12.639332"><ele>146.33333333333331</ele><time>2026-05-03T15:40:04.888Z</time></trkpt><trkpt lat="42.0384845" lon="12.6392609"><ele>146.5</ele><time>2026-05-03T15:40:05.884Z</time></trkpt><trkpt lat="42.0384229" lon="12.6391946"><ele>146.66666666666666</ele><time>2026-05-03T15:40:06.886Z</time></trkpt><trkpt lat="42.0383639" lon="12.6391332"><ele>146.83333333333334</ele><time>2026-05-03T15:40:07.88Z</time></trkpt><trkpt lat="42.0382704" lon="12.639044"><ele>147.0</ele><time>2026-05-03T15:40:09.891Z</time></trkpt><trkpt lat="42.0381989" lon="12.6389874"><ele>147.0</ele><time>2026-05-03T15:40:11.879Z</time></trkpt><trkpt lat="42.0381424" lon="12.6389468"><ele>147.0</ele><time>2026-05-03T15:42:13.884Z</time></trkpt><trkpt lat="42.0380582" lon="12.6389097"><ele>147.0</ele><time>2026-05-03T15:42:15.879Z</time></trkpt><trkpt lat="42.0379527" lon="12.6388489"><ele>147.0</ele><time>2026-05-03T15:42:17.878Z</time></trkpt><trkpt lat="42.0378425" lon="12.6387747"><ele>147.0</ele><time>2026-05-03T15:42:19.869Z</time></trkpt><trkpt lat="42.0377814" lon="12.6387318"><ele>147.0</ele><time>2026-05-03T15:42:20.884Z</time></trkpt><trkpt lat="42.0377229" lon="12.6386947"><ele>147.0</ele><time>2026-05-03T15:42:21.903Z</time></trkpt><trkpt lat="42.0376568" lon="12.6386534"><ele>147.0</ele><time>2026-05-03T15:42:22.888Z</time></trkpt><trkpt lat="42.0375793" lon="12.6386041"><ele>147.0</ele><time>2026-05-03T15:42:23.885Z</time></trkpt><trkpt lat="42.0374959" lon="12.6385373"><ele>147.0</ele><time>2026-05-03T15:42:24.881Z</time></trkpt><trkpt lat="42.0374171" lon="12.6384751"><ele>147.0</ele><time>2026-05-03T15:42:25.88Z</time></trkpt><trkpt lat="42.037335" lon="12.6384219"><ele>148.16666666666666</ele><time>2026-05-03T15:42:26.872Z</time></trkpt><trkpt lat="42.0372648" lon="12.6383595"><ele>149.33333333333334</ele><time>2026-05-03T15:42:27.884Z</time></trkpt><trkpt lat="42.0372064" lon="12.6382935"><ele>150.5</ele><time>2026-05-03T15:42:28.876Z</time></trkpt><trkpt lat="42.0371636" lon="12.6382225"><ele>151.66666666666669</ele><time>2026-05-03T15:42:29.879Z</time></trkpt><trkpt lat="42.0370768" lon="12.6381007"><ele>152.83333333333334</ele><time>2026-05-03T15:42:31.881Z</time></trkpt><trkpt lat="42.0370136" lon="12.6380217"><ele>154.0</ele><time>2026-05-03T15:42:32.881Z</time></trkpt><trkpt lat="42.0369288" lon="12.6379517"><ele>154.0</ele><time>2026-05-03T15:42:33.894Z</time></trkpt><trkpt lat="42.0368168" lon="12.6378932"><ele>154.0</ele><time>2026-05-03T15:42:34.887Z</time></trkpt><trkpt lat="42.0367088" lon="12.6378353"><ele>154.0</ele><time>2026-05-03T15:42:35.882Z</time></trkpt><trkpt lat="42.0366148" lon="12.6377846"><ele>154.0</ele><time>2026-05-03T15:42:36.891Z</time></trkpt><trkpt lat="42.0365479" lon="12.6377506"><ele>154.0</ele><time>2026-05-03T15:42:37.879Z</time></trkpt><trkpt lat="42.0364177" lon="12.637729"><ele>153.33333333333334</ele><time>2026-05-03T15:42:39.883Z</time></trkpt><trkpt lat="42.0363375" lon="12.6377184"><ele>152.66666666666669</ele><time>2026-05-03T15:42:40.876Z</time></trkpt><trkpt lat="42.0362511" lon="12.6377097"><ele>152.0</ele><time>2026-05-03T15:42:41.874Z</time></trkpt><trkpt lat="42.0361649" lon="12.6377106"><ele>151.33333333333334</ele><time>2026-05-03T15:42:42.881Z</time></trkpt><trkpt lat="42.0360824" lon="12.6377102"><ele>150.66666666666666</ele><time>2026-05-03T15:42:43.877Z</time></trkpt><trkpt lat="42.0359972" lon="12.6377105"><ele>150.0</ele><time>2026-05-03T15:42:44.88Z</time></trkpt><trkpt lat="42.0359161" lon="12.6377156"><ele>150.0</ele><time>2026-05-03T15:42:45.885Z</time></trkpt><trkpt lat="42.0358319" lon="12.6377286"><ele>150.0</ele><time>2026-05-03T15:42:46.875Z</time></trkpt><trkpt lat="42.0357439" lon="12.6377318"><ele>150.0</ele><time>2026-05-03T15:42:47.878Z</time></trkpt><trkpt lat="42.0356513" lon="12.6377237"><ele>150.0</ele><time>2026-05-03T15:42:48.878Z</time></trkpt><trkpt lat="42.0355666" lon="12.6377055"><ele>150.0</ele><time>2026-05-03T15:42:49.87Z</time></trkpt><trkpt lat="42.0354861" lon="12.6376952"><ele>150.0</ele><time>2026-05-03T15:42:50.879Z</time></trkpt><trkpt lat="42.0354015" lon="12.6376921"><ele>149.66666666666666</ele><time>2026-05-03T15:42:51.891Z</time></trkpt><trkpt lat="42.0353129" lon="12.6376836"><ele>149.33333333333334</ele><time>2026-05-03T15:42:52.868Z</time></trkpt><trkpt lat="42.0352266" lon="12.6376762"><ele>149.0</ele><time>2026-05-03T15:42:53.878Z</time></trkpt><trkpt lat="42.0351505" lon="12.6376607"><ele>148.66666666666669</ele><time>2026-05-03T15:42:54.871Z</time></trkpt><trkpt lat="42.0350842" lon="12.6376768"><ele>148.33333333333334</ele><time>2026-05-03T15:42:55.877Z</time></trkpt><trkpt lat="42.0349712" lon="12.6376928"><ele>148.0</ele><time>2026-05-03T15:42:57.883Z</time></trkpt><trkpt lat="42.0348989" lon="12.6377052"><ele>149.33333333333334</ele><time>2026-05-03T15:42:58.874Z</time></trkpt><trkpt lat="42.0348258" lon="12.6377113"><ele>150.66666666666669</ele><time>2026-05-03T15:42:59.881Z</time></trkpt><trkpt lat="42.0347406" lon="12.6377141"><ele>152.0</ele><time>2026-05-03T15:43:00.873Z</time></trkpt><trkpt lat="42.0346661" lon="12.6377234"><ele>153.33333333333334</ele><time>2026-05-03T15:43:01.874Z</time></trkpt><trkpt lat="42.0345893" lon="12.6377259"><ele>154.66666666666666</ele><time>2026-05-03T15:43:02.881Z</time></trkpt><trkpt lat="42.0345152" lon="12.6377328"><ele>156.0</ele><time>2026-05-03T15:43:03.882Z</time></trkpt><trkpt lat="42.0344369" lon="12.637743"><ele>156.0</ele><time>2026-05-03T15:43:04.87Z</time></trkpt><trkpt lat="42.0343587" lon="12.6377605"><ele>156.0</ele><time>2026-05-03T15:43:05.88Z</time></trkpt><trkpt lat="42.0342908" lon="12.6377949"><ele>156.0</ele><time>2026-05-03T15:43:06.87Z</time></trkpt><trkpt lat="42.0342304" lon="12.6378474"><ele>156.0</ele><time>2026-05-03T15:43:07.881Z</time></trkpt><trkpt lat="42.034166" lon="12.637897"><ele>156.0</ele><time>2026-05-03T15:43:08.865Z</time></trkpt><trkpt lat="42.0341014" lon="12.6379353"><ele>156.0</ele><time>2026-05-03T15:43:09.969Z</time></trkpt><trkpt lat="42.0340296" lon="12.6379721"><ele>156.0</ele><time>2026-05-03T15:43:10.874Z</time></trkpt><trkpt lat="42.0339622" lon="12.6380129"><ele>153.85714285714286</ele><time>2026-05-03T15:43:11.859Z</time></trkpt><trkpt lat="42.0339042" lon="12.6380604"><ele>151.7142857142857</ele><time>2026-05-03T15:43:12.866Z</time></trkpt><trkpt lat="42.0338493" lon="12.6381059"><ele>149.57142857142856</ele><time>2026-05-03T15:43:13.865Z</time></trkpt><trkpt lat="42.033785" lon="12.6381304"><ele>147.42857142857144</ele><time>2026-05-03T15:43:14.874Z</time></trkpt><trkpt lat="42.0337198" lon="12.6381482"><ele>145.28571428571428</ele><time>2026-05-03T15:43:15.873Z</time></trkpt><trkpt lat="42.0336435" lon="12.6381614"><ele>143.14285714285714</ele><time>2026-05-03T15:43:16.883Z</time></trkpt><trkpt lat="42.0335555" lon="12.638175"><ele>141.0</ele><time>2026-05-03T15:43:17.87Z</time></trkpt><trkpt lat="42.0334737" lon="12.6382144"><ele>141.0</ele><time>2026-05-03T15:43:18.881Z</time></trkpt><trkpt lat="42.033383" lon="12.638286"><ele>141.0</ele><time>2026-05-03T15:43:19.877Z</time></trkpt><trkpt lat="42.0333026" lon="12.6383752"><ele>141.0</ele><time>2026-05-03T15:43:20.879Z</time></trkpt><trkpt lat="42.033235" lon="12.6384657"><ele>141.0</ele><time>2026-05-03T15:43:21.889Z</time></trkpt><trkpt lat="42.0331737" lon="12.6385595"><ele>141.0</ele><time>2026-05-03T15:43:22.876Z</time></trkpt><trkpt lat="42.0331107" lon="12.6386544"><ele>137.33333333333334</ele><time>2026-05-03T15:43:23.872Z</time></trkpt><trkpt lat="42.0330577" lon="12.6387556"><ele>133.66666666666666</ele><time>2026-05-03T15:43:24.887Z</time></trkpt><trkpt lat="42.0330115" lon="12.6388665"><ele>130.0</ele><time>2026-05-03T15:43:25.89Z</time></trkpt><trkpt lat="42.0329763" lon="12.6389689"><ele>126.33333333333333</ele><time>2026-05-03T15:43:26.887Z</time></trkpt><trkpt lat="42.0329483" lon="12.6390659"><ele>122.66666666666666</ele><time>2026-05-03T15:43:27.886Z</time></trkpt><trkpt lat="42.032923" lon="12.6391575"><ele>119.0</ele><time>2026-05-03T15:43:28.89Z</time></trkpt><trkpt lat="42.0328958" lon="12.6392618"><ele>118.99999999999999</ele><time>2026-05-03T15:43:29.88Z</time></trkpt><trkpt lat="42.0328734" lon="12.639376"><ele>119.0</ele><time>2026-05-03T15:43:30.881Z</time></trkpt><trkpt lat="42.0328414" lon="12.639489"><ele>119.0</ele><time>2026-05-03T15:43:31.885Z</time></trkpt><trkpt lat="42.0328174" lon="12.6396021"><ele>119.0</ele><time>2026-05-03T15:43:32.878Z</time></trkpt><trkpt lat="42.0327937" lon="12.6397204"><ele>118.99999999999999</ele><time>2026-05-03T15:43:33.88Z</time></trkpt><trkpt lat="42.0327702" lon="12.6398369"><ele>119.0</ele><time>2026-05-03T15:43:34.874Z</time></trkpt><trkpt lat="42.032754" lon="12.6399584"><ele>121.25</ele><time>2026-05-03T15:43:35.872Z</time></trkpt><trkpt lat="42.0327278" lon="12.6400941"><ele>123.5</ele><time>2026-05-03T15:43:36.87Z</time></trkpt><trkpt lat="42.032701" lon="12.6402296"><ele>125.75</ele><time>2026-05-03T15:43:37.874Z</time></trkpt><trkpt lat="42.0326685" lon="12.640394"><ele>128.0</ele><time>2026-05-03T15:43:38.871Z</time></trkpt><trkpt lat="42.0326344" lon="12.6405655"><ele>127.0</ele><time>2026-05-03T15:43:39.876Z</time></trkpt><trkpt lat="42.0325832" lon="12.6407386"><ele>126.0</ele><time>2026-05-03T15:43:40.886Z</time></trkpt><trkpt lat="42.0325205" lon="12.6409003"><ele>125.0</ele><time>2026-05-03T15:43:41.878Z</time></trkpt><trkpt lat="42.0324517" lon="12.641064"><ele>124.0</ele><time>2026-05-03T15:43:42.881Z</time></trkpt><trkpt lat="42.0323829" lon="12.6412167"><ele>126.25</ele><time>2026-05-03T15:43:43.874Z</time></trkpt><trkpt lat="42.0323233" lon="12.6413731"><ele>128.5</ele><time>2026-05-03T15:43:44.878Z</time></trkpt><trkpt lat="42.0322733" lon="12.6415219"><ele>130.75</ele><time>2026-05-03T15:43:45.877Z</time></trkpt><trkpt lat="42.0322311" lon="12.6416891"><ele>133.0</ele><time>2026-05-03T15:43:46.876Z</time></trkpt><trkpt lat="42.0322048" lon="12.6418487"><ele>135.20000000000002</ele><time>2026-05-03T15:43:47.866Z</time></trkpt><trkpt lat="42.0321885" lon="12.6419988"><ele>137.4</ele><time>2026-05-03T15:43:48.869Z</time></trkpt><trkpt lat="42.0321865" lon="12.642143"><ele>139.60000000000002</ele><time>2026-05-03T15:43:49.867Z</time></trkpt><trkpt lat="42.032197" lon="12.6422691"><ele>141.8</ele><time>2026-05-03T15:43:50.879Z</time></trkpt><trkpt lat="42.0322237" lon="12.6423928"><ele>144.0</ele><time>2026-05-03T15:43:51.884Z</time></trkpt><trkpt lat="42.0322432" lon="12.6425196"><ele>144.0</ele><time>2026-05-03T15:43:52.871Z</time></trkpt><trkpt lat="42.0322376" lon="12.6426479"><ele>144.0</ele><time>2026-05-03T15:43:53.873Z</time></trkpt><trkpt lat="42.0322085" lon="12.6427651"><ele>144.0</ele><time>2026-05-03T15:43:54.868Z</time></trkpt><trkpt lat="42.0321573" lon="12.6428806"><ele>144.0</ele><time>2026-05-03T15:43:55.881Z</time></trkpt><trkpt lat="42.0320691" lon="12.6430189"><ele>144.0</ele><time>2026-05-03T15:43:56.876Z</time></trkpt><trkpt lat="42.031954" lon="12.6431582"><ele>148.66666666666666</ele><time>2026-05-03T15:43:57.87Z</time></trkpt><trkpt lat="42.0317886" lon="12.6433272"><ele>153.33333333333331</ele><time>2026-05-03T15:43:58.882Z</time></trkpt><trkpt lat="42.0316534" lon="12.6434581"><ele>158.0</ele><time>2026-05-03T15:43:59.872Z</time></trkpt><trkpt lat="42.0315656" lon="12.643594"><ele>159.0</ele><time>2026-05-03T15:44:00.877Z</time></trkpt><trkpt lat="42.0315395" lon="12.6437058"><ele>160.0</ele><time>2026-05-03T15:44:01.883Z</time></trkpt><trkpt lat="42.0314862" lon="12.6438261"><ele>161.0</ele><time>2026-05-03T15:44:02.886Z</time></trkpt><trkpt lat="42.0314328" lon="12.6439604"><ele>162.0</ele><time>2026-05-03T15:44:03.881Z</time></trkpt><trkpt lat="42.0313533" lon="12.6441202"><ele>163.0</ele><time>2026-05-03T15:44:04.915Z</time></trkpt><trkpt lat="42.0312479" lon="12.6442965"><ele>163.0</ele><time>2026-05-03T15:44:05.902Z</time></trkpt><trkpt lat="42.0311233" lon="12.644455"><ele>163.0</ele><time>2026-05-03T15:44:06.892Z</time></trkpt><trkpt lat="42.0309946" lon="12.6445962"><ele>163.0</ele><time>2026-05-03T15:44:07.875Z</time></trkpt><trkpt lat="42.0308643" lon="12.6447162"><ele>168.33333333333334</ele><time>2026-05-03T15:44:08.881Z</time></trkpt><trkpt lat="42.0307483" lon="12.644822"><ele>173.66666666666666</ele><time>2026-05-03T15:44:09.889Z</time></trkpt><trkpt lat="42.030614" lon="12.6449421"><ele>179.0</ele><time>2026-05-03T15:44:10.879Z</time></trkpt><trkpt lat="42.0304482" lon="12.6450953"><ele>179.0</ele><time>2026-05-03T15:44:11.881Z</time></trkpt><trkpt lat="42.0302718" lon="12.6452169"><ele>179.0</ele><time>2026-05-03T15:44:12.883Z</time></trkpt><trkpt lat="42.0301123" lon="12.6453582"><ele>179.0</ele><time>2026-05-03T15:44:13.884Z</time></trkpt><trkpt lat="42.0299749" lon="12.6454564"><ele>181.0</ele><time>2026-05-03T15:44:14.875Z</time></trkpt><trkpt lat="42.0298578" lon="12.6455238"><ele>183.0</ele><time>2026-05-03T15:44:15.884Z</time></trkpt><trkpt lat="42.029758" lon="12.6455746"><ele>185.0</ele><time>2026-05-03T15:44:16.879Z</time></trkpt><trkpt lat="42.0296699" lon="12.6456476"><ele>187.0</ele><time>2026-05-03T15:44:17.879Z</time></trkpt><trkpt lat="42.0295716" lon="12.6457204"><ele>187.0</ele><time>2026-05-03T15:44:18.875Z</time></trkpt><trkpt lat="42.0294776" lon="12.6458008"><ele>187.0</ele><time>2026-05-03T15:44:19.869Z</time></trkpt><trkpt lat="42.0294079" lon="12.6458496"><ele>187.0</ele><time>2026-05-03T15:44:20.885Z</time></trkpt><trkpt lat="42.0293299" lon="12.6459801"><ele>187.0</ele><time>2026-05-03T15:44:22.885Z</time></trkpt><trkpt lat="42.0292641" lon="12.6460369"><ele>187.0</ele><time>2026-05-03T15:44:23.881Z</time></trkpt><trkpt lat="42.0291834" lon="12.6461174"><ele>190.0</ele><time>2026-05-03T15:44:24.882Z</time></trkpt><trkpt lat="42.0290872" lon="12.6461923"><ele>193.0</ele><time>2026-05-03T15:44:25.877Z</time></trkpt><trkpt lat="42.0289818" lon="12.6462652"><ele>196.0</ele><time>2026-05-03T15:44:27.037Z</time></trkpt><trkpt lat="42.0287707" lon="12.6464244"><ele>196.0</ele><time>2026-05-03T15:44:28.888Z</time></trkpt><trkpt lat="42.0286582" lon="12.6465114"><ele>196.0</ele><time>2026-05-03T15:44:29.884Z</time></trkpt><trkpt lat="42.0285367" lon="12.6465986"><ele>196.0</ele><time>2026-05-03T15:44:30.868Z</time></trkpt><trkpt lat="42.0284059" lon="12.6466813"><ele>196.0</ele><time>2026-05-03T15:44:31.888Z</time></trkpt><trkpt lat="42.0282657" lon="12.6467699"><ele>195.5</ele><time>2026-05-03T15:44:32.886Z</time></trkpt><trkpt lat="42.0281725" lon="12.6468758"><ele>195.0</ele><time>2026-05-03T15:44:33.874Z</time></trkpt><trkpt lat="42.028073" lon="12.6469706"><ele>194.5</ele><time>2026-05-03T15:44:34.886Z</time></trkpt><trkpt lat="42.027993" lon="12.6470813"><ele>194.0</ele><time>2026-05-03T15:44:35.891Z</time></trkpt><trkpt lat="42.0279016" lon="12.6471841"><ele>194.0</ele><time>2026-05-03T15:44:36.886Z</time></trkpt><trkpt lat="42.0278239" lon="12.6473045"><ele>194.0</ele><time>2026-05-03T15:44:37.882Z</time></trkpt><trkpt lat="42.0277575" lon="12.6474184"><ele>194.0</ele><time>2026-05-03T15:44:38.88Z</time></trkpt><trkpt lat="42.0276935" lon="12.6475082"><ele>194.0</ele><time>2026-05-03T15:44:39.879Z</time></trkpt><trkpt lat="42.0276416" lon="12.6475843"><ele>194.0</ele><time>2026-05-03T15:44:40.888Z</time></trkpt><trkpt lat="42.0275855" lon="12.6476618"><ele>194.0</ele><time>2026-05-03T15:44:41.875Z</time></trkpt><trkpt lat="42.027534" lon="12.6477316"><ele>194.0</ele><time>2026-05-03T15:44:42.881Z</time></trkpt><trkpt lat="42.0274871" lon="12.6477983"><ele>194.0</ele><time>2026-05-03T15:44:43.873Z</time></trkpt><trkpt lat="42.027437" lon="12.647864"><ele>194.0</ele><time>2026-05-03T15:44:44.883Z</time></trkpt><trkpt lat="42.0273843" lon="12.647934"><ele>194.0</ele><time>2026-05-03T15:44:45.871Z</time></trkpt><trkpt lat="42.0273245" lon="12.6479903"><ele>194.0</ele><time>2026-05-03T15:44:46.883Z</time></trkpt><trkpt lat="42.0272715" lon="12.6480523"><ele>194.0</ele><time>2026-05-03T15:44:47.878Z</time></trkpt><trkpt lat="42.0272186" lon="12.648114"><ele>193.79999999999998</ele><time>2026-05-03T15:44:48.88Z</time></trkpt><trkpt lat="42.0271555" lon="12.6481865"><ele>193.6</ele><time>2026-05-03T15:44:49.887Z</time></trkpt><trkpt lat="42.0270915" lon="12.6482684"><ele>193.4</ele><time>2026-05-03T15:44:50.881Z</time></trkpt><trkpt lat="42.0270125" lon="12.6483875"><ele>193.2</ele><time>2026-05-03T15:44:51.898Z</time></trkpt><trkpt lat="42.0269272" lon="12.6485382"><ele>193.0</ele><time>2026-05-03T15:44:52.872Z</time></trkpt><trkpt lat="42.0267859" lon="12.6486667"><ele>193.0</ele><time>2026-05-03T15:44:53.885Z</time></trkpt><trkpt lat="42.0266048" lon="12.64881"><ele>193.0</ele><time>2026-05-03T15:44:54.873Z</time></trkpt><trkpt lat="42.0264424" lon="12.648875"><ele>193.0</ele><time>2026-05-03T15:44:55.871Z</time></trkpt><trkpt lat="42.0262712" lon="12.6488937"><ele>193.0</ele><time>2026-05-03T15:44:56.881Z</time></trkpt><trkpt lat="42.0261474" lon="12.6488662"><ele>193.0</ele><time>2026-05-03T15:44:57.885Z</time></trkpt><trkpt lat="42.0260456" lon="12.6488563"><ele>193.0</ele><time>2026-05-03T15:44:58.883Z</time></trkpt><trkpt lat="42.0259263" lon="12.6488215"><ele>193.0</ele><time>2026-05-03T15:44:59.882Z</time></trkpt><trkpt lat="42.0258015" lon="12.6487263"><ele>193.4</ele><time>2026-05-03T15:45:00.891Z</time></trkpt><trkpt lat="42.0256999" lon="12.6486753"><ele>193.8</ele><time>2026-05-03T15:45:01.883Z</time></trkpt><trkpt lat="42.0256287" lon="12.6486696"><ele>194.2</ele><time>2026-05-03T15:45:02.884Z</time></trkpt><trkpt lat="42.0255382" lon="12.6486659"><ele>194.6</ele><time>2026-05-03T15:45:03.886Z</time></trkpt><trkpt lat="42.0254239" lon="12.6486654"><ele>195.0</ele><time>2026-05-03T15:45:04.879Z</time></trkpt><trkpt lat="42.025293" lon="12.6487027"><ele>195.0</ele><time>2026-05-03T15:45:05.891Z</time></trkpt><trkpt lat="42.0251766" lon="12.6487352"><ele>195.0</ele><time>2026-05-03T15:45:06.892Z</time></trkpt><trkpt lat="42.02504" lon="12.6487735"><ele>195.0</ele><time>2026-05-03T15:45:07.885Z</time></trkpt><trkpt lat="42.0248939" lon="12.6488294"><ele>195.0</ele><time>2026-05-03T15:45:08.886Z</time></trkpt><trkpt lat="42.0247608" lon="12.6488902"><ele>195.5</ele><time>2026-05-03T15:45:09.876Z</time></trkpt><trkpt lat="42.0246319" lon="12.6489481"><ele>196.0</ele><time>2026-05-03T15:45:10.887Z</time></trkpt><trkpt lat="42.0245124" lon="12.6489994"><ele>196.5</ele><time>2026-05-03T15:45:11.887Z</time></trkpt><trkpt lat="42.0243926" lon="12.6490516"><ele>197.0</ele><time>2026-05-03T15:45:12.879Z</time></trkpt><trkpt lat="42.0242654" lon="12.6490765"><ele>198.0</ele><time>2026-05-03T15:45:13.882Z</time></trkpt><trkpt lat="42.0241237" lon="12.6490972"><ele>199.0</ele><time>2026-05-03T15:45:14.875Z</time></trkpt><trkpt lat="42.0239985" lon="12.6490459"><ele>200.0</ele><time>2026-05-03T15:45:15.886Z</time></trkpt><trkpt lat="42.02388" lon="12.6489738"><ele>201.0</ele><time>2026-05-03T15:45:16.873Z</time></trkpt><trkpt lat="42.0237697" lon="12.6489005"><ele>201.0</ele><time>2026-05-03T15:45:17.887Z</time></trkpt><trkpt lat="42.0236673" lon="12.6488038"><ele>201.0</ele><time>2026-05-03T15:45:18.893Z</time></trkpt><trkpt lat="42.0235627" lon="12.6486817"><ele>201.0</ele><time>2026-05-03T15:45:19.891Z</time></trkpt><trkpt lat="42.0234838" lon="12.6485245"><ele>201.0</ele><time>2026-05-03T15:45:20.893Z</time></trkpt><trkpt lat="42.0233803" lon="12.6484146"><ele>200.5</ele><time>2026-05-03T15:45:21.902Z</time></trkpt><trkpt lat="42.0232746" lon="12.6483148"><ele>200.0</ele><time>2026-05-03T15:45:22.892Z</time></trkpt><trkpt lat="42.0231618" lon="12.6482383"><ele>199.5</ele><time>2026-05-03T15:45:23.888Z</time></trkpt><trkpt lat="42.0230426" lon="12.6481208"><ele>199.0</ele><time>2026-05-03T15:45:24.89Z</time></trkpt><trkpt lat="42.0229233" lon="12.6480139"><ele>199.0</ele><time>2026-05-03T15:45:25.894Z</time></trkpt><trkpt lat="42.0227849" lon="12.6478926"><ele>199.0</ele><time>2026-05-03T15:45:26.883Z</time></trkpt><trkpt lat="42.0226843" lon="12.6478066"><ele>199.0</ele><time>2026-05-03T15:45:27.896Z</time></trkpt><trkpt lat="42.022563" lon="12.6477037"><ele>199.0</ele><time>2026-05-03T15:45:28.891Z</time></trkpt><trkpt lat="42.0224565" lon="12.6476095"><ele>196.5</ele><time>2026-05-03T15:45:29.889Z</time></trkpt><trkpt lat="42.0223557" lon="12.6474989"><ele>194.0</ele><time>2026-05-03T15:45:30.901Z</time></trkpt><trkpt lat="42.0222512" lon="12.6474011"><ele>191.5</ele><time>2026-05-03T15:45:31.892Z</time></trkpt><trkpt lat="42.0221676" lon="12.6473167"><ele>189.0</ele><time>2026-05-03T15:45:32.89Z</time></trkpt><trkpt lat="42.0220979" lon="12.6472276"><ele>189.0</ele><time>2026-05-03T15:45:33.886Z</time></trkpt><trkpt lat="42.0220207" lon="12.6471053"><ele>189.0</ele><time>2026-05-03T15:45:34.889Z</time></trkpt><trkpt lat="42.0219402" lon="12.6469482"><ele>189.0</ele><time>2026-05-03T15:45:35.882Z</time></trkpt><trkpt lat="42.0218684" lon="12.6467624"><ele>189.0</ele><time>2026-05-03T15:45:36.889Z</time></trkpt><trkpt lat="42.0217907" lon="12.6465693"><ele>189.0</ele><time>2026-05-03T15:45:37.89Z</time></trkpt><trkpt lat="42.0217159" lon="12.6463773"><ele>189.0</ele><time>2026-05-03T15:45:38.888Z</time></trkpt><trkpt lat="42.0216661" lon="12.6462218"><ele>189.0</ele><time>2026-05-03T15:45:39.885Z</time></trkpt><trkpt lat="42.0216143" lon="12.6460568"><ele>189.0</ele><time>2026-05-03T15:45:40.888Z</time></trkpt><trkpt lat="42.0215702" lon="12.6458752"><ele>190.0</ele><time>2026-05-03T15:45:41.887Z</time></trkpt><trkpt lat="42.021536" lon="12.6456753"><ele>191.0</ele><time>2026-05-03T15:45:42.88Z</time></trkpt><trkpt lat="42.0215046" lon="12.645485"><ele>192.0</ele><time>2026-05-03T15:45:43.888Z</time></trkpt><trkpt lat="42.0214603" lon="12.6452733"><ele>190.5</ele><time>2026-05-03T15:45:44.885Z</time></trkpt><trkpt lat="42.0214047" lon="12.6450526"><ele>189.0</ele><time>2026-05-03T15:45:45.885Z</time></trkpt><trkpt lat="42.0213388" lon="12.644893"><ele>187.5</ele><time>2026-05-03T15:45:46.891Z</time></trkpt><trkpt lat="42.0212776" lon="12.6447495"><ele>186.0</ele><time>2026-05-03T15:45:47.889Z</time></trkpt><trkpt lat="42.0212084" lon="12.6445775"><ele>184.75</ele><time>2026-05-03T15:45:48.888Z</time></trkpt><trkpt lat="42.021123" lon="12.6444027"><ele>183.5</ele><time>2026-05-03T15:45:49.893Z</time></trkpt><trkpt lat="42.0210543" lon="12.6442298"><ele>182.25</ele><time>2026-05-03T15:45:50.886Z</time></trkpt><trkpt lat="42.0210066" lon="12.6440505"><ele>181.0</ele><time>2026-05-03T15:45:51.899Z</time></trkpt><trkpt lat="42.0209645" lon="12.6438852"><ele>181.0</ele><time>2026-05-03T15:45:52.893Z</time></trkpt><trkpt lat="42.0209159" lon="12.6437539"><ele>181.0</ele><time>2026-05-03T15:45:53.883Z</time></trkpt><trkpt lat="42.0208608" lon="12.6436308"><ele>181.0</ele><time>2026-05-03T15:45:54.884Z</time></trkpt><trkpt lat="42.0207867" lon="12.6435045"><ele>181.0</ele><time>2026-05-03T15:45:55.888Z</time></trkpt><trkpt lat="42.0206858" lon="12.6433746"><ele>179.25</ele><time>2026-05-03T15:45:56.875Z</time></trkpt><trkpt lat="42.020566" lon="12.6432965"><ele>177.5</ele><time>2026-05-03T15:45:57.882Z</time></trkpt><trkpt lat="42.0204622" lon="12.6432239"><ele>175.75</ele><time>2026-05-03T15:45:58.872Z</time></trkpt><trkpt lat="42.0203437" lon="12.6431408"><ele>174.0</ele><time>2026-05-03T15:45:59.873Z</time></trkpt><trkpt lat="42.0202032" lon="12.6430343"><ele>174.0</ele><time>2026-05-03T15:46:00.877Z</time></trkpt><trkpt lat="42.0200352" lon="12.642927"><ele>174.0</ele><time>2026-05-03T15:46:01.875Z</time></trkpt><trkpt lat="42.0198676" lon="12.6428083"><ele>174.0</ele><time>2026-05-03T15:46:02.878Z</time></trkpt><trkpt lat="42.0196962" lon="12.6426779"><ele>169.33333333333334</ele><time>2026-05-03T15:46:03.881Z</time></trkpt><trkpt lat="42.0195297" lon="12.6425409"><ele>164.66666666666669</ele><time>2026-05-03T15:46:04.896Z</time></trkpt><trkpt lat="42.0193726" lon="12.6424037"><ele>160.0</ele><time>2026-05-03T15:46:05.892Z</time></trkpt><trkpt lat="42.0192308" lon="12.6422674"><ele>159.66666666666669</ele><time>2026-05-03T15:46:06.883Z</time></trkpt><trkpt lat="42.0190806" lon="12.6421022"><ele>159.33333333333334</ele><time>2026-05-03T15:46:07.888Z</time></trkpt><trkpt lat="42.0189653" lon="12.6419539"><ele>159.0</ele><time>2026-05-03T15:46:08.885Z</time></trkpt><trkpt lat="42.0188447" lon="12.6417927"><ele>159.0</ele><time>2026-05-03T15:46:09.976Z</time></trkpt><trkpt lat="42.0187536" lon="12.6416552"><ele>159.0</ele><time>2026-05-03T15:46:10.891Z</time></trkpt><trkpt lat="42.018675" lon="12.6415097"><ele>159.0</ele><time>2026-05-03T15:46:11.883Z</time></trkpt><trkpt lat="42.0185897" lon="12.6413607"><ele>159.0</ele><time>2026-05-03T15:46:12.895Z</time></trkpt><trkpt lat="42.0185068" lon="12.6412095"><ele>160.66666666666666</ele><time>2026-05-03T15:46:13.892Z</time></trkpt><trkpt lat="42.018442" lon="12.6410889"><ele>162.33333333333331</ele><time>2026-05-03T15:46:14.903Z</time></trkpt><trkpt lat="42.0183554" lon="12.6409633"><ele>164.0</ele><time>2026-05-03T15:46:16.049Z</time></trkpt><trkpt lat="42.0181867" lon="12.6407021"><ele>168.75</ele><time>2026-05-03T15:46:17.876Z</time></trkpt><trkpt lat="42.018101" lon="12.6405603"><ele>173.5</ele><time>2026-05-03T15:46:18.887Z</time></trkpt><trkpt lat="42.0180142" lon="12.6404357"><ele>178.25</ele><time>2026-05-03T15:46:19.879Z</time></trkpt><trkpt lat="42.0179227" lon="12.6403045"><ele>183.0</ele><time>2026-05-03T15:46:20.88Z</time></trkpt><trkpt lat="42.0178057" lon="12.640148"><ele>183.33333333333334</ele><time>2026-05-03T15:46:21.889Z</time></trkpt><trkpt lat="42.0176742" lon="12.6399764"><ele>183.66666666666669</ele><time>2026-05-03T15:46:22.883Z</time></trkpt><trkpt lat="42.0175613" lon="12.6398891"><ele>184.0</ele><time>2026-05-03T15:46:23.875Z</time></trkpt><trkpt lat="42.0174461" lon="12.6397784"><ele>186.25</ele><time>2026-05-03T15:46:24.883Z</time></trkpt><trkpt lat="42.0173239" lon="12.639691"><ele>188.5</ele><time>2026-05-03T15:46:25.884Z</time></trkpt><trkpt lat="42.017214" lon="12.6396281"><ele>190.75</ele><time>2026-05-03T15:46:26.866Z</time></trkpt><trkpt lat="42.0170917" lon="12.6396045"><ele>193.0</ele><time>2026-05-03T15:46:27.879Z</time></trkpt><trkpt lat="42.0169692" lon="12.6395695"><ele>193.0</ele><time>2026-05-03T15:46:28.862Z</time></trkpt><trkpt lat="42.0168513" lon="12.6395295"><ele>193.0</ele><time>2026-05-03T15:46:29.864Z</time></trkpt><trkpt lat="42.0167365" lon="12.6395241"><ele>193.0</ele><time>2026-05-03T15:46:30.874Z</time></trkpt><trkpt lat="42.0165983" lon="12.6395009"><ele>193.0</ele><time>2026-05-03T15:46:31.877Z</time></trkpt><trkpt lat="42.0164633" lon="12.6394812"><ele>191.75</ele><time>2026-05-03T15:46:32.88Z</time></trkpt><trkpt lat="42.0163346" lon="12.6394604"><ele>190.5</ele><time>2026-05-03T15:46:33.879Z</time></trkpt><trkpt lat="42.0162064" lon="12.6394795"><ele>189.25</ele><time>2026-05-03T15:46:34.88Z</time></trkpt><trkpt lat="42.0160707" lon="12.6395243"><ele>188.0</ele><time>2026-05-03T15:46:35.873Z</time></trkpt><trkpt lat="42.0158983" lon="12.63959"><ele>186.33333333333331</ele><time>2026-05-03T15:46:36.874Z</time></trkpt><trkpt lat="42.015736" lon="12.6396646"><ele>184.66666666666666</ele><time>2026-05-03T15:46:37.874Z</time></trkpt><trkpt lat="42.0155912" lon="12.6396769"><ele>183.0</ele><time>2026-05-03T15:46:38.899Z</time></trkpt><trkpt lat="42.0154581" lon="12.6397289"><ele>183.0</ele><time>2026-05-03T15:46:39.876Z</time></trkpt><trkpt lat="42.0153264" lon="12.6397722"><ele>183.0</ele><time>2026-05-03T15:46:40.878Z</time></trkpt><trkpt lat="42.0152095" lon="12.6398186"><ele>183.0</ele><time>2026-05-03T15:46:41.891Z</time></trkpt><trkpt lat="42.0150732" lon="12.6398257"><ele>183.0</ele><time>2026-05-03T15:46:42.898Z</time></trkpt><trkpt lat="42.014954" lon="12.6398011"><ele>183.5</ele><time>2026-05-03T15:46:43.881Z</time></trkpt><trkpt lat="42.0148487" lon="12.6397549"><ele>184.0</ele><time>2026-05-03T15:46:44.884Z</time></trkpt><trkpt lat="42.0147537" lon="12.6396889"><ele>184.5</ele><time>2026-05-03T15:46:45.961Z</time></trkpt><trkpt lat="42.0146465" lon="12.6395863"><ele>185.0</ele><time>2026-05-03T15:46:46.89Z</time></trkpt><trkpt lat="42.0145041" lon="12.6394335"><ele>185.0</ele><time>2026-05-03T15:46:47.888Z</time></trkpt><trkpt lat="42.0143749" lon="12.6392721"><ele>185.0</ele><time>2026-05-03T15:46:48.899Z</time></trkpt><trkpt lat="42.0142666" lon="12.6391101"><ele>185.0</ele><time>2026-05-03T15:46:49.899Z</time></trkpt><trkpt lat="42.0141571" lon="12.6389782"><ele>186.5</ele><time>2026-05-03T15:46:50.889Z</time></trkpt><trkpt lat="42.014049" lon="12.6388349"><ele>188.0</ele><time>2026-05-03T15:46:51.908Z</time></trkpt><trkpt lat="42.0139391" lon="12.6387483"><ele>189.5</ele><time>2026-05-03T15:46:52.897Z</time></trkpt><trkpt lat="42.0138068" lon="12.6386465"><ele>191.0</ele><time>2026-05-03T15:46:53.879Z</time></trkpt><trkpt lat="42.0136707" lon="12.6385408"><ele>188.0</ele><time>2026-05-03T15:46:54.89Z</time></trkpt><trkpt lat="42.0135544" lon="12.6384569"><ele>185.0</ele><time>2026-05-03T15:46:55.891Z</time></trkpt><trkpt lat="42.0134302" lon="12.6383824"><ele>182.0</ele><time>2026-05-03T15:46:56.887Z</time></trkpt><trkpt lat="42.0132867" lon="12.6383021"><ele>179.0</ele><time>2026-05-03T15:46:57.888Z</time></trkpt><trkpt lat="42.0131454" lon="12.6382094"><ele>177.33333333333331</ele><time>2026-05-03T15:46:58.893Z</time></trkpt><trkpt lat="42.0129962" lon="12.6381512"><ele>175.66666666666666</ele><time>2026-05-03T15:46:59.885Z</time></trkpt><trkpt lat="42.012834" lon="12.6380815"><ele>174.0</ele><time>2026-05-03T15:47:00.879Z</time></trkpt><trkpt lat="42.0126723" lon="12.6380399"><ele>174.0</ele><time>2026-05-03T15:47:01.879Z</time></trkpt><trkpt lat="42.0125381" lon="12.6379815"><ele>174.0</ele><time>2026-05-03T15:47:02.881Z</time></trkpt><trkpt lat="42.0124075" lon="12.6379253"><ele>174.0</ele><time>2026-05-03T15:47:03.892Z</time></trkpt><trkpt lat="42.0122769" lon="12.6379149"><ele>174.0</ele><time>2026-05-03T15:47:04.89Z</time></trkpt><trkpt lat="42.0121676" lon="12.6378954"><ele>172.0</ele><time>2026-05-03T15:47:05.879Z</time></trkpt><trkpt lat="42.0120592" lon="12.6379186"><ele>170.0</ele><time>2026-05-03T15:47:06.891Z</time></trkpt><trkpt lat="42.0119683" lon="12.6379824"><ele>168.0</ele><time>2026-05-03T15:47:07.884Z</time></trkpt><trkpt lat="42.011877" lon="12.6380321"><ele>166.0</ele><time>2026-05-03T15:47:08.886Z</time></trkpt><trkpt lat="42.0117818" lon="12.6380847"><ele>164.0</ele><time>2026-05-03T15:47:09.886Z</time></trkpt><trkpt lat="42.0116921" lon="12.6381326"><ele>162.2</ele><time>2026-05-03T15:47:10.894Z</time></trkpt><trkpt lat="42.0115912" lon="12.6381777"><ele>160.39999999999998</ele><time>2026-05-03T15:47:11.882Z</time></trkpt><trkpt lat="42.0114871" lon="12.6382241"><ele>158.6</ele><time>2026-05-03T15:47:12.882Z</time></trkpt><trkpt lat="42.011388" lon="12.6382784"><ele>156.8</ele><time>2026-05-03T15:47:13.876Z</time></trkpt><trkpt lat="42.0112852" lon="12.6383238"><ele>155.0</ele><time>2026-05-03T15:47:14.881Z</time></trkpt><trkpt lat="42.0111894" lon="12.6383509"><ele>155.0</ele><time>2026-05-03T15:47:15.884Z</time></trkpt><trkpt lat="42.0110923" lon="12.6383606"><ele>155.0</ele><time>2026-05-03T15:47:16.884Z</time></trkpt><trkpt lat="42.0109952" lon="12.6383597"><ele>155.0</ele><time>2026-05-03T15:47:17.872Z</time></trkpt><trkpt lat="42.0109021" lon="12.6383425"><ele>155.0</ele><time>2026-05-03T15:47:18.883Z</time></trkpt><trkpt lat="42.0108098" lon="12.6383105"><ele>155.0</ele><time>2026-05-03T15:47:19.885Z</time></trkpt><trkpt lat="42.0107239" lon="12.6382567"><ele>154.6</ele><time>2026-05-03T15:47:20.876Z</time></trkpt><trkpt lat="42.0106495" lon="12.6381797"><ele>154.2</ele><time>2026-05-03T15:47:21.895Z</time></trkpt><trkpt lat="42.0105859" lon="12.6380814"><ele>153.8</ele><time>2026-05-03T15:47:22.878Z</time></trkpt><trkpt lat="42.0105207" lon="12.6379568"><ele>153.4</ele><time>2026-05-03T15:47:23.882Z</time></trkpt><trkpt lat="42.0104453" lon="12.637827"><ele>153.0</ele><time>2026-05-03T15:47:24.881Z</time></trkpt><trkpt lat="42.0103654" lon="12.6376878"><ele>151.25</ele><time>2026-05-03T15:47:25.887Z</time></trkpt><trkpt lat="42.0102877" lon="12.6375541"><ele>149.5</ele><time>2026-05-03T15:47:26.882Z</time></trkpt><trkpt lat="42.0102128" lon="12.6374215"><ele>147.75</ele><time>2026-05-03T15:47:27.881Z</time></trkpt><trkpt lat="42.0101303" lon="12.6372838"><ele>146.0</ele><time>2026-05-03T15:47:28.881Z</time></trkpt><trkpt lat="42.0100459" lon="12.637153"><ele>145.8</ele><time>2026-05-03T15:47:29.886Z</time></trkpt><trkpt lat="42.0099611" lon="12.6370251"><ele>145.6</ele><time>2026-05-03T15:47:30.874Z</time></trkpt><trkpt lat="42.0098836" lon="12.6369084"><ele>145.4</ele><time>2026-05-03T15:47:31.883Z</time></trkpt><trkpt lat="42.009817" lon="12.6368047"><ele>145.2</ele><time>2026-05-03T15:47:32.877Z</time></trkpt><trkpt lat="42.0097501" lon="12.6367051"><ele>145.0</ele><time>2026-05-03T15:47:33.881Z</time></trkpt><trkpt lat="42.0096812" lon="12.6366119"><ele>145.0</ele><time>2026-05-03T15:47:34.889Z</time></trkpt><trkpt lat="42.0096029" lon="12.6365127"><ele>145.0</ele><time>2026-05-03T15:47:35.883Z</time></trkpt><trkpt lat="42.00953" lon="12.6364192"><ele>145.0</ele><time>2026-05-03T15:47:36.882Z</time></trkpt><trkpt lat="42.0094615" lon="12.6363267"><ele>145.0</ele><time>2026-05-03T15:47:37.887Z</time></trkpt><trkpt lat="42.0093929" lon="12.6362435"><ele>145.0</ele><time>2026-05-03T15:47:38.872Z</time></trkpt><trkpt lat="42.0093146" lon="12.6361588"><ele>146.0</ele><time>2026-05-03T15:47:39.97Z</time></trkpt><trkpt lat="42.0092295" lon="12.6360676"><ele>147.0</ele><time>2026-05-03T15:47:40.885Z</time></trkpt><trkpt lat="42.009137" lon="12.6359816"><ele>148.0</ele><time>2026-05-03T15:47:41.882Z</time></trkpt><trkpt lat="42.0090375" lon="12.6359085"><ele>149.0</ele><time>2026-05-03T15:47:42.891Z</time></trkpt><trkpt lat="42.0089249" lon="12.6358509"><ele>149.0</ele><time>2026-05-03T15:47:43.883Z</time></trkpt><trkpt lat="42.0087972" lon="12.6358029"><ele>149.0</ele><time>2026-05-03T15:47:44.87Z</time></trkpt><trkpt lat="42.0086534" lon="12.635771"><ele>149.0</ele><time>2026-05-03T15:47:45.879Z</time></trkpt><trkpt lat="42.0084898" lon="12.6357169"><ele>149.0</ele><time>2026-05-03T15:47:46.91Z</time></trkpt><trkpt lat="42.0083546" lon="12.6356537"><ele>147.66666666666666</ele><time>2026-05-03T15:47:47.886Z</time></trkpt><trkpt lat="42.0082377" lon="12.6355785"><ele>146.33333333333334</ele><time>2026-05-03T15:47:49.039Z</time></trkpt><trkpt lat="42.0080065" lon="12.6354666"><ele>145.0</ele><time>2026-05-03T15:47:50.876Z</time></trkpt><trkpt lat="42.007877" lon="12.6354124"><ele>146.5</ele><time>2026-05-03T15:47:52.049Z</time></trkpt><trkpt lat="42.0075705" lon="12.6352289"><ele>148.0</ele><time>2026-05-03T15:47:53.877Z</time></trkpt><trkpt lat="42.0074142" lon="12.6351315"><ele>149.5</ele><time>2026-05-03T15:47:54.893Z</time></trkpt><trkpt lat="42.0072804" lon="12.6350457"><ele>151.0</ele><time>2026-05-03T15:47:55.885Z</time></trkpt><trkpt lat="42.0071684" lon="12.6349707"><ele>152.5</ele><time>2026-05-03T15:47:56.883Z</time></trkpt><trkpt lat="42.0070422" lon="12.6348855"><ele>154.0</ele><time>2026-05-03T15:47:57.901Z</time></trkpt><trkpt lat="42.0069059" lon="12.6348069"><ele>154.0</ele><time>2026-05-03T15:47:58.892Z</time></trkpt><trkpt lat="42.0067503" lon="12.6347594"><ele>154.0</ele><time>2026-05-03T15:47:59.894Z</time></trkpt><trkpt lat="42.0066005" lon="12.6347321"><ele>154.0</ele><time>2026-05-03T15:48:00.891Z</time></trkpt><trkpt lat="42.0064505" lon="12.634707"><ele>155.33333333333334</ele><time>2026-05-03T15:48:01.894Z</time></trkpt><trkpt lat="42.006289" lon="12.634679"><ele>156.66666666666666</ele><time>2026-05-03T15:48:02.891Z</time></trkpt><trkpt lat="42.0061497" lon="12.63464"><ele>158.0</ele><time>2026-05-03T15:48:03.901Z</time></trkpt><trkpt lat="42.0060044" lon="12.6345889"><ele>158.0</ele><time>2026-05-03T15:48:04.89Z</time></trkpt><trkpt lat="42.0058797" lon="12.6345266"><ele>158.0</ele><time>2026-05-03T15:48:05.903Z</time></trkpt><trkpt lat="42.0057494" lon="12.6344372"><ele>158.0</ele><time>2026-05-03T15:48:06.896Z</time></trkpt><trkpt lat="42.0056084" lon="12.6343575"><ele>158.0</ele><time>2026-05-03T15:48:07.899Z</time></trkpt><trkpt lat="42.0054581" lon="12.6342807"><ele>155.33333333333331</ele><time>2026-05-03T15:48:08.892Z</time></trkpt><trkpt lat="42.0053008" lon="12.6342095"><ele>152.66666666666666</ele><time>2026-05-03T15:48:09.893Z</time></trkpt><trkpt lat="42.0051337" lon="12.6341248"><ele>150.0</ele><time>2026-05-03T15:48:10.89Z</time></trkpt><trkpt lat="42.0049981" lon="12.6340542"><ele>149.0</ele><time>2026-05-03T15:48:11.888Z</time></trkpt><trkpt lat="42.0048522" lon="12.6339693"><ele>148.0</ele><time>2026-05-03T15:48:12.898Z</time></trkpt><trkpt lat="42.0046971" lon="12.6339109"><ele>147.0</ele><time>2026-05-03T15:48:13.88Z</time></trkpt><trkpt lat="42.0045656" lon="12.6338726"><ele>147.0</ele><time>2026-05-03T15:48:14.88Z</time></trkpt><trkpt lat="42.0044254" lon="12.6338377"><ele>147.0</ele><time>2026-05-03T15:48:15.89Z</time></trkpt><trkpt lat="42.0042836" lon="12.6338027"><ele>147.0</ele><time>2026-05-03T15:48:16.876Z</time></trkpt><trkpt lat="42.0041406" lon="12.633789"><ele>147.0</ele><time>2026-05-03T15:48:17.869Z</time></trkpt><trkpt lat="42.0039977" lon="12.6337868"><ele>146.0</ele><time>2026-05-03T15:48:18.877Z</time></trkpt><trkpt lat="42.0038733" lon="12.6337961"><ele>145.0</ele><time>2026-05-03T15:48:19.874Z</time></trkpt><trkpt lat="42.0037624" lon="12.6337669"><ele>144.0</ele><time>2026-05-03T15:48:20.874Z</time></trkpt><trkpt lat="42.0036487" lon="12.6337011"><ele>143.0</ele><time>2026-05-03T15:48:21.884Z</time></trkpt><trkpt lat="42.0035203" lon="12.6336083"><ele>143.0</ele><time>2026-05-03T15:48:22.873Z</time></trkpt><trkpt lat="42.0034019" lon="12.6335171"><ele>143.0</ele><time>2026-05-03T15:48:23.875Z</time></trkpt><trkpt lat="42.003269" lon="12.6334395"><ele>143.0</ele><time>2026-05-03T15:48:24.881Z</time></trkpt><trkpt lat="42.0031595" lon="12.6334034"><ele>143.0</ele><time>2026-05-03T15:48:25.886Z</time></trkpt><trkpt lat="42.0030483" lon="12.6333582"><ele>143.4</ele><time>2026-05-03T15:48:26.884Z</time></trkpt><trkpt lat="42.002944" lon="12.6333047"><ele>143.8</ele><time>2026-05-03T15:48:27.889Z</time></trkpt><trkpt lat="42.0028478" lon="12.6332588"><ele>144.2</ele><time>2026-05-03T15:48:28.878Z</time></trkpt><trkpt lat="42.0027577" lon="12.6332196"><ele>144.6</ele><time>2026-05-03T15:48:29.891Z</time></trkpt><trkpt lat="42.0026706" lon="12.6331833"><ele>145.0</ele><time>2026-05-03T15:48:30.888Z</time></trkpt><trkpt lat="42.0025793" lon="12.6331504"><ele>145.6</ele><time>2026-05-03T15:48:31.879Z</time></trkpt><trkpt lat="42.002481" lon="12.6331187"><ele>146.2</ele><time>2026-05-03T15:48:32.892Z</time></trkpt><trkpt lat="42.0023867" lon="12.6330892"><ele>146.8</ele><time>2026-05-03T15:48:33.885Z</time></trkpt><trkpt lat="42.0022962" lon="12.6330585"><ele>147.4</ele><time>2026-05-03T15:48:34.89Z</time></trkpt><trkpt lat="42.0022115" lon="12.6330239"><ele>148.0</ele><time>2026-05-03T15:48:35.887Z</time></trkpt><trkpt lat="42.0021367" lon="12.6329928"><ele>148.0</ele><time>2026-05-03T15:48:36.887Z</time></trkpt><trkpt lat="42.0020645" lon="12.6329656"><ele>148.0</ele><time>2026-05-03T15:48:37.89Z</time></trkpt><trkpt lat="42.0019977" lon="12.632933"><ele>148.0</ele><time>2026-05-03T15:48:38.878Z</time></trkpt><trkpt lat="42.001929" lon="12.6328866"><ele>148.0</ele><time>2026-05-03T15:48:39.885Z</time></trkpt><trkpt lat="42.0018476" lon="12.6328342"><ele>148.0</ele><time>2026-05-03T15:48:40.89Z</time></trkpt><trkpt lat="42.0017694" lon="12.6327937"><ele>148.0</ele><time>2026-05-03T15:48:41.878Z</time></trkpt><trkpt lat="42.0016819" lon="12.6327489"><ele>147.83333333333334</ele><time>2026-05-03T15:48:42.889Z</time></trkpt><trkpt lat="42.0015988" lon="12.6327023"><ele>147.66666666666669</ele><time>2026-05-03T15:48:43.894Z</time></trkpt><trkpt lat="42.001513" lon="12.6326637"><ele>147.5</ele><time>2026-05-03T15:48:44.89Z</time></trkpt><trkpt lat="42.0014312" lon="12.6326276"><ele>147.33333333333334</ele><time>2026-05-03T15:48:45.889Z</time></trkpt><trkpt lat="42.0013594" lon="12.632584"><ele>147.16666666666666</ele><time>2026-05-03T15:48:46.879Z</time></trkpt><trkpt lat="42.0012915" lon="12.6325445"><ele>147.0</ele><time>2026-05-03T15:48:47.877Z</time></trkpt><trkpt lat="42.001225" lon="12.6324948"><ele>147.0</ele><time>2026-05-03T15:48:48.889Z</time></trkpt><trkpt lat="42.0011617" lon="12.6324471"><ele>147.0</ele><time>2026-05-03T15:48:49.881Z</time></trkpt><trkpt lat="42.0011044" lon="12.6324075"><ele>147.0</ele><time>2026-05-03T15:48:50.878Z</time></trkpt><trkpt lat="42.001006" lon="12.6323435"><ele>147.0</ele><time>2026-05-03T15:48:52.884Z</time></trkpt><trkpt lat="42.0008947" lon="12.6322685"><ele>147.0</ele><time>2026-05-03T15:48:54.887Z</time></trkpt><trkpt lat="42.0008391" lon="12.6322157"><ele>147.0</ele><time>2026-05-03T15:48:55.886Z</time></trkpt><trkpt lat="42.0007568" lon="12.6321373"><ele>146.79999999999998</ele><time>2026-05-03T15:48:57.885Z</time></trkpt><trkpt lat="42.0006891" lon="12.6320724"><ele>146.6</ele><time>2026-05-03T15:48:59.886Z</time></trkpt><trkpt lat="42.000591" lon="12.6319686"><ele>146.39999999999998</ele><time>2026-05-03T15:49:01.887Z</time></trkpt><trkpt lat="42.0005319" lon="12.631896"><ele>146.2</ele><time>2026-05-03T15:49:02.869Z</time></trkpt><trkpt lat="42.0004723" lon="12.6318118"><ele>146.0</ele><time>2026-05-03T15:49:03.882Z</time></trkpt><trkpt lat="42.0004293" lon="12.6317264"><ele>146.0</ele><time>2026-05-03T15:49:04.874Z</time></trkpt><trkpt lat="42.0003877" lon="12.6316329"><ele>146.0</ele><time>2026-05-03T15:49:05.884Z</time></trkpt><trkpt lat="42.0003518" lon="12.6315479"><ele>146.0</ele><time>2026-05-03T15:49:06.874Z</time></trkpt><trkpt lat="42.0003089" lon="12.6314693"><ele>146.0</ele><time>2026-05-03T15:49:07.883Z</time></trkpt><trkpt lat="42.0002713" lon="12.6313838"><ele>146.0</ele><time>2026-05-03T15:49:08.871Z</time></trkpt><trkpt lat="42.0002245" lon="12.6313042"><ele>146.0</ele><time>2026-05-03T15:49:10.044Z</time></trkpt><trkpt lat="42.0001312" lon="12.6311663"><ele>147.0</ele><time>2026-05-03T15:49:11.875Z</time></trkpt><trkpt lat="42.0000795" lon="12.6310764"><ele>148.0</ele><time>2026-05-03T15:49:12.885Z</time></trkpt><trkpt lat="42.0000287" lon="12.6309872"><ele>149.0</ele><time>2026-05-03T15:49:13.888Z</time></trkpt><trkpt lat="41.9999766" lon="12.6309038"><ele>150.0</ele><time>2026-05-03T15:49:14.899Z</time></trkpt><trkpt lat="41.999925" lon="12.6308139"><ele>151.0</ele><time>2026-05-03T15:49:15.897Z</time></trkpt><trkpt lat="41.9998746" lon="12.630719"><ele>152.0</ele><time>2026-05-03T15:49:16.888Z</time></trkpt><trkpt lat="41.9998171" lon="12.6306336"><ele>152.0</ele><time>2026-05-03T15:49:17.884Z</time></trkpt><trkpt lat="41.999752" lon="12.6305168"><ele>152.0</ele><time>2026-05-03T15:49:18.887Z</time></trkpt><trkpt lat="41.999679" lon="12.6303815"><ele>152.0</ele><time>2026-05-03T15:49:19.879Z</time></trkpt><trkpt lat="41.9996095" lon="12.6302208"><ele>152.0</ele><time>2026-05-03T15:49:20.878Z</time></trkpt><trkpt lat="41.9995536" lon="12.630058"><ele>152.5</ele><time>2026-05-03T15:49:21.898Z</time></trkpt><trkpt lat="41.9995125" lon="12.6298978"><ele>153.0</ele><time>2026-05-03T15:49:22.877Z</time></trkpt><trkpt lat="41.9994861" lon="12.6297366"><ele>153.5</ele><time>2026-05-03T15:49:23.891Z</time></trkpt><trkpt lat="41.9994704" lon="12.6295807"><ele>154.0</ele><time>2026-05-03T15:49:24.887Z</time></trkpt><trkpt lat="41.9994704" lon="12.629424"><ele>154.0</ele><time>2026-05-03T15:49:25.883Z</time></trkpt><trkpt lat="41.9994802" lon="12.629266"><ele>154.0</ele><time>2026-05-03T15:49:26.88Z</time></trkpt><trkpt lat="41.999506" lon="12.6291357"><ele>154.0</ele><time>2026-05-03T15:49:27.886Z</time></trkpt><trkpt lat="41.9995354" lon="12.6290184"><ele>154.0</ele><time>2026-05-03T15:49:28.886Z</time></trkpt><trkpt lat="41.999575" lon="12.6289043"><ele>154.0</ele><time>2026-05-03T15:49:29.882Z</time></trkpt><trkpt lat="41.9996396" lon="12.6288109"><ele>154.0</ele><time>2026-05-03T15:49:30.891Z</time></trkpt><trkpt lat="41.9997162" lon="12.6287173"><ele>154.0</ele><time>2026-05-03T15:49:31.884Z</time></trkpt><trkpt lat="41.999785" lon="12.6286258"><ele>154.0</ele><time>2026-05-03T15:49:32.884Z</time></trkpt><trkpt lat="41.9998326" lon="12.6285452"><ele>154.0</ele><time>2026-05-03T15:49:33.889Z</time></trkpt><trkpt lat="41.9997931" lon="12.6283905"><ele>154.0</ele><time>2026-05-03T15:49:35.887Z</time></trkpt><trkpt lat="41.9997184" lon="12.6283539"><ele>153.6</ele><time>2026-05-03T15:49:36.889Z</time></trkpt><trkpt lat="41.9996286" lon="12.6283643"><ele>153.2</ele><time>2026-05-03T15:49:37.876Z</time></trkpt><trkpt lat="41.9995319" lon="12.6284191"><ele>152.79999999999998</ele><time>2026-05-03T15:49:38.889Z</time></trkpt><trkpt lat="41.999438" lon="12.6284886"><ele>152.4</ele><time>2026-05-03T15:49:39.88Z</time></trkpt><trkpt lat="41.9993381" lon="12.6285378"><ele>152.0</ele><time>2026-05-03T15:49:40.876Z</time></trkpt><trkpt lat="41.9992196" lon="12.6285695"><ele>150.5</ele><time>2026-05-03T15:49:41.889Z</time></trkpt><trkpt lat="41.9990788" lon="12.6285386"><ele>149.0</ele><time>2026-05-03T15:49:42.878Z</time></trkpt><trkpt lat="41.9989339" lon="12.6284994"><ele>147.5</ele><time>2026-05-03T15:49:43.895Z</time></trkpt><trkpt lat="41.9987887" lon="12.6284532"><ele>146.0</ele><time>2026-05-03T15:49:44.886Z</time></trkpt><trkpt lat="41.9986438" lon="12.6283912"><ele>146.0</ele><time>2026-05-03T15:49:45.889Z</time></trkpt><trkpt lat="41.9984813" lon="12.6283178"><ele>146.0</ele><time>2026-05-03T15:49:46.887Z</time></trkpt><trkpt lat="41.998221" lon="12.6281838"><ele>142.5</ele><time>2026-05-03T15:49:47.918Z</time></trkpt><trkpt lat="41.9979629" lon="12.6280648"><ele>139.0</ele><time>2026-05-03T15:49:48.912Z</time></trkpt><trkpt lat="41.9977421" lon="12.6279179"><ele>137.5</ele><time>2026-05-03T15:49:49.889Z</time></trkpt><trkpt lat="41.9975074" lon="12.6277807"><ele>136.0</ele><time>2026-05-03T15:49:50.913Z</time></trkpt><trkpt lat="41.997258" lon="12.6276185"><ele>136.0</ele><time>2026-05-03T15:49:51.904Z</time></trkpt><trkpt lat="41.99701" lon="12.6274478"><ele>136.0</ele><time>2026-05-03T15:49:52.894Z</time></trkpt><trkpt lat="41.9967836" lon="12.6272803"><ele>133.5</ele><time>2026-05-03T15:49:53.886Z</time></trkpt><trkpt lat="41.9965643" lon="12.6271145"><ele>131.0</ele><time>2026-05-03T15:49:54.893Z</time></trkpt><trkpt lat="41.996362" lon="12.6269926"><ele>132.66666666666666</ele><time>2026-05-03T15:49:55.886Z</time></trkpt><trkpt lat="41.996157" lon="12.6269039"><ele>134.33333333333334</ele><time>2026-05-03T15:49:56.884Z</time></trkpt><trkpt lat="41.995956" lon="12.6268052"><ele>136.0</ele><time>2026-05-03T15:49:57.891Z</time></trkpt><trkpt lat="41.9957515" lon="12.626703"><ele>136.33333333333334</ele><time>2026-05-03T15:49:58.876Z</time></trkpt><trkpt lat="41.9955191" lon="12.6266306"><ele>136.66666666666666</ele><time>2026-05-03T15:49:59.87Z</time></trkpt><trkpt lat="41.9953195" lon="12.626542"><ele>137.0</ele><time>2026-05-03T15:50:00.847Z</time></trkpt><trkpt lat="41.995122" lon="12.6264583"><ele>138.5</ele><time>2026-05-03T15:50:01.834Z</time></trkpt><trkpt lat="41.994925" lon="12.6263739"><ele>140.0</ele><time>2026-05-03T15:50:02.825Z</time></trkpt><trkpt lat="41.9933595" lon="12.6236596"><ele>121.5</ele><time>2026-05-03T15:50:15.88Z</time></trkpt><trkpt lat="41.9931413" lon="12.6235076"><ele>103.0</ele><time>2026-05-03T15:50:16.875Z</time></trkpt><trkpt lat="41.9928815" lon="12.6233587"><ele>103.0</ele><time>2026-05-03T15:50:17.877Z</time></trkpt><trkpt lat="41.9926029" lon="12.6232236"><ele>103.0</ele><time>2026-05-03T15:50:18.868Z</time></trkpt><trkpt lat="41.9923267" lon="12.6231333"><ele>101.0</ele><time>2026-05-03T15:50:19.883Z</time></trkpt><trkpt lat="41.9920331" lon="12.6230531"><ele>99.0</ele><time>2026-05-03T15:50:20.875Z</time></trkpt><trkpt lat="41.9917645" lon="12.6229776"><ele>95.5</ele><time>2026-05-03T15:50:21.895Z</time></trkpt><trkpt lat="41.9915017" lon="12.6229134"><ele>92.0</ele><time>2026-05-03T15:50:22.882Z</time></trkpt><trkpt lat="41.9912452" lon="12.6228795"><ele>92.0</ele><time>2026-05-03T15:50:23.876Z</time></trkpt><trkpt lat="41.9910403" lon="12.6228572"><ele>92.0</ele><time>2026-05-03T15:50:24.892Z</time></trkpt><trkpt lat="41.9908271" lon="12.6228801"><ele>92.0</ele><time>2026-05-03T15:50:25.889Z</time></trkpt><trkpt lat="41.9906176" lon="12.6229225"><ele>90.66666666666667</ele><time>2026-05-03T15:50:26.88Z</time></trkpt><trkpt lat="41.9904148" lon="12.6230158"><ele>89.33333333333333</ele><time>2026-05-03T15:50:27.893Z</time></trkpt><trkpt lat="41.9902405" lon="12.6231399"><ele>88.0</ele><time>2026-05-03T15:50:28.887Z</time></trkpt><trkpt lat="41.9900481" lon="12.6232766"><ele>88.0</ele><time>2026-05-03T15:50:29.876Z</time></trkpt><trkpt lat="41.9898796" lon="12.6234175"><ele>88.0</ele><time>2026-05-03T15:50:30.888Z</time></trkpt><trkpt lat="41.9897247" lon="12.6235664"><ele>88.0</ele><time>2026-05-03T15:50:31.878Z</time></trkpt><trkpt lat="41.9895601" lon="12.6237217"><ele>87.33333333333333</ele><time>2026-05-03T15:50:32.88Z</time></trkpt><trkpt lat="41.9894121" lon="12.623893"><ele>86.66666666666667</ele><time>2026-05-03T15:50:33.874Z</time></trkpt><trkpt lat="41.989243" lon="12.6240548"><ele>86.0</ele><time>2026-05-03T15:50:34.879Z</time></trkpt><trkpt lat="41.9890601" lon="12.6242332"><ele>86.0</ele><time>2026-05-03T15:50:35.869Z</time></trkpt><trkpt lat="41.9888796" lon="12.6243979"><ele>86.0</ele><time>2026-05-03T15:50:36.875Z</time></trkpt><trkpt lat="41.9887114" lon="12.624533"><ele>86.0</ele><time>2026-05-03T15:50:37.876Z</time></trkpt><trkpt lat="41.9885644" lon="12.6246676"><ele>86.0</ele><time>2026-05-03T15:50:38.88Z</time></trkpt><trkpt lat="41.988409" lon="12.6248121"><ele>86.0</ele><time>2026-05-03T15:50:39.876Z</time></trkpt><trkpt lat="41.9882507" lon="12.6249549"><ele>86.0</ele><time>2026-05-03T15:50:40.883Z</time></trkpt><trkpt lat="41.9881074" lon="12.6251182"><ele>85.0</ele><time>2026-05-03T15:50:41.877Z</time></trkpt><trkpt lat="41.9879623" lon="12.6252734"><ele>84.0</ele><time>2026-05-03T15:50:42.883Z</time></trkpt><trkpt lat="41.9878004" lon="12.6254287"><ele>83.0</ele><time>2026-05-03T15:50:43.878Z</time></trkpt><trkpt lat="41.9876183" lon="12.6255959"><ele>77.5</ele><time>2026-05-03T15:50:44.877Z</time></trkpt><trkpt lat="41.987406" lon="12.6257916"><ele>72.0</ele><time>2026-05-03T15:50:45.875Z</time></trkpt><trkpt lat="41.9872233" lon="12.6259385"><ele>72.0</ele><time>2026-05-03T15:50:46.875Z</time></trkpt><trkpt lat="41.9870391" lon="12.6260673"><ele>72.0</ele><time>2026-05-03T15:50:47.882Z</time></trkpt><trkpt lat="41.9868424" lon="12.6261854"><ele>72.0</ele><time>2026-05-03T15:50:48.877Z</time></trkpt><trkpt lat="41.9866795" lon="12.626248"><ele>73.66666666666667</ele><time>2026-05-03T15:50:49.884Z</time></trkpt><trkpt lat="41.9865042" lon="12.6263084"><ele>75.33333333333334</ele><time>2026-05-03T15:50:50.882Z</time></trkpt><trkpt lat="41.986346" lon="12.626357"><ele>77.0</ele><time>2026-05-03T15:50:51.901Z</time></trkpt><trkpt lat="41.986173" lon="12.6263815"><ele>77.0</ele><time>2026-05-03T15:50:52.889Z</time></trkpt><trkpt lat="41.9859911" lon="12.6264412"><ele>77.0</ele><time>2026-05-03T15:50:53.89Z</time></trkpt><trkpt lat="41.9858051" lon="12.6264925"><ele>77.0</ele><time>2026-05-03T15:50:54.877Z</time></trkpt><trkpt lat="41.9856216" lon="12.6265406"><ele>75.66666666666667</ele><time>2026-05-03T15:50:55.89Z</time></trkpt><trkpt lat="41.9854399" lon="12.6266159"><ele>74.33333333333333</ele><time>2026-05-03T15:50:56.877Z</time></trkpt><trkpt lat="41.9852533" lon="12.6266771"><ele>73.0</ele><time>2026-05-03T15:50:57.891Z</time></trkpt><trkpt lat="41.9850712" lon="12.6267318"><ele>71.0</ele><time>2026-05-03T15:50:58.886Z</time></trkpt><trkpt lat="41.9848912" lon="12.6267907"><ele>69.0</ele><time>2026-05-03T15:50:59.883Z</time></trkpt><trkpt lat="41.9847301" lon="12.626838"><ele>67.0</ele><time>2026-05-03T15:51:00.883Z</time></trkpt><trkpt lat="41.9845734" lon="12.626891"><ele>67.0</ele><time>2026-05-03T15:51:01.894Z</time></trkpt><trkpt lat="41.9844106" lon="12.6269367"><ele>67.0</ele><time>2026-05-03T15:51:02.886Z</time></trkpt><trkpt lat="41.9842597" lon="12.626971"><ele>67.0</ele><time>2026-05-03T15:51:03.89Z</time></trkpt><trkpt lat="41.9840999" lon="12.6270127"><ele>68.0</ele><time>2026-05-03T15:51:04.888Z</time></trkpt><trkpt lat="41.9839379" lon="12.6270561"><ele>69.0</ele><time>2026-05-03T15:51:05.89Z</time></trkpt><trkpt lat="41.9837836" lon="12.627108"><ele>70.0</ele><time>2026-05-03T15:51:06.882Z</time></trkpt><trkpt lat="41.9836549" lon="12.6271709"><ele>70.0</ele><time>2026-05-03T15:51:07.887Z</time></trkpt><trkpt lat="41.9835403" lon="12.6272075"><ele>70.0</ele><time>2026-05-03T15:51:08.882Z</time></trkpt><trkpt lat="41.9834227" lon="12.6272373"><ele>70.0</ele><time>2026-05-03T15:51:09.885Z</time></trkpt><trkpt lat="41.9832738" lon="12.6272681"><ele>70.0</ele><time>2026-05-03T15:51:10.889Z</time></trkpt><trkpt lat="41.9831513" lon="12.6272754"><ele>69.6</ele><time>2026-05-03T15:51:11.885Z</time></trkpt><trkpt lat="41.9830424" lon="12.6272548"><ele>69.2</ele><time>2026-05-03T15:51:12.885Z</time></trkpt><trkpt lat="41.9829724" lon="12.6272521"><ele>68.8</ele><time>2026-05-03T15:51:13.888Z</time></trkpt><trkpt lat="41.9828825" lon="12.6272814"><ele>68.4</ele><time>2026-05-03T15:51:15.885Z</time></trkpt><trkpt lat="41.9828182" lon="12.6273007"><ele>68.0</ele><time>2026-05-03T15:51:34.889Z</time></trkpt><trkpt lat="41.9829301" lon="12.6273252"><ele>68.0</ele><time>2026-05-03T15:51:36.893Z</time></trkpt><trkpt lat="41.9830232" lon="12.6273106"><ele>68.0</ele><time>2026-05-03T15:51:37.883Z</time></trkpt><trkpt lat="41.9831541" lon="12.6272917"><ele>68.0</ele><time>2026-05-03T15:51:38.877Z</time></trkpt><trkpt lat="41.9833215" lon="12.6272607"><ele>68.0</ele><time>2026-05-03T15:51:39.882Z</time></trkpt><trkpt lat="41.9835829" lon="12.6272515"><ele>68.66666666666667</ele><time>2026-05-03T15:51:40.882Z</time></trkpt><trkpt lat="41.9838288" lon="12.6272258"><ele>69.33333333333333</ele><time>2026-05-03T15:51:41.879Z</time></trkpt><trkpt lat="41.9840158" lon="12.6271668"><ele>70.0</ele><time>2026-05-03T15:51:42.883Z</time></trkpt><trkpt lat="41.9842008" lon="12.6271082"><ele>70.0</ele><time>2026-05-03T15:51:43.883Z</time></trkpt><trkpt lat="41.9844188" lon="12.6270609"><ele>70.0</ele><time>2026-05-03T15:51:44.88Z</time></trkpt><trkpt lat="41.984657" lon="12.6269895"><ele>68.5</ele><time>2026-05-03T15:51:45.883Z</time></trkpt><trkpt lat="41.9848869" lon="12.6269138"><ele>67.0</ele><time>2026-05-03T15:51:46.882Z</time></trkpt><trkpt lat="41.9851147" lon="12.6268323"><ele>70.0</ele><time>2026-05-03T15:51:47.877Z</time></trkpt><trkpt lat="41.98537" lon="12.6267781"><ele>73.0</ele><time>2026-05-03T15:51:48.881Z</time></trkpt><trkpt lat="41.9856162" lon="12.626707"><ele>75.0</ele><time>2026-05-03T15:51:49.879Z</time></trkpt><trkpt lat="41.9858626" lon="12.6266279"><ele>77.0</ele><time>2026-05-03T15:51:50.871Z</time></trkpt><trkpt lat="41.9860872" lon="12.6265196"><ele>77.0</ele><time>2026-05-03T15:51:51.892Z</time></trkpt><trkpt lat="41.9863138" lon="12.6264256"><ele>77.0</ele><time>2026-05-03T15:51:52.873Z</time></trkpt><trkpt lat="41.9865175" lon="12.6263261"><ele>79.0</ele><time>2026-05-03T15:51:53.874Z</time></trkpt><trkpt lat="41.9867369" lon="12.6262024"><ele>81.0</ele><time>2026-05-03T15:51:54.879Z</time></trkpt><trkpt lat="41.9869499" lon="12.6260488"><ele>76.5</ele><time>2026-05-03T15:51:55.873Z</time></trkpt><trkpt lat="41.9871607" lon="12.6259309"><ele>72.0</ele><time>2026-05-03T15:51:56.874Z</time></trkpt><trkpt lat="41.9873797" lon="12.6258067"><ele>75.66666666666667</ele><time>2026-05-03T15:51:57.881Z</time></trkpt><trkpt lat="41.9875625" lon="12.6256933"><ele>79.33333333333334</ele><time>2026-05-03T15:51:58.873Z</time></trkpt><trkpt lat="41.9877452" lon="12.6255483"><ele>83.0</ele><time>2026-05-03T15:51:59.881Z</time></trkpt><trkpt lat="41.9879246" lon="12.6254096"><ele>84.0</ele><time>2026-05-03T15:52:00.884Z</time></trkpt><trkpt lat="41.9881061" lon="12.6252547"><ele>85.0</ele><time>2026-05-03T15:52:01.873Z</time></trkpt><trkpt lat="41.9882912" lon="12.6250882"><ele>86.0</ele><time>2026-05-03T15:52:02.882Z</time></trkpt><trkpt lat="41.9884844" lon="12.6249077"><ele>86.0</ele><time>2026-05-03T15:52:03.878Z</time></trkpt><trkpt lat="41.9886659" lon="12.6247513"><ele>86.0</ele><time>2026-05-03T15:52:04.877Z</time></trkpt><trkpt lat="41.9888246" lon="12.624605"><ele>86.0</ele><time>2026-05-03T15:52:05.885Z</time></trkpt><trkpt lat="41.9889879" lon="12.6244618"><ele>86.0</ele><time>2026-05-03T15:52:06.879Z</time></trkpt><trkpt lat="41.9891318" lon="12.6243073"><ele>86.0</ele><time>2026-05-03T15:52:07.883Z</time></trkpt><trkpt lat="41.9892747" lon="12.6241601"><ele>86.0</ele><time>2026-05-03T15:52:08.882Z</time></trkpt><trkpt lat="41.9894415" lon="12.6240207"><ele>86.0</ele><time>2026-05-03T15:52:09.963Z</time></trkpt><trkpt lat="41.9895948" lon="12.6238957"><ele>86.0</ele><time>2026-05-03T15:52:10.874Z</time></trkpt><trkpt lat="41.9897382" lon="12.6237723"><ele>86.0</ele><time>2026-05-03T15:52:11.872Z</time></trkpt><trkpt lat="41.9898717" lon="12.6236571"><ele>86.4</ele><time>2026-05-03T15:52:12.872Z</time></trkpt><trkpt lat="41.9899656" lon="12.6235831"><ele>86.8</ele><time>2026-05-03T15:52:13.874Z</time></trkpt><trkpt lat="41.9900574" lon="12.6235686"><ele>87.2</ele><time>2026-05-03T15:52:14.869Z</time></trkpt><trkpt lat="41.9901468" lon="12.623553"><ele>87.60000000000001</ele><time>2026-05-03T15:52:15.875Z</time></trkpt><trkpt lat="41.990225" lon="12.6236431"><ele>88.0</ele><time>2026-05-03T15:52:17.873Z</time></trkpt><trkpt lat="41.9902821" lon="12.623696"><ele>88.0</ele><time>2026-05-03T15:52:18.88Z</time></trkpt><trkpt lat="41.9904019" lon="12.6237524"><ele>88.0</ele><time>2026-05-03T15:52:20.868Z</time></trkpt><trkpt lat="41.9904945" lon="12.6237159"><ele>88.0</ele><time>2026-05-03T15:52:21.888Z</time></trkpt><trkpt lat="41.9905817" lon="12.6236505"><ele>88.0</ele><time>2026-05-03T15:52:22.878Z</time></trkpt><trkpt lat="41.9906561" lon="12.6236037"><ele>88.0</ele><time>2026-05-03T15:52:23.87Z</time></trkpt><trkpt lat="41.9907237" lon="12.6235638"><ele>88.0</ele><time>2026-05-03T15:52:24.875Z</time></trkpt><trkpt lat="41.9907803" lon="12.623524"><ele>88.0</ele><time>2026-05-03T15:52:25.874Z</time></trkpt><trkpt lat="41.9909054" lon="12.6234777"><ele>88.0</ele><time>2026-05-03T15:52:27.893Z</time></trkpt><trkpt lat="41.9909775" lon="12.6234463"><ele>88.0</ele><time>2026-05-03T15:52:28.882Z</time></trkpt><trkpt lat="41.991059" lon="12.6233943"><ele>88.0</ele><time>2026-05-03T15:52:29.867Z</time></trkpt><trkpt lat="41.9911349" lon="12.6233441"><ele>88.0</ele><time>2026-05-03T15:52:30.88Z</time></trkpt><trkpt lat="41.9912059" lon="12.6232972"><ele>88.66666666666666</ele><time>2026-05-03T15:52:31.878Z</time></trkpt><trkpt lat="41.9912748" lon="12.6232588"><ele>89.33333333333333</ele><time>2026-05-03T15:52:33.884Z</time></trkpt><trkpt lat="41.9913348" lon="12.6232299"><ele>90.0</ele><time>2026-05-03T15:52:35.87Z</time></trkpt><trkpt lat="41.9914173" lon="12.6231961"><ele>90.66666666666667</ele><time>2026-05-03T15:52:37.877Z</time></trkpt><trkpt lat="41.9914806" lon="12.62322"><ele>91.33333333333334</ele><time>2026-05-03T15:52:39.875Z</time></trkpt><trkpt lat="41.9915698" lon="12.6231363"><ele>92.0</ele><time>2026-05-03T15:52:42.877Z</time></trkpt><trkpt lat="41.9916021" lon="12.6230341"><ele>92.0</ele><time>2026-05-03T15:52:43.874Z</time></trkpt><trkpt lat="41.9916342" lon="12.6229121"><ele>92.0</ele><time>2026-05-03T15:52:44.873Z</time></trkpt><trkpt lat="41.9916179" lon="12.6227772"><ele>92.0</ele><time>2026-05-03T15:52:45.881Z</time></trkpt><trkpt lat="41.9915383" lon="12.6225866"><ele>92.0</ele><time>2026-05-03T15:52:46.869Z</time></trkpt><trkpt lat="41.9914011" lon="12.6223683"><ele>94.25</ele><time>2026-05-03T15:52:47.877Z</time></trkpt><trkpt lat="41.9913301" lon="12.6222227"><ele>96.5</ele><time>2026-05-03T15:52:48.89Z</time></trkpt><trkpt lat="41.9912356" lon="12.6220564"><ele>98.75</ele><time>2026-05-03T15:52:49.881Z</time></trkpt><trkpt lat="41.9911559" lon="12.6218981"><ele>101.0</ele><time>2026-05-03T15:52:50.882Z</time></trkpt><trkpt lat="41.9910566" lon="12.621703"><ele>101.0</ele><time>2026-05-03T15:52:51.891Z</time></trkpt><trkpt lat="41.9909503" lon="12.6215113"><ele>101.0</ele><time>2026-05-03T15:52:52.877Z</time></trkpt><trkpt lat="41.9908694" lon="12.6213262"><ele>101.0</ele><time>2026-05-03T15:52:53.883Z</time></trkpt><trkpt lat="41.9908078" lon="12.6211586"><ele>102.5</ele><time>2026-05-03T15:52:54.876Z</time></trkpt><trkpt lat="41.9907609" lon="12.6210054"><ele>104.0</ele><time>2026-05-03T15:52:55.885Z</time></trkpt><trkpt lat="41.9907096" lon="12.6208568"><ele>105.5</ele><time>2026-05-03T15:52:56.885Z</time></trkpt><trkpt lat="41.9906559" lon="12.6207052"><ele>107.0</ele><time>2026-05-03T15:52:57.883Z</time></trkpt><trkpt lat="41.9905991" lon="12.6205512"><ele>107.0</ele><time>2026-05-03T15:52:58.885Z</time></trkpt><trkpt lat="41.9905425" lon="12.6203944"><ele>107.0</ele><time>2026-05-03T15:52:59.882Z</time></trkpt><trkpt lat="41.9904911" lon="12.6202388"><ele>107.0</ele><time>2026-05-03T15:53:00.868Z</time></trkpt><trkpt lat="41.990441" lon="12.6200928"><ele>107.0</ele><time>2026-05-03T15:53:01.888Z</time></trkpt><trkpt lat="41.9903995" lon="12.6199661"><ele>108.0</ele><time>2026-05-03T15:53:02.872Z</time></trkpt><trkpt lat="41.9903693" lon="12.6198343"><ele>109.0</ele><time>2026-05-03T15:53:04.047Z</time></trkpt><trkpt lat="41.9903946" lon="12.6195185"><ele>110.0</ele><time>2026-05-03T15:53:05.899Z</time></trkpt><trkpt lat="41.9904041" lon="12.6193728"><ele>111.0</ele><time>2026-05-03T15:53:06.902Z</time></trkpt><trkpt lat="41.9903825" lon="12.6192423"><ele>112.0</ele><time>2026-05-03T15:53:07.876Z</time></trkpt><trkpt lat="41.9903458" lon="12.6191296"><ele>113.0</ele><time>2026-05-03T15:53:08.873Z</time></trkpt><trkpt lat="41.9903035" lon="12.6190476"><ele>114.0</ele><time>2026-05-03T15:53:09.882Z</time></trkpt><trkpt lat="41.9902491" lon="12.6189624"><ele>115.0</ele><time>2026-05-03T15:53:11.873Z</time></trkpt><trkpt lat="41.990207" lon="12.6188967"><ele>116.0</ele><time>2026-05-03T15:53:14.888Z</time></trkpt><trkpt lat="41.9901781" lon="12.6187875"><ele>117.0</ele><time>2026-05-03T15:53:17.882Z</time></trkpt><trkpt lat="41.9900877" lon="12.6186635"><ele>117.0</ele><time>2026-05-03T15:53:19.891Z</time></trkpt><trkpt lat="41.9900165" lon="12.6186258"><ele>117.0</ele><time>2026-05-03T15:53:20.878Z</time></trkpt><trkpt lat="41.9899485" lon="12.6186079"><ele>117.0</ele><time>2026-05-03T15:53:21.907Z</time></trkpt><trkpt lat="41.9898711" lon="12.618601"><ele>117.0</ele><time>2026-05-03T15:53:22.887Z</time></trkpt><trkpt lat="41.9897768" lon="12.6185721"><ele>117.0</ele><time>2026-05-03T15:53:23.885Z</time></trkpt><trkpt lat="41.9896734" lon="12.6185247"><ele>117.0</ele><time>2026-05-03T15:53:24.892Z</time></trkpt><trkpt lat="41.9895608" lon="12.6184917"><ele>116.0</ele><time>2026-05-03T15:53:25.886Z</time></trkpt><trkpt lat="41.9894498" lon="12.6184795"><ele>115.0</ele><time>2026-05-03T15:53:26.884Z</time></trkpt><trkpt lat="41.9893328" lon="12.6184744"><ele>114.0</ele><time>2026-05-03T15:53:27.889Z</time></trkpt><trkpt lat="41.9891926" lon="12.618471"><ele>113.0</ele><time>2026-05-03T15:53:28.879Z</time></trkpt><trkpt lat="41.9890295" lon="12.6184583"><ele>110.66666666666666</ele><time>2026-05-03T15:53:29.886Z</time></trkpt><trkpt lat="41.9888107" lon="12.6184165"><ele>108.33333333333334</ele><time>2026-05-03T15:53:30.89Z</time></trkpt><trkpt lat="41.9886359" lon="12.6183624"><ele>106.0</ele><time>2026-05-03T15:53:31.882Z</time></trkpt><trkpt lat="41.9885013" lon="12.6183234"><ele>106.0</ele><time>2026-05-03T15:53:32.886Z</time></trkpt><trkpt lat="41.9883604" lon="12.6182955"><ele>106.0</ele><time>2026-05-03T15:53:33.873Z</time></trkpt><trkpt lat="41.9882386" lon="12.6182832"><ele>106.0</ele><time>2026-05-03T15:53:34.893Z</time></trkpt><trkpt lat="41.9881357" lon="12.6182739"><ele>106.0</ele><time>2026-05-03T15:53:35.888Z</time></trkpt><trkpt lat="41.9880393" lon="12.6182756"><ele>104.5</ele><time>2026-05-03T15:53:36.881Z</time></trkpt><trkpt lat="41.9879417" lon="12.6182674"><ele>103.0</ele><time>2026-05-03T15:53:37.892Z</time></trkpt><trkpt lat="41.9878242" lon="12.6182519"><ele>101.5</ele><time>2026-05-03T15:53:38.886Z</time></trkpt><trkpt lat="41.9877123" lon="12.6182296"><ele>100.0</ele><time>2026-05-03T15:53:39.895Z</time></trkpt><trkpt lat="41.9875889" lon="12.6182069"><ele>98.75</ele><time>2026-05-03T15:53:40.891Z</time></trkpt><trkpt lat="41.9874536" lon="12.6181898"><ele>97.5</ele><time>2026-05-03T15:53:41.886Z</time></trkpt><trkpt lat="41.9873106" lon="12.6181734"><ele>96.25</ele><time>2026-05-03T15:53:42.893Z</time></trkpt><trkpt lat="41.9871764" lon="12.6181396"><ele>95.0</ele><time>2026-05-03T15:53:43.887Z</time></trkpt><trkpt lat="41.9870625" lon="12.6181016"><ele>95.0</ele><time>2026-05-03T15:53:44.884Z</time></trkpt><trkpt lat="41.9869591" lon="12.6180712"><ele>95.0</ele><time>2026-05-03T15:53:45.89Z</time></trkpt><trkpt lat="41.9868438" lon="12.6180442"><ele>95.0</ele><time>2026-05-03T15:53:46.882Z</time></trkpt><trkpt lat="41.9867224" lon="12.6180144"><ele>95.0</ele><time>2026-05-03T15:53:47.877Z</time></trkpt><trkpt lat="41.9866146" lon="12.6179767"><ele>94.75</ele><time>2026-05-03T15:53:48.886Z</time></trkpt><trkpt lat="41.9864942" lon="12.617949"><ele>94.5</ele><time>2026-05-03T15:53:49.892Z</time></trkpt><trkpt lat="41.9863808" lon="12.6178985"><ele>94.25</ele><time>2026-05-03T15:53:50.874Z</time></trkpt><trkpt lat="41.9862658" lon="12.6178342"><ele>94.0</ele><time>2026-05-03T15:53:51.916Z</time></trkpt><trkpt lat="41.9861401" lon="12.6177815"><ele>93.25</ele><time>2026-05-03T15:53:52.892Z</time></trkpt><trkpt lat="41.9860112" lon="12.6177323"><ele>92.5</ele><time>2026-05-03T15:53:53.877Z</time></trkpt><trkpt lat="41.9858926" lon="12.6176828"><ele>91.75</ele><time>2026-05-03T15:53:54.881Z</time></trkpt><trkpt lat="41.9857859" lon="12.6176337"><ele>91.0</ele><time>2026-05-03T15:53:55.889Z</time></trkpt><trkpt lat="41.9856796" lon="12.6175799"><ele>90.75</ele><time>2026-05-03T15:53:56.88Z</time></trkpt><trkpt lat="41.9855615" lon="12.6175273"><ele>90.5</ele><time>2026-05-03T15:53:57.969Z</time></trkpt><trkpt lat="41.9854266" lon="12.6174725"><ele>90.25</ele><time>2026-05-03T15:53:58.912Z</time></trkpt><trkpt lat="41.9852981" lon="12.6174161"><ele>90.0</ele><time>2026-05-03T15:53:59.902Z</time></trkpt><trkpt lat="41.9851702" lon="12.6173614"><ele>90.0</ele><time>2026-05-03T15:54:01.038Z</time></trkpt><trkpt lat="41.9848917" lon="12.6172552"><ele>90.0</ele><time>2026-05-03T15:54:02.901Z</time></trkpt><trkpt lat="41.9846899" lon="12.6171658"><ele>86.5</ele><time>2026-05-03T15:54:04.049Z</time></trkpt><trkpt lat="41.9843192" lon="12.6169669"><ele>83.0</ele><time>2026-05-03T15:54:05.882Z</time></trkpt><trkpt lat="41.9841621" lon="12.61689"><ele>83.0</ele><time>2026-05-03T15:54:06.886Z</time></trkpt><trkpt lat="41.9840173" lon="12.616826"><ele>83.0</ele><time>2026-05-03T15:54:07.905Z</time></trkpt><trkpt lat="41.9838522" lon="12.6167591"><ele>83.0</ele><time>2026-05-03T15:54:08.876Z</time></trkpt><trkpt lat="41.9836635" lon="12.6166688"><ele>83.0</ele><time>2026-05-03T15:54:09.889Z</time></trkpt><trkpt lat="41.9834695" lon="12.6165933"><ele>83.0</ele><time>2026-05-03T15:54:10.875Z</time></trkpt><trkpt lat="41.9832767" lon="12.6165269"><ele>83.0</ele><time>2026-05-03T15:54:11.869Z</time></trkpt><trkpt lat="41.9831003" lon="12.6164598"><ele>83.0</ele><time>2026-05-03T15:54:12.886Z</time></trkpt><trkpt lat="41.9829066" lon="12.6163884"><ele>83.0</ele><time>2026-05-03T15:54:13.886Z</time></trkpt><trkpt lat="41.9827304" lon="12.6163664"><ele>83.0</ele><time>2026-05-03T15:54:14.873Z</time></trkpt><trkpt lat="41.9825903" lon="12.6163177"><ele>85.0</ele><time>2026-05-03T15:54:15.965Z</time></trkpt><trkpt lat="41.9824553" lon="12.6163122"><ele>87.0</ele><time>2026-05-03T15:54:16.883Z</time></trkpt><trkpt lat="41.9823016" lon="12.6162717"><ele>89.0</ele><time>2026-05-03T15:54:17.87Z</time></trkpt><trkpt lat="41.9821471" lon="12.6162453"><ele>91.0</ele><time>2026-05-03T15:54:18.883Z</time></trkpt><trkpt lat="41.9820152" lon="12.6162238"><ele>91.0</ele><time>2026-05-03T15:54:19.876Z</time></trkpt><trkpt lat="41.9818664" lon="12.6161907"><ele>91.0</ele><time>2026-05-03T15:54:20.87Z</time></trkpt><trkpt lat="41.9817431" lon="12.6161801"><ele>91.0</ele><time>2026-05-03T15:54:21.882Z</time></trkpt><trkpt lat="41.9816165" lon="12.61616"><ele>91.0</ele><time>2026-05-03T15:54:22.902Z</time></trkpt><trkpt lat="41.9814867" lon="12.6161546"><ele>84.0</ele><time>2026-05-03T15:54:23.874Z</time></trkpt><trkpt lat="41.9813367" lon="12.6161233"><ele>77.0</ele><time>2026-05-03T15:54:25.041Z</time></trkpt><trkpt lat="41.9810275" lon="12.6161249"><ele>77.0</ele><time>2026-05-03T15:54:26.874Z</time></trkpt><trkpt lat="41.9808676" lon="12.6161151"><ele>77.0</ele><time>2026-05-03T15:54:27.886Z</time></trkpt><trkpt lat="41.9806741" lon="12.6161224"><ele>77.0</ele><time>2026-05-03T15:54:28.871Z</time></trkpt><trkpt lat="41.9804797" lon="12.6161087"><ele>76.75</ele><time>2026-05-03T15:54:29.88Z</time></trkpt><trkpt lat="41.9803119" lon="12.616098"><ele>76.5</ele><time>2026-05-03T15:54:30.879Z</time></trkpt><trkpt lat="41.9801605" lon="12.6161073"><ele>76.25</ele><time>2026-05-03T15:54:31.888Z</time></trkpt><trkpt lat="41.980037" lon="12.6161376"><ele>76.0</ele><time>2026-05-03T15:54:32.875Z</time></trkpt><trkpt lat="41.9799013" lon="12.616119"><ele>75.33333333333333</ele><time>2026-05-03T15:54:33.884Z</time></trkpt><trkpt lat="41.9797437" lon="12.616085"><ele>74.66666666666667</ele><time>2026-05-03T15:54:34.874Z</time></trkpt><trkpt lat="41.9795734" lon="12.6160329"><ele>74.0</ele><time>2026-05-03T15:54:35.905Z</time></trkpt><trkpt lat="41.9794289" lon="12.6159468"><ele>74.0</ele><time>2026-05-03T15:54:36.869Z</time></trkpt><trkpt lat="41.9792693" lon="12.6158963"><ele>74.0</ele><time>2026-05-03T15:54:37.89Z</time></trkpt><trkpt lat="41.9791027" lon="12.6158429"><ele>74.0</ele><time>2026-05-03T15:54:38.885Z</time></trkpt><trkpt lat="41.978924" lon="12.6157982"><ele>74.0</ele><time>2026-05-03T15:54:39.892Z</time></trkpt><trkpt lat="41.9787689" lon="12.615736"><ele>74.0</ele><time>2026-05-03T15:54:40.891Z</time></trkpt><trkpt lat="41.9786373" lon="12.6156721"><ele>74.0</ele><time>2026-05-03T15:54:41.878Z</time></trkpt><trkpt lat="41.9785126" lon="12.6156194"><ele>74.0</ele><time>2026-05-03T15:54:42.891Z</time></trkpt><trkpt lat="41.9783726" lon="12.615554"><ele>73.33333333333334</ele><time>2026-05-03T15:54:43.886Z</time></trkpt><trkpt lat="41.9782275" lon="12.6154746"><ele>72.66666666666667</ele><time>2026-05-03T15:54:44.874Z</time></trkpt><trkpt lat="41.9780919" lon="12.6154146"><ele>72.0</ele><time>2026-05-03T15:54:45.898Z</time></trkpt><trkpt lat="41.9779544" lon="12.6153316"><ele>71.0</ele><time>2026-05-03T15:54:46.889Z</time></trkpt><trkpt lat="41.977797" lon="12.615223"><ele>70.0</ele><time>2026-05-03T15:54:47.882Z</time></trkpt><trkpt lat="41.9776553" lon="12.6151309"><ele>69.0</ele><time>2026-05-03T15:54:48.891Z</time></trkpt><trkpt lat="41.9775259" lon="12.6150437"><ele>69.0</ele><time>2026-05-03T15:54:49.891Z</time></trkpt><trkpt lat="41.9774045" lon="12.6149712"><ele>69.0</ele><time>2026-05-03T15:54:50.88Z</time></trkpt><trkpt lat="41.9772841" lon="12.6149093"><ele>69.0</ele><time>2026-05-03T15:54:51.903Z</time></trkpt><trkpt lat="41.9771615" lon="12.6148413"><ele>69.0</ele><time>2026-05-03T15:54:52.887Z</time></trkpt><trkpt lat="41.9770302" lon="12.614791"><ele>69.0</ele><time>2026-05-03T15:54:53.879Z</time></trkpt><trkpt lat="41.9768857" lon="12.6147526"><ele>69.0</ele><time>2026-05-03T15:54:54.891Z</time></trkpt><trkpt lat="41.9767643" lon="12.6147099"><ele>69.0</ele><time>2026-05-03T15:54:55.893Z</time></trkpt><trkpt lat="41.9766486" lon="12.6146654"><ele>69.0</ele><time>2026-05-03T15:54:56.884Z</time></trkpt><trkpt lat="41.9765275" lon="12.6146317"><ele>69.0</ele><time>2026-05-03T15:54:57.897Z</time></trkpt><trkpt lat="41.9764069" lon="12.6145807"><ele>69.0</ele><time>2026-05-03T15:54:58.898Z</time></trkpt><trkpt lat="41.976298" lon="12.6145334"><ele>69.0</ele><time>2026-05-03T15:54:59.88Z</time></trkpt><trkpt lat="41.9761947" lon="12.6144936"><ele>69.0</ele><time>2026-05-03T15:55:00.895Z</time></trkpt><trkpt lat="41.9760926" lon="12.6144617"><ele>69.0</ele><time>2026-05-03T15:55:01.894Z</time></trkpt><trkpt lat="41.9759959" lon="12.6144347"><ele>69.0</ele><time>2026-05-03T15:55:02.877Z</time></trkpt><trkpt lat="41.9759042" lon="12.6144109"><ele>69.0</ele><time>2026-05-03T15:55:03.899Z</time></trkpt><trkpt lat="41.9758001" lon="12.6143726"><ele>69.0</ele><time>2026-05-03T15:55:04.891Z</time></trkpt><trkpt lat="41.975692" lon="12.6143295"><ele>69.0</ele><time>2026-05-03T15:55:05.883Z</time></trkpt><trkpt lat="41.9755752" lon="12.6142841"><ele>69.66666666666667</ele><time>2026-05-03T15:55:06.887Z</time></trkpt><trkpt lat="41.9754519" lon="12.6142457"><ele>70.33333333333334</ele><time>2026-05-03T15:55:07.893Z</time></trkpt><trkpt lat="41.9753076" lon="12.6141983"><ele>71.0</ele><time>2026-05-03T15:55:08.878Z</time></trkpt><trkpt lat="41.9751409" lon="12.6141284"><ele>71.0</ele><time>2026-05-03T15:55:09.898Z</time></trkpt><trkpt lat="41.9749791" lon="12.6140524"><ele>71.0</ele><time>2026-05-03T15:55:10.89Z</time></trkpt><trkpt lat="41.9748203" lon="12.6140128"><ele>71.0</ele><time>2026-05-03T15:55:11.874Z</time></trkpt><trkpt lat="41.9746614" lon="12.6139504"><ele>71.0</ele><time>2026-05-03T15:55:12.98Z</time></trkpt><trkpt lat="41.974501" lon="12.613912"><ele>71.0</ele><time>2026-05-03T15:55:13.888Z</time></trkpt><trkpt lat="41.9743335" lon="12.6138843"><ele>71.0</ele><time>2026-05-03T15:55:14.876Z</time></trkpt><trkpt lat="41.974137" lon="12.6138546"><ele>71.33333333333334</ele><time>2026-05-03T15:55:15.885Z</time></trkpt><trkpt lat="41.9739236" lon="12.6137795"><ele>71.66666666666667</ele><time>2026-05-03T15:55:16.885Z</time></trkpt><trkpt lat="41.9737272" lon="12.6136971"><ele>72.0</ele><time>2026-05-03T15:55:17.874Z</time></trkpt><trkpt lat="41.9735598" lon="12.6136326"><ele>71.5</ele><time>2026-05-03T15:55:18.885Z</time></trkpt><trkpt lat="41.9734086" lon="12.6135776"><ele>71.0</ele><time>2026-05-03T15:55:19.885Z</time></trkpt><trkpt lat="41.9732682" lon="12.6135426"><ele>70.5</ele><time>2026-05-03T15:55:20.874Z</time></trkpt><trkpt lat="41.9731498" lon="12.6134896"><ele>70.0</ele><time>2026-05-03T15:55:21.894Z</time></trkpt><trkpt lat="41.9730303" lon="12.6134461"><ele>71.25</ele><time>2026-05-03T15:55:22.886Z</time></trkpt><trkpt lat="41.9729205" lon="12.6133935"><ele>72.5</ele><time>2026-05-03T15:55:23.879Z</time></trkpt><trkpt lat="41.9727914" lon="12.6133496"><ele>73.75</ele><time>2026-05-03T15:55:24.885Z</time></trkpt><trkpt lat="41.9726834" lon="12.6133092"><ele>75.0</ele><time>2026-05-03T15:55:25.902Z</time></trkpt><trkpt lat="41.9725739" lon="12.6132486"><ele>75.6</ele><time>2026-05-03T15:55:26.879Z</time></trkpt><trkpt lat="41.9724567" lon="12.6132215"><ele>76.2</ele><time>2026-05-03T15:55:27.892Z</time></trkpt><trkpt lat="41.9723624" lon="12.6131812"><ele>76.8</ele><time>2026-05-03T15:55:28.894Z</time></trkpt><trkpt lat="41.9722663" lon="12.6131357"><ele>77.4</ele><time>2026-05-03T15:55:29.878Z</time></trkpt><trkpt lat="41.9721722" lon="12.6130925"><ele>78.0</ele><time>2026-05-03T15:55:30.896Z</time></trkpt><trkpt lat="41.9720776" lon="12.6130416"><ele>78.0</ele><time>2026-05-03T15:55:31.893Z</time></trkpt><trkpt lat="41.9719828" lon="12.6129832"><ele>78.0</ele><time>2026-05-03T15:55:32.874Z</time></trkpt><trkpt lat="41.971873" lon="12.6129098"><ele>78.0</ele><time>2026-05-03T15:55:33.89Z</time></trkpt><trkpt lat="41.9717572" lon="12.6128333"><ele>78.0</ele><time>2026-05-03T15:55:34.891Z</time></trkpt><trkpt lat="41.9716424" lon="12.6127562"><ele>78.75</ele><time>2026-05-03T15:55:35.877Z</time></trkpt><trkpt lat="41.9715346" lon="12.6126817"><ele>79.5</ele><time>2026-05-03T15:55:36.895Z</time></trkpt><trkpt lat="41.9714247" lon="12.6125979"><ele>80.25</ele><time>2026-05-03T15:55:37.893Z</time></trkpt><trkpt lat="41.97132" lon="12.6125093"><ele>81.0</ele><time>2026-05-03T15:55:38.881Z</time></trkpt><trkpt lat="41.971224" lon="12.6124104"><ele>81.0</ele><time>2026-05-03T15:55:39.894Z</time></trkpt><trkpt lat="41.9711205" lon="12.6123009"><ele>81.0</ele><time>2026-05-03T15:55:40.889Z</time></trkpt><trkpt lat="41.9710146" lon="12.6122173"><ele>81.0</ele><time>2026-05-03T15:55:41.882Z</time></trkpt><trkpt lat="41.9709159" lon="12.6121636"><ele>81.0</ele><time>2026-05-03T15:55:42.887Z</time></trkpt><trkpt lat="41.9708166" lon="12.6121212"><ele>81.16666666666667</ele><time>2026-05-03T15:55:43.89Z</time></trkpt><trkpt lat="41.9707078" lon="12.6120863"><ele>81.33333333333333</ele><time>2026-05-03T15:55:44.877Z</time></trkpt><trkpt lat="41.9706093" lon="12.6120873"><ele>81.5</ele><time>2026-05-03T15:55:45.885Z</time></trkpt><trkpt lat="41.9705248" lon="12.6120939"><ele>81.66666666666666</ele><time>2026-05-03T15:55:46.885Z</time></trkpt><trkpt lat="41.9704585" lon="12.6120963"><ele>81.83333333333333</ele><time>2026-05-03T15:55:47.884Z</time></trkpt><trkpt lat="41.970392" lon="12.6120498"><ele>82.0</ele><time>2026-05-03T15:55:51.9Z</time></trkpt><trkpt lat="41.9703484" lon="12.6119539"><ele>81.5</ele><time>2026-05-03T15:55:53.885Z</time></trkpt><trkpt lat="41.9702752" lon="12.611833"><ele>81.0</ele><time>2026-05-03T15:55:55.886Z</time></trkpt><trkpt lat="41.9702208" lon="12.6117893"><ele>80.5</ele><time>2026-05-03T15:55:56.885Z</time></trkpt><trkpt lat="41.9701521" lon="12.6117577"><ele>80.0</ele><time>2026-05-03T15:55:57.887Z</time></trkpt><trkpt lat="41.9700768" lon="12.6117473"><ele>79.5</ele><time>2026-05-03T15:55:58.885Z</time></trkpt><trkpt lat="41.9700033" lon="12.6117589"><ele>79.0</ele><time>2026-05-03T15:55:59.888Z</time></trkpt><trkpt lat="41.9699328" lon="12.6118034"><ele>79.16666666666666</ele><time>2026-05-03T15:56:00.887Z</time></trkpt><trkpt lat="41.9698734" lon="12.6118699"><ele>79.33333333333333</ele><time>2026-05-03T15:56:01.884Z</time></trkpt><trkpt lat="41.9698195" lon="12.6119511"><ele>79.5</ele><time>2026-05-03T15:56:02.882Z</time></trkpt><trkpt lat="41.9697658" lon="12.6120498"><ele>79.66666666666667</ele><time>2026-05-03T15:56:03.896Z</time></trkpt><trkpt lat="41.9697045" lon="12.6121319"><ele>79.83333333333334</ele><time>2026-05-03T15:56:04.891Z</time></trkpt><trkpt lat="41.9696266" lon="12.6121882"><ele>80.0</ele><time>2026-05-03T15:56:05.885Z</time></trkpt><trkpt lat="41.9695289" lon="12.6121964"><ele>80.0</ele><time>2026-05-03T15:56:06.891Z</time></trkpt><trkpt lat="41.9694209" lon="12.6121798"><ele>80.0</ele><time>2026-05-03T15:56:07.891Z</time></trkpt><trkpt lat="41.9693018" lon="12.6121561"><ele>80.0</ele><time>2026-05-03T15:56:08.89Z</time></trkpt><trkpt lat="41.9691678" lon="12.6121168"><ele>80.0</ele><time>2026-05-03T15:56:09.891Z</time></trkpt><trkpt lat="41.9690125" lon="12.6120507"><ele>78.0</ele><time>2026-05-03T15:56:10.89Z</time></trkpt><trkpt lat="41.9687789" lon="12.6119537"><ele>76.0</ele><time>2026-05-03T15:56:11.885Z</time></trkpt><trkpt lat="41.9685511" lon="12.6118801"><ele>76.0</ele><time>2026-05-03T15:56:12.894Z</time></trkpt><trkpt lat="41.9683393" lon="12.611825"><ele>76.0</ele><time>2026-05-03T15:56:13.889Z</time></trkpt><trkpt lat="41.9681343" lon="12.6117793"><ele>76.0</ele><time>2026-05-03T15:56:14.886Z</time></trkpt><trkpt lat="41.96793" lon="12.6117252"><ele>76.0</ele><time>2026-05-03T15:56:15.893Z</time></trkpt><trkpt lat="41.9677204" lon="12.6116797"><ele>76.0</ele><time>2026-05-03T15:56:16.891Z</time></trkpt><trkpt lat="41.9675109" lon="12.6116122"><ele>76.0</ele><time>2026-05-03T15:56:17.89Z</time></trkpt><trkpt lat="41.9672981" lon="12.6115547"><ele>75.0</ele><time>2026-05-03T15:56:18.891Z</time></trkpt><trkpt lat="41.9670516" lon="12.611494"><ele>74.0</ele><time>2026-05-03T15:56:19.897Z</time></trkpt><trkpt lat="41.9668046" lon="12.6114291"><ele>73.5</ele><time>2026-05-03T15:56:20.883Z</time></trkpt><trkpt lat="41.9665601" lon="12.6113501"><ele>73.0</ele><time>2026-05-03T15:56:21.906Z</time></trkpt><trkpt lat="41.9663006" lon="12.6112764"><ele>73.0</ele><time>2026-05-03T15:56:22.893Z</time></trkpt><trkpt lat="41.9660317" lon="12.611208"><ele>73.0</ele><time>2026-05-03T15:56:23.89Z</time></trkpt><trkpt lat="41.9657495" lon="12.6111374"><ele>73.0</ele><time>2026-05-03T15:56:24.896Z</time></trkpt><trkpt lat="41.9654637" lon="12.6110558"><ele>73.0</ele><time>2026-05-03T15:56:25.896Z</time></trkpt><trkpt lat="41.9651807" lon="12.6109716"><ele>71.5</ele><time>2026-05-03T15:56:26.879Z</time></trkpt><trkpt lat="41.9648901" lon="12.6109132"><ele>70.0</ele><time>2026-05-03T15:56:27.894Z</time></trkpt><trkpt lat="41.9645966" lon="12.6108566"><ele>70.0</ele><time>2026-05-03T15:56:28.888Z</time></trkpt><trkpt lat="41.9642957" lon="12.6108103"><ele>70.0</ele><time>2026-05-03T15:56:29.886Z</time></trkpt><trkpt lat="41.9639807" lon="12.6107715"><ele>68.0</ele><time>2026-05-03T15:56:30.891Z</time></trkpt><trkpt lat="41.9636575" lon="12.6107243"><ele>66.0</ele><time>2026-05-03T15:56:31.888Z</time></trkpt><trkpt lat="41.9633574" lon="12.6106759"><ele>65.0</ele><time>2026-05-03T15:56:32.887Z</time></trkpt><trkpt lat="41.963084" lon="12.6106231"><ele>64.0</ele><time>2026-05-03T15:56:33.884Z</time></trkpt><trkpt lat="41.9628171" lon="12.6105664"><ele>64.0</ele><time>2026-05-03T15:56:34.892Z</time></trkpt><trkpt lat="41.9625553" lon="12.6105217"><ele>64.0</ele><time>2026-05-03T15:56:35.884Z</time></trkpt><trkpt lat="41.9623133" lon="12.6104715"><ele>63.5</ele><time>2026-05-03T15:56:36.895Z</time></trkpt><trkpt lat="41.9620752" lon="12.6104365"><ele>63.0</ele><time>2026-05-03T15:56:37.891Z</time></trkpt><trkpt lat="41.9618269" lon="12.6103919"><ele>63.0</ele><time>2026-05-03T15:56:38.888Z</time></trkpt><trkpt lat="41.961596" lon="12.6103329"><ele>63.0</ele><time>2026-05-03T15:56:39.89Z</time></trkpt><trkpt lat="41.961388" lon="12.6102666"><ele>63.0</ele><time>2026-05-03T15:56:40.888Z</time></trkpt><trkpt lat="41.9611774" lon="12.6101678"><ele>63.66666666666667</ele><time>2026-05-03T15:56:41.886Z</time></trkpt><trkpt lat="41.9609784" lon="12.6100469"><ele>64.33333333333334</ele><time>2026-05-03T15:56:42.885Z</time></trkpt><trkpt lat="41.9607911" lon="12.6099147"><ele>65.0</ele><time>2026-05-03T15:56:43.89Z</time></trkpt><trkpt lat="41.9606119" lon="12.6097452"><ele>65.33333333333334</ele><time>2026-05-03T15:56:44.875Z</time></trkpt><trkpt lat="41.9604529" lon="12.6095675"><ele>65.66666666666667</ele><time>2026-05-03T15:56:45.885Z</time></trkpt><trkpt lat="41.9603079" lon="12.6093802"><ele>66.0</ele><time>2026-05-03T15:56:46.893Z</time></trkpt><trkpt lat="41.9601591" lon="12.6091748"><ele>65.33333333333333</ele><time>2026-05-03T15:56:47.88Z</time></trkpt><trkpt lat="41.9600367" lon="12.6089754"><ele>64.66666666666666</ele><time>2026-05-03T15:56:48.89Z</time></trkpt><trkpt lat="41.9599568" lon="12.6088036"><ele>64.0</ele><time>2026-05-03T15:56:49.884Z</time></trkpt><trkpt lat="41.9598527" lon="12.6086292"><ele>63.400000000000006</ele><time>2026-05-03T15:56:50.887Z</time></trkpt><trkpt lat="41.959786" lon="12.6084912"><ele>62.800000000000004</ele><time>2026-05-03T15:56:51.906Z</time></trkpt><trkpt lat="41.9597361" lon="12.6083678"><ele>62.199999999999996</ele><time>2026-05-03T15:56:52.897Z</time></trkpt><trkpt lat="41.9597109" lon="12.6082485"><ele>61.599999999999994</ele><time>2026-05-03T15:56:53.884Z</time></trkpt><trkpt lat="41.9596963" lon="12.6081187"><ele>61.0</ele><time>2026-05-03T15:56:54.888Z</time></trkpt><trkpt lat="41.9596963" lon="12.6079826"><ele>61.0</ele><time>2026-05-03T15:56:55.882Z</time></trkpt><trkpt lat="41.9596709" lon="12.6078298"><ele>60.99999999999999</ele><time>2026-05-03T15:56:56.881Z</time></trkpt><trkpt lat="41.9596255" lon="12.6077124"><ele>60.99999999999999</ele><time>2026-05-03T15:56:57.887Z</time></trkpt><trkpt lat="41.9595646" lon="12.6076173"><ele>61.0</ele><time>2026-05-03T15:56:58.892Z</time></trkpt><trkpt lat="41.9594794" lon="12.6075448"><ele>61.0</ele><time>2026-05-03T15:56:59.88Z</time></trkpt><trkpt lat="41.959387" lon="12.6074684"><ele>60.666666666666664</ele><time>2026-05-03T15:57:00.885Z</time></trkpt><trkpt lat="41.9592894" lon="12.607368"><ele>60.33333333333333</ele><time>2026-05-03T15:57:01.887Z</time></trkpt><trkpt lat="41.9592157" lon="12.6072012"><ele>60.0</ele><time>2026-05-03T15:57:02.882Z</time></trkpt><trkpt lat="41.9591138" lon="12.6069589"><ele>59.66666666666667</ele><time>2026-05-03T15:57:03.891Z</time></trkpt><trkpt lat="41.9590295" lon="12.606706"><ele>59.333333333333336</ele><time>2026-05-03T15:57:04.887Z</time></trkpt><trkpt lat="41.9589375" lon="12.6064647"><ele>59.0</ele><time>2026-05-03T15:57:05.881Z</time></trkpt><trkpt lat="41.9588415" lon="12.6062237"><ele>58.66666666666667</ele><time>2026-05-03T15:57:06.887Z</time></trkpt><trkpt lat="41.9587437" lon="12.6059811"><ele>58.33333333333333</ele><time>2026-05-03T15:57:07.886Z</time></trkpt><trkpt lat="41.9586174" lon="12.6057422"><ele>58.0</ele><time>2026-05-03T15:57:08.88Z</time></trkpt><trkpt lat="41.9584963" lon="12.605489"><ele>57.666666666666664</ele><time>2026-05-03T15:57:09.887Z</time></trkpt><trkpt lat="41.9583689" lon="12.6052402"><ele>57.33333333333333</ele><time>2026-05-03T15:57:10.89Z</time></trkpt><trkpt lat="41.9582679" lon="12.6049894"><ele>57.0</ele><time>2026-05-03T15:57:11.887Z</time></trkpt><trkpt lat="41.958156" lon="12.6047455"><ele>56.0</ele><time>2026-05-03T15:57:12.895Z</time></trkpt><trkpt lat="41.9580308" lon="12.6045073"><ele>55.0</ele><time>2026-05-03T15:57:13.888Z</time></trkpt><trkpt lat="41.9578923" lon="12.60428"><ele>54.0</ele><time>2026-05-03T15:57:14.885Z</time></trkpt><trkpt lat="41.9577465" lon="12.6040659"><ele>54.0</ele><time>2026-05-03T15:57:15.893Z</time></trkpt><trkpt lat="41.9575907" lon="12.6038975"><ele>54.0</ele><time>2026-05-03T15:57:16.882Z</time></trkpt><trkpt lat="41.9574311" lon="12.6037649"><ele>54.0</ele><time>2026-05-03T15:57:17.883Z</time></trkpt><trkpt lat="41.9572482" lon="12.6036341"><ele>54.33333333333333</ele><time>2026-05-03T15:57:18.886Z</time></trkpt><trkpt lat="41.957053" lon="12.6035334"><ele>54.666666666666664</ele><time>2026-05-03T15:57:19.885Z</time></trkpt><trkpt lat="41.9568447" lon="12.6034351"><ele>55.0</ele><time>2026-05-03T15:57:20.878Z</time></trkpt><trkpt lat="41.9566316" lon="12.6033535"><ele>56.0</ele><time>2026-05-03T15:57:21.902Z</time></trkpt><trkpt lat="41.9564099" lon="12.6032879"><ele>57.0</ele><time>2026-05-03T15:57:22.89Z</time></trkpt><trkpt lat="41.9561761" lon="12.6032186"><ele>57.0</ele><time>2026-05-03T15:57:23.889Z</time></trkpt><trkpt lat="41.9559632" lon="12.6031414"><ele>57.0</ele><time>2026-05-03T15:57:24.893Z</time></trkpt><trkpt lat="41.9557336" lon="12.6030759"><ele>57.5</ele><time>2026-05-03T15:57:25.892Z</time></trkpt><trkpt lat="41.9554898" lon="12.6030082"><ele>58.0</ele><time>2026-05-03T15:57:26.872Z</time></trkpt><trkpt lat="41.9552616" lon="12.6029367"><ele>58.0</ele><time>2026-05-03T15:57:27.886Z</time></trkpt><trkpt lat="41.9550356" lon="12.6028482"><ele>58.0</ele><time>2026-05-03T15:57:28.882Z</time></trkpt><trkpt lat="41.9548099" lon="12.6027447"><ele>58.0</ele><time>2026-05-03T15:57:29.88Z</time></trkpt><trkpt lat="41.95461" lon="12.6026204"><ele>58.0</ele><time>2026-05-03T15:57:30.893Z</time></trkpt><trkpt lat="41.9543993" lon="12.6024721"><ele>56.0</ele><time>2026-05-03T15:57:31.889Z</time></trkpt><trkpt lat="41.9541647" lon="12.6023194"><ele>54.0</ele><time>2026-05-03T15:57:32.887Z</time></trkpt><trkpt lat="41.9539162" lon="12.6021158"><ele>57.0</ele><time>2026-05-03T15:57:33.892Z</time></trkpt><trkpt lat="41.9536633" lon="12.6019563"><ele>60.0</ele><time>2026-05-03T15:57:34.885Z</time></trkpt><trkpt lat="41.9534545" lon="12.6017814"><ele>57.0</ele><time>2026-05-03T15:57:35.879Z</time></trkpt><trkpt lat="41.9532583" lon="12.6016328"><ele>54.0</ele><time>2026-05-03T15:57:36.885Z</time></trkpt><trkpt lat="41.9530627" lon="12.6014918"><ele>51.0</ele><time>2026-05-03T15:57:37.89Z</time></trkpt><trkpt lat="41.9528455" lon="12.6013442"><ele>51.0</ele><time>2026-05-03T15:57:38.882Z</time></trkpt><trkpt lat="41.9526204" lon="12.6011781"><ele>51.0</ele><time>2026-05-03T15:57:39.887Z</time></trkpt><trkpt lat="41.9524245" lon="12.6010251"><ele>50.66666666666667</ele><time>2026-05-03T15:57:40.89Z</time></trkpt><trkpt lat="41.9522318" lon="12.6008825"><ele>50.333333333333336</ele><time>2026-05-03T15:57:41.883Z</time></trkpt><trkpt lat="41.9520389" lon="12.6007576"><ele>50.0</ele><time>2026-05-03T15:57:42.892Z</time></trkpt><trkpt lat="41.9518499" lon="12.6006388"><ele>49.66666666666667</ele><time>2026-05-03T15:57:43.893Z</time></trkpt><trkpt lat="41.9516749" lon="12.6005146"><ele>49.33333333333333</ele><time>2026-05-03T15:57:44.886Z</time></trkpt><trkpt lat="41.9515193" lon="12.6003955"><ele>49.0</ele><time>2026-05-03T15:57:45.889Z</time></trkpt><trkpt lat="41.951337" lon="12.6002613"><ele>49.0</ele><time>2026-05-03T15:57:46.892Z</time></trkpt><trkpt lat="41.951168" lon="12.6001183"><ele>49.0</ele><time>2026-05-03T15:57:47.874Z</time></trkpt><trkpt lat="41.9509572" lon="12.5999862"><ele>49.0</ele><time>2026-05-03T15:57:48.886Z</time></trkpt><trkpt lat="41.9507381" lon="12.59984"><ele>49.0</ele><time>2026-05-03T15:57:49.897Z</time></trkpt><trkpt lat="41.9505424" lon="12.5997079"><ele>49.0</ele><time>2026-05-03T15:57:50.879Z</time></trkpt><trkpt lat="41.9503723" lon="12.5995856"><ele>49.0</ele><time>2026-05-03T15:57:51.902Z</time></trkpt><trkpt lat="41.9502006" lon="12.5994679"><ele>48.666666666666664</ele><time>2026-05-03T15:57:52.897Z</time></trkpt><trkpt lat="41.9500368" lon="12.5993562"><ele>48.33333333333333</ele><time>2026-05-03T15:57:53.882Z</time></trkpt><trkpt lat="41.9498785" lon="12.5992506"><ele>48.0</ele><time>2026-05-03T15:57:54.897Z</time></trkpt><trkpt lat="41.9497424" lon="12.5991486"><ele>48.0</ele><time>2026-05-03T15:57:55.893Z</time></trkpt><trkpt lat="41.9496166" lon="12.5990269"><ele>48.0</ele><time>2026-05-03T15:57:56.891Z</time></trkpt><trkpt lat="41.9494987" lon="12.5988951"><ele>48.0</ele><time>2026-05-03T15:57:57.897Z</time></trkpt><trkpt lat="41.9493495" lon="12.5987583"><ele>47.666666666666664</ele><time>2026-05-03T15:57:58.895Z</time></trkpt><trkpt lat="41.9492057" lon="12.5986107"><ele>47.33333333333333</ele><time>2026-05-03T15:57:59.881Z</time></trkpt><trkpt lat="41.949058" lon="12.5984319"><ele>47.0</ele><time>2026-05-03T15:58:00.886Z</time></trkpt><trkpt lat="41.9489042" lon="12.5982312"><ele>47.0</ele><time>2026-05-03T15:58:01.886Z</time></trkpt><trkpt lat="41.9487776" lon="12.5980426"><ele>47.0</ele><time>2026-05-03T15:58:02.87Z</time></trkpt><trkpt lat="41.9486533" lon="12.5978594"><ele>47.0</ele><time>2026-05-03T15:58:03.881Z</time></trkpt><trkpt lat="41.9485703" lon="12.5976673"><ele>46.33333333333333</ele><time>2026-05-03T15:58:04.891Z</time></trkpt><trkpt lat="41.9484967" lon="12.597478"><ele>45.666666666666664</ele><time>2026-05-03T15:58:05.88Z</time></trkpt><trkpt lat="41.9484028" lon="12.5972856"><ele>45.0</ele><time>2026-05-03T15:58:06.887Z</time></trkpt><trkpt lat="41.9482669" lon="12.5970866"><ele>44.0</ele><time>2026-05-03T15:58:07.886Z</time></trkpt><trkpt lat="41.948131" lon="12.5968538"><ele>43.0</ele><time>2026-05-03T15:58:08.871Z</time></trkpt><trkpt lat="41.9480038" lon="12.5966018"><ele>42.0</ele><time>2026-05-03T15:58:09.893Z</time></trkpt><trkpt lat="41.947871" lon="12.5963321"><ele>41.333333333333336</ele><time>2026-05-03T15:58:10.895Z</time></trkpt><trkpt lat="41.9477558" lon="12.5960746"><ele>40.66666666666667</ele><time>2026-05-03T15:58:11.879Z</time></trkpt><trkpt lat="41.9476376" lon="12.595835"><ele>40.0</ele><time>2026-05-03T15:58:12.892Z</time></trkpt><trkpt lat="41.9475411" lon="12.5956129"><ele>39.66666666666667</ele><time>2026-05-03T15:58:13.887Z</time></trkpt><trkpt lat="41.9474201" lon="12.5953784"><ele>39.333333333333336</ele><time>2026-05-03T15:58:14.883Z</time></trkpt><trkpt lat="41.9473151" lon="12.5951563"><ele>39.0</ele><time>2026-05-03T15:58:15.898Z</time></trkpt><trkpt lat="41.9472326" lon="12.594944"><ele>39.333333333333336</ele><time>2026-05-03T15:58:16.889Z</time></trkpt><trkpt lat="41.9471597" lon="12.5947172"><ele>39.66666666666667</ele><time>2026-05-03T15:58:17.88Z</time></trkpt><trkpt lat="41.9470865" lon="12.5944658"><ele>40.0</ele><time>2026-05-03T15:58:18.883Z</time></trkpt><trkpt lat="41.9470044" lon="12.5942136"><ele>40.0</ele><time>2026-05-03T15:58:19.888Z</time></trkpt><trkpt lat="41.9469305" lon="12.5939506"><ele>40.0</ele><time>2026-05-03T15:58:20.879Z</time></trkpt><trkpt lat="41.9468708" lon="12.5936959"><ele>40.0</ele><time>2026-05-03T15:58:22.053Z</time></trkpt><trkpt lat="41.9467993" lon="12.5933341"><ele>40.0</ele><time>2026-05-03T15:58:23.874Z</time></trkpt><trkpt lat="41.9467589" lon="12.5931981"><ele>40.0</ele><time>2026-05-03T15:58:24.89Z</time></trkpt><trkpt lat="41.9466849" lon="12.5930584"><ele>40.0</ele><time>2026-05-03T15:58:25.887Z</time></trkpt><trkpt lat="41.9466266" lon="12.5929131"><ele>40.0</ele><time>2026-05-03T15:58:26.888Z</time></trkpt><trkpt lat="41.9465448" lon="12.5927504"><ele>40.66666666666667</ele><time>2026-05-03T15:58:27.89Z</time></trkpt><trkpt lat="41.9464598" lon="12.5925647"><ele>41.333333333333336</ele><time>2026-05-03T15:58:28.871Z</time></trkpt><trkpt lat="41.9463421" lon="12.5923345"><ele>42.0</ele><time>2026-05-03T15:58:29.874Z</time></trkpt><trkpt lat="41.9462451" lon="12.5921072"><ele>42.333333333333336</ele><time>2026-05-03T15:58:30.886Z</time></trkpt><trkpt lat="41.9461408" lon="12.5919033"><ele>42.66666666666667</ele><time>2026-05-03T15:58:31.881Z</time></trkpt><trkpt lat="41.946037" lon="12.5917086"><ele>43.0</ele><time>2026-05-03T15:58:32.885Z</time></trkpt><trkpt lat="41.9459603" lon="12.5915482"><ele>42.66666666666667</ele><time>2026-05-03T15:58:33.887Z</time></trkpt><trkpt lat="41.9458774" lon="12.5913588"><ele>42.333333333333336</ele><time>2026-05-03T15:58:34.88Z</time></trkpt><trkpt lat="41.9457924" lon="12.5911664"><ele>42.0</ele><time>2026-05-03T15:58:35.893Z</time></trkpt><trkpt lat="41.945691" lon="12.5909926"><ele>41.75</ele><time>2026-05-03T15:58:36.893Z</time></trkpt><trkpt lat="41.9456054" lon="12.5908208"><ele>41.5</ele><time>2026-05-03T15:58:37.885Z</time></trkpt><trkpt lat="41.9455407" lon="12.5906742"><ele>41.25</ele><time>2026-05-03T15:58:38.891Z</time></trkpt><trkpt lat="41.9454914" lon="12.5905308"><ele>41.0</ele><time>2026-05-03T15:58:39.895Z</time></trkpt><trkpt lat="41.9454194" lon="12.59038"><ele>41.0</ele><time>2026-05-03T15:58:40.888Z</time></trkpt><trkpt lat="41.945376" lon="12.5902557"><ele>41.0</ele><time>2026-05-03T15:58:41.893Z</time></trkpt><trkpt lat="41.9453346" lon="12.5901478"><ele>41.0</ele><time>2026-05-03T15:58:42.887Z</time></trkpt><trkpt lat="41.9452873" lon="12.5900481"><ele>41.0</ele><time>2026-05-03T15:58:43.879Z</time></trkpt><trkpt lat="41.9452477" lon="12.5899694"><ele>41.0</ele><time>2026-05-03T15:58:44.881Z</time></trkpt><trkpt lat="41.945206" lon="12.589893"><ele>41.0</ele><time>2026-05-03T15:58:45.89Z</time></trkpt><trkpt lat="41.9451686" lon="12.5898236"><ele>41.0</ele><time>2026-05-03T15:58:46.882Z</time></trkpt><trkpt lat="41.9451296" lon="12.589746"><ele>41.0</ele><time>2026-05-03T15:58:47.888Z</time></trkpt><trkpt lat="41.9451069" lon="12.5896442"><ele>41.0</ele><time>2026-05-03T15:58:48.892Z</time></trkpt><trkpt lat="41.9451003" lon="12.58951"><ele>41.0</ele><time>2026-05-03T15:58:49.879Z</time></trkpt><trkpt lat="41.9451313" lon="12.5893599"><ele>41.0</ele><time>2026-05-03T15:58:50.876Z</time></trkpt><trkpt lat="41.9451813" lon="12.589215"><ele>41.199999999999996</ele><time>2026-05-03T15:58:51.89Z</time></trkpt><trkpt lat="41.945232" lon="12.5890873"><ele>41.4</ele><time>2026-05-03T15:58:52.884Z</time></trkpt><trkpt lat="41.9452883" lon="12.5889681"><ele>41.6</ele><time>2026-05-03T15:58:53.877Z</time></trkpt><trkpt lat="41.9453474" lon="12.5888491"><ele>41.8</ele><time>2026-05-03T15:58:54.87Z</time></trkpt><trkpt lat="41.9453987" lon="12.5887498"><ele>42.0</ele><time>2026-05-03T15:58:55.879Z</time></trkpt><trkpt lat="41.9454363" lon="12.5886712"><ele>42.166666666666664</ele><time>2026-05-03T15:58:56.882Z</time></trkpt><trkpt lat="41.9454842" lon="12.5885728"><ele>42.333333333333336</ele><time>2026-05-03T15:58:58.881Z</time></trkpt><trkpt lat="41.9455307" lon="12.5884531"><ele>42.5</ele><time>2026-05-03T15:59:04.896Z</time></trkpt><trkpt lat="41.9454974" lon="12.5883783"><ele>42.66666666666667</ele><time>2026-05-03T15:59:05.895Z</time></trkpt><trkpt lat="41.9454437" lon="12.5883024"><ele>42.833333333333336</ele><time>2026-05-03T15:59:06.883Z</time></trkpt><trkpt lat="41.9453576" lon="12.5882243"><ele>43.0</ele><time>2026-05-03T15:59:07.862Z</time></trkpt><trkpt lat="41.9452423" lon="12.5881395"><ele>43.0</ele><time>2026-05-03T15:59:08.873Z</time></trkpt><trkpt lat="41.9451119" lon="12.588057"><ele>43.0</ele><time>2026-05-03T15:59:09.89Z</time></trkpt><trkpt lat="41.944959" lon="12.587995"><ele>43.0</ele><time>2026-05-03T15:59:10.903Z</time></trkpt><trkpt lat="41.9447973" lon="12.5879712"><ele>43.0</ele><time>2026-05-03T15:59:11.898Z</time></trkpt><trkpt lat="41.9446593" lon="12.5879579"><ele>43.0</ele><time>2026-05-03T15:59:12.908Z</time></trkpt><trkpt lat="41.9445381" lon="12.5879392"><ele>43.0</ele><time>2026-05-03T15:59:13.877Z</time></trkpt><trkpt lat="41.9444419" lon="12.5879033"><ele>43.0</ele><time>2026-05-03T15:59:14.879Z</time></trkpt><trkpt lat="41.9443865" lon="12.5878143"><ele>43.0</ele><time>2026-05-03T15:59:15.888Z</time></trkpt><trkpt lat="41.9443549" lon="12.5877109"><ele>43.0</ele><time>2026-05-03T15:59:16.877Z</time></trkpt><trkpt lat="41.9443661" lon="12.5875721"><ele>43.0</ele><time>2026-05-03T15:59:17.875Z</time></trkpt><trkpt lat="41.944434" lon="12.5874168"><ele>43.0</ele><time>2026-05-03T15:59:18.876Z</time></trkpt><trkpt lat="41.9445027" lon="12.5872724"><ele>43.0</ele><time>2026-05-03T15:59:19.868Z</time></trkpt><trkpt lat="41.9445675" lon="12.5871521"><ele>43.0</ele><time>2026-05-03T15:59:20.87Z</time></trkpt><trkpt lat="41.9446263" lon="12.5870483"><ele>43.0</ele><time>2026-05-03T15:59:21.888Z</time></trkpt><trkpt lat="41.9446684" lon="12.5869728"><ele>43.0</ele><time>2026-05-03T15:59:22.874Z</time></trkpt><trkpt lat="41.9447045" lon="12.5868773"><ele>43.0</ele><time>2026-05-03T15:59:24.878Z</time></trkpt><trkpt lat="41.9446618" lon="12.5867564"><ele>43.0</ele><time>2026-05-03T15:59:27.876Z</time></trkpt><trkpt lat="41.944601" lon="12.5867123"><ele>43.0</ele><time>2026-05-03T15:59:28.898Z</time></trkpt><trkpt lat="41.9445389" lon="12.5866419"><ele>43.4</ele><time>2026-05-03T15:59:29.88Z</time></trkpt><trkpt lat="41.9444766" lon="12.586536"><ele>43.8</ele><time>2026-05-03T15:59:30.888Z</time></trkpt><trkpt lat="41.9444046" lon="12.5864247"><ele>44.2</ele><time>2026-05-03T15:59:31.88Z</time></trkpt><trkpt lat="41.94433" lon="12.5863262"><ele>44.6</ele><time>2026-05-03T15:59:32.891Z</time></trkpt><trkpt lat="41.9442461" lon="12.5862366"><ele>45.0</ele><time>2026-05-03T15:59:33.882Z</time></trkpt><trkpt lat="41.9441522" lon="12.586174"><ele>43.6</ele><time>2026-05-03T15:59:34.878Z</time></trkpt><trkpt lat="41.9440551" lon="12.5861225"><ele>42.2</ele><time>2026-05-03T15:59:35.882Z</time></trkpt><trkpt lat="41.9439624" lon="12.5860854"><ele>40.8</ele><time>2026-05-03T15:59:36.886Z</time></trkpt><trkpt lat="41.9438718" lon="12.5860538"><ele>39.4</ele><time>2026-05-03T15:59:37.881Z</time></trkpt><trkpt lat="41.9437789" lon="12.5860287"><ele>38.0</ele><time>2026-05-03T15:59:38.882Z</time></trkpt><trkpt lat="41.9436602" lon="12.5860121"><ele>38.0</ele><time>2026-05-03T15:59:39.88Z</time></trkpt><trkpt lat="41.9435146" lon="12.5860235"><ele>38.0</ele><time>2026-05-03T15:59:40.898Z</time></trkpt><trkpt lat="41.9433569" lon="12.5860513"><ele>38.0</ele><time>2026-05-03T15:59:41.88Z</time></trkpt><trkpt lat="41.9431827" lon="12.5860696"><ele>37.75</ele><time>2026-05-03T15:59:42.884Z</time></trkpt><trkpt lat="41.9430231" lon="12.5860448"><ele>37.5</ele><time>2026-05-03T15:59:43.869Z</time></trkpt><trkpt lat="41.9428994" lon="12.5860277"><ele>37.25</ele><time>2026-05-03T15:59:44.871Z</time></trkpt><trkpt lat="41.9427814" lon="12.5859862"><ele>37.0</ele><time>2026-05-03T15:59:45.875Z</time></trkpt><trkpt lat="41.9426534" lon="12.5859177"><ele>36.75</ele><time>2026-05-03T15:59:46.872Z</time></trkpt><trkpt lat="41.9425384" lon="12.585864"><ele>36.5</ele><time>2026-05-03T15:59:47.876Z</time></trkpt><trkpt lat="41.9424262" lon="12.5858259"><ele>36.25</ele><time>2026-05-03T15:59:48.866Z</time></trkpt><trkpt lat="41.9423117" lon="12.5857737"><ele>36.0</ele><time>2026-05-03T15:59:49.873Z</time></trkpt><trkpt lat="41.9422044" lon="12.585725"><ele>36.0</ele><time>2026-05-03T15:59:50.874Z</time></trkpt><trkpt lat="41.9421074" lon="12.5856822"><ele>36.0</ele><time>2026-05-03T15:59:51.9Z</time></trkpt><trkpt lat="41.9420163" lon="12.585638"><ele>36.0</ele><time>2026-05-03T15:59:52.869Z</time></trkpt><trkpt lat="41.9419377" lon="12.5855943"><ele>36.0</ele><time>2026-05-03T15:59:53.875Z</time></trkpt><trkpt lat="41.9418777" lon="12.5855228"><ele>36.0</ele><time>2026-05-03T15:59:54.886Z</time></trkpt><trkpt lat="41.9417742" lon="12.5854324"><ele>37.0</ele><time>2026-05-03T15:59:55.871Z</time></trkpt><trkpt lat="41.9416678" lon="12.5853291"><ele>38.0</ele><time>2026-05-03T15:59:56.877Z</time></trkpt><trkpt lat="41.9415605" lon="12.5852277"><ele>39.0</ele><time>2026-05-03T15:59:57.881Z</time></trkpt><trkpt lat="41.9414625" lon="12.5851206"><ele>40.0</ele><time>2026-05-03T15:59:58.874Z</time></trkpt><trkpt lat="41.9413602" lon="12.5850056"><ele>40.0</ele><time>2026-05-03T15:59:59.878Z</time></trkpt><trkpt lat="41.9412366" lon="12.5848879"><ele>40.0</ele><time>2026-05-03T16:00:00.876Z</time></trkpt><trkpt lat="41.9410763" lon="12.58478"><ele>40.0</ele><time>2026-05-03T16:00:01.879Z</time></trkpt><trkpt lat="41.9409262" lon="12.5846259"><ele>39.25</ele><time>2026-05-03T16:00:02.877Z</time></trkpt><trkpt lat="41.9408212" lon="12.5844661"><ele>38.5</ele><time>2026-05-03T16:00:03.883Z</time></trkpt><trkpt lat="41.9407272" lon="12.5843376"><ele>37.75</ele><time>2026-05-03T16:00:04.886Z</time></trkpt><trkpt lat="41.9406399" lon="12.5842164"><ele>37.0</ele><time>2026-05-03T16:00:05.882Z</time></trkpt><trkpt lat="41.9405352" lon="12.5841006"><ele>37.0</ele><time>2026-05-03T16:00:06.869Z</time></trkpt><trkpt lat="41.9404342" lon="12.5839747"><ele>37.0</ele><time>2026-05-03T16:00:07.882Z</time></trkpt><trkpt lat="41.9403067" lon="12.5838156"><ele>37.0</ele><time>2026-05-03T16:00:08.88Z</time></trkpt><trkpt lat="41.9401955" lon="12.5836741"><ele>37.0</ele><time>2026-05-03T16:00:09.865Z</time></trkpt><trkpt lat="41.9400778" lon="12.5835662"><ele>37.0</ele><time>2026-05-03T16:00:10.88Z</time></trkpt><trkpt lat="41.9399782" lon="12.5834703"><ele>37.0</ele><time>2026-05-03T16:00:11.887Z</time></trkpt><trkpt lat="41.9398599" lon="12.5833559"><ele>37.0</ele><time>2026-05-03T16:00:12.883Z</time></trkpt><trkpt lat="41.9397492" lon="12.5832661"><ele>37.0</ele><time>2026-05-03T16:00:13.89Z</time></trkpt><trkpt lat="41.9396535" lon="12.5831491"><ele>37.0</ele><time>2026-05-03T16:00:14.872Z</time></trkpt><trkpt lat="41.9395524" lon="12.583031"><ele>37.0</ele><time>2026-05-03T16:00:15.972Z</time></trkpt><trkpt lat="41.9394176" lon="12.5829135"><ele>37.0</ele><time>2026-05-03T16:00:16.882Z</time></trkpt><trkpt lat="41.9392916" lon="12.5827833"><ele>37.66666666666667</ele><time>2026-05-03T16:00:17.884Z</time></trkpt><trkpt lat="41.9391768" lon="12.5826501"><ele>38.333333333333336</ele><time>2026-05-03T16:00:18.89Z</time></trkpt><trkpt lat="41.9390545" lon="12.5825224"><ele>39.0</ele><time>2026-05-03T16:00:19.889Z</time></trkpt><trkpt lat="41.9389131" lon="12.5823694"><ele>39.0</ele><time>2026-05-03T16:00:20.888Z</time></trkpt><trkpt lat="41.938821" lon="12.5822347"><ele>39.0</ele><time>2026-05-03T16:00:21.899Z</time></trkpt><trkpt lat="41.9387034" lon="12.5821117"><ele>39.0</ele><time>2026-05-03T16:00:22.896Z</time></trkpt><trkpt lat="41.9385738" lon="12.5819719"><ele>39.0</ele><time>2026-05-03T16:00:23.887Z</time></trkpt><trkpt lat="41.9384524" lon="12.5818383"><ele>39.0</ele><time>2026-05-03T16:00:24.892Z</time></trkpt><trkpt lat="41.9383208" lon="12.5817057"><ele>39.0</ele><time>2026-05-03T16:00:25.888Z</time></trkpt><trkpt lat="41.9381741" lon="12.5815658"><ele>39.666666666666664</ele><time>2026-05-03T16:00:26.886Z</time></trkpt><trkpt lat="41.9380249" lon="12.5814187"><ele>40.33333333333333</ele><time>2026-05-03T16:00:27.887Z</time></trkpt><trkpt lat="41.9379055" lon="12.5813173"><ele>41.0</ele><time>2026-05-03T16:00:28.887Z</time></trkpt><trkpt lat="41.9377904" lon="12.5812118"><ele>41.25</ele><time>2026-05-03T16:00:29.87Z</time></trkpt><trkpt lat="41.9376781" lon="12.5811236"><ele>41.5</ele><time>2026-05-03T16:00:30.884Z</time></trkpt><trkpt lat="41.9375835" lon="12.5810272"><ele>41.75</ele><time>2026-05-03T16:00:31.878Z</time></trkpt><trkpt lat="41.9374998" lon="12.5809634"><ele>42.0</ele><time>2026-05-03T16:00:32.894Z</time></trkpt><trkpt lat="41.9374237" lon="12.5808632"><ele>42.0</ele><time>2026-05-03T16:00:33.882Z</time></trkpt><trkpt lat="41.9373563" lon="12.580782"><ele>42.0</ele><time>2026-05-03T16:00:34.888Z</time></trkpt><trkpt lat="41.9372993" lon="12.5807023"><ele>42.0</ele><time>2026-05-03T16:00:35.89Z</time></trkpt><trkpt lat="41.9372279" lon="12.5806107"><ele>42.0</ele><time>2026-05-03T16:00:37.881Z</time></trkpt><trkpt lat="41.9371408" lon="12.5806078"><ele>42.0</ele><time>2026-05-03T16:00:48.889Z</time></trkpt><trkpt lat="41.9370961" lon="12.5806791"><ele>42.0</ele><time>2026-05-03T16:00:49.873Z</time></trkpt><trkpt lat="41.937061" lon="12.5807848"><ele>42.0</ele><time>2026-05-03T16:00:50.881Z</time></trkpt><trkpt lat="41.9370155" lon="12.5809016"><ele>42.0</ele><time>2026-05-03T16:00:51.89Z</time></trkpt><trkpt lat="41.936957" lon="12.5810054"><ele>42.0</ele><time>2026-05-03T16:00:52.874Z</time></trkpt><trkpt lat="41.9368942" lon="12.5811133"><ele>42.0</ele><time>2026-05-03T16:00:53.881Z</time></trkpt><trkpt lat="41.9368218" lon="12.5812302"><ele>42.0</ele><time>2026-05-03T16:00:54.883Z</time></trkpt><trkpt lat="41.9367405" lon="12.5813583"><ele>41.75</ele><time>2026-05-03T16:00:55.877Z</time></trkpt><trkpt lat="41.9366581" lon="12.5814829"><ele>41.5</ele><time>2026-05-03T16:00:56.886Z</time></trkpt><trkpt lat="41.9365766" lon="12.5816067"><ele>41.25</ele><time>2026-05-03T16:00:57.876Z</time></trkpt><trkpt lat="41.9365042" lon="12.5817215"><ele>41.0</ele><time>2026-05-03T16:00:58.869Z</time></trkpt><trkpt lat="41.9364385" lon="12.5818185"><ele>41.0</ele><time>2026-05-03T16:00:59.877Z</time></trkpt><trkpt lat="41.936381" lon="12.5819088"><ele>41.0</ele><time>2026-05-03T16:01:00.879Z</time></trkpt><trkpt lat="41.9363105" lon="12.5820095"><ele>41.0</ele><time>2026-05-03T16:01:01.952Z</time></trkpt><trkpt lat="41.936236" lon="12.5821044"><ele>41.0</ele><time>2026-05-03T16:01:02.862Z</time></trkpt><trkpt lat="41.9361559" lon="12.582183"><ele>41.0</ele><time>2026-05-03T16:01:03.879Z</time></trkpt><trkpt lat="41.9360665" lon="12.5822503"><ele>41.0</ele><time>2026-05-03T16:01:04.872Z</time></trkpt><trkpt lat="41.9359717" lon="12.5823295"><ele>41.0</ele><time>2026-05-03T16:01:05.897Z</time></trkpt><trkpt lat="41.9358676" lon="12.5824028"><ele>41.0</ele><time>2026-05-03T16:01:06.887Z</time></trkpt><trkpt lat="41.935747" lon="12.582482"><ele>41.0</ele><time>2026-05-03T16:01:07.88Z</time></trkpt><trkpt lat="41.9356087" lon="12.5825821"><ele>41.0</ele><time>2026-05-03T16:01:08.872Z</time></trkpt><trkpt lat="41.9354108" lon="12.582673"><ele>41.0</ele><time>2026-05-03T16:01:09.879Z</time></trkpt><trkpt lat="41.9352606" lon="12.5827354"><ele>41.0</ele><time>2026-05-03T16:01:10.88Z</time></trkpt><trkpt lat="41.9351192" lon="12.5828093"><ele>40.5</ele><time>2026-05-03T16:01:11.864Z</time></trkpt><trkpt lat="41.9350126" lon="12.5828808"><ele>40.0</ele><time>2026-05-03T16:01:12.873Z</time></trkpt><trkpt lat="41.9348982" lon="12.5829397"><ele>39.5</ele><time>2026-05-03T16:01:13.87Z</time></trkpt><trkpt lat="41.9347907" lon="12.583031"><ele>39.0</ele><time>2026-05-03T16:01:14.876Z</time></trkpt><trkpt lat="41.9346681" lon="12.5831643"><ele>39.0</ele><time>2026-05-03T16:01:15.876Z</time></trkpt><trkpt lat="41.9345487" lon="12.5832497"><ele>39.0</ele><time>2026-05-03T16:01:16.879Z</time></trkpt><trkpt lat="41.9344265" lon="12.5833491"><ele>39.0</ele><time>2026-05-03T16:01:17.868Z</time></trkpt><trkpt lat="41.9343172" lon="12.5834451"><ele>39.0</ele><time>2026-05-03T16:01:18.89Z</time></trkpt><trkpt lat="41.9342005" lon="12.5835527"><ele>37.5</ele><time>2026-05-03T16:01:19.879Z</time></trkpt><trkpt lat="41.9340928" lon="12.5836466"><ele>36.0</ele><time>2026-05-03T16:01:20.883Z</time></trkpt><trkpt lat="41.9339761" lon="12.5837184"><ele>34.5</ele><time>2026-05-03T16:01:21.893Z</time></trkpt><trkpt lat="41.9338705" lon="12.583765"><ele>33.0</ele><time>2026-05-03T16:01:22.882Z</time></trkpt><trkpt lat="41.9337915" lon="12.5838105"><ele>33.0</ele><time>2026-05-03T16:01:23.883Z</time></trkpt><trkpt lat="41.9337077" lon="12.583834"><ele>33.0</ele><time>2026-05-03T16:01:24.879Z</time></trkpt><trkpt lat="41.9336298" lon="12.5838243"><ele>33.0</ele><time>2026-05-03T16:01:25.879Z</time></trkpt><trkpt lat="41.9335695" lon="12.5837885"><ele>33.0</ele><time>2026-05-03T16:01:26.873Z</time></trkpt><trkpt lat="41.9334982" lon="12.5837962"><ele>33.0</ele><time>2026-05-03T16:01:27.88Z</time></trkpt><trkpt lat="41.9334196" lon="12.5838511"><ele>33.0</ele><time>2026-05-03T16:01:28.879Z</time></trkpt><trkpt lat="41.9333374" lon="12.5839432"><ele>33.0</ele><time>2026-05-03T16:01:29.859Z</time></trkpt><trkpt lat="41.9332516" lon="12.5840644"><ele>33.0</ele><time>2026-05-03T16:01:30.882Z</time></trkpt><trkpt lat="41.9331646" lon="12.5841701"><ele>33.0</ele><time>2026-05-03T16:01:31.876Z</time></trkpt><trkpt lat="41.933074" lon="12.584242"><ele>33.0</ele><time>2026-05-03T16:01:32.87Z</time></trkpt><trkpt lat="41.9329839" lon="12.5842918"><ele>33.0</ele><time>2026-05-03T16:01:33.871Z</time></trkpt><trkpt lat="41.9328816" lon="12.5843118"><ele>33.0</ele><time>2026-05-03T16:01:34.882Z</time></trkpt><trkpt lat="41.9328054" lon="12.5843155"><ele>33.0</ele><time>2026-05-03T16:01:35.872Z</time></trkpt><trkpt lat="41.9327376" lon="12.5842781"><ele>33.0</ele><time>2026-05-03T16:01:36.881Z</time></trkpt><trkpt lat="41.932672" lon="12.5842177"><ele>33.0</ele><time>2026-05-03T16:01:37.877Z</time></trkpt><trkpt lat="41.9326266" lon="12.584114"><ele>33.0</ele><time>2026-05-03T16:01:38.868Z</time></trkpt><trkpt lat="41.9326021" lon="12.5839691"><ele>33.0</ele><time>2026-05-03T16:01:39.865Z</time></trkpt><trkpt lat="41.9326025" lon="12.5837905"><ele>32.25</ele><time>2026-05-03T16:01:40.868Z</time></trkpt><trkpt lat="41.9326113" lon="12.583598"><ele>31.5</ele><time>2026-05-03T16:01:41.867Z</time></trkpt><trkpt lat="41.9326268" lon="12.5833973"><ele>30.75</ele><time>2026-05-03T16:01:42.875Z</time></trkpt><trkpt lat="41.932652" lon="12.5832135"><ele>30.0</ele><time>2026-05-03T16:01:43.873Z</time></trkpt><trkpt lat="41.9326685" lon="12.5830519"><ele>30.0</ele><time>2026-05-03T16:01:44.87Z</time></trkpt><trkpt lat="41.9326706" lon="12.5829065"><ele>30.0</ele><time>2026-05-03T16:01:45.878Z</time></trkpt><trkpt lat="41.9326457" lon="12.5827889"><ele>30.0</ele><time>2026-05-03T16:01:46.877Z</time></trkpt><trkpt lat="41.9326005" lon="12.5826989"><ele>30.0</ele><time>2026-05-03T16:01:47.866Z</time></trkpt><trkpt lat="41.932504" lon="12.5826696"><ele>30.0</ele><time>2026-05-03T16:01:49.874Z</time></trkpt><trkpt lat="41.9324416" lon="12.5825489"><ele>30.75</ele><time>2026-05-03T16:01:52.88Z</time></trkpt><trkpt lat="41.9323794" lon="12.5823688"><ele>31.5</ele><time>2026-05-03T16:01:54.879Z</time></trkpt><trkpt lat="41.9323226" lon="12.5822007"><ele>32.25</ele><time>2026-05-03T16:01:55.871Z</time></trkpt><trkpt lat="41.9322656" lon="12.5820053"><ele>33.0</ele><time>2026-05-03T16:01:56.879Z</time></trkpt><trkpt lat="41.932217" lon="12.5817284"><ele>34.5</ele><time>2026-05-03T16:01:57.875Z</time></trkpt><trkpt lat="41.9321558" lon="12.5814408"><ele>36.0</ele><time>2026-05-03T16:01:58.878Z</time></trkpt><trkpt lat="41.9320681" lon="12.5811309"><ele>37.0</ele><time>2026-05-03T16:01:59.88Z</time></trkpt><trkpt lat="41.9319823" lon="12.5808237"><ele>38.0</ele><time>2026-05-03T16:02:00.886Z</time></trkpt><trkpt lat="41.931923" lon="12.5805441"><ele>37.33333333333333</ele><time>2026-05-03T16:02:01.877Z</time></trkpt><trkpt lat="41.9318771" lon="12.5802939"><ele>36.666666666666664</ele><time>2026-05-03T16:02:02.881Z</time></trkpt><trkpt lat="41.9318205" lon="12.580066"><ele>36.0</ele><time>2026-05-03T16:02:03.882Z</time></trkpt><trkpt lat="41.93175" lon="12.5798335"><ele>36.0</ele><time>2026-05-03T16:02:04.879Z</time></trkpt><trkpt lat="41.9316565" lon="12.5795865"><ele>36.0</ele><time>2026-05-03T16:02:05.873Z</time></trkpt><trkpt lat="41.9315613" lon="12.5793321"><ele>36.0</ele><time>2026-05-03T16:02:06.881Z</time></trkpt><trkpt lat="41.9314827" lon="12.5790797"><ele>36.0</ele><time>2026-05-03T16:02:07.883Z</time></trkpt><trkpt lat="41.931401" lon="12.5788475"><ele>36.0</ele><time>2026-05-03T16:02:08.874Z</time></trkpt><trkpt lat="41.9313265" lon="12.5786327"><ele>36.0</ele><time>2026-05-03T16:02:09.875Z</time></trkpt><trkpt lat="41.9312414" lon="12.5784597"><ele>35.666666666666664</ele><time>2026-05-03T16:02:10.878Z</time></trkpt><trkpt lat="41.9310963" lon="12.5782956"><ele>35.33333333333333</ele><time>2026-05-03T16:02:11.881Z</time></trkpt><trkpt lat="41.9309388" lon="12.5781318"><ele>35.0</ele><time>2026-05-03T16:02:12.876Z</time></trkpt><trkpt lat="41.9307869" lon="12.5780012"><ele>35.0</ele><time>2026-05-03T16:02:13.888Z</time></trkpt><trkpt lat="41.9306429" lon="12.5778711"><ele>35.0</ele><time>2026-05-03T16:02:14.879Z</time></trkpt><trkpt lat="41.9305201" lon="12.5777562"><ele>35.0</ele><time>2026-05-03T16:02:15.876Z</time></trkpt><trkpt lat="41.9303772" lon="12.5776382"><ele>35.0</ele><time>2026-05-03T16:02:16.88Z</time></trkpt><trkpt lat="41.930239" lon="12.5775345"><ele>35.0</ele><time>2026-05-03T16:02:17.886Z</time></trkpt><trkpt lat="41.930085" lon="12.5774427"><ele>35.0</ele><time>2026-05-03T16:02:18.887Z</time></trkpt><trkpt lat="41.929936" lon="12.5773843"><ele>35.0</ele><time>2026-05-03T16:02:19.893Z</time></trkpt><trkpt lat="41.9297959" lon="12.577349"><ele>35.0</ele><time>2026-05-03T16:02:20.889Z</time></trkpt><trkpt lat="41.9296443" lon="12.5773041"><ele>35.0</ele><time>2026-05-03T16:02:21.893Z</time></trkpt><trkpt lat="41.9294849" lon="12.5772547"><ele>35.0</ele><time>2026-05-03T16:02:22.886Z</time></trkpt><trkpt lat="41.9293328" lon="12.5771902"><ele>35.0</ele><time>2026-05-03T16:02:23.881Z</time></trkpt><trkpt lat="41.9292014" lon="12.5770952"><ele>35.0</ele><time>2026-05-03T16:02:24.885Z</time></trkpt><trkpt lat="41.929083" lon="12.5769967"><ele>35.0</ele><time>2026-05-03T16:02:25.878Z</time></trkpt><trkpt lat="41.9289613" lon="12.576878"><ele>34.666666666666664</ele><time>2026-05-03T16:02:26.883Z</time></trkpt><trkpt lat="41.9288434" lon="12.5767639"><ele>34.333333333333336</ele><time>2026-05-03T16:02:27.879Z</time></trkpt><trkpt lat="41.9287255" lon="12.5766219"><ele>34.0</ele><time>2026-05-03T16:02:28.883Z</time></trkpt><trkpt lat="41.928599" lon="12.5764808"><ele>34.0</ele><time>2026-05-03T16:02:29.876Z</time></trkpt><trkpt lat="41.9284812" lon="12.576323"><ele>34.0</ele><time>2026-05-03T16:02:30.883Z</time></trkpt><trkpt lat="41.9283588" lon="12.5761581"><ele>34.0</ele><time>2026-05-03T16:02:31.883Z</time></trkpt><trkpt lat="41.9282379" lon="12.576007"><ele>34.0</ele><time>2026-05-03T16:02:32.882Z</time></trkpt><trkpt lat="41.9281112" lon="12.5758576"><ele>34.0</ele><time>2026-05-03T16:02:33.884Z</time></trkpt><trkpt lat="41.9279841" lon="12.5757028"><ele>34.0</ele><time>2026-05-03T16:02:34.882Z</time></trkpt><trkpt lat="41.9278455" lon="12.5755602"><ele>34.0</ele><time>2026-05-03T16:02:35.877Z</time></trkpt><trkpt lat="41.9277124" lon="12.5754175"><ele>34.0</ele><time>2026-05-03T16:02:36.884Z</time></trkpt><trkpt lat="41.9275857" lon="12.5752557"><ele>34.0</ele><time>2026-05-03T16:02:37.885Z</time></trkpt><trkpt lat="41.92745" lon="12.5750867"><ele>32.66666666666667</ele><time>2026-05-03T16:02:38.888Z</time></trkpt><trkpt lat="41.9273019" lon="12.5749433"><ele>31.333333333333336</ele><time>2026-05-03T16:02:39.883Z</time></trkpt><trkpt lat="41.9271645" lon="12.5748373"><ele>30.0</ele><time>2026-05-03T16:02:40.883Z</time></trkpt><trkpt lat="41.9270401" lon="12.5747536"><ele>30.0</ele><time>2026-05-03T16:02:41.876Z</time></trkpt><trkpt lat="41.9269411" lon="12.5746736"><ele>30.0</ele><time>2026-05-03T16:02:42.883Z</time></trkpt><trkpt lat="41.9268665" lon="12.5746031"><ele>30.0</ele><time>2026-05-03T16:02:43.875Z</time></trkpt><trkpt lat="41.9267961" lon="12.5745148"><ele>30.0</ele><time>2026-05-03T16:02:45.88Z</time></trkpt><trkpt lat="41.926743" lon="12.5744252"><ele>30.0</ele><time>2026-05-03T16:03:22.91Z</time></trkpt><trkpt lat="41.9266536" lon="12.5743362"><ele>29.333333333333336</ele><time>2026-05-03T16:03:24.907Z</time></trkpt><trkpt lat="41.9265618" lon="12.5742617"><ele>28.666666666666668</ele><time>2026-05-03T16:03:25.885Z</time></trkpt><trkpt lat="41.9264189" lon="12.5741546"><ele>28.0</ele><time>2026-05-03T16:03:26.88Z</time></trkpt><trkpt lat="41.9261704" lon="12.573994"><ele>28.0</ele><time>2026-05-03T16:03:27.884Z</time></trkpt><trkpt lat="41.9259794" lon="12.5738336"><ele>28.0</ele><time>2026-05-03T16:03:28.887Z</time></trkpt><trkpt lat="41.9258105" lon="12.5736743"><ele>28.0</ele><time>2026-05-03T16:03:29.877Z</time></trkpt><trkpt lat="41.9256788" lon="12.5735045"><ele>28.333333333333336</ele><time>2026-05-03T16:03:30.865Z</time></trkpt><trkpt lat="41.925562" lon="12.5733141"><ele>28.666666666666664</ele><time>2026-05-03T16:03:31.88Z</time></trkpt><trkpt lat="41.92548" lon="12.5730973"><ele>29.0</ele><time>2026-05-03T16:03:32.876Z</time></trkpt><trkpt lat="41.925385" lon="12.5728734"><ele>30.0</ele><time>2026-05-03T16:03:33.883Z</time></trkpt><trkpt lat="41.9253025" lon="12.5726385"><ele>31.0</ele><time>2026-05-03T16:03:34.873Z</time></trkpt><trkpt lat="41.9252564" lon="12.572433"><ele>32.0</ele><time>2026-05-03T16:03:35.88Z</time></trkpt><trkpt lat="41.9251898" lon="12.5722462"><ele>32.0</ele><time>2026-05-03T16:03:36.868Z</time></trkpt><trkpt lat="41.9251429" lon="12.5721042"><ele>32.0</ele><time>2026-05-03T16:03:37.867Z</time></trkpt><trkpt lat="41.9250622" lon="12.5719687"><ele>32.0</ele><time>2026-05-03T16:03:38.867Z</time></trkpt><trkpt lat="41.9249605" lon="12.5718515"><ele>32.0</ele><time>2026-05-03T16:03:39.876Z</time></trkpt><trkpt lat="41.9248722" lon="12.5717672"><ele>32.6</ele><time>2026-05-03T16:03:40.88Z</time></trkpt><trkpt lat="41.9248113" lon="12.5716781"><ele>33.2</ele><time>2026-05-03T16:03:41.866Z</time></trkpt><trkpt lat="41.9247576" lon="12.5715905"><ele>33.8</ele><time>2026-05-03T16:03:42.872Z</time></trkpt><trkpt lat="41.9247183" lon="12.571506"><ele>34.4</ele><time>2026-05-03T16:03:43.868Z</time></trkpt><trkpt lat="41.9246765" lon="12.5713999"><ele>35.0</ele><time>2026-05-03T16:03:45.873Z</time></trkpt><trkpt lat="41.9246263" lon="12.5712535"><ele>35.5</ele><time>2026-05-03T16:04:12.89Z</time></trkpt><trkpt lat="41.9245904" lon="12.571127"><ele>36.0</ele><time>2026-05-03T16:04:13.89Z</time></trkpt><trkpt lat="41.9245453" lon="12.570976"><ele>36.5</ele><time>2026-05-03T16:04:14.891Z</time></trkpt><trkpt lat="41.9244898" lon="12.5707836"><ele>37.0</ele><time>2026-05-03T16:04:15.885Z</time></trkpt><trkpt lat="41.9244248" lon="12.5705576"><ele>37.0</ele><time>2026-05-03T16:04:16.887Z</time></trkpt><trkpt lat="41.9243465" lon="12.5702447"><ele>37.0</ele><time>2026-05-03T16:04:17.884Z</time></trkpt><trkpt lat="41.9242763" lon="12.5699335"><ele>37.0</ele><time>2026-05-03T16:04:18.874Z</time></trkpt><trkpt lat="41.9242737" lon="12.5697241"><ele>37.0</ele><time>2026-05-03T16:04:19.884Z</time></trkpt><trkpt lat="41.9242733" lon="12.5695207"><ele>37.0</ele><time>2026-05-03T16:04:20.906Z</time></trkpt><trkpt lat="41.924286" lon="12.5693374"><ele>37.0</ele><time>2026-05-03T16:04:21.912Z</time></trkpt><trkpt lat="41.9242804" lon="12.5691879"><ele>36.800000000000004</ele><time>2026-05-03T16:04:22.904Z</time></trkpt><trkpt lat="41.9242737" lon="12.569042"><ele>36.6</ele><time>2026-05-03T16:04:23.912Z</time></trkpt><trkpt lat="41.9242763" lon="12.5689135"><ele>36.400000000000006</ele><time>2026-05-03T16:04:24.907Z</time></trkpt><trkpt lat="41.9242694" lon="12.5688067"><ele>36.2</ele><time>2026-05-03T16:04:25.881Z</time></trkpt><trkpt lat="41.9242747" lon="12.5686696"><ele>36.0</ele><time>2026-05-03T16:04:27.894Z</time></trkpt><trkpt lat="41.9242439" lon="12.5685056"><ele>32.666666666666664</ele><time>2026-05-03T16:04:58.874Z</time></trkpt><trkpt lat="41.9242151" lon="12.5683713"><ele>29.333333333333332</ele><time>2026-05-03T16:04:59.885Z</time></trkpt><trkpt lat="41.9241627" lon="12.568166"><ele>26.0</ele><time>2026-05-03T16:05:00.877Z</time></trkpt><trkpt lat="41.9240947" lon="12.5678762"><ele>26.0</ele><time>2026-05-03T16:05:01.865Z</time></trkpt><trkpt lat="41.9239497" lon="12.5675652"><ele>26.0</ele><time>2026-05-03T16:05:02.875Z</time></trkpt><trkpt lat="41.9237992" lon="12.5672744"><ele>24.5</ele><time>2026-05-03T16:05:03.879Z</time></trkpt><trkpt lat="41.9236381" lon="12.5670038"><ele>23.0</ele><time>2026-05-03T16:05:04.871Z</time></trkpt><trkpt lat="41.9234646" lon="12.5667835"><ele>22.0</ele><time>2026-05-03T16:05:05.878Z</time></trkpt><trkpt lat="41.9232679" lon="12.5665517"><ele>21.0</ele><time>2026-05-03T16:05:06.876Z</time></trkpt><trkpt lat="41.9230685" lon="12.5663018"><ele>21.0</ele><time>2026-05-03T16:05:07.87Z</time></trkpt><trkpt lat="41.9228863" lon="12.5660549"><ele>21.0</ele><time>2026-05-03T16:05:08.952Z</time></trkpt><trkpt lat="41.9227011" lon="12.5658276"><ele>22.5</ele><time>2026-05-03T16:05:09.869Z</time></trkpt><trkpt lat="41.9225267" lon="12.5655997"><ele>24.0</ele><time>2026-05-03T16:05:10.868Z</time></trkpt><trkpt lat="41.9223663" lon="12.5653952"><ele>24.333333333333336</ele><time>2026-05-03T16:05:11.87Z</time></trkpt><trkpt lat="41.9222202" lon="12.5652298"><ele>24.666666666666668</ele><time>2026-05-03T16:05:12.898Z</time></trkpt><trkpt lat="41.9220965" lon="12.5651086"><ele>25.0</ele><time>2026-05-03T16:05:13.881Z</time></trkpt><trkpt lat="41.9220045" lon="12.5650163"><ele>25.000000000000004</ele><time>2026-05-03T16:05:14.871Z</time></trkpt><trkpt lat="41.9219449" lon="12.5649388"><ele>25.0</ele><time>2026-05-03T16:05:15.873Z</time></trkpt><trkpt lat="41.9219096" lon="12.5648563"><ele>25.0</ele><time>2026-05-03T16:05:16.873Z</time></trkpt><trkpt lat="41.9219049" lon="12.564761"><ele>25.0</ele><time>2026-05-03T16:05:17.873Z</time></trkpt><trkpt lat="41.921931" lon="12.5646652"><ele>25.000000000000004</ele><time>2026-05-03T16:05:18.875Z</time></trkpt><trkpt lat="41.9219862" lon="12.564592"><ele>25.0</ele><time>2026-05-03T16:05:19.872Z</time></trkpt><trkpt lat="41.9220499" lon="12.5645004"><ele>25.75</ele><time>2026-05-03T16:05:20.879Z</time></trkpt><trkpt lat="41.9221446" lon="12.5644055"><ele>26.5</ele><time>2026-05-03T16:05:21.886Z</time></trkpt><trkpt lat="41.9222522" lon="12.5643304"><ele>27.25</ele><time>2026-05-03T16:05:22.879Z</time></trkpt><trkpt lat="41.922364" lon="12.5642686"><ele>28.0</ele><time>2026-05-03T16:05:23.875Z</time></trkpt><trkpt lat="41.9224824" lon="12.5642292"><ele>27.5</ele><time>2026-05-03T16:05:24.898Z</time></trkpt><trkpt lat="41.922607" lon="12.5642162"><ele>27.0</ele><time>2026-05-03T16:05:25.865Z</time></trkpt><trkpt lat="41.9227267" lon="12.5642208"><ele>26.5</ele><time>2026-05-03T16:05:26.873Z</time></trkpt><trkpt lat="41.9228324" lon="12.5642497"><ele>26.0</ele><time>2026-05-03T16:05:27.875Z</time></trkpt><trkpt lat="41.9229213" lon="12.5643029"><ele>26.0</ele><time>2026-05-03T16:05:28.871Z</time></trkpt><trkpt lat="41.9229936" lon="12.5643942"><ele>26.0</ele><time>2026-05-03T16:05:29.871Z</time></trkpt><trkpt lat="41.9230396" lon="12.5645091"><ele>26.0</ele><time>2026-05-03T16:05:30.878Z</time></trkpt><trkpt lat="41.9230538" lon="12.5646572"><ele>26.0</ele><time>2026-05-03T16:05:31.87Z</time></trkpt><trkpt lat="41.9230482" lon="12.564808"><ele>26.0</ele><time>2026-05-03T16:05:32.877Z</time></trkpt><trkpt lat="41.9230129" lon="12.5649542"><ele>25.5</ele><time>2026-05-03T16:05:33.879Z</time></trkpt><trkpt lat="41.9229609" lon="12.5651051"><ele>25.0</ele><time>2026-05-03T16:05:34.868Z</time></trkpt><trkpt lat="41.922898" lon="12.5652568"><ele>24.5</ele><time>2026-05-03T16:05:35.882Z</time></trkpt><trkpt lat="41.9228281" lon="12.5653963"><ele>24.0</ele><time>2026-05-03T16:05:36.881Z</time></trkpt><trkpt lat="41.9227477" lon="12.5655318"><ele>24.0</ele><time>2026-05-03T16:05:37.873Z</time></trkpt><trkpt lat="41.9226573" lon="12.5656648"><ele>24.0</ele><time>2026-05-03T16:05:38.884Z</time></trkpt><trkpt lat="41.9225577" lon="12.5657966"><ele>24.0</ele><time>2026-05-03T16:05:39.884Z</time></trkpt><trkpt lat="41.9224271" lon="12.5659074"><ele>24.0</ele><time>2026-05-03T16:05:40.862Z</time></trkpt><trkpt lat="41.9223354" lon="12.5659891"><ele>24.0</ele><time>2026-05-03T16:05:41.884Z</time></trkpt><trkpt lat="41.9222202" lon="12.5660293"><ele>24.0</ele><time>2026-05-03T16:05:42.877Z</time></trkpt><trkpt lat="41.9220958" lon="12.5661249"><ele>24.0</ele><time>2026-05-03T16:05:43.864Z</time></trkpt><trkpt lat="41.9219961" lon="12.5662062"><ele>24.0</ele><time>2026-05-03T16:05:44.881Z</time></trkpt><trkpt lat="41.9218862" lon="12.5662712"><ele>23.0</ele><time>2026-05-03T16:05:45.876Z</time></trkpt><trkpt lat="41.9217542" lon="12.5663167"><ele>22.0</ele><time>2026-05-03T16:05:46.867Z</time></trkpt><trkpt lat="41.9216059" lon="12.5663537"><ele>21.0</ele><time>2026-05-03T16:05:47.883Z</time></trkpt><trkpt lat="41.9214327" lon="12.5663862"><ele>21.0</ele><time>2026-05-03T16:05:48.874Z</time></trkpt><trkpt lat="41.9212497" lon="12.5664274"><ele>21.0</ele><time>2026-05-03T16:05:49.872Z</time></trkpt><trkpt lat="41.921058" lon="12.5664389"><ele>21.0</ele><time>2026-05-03T16:05:50.877Z</time></trkpt><trkpt lat="41.9208925" lon="12.5665048"><ele>22.333333333333336</ele><time>2026-05-03T16:05:51.876Z</time></trkpt><trkpt lat="41.9207231" lon="12.5665865"><ele>23.666666666666668</ele><time>2026-05-03T16:05:52.877Z</time></trkpt><trkpt lat="41.9205295" lon="12.5666952"><ele>25.0</ele><time>2026-05-03T16:05:53.873Z</time></trkpt><trkpt lat="41.9202913" lon="12.5667816"><ele>25.5</ele><time>2026-05-03T16:05:54.883Z</time></trkpt><trkpt lat="41.9200211" lon="12.5668192"><ele>26.0</ele><time>2026-05-03T16:05:55.866Z</time></trkpt><trkpt lat="41.9197777" lon="12.5668859"><ele>26.0</ele><time>2026-05-03T16:05:56.872Z</time></trkpt><trkpt lat="41.9195515" lon="12.5669475"><ele>26.0</ele><time>2026-05-03T16:05:57.869Z</time></trkpt><trkpt lat="41.9193789" lon="12.5670316"><ele>26.0</ele><time>2026-05-03T16:05:58.882Z</time></trkpt><trkpt lat="41.9191755" lon="12.5671505"><ele>25.666666666666664</ele><time>2026-05-03T16:05:59.874Z</time></trkpt><trkpt lat="41.9189749" lon="12.5672768"><ele>25.333333333333336</ele><time>2026-05-03T16:06:00.878Z</time></trkpt><trkpt lat="41.9187831" lon="12.5673709"><ele>25.0</ele><time>2026-05-03T16:06:01.877Z</time></trkpt><trkpt lat="41.9185928" lon="12.567475"><ele>25.333333333333336</ele><time>2026-05-03T16:06:02.885Z</time></trkpt><trkpt lat="41.9183964" lon="12.5675694"><ele>25.666666666666664</ele><time>2026-05-03T16:06:03.887Z</time></trkpt><trkpt lat="41.9181763" lon="12.567679"><ele>26.0</ele><time>2026-05-03T16:06:04.879Z</time></trkpt><trkpt lat="41.9179814" lon="12.5677978"><ele>25.666666666666664</ele><time>2026-05-03T16:06:05.882Z</time></trkpt><trkpt lat="41.9177843" lon="12.5679029"><ele>25.333333333333336</ele><time>2026-05-03T16:06:06.879Z</time></trkpt><trkpt lat="41.9175767" lon="12.5680296"><ele>25.0</ele><time>2026-05-03T16:06:07.88Z</time></trkpt><trkpt lat="41.9171447" lon="12.5682825"><ele>24.666666666666668</ele><time>2026-05-03T16:06:09.88Z</time></trkpt><trkpt lat="41.9169714" lon="12.5684107"><ele>24.333333333333336</ele><time>2026-05-03T16:06:10.872Z</time></trkpt><trkpt lat="41.9168115" lon="12.5685123"><ele>24.0</ele><time>2026-05-03T16:06:11.883Z</time></trkpt><trkpt lat="41.9166505" lon="12.5686242"><ele>24.0</ele><time>2026-05-03T16:06:12.873Z</time></trkpt><trkpt lat="41.9165027" lon="12.5687101"><ele>24.0</ele><time>2026-05-03T16:06:13.868Z</time></trkpt><trkpt lat="41.9163576" lon="12.5687915"><ele>24.0</ele><time>2026-05-03T16:06:14.878Z</time></trkpt><trkpt lat="41.9162252" lon="12.5688619"><ele>24.0</ele><time>2026-05-03T16:06:15.882Z</time></trkpt><trkpt lat="41.9160825" lon="12.568937"><ele>24.0</ele><time>2026-05-03T16:06:16.873Z</time></trkpt><trkpt lat="41.9159217" lon="12.568999"><ele>24.0</ele><time>2026-05-03T16:06:17.886Z</time></trkpt><trkpt lat="41.9157515" lon="12.569097"><ele>24.666666666666664</ele><time>2026-05-03T16:06:18.871Z</time></trkpt><trkpt lat="41.915575" lon="12.5691771"><ele>25.333333333333332</ele><time>2026-05-03T16:06:19.879Z</time></trkpt><trkpt lat="41.9154108" lon="12.5692728"><ele>26.0</ele><time>2026-05-03T16:06:20.882Z</time></trkpt><trkpt lat="41.9152437" lon="12.5693578"><ele>26.0</ele><time>2026-05-03T16:06:21.887Z</time></trkpt><trkpt lat="41.9150872" lon="12.5694379"><ele>26.0</ele><time>2026-05-03T16:06:22.868Z</time></trkpt><trkpt lat="41.9149551" lon="12.569509"><ele>26.0</ele><time>2026-05-03T16:06:23.889Z</time></trkpt><trkpt lat="41.9148162" lon="12.5695751"><ele>26.25</ele><time>2026-05-03T16:06:24.885Z</time></trkpt><trkpt lat="41.9146882" lon="12.5696412"><ele>26.5</ele><time>2026-05-03T16:06:25.879Z</time></trkpt><trkpt lat="41.9145655" lon="12.5697081"><ele>26.75</ele><time>2026-05-03T16:06:26.887Z</time></trkpt><trkpt lat="41.9144489" lon="12.5697738"><ele>27.0</ele><time>2026-05-03T16:06:27.891Z</time></trkpt><trkpt lat="41.9143333" lon="12.5698476"><ele>26.75</ele><time>2026-05-03T16:06:28.88Z</time></trkpt><trkpt lat="41.9142027" lon="12.5699266"><ele>26.5</ele><time>2026-05-03T16:06:29.89Z</time></trkpt><trkpt lat="41.9140978" lon="12.5700085"><ele>26.25</ele><time>2026-05-03T16:06:30.888Z</time></trkpt><trkpt lat="41.913995" lon="12.5700784"><ele>26.0</ele><time>2026-05-03T16:06:31.881Z</time></trkpt><trkpt lat="41.9139005" lon="12.5701389"><ele>25.999999999999996</ele><time>2026-05-03T16:06:32.887Z</time></trkpt><trkpt lat="41.9138095" lon="12.5701909"><ele>26.0</ele><time>2026-05-03T16:06:33.891Z</time></trkpt><trkpt lat="41.9137242" lon="12.5702364"><ele>26.0</ele><time>2026-05-03T16:06:34.878Z</time></trkpt><trkpt lat="41.9136416" lon="12.5702836"><ele>26.0</ele><time>2026-05-03T16:06:35.893Z</time></trkpt><trkpt lat="41.9135621" lon="12.570323"><ele>25.999999999999996</ele><time>2026-05-03T16:06:36.893Z</time></trkpt><trkpt lat="41.9134887" lon="12.5703409"><ele>26.0</ele><time>2026-05-03T16:06:37.875Z</time></trkpt><trkpt lat="41.9134189" lon="12.5703569"><ele>27.25</ele><time>2026-05-03T16:06:38.878Z</time></trkpt><trkpt lat="41.91333" lon="12.5704022"><ele>28.5</ele><time>2026-05-03T16:06:40.873Z</time></trkpt><trkpt lat="41.9132724" lon="12.5704395"><ele>29.75</ele><time>2026-05-03T16:06:45.862Z</time></trkpt><trkpt lat="41.9131457" lon="12.5705588"><ele>31.0</ele><time>2026-05-03T16:06:47.861Z</time></trkpt><trkpt lat="41.9130282" lon="12.5706512"><ele>31.0</ele><time>2026-05-03T16:06:48.873Z</time></trkpt><trkpt lat="41.9128651" lon="12.5707427"><ele>31.0</ele><time>2026-05-03T16:06:49.875Z</time></trkpt><trkpt lat="41.9126165" lon="12.5708768"><ele>31.0</ele><time>2026-05-03T16:06:50.868Z</time></trkpt><trkpt lat="41.9123806" lon="12.5709836"><ele>30.0</ele><time>2026-05-03T16:06:51.878Z</time></trkpt><trkpt lat="41.9121976" lon="12.5710811"><ele>29.0</ele><time>2026-05-03T16:06:52.882Z</time></trkpt><trkpt lat="41.9120282" lon="12.5711656"><ele>28.0</ele><time>2026-05-03T16:06:53.878Z</time></trkpt><trkpt lat="41.9118657" lon="12.5712662"><ele>30.0</ele><time>2026-05-03T16:06:54.876Z</time></trkpt><trkpt lat="41.9117171" lon="12.5713559"><ele>32.0</ele><time>2026-05-03T16:06:55.875Z</time></trkpt><trkpt lat="41.9115517" lon="12.5714583"><ele>34.0</ele><time>2026-05-03T16:06:56.867Z</time></trkpt><trkpt lat="41.9113744" lon="12.5715204"><ele>34.0</ele><time>2026-05-03T16:06:57.871Z</time></trkpt><trkpt lat="41.9112691" lon="12.5716399"><ele>34.0</ele><time>2026-05-03T16:06:58.869Z</time></trkpt><trkpt lat="41.9111156" lon="12.5717084"><ele>34.0</ele><time>2026-05-03T16:06:59.874Z</time></trkpt><trkpt lat="41.9109867" lon="12.5717514"><ele>34.0</ele><time>2026-05-03T16:07:00.877Z</time></trkpt><trkpt lat="41.9108737" lon="12.5717719"><ele>33.333333333333336</ele><time>2026-05-03T16:07:01.866Z</time></trkpt><trkpt lat="41.9107624" lon="12.5718128"><ele>32.666666666666664</ele><time>2026-05-03T16:07:02.866Z</time></trkpt><trkpt lat="41.9106127" lon="12.5718596"><ele>32.0</ele><time>2026-05-03T16:07:03.864Z</time></trkpt><trkpt lat="41.9104008" lon="12.5719201"><ele>31.666666666666664</ele><time>2026-05-03T16:07:04.861Z</time></trkpt><trkpt lat="41.9102127" lon="12.5720325"><ele>31.333333333333336</ele><time>2026-05-03T16:07:05.871Z</time></trkpt><trkpt lat="41.9100126" lon="12.5720956"><ele>31.0</ele><time>2026-05-03T16:07:06.863Z</time></trkpt><trkpt lat="41.9097767" lon="12.5721103"><ele>30.5</ele><time>2026-05-03T16:07:07.867Z</time></trkpt><trkpt lat="41.9095402" lon="12.5721851"><ele>30.0</ele><time>2026-05-03T16:07:08.866Z</time></trkpt><trkpt lat="41.909304" lon="12.5722759"><ele>29.5</ele><time>2026-05-03T16:07:09.868Z</time></trkpt><trkpt lat="41.9090579" lon="12.5723457"><ele>29.0</ele><time>2026-05-03T16:07:10.863Z</time></trkpt><trkpt lat="41.9087938" lon="12.5724275"><ele>29.0</ele><time>2026-05-03T16:07:11.874Z</time></trkpt><trkpt lat="41.9085782" lon="12.5724787"><ele>29.0</ele><time>2026-05-03T16:07:12.865Z</time></trkpt><trkpt lat="41.9083916" lon="12.5725216"><ele>29.0</ele><time>2026-05-03T16:07:13.86Z</time></trkpt><trkpt lat="41.9082158" lon="12.5725898"><ele>29.0</ele><time>2026-05-03T16:07:14.907Z</time></trkpt><trkpt lat="41.9080413" lon="12.5726482"><ele>29.0</ele><time>2026-05-03T16:07:15.883Z</time></trkpt><trkpt lat="41.9078583" lon="12.5726866"><ele>29.0</ele><time>2026-05-03T16:07:16.879Z</time></trkpt><trkpt lat="41.9076958" lon="12.5727226"><ele>29.666666666666664</ele><time>2026-05-03T16:07:17.883Z</time></trkpt><trkpt lat="41.9075315" lon="12.5727546"><ele>30.333333333333336</ele><time>2026-05-03T16:07:18.876Z</time></trkpt><trkpt lat="41.9073844" lon="12.5728333"><ele>31.0</ele><time>2026-05-03T16:07:19.88Z</time></trkpt><trkpt lat="41.9072212" lon="12.5729378"><ele>29.666666666666668</ele><time>2026-05-03T16:07:20.885Z</time></trkpt><trkpt lat="41.9070353" lon="12.5729976"><ele>28.333333333333336</ele><time>2026-05-03T16:07:21.89Z</time></trkpt><trkpt lat="41.9068511" lon="12.57303"><ele>27.0</ele><time>2026-05-03T16:07:22.89Z</time></trkpt><trkpt lat="41.9066719" lon="12.573052"><ele>26.0</ele><time>2026-05-03T16:07:23.893Z</time></trkpt><trkpt lat="41.9064868" lon="12.5730846"><ele>25.0</ele><time>2026-05-03T16:07:24.875Z</time></trkpt><trkpt lat="41.9062984" lon="12.573129"><ele>24.0</ele><time>2026-05-03T16:07:25.889Z</time></trkpt><trkpt lat="41.9060982" lon="12.5731627"><ele>25.0</ele><time>2026-05-03T16:07:26.873Z</time></trkpt><trkpt lat="41.9058648" lon="12.5731744"><ele>26.0</ele><time>2026-05-03T16:07:27.893Z</time></trkpt><trkpt lat="41.9056385" lon="12.5732116"><ele>26.0</ele><time>2026-05-03T16:07:28.893Z</time></trkpt><trkpt lat="41.905431" lon="12.5732776"><ele>26.0</ele><time>2026-05-03T16:07:29.866Z</time></trkpt><trkpt lat="41.905248" lon="12.5733507"><ele>26.0</ele><time>2026-05-03T16:07:30.886Z</time></trkpt><trkpt lat="41.9050771" lon="12.5734088"><ele>26.666666666666664</ele><time>2026-05-03T16:07:31.881Z</time></trkpt><trkpt lat="41.9048766" lon="12.5734656"><ele>27.333333333333336</ele><time>2026-05-03T16:07:32.883Z</time></trkpt><trkpt lat="41.9046848" lon="12.5735084"><ele>28.0</ele><time>2026-05-03T16:07:33.887Z</time></trkpt><trkpt lat="41.9045222" lon="12.5735465"><ele>28.0</ele><time>2026-05-03T16:07:34.889Z</time></trkpt><trkpt lat="41.9043529" lon="12.5735761"><ele>28.0</ele><time>2026-05-03T16:07:35.886Z</time></trkpt><trkpt lat="41.9042002" lon="12.5736078"><ele>28.0</ele><time>2026-05-03T16:07:36.881Z</time></trkpt><trkpt lat="41.9040551" lon="12.5736373"><ele>27.5</ele><time>2026-05-03T16:07:37.891Z</time></trkpt><trkpt lat="41.9039112" lon="12.5736765"><ele>27.0</ele><time>2026-05-03T16:07:38.88Z</time></trkpt><trkpt lat="41.9037919" lon="12.5737286"><ele>26.5</ele><time>2026-05-03T16:07:39.89Z</time></trkpt><trkpt lat="41.9036746" lon="12.5737672"><ele>26.0</ele><time>2026-05-03T16:07:40.896Z</time></trkpt><trkpt lat="41.9035543" lon="12.5738086"><ele>27.0</ele><time>2026-05-03T16:07:41.877Z</time></trkpt><trkpt lat="41.903424" lon="12.5738395"><ele>28.0</ele><time>2026-05-03T16:07:42.894Z</time></trkpt><trkpt lat="41.9032935" lon="12.5738757"><ele>29.0</ele><time>2026-05-03T16:07:43.877Z</time></trkpt><trkpt lat="41.9031745" lon="12.573905"><ele>30.0</ele><time>2026-05-03T16:07:44.898Z</time></trkpt><trkpt lat="41.9030673" lon="12.5739385"><ele>30.0</ele><time>2026-05-03T16:07:45.896Z</time></trkpt><trkpt lat="41.9029664" lon="12.5739321"><ele>30.0</ele><time>2026-05-03T16:07:46.887Z</time></trkpt><trkpt lat="41.9028538" lon="12.5739318"><ele>30.0</ele><time>2026-05-03T16:07:47.902Z</time></trkpt><trkpt lat="41.9027309" lon="12.5739232"><ele>30.0</ele><time>2026-05-03T16:07:48.905Z</time></trkpt><trkpt lat="41.9026045" lon="12.573924"><ele>29.75</ele><time>2026-05-03T16:07:49.893Z</time></trkpt><trkpt lat="41.9024927" lon="12.573936"><ele>29.5</ele><time>2026-05-03T16:07:50.902Z</time></trkpt><trkpt lat="41.9023844" lon="12.5739486"><ele>29.25</ele><time>2026-05-03T16:07:51.898Z</time></trkpt><trkpt lat="41.902265" lon="12.573965"><ele>29.0</ele><time>2026-05-03T16:07:52.898Z</time></trkpt><trkpt lat="41.9021365" lon="12.5739893"><ele>29.0</ele><time>2026-05-03T16:07:53.897Z</time></trkpt><trkpt lat="41.9019913" lon="12.5740237"><ele>29.0</ele><time>2026-05-03T16:07:54.895Z</time></trkpt><trkpt lat="41.901831" lon="12.5740661"><ele>29.0</ele><time>2026-05-03T16:07:55.897Z</time></trkpt><trkpt lat="41.901708" lon="12.5740822"><ele>29.0</ele><time>2026-05-03T16:07:56.892Z</time></trkpt><trkpt lat="41.9015569" lon="12.5740575"><ele>29.25</ele><time>2026-05-03T16:07:57.895Z</time></trkpt><trkpt lat="41.9014357" lon="12.5740443"><ele>29.5</ele><time>2026-05-03T16:07:58.894Z</time></trkpt><trkpt lat="41.9013119" lon="12.5740383"><ele>29.75</ele><time>2026-05-03T16:07:59.891Z</time></trkpt><trkpt lat="41.9011756" lon="12.5740363"><ele>30.0</ele><time>2026-05-03T16:08:00.898Z</time></trkpt><trkpt lat="41.9010429" lon="12.5740456"><ele>30.0</ele><time>2026-05-03T16:08:01.886Z</time></trkpt><trkpt lat="41.9009219" lon="12.5740694"><ele>30.0</ele><time>2026-05-03T16:08:02.883Z</time></trkpt><trkpt lat="41.9007839" lon="12.5741301"><ele>30.0</ele><time>2026-05-03T16:08:03.884Z</time></trkpt><trkpt lat="41.900606" lon="12.5741652"><ele>30.0</ele><time>2026-05-03T16:08:04.884Z</time></trkpt><trkpt lat="41.9004417" lon="12.574185"><ele>29.75</ele><time>2026-05-03T16:08:05.879Z</time></trkpt><trkpt lat="41.9002876" lon="12.5742068"><ele>29.5</ele><time>2026-05-03T16:08:06.888Z</time></trkpt><trkpt lat="41.9001443" lon="12.5742187"><ele>29.25</ele><time>2026-05-03T16:08:07.889Z</time></trkpt><trkpt lat="41.9000241" lon="12.5742169"><ele>29.0</ele><time>2026-05-03T16:08:08.886Z</time></trkpt><trkpt lat="41.8999175" lon="12.5742427"><ele>28.75</ele><time>2026-05-03T16:08:09.895Z</time></trkpt><trkpt lat="41.8997843" lon="12.5742677"><ele>28.5</ele><time>2026-05-03T16:08:10.894Z</time></trkpt><trkpt lat="41.8996455" lon="12.5742787"><ele>28.25</ele><time>2026-05-03T16:08:11.888Z</time></trkpt><trkpt lat="41.8995152" lon="12.5742776"><ele>28.0</ele><time>2026-05-03T16:08:12.893Z</time></trkpt><trkpt lat="41.8993943" lon="12.5742677"><ele>28.0</ele><time>2026-05-03T16:08:13.889Z</time></trkpt><trkpt lat="41.8992832" lon="12.5742726"><ele>27.999999999999996</ele><time>2026-05-03T16:08:14.887Z</time></trkpt><trkpt lat="41.8991809" lon="12.5742776"><ele>27.999999999999996</ele><time>2026-05-03T16:08:15.895Z</time></trkpt><trkpt lat="41.8990799" lon="12.5742862"><ele>28.0</ele><time>2026-05-03T16:08:16.889Z</time></trkpt><trkpt lat="41.8989854" lon="12.5742968"><ele>28.0</ele><time>2026-05-03T16:08:17.893Z</time></trkpt><trkpt lat="41.898888" lon="12.5743068"><ele>28.5</ele><time>2026-05-03T16:08:18.892Z</time></trkpt><trkpt lat="41.898764" lon="12.5743177"><ele>29.0</ele><time>2026-05-03T16:08:19.896Z</time></trkpt><trkpt lat="41.8986337" lon="12.5743326"><ele>29.5</ele><time>2026-05-03T16:08:20.887Z</time></trkpt><trkpt lat="41.8985131" lon="12.5743402"><ele>30.0</ele><time>2026-05-03T16:08:21.899Z</time></trkpt><trkpt lat="41.8984034" lon="12.5743457"><ele>30.0</ele><time>2026-05-03T16:08:22.894Z</time></trkpt><trkpt lat="41.898295" lon="12.5743476"><ele>30.0</ele><time>2026-05-03T16:08:23.89Z</time></trkpt><trkpt lat="41.8981861" lon="12.5743473"><ele>30.0</ele><time>2026-05-03T16:08:24.892Z</time></trkpt><trkpt lat="41.8980597" lon="12.5743459"><ele>30.0</ele><time>2026-05-03T16:08:25.894Z</time></trkpt><trkpt lat="41.8979285" lon="12.5743453"><ele>30.0</ele><time>2026-05-03T16:08:26.885Z</time></trkpt><trkpt lat="41.8977974" lon="12.5743428"><ele>30.0</ele><time>2026-05-03T16:08:27.897Z</time></trkpt><trkpt lat="41.8976654" lon="12.5743388"><ele>30.0</ele><time>2026-05-03T16:08:28.89Z</time></trkpt><trkpt lat="41.8975329" lon="12.5743312"><ele>30.0</ele><time>2026-05-03T16:08:29.89Z</time></trkpt><trkpt lat="41.8974137" lon="12.5743236"><ele>30.0</ele><time>2026-05-03T16:08:30.888Z</time></trkpt><trkpt lat="41.8973102" lon="12.5743174"><ele>30.0</ele><time>2026-05-03T16:08:31.893Z</time></trkpt><trkpt lat="41.8972123" lon="12.574308"><ele>30.0</ele><time>2026-05-03T16:08:32.882Z</time></trkpt><trkpt lat="41.8970911" lon="12.5743052"><ele>30.0</ele><time>2026-05-03T16:08:33.889Z</time></trkpt><trkpt lat="41.8969557" lon="12.5742994"><ele>30.0</ele><time>2026-05-03T16:08:34.877Z</time></trkpt><trkpt lat="41.8968045" lon="12.5742798"><ele>30.0</ele><time>2026-05-03T16:08:35.884Z</time></trkpt><trkpt lat="41.8966317" lon="12.5742283"><ele>30.0</ele><time>2026-05-03T16:08:36.887Z</time></trkpt><trkpt lat="41.8964621" lon="12.5742098"><ele>29.5</ele><time>2026-05-03T16:08:37.88Z</time></trkpt><trkpt lat="41.8963237" lon="12.5742039"><ele>29.0</ele><time>2026-05-03T16:08:38.884Z</time></trkpt><trkpt lat="41.8961753" lon="12.5741488"><ele>28.5</ele><time>2026-05-03T16:08:39.896Z</time></trkpt><trkpt lat="41.89606" lon="12.5741405"><ele>28.0</ele><time>2026-05-03T16:08:40.882Z</time></trkpt><trkpt lat="41.8959372" lon="12.5741258"><ele>28.0</ele><time>2026-05-03T16:08:41.885Z</time></trkpt><trkpt lat="41.8958415" lon="12.5741678"><ele>27.999999999999996</ele><time>2026-05-03T16:08:42.892Z</time></trkpt><trkpt lat="41.8957445" lon="12.5741969"><ele>27.999999999999996</ele><time>2026-05-03T16:08:43.882Z</time></trkpt><trkpt lat="41.895651" lon="12.5742234"><ele>28.0</ele><time>2026-05-03T16:08:44.89Z</time></trkpt><trkpt lat="41.8955342" lon="12.5742409"><ele>28.0</ele><time>2026-05-03T16:08:45.891Z</time></trkpt><trkpt lat="41.8954236" lon="12.5742519"><ele>28.000000000000004</ele><time>2026-05-03T16:08:46.88Z</time></trkpt><trkpt lat="41.8953199" lon="12.5742322"><ele>28.0</ele><time>2026-05-03T16:08:47.882Z</time></trkpt><trkpt lat="41.8952499" lon="12.5741963"><ele>28.0</ele><time>2026-05-03T16:08:48.878Z</time></trkpt><trkpt lat="41.8951915" lon="12.5741473"><ele>28.0</ele><time>2026-05-03T16:08:49.883Z</time></trkpt><trkpt lat="41.8951423" lon="12.5740712"><ele>28.000000000000004</ele><time>2026-05-03T16:08:50.89Z</time></trkpt><trkpt lat="41.8950856" lon="12.5739652"><ele>28.0</ele><time>2026-05-03T16:08:52.873Z</time></trkpt><trkpt lat="41.8950685" lon="12.5738225"><ele>27.666666666666668</ele><time>2026-05-03T16:08:54.879Z</time></trkpt><trkpt lat="41.8950519" lon="12.5737382"><ele>27.333333333333336</ele><time>2026-05-03T16:08:55.869Z</time></trkpt><trkpt lat="41.8950287" lon="12.5736582"><ele>27.0</ele><time>2026-05-03T16:08:56.879Z</time></trkpt><trkpt lat="41.8949795" lon="12.5735838"><ele>26.666666666666664</ele><time>2026-05-03T16:08:58.875Z</time></trkpt><trkpt lat="41.89489" lon="12.573645"><ele>26.333333333333332</ele><time>2026-05-03T16:09:01.897Z</time></trkpt><trkpt lat="41.8948348" lon="12.5736868"><ele>26.0</ele><time>2026-05-03T16:09:02.878Z</time></trkpt><trkpt lat="41.8947648" lon="12.5737522"><ele>26.0</ele><time>2026-05-03T16:09:03.872Z</time></trkpt><trkpt lat="41.8946891" lon="12.5738435"><ele>26.0</ele><time>2026-05-03T16:09:04.876Z</time></trkpt><trkpt lat="41.8946107" lon="12.5739618"><ele>26.0</ele><time>2026-05-03T16:09:05.87Z</time></trkpt><trkpt lat="41.8945549" lon="12.5740832"><ele>26.0</ele><time>2026-05-03T16:09:06.876Z</time></trkpt><trkpt lat="41.8945449" lon="12.5742267"><ele>26.0</ele><time>2026-05-03T16:09:07.875Z</time></trkpt><trkpt lat="41.8945609" lon="12.5743494"><ele>26.0</ele><time>2026-05-03T16:09:08.867Z</time></trkpt><trkpt lat="41.8945696" lon="12.5744557"><ele>26.0</ele><time>2026-05-03T16:09:09.875Z</time></trkpt><trkpt lat="41.8945676" lon="12.5745517"><ele>26.0</ele><time>2026-05-03T16:09:10.861Z</time></trkpt><trkpt lat="41.8945144" lon="12.5746802"><ele>26.0</ele><time>2026-05-03T16:09:12.87Z</time></trkpt><trkpt lat="41.8944327" lon="12.574728"><ele>26.0</ele><time>2026-05-03T16:09:13.879Z</time></trkpt><trkpt lat="41.8942816" lon="12.5747195"><ele>27.666666666666664</ele><time>2026-05-03T16:09:14.864Z</time></trkpt><trkpt lat="41.8940963" lon="12.5746597"><ele>29.333333333333336</ele><time>2026-05-03T16:09:15.861Z</time></trkpt><trkpt lat="41.8939286" lon="12.5746165"><ele>31.0</ele><time>2026-05-03T16:09:16.878Z</time></trkpt><trkpt lat="41.8937326" lon="12.5745139"><ele>31.0</ele><time>2026-05-03T16:09:17.87Z</time></trkpt><trkpt lat="41.8935016" lon="12.5744258"><ele>31.0</ele><time>2026-05-03T16:09:18.878Z</time></trkpt><trkpt lat="41.8932522" lon="12.5743445"><ele>32.0</ele><time>2026-05-03T16:09:19.875Z</time></trkpt><trkpt lat="41.8930307" lon="12.5743257"><ele>33.0</ele><time>2026-05-03T16:09:20.876Z</time></trkpt><trkpt lat="41.8927952" lon="12.5743189"><ele>33.0</ele><time>2026-05-03T16:09:21.873Z</time></trkpt><trkpt lat="41.8925972" lon="12.5743118"><ele>33.0</ele><time>2026-05-03T16:09:22.885Z</time></trkpt><trkpt lat="41.8924438" lon="12.5742773"><ele>33.0</ele><time>2026-05-03T16:09:23.865Z</time></trkpt><trkpt lat="41.8922644" lon="12.5742562"><ele>33.666666666666664</ele><time>2026-05-03T16:09:24.872Z</time></trkpt><trkpt lat="41.8920507" lon="12.5742078"><ele>34.33333333333333</ele><time>2026-05-03T16:09:25.87Z</time></trkpt><trkpt lat="41.8918925" lon="12.5742072"><ele>35.0</ele><time>2026-05-03T16:09:26.862Z</time></trkpt><trkpt lat="41.891706" lon="12.5741955"><ele>35.0</ele><time>2026-05-03T16:09:27.879Z</time></trkpt><trkpt lat="41.8915138" lon="12.5741784"><ele>35.0</ele><time>2026-05-03T16:09:28.883Z</time></trkpt><trkpt lat="41.8913113" lon="12.5741602"><ele>35.0</ele><time>2026-05-03T16:09:29.893Z</time></trkpt><trkpt lat="41.8911297" lon="12.5741028"><ele>35.0</ele><time>2026-05-03T16:09:30.899Z</time></trkpt><trkpt lat="41.8909686" lon="12.574072"><ele>35.0</ele><time>2026-05-03T16:09:31.894Z</time></trkpt><trkpt lat="41.8908565" lon="12.5740135"><ele>35.0</ele><time>2026-05-03T16:09:32.89Z</time></trkpt><trkpt lat="41.8907399" lon="12.573978"><ele>35.0</ele><time>2026-05-03T16:09:33.898Z</time></trkpt><trkpt lat="41.8906405" lon="12.5739212"><ele>34.83333333333333</ele><time>2026-05-03T16:09:34.892Z</time></trkpt><trkpt lat="41.8905518" lon="12.5738739"><ele>34.666666666666664</ele><time>2026-05-03T16:09:35.886Z</time></trkpt><trkpt lat="41.8904549" lon="12.5738594"><ele>34.5</ele><time>2026-05-03T16:09:36.893Z</time></trkpt><trkpt lat="41.8903884" lon="12.573833"><ele>34.333333333333336</ele><time>2026-05-03T16:09:40.89Z</time></trkpt><trkpt lat="41.8903209" lon="12.5738343"><ele>34.16666666666667</ele><time>2026-05-03T16:10:13.873Z</time></trkpt><trkpt lat="41.8902387" lon="12.573814"><ele>34.0</ele><time>2026-05-03T16:10:15.88Z</time></trkpt><trkpt lat="41.8901423" lon="12.5737754"><ele>34.0</ele><time>2026-05-03T16:10:16.878Z</time></trkpt><trkpt lat="41.8900085" lon="12.5737179"><ele>34.0</ele><time>2026-05-03T16:10:17.879Z</time></trkpt><trkpt lat="41.889838" lon="12.5736463"><ele>34.0</ele><time>2026-05-03T16:10:18.88Z</time></trkpt><trkpt lat="41.8896399" lon="12.5736035"><ele>34.0</ele><time>2026-05-03T16:10:19.878Z</time></trkpt><trkpt lat="41.8893953" lon="12.5735701"><ele>34.0</ele><time>2026-05-03T16:10:20.876Z</time></trkpt><trkpt lat="41.8891747" lon="12.5735332"><ele>33.66666666666667</ele><time>2026-05-03T16:10:21.886Z</time></trkpt><trkpt lat="41.8889809" lon="12.5735091"><ele>33.333333333333336</ele><time>2026-05-03T16:10:22.888Z</time></trkpt><trkpt lat="41.8887543" lon="12.5734856"><ele>33.0</ele><time>2026-05-03T16:10:23.885Z</time></trkpt><trkpt lat="41.8885257" lon="12.573432"><ele>33.0</ele><time>2026-05-03T16:10:24.882Z</time></trkpt><trkpt lat="41.8882968" lon="12.5733559"><ele>33.0</ele><time>2026-05-03T16:10:25.88Z</time></trkpt><trkpt lat="41.8880949" lon="12.5733258"><ele>33.0</ele><time>2026-05-03T16:10:26.88Z</time></trkpt><trkpt lat="41.8878774" lon="12.5733119"><ele>33.0</ele><time>2026-05-03T16:10:27.87Z</time></trkpt><trkpt lat="41.8876801" lon="12.573296"><ele>33.0</ele><time>2026-05-03T16:10:28.871Z</time></trkpt><trkpt lat="41.887473" lon="12.5732649"><ele>33.0</ele><time>2026-05-03T16:10:29.875Z</time></trkpt><trkpt lat="41.8872755" lon="12.5732237"><ele>32.333333333333336</ele><time>2026-05-03T16:10:30.876Z</time></trkpt><trkpt lat="41.887069" lon="12.5732"><ele>31.666666666666668</ele><time>2026-05-03T16:10:31.873Z</time></trkpt><trkpt lat="41.8868661" lon="12.5731718"><ele>31.0</ele><time>2026-05-03T16:10:32.882Z</time></trkpt><trkpt lat="41.8866676" lon="12.5731501"><ele>29.5</ele><time>2026-05-03T16:10:33.878Z</time></trkpt><trkpt lat="41.886445" lon="12.5731313"><ele>28.0</ele><time>2026-05-03T16:10:34.874Z</time></trkpt><trkpt lat="41.8862019" lon="12.5731329"><ele>28.0</ele><time>2026-05-03T16:10:35.879Z</time></trkpt><trkpt lat="41.885987" lon="12.5731154"><ele>28.0</ele><time>2026-05-03T16:10:36.882Z</time></trkpt><trkpt lat="41.8857773" lon="12.5731044"><ele>28.0</ele><time>2026-05-03T16:10:37.868Z</time></trkpt><trkpt lat="41.8855628" lon="12.5730809"><ele>28.333333333333336</ele><time>2026-05-03T16:10:38.876Z</time></trkpt><trkpt lat="41.8853703" lon="12.5730622"><ele>28.666666666666664</ele><time>2026-05-03T16:10:39.877Z</time></trkpt><trkpt lat="41.8851809" lon="12.5730552"><ele>29.0</ele><time>2026-05-03T16:10:40.879Z</time></trkpt><trkpt lat="41.8850075" lon="12.5730181"><ele>29.666666666666664</ele><time>2026-05-03T16:10:41.882Z</time></trkpt><trkpt lat="41.8848082" lon="12.5730081"><ele>30.333333333333336</ele><time>2026-05-03T16:10:42.881Z</time></trkpt><trkpt lat="41.8846128" lon="12.5730151"><ele>31.0</ele><time>2026-05-03T16:10:43.88Z</time></trkpt><trkpt lat="41.8844607" lon="12.5730021"><ele>31.0</ele><time>2026-05-03T16:10:44.872Z</time></trkpt><trkpt lat="41.8842882" lon="12.5729968"><ele>31.0</ele><time>2026-05-03T16:10:45.879Z</time></trkpt><trkpt lat="41.8841197" lon="12.5729969"><ele>31.0</ele><time>2026-05-03T16:10:46.883Z</time></trkpt><trkpt lat="41.8839089" lon="12.5730064"><ele>31.666666666666668</ele><time>2026-05-03T16:10:47.877Z</time></trkpt><trkpt lat="41.8837413" lon="12.5730225"><ele>32.333333333333336</ele><time>2026-05-03T16:10:48.89Z</time></trkpt><trkpt lat="41.8835773" lon="12.5730247"><ele>33.0</ele><time>2026-05-03T16:10:49.874Z</time></trkpt><trkpt lat="41.8833901" lon="12.5730086"><ele>33.0</ele><time>2026-05-03T16:10:50.875Z</time></trkpt><trkpt lat="41.8832125" lon="12.5729971"><ele>33.0</ele><time>2026-05-03T16:10:51.882Z</time></trkpt><trkpt lat="41.8830763" lon="12.572997"><ele>33.0</ele><time>2026-05-03T16:10:52.887Z</time></trkpt><trkpt lat="41.8829403" lon="12.5730001"><ele>33.0</ele><time>2026-05-03T16:10:53.9Z</time></trkpt><trkpt lat="41.8828127" lon="12.5729689"><ele>33.0</ele><time>2026-05-03T16:10:54.887Z</time></trkpt><trkpt lat="41.8826789" lon="12.5729522"><ele>33.0</ele><time>2026-05-03T16:10:55.882Z</time></trkpt><trkpt lat="41.8825723" lon="12.5729645"><ele>33.0</ele><time>2026-05-03T16:10:56.891Z</time></trkpt><trkpt lat="41.882455" lon="12.5729602"><ele>33.0</ele><time>2026-05-03T16:10:57.879Z</time></trkpt><trkpt lat="41.8823551" lon="12.5729728"><ele>33.0</ele><time>2026-05-03T16:10:58.887Z</time></trkpt><trkpt lat="41.8822388" lon="12.5729459"><ele>33.0</ele><time>2026-05-03T16:10:59.882Z</time></trkpt><trkpt lat="41.8821366" lon="12.5729517"><ele>33.0</ele><time>2026-05-03T16:11:00.889Z</time></trkpt><trkpt lat="41.8820242" lon="12.5729828"><ele>33.0</ele><time>2026-05-03T16:11:01.88Z</time></trkpt><trkpt lat="41.881914" lon="12.5729879"><ele>33.0</ele><time>2026-05-03T16:11:02.889Z</time></trkpt><trkpt lat="41.8817945" lon="12.5729739"><ele>33.0</ele><time>2026-05-03T16:11:03.884Z</time></trkpt><trkpt lat="41.8816599" lon="12.5729674"><ele>33.0</ele><time>2026-05-03T16:11:04.891Z</time></trkpt><trkpt lat="41.8815463" lon="12.5729644"><ele>33.0</ele><time>2026-05-03T16:11:05.88Z</time></trkpt><trkpt lat="41.8814411" lon="12.5729556"><ele>33.4</ele><time>2026-05-03T16:11:06.89Z</time></trkpt><trkpt lat="41.881333" lon="12.5729512"><ele>33.8</ele><time>2026-05-03T16:11:07.884Z</time></trkpt><trkpt lat="41.8812291" lon="12.5729549"><ele>34.2</ele><time>2026-05-03T16:11:08.883Z</time></trkpt><trkpt lat="41.8811183" lon="12.5729515"><ele>34.6</ele><time>2026-05-03T16:11:09.884Z</time></trkpt><trkpt lat="41.8810162" lon="12.5729366"><ele>35.0</ele><time>2026-05-03T16:11:10.877Z</time></trkpt><trkpt lat="41.8809125" lon="12.5729274"><ele>35.0</ele><time>2026-05-03T16:11:11.887Z</time></trkpt><trkpt lat="41.8808235" lon="12.5728936"><ele>35.0</ele><time>2026-05-03T16:11:12.877Z</time></trkpt><trkpt lat="41.8807315" lon="12.5728966"><ele>35.0</ele><time>2026-05-03T16:11:13.883Z</time></trkpt><trkpt lat="41.880629" lon="12.5729213"><ele>35.0</ele><time>2026-05-03T16:11:15.88Z</time></trkpt><trkpt lat="41.8805979" lon="12.5730161"><ele>35.0</ele><time>2026-05-03T16:11:17.88Z</time></trkpt><trkpt lat="41.880566" lon="12.5731448"><ele>35.0</ele><time>2026-05-03T16:11:44.876Z</time></trkpt><trkpt lat="41.8805503" lon="12.5732871"><ele>35.0</ele><time>2026-05-03T16:11:46.874Z</time></trkpt><trkpt lat="41.8805452" lon="12.5733977"><ele>35.0</ele><time>2026-05-03T16:11:47.871Z</time></trkpt><trkpt lat="41.8805518" lon="12.5735262"><ele>35.0</ele><time>2026-05-03T16:11:48.878Z</time></trkpt><trkpt lat="41.8805566" lon="12.5736987"><ele>35.0</ele><time>2026-05-03T16:11:49.875Z</time></trkpt><trkpt lat="41.880583" lon="12.573879"><ele>35.33333333333333</ele><time>2026-05-03T16:11:50.87Z</time></trkpt><trkpt lat="41.8806063" lon="12.5740714"><ele>35.666666666666664</ele><time>2026-05-03T16:11:51.875Z</time></trkpt><trkpt lat="41.8806355" lon="12.5743725"><ele>36.0</ele><time>2026-05-03T16:11:52.884Z</time></trkpt><trkpt lat="41.880677" lon="12.5746773"><ele>36.666666666666664</ele><time>2026-05-03T16:11:53.873Z</time></trkpt><trkpt lat="41.880752" lon="12.5749519"><ele>37.33333333333333</ele><time>2026-05-03T16:11:54.885Z</time></trkpt><trkpt lat="41.8808392" lon="12.5751898"><ele>38.0</ele><time>2026-05-03T16:11:55.881Z</time></trkpt><trkpt lat="41.8809108" lon="12.5753904"><ele>38.666666666666664</ele><time>2026-05-03T16:11:56.886Z</time></trkpt><trkpt lat="41.8809564" lon="12.5755892"><ele>39.333333333333336</ele><time>2026-05-03T16:11:57.881Z</time></trkpt><trkpt lat="41.880974" lon="12.5757806"><ele>40.0</ele><time>2026-05-03T16:11:58.875Z</time></trkpt><trkpt lat="41.8809887" lon="12.5759961"><ele>41.66666666666667</ele><time>2026-05-03T16:11:59.873Z</time></trkpt><trkpt lat="41.8810219" lon="12.5762228"><ele>43.333333333333336</ele><time>2026-05-03T16:12:00.877Z</time></trkpt><trkpt lat="41.8810658" lon="12.5764409"><ele>45.0</ele><time>2026-05-03T16:12:01.873Z</time></trkpt><trkpt lat="41.8810951" lon="12.5766426"><ele>45.0</ele><time>2026-05-03T16:12:02.88Z</time></trkpt><trkpt lat="41.8811225" lon="12.5768349"><ele>45.0</ele><time>2026-05-03T16:12:03.861Z</time></trkpt><trkpt lat="41.8811268" lon="12.5769988"><ele>45.0</ele><time>2026-05-03T16:12:04.884Z</time></trkpt><trkpt lat="41.8811515" lon="12.5771642"><ele>45.0</ele><time>2026-05-03T16:12:05.871Z</time></trkpt><trkpt lat="41.881177" lon="12.5772708"><ele>45.2</ele><time>2026-05-03T16:12:06.87Z</time></trkpt><trkpt lat="41.8811384" lon="12.577343"><ele>45.4</ele><time>2026-05-03T16:12:08.874Z</time></trkpt><trkpt lat="41.881083" lon="12.5774132"><ele>45.599999999999994</ele><time>2026-05-03T16:12:10.865Z</time></trkpt><trkpt lat="41.8809427" lon="12.5774316"><ele>45.8</ele><time>2026-05-03T16:12:12.871Z</time></trkpt><trkpt lat="41.8808073" lon="12.5774617"><ele>46.0</ele><time>2026-05-03T16:12:13.865Z</time></trkpt><trkpt lat="41.8806759" lon="12.5774911"><ele>46.0</ele><time>2026-05-03T16:12:14.857Z</time></trkpt><trkpt lat="41.8805582" lon="12.5775141"><ele>46.0</ele><time>2026-05-03T16:12:15.873Z</time></trkpt><trkpt lat="41.8804386" lon="12.5775382"><ele>46.0</ele><time>2026-05-03T16:12:16.878Z</time></trkpt><trkpt lat="41.8803292" lon="12.5775549"><ele>46.0</ele><time>2026-05-03T16:12:17.878Z</time></trkpt><trkpt lat="41.8802184" lon="12.577576"><ele>46.0</ele><time>2026-05-03T16:12:18.884Z</time></trkpt><trkpt lat="41.880108" lon="12.5775935"><ele>46.0</ele><time>2026-05-03T16:12:19.881Z</time></trkpt><trkpt lat="41.8800092" lon="12.5776116"><ele>46.0</ele><time>2026-05-03T16:12:20.883Z</time></trkpt><trkpt lat="41.8799129" lon="12.5776258"><ele>46.0</ele><time>2026-05-03T16:12:21.889Z</time></trkpt><trkpt lat="41.879824" lon="12.5776505"><ele>46.0</ele><time>2026-05-03T16:12:22.892Z</time></trkpt><trkpt lat="41.8797387" lon="12.5776786"><ele>46.0</ele><time>2026-05-03T16:12:23.892Z</time></trkpt><trkpt lat="41.8796444" lon="12.5777105"><ele>46.0</ele><time>2026-05-03T16:12:24.893Z</time></trkpt><trkpt lat="41.8795396" lon="12.5777461"><ele>46.0</ele><time>2026-05-03T16:12:25.878Z</time></trkpt><trkpt lat="41.8794361" lon="12.5777805"><ele>46.0</ele><time>2026-05-03T16:12:26.884Z</time></trkpt><trkpt lat="41.8793316" lon="12.5778108"><ele>46.0</ele><time>2026-05-03T16:12:27.888Z</time></trkpt><trkpt lat="41.8792293" lon="12.5778395"><ele>47.0</ele><time>2026-05-03T16:12:28.875Z</time></trkpt><trkpt lat="41.8791509" lon="12.5778727"><ele>48.0</ele><time>2026-05-03T16:12:29.878Z</time></trkpt><trkpt lat="41.8790795" lon="12.5778948"><ele>49.0</ele><time>2026-05-03T16:12:30.881Z</time></trkpt><trkpt lat="41.8790043" lon="12.5778457"><ele>50.0</ele><time>2026-05-03T16:12:32.871Z</time></trkpt><trkpt lat="41.8790085" lon="12.5776499"><ele>51.0</ele><time>2026-05-03T16:12:34.863Z</time></trkpt><trkpt lat="41.8790405" lon="12.5775121"><ele>51.0</ele><time>2026-05-03T16:12:35.867Z</time></trkpt><trkpt lat="41.8790568" lon="12.5773431"><ele>51.0</ele><time>2026-05-03T16:12:36.865Z</time></trkpt><trkpt lat="41.8790443" lon="12.5771929"><ele>51.0</ele><time>2026-05-03T16:12:37.866Z</time></trkpt><trkpt lat="41.8790343" lon="12.5770511"><ele>51.0</ele><time>2026-05-03T16:12:38.869Z</time></trkpt><trkpt lat="41.8789863" lon="12.5767959"><ele>50.333333333333336</ele><time>2026-05-03T16:12:40.869Z</time></trkpt><trkpt lat="41.8789725" lon="12.5766766"><ele>49.666666666666664</ele><time>2026-05-03T16:12:41.878Z</time></trkpt><trkpt lat="41.8789299" lon="12.5765855"><ele>49.0</ele><time>2026-05-03T16:12:42.874Z</time></trkpt><trkpt lat="41.8788673" lon="12.576544"><ele>48.33333333333333</ele><time>2026-05-03T16:12:43.879Z</time></trkpt><trkpt lat="41.8787972" lon="12.5765412"><ele>47.666666666666664</ele><time>2026-05-03T16:12:44.882Z</time></trkpt><trkpt lat="41.8787187" lon="12.5765682"><ele>47.0</ele><time>2026-05-03T16:12:45.879Z</time></trkpt><trkpt lat="41.8786205" lon="12.5765948"><ele>47.0</ele><time>2026-05-03T16:12:46.897Z</time></trkpt><trkpt lat="41.8784953" lon="12.5766458"><ele>47.0</ele><time>2026-05-03T16:12:47.886Z</time></trkpt><trkpt lat="41.878384" lon="12.5766966"><ele>47.0</ele><time>2026-05-03T16:12:48.88Z</time></trkpt><trkpt lat="41.8782821" lon="12.576745"><ele>47.0</ele><time>2026-05-03T16:12:49.87Z</time></trkpt><trkpt lat="41.8781843" lon="12.5767998"><ele>47.666666666666664</ele><time>2026-05-03T16:12:50.881Z</time></trkpt><trkpt lat="41.8780872" lon="12.5768358"><ele>48.33333333333333</ele><time>2026-05-03T16:12:51.878Z</time></trkpt><trkpt lat="41.8779894" lon="12.576877"><ele>49.0</ele><time>2026-05-03T16:12:52.914Z</time></trkpt><trkpt lat="41.8779076" lon="12.5769144"><ele>49.666666666666664</ele><time>2026-05-03T16:12:53.885Z</time></trkpt><trkpt lat="41.8778336" lon="12.5769378"><ele>50.333333333333336</ele><time>2026-05-03T16:12:54.884Z</time></trkpt><trkpt lat="41.8777657" lon="12.5769569"><ele>51.0</ele><time>2026-05-03T16:12:55.874Z</time></trkpt><trkpt lat="41.877671" lon="12.5770114"><ele>51.0</ele><time>2026-05-03T16:12:57.889Z</time></trkpt><trkpt lat="41.8776127" lon="12.5770474"><ele>55.0</ele><time>2026-05-03T16:12:59.876Z</time></trkpt><trkpt lat="41.8775421" lon="12.5770419"><ele>53.0</ele><time>2026-05-03T16:13:05.868Z</time></trkpt><trkpt lat="41.8774808" lon="12.577079"><ele>53.0</ele><time>2026-05-03T16:13:09.879Z</time></trkpt></trkseg></trk></gpx>